<?xml version='1.0' encoding='UTF-8'?><gpx version="1.1" creator="JPX - https://github.com/jenetics/jpx" xmlns="http://www.topografix.com/GPX/1/1"><trk><trkseg><trkpt lat="45.5861614993378" lon="11.364911662452101"><ele>193.39999999999998</ele><time>2026-04-01T12:37:29.001Z</time></trkpt><trkpt lat="45.586202284129456" lon="11.364700820995669"><ele>192.8</ele><time>2026-04-01T12:37:38.001Z</time></trkpt><trkpt lat="45.58613299514981" lon="11.364664104823845"><ele>192.2</ele><time>2026-04-01T12:37:39.001Z</time></trkpt><trkpt lat="45.58615480813785" lon="11.364548331618652"><ele>191.60000000000002</ele><time>2026-04-01T12:37:42Z</time></trkpt><trkpt lat="45.586177881578465" lon="11.364456998036182"><ele>191.0</ele><time>2026-04-01T12:37:46Z</time></trkpt><trkpt lat="45.58629097160519" lon="11.364372925027455"><ele>191.0</ele><time>2026-04-01T12:37:48Z</time></trkpt><trkpt lat="45.58636895615219" lon="11.364345497382365"><ele>191.0</ele><time>2026-04-01T12:37:49Z</time></trkpt><trkpt lat="45.58645274370781" lon="11.36430089659092"><ele>191.0</ele><time>2026-04-01T12:37:50Z</time></trkpt><trkpt lat="45.58655296542326" lon="11.3642518871707"><ele>191.0</ele><time>2026-04-01T12:37:51Z</time></trkpt><trkpt lat="45.58664392131839" lon="11.364199437733857"><ele>191.0</ele><time>2026-04-01T12:37:52Z</time></trkpt><trkpt lat="45.58672682371564" lon="11.364147724609827"><ele>191.0</ele><time>2026-04-01T12:37:53Z</time></trkpt><trkpt lat="45.58680581668253" lon="11.364105159898022"><ele>191.0</ele><time>2026-04-01T12:37:54Z</time></trkpt><trkpt lat="45.58689145111901" lon="11.364070498358947"><ele>191.0</ele><time>2026-04-01T12:37:55Z</time></trkpt><trkpt lat="45.58697331850983" lon="11.364040885471443"><ele>191.0</ele><time>2026-04-01T12:37:56Z</time></trkpt><trkpt lat="45.58706360800359" lon="11.36405860176215"><ele>191.0</ele><time>2026-04-01T12:37:57Z</time></trkpt><trkpt lat="45.5871427672511" lon="11.364142817385067"><ele>191.0</ele><time>2026-04-01T12:37:58Z</time></trkpt><trkpt lat="45.58722711119324" lon="11.36418996106587"><ele>189.4</ele><time>2026-04-01T12:37:59Z</time></trkpt><trkpt lat="45.58730368936094" lon="11.364278871964398"><ele>187.8</ele><time>2026-04-01T12:38:00Z</time></trkpt><trkpt lat="45.58739503364953" lon="11.364376456852987"><ele>186.20000000000002</ele><time>2026-04-01T12:38:01Z</time></trkpt><trkpt lat="45.58750439778991" lon="11.364446656769905"><ele>184.60000000000002</ele><time>2026-04-01T12:38:02Z</time></trkpt><trkpt lat="45.587579813032576" lon="11.364514174972687"><ele>183.0</ele><time>2026-04-01T12:38:03Z</time></trkpt><trkpt lat="45.587659573490726" lon="11.364551466876714"><ele>183.0</ele><time>2026-04-01T12:38:04Z</time></trkpt><trkpt lat="45.58774473828249" lon="11.364601195457151"><ele>183.0</ele><time>2026-04-01T12:38:05Z</time></trkpt><trkpt lat="45.58783484757292" lon="11.364654444374374"><ele>183.0</ele><time>2026-04-01T12:38:06Z</time></trkpt><trkpt lat="45.58793594388848" lon="11.364725304285527"><ele>183.0</ele><time>2026-04-01T12:38:07Z</time></trkpt><trkpt lat="45.588027276053566" lon="11.364799110021785"><ele>183.0</ele><time>2026-04-01T12:38:08Z</time></trkpt><trkpt lat="45.58810404040535" lon="11.36488300663309"><ele>181.83333333333334</ele><time>2026-04-01T12:38:09Z</time></trkpt><trkpt lat="45.5881860601201" lon="11.364959177635573"><ele>180.66666666666666</ele><time>2026-04-01T12:38:10Z</time></trkpt><trkpt lat="45.58826622296706" lon="11.365007357227364"><ele>179.5</ele><time>2026-04-01T12:38:11Z</time></trkpt><trkpt lat="45.5883380195993" lon="11.365037778024965"><ele>178.33333333333331</ele><time>2026-04-01T12:38:12Z</time></trkpt><trkpt lat="45.588420407525255" lon="11.36505762176273"><ele>177.16666666666666</ele><time>2026-04-01T12:38:13Z</time></trkpt><trkpt lat="45.588503536355276" lon="11.365087385484662"><ele>176.0</ele><time>2026-04-01T12:38:14Z</time></trkpt><trkpt lat="45.588582290506274" lon="11.365113380668015"><ele>176.0</ele><time>2026-04-01T12:38:15Z</time></trkpt><trkpt lat="45.58865190317455" lon="11.365140730430666"><ele>176.0</ele><time>2026-04-01T12:38:16Z</time></trkpt><trkpt lat="45.58874648985168" lon="11.36525254154395"><ele>176.0</ele><time>2026-04-01T12:38:18Z</time></trkpt><trkpt lat="45.588796897922556" lon="11.3653365830855"><ele>176.0</ele><time>2026-04-01T12:38:19Z</time></trkpt><trkpt lat="45.58885959241632" lon="11.365442211476456"><ele>176.0</ele><time>2026-04-01T12:38:20Z</time></trkpt><trkpt lat="45.588918169533294" lon="11.365550195999685"><ele>175.4</ele><time>2026-04-01T12:38:21Z</time></trkpt><trkpt lat="45.588957300059164" lon="11.365678290289003"><ele>174.8</ele><time>2026-04-01T12:38:22Z</time></trkpt><trkpt lat="45.588981169892556" lon="11.365789317152583"><ele>174.20000000000002</ele><time>2026-04-01T12:38:23Z</time></trkpt><trkpt lat="45.588996433601714" lon="11.365924973244178"><ele>173.60000000000002</ele><time>2026-04-01T12:38:24Z</time></trkpt><trkpt lat="45.589007587341555" lon="11.36609273064301"><ele>173.0</ele><time>2026-04-01T12:38:25Z</time></trkpt><trkpt lat="45.58900347711303" lon="11.366272501585593"><ele>172.2</ele><time>2026-04-01T12:38:26Z</time></trkpt><trkpt lat="45.589004703198654" lon="11.366416393234568"><ele>171.4</ele><time>2026-04-01T12:38:27Z</time></trkpt><trkpt lat="45.5889995094344" lon="11.366564227765394"><ele>170.6</ele><time>2026-04-01T12:38:28Z</time></trkpt><trkpt lat="45.589014494652076" lon="11.366706566274948"><ele>169.79999999999998</ele><time>2026-04-01T12:38:29Z</time></trkpt><trkpt lat="45.589031251191166" lon="11.3668386086203"><ele>169.0</ele><time>2026-04-01T12:38:30Z</time></trkpt><trkpt lat="45.5890531123197" lon="11.366976350070628"><ele>169.0</ele><time>2026-04-01T12:38:31Z</time></trkpt><trkpt lat="45.58907460550821" lon="11.367120474815012"><ele>169.0</ele><time>2026-04-01T12:38:32Z</time></trkpt><trkpt lat="45.589099882703785" lon="11.367272726544652"><ele>169.0</ele><time>2026-04-01T12:38:33Z</time></trkpt><trkpt lat="45.58913719190478" lon="11.367431036190535"><ele>169.0</ele><time>2026-04-01T12:38:34Z</time></trkpt><trkpt lat="45.589177545839306" lon="11.367577497202628"><ele>169.0</ele><time>2026-04-01T12:38:35Z</time></trkpt><trkpt lat="45.58923497487337" lon="11.36769318560352"><ele>168.0</ele><time>2026-04-01T12:38:36Z</time></trkpt><trkpt lat="45.589283974065765" lon="11.36780125462409"><ele>167.0</ele><time>2026-04-01T12:38:37Z</time></trkpt><trkpt lat="45.58933012983339" lon="11.367899548107"><ele>166.0</ele><time>2026-04-01T12:38:38Z</time></trkpt><trkpt lat="45.58937934207519" lon="11.367994602434829"><ele>165.0</ele><time>2026-04-01T12:38:39Z</time></trkpt><trkpt lat="45.58942105238438" lon="11.368067689642494"><ele>164.0</ele><time>2026-04-01T12:38:40Z</time></trkpt><trkpt lat="45.58947279988623" lon="11.36815573754235"><ele>163.0</ele><time>2026-04-01T12:38:41Z</time></trkpt><trkpt lat="45.58951828227684" lon="11.36824020967895"><ele>162.4</ele><time>2026-04-01T12:38:42Z</time></trkpt><trkpt lat="45.58958376105288" lon="11.368339738325455"><ele>161.8</ele><time>2026-04-01T12:38:43Z</time></trkpt><trkpt lat="45.5896480801133" lon="11.368444006326257"><ele>161.2</ele><time>2026-04-01T12:38:44Z</time></trkpt><trkpt lat="45.58967576741175" lon="11.368563592164783"><ele>160.6</ele><time>2026-04-01T12:38:45Z</time></trkpt><trkpt lat="45.58966800688313" lon="11.3687151953599"><ele>160.0</ele><time>2026-04-01T12:38:46Z</time></trkpt><trkpt lat="45.58971790432177" lon="11.368848081718175"><ele>159.2</ele><time>2026-04-01T12:38:47Z</time></trkpt><trkpt lat="45.58978049990051" lon="11.368952122193818"><ele>158.4</ele><time>2026-04-01T12:38:48Z</time></trkpt><trkpt lat="45.58984048917486" lon="11.369061054905355"><ele>157.6</ele><time>2026-04-01T12:38:49Z</time></trkpt><trkpt lat="45.58989832529874" lon="11.369183733785857"><ele>156.8</ele><time>2026-04-01T12:38:50Z</time></trkpt><trkpt lat="45.58995382705947" lon="11.369299793524544"><ele>156.0</ele><time>2026-04-01T12:38:51Z</time></trkpt><trkpt lat="45.59000566975167" lon="11.369414217629892"><ele>156.0</ele><time>2026-04-01T12:38:52Z</time></trkpt><trkpt lat="45.5900534054802" lon="11.369520151699257"><ele>156.0</ele><time>2026-04-01T12:38:53Z</time></trkpt><trkpt lat="45.590100368762535" lon="11.369626309835995"><ele>156.0</ele><time>2026-04-01T12:38:54Z</time></trkpt><trkpt lat="45.59014685693614" lon="11.369728655380307"><ele>156.0</ele><time>2026-04-01T12:38:55Z</time></trkpt><trkpt lat="45.590199157127294" lon="11.369847229468064"><ele>156.0</ele><time>2026-04-01T12:38:56Z</time></trkpt><trkpt lat="45.59025216986712" lon="11.369970924891659"><ele>155.8</ele><time>2026-04-01T12:38:57Z</time></trkpt><trkpt lat="45.59031072874615" lon="11.370097872504795"><ele>155.6</ele><time>2026-04-01T12:38:58Z</time></trkpt><trkpt lat="45.59035641553372" lon="11.370224634339776"><ele>155.4</ele><time>2026-04-01T12:38:59Z</time></trkpt><trkpt lat="45.59041436374593" lon="11.370361802478937"><ele>155.2</ele><time>2026-04-01T12:39:00Z</time></trkpt><trkpt lat="45.59047765946475" lon="11.370503063223028"><ele>155.0</ele><time>2026-04-01T12:39:01Z</time></trkpt><trkpt lat="45.590535984983426" lon="11.370650918024184"><ele>155.75</ele><time>2026-04-01T12:39:02Z</time></trkpt><trkpt lat="45.59059329317831" lon="11.370802452161383"><ele>156.5</ele><time>2026-04-01T12:39:03Z</time></trkpt><trkpt lat="45.59066056341812" lon="11.370974281926841"><ele>157.25</ele><time>2026-04-01T12:39:04Z</time></trkpt><trkpt lat="45.590722744977754" lon="11.371141256932848"><ele>158.0</ele><time>2026-04-01T12:39:05Z</time></trkpt><trkpt lat="45.590782586953324" lon="11.371273173319167"><ele>158.0</ele><time>2026-04-01T12:39:06Z</time></trkpt><trkpt lat="45.59081974988207" lon="11.371412884678525"><ele>158.0</ele><time>2026-04-01T12:39:07Z</time></trkpt><trkpt lat="45.59086142445606" lon="11.371531623107568"><ele>158.0</ele><time>2026-04-01T12:39:08Z</time></trkpt><trkpt lat="45.590898605169734" lon="11.37164774088623"><ele>158.0</ele><time>2026-04-01T12:39:09Z</time></trkpt><trkpt lat="45.590948988137065" lon="11.371772587626756"><ele>158.0</ele><time>2026-04-01T12:39:10Z</time></trkpt><trkpt lat="45.59095897539654" lon="11.37191143458916"><ele>158.0</ele><time>2026-04-01T12:39:11Z</time></trkpt><trkpt lat="45.59097091641464" lon="11.37204278762416"><ele>158.0</ele><time>2026-04-01T12:39:12Z</time></trkpt><trkpt lat="45.590982466733855" lon="11.372165935552358"><ele>158.0</ele><time>2026-04-01T12:39:14Z</time></trkpt><trkpt lat="45.59098449121983" lon="11.372296395244076"><ele>158.0</ele><time>2026-04-01T12:39:17Z</time></trkpt><trkpt lat="45.591112201409196" lon="11.372269363238411"><ele>158.0</ele><time>2026-04-01T12:39:19Z</time></trkpt><trkpt lat="45.59120428499062" lon="11.37220855069757"><ele>157.66666666666666</ele><time>2026-04-01T12:39:21Z</time></trkpt><trkpt lat="45.591259971639296" lon="11.372145833818976"><ele>157.33333333333331</ele><time>2026-04-01T12:39:22Z</time></trkpt><trkpt lat="45.59130880125049" lon="11.372075628762481"><ele>157.0</ele><time>2026-04-01T12:39:23Z</time></trkpt><trkpt lat="45.59136813916901" lon="11.371994186345221"><ele>156.66666666666666</ele><time>2026-04-01T12:39:24Z</time></trkpt><trkpt lat="45.5914231454204" lon="11.371903999731707"><ele>156.33333333333334</ele><time>2026-04-01T12:39:25Z</time></trkpt><trkpt lat="45.59147078997424" lon="11.371822194128251"><ele>156.0</ele><time>2026-04-01T12:39:26Z</time></trkpt><trkpt lat="45.59154380597734" lon="11.371718881325934"><ele>156.0</ele><time>2026-04-01T12:39:27Z</time></trkpt><trkpt lat="45.591618446489235" lon="11.371616833572993"><ele>156.0</ele><time>2026-04-01T12:39:28Z</time></trkpt><trkpt lat="45.59170321062654" lon="11.37149852233531"><ele>156.0</ele><time>2026-04-01T12:39:29Z</time></trkpt><trkpt lat="45.591792653965925" lon="11.371362461217526"><ele>156.0</ele><time>2026-04-01T12:39:30Z</time></trkpt><trkpt lat="45.5918750538104" lon="11.37123148244661"><ele>156.2</ele><time>2026-04-01T12:39:31Z</time></trkpt><trkpt lat="45.59196597542797" lon="11.37109759327645"><ele>156.39999999999998</ele><time>2026-04-01T12:39:32Z</time></trkpt><trkpt lat="45.59204323193501" lon="11.370979718978125"><ele>156.6</ele><time>2026-04-01T12:39:33Z</time></trkpt><trkpt lat="45.59210793073429" lon="11.370882234583652"><ele>156.79999999999998</ele><time>2026-04-01T12:39:34Z</time></trkpt><trkpt lat="45.59217336022318" lon="11.370779142008724"><ele>157.0</ele><time>2026-04-01T12:39:35Z</time></trkpt><trkpt lat="45.59224077357358" lon="11.3706760990225"><ele>157.0</ele><time>2026-04-01T12:39:36Z</time></trkpt><trkpt lat="45.59231652597466" lon="11.370563727513929"><ele>157.0</ele><time>2026-04-01T12:39:37Z</time></trkpt><trkpt lat="45.59238342338558" lon="11.370466046303166"><ele>157.0</ele><time>2026-04-01T12:39:38Z</time></trkpt><trkpt lat="45.59245957791222" lon="11.370356039849927"><ele>157.0</ele><time>2026-04-01T12:39:39Z</time></trkpt><trkpt lat="45.592524846178605" lon="11.370263139521237"><ele>157.0</ele><time>2026-04-01T12:39:40Z</time></trkpt><trkpt lat="45.592589583256924" lon="11.37017353073164"><ele>157.16666666666669</ele><time>2026-04-01T12:39:41Z</time></trkpt><trkpt lat="45.59264930452958" lon="11.3700870045219"><ele>157.33333333333334</ele><time>2026-04-01T12:39:42Z</time></trkpt><trkpt lat="45.592713026909536" lon="11.369997845447676"><ele>157.5</ele><time>2026-04-01T12:39:43Z</time></trkpt><trkpt lat="45.59277006613913" lon="11.36991251988026"><ele>157.66666666666666</ele><time>2026-04-01T12:39:44Z</time></trkpt><trkpt lat="45.592814196085406" lon="11.369841338964681"><ele>157.83333333333331</ele><time>2026-04-01T12:39:45Z</time></trkpt><trkpt lat="45.592883901736016" lon="11.369721666414321"><ele>158.0</ele><time>2026-04-01T12:39:47Z</time></trkpt><trkpt lat="45.59294869144659" lon="11.369592851654959"><ele>158.0</ele><time>2026-04-01T12:39:49Z</time></trkpt><trkpt lat="45.593027289296785" lon="11.369443721701982"><ele>158.0</ele><time>2026-04-01T12:39:51Z</time></trkpt><trkpt lat="45.59308825740786" lon="11.36934488325432"><ele>158.0</ele><time>2026-04-01T12:39:52Z</time></trkpt><trkpt lat="45.59313650940588" lon="11.36927166500689"><ele>158.0</ele><time>2026-04-01T12:39:53Z</time></trkpt><trkpt lat="45.593190174050115" lon="11.369187894250251"><ele>158.0</ele><time>2026-04-01T12:39:54Z</time></trkpt><trkpt lat="45.593270500396976" lon="11.36905789564183"><ele>158.0</ele><time>2026-04-01T12:39:56Z</time></trkpt><trkpt lat="45.59333996013521" lon="11.368917243258835"><ele>158.0</ele><time>2026-04-01T12:39:58Z</time></trkpt><trkpt lat="45.59339466087072" lon="11.368839268814135"><ele>158.0</ele><time>2026-04-01T12:39:59Z</time></trkpt><trkpt lat="45.59345571302547" lon="11.368770733496888"><ele>158.0</ele><time>2026-04-01T12:40:00Z</time></trkpt><trkpt lat="45.59350389288806" lon="11.368707484384714"><ele>158.0</ele><time>2026-04-01T12:40:01Z</time></trkpt><trkpt lat="45.59354608446424" lon="11.368639891561036"><ele>158.0</ele><time>2026-04-01T12:40:03Z</time></trkpt><trkpt lat="45.59358772440229" lon="11.368542470067787"><ele>158.0</ele><time>2026-04-01T12:40:05Z</time></trkpt><trkpt lat="45.5936512162324" lon="11.368460900975355"><ele>158.0</ele><time>2026-04-01T12:40:07Z</time></trkpt><trkpt lat="45.59371633106979" lon="11.368319158133094"><ele>158.0</ele><time>2026-04-01T12:40:09Z</time></trkpt><trkpt lat="45.593762921298016" lon="11.368250523836643"><ele>158.0</ele><time>2026-04-01T12:40:10Z</time></trkpt><trkpt lat="45.59385506025726" lon="11.368140306936237"><ele>158.0</ele><time>2026-04-01T12:40:12Z</time></trkpt><trkpt lat="45.59391139093888" lon="11.368074897032146"><ele>158.0</ele><time>2026-04-01T12:40:13Z</time></trkpt><trkpt lat="45.59396661643836" lon="11.367997190209575"><ele>158.0</ele><time>2026-04-01T12:40:14Z</time></trkpt><trkpt lat="45.59402697994741" lon="11.367899313922088"><ele>158.0</ele><time>2026-04-01T12:40:15Z</time></trkpt><trkpt lat="45.594084894265265" lon="11.367832097033565"><ele>158.0</ele><time>2026-04-01T12:40:16Z</time></trkpt><trkpt lat="45.59413820267425" lon="11.367745796214386"><ele>158.0</ele><time>2026-04-01T12:40:17Z</time></trkpt><trkpt lat="45.59419905822949" lon="11.367646836700178"><ele>158.0</ele><time>2026-04-01T12:40:18Z</time></trkpt><trkpt lat="45.59426322075169" lon="11.367544592591988"><ele>158.0</ele><time>2026-04-01T12:40:19Z</time></trkpt><trkpt lat="45.59433936803956" lon="11.36743043899554"><ele>158.0</ele><time>2026-04-01T12:40:20Z</time></trkpt><trkpt lat="45.594412838431104" lon="11.367320121065509"><ele>158.0</ele><time>2026-04-01T12:40:21Z</time></trkpt><trkpt lat="45.59446730905022" lon="11.367241511133923"><ele>158.0</ele><time>2026-04-01T12:40:22Z</time></trkpt><trkpt lat="45.59453543195845" lon="11.367144034484172"><ele>158.0</ele><time>2026-04-01T12:40:23Z</time></trkpt><trkpt lat="45.59460778535194" lon="11.367030916276656"><ele>157.4</ele><time>2026-04-01T12:40:24Z</time></trkpt><trkpt lat="45.594686979055034" lon="11.366917955870486"><ele>156.8</ele><time>2026-04-01T12:40:25Z</time></trkpt><trkpt lat="45.59475785318984" lon="11.366814705157891"><ele>156.2</ele><time>2026-04-01T12:40:26Z</time></trkpt><trkpt lat="45.59482094584087" lon="11.36670532839245"><ele>155.6</ele><time>2026-04-01T12:40:27Z</time></trkpt><trkpt lat="45.59489795451524" lon="11.366614214598169"><ele>155.0</ele><time>2026-04-01T12:40:28Z</time></trkpt><trkpt lat="45.59496215424053" lon="11.366494216537511"><ele>155.0</ele><time>2026-04-01T12:40:29Z</time></trkpt><trkpt lat="45.59502008168234" lon="11.366418022709256"><ele>155.0</ele><time>2026-04-01T12:40:30Z</time></trkpt><trkpt lat="45.595083897593994" lon="11.36633466627201"><ele>155.0</ele><time>2026-04-01T12:40:31Z</time></trkpt><trkpt lat="45.59515161491502" lon="11.366237184697647"><ele>155.0</ele><time>2026-04-01T12:40:32Z</time></trkpt><trkpt lat="45.595209990852275" lon="11.366149368316517"><ele>155.0</ele><time>2026-04-01T12:40:33Z</time></trkpt><trkpt lat="45.595275181771164" lon="11.366043708289215"><ele>155.0</ele><time>2026-04-01T12:40:34Z</time></trkpt><trkpt lat="45.59533631339891" lon="11.365953668119783"><ele>156.25</ele><time>2026-04-01T12:40:35Z</time></trkpt><trkpt lat="45.59541944638072" lon="11.365826091357508"><ele>157.5</ele><time>2026-04-01T12:40:36Z</time></trkpt><trkpt lat="45.59549377332007" lon="11.365711759146887"><ele>158.75</ele><time>2026-04-01T12:40:37Z</time></trkpt><trkpt lat="45.59557889883931" lon="11.36558705922437"><ele>160.0</ele><time>2026-04-01T12:40:38Z</time></trkpt><trkpt lat="45.59565886104159" lon="11.365470751635108"><ele>160.0</ele><time>2026-04-01T12:40:39Z</time></trkpt><trkpt lat="45.59572379601123" lon="11.36535976528791"><ele>160.0</ele><time>2026-04-01T12:40:40Z</time></trkpt><trkpt lat="45.595794784759484" lon="11.365248644708052"><ele>160.0</ele><time>2026-04-01T12:40:41Z</time></trkpt><trkpt lat="45.59586904558415" lon="11.365143247175325"><ele>160.0</ele><time>2026-04-01T12:40:42Z</time></trkpt><trkpt lat="45.59592679105637" lon="11.365056525421052"><ele>160.0</ele><time>2026-04-01T12:40:43Z</time></trkpt><trkpt lat="45.59598142405625" lon="11.36497573410556"><ele>160.0</ele><time>2026-04-01T12:40:44Z</time></trkpt><trkpt lat="45.596031213727635" lon="11.364900313217131"><ele>160.0</ele><time>2026-04-01T12:40:45Z</time></trkpt><trkpt lat="45.59608579810704" lon="11.364813493666011"><ele>160.0</ele><time>2026-04-01T12:40:46Z</time></trkpt><trkpt lat="45.59614791346925" lon="11.364717830872278"><ele>160.0</ele><time>2026-04-01T12:40:47Z</time></trkpt><trkpt lat="45.59621521860321" lon="11.364607742770993"><ele>160.0</ele><time>2026-04-01T12:40:48Z</time></trkpt><trkpt lat="45.596257677194885" lon="11.364540541288166"><ele>160.0</ele><time>2026-04-01T12:40:49Z</time></trkpt><trkpt lat="45.59630156237896" lon="11.364474970903435"><ele>160.8</ele><time>2026-04-01T12:40:50Z</time></trkpt><trkpt lat="45.59635457551017" lon="11.364398911574476"><ele>161.6</ele><time>2026-04-01T12:40:51Z</time></trkpt><trkpt lat="45.596415245849684" lon="11.364311664726937"><ele>162.39999999999998</ele><time>2026-04-01T12:40:52Z</time></trkpt><trkpt lat="45.59647521027531" lon="11.364221199001065"><ele>163.2</ele><time>2026-04-01T12:40:53Z</time></trkpt><trkpt lat="45.596542896734476" lon="11.364120114800302"><ele>164.0</ele><time>2026-04-01T12:40:55Z</time></trkpt><trkpt lat="45.59664707404135" lon="11.364154175681367"><ele>164.0</ele><time>2026-04-01T12:40:58Z</time></trkpt><trkpt lat="45.59670101579795" lon="11.36432889011643"><ele>164.0</ele><time>2026-04-01T12:41:00Z</time></trkpt><trkpt lat="45.59673482621499" lon="11.364433123603042"><ele>164.0</ele><time>2026-04-01T12:41:01Z</time></trkpt><trkpt lat="45.596772053463404" lon="11.36452185263473"><ele>164.0</ele><time>2026-04-01T12:41:02Z</time></trkpt><trkpt lat="45.59685948168032" lon="11.364621453337119"><ele>164.0</ele><time>2026-04-01T12:41:04Z</time></trkpt><trkpt lat="45.59696851047927" lon="11.364673071074376"><ele>164.28571428571428</ele><time>2026-04-01T12:41:06Z</time></trkpt><trkpt lat="45.597031441618945" lon="11.364686829084722"><ele>164.57142857142856</ele><time>2026-04-01T12:41:07Z</time></trkpt><trkpt lat="45.597103801062296" lon="11.364645423066312"><ele>164.85714285714283</ele><time>2026-04-01T12:41:08Z</time></trkpt><trkpt lat="45.59717370697412" lon="11.364613189532285"><ele>165.14285714285714</ele><time>2026-04-01T12:41:09Z</time></trkpt><trkpt lat="45.59724023526508" lon="11.364587816464589"><ele>165.42857142857144</ele><time>2026-04-01T12:41:10Z</time></trkpt><trkpt lat="45.59730295579422" lon="11.364627394026067"><ele>165.7142857142857</ele><time>2026-04-01T12:41:11Z</time></trkpt><trkpt lat="45.59738191935864" lon="11.364619340145682"><ele>166.0</ele><time>2026-04-01T12:41:12Z</time></trkpt><trkpt lat="45.597471274854385" lon="11.364621713477655"><ele>166.0</ele><time>2026-04-01T12:41:13Z</time></trkpt><trkpt lat="45.59756853617214" lon="11.364604557316518"><ele>166.0</ele><time>2026-04-01T12:41:14Z</time></trkpt><trkpt lat="45.59766847688669" lon="11.364598745647866"><ele>166.0</ele><time>2026-04-01T12:41:15Z</time></trkpt><trkpt lat="45.59776484867727" lon="11.364597674029481"><ele>166.0</ele><time>2026-04-01T12:41:16Z</time></trkpt><trkpt lat="45.597851731425244" lon="11.364600256481586"><ele>166.0</ele><time>2026-04-01T12:41:17Z</time></trkpt><trkpt lat="45.597915893295124" lon="11.364606019333415"><ele>166.0</ele><time>2026-04-01T12:41:18Z</time></trkpt><trkpt lat="45.59798338914562" lon="11.364630246539575"><ele>165.83333333333334</ele><time>2026-04-01T12:41:19Z</time></trkpt><trkpt lat="45.598041615203336" lon="11.364683933434005"><ele>165.66666666666669</ele><time>2026-04-01T12:41:20Z</time></trkpt><trkpt lat="45.598090297209275" lon="11.364752432247085"><ele>165.5</ele><time>2026-04-01T12:41:21Z</time></trkpt><trkpt lat="45.598147664932945" lon="11.364867152800738"><ele>165.33333333333334</ele><time>2026-04-01T12:41:22Z</time></trkpt><trkpt lat="45.59822818457211" lon="11.364955948091122"><ele>165.16666666666666</ele><time>2026-04-01T12:41:23Z</time></trkpt><trkpt lat="45.59829550547624" lon="11.365071024205829"><ele>165.0</ele><time>2026-04-01T12:41:24Z</time></trkpt><trkpt lat="45.598375704513835" lon="11.365181325422844"><ele>165.0</ele><time>2026-04-01T12:41:25Z</time></trkpt><trkpt lat="45.59845684820063" lon="11.365298637285003"><ele>165.0</ele><time>2026-04-01T12:41:26Z</time></trkpt><trkpt lat="45.59852707810215" lon="11.365402493232567"><ele>165.0</ele><time>2026-04-01T12:41:27Z</time></trkpt><trkpt lat="45.59858277003921" lon="11.365489104621545"><ele>165.0</ele><time>2026-04-01T12:41:28Z</time></trkpt><trkpt lat="45.59863225452772" lon="11.365569789135414"><ele>165.0</ele><time>2026-04-01T12:41:29Z</time></trkpt><trkpt lat="45.598683337067826" lon="11.36565135043978"><ele>165.2</ele><time>2026-04-01T12:41:32Z</time></trkpt><trkpt lat="45.59872884417447" lon="11.365739334462429"><ele>165.4</ele><time>2026-04-01T12:41:34Z</time></trkpt><trkpt lat="45.598844659103136" lon="11.365864677073901"><ele>165.60000000000002</ele><time>2026-04-01T12:41:36Z</time></trkpt><trkpt lat="45.59892372181548" lon="11.365928984566217"><ele>165.8</ele><time>2026-04-01T12:41:37Z</time></trkpt><trkpt lat="45.59901164045552" lon="11.366012768505941"><ele>166.0</ele><time>2026-04-01T12:41:38Z</time></trkpt><trkpt lat="45.59909748450617" lon="11.366099730538702"><ele>166.0</ele><time>2026-04-01T12:41:39Z</time></trkpt><trkpt lat="45.59919407632562" lon="11.366203969985778"><ele>166.0</ele><time>2026-04-01T12:41:40Z</time></trkpt><trkpt lat="45.59929287574453" lon="11.366293301921287"><ele>166.0</ele><time>2026-04-01T12:41:41Z</time></trkpt><trkpt lat="45.599401029340044" lon="11.366392736980458"><ele>166.0</ele><time>2026-04-01T12:41:42Z</time></trkpt><trkpt lat="45.599507658413984" lon="11.366492171853851"><ele>165.8</ele><time>2026-04-01T12:41:43Z</time></trkpt><trkpt lat="45.59960823938625" lon="11.366579661065899"><ele>165.60000000000002</ele><time>2026-04-01T12:41:44Z</time></trkpt><trkpt lat="45.59970063990224" lon="11.366658776318623"><ele>165.4</ele><time>2026-04-01T12:41:45Z</time></trkpt><trkpt lat="45.599786247369686" lon="11.366738552229902"><ele>165.2</ele><time>2026-04-01T12:41:46Z</time></trkpt><trkpt lat="45.59987258461556" lon="11.366819981628565"><ele>165.0</ele><time>2026-04-01T12:41:47Z</time></trkpt><trkpt lat="45.599955056366866" lon="11.366900660521862"><ele>165.0</ele><time>2026-04-01T12:41:48Z</time></trkpt><trkpt lat="45.60003699131562" lon="11.366985251952121"><ele>165.0</ele><time>2026-04-01T12:41:49Z</time></trkpt><trkpt lat="45.60008777451433" lon="11.367040268686958"><ele>165.0</ele><time>2026-04-01T12:41:50Z</time></trkpt><trkpt lat="45.60011330646456" lon="11.367162140054356"><ele>165.0</ele><time>2026-04-01T12:41:52Z</time></trkpt><trkpt lat="45.60014162755491" lon="11.367306028723487"><ele>165.0</ele><time>2026-04-01T12:41:54Z</time></trkpt><trkpt lat="45.60018497745448" lon="11.36739492248473"><ele>165.0</ele><time>2026-04-01T12:41:55Z</time></trkpt><trkpt lat="45.6002645890274" lon="11.367379152022151"><ele>165.0</ele><time>2026-04-01T12:41:56Z</time></trkpt><trkpt lat="45.600344212131766" lon="11.367385771342175"><ele>165.0</ele><time>2026-04-01T12:41:57Z</time></trkpt><trkpt lat="45.60043792067611" lon="11.367415944378333"><ele>165.0</ele><time>2026-04-01T12:41:58Z</time></trkpt><trkpt lat="45.600540544864195" lon="11.367476412635764"><ele>165.0</ele><time>2026-04-01T12:41:59Z</time></trkpt><trkpt lat="45.60064543815906" lon="11.367559689750802"><ele>165.0</ele><time>2026-04-01T12:42:00Z</time></trkpt><trkpt lat="45.600738520718" lon="11.367645497461499"><ele>165.0</ele><time>2026-04-01T12:42:01Z</time></trkpt><trkpt lat="45.60083518748959" lon="11.367726361732483"><ele>165.0</ele><time>2026-04-01T12:42:02Z</time></trkpt><trkpt lat="45.60094430937275" lon="11.36780772125692"><ele>165.0</ele><time>2026-04-01T12:42:03Z</time></trkpt><trkpt lat="45.60105456112263" lon="11.367894764107849"><ele>165.0</ele><time>2026-04-01T12:42:04Z</time></trkpt><trkpt lat="45.60115004829044" lon="11.36797151340632"><ele>165.0</ele><time>2026-04-01T12:42:05Z</time></trkpt><trkpt lat="45.6012377374507" lon="11.368052492608088"><ele>165.0</ele><time>2026-04-01T12:42:06Z</time></trkpt><trkpt lat="45.60133519451422" lon="11.368140547175477"><ele>165.0</ele><time>2026-04-01T12:42:07Z</time></trkpt><trkpt lat="45.60142667509638" lon="11.368236682698393"><ele>165.0</ele><time>2026-04-01T12:42:08Z</time></trkpt><trkpt lat="45.60149328943319" lon="11.368347663079987"><ele>165.0</ele><time>2026-04-01T12:42:09Z</time></trkpt><trkpt lat="45.601539775067316" lon="11.368464223499679"><ele>165.0</ele><time>2026-04-01T12:42:10Z</time></trkpt><trkpt lat="45.60158606459717" lon="11.36858912184192"><ele>165.0</ele><time>2026-04-01T12:42:11Z</time></trkpt><trkpt lat="45.60163922381297" lon="11.368720443964765"><ele>165.0</ele><time>2026-04-01T12:42:12Z</time></trkpt><trkpt lat="45.60169718056919" lon="11.368842287871527"><ele>165.0</ele><time>2026-04-01T12:42:13Z</time></trkpt><trkpt lat="45.60177226981951" lon="11.36894992441377"><ele>165.0</ele><time>2026-04-01T12:42:14Z</time></trkpt><trkpt lat="45.601853072586806" lon="11.369032791223194"><ele>164.8</ele><time>2026-04-01T12:42:15Z</time></trkpt><trkpt lat="45.60194746464671" lon="11.3690982931803"><ele>164.6</ele><time>2026-04-01T12:42:16Z</time></trkpt><trkpt lat="45.60205388391757" lon="11.369154992982166"><ele>164.39999999999998</ele><time>2026-04-01T12:42:17Z</time></trkpt><trkpt lat="45.602157087942125" lon="11.369185244642448"><ele>164.2</ele><time>2026-04-01T12:42:18Z</time></trkpt><trkpt lat="45.60224516893251" lon="11.369207011496794"><ele>164.0</ele><time>2026-04-01T12:42:19Z</time></trkpt><trkpt lat="45.60234078604619" lon="11.36922923881917"><ele>164.6</ele><time>2026-04-01T12:42:20Z</time></trkpt><trkpt lat="45.60242943521196" lon="11.369279987576181"><ele>165.2</ele><time>2026-04-01T12:42:21Z</time></trkpt><trkpt lat="45.60252687780753" lon="11.369313419866197"><ele>165.79999999999998</ele><time>2026-04-01T12:42:22Z</time></trkpt><trkpt lat="45.602635681740665" lon="11.3693381827071"><ele>166.39999999999998</ele><time>2026-04-01T12:42:23Z</time></trkpt><trkpt lat="45.60275347024634" lon="11.369350794174412"><ele>167.0</ele><time>2026-04-01T12:42:24Z</time></trkpt><trkpt lat="45.60285952298589" lon="11.369365517817446"><ele>168.6</ele><time>2026-04-01T12:42:25Z</time></trkpt><trkpt lat="45.60294990017801" lon="11.369365732024791"><ele>170.2</ele><time>2026-04-01T12:42:26Z</time></trkpt><trkpt lat="45.60303274592233" lon="11.369369326831919"><ele>171.8</ele><time>2026-04-01T12:42:27Z</time></trkpt><trkpt lat="45.603109223862916" lon="11.369367728689536"><ele>173.4</ele><time>2026-04-01T12:42:28Z</time></trkpt><trkpt lat="45.603217355191724" lon="11.369379864233673"><ele>175.0</ele><time>2026-04-01T12:42:30Z</time></trkpt><trkpt lat="45.60327385147078" lon="11.369561447765378"><ele>175.0</ele><time>2026-04-01T12:42:33Z</time></trkpt><trkpt lat="45.60323285708392" lon="11.369668748853883"><ele>175.0</ele><time>2026-04-01T12:42:34Z</time></trkpt><trkpt lat="45.603204029451035" lon="11.36981234865821"><ele>175.0</ele><time>2026-04-01T12:42:35Z</time></trkpt><trkpt lat="45.603162104454476" lon="11.369955431482726"><ele>175.0</ele><time>2026-04-01T12:42:36Z</time></trkpt><trkpt lat="45.60312073875965" lon="11.370108632648076"><ele>175.0</ele><time>2026-04-01T12:42:37Z</time></trkpt><trkpt lat="45.603076542361826" lon="11.37025381247105"><ele>175.4</ele><time>2026-04-01T12:42:38Z</time></trkpt><trkpt lat="45.60304373637575" lon="11.370384376960532"><ele>175.8</ele><time>2026-04-01T12:42:39Z</time></trkpt><trkpt lat="45.603010071583675" lon="11.370512103430594"><ele>176.2</ele><time>2026-04-01T12:42:40Z</time></trkpt><trkpt lat="45.60294984809816" lon="11.370620159236172"><ele>176.6</ele><time>2026-04-01T12:42:41Z</time></trkpt><trkpt lat="45.60288731757858" lon="11.370739373614853"><ele>177.0</ele><time>2026-04-01T12:42:42Z</time></trkpt><trkpt lat="45.60281641474327" lon="11.370848856565285"><ele>175.39999999999998</ele><time>2026-04-01T12:42:43Z</time></trkpt><trkpt lat="45.60274945192603" lon="11.370944959541784"><ele>173.79999999999998</ele><time>2026-04-01T12:42:44Z</time></trkpt><trkpt lat="45.6026858653481" lon="11.371034136308033"><ele>172.2</ele><time>2026-04-01T12:42:45Z</time></trkpt><trkpt lat="45.60261533118798" lon="11.37113221780385"><ele>170.6</ele><time>2026-04-01T12:42:46Z</time></trkpt><trkpt lat="45.602543466063615" lon="11.37123634862844"><ele>169.0</ele><time>2026-04-01T12:42:47Z</time></trkpt><trkpt lat="45.60248514451857" lon="11.371346036291921"><ele>169.6</ele><time>2026-04-01T12:42:48Z</time></trkpt><trkpt lat="45.60244547480932" lon="11.37146769536617"><ele>170.2</ele><time>2026-04-01T12:42:49Z</time></trkpt><trkpt lat="45.60243338408483" lon="11.371612925120786"><ele>170.79999999999998</ele><time>2026-04-01T12:42:50Z</time></trkpt><trkpt lat="45.602414007983384" lon="11.371752989374365"><ele>171.39999999999998</ele><time>2026-04-01T12:42:51Z</time></trkpt><trkpt lat="45.60239122374269" lon="11.371908517983599"><ele>172.0</ele><time>2026-04-01T12:42:52Z</time></trkpt><trkpt lat="45.6023698354296" lon="11.372061898729514"><ele>172.75</ele><time>2026-04-01T12:42:53Z</time></trkpt><trkpt lat="45.602334561419056" lon="11.372226930793035"><ele>173.5</ele><time>2026-04-01T12:42:54Z</time></trkpt><trkpt lat="45.602287233137694" lon="11.3723864372698"><ele>174.25</ele><time>2026-04-01T12:42:55Z</time></trkpt><trkpt lat="45.60225671701449" lon="11.372542707706165"><ele>175.0</ele><time>2026-04-01T12:42:56Z</time></trkpt><trkpt lat="45.602202423814774" lon="11.372668146218592"><ele>175.0</ele><time>2026-04-01T12:42:57Z</time></trkpt><trkpt lat="45.60216543540594" lon="11.37280579797361"><ele>175.0</ele><time>2026-04-01T12:42:58Z</time></trkpt><trkpt lat="45.60216292614881" lon="11.37295725276047"><ele>175.0</ele><time>2026-04-01T12:42:59Z</time></trkpt><trkpt lat="45.60216298262846" lon="11.373119673528953"><ele>175.0</ele><time>2026-04-01T12:43:00Z</time></trkpt><trkpt lat="45.60217500440878" lon="11.373296153645411"><ele>175.0</ele><time>2026-04-01T12:43:01Z</time></trkpt><trkpt lat="45.60219140192595" lon="11.37347412821121"><ele>175.75</ele><time>2026-04-01T12:43:02Z</time></trkpt><trkpt lat="45.6022273591632" lon="11.373635143395482"><ele>176.5</ele><time>2026-04-01T12:43:03Z</time></trkpt><trkpt lat="45.602265163135606" lon="11.373786703240674"><ele>177.25</ele><time>2026-04-01T12:43:04Z</time></trkpt><trkpt lat="45.60229555944981" lon="11.373948499252474"><ele>178.0</ele><time>2026-04-01T12:43:05Z</time></trkpt><trkpt lat="45.60228023498675" lon="11.374123952733475"><ele>178.4</ele><time>2026-04-01T12:43:06Z</time></trkpt><trkpt lat="45.60227308726734" lon="11.374304283719388"><ele>178.8</ele><time>2026-04-01T12:43:07Z</time></trkpt><trkpt lat="45.602263982018876" lon="11.374454445735587"><ele>179.2</ele><time>2026-04-01T12:43:08Z</time></trkpt><trkpt lat="45.60227274059755" lon="11.374588171160994"><ele>179.6</ele><time>2026-04-01T12:43:09Z</time></trkpt><trkpt lat="45.60227615574958" lon="11.37472392959154"><ele>180.0</ele><time>2026-04-01T12:43:10Z</time></trkpt><trkpt lat="45.60230693170841" lon="11.374857071251975"><ele>180.6</ele><time>2026-04-01T12:43:11Z</time></trkpt><trkpt lat="45.602365861592816" lon="11.37495629029729"><ele>181.2</ele><time>2026-04-01T12:43:12Z</time></trkpt><trkpt lat="45.60242669137077" lon="11.375014001014495"><ele>181.8</ele><time>2026-04-01T12:43:13Z</time></trkpt><trkpt lat="45.60254158705861" lon="11.375067219304642"><ele>182.4</ele><time>2026-04-01T12:43:15Z</time></trkpt><trkpt lat="45.60261723838669" lon="11.375110023584755"><ele>183.0</ele><time>2026-04-01T12:43:16Z</time></trkpt><trkpt lat="45.6027049710876" lon="11.375152476633117"><ele>183.0</ele><time>2026-04-01T12:43:17Z</time></trkpt><trkpt lat="45.602802272410315" lon="11.375199425140417"><ele>183.0</ele><time>2026-04-01T12:43:18Z</time></trkpt><trkpt lat="45.60290212824079" lon="11.375256041979023"><ele>183.0</ele><time>2026-04-01T12:43:19Z</time></trkpt><trkpt lat="45.60298688719712" lon="11.375314576520939"><ele>183.0</ele><time>2026-04-01T12:43:20Z</time></trkpt><trkpt lat="45.60306308326984" lon="11.375376016713503"><ele>183.0</ele><time>2026-04-01T12:43:21Z</time></trkpt><trkpt lat="45.60314107251036" lon="11.375442416894856"><ele>183.4</ele><time>2026-04-01T12:43:22Z</time></trkpt><trkpt lat="45.60320727386023" lon="11.375515455301542"><ele>183.8</ele><time>2026-04-01T12:43:23Z</time></trkpt><trkpt lat="45.6032729936646" lon="11.37558730805477"><ele>184.2</ele><time>2026-04-01T12:43:24Z</time></trkpt><trkpt lat="45.60334269396064" lon="11.375664999650075"><ele>184.6</ele><time>2026-04-01T12:43:26Z</time></trkpt><trkpt lat="45.60348546409652" lon="11.375601404254613"><ele>185.0</ele><time>2026-04-01T12:43:28Z</time></trkpt><trkpt lat="45.60357068826548" lon="11.375597814935373"><ele>187.4</ele><time>2026-04-01T12:43:29Z</time></trkpt><trkpt lat="45.60366529729779" lon="11.37559764561477"><ele>189.8</ele><time>2026-04-01T12:43:30Z</time></trkpt><trkpt lat="45.60375278459455" lon="11.375659399320606"><ele>192.2</ele><time>2026-04-01T12:43:31Z</time></trkpt><trkpt lat="45.6038310931633" lon="11.375705121556743"><ele>194.6</ele><time>2026-04-01T12:43:32Z</time></trkpt><trkpt lat="45.60391177169833" lon="11.375758898160575"><ele>197.0</ele><time>2026-04-01T12:43:33Z</time></trkpt><trkpt lat="45.60401020773834" lon="11.375821966441675"><ele>197.0</ele><time>2026-04-01T12:43:34Z</time></trkpt><trkpt lat="45.604116550625236" lon="11.375864430745825"><ele>197.0</ele><time>2026-04-01T12:43:35Z</time></trkpt><trkpt lat="45.60419189026392" lon="11.375899433292643"><ele>197.0</ele><time>2026-04-01T12:43:36Z</time></trkpt><trkpt lat="45.60427462328794" lon="11.375907714078588"><ele>197.0</ele><time>2026-04-01T12:43:37Z</time></trkpt><trkpt lat="45.60437900186361" lon="11.375902124361092"><ele>197.0</ele><time>2026-04-01T12:43:38Z</time></trkpt><trkpt lat="45.60448409381302" lon="11.37588659393316"><ele>199.83333333333334</ele><time>2026-04-01T12:43:39Z</time></trkpt><trkpt lat="45.60455984758555" lon="11.375856419555282"><ele>202.66666666666669</ele><time>2026-04-01T12:43:40Z</time></trkpt><trkpt lat="45.604609956520946" lon="11.375776864011012"><ele>205.5</ele><time>2026-04-01T12:43:41Z</time></trkpt><trkpt lat="45.604645572251044" lon="11.375687344169076"><ele>208.33333333333331</ele><time>2026-04-01T12:43:42Z</time></trkpt><trkpt lat="45.60467860401293" lon="11.375588293061407"><ele>211.16666666666666</ele><time>2026-04-01T12:43:43Z</time></trkpt><trkpt lat="45.604713920359565" lon="11.375496153395641"><ele>214.0</ele><time>2026-04-01T12:43:44Z</time></trkpt><trkpt lat="45.604770154196" lon="11.375408954169146"><ele>214.0</ele><time>2026-04-01T12:43:46Z</time></trkpt><trkpt lat="45.60488256776385" lon="11.37553003066268"><ele>213.99999999999997</ele><time>2026-04-01T12:43:47Z</time></trkpt><trkpt lat="45.604967808666146" lon="11.37557429980381"><ele>213.99999999999997</ele><time>2026-04-01T12:43:48Z</time></trkpt><trkpt lat="45.60503343735322" lon="11.375635535577649"><ele>214.0</ele><time>2026-04-01T12:43:49Z</time></trkpt><trkpt lat="45.60512626589793" lon="11.375667346720325"><ele>214.0</ele><time>2026-04-01T12:43:51Z</time></trkpt><trkpt lat="45.605180844018165" lon="11.375576099767576"><ele>215.2</ele><time>2026-04-01T12:43:52Z</time></trkpt><trkpt lat="45.605225100694874" lon="11.375480612234876"><ele>216.39999999999998</ele><time>2026-04-01T12:43:53Z</time></trkpt><trkpt lat="45.605267228748986" lon="11.375392965735504"><ele>217.6</ele><time>2026-04-01T12:43:54Z</time></trkpt><trkpt lat="45.605381829055816" lon="11.375396699472626"><ele>218.8</ele><time>2026-04-01T12:43:56Z</time></trkpt><trkpt lat="45.605422704757125" lon="11.375480618614832"><ele>220.0</ele><time>2026-04-01T12:43:57Z</time></trkpt><trkpt lat="45.60553028595885" lon="11.375517156600443"><ele>221.0</ele><time>2026-04-01T12:43:59Z</time></trkpt><trkpt lat="45.60561276422422" lon="11.375427988425303"><ele>222.0</ele><time>2026-04-01T12:44:01Z</time></trkpt><trkpt lat="45.605671388471976" lon="11.375296652786426"><ele>223.0</ele><time>2026-04-01T12:44:03Z</time></trkpt><trkpt lat="45.60571795898355" lon="11.37513795831149"><ele>224.0</ele><time>2026-04-01T12:44:05Z</time></trkpt><trkpt lat="45.605775570819695" lon="11.375048750402751"><ele>225.0</ele><time>2026-04-01T12:44:06Z</time></trkpt><trkpt lat="45.60584010362557" lon="11.374964354529855"><ele>225.0</ele><time>2026-04-01T12:44:07Z</time></trkpt><trkpt lat="45.60590423931558" lon="11.37486249654384"><ele>225.0</ele><time>2026-04-01T12:44:08Z</time></trkpt><trkpt lat="45.6059513387287" lon="11.374740527276735"><ele>225.0</ele><time>2026-04-01T12:44:09Z</time></trkpt><trkpt lat="45.60598323772363" lon="11.374613228996004"><ele>225.0</ele><time>2026-04-01T12:44:10Z</time></trkpt><trkpt lat="45.606022755922105" lon="11.374474743526092"><ele>225.0</ele><time>2026-04-01T12:44:11Z</time></trkpt><trkpt lat="45.60606555130149" lon="11.374355172442264"><ele>225.2</ele><time>2026-04-01T12:44:12Z</time></trkpt><trkpt lat="45.606097322405176" lon="11.374252158393755"><ele>225.4</ele><time>2026-04-01T12:44:13Z</time></trkpt><trkpt lat="45.6061372558163" lon="11.374101368540982"><ele>225.60000000000002</ele><time>2026-04-01T12:44:15Z</time></trkpt><trkpt lat="45.606131572222615" lon="11.374004168375524"><ele>225.8</ele><time>2026-04-01T12:44:16Z</time></trkpt><trkpt lat="45.606119843805836" lon="11.373869013323807"><ele>226.0</ele><time>2026-04-01T12:44:17Z</time></trkpt><trkpt lat="45.606095941462584" lon="11.373734637892962"><ele>226.99999999999997</ele><time>2026-04-01T12:44:18Z</time></trkpt><trkpt lat="45.606067522859384" lon="11.373574954158551"><ele>228.0</ele><time>2026-04-01T12:44:19Z</time></trkpt><trkpt lat="45.60604567351903" lon="11.373440899262352"><ele>229.0</ele><time>2026-04-01T12:44:20Z</time></trkpt><trkpt lat="45.606037182177666" lon="11.37332337565551"><ele>230.0</ele><time>2026-04-01T12:44:21Z</time></trkpt><trkpt lat="45.60602867241345" lon="11.373218208520024"><ele>230.99999999999997</ele><time>2026-04-01T12:44:22Z</time></trkpt><trkpt lat="45.606029312632415" lon="11.373106095888827"><ele>232.0</ele><time>2026-04-01T12:44:23Z</time></trkpt><trkpt lat="45.60603756766868" lon="11.372963064534792"><ele>232.2</ele><time>2026-04-01T12:44:24Z</time></trkpt><trkpt lat="45.606047590915885" lon="11.372826874034269"><ele>232.39999999999998</ele><time>2026-04-01T12:44:25Z</time></trkpt><trkpt lat="45.60605794989266" lon="11.372697597331767"><ele>232.60000000000002</ele><time>2026-04-01T12:44:26Z</time></trkpt><trkpt lat="45.60605909518118" lon="11.372573561932459"><ele>232.8</ele><time>2026-04-01T12:44:27Z</time></trkpt><trkpt lat="45.60605481681053" lon="11.372452542016298"><ele>233.0</ele><time>2026-04-01T12:44:28Z</time></trkpt><trkpt lat="45.60606250517081" lon="11.372311863148639"><ele>233.00000000000003</ele><time>2026-04-01T12:44:30Z</time></trkpt><trkpt lat="45.60605685205768" lon="11.37220388241402"><ele>233.0</ele><time>2026-04-01T12:44:32Z</time></trkpt><trkpt lat="45.606088693706894" lon="11.372124333196881"><ele>233.0</ele><time>2026-04-01T12:44:34Z</time></trkpt><trkpt lat="45.60612690270054" lon="11.37203544788778"><ele>233.0</ele><time>2026-04-01T12:44:37Z</time></trkpt><trkpt lat="45.6061330649068" lon="11.372161512255307"><ele>233.00000000000003</ele><time>2026-04-01T12:44:38Z</time></trkpt><trkpt lat="45.60616973267541" lon="11.372258315753808"><ele>233.0</ele><time>2026-04-01T12:44:39Z</time></trkpt><trkpt lat="45.60645819158622" lon="11.372009791582135"><ele>234.8</ele><time>2026-04-01T12:44:41Z</time></trkpt><trkpt lat="45.60653735695257" lon="11.371978927465962"><ele>236.60000000000002</ele><time>2026-04-01T12:44:42Z</time></trkpt><trkpt lat="45.606621713721765" lon="11.371953365152935"><ele>238.39999999999998</ele><time>2026-04-01T12:44:43Z</time></trkpt><trkpt lat="45.606700352693466" lon="11.371930857069525"><ele>240.2</ele><time>2026-04-01T12:44:44Z</time></trkpt><trkpt lat="45.60684368576621" lon="11.37194997274409"><ele>242.0</ele><time>2026-04-01T12:44:46Z</time></trkpt><trkpt lat="45.60694156826415" lon="11.371960359674816"><ele>243.39999999999998</ele><time>2026-04-01T12:44:47Z</time></trkpt><trkpt lat="45.607037744385785" lon="11.371983225684643"><ele>244.79999999999998</ele><time>2026-04-01T12:44:48Z</time></trkpt><trkpt lat="45.60714011381934" lon="11.371995083658039"><ele>246.2</ele><time>2026-04-01T12:44:49Z</time></trkpt><trkpt lat="45.60724645427983" lon="11.372006010068532"><ele>247.6</ele><time>2026-04-01T12:44:50Z</time></trkpt><trkpt lat="45.60735059510533" lon="11.372002309201754"><ele>249.0</ele><time>2026-04-01T12:44:51Z</time></trkpt><trkpt lat="45.607427857403025" lon="11.371983223229508"><ele>249.0</ele><time>2026-04-01T12:44:52Z</time></trkpt><trkpt lat="45.60748898912411" lon="11.371942795280482"><ele>249.0</ele><time>2026-04-01T12:44:53Z</time></trkpt><trkpt lat="45.60755860929961" lon="11.371884211965662"><ele>249.0</ele><time>2026-04-01T12:44:54Z</time></trkpt><trkpt lat="45.607625503589205" lon="11.37184757142765"><ele>249.0</ele><time>2026-04-01T12:44:55Z</time></trkpt><trkpt lat="45.607735761095086" lon="11.371839543377018"><ele>249.0</ele><time>2026-04-01T12:44:57Z</time></trkpt><trkpt lat="45.607799744658074" lon="11.371866266880719"><ele>249.0</ele><time>2026-04-01T12:44:58Z</time></trkpt><trkpt lat="45.60788004335678" lon="11.371918226922396"><ele>251.66666666666666</ele><time>2026-04-01T12:44:59Z</time></trkpt><trkpt lat="45.6079441754654" lon="11.371961838909057"><ele>254.33333333333331</ele><time>2026-04-01T12:45:00Z</time></trkpt><trkpt lat="45.608008971936115" lon="11.37199955619356"><ele>257.0</ele><time>2026-04-01T12:45:01Z</time></trkpt><trkpt lat="45.60811793854567" lon="11.372029381674723"><ele>259.66666666666663</ele><time>2026-04-01T12:45:02Z</time></trkpt><trkpt lat="45.60819273050941" lon="11.372031346980078"><ele>262.3333333333333</ele><time>2026-04-01T12:45:03Z</time></trkpt><trkpt lat="45.608293238283636" lon="11.372030665565331"><ele>265.0</ele><time>2026-04-01T12:45:05Z</time></trkpt><trkpt lat="45.6083575240799" lon="11.37201090796664"><ele>265.0</ele><time>2026-04-01T12:45:06Z</time></trkpt><trkpt lat="45.60843314080021" lon="11.37200612636519"><ele>265.0</ele><time>2026-04-01T12:45:07Z</time></trkpt><trkpt lat="45.60851145638761" lon="11.37200285646059"><ele>265.0</ele><time>2026-04-01T12:45:08Z</time></trkpt><trkpt lat="45.60859230343768" lon="11.371980232251946"><ele>265.0</ele><time>2026-04-01T12:45:09Z</time></trkpt><trkpt lat="45.60868467683354" lon="11.371940340707246"><ele>265.0</ele><time>2026-04-01T12:45:10Z</time></trkpt><trkpt lat="45.6087421183718" lon="11.371902630971212"><ele>265.0</ele><time>2026-04-01T12:45:12Z</time></trkpt><trkpt lat="45.60874432656098" lon="11.371796393113481"><ele>265.16666666666663</ele><time>2026-04-01T12:45:14Z</time></trkpt><trkpt lat="45.60876916606703" lon="11.371618337591165"><ele>265.3333333333333</ele><time>2026-04-01T12:45:16Z</time></trkpt><trkpt lat="45.60881309834859" lon="11.3715245008269"><ele>265.5</ele><time>2026-04-01T12:45:17Z</time></trkpt><trkpt lat="45.60886379339355" lon="11.371470810462261"><ele>265.6666666666667</ele><time>2026-04-01T12:45:18Z</time></trkpt><trkpt lat="45.608934003419535" lon="11.371449570615631"><ele>265.83333333333337</ele><time>2026-04-01T12:45:19Z</time></trkpt><trkpt lat="45.60900227177176" lon="11.37144817170419"><ele>266.0</ele><time>2026-04-01T12:45:20Z</time></trkpt><trkpt lat="45.60907862114748" lon="11.371432312428826"><ele>266.0</ele><time>2026-04-01T12:45:21Z</time></trkpt><trkpt lat="45.60915117288785" lon="11.371422695781753"><ele>266.0</ele><time>2026-04-01T12:45:22Z</time></trkpt><trkpt lat="45.60923531155899" lon="11.371371951564285"><ele>266.0</ele><time>2026-04-01T12:45:23Z</time></trkpt><trkpt lat="45.60936541617356" lon="11.371275609893196"><ele>266.0</ele><time>2026-04-01T12:45:25Z</time></trkpt><trkpt lat="45.60944123348965" lon="11.371193017193413"><ele>266.0</ele><time>2026-04-01T12:45:26Z</time></trkpt><trkpt lat="45.60953481787463" lon="11.371054159796786"><ele>268.0</ele><time>2026-04-01T12:45:28Z</time></trkpt><trkpt lat="45.609579944034564" lon="11.370986039168923"><ele>270.0</ele><time>2026-04-01T12:45:29Z</time></trkpt><trkpt lat="45.6095968553292" lon="11.370848275126555"><ele>272.0</ele><time>2026-04-01T12:45:31Z</time></trkpt><trkpt lat="45.60960270713083" lon="11.370734257888834"><ele>274.0</ele><time>2026-04-01T12:45:32Z</time></trkpt><trkpt lat="45.60968845413235" lon="11.370617690478419"><ele>276.0</ele><time>2026-04-01T12:45:33Z</time></trkpt><trkpt lat="45.60969132449468" lon="11.370515661335553"><ele>278.0</ele><time>2026-04-01T12:45:34Z</time></trkpt><trkpt lat="45.609710119960766" lon="11.370412504131826"><ele>278.33333333333337</ele><time>2026-04-01T12:45:35Z</time></trkpt><trkpt lat="45.609714513989125" lon="11.37030291091108"><ele>278.6666666666667</ele><time>2026-04-01T12:45:36Z</time></trkpt><trkpt lat="45.60970767175228" lon="11.37020095118723"><ele>279.0</ele><time>2026-04-01T12:45:37Z</time></trkpt><trkpt lat="45.6096892817114" lon="11.370103562748964"><ele>279.3333333333333</ele><time>2026-04-01T12:45:39Z</time></trkpt><trkpt lat="45.60957790694198" lon="11.369996098286032"><ele>279.66666666666663</ele><time>2026-04-01T12:45:41Z</time></trkpt><trkpt lat="45.60950491387323" lon="11.369936088443078"><ele>280.0</ele><time>2026-04-01T12:45:42Z</time></trkpt><trkpt lat="45.60948825648033" lon="11.369784718284688"><ele>281.66666666666663</ele><time>2026-04-01T12:45:44Z</time></trkpt><trkpt lat="45.60945896402577" lon="11.369681780013607"><ele>283.3333333333333</ele><time>2026-04-01T12:45:45Z</time></trkpt><trkpt lat="45.60943805339641" lon="11.369555025965873"><ele>285.0</ele><time>2026-04-01T12:45:46Z</time></trkpt><trkpt lat="45.609420211999165" lon="11.369422671467818"><ele>286.6666666666667</ele><time>2026-04-01T12:45:47Z</time></trkpt><trkpt lat="45.60939746393262" lon="11.369298096890487"><ele>288.33333333333337</ele><time>2026-04-01T12:45:48Z</time></trkpt><trkpt lat="45.60936850843218" lon="11.3691758208274"><ele>290.0</ele><time>2026-04-01T12:45:49Z</time></trkpt><trkpt lat="45.609317934355076" lon="11.369051709252235"><ele>290.0</ele><time>2026-04-01T12:45:50Z</time></trkpt><trkpt lat="45.6092712599638" lon="11.368901631312095"><ele>290.0</ele><time>2026-04-01T12:45:51Z</time></trkpt><trkpt lat="45.60924883048054" lon="11.368757936186023"><ele>290.0</ele><time>2026-04-01T12:45:52Z</time></trkpt><trkpt lat="45.60921355688489" lon="11.368630793411839"><ele>290.0</ele><time>2026-04-01T12:45:53Z</time></trkpt><trkpt lat="45.6092046417664" lon="11.368515057576273"><ele>290.0</ele><time>2026-04-01T12:45:54Z</time></trkpt><trkpt lat="45.609211753120334" lon="11.368415674799039"><ele>288.33333333333337</ele><time>2026-04-01T12:45:55Z</time></trkpt><trkpt lat="45.609238775883824" lon="11.368308894159894"><ele>286.6666666666667</ele><time>2026-04-01T12:45:56Z</time></trkpt><trkpt lat="45.60927912016377" lon="11.368212736779325"><ele>285.0</ele><time>2026-04-01T12:45:57Z</time></trkpt><trkpt lat="45.609332581841855" lon="11.36814243546232"><ele>283.3333333333333</ele><time>2026-04-01T12:45:58Z</time></trkpt><trkpt lat="45.60940788680428" lon="11.368057068705193"><ele>281.66666666666663</ele><time>2026-04-01T12:45:59Z</time></trkpt><trkpt lat="45.60949695026887" lon="11.367975398206179"><ele>280.0</ele><time>2026-04-01T12:46:00Z</time></trkpt><trkpt lat="45.609571245998524" lon="11.367897266654998"><ele>279.8333333333333</ele><time>2026-04-01T12:46:01Z</time></trkpt><trkpt lat="45.609622695002095" lon="11.36784147812074"><ele>279.66666666666663</ele><time>2026-04-01T12:46:02Z</time></trkpt><trkpt lat="45.6096868377646" lon="11.367771569475334"><ele>279.5</ele><time>2026-04-01T12:46:04Z</time></trkpt><trkpt lat="45.6098018857387" lon="11.367822382552312"><ele>279.3333333333333</ele><time>2026-04-01T12:46:06Z</time></trkpt><trkpt lat="45.60988898257137" lon="11.367856394998897"><ele>279.1666666666667</ele><time>2026-04-01T12:46:07Z</time></trkpt><trkpt lat="45.60998009597891" lon="11.367886786966238"><ele>279.0</ele><time>2026-04-01T12:46:08Z</time></trkpt><trkpt lat="45.610083421181606" lon="11.367897943371807"><ele>279.0</ele><time>2026-04-01T12:46:09Z</time></trkpt><trkpt lat="45.61019312717611" lon="11.36789412684123"><ele>279.0</ele><time>2026-04-01T12:46:10Z</time></trkpt><trkpt lat="45.610303136214675" lon="11.367875520017583"><ele>279.0</ele><time>2026-04-01T12:46:11Z</time></trkpt><trkpt lat="45.610400475744385" lon="11.367837006559254"><ele>279.0</ele><time>2026-04-01T12:46:12Z</time></trkpt><trkpt lat="45.6104868168251" lon="11.367790809645948"><ele>279.0</ele><time>2026-04-01T12:46:13Z</time></trkpt><trkpt lat="45.61057028721699" lon="11.367725493005533"><ele>277.75</ele><time>2026-04-01T12:46:14Z</time></trkpt><trkpt lat="45.61065355064244" lon="11.367654651169033"><ele>276.5</ele><time>2026-04-01T12:46:15Z</time></trkpt><trkpt lat="45.61074449604728" lon="11.367545849847806"><ele>275.25</ele><time>2026-04-01T12:46:16Z</time></trkpt><trkpt lat="45.610833543130454" lon="11.367432150968988"><ele>274.0</ele><time>2026-04-01T12:46:17Z</time></trkpt><trkpt lat="45.61092674902448" lon="11.367334345461726"><ele>274.0</ele><time>2026-04-01T12:46:18Z</time></trkpt><trkpt lat="45.61102240745544" lon="11.367271294532026"><ele>274.0</ele><time>2026-04-01T12:46:19Z</time></trkpt><trkpt lat="45.61111162146957" lon="11.36722960325234"><ele>274.0</ele><time>2026-04-01T12:46:20Z</time></trkpt><trkpt lat="45.611206198844414" lon="11.367202444146953"><ele>274.0</ele><time>2026-04-01T12:46:21Z</time></trkpt><trkpt lat="45.611297064813634" lon="11.367169522331777"><ele>274.0</ele><time>2026-04-01T12:46:22Z</time></trkpt><trkpt lat="45.61136906068787" lon="11.367179747399636"><ele>274.8333333333333</ele><time>2026-04-01T12:46:23Z</time></trkpt><trkpt lat="45.61144348922536" lon="11.367169632307537"><ele>275.66666666666663</ele><time>2026-04-01T12:46:25Z</time></trkpt><trkpt lat="45.61151137904826" lon="11.367165509262046"><ele>276.5</ele><time>2026-04-01T12:46:28Z</time></trkpt><trkpt lat="45.61149597549636" lon="11.36700089719625"><ele>277.3333333333333</ele><time>2026-04-01T12:46:29Z</time></trkpt><trkpt lat="45.611451173374135" lon="11.366903782676735"><ele>278.1666666666667</ele><time>2026-04-01T12:46:30Z</time></trkpt><trkpt lat="45.61140908274411" lon="11.366813242098127"><ele>279.0</ele><time>2026-04-01T12:46:31Z</time></trkpt><trkpt lat="45.611373703858035" lon="11.366732273159506"><ele>279.0</ele><time>2026-04-01T12:46:32Z</time></trkpt><trkpt lat="45.61133524682425" lon="11.36663758306395"><ele>279.0</ele><time>2026-04-01T12:46:33Z</time></trkpt><trkpt lat="45.61128203707363" lon="11.366518010993"><ele>279.0</ele><time>2026-04-01T12:46:34Z</time></trkpt><trkpt lat="45.61123807722713" lon="11.366397033536519"><ele>279.0</ele><time>2026-04-01T12:46:35Z</time></trkpt><trkpt lat="45.611208410574314" lon="11.366287528598638"><ele>279.0</ele><time>2026-04-01T12:46:36Z</time></trkpt><trkpt lat="45.611191309277444" lon="11.366158815655234"><ele>279.0</ele><time>2026-04-01T12:46:37Z</time></trkpt><trkpt lat="45.611177118041226" lon="11.36601739578512"><ele>280.5</ele><time>2026-04-01T12:46:38Z</time></trkpt><trkpt lat="45.61117437886419" lon="11.36588863089634"><ele>282.0</ele><time>2026-04-01T12:46:39Z</time></trkpt><trkpt lat="45.61120912695002" lon="11.365802378695598"><ele>283.5</ele><time>2026-04-01T12:46:40Z</time></trkpt><trkpt lat="45.61127650532061" lon="11.365721769569392"><ele>285.0</ele><time>2026-04-01T12:46:41Z</time></trkpt><trkpt lat="45.611344128190495" lon="11.365630082635025"><ele>286.5</ele><time>2026-04-01T12:46:42Z</time></trkpt><trkpt lat="45.61137124289933" lon="11.365510595347205"><ele>288.0</ele><time>2026-04-01T12:46:43Z</time></trkpt><trkpt lat="45.61135563362077" lon="11.365373149432083"><ele>288.4</ele><time>2026-04-01T12:46:44Z</time></trkpt><trkpt lat="45.6113350727108" lon="11.365219544151481"><ele>288.8</ele><time>2026-04-01T12:46:45Z</time></trkpt><trkpt lat="45.61132124098166" lon="11.365073468898325"><ele>289.2</ele><time>2026-04-01T12:46:46Z</time></trkpt><trkpt lat="45.61131090432957" lon="11.364928905991796"><ele>289.6</ele><time>2026-04-01T12:46:47Z</time></trkpt><trkpt lat="45.611304133033165" lon="11.364774651153185"><ele>290.0</ele><time>2026-04-01T12:46:48Z</time></trkpt><trkpt lat="45.61130070840485" lon="11.36463222337072"><ele>290.8</ele><time>2026-04-01T12:46:49Z</time></trkpt><trkpt lat="45.61130611745937" lon="11.364491488084749"><ele>291.6</ele><time>2026-04-01T12:46:50Z</time></trkpt><trkpt lat="45.611313723831806" lon="11.36435278943149"><ele>292.4</ele><time>2026-04-01T12:46:51Z</time></trkpt><trkpt lat="45.61134918915682" lon="11.364233320680745"><ele>293.2</ele><time>2026-04-01T12:46:52Z</time></trkpt><trkpt lat="45.61136075966675" lon="11.364106668781764"><ele>294.0</ele><time>2026-04-01T12:46:53Z</time></trkpt><trkpt lat="45.611393317982426" lon="11.363990516266576"><ele>294.0</ele><time>2026-04-01T12:46:54Z</time></trkpt><trkpt lat="45.61141910708409" lon="11.363860046404936"><ele>294.0</ele><time>2026-04-01T12:46:55Z</time></trkpt><trkpt lat="45.61144449640595" lon="11.363723853818515"><ele>294.0</ele><time>2026-04-01T12:46:56Z</time></trkpt><trkpt lat="45.61146387228116" lon="11.363588676502545"><ele>294.0</ele><time>2026-04-01T12:46:57Z</time></trkpt><trkpt lat="45.61148766915636" lon="11.36343410705952"><ele>294.0</ele><time>2026-04-01T12:46:58Z</time></trkpt><trkpt lat="45.611515021004365" lon="11.36327463836249"><ele>294.0</ele><time>2026-04-01T12:46:59Z</time></trkpt><trkpt lat="45.611540999153426" lon="11.363122767574895"><ele>294.0</ele><time>2026-04-01T12:47:00Z</time></trkpt><trkpt lat="45.6115762499344" lon="11.362986244273944"><ele>294.0</ele><time>2026-04-01T12:47:01Z</time></trkpt><trkpt lat="45.61162120104793" lon="11.36284563829498"><ele>294.0</ele><time>2026-04-01T12:47:02Z</time></trkpt><trkpt lat="45.611683479018126" lon="11.362731745707665"><ele>294.0</ele><time>2026-04-01T12:47:03Z</time></trkpt><trkpt lat="45.611707497465495" lon="11.36262507220639"><ele>293.5</ele><time>2026-04-01T12:47:04Z</time></trkpt><trkpt lat="45.61175191191732" lon="11.362535825430314"><ele>293.0</ele><time>2026-04-01T12:47:05Z</time></trkpt><trkpt lat="45.6118101417915" lon="11.362479933808567"><ele>292.5</ele><time>2026-04-01T12:47:06Z</time></trkpt><trkpt lat="45.61185877507741" lon="11.362348385407088"><ele>292.0</ele><time>2026-04-01T12:47:07Z</time></trkpt><trkpt lat="45.611908737307026" lon="11.362230768844652"><ele>291.5</ele><time>2026-04-01T12:47:08Z</time></trkpt><trkpt lat="45.611963116369026" lon="11.36214016536132"><ele>291.0</ele><time>2026-04-01T12:47:09Z</time></trkpt><trkpt lat="45.61202095512882" lon="11.362064954609908"><ele>293.6</ele><time>2026-04-01T12:47:10Z</time></trkpt><trkpt lat="45.61205209248929" lon="11.361958100460903"><ele>296.20000000000005</ele><time>2026-04-01T12:47:11Z</time></trkpt><trkpt lat="45.61211499561262" lon="11.361826703913694"><ele>298.79999999999995</ele><time>2026-04-01T12:47:12Z</time></trkpt><trkpt lat="45.61217792279698" lon="11.361696180198638"><ele>301.4</ele><time>2026-04-01T12:47:13Z</time></trkpt><trkpt lat="45.61224139520438" lon="11.36159565086217"><ele>304.0</ele><time>2026-04-01T12:47:14Z</time></trkpt><trkpt lat="45.612296287755676" lon="11.36152810121113"><ele>304.0</ele><time>2026-04-01T12:47:15Z</time></trkpt><trkpt lat="45.612344898446075" lon="11.36145644868296"><ele>304.0</ele><time>2026-04-01T12:47:16Z</time></trkpt><trkpt lat="45.61242039143506" lon="11.36133616520585"><ele>304.0</ele><time>2026-04-01T12:47:18Z</time></trkpt><trkpt lat="45.61247757344436" lon="11.361166965823447"><ele>304.0</ele><time>2026-04-01T12:47:20Z</time></trkpt><trkpt lat="45.61249594441521" lon="11.361064539211755"><ele>304.0</ele><time>2026-04-01T12:47:21Z</time></trkpt><trkpt lat="45.612548751755405" lon="11.361005972753498"><ele>303.4</ele><time>2026-04-01T12:47:22Z</time></trkpt><trkpt lat="45.61259575910235" lon="11.360925678283174"><ele>302.79999999999995</ele><time>2026-04-01T12:47:23Z</time></trkpt><trkpt lat="45.612669281247136" lon="11.360784288704203"><ele>302.20000000000005</ele><time>2026-04-01T12:47:25Z</time></trkpt><trkpt lat="45.61271522975441" lon="11.360699777846262"><ele>301.6</ele><time>2026-04-01T12:47:26Z</time></trkpt><trkpt lat="45.612699815049396" lon="11.360534863258874"><ele>301.0</ele><time>2026-04-01T12:47:27Z</time></trkpt><trkpt lat="45.61271833157395" lon="11.36042431331136"><ele>301.0</ele><time>2026-04-01T12:47:28Z</time></trkpt><trkpt lat="45.612721677770324" lon="11.360307164633827"><ele>301.0</ele><time>2026-04-01T12:47:29Z</time></trkpt><trkpt lat="45.612699996848335" lon="11.360154978209492"><ele>301.0</ele><time>2026-04-01T12:47:30Z</time></trkpt><trkpt lat="45.6127081888816" lon="11.360030417953613"><ele>301.0</ele><time>2026-04-01T12:47:31Z</time></trkpt><trkpt lat="45.61271633159827" lon="11.359894288396417"><ele>301.0</ele><time>2026-04-01T12:47:32Z</time></trkpt><trkpt lat="45.61272393310563" lon="11.359793340939126"><ele>301.0</ele><time>2026-04-01T12:47:33Z</time></trkpt><trkpt lat="45.61273698004341" lon="11.359684916240042"><ele>302.40000000000003</ele><time>2026-04-01T12:47:34Z</time></trkpt><trkpt lat="45.612705474558766" lon="11.359498035873894"><ele>303.8</ele><time>2026-04-01T12:47:36Z</time></trkpt><trkpt lat="45.612677377000736" lon="11.359411812835221"><ele>305.20000000000005</ele><time>2026-04-01T12:47:37Z</time></trkpt><trkpt lat="45.61262970923217" lon="11.359314258376765"><ele>306.6</ele><time>2026-04-01T12:47:38Z</time></trkpt><trkpt lat="45.61259931596137" lon="11.359165598178079"><ele>308.0</ele><time>2026-04-01T12:47:40Z</time></trkpt><trkpt lat="45.61263209666278" lon="11.35899361480165"><ele>308.8</ele><time>2026-04-01T12:47:42Z</time></trkpt><trkpt lat="45.61261578947182" lon="11.358806393926619"><ele>309.6</ele><time>2026-04-01T12:47:44Z</time></trkpt><trkpt lat="45.612590966905515" lon="11.358697068356593"><ele>310.4</ele><time>2026-04-01T12:47:45Z</time></trkpt><trkpt lat="45.61257321682303" lon="11.358567997736326"><ele>311.2</ele><time>2026-04-01T12:47:46Z</time></trkpt><trkpt lat="45.61255262252606" lon="11.358417851815409"><ele>312.0</ele><time>2026-04-01T12:47:47Z</time></trkpt><trkpt lat="45.612543105422056" lon="11.358273618290092"><ele>312.0</ele><time>2026-04-01T12:47:48Z</time></trkpt><trkpt lat="45.61254424065387" lon="11.358135157153047"><ele>312.0</ele><time>2026-04-01T12:47:49Z</time></trkpt><trkpt lat="45.61254557885547" lon="11.357998948120809"><ele>312.0</ele><time>2026-04-01T12:47:50Z</time></trkpt><trkpt lat="45.6125587866419" lon="11.357861668560902"><ele>312.0</ele><time>2026-04-01T12:47:51Z</time></trkpt><trkpt lat="45.61257924353886" lon="11.357757531691934"><ele>312.0</ele><time>2026-04-01T12:47:52Z</time></trkpt><trkpt lat="45.61260275206332" lon="11.357627093033976"><ele>312.0</ele><time>2026-04-01T12:47:53Z</time></trkpt><trkpt lat="45.61262591109962" lon="11.357508529061413"><ele>312.0</ele><time>2026-04-01T12:47:54Z</time></trkpt><trkpt lat="45.61263986321259" lon="11.357413047333372"><ele>312.0</ele><time>2026-04-01T12:47:56Z</time></trkpt><trkpt lat="45.61270492128229" lon="11.357413666092183"><ele>312.0</ele><time>2026-04-01T12:48:00Z</time></trkpt><trkpt lat="45.61273526232297" lon="11.357494130219816"><ele>312.0</ele><time>2026-04-01T12:48:01Z</time></trkpt><trkpt lat="45.612755374901184" lon="11.357591724932844"><ele>312.0</ele><time>2026-04-01T12:48:02Z</time></trkpt><trkpt lat="45.612797546908496" lon="11.357692503723648"><ele>312.0</ele><time>2026-04-01T12:48:03Z</time></trkpt><trkpt lat="45.612861910950784" lon="11.35779532183085"><ele>315.6666666666667</ele><time>2026-04-01T12:48:04Z</time></trkpt><trkpt lat="45.61292535068897" lon="11.357879426300645"><ele>319.3333333333333</ele><time>2026-04-01T12:48:05Z</time></trkpt><trkpt lat="45.61297945828642" lon="11.357929131655723"><ele>323.0</ele><time>2026-04-01T12:48:06Z</time></trkpt><trkpt lat="45.61306337696327" lon="11.358000288663264"><ele>326.66666666666663</ele><time>2026-04-01T12:48:07Z</time></trkpt><trkpt lat="45.61314422286054" lon="11.358085173033745"><ele>330.3333333333333</ele><time>2026-04-01T12:48:08Z</time></trkpt><trkpt lat="45.61319603014981" lon="11.358170164108644"><ele>334.0</ele><time>2026-04-01T12:48:09Z</time></trkpt><trkpt lat="45.61323677664627" lon="11.358280362320215"><ele>336.0</ele><time>2026-04-01T12:48:10Z</time></trkpt><trkpt lat="45.613283772428886" lon="11.358429212527758"><ele>338.0</ele><time>2026-04-01T12:48:12Z</time></trkpt><trkpt lat="45.61337930300947" lon="11.35835582379528"><ele>340.0</ele><time>2026-04-01T12:48:15Z</time></trkpt><trkpt lat="45.61343388799364" lon="11.358291339994466"><ele>342.0</ele><time>2026-04-01T12:48:16Z</time></trkpt><trkpt lat="45.61355170974501" lon="11.358240315906095"><ele>344.0</ele><time>2026-04-01T12:48:18Z</time></trkpt><trkpt lat="45.61361882452335" lon="11.358202684695984"><ele>349.0</ele><time>2026-04-01T12:48:19Z</time></trkpt><trkpt lat="45.613682609852994" lon="11.358153625786656"><ele>354.0</ele><time>2026-04-01T12:48:20Z</time></trkpt><trkpt lat="45.613747762754045" lon="11.358024953775399"><ele>359.0</ele><time>2026-04-01T12:48:22Z</time></trkpt><trkpt lat="45.61377222907977" lon="11.357939555266821"><ele>364.0</ele><time>2026-04-01T12:48:23Z</time></trkpt><trkpt lat="45.61379280510894" lon="11.3578233600408"><ele>369.0</ele><time>2026-04-01T12:48:24Z</time></trkpt><trkpt lat="45.61382424582294" lon="11.35767551678874"><ele>374.0</ele><time>2026-04-01T12:48:25Z</time></trkpt><trkpt lat="45.613844371273714" lon="11.357568603657445"><ele>374.0</ele><time>2026-04-01T12:48:26Z</time></trkpt><trkpt lat="45.61386737283213" lon="11.357399415392024"><ele>374.0</ele><time>2026-04-01T12:48:28Z</time></trkpt><trkpt lat="45.6138764683144" lon="11.357300793881143"><ele>374.0</ele><time>2026-04-01T12:48:29Z</time></trkpt><trkpt lat="45.613876621493624" lon="11.357194313492592"><ele>374.0</ele><time>2026-04-01T12:48:30Z</time></trkpt><trkpt lat="45.613890647349535" lon="11.357101246336022"><ele>374.0</ele><time>2026-04-01T12:48:31Z</time></trkpt><trkpt lat="45.61389138981461" lon="11.356935548449192"><ele>374.0</ele><time>2026-04-01T12:48:33Z</time></trkpt><trkpt lat="45.61386670776885" lon="11.356801051241243"><ele>371.6</ele><time>2026-04-01T12:48:35Z</time></trkpt><trkpt lat="45.61386021585754" lon="11.35663046422793"><ele>369.2</ele><time>2026-04-01T12:48:37Z</time></trkpt><trkpt lat="45.613865622042454" lon="11.356538054310436"><ele>366.8</ele><time>2026-04-01T12:48:38Z</time></trkpt><trkpt lat="45.61386343636233" lon="11.356446171152083"><ele>364.40000000000003</ele><time>2026-04-01T12:48:39Z</time></trkpt><trkpt lat="45.61388262489477" lon="11.356317560392048"><ele>362.0</ele><time>2026-04-01T12:48:41Z</time></trkpt><trkpt lat="45.61389175248476" lon="11.356145585689488"><ele>362.0</ele><time>2026-04-01T12:48:43Z</time></trkpt><trkpt lat="45.61393800829166" lon="11.355995600193307"><ele>362.0</ele><time>2026-04-01T12:48:45Z</time></trkpt><trkpt lat="45.61393544317272" lon="11.35584562983488"><ele>362.0</ele><time>2026-04-01T12:48:47Z</time></trkpt><trkpt lat="45.61390987744218" lon="11.355732693238323"><ele>362.0</ele><time>2026-04-01T12:48:49Z</time></trkpt><trkpt lat="45.613911458122935" lon="11.355634431364617"><ele>362.0</ele><time>2026-04-01T12:48:51Z</time></trkpt><trkpt lat="45.613817819762964" lon="11.35555367906584"><ele>362.20000000000005</ele><time>2026-04-01T12:48:53Z</time></trkpt><trkpt lat="45.613788674203526" lon="11.355440227082632"><ele>362.4</ele><time>2026-04-01T12:48:55Z</time></trkpt><trkpt lat="45.613797247722275" lon="11.355277339241855"><ele>362.6</ele><time>2026-04-01T12:48:57Z</time></trkpt><trkpt lat="45.61378032036375" lon="11.355152729903605"><ele>362.79999999999995</ele><time>2026-04-01T12:48:58Z</time></trkpt><trkpt lat="45.61379119777498" lon="11.354993502028458"><ele>363.0</ele><time>2026-04-01T12:48:59Z</time></trkpt><trkpt lat="45.61381205718555" lon="11.354801924532469"><ele>364.4</ele><time>2026-04-01T12:49:00Z</time></trkpt><trkpt lat="45.61380809648535" lon="11.354662073115458"><ele>365.79999999999995</ele><time>2026-04-01T12:49:01Z</time></trkpt><trkpt lat="45.6138006826874" lon="11.354565351506128"><ele>367.2</ele><time>2026-04-01T12:49:02Z</time></trkpt><trkpt lat="45.61377102653693" lon="11.354388544669053"><ele>368.6</ele><time>2026-04-01T12:49:04Z</time></trkpt><trkpt lat="45.613786638631794" lon="11.354238330569144"><ele>370.0</ele><time>2026-04-01T12:49:06Z</time></trkpt><trkpt lat="45.61375266901712" lon="11.354104200862452"><ele>370.0</ele><time>2026-04-01T12:49:08Z</time></trkpt><trkpt lat="45.61369269542373" lon="11.354045319016196"><ele>370.0</ele><time>2026-04-01T12:49:09Z</time></trkpt><trkpt lat="45.61362230425257" lon="11.354005949238665"><ele>370.0</ele><time>2026-04-01T12:49:10Z</time></trkpt><trkpt lat="45.61357245773842" lon="11.35395098189738"><ele>370.0</ele><time>2026-04-01T12:49:11Z</time></trkpt><trkpt lat="45.61346468429622" lon="11.35390065272426"><ele>370.0</ele><time>2026-04-01T12:49:13Z</time></trkpt><trkpt lat="45.613410204087174" lon="11.353805636936634"><ele>370.0</ele><time>2026-04-01T12:49:16Z</time></trkpt><trkpt lat="45.61343288515593" lon="11.35370844620323"><ele>371.2</ele><time>2026-04-01T12:49:20Z</time></trkpt><trkpt lat="45.61349923268973" lon="11.35360751392401"><ele>372.4</ele><time>2026-04-01T12:49:22Z</time></trkpt><trkpt lat="45.61358457449023" lon="11.353504703181326"><ele>373.6</ele><time>2026-04-01T12:49:25Z</time></trkpt><trkpt lat="45.61369937777658" lon="11.353466042136006"><ele>374.8</ele><time>2026-04-01T12:49:27Z</time></trkpt><trkpt lat="45.61381866450065" lon="11.353497099467512"><ele>376.0</ele><time>2026-04-01T12:49:29Z</time></trkpt><trkpt lat="45.61391307456904" lon="11.353542175752423"><ele>376.0</ele><time>2026-04-01T12:49:30Z</time></trkpt><trkpt lat="45.61400235745982" lon="11.353500587514766"><ele>376.0</ele><time>2026-04-01T12:49:32Z</time></trkpt><trkpt lat="45.614088419615435" lon="11.353498037848793"><ele>376.0</ele><time>2026-04-01T12:49:33Z</time></trkpt><trkpt lat="45.61415404462238" lon="11.35348717034409"><ele>376.0</ele><time>2026-04-01T12:49:34Z</time></trkpt><trkpt lat="45.61429614809028" lon="11.353476304732768"><ele>376.0</ele><time>2026-04-01T12:49:36Z</time></trkpt><trkpt lat="45.614397904767934" lon="11.353511611359606"><ele>373.0</ele><time>2026-04-01T12:49:37Z</time></trkpt><trkpt lat="45.61450452511077" lon="11.353569128133984"><ele>370.0</ele><time>2026-04-01T12:49:39Z</time></trkpt><trkpt lat="45.61457949768502" lon="11.353603017591407"><ele>367.0</ele><time>2026-04-01T12:49:40Z</time></trkpt><trkpt lat="45.61466111125071" lon="11.353643343326343"><ele>364.0</ele><time>2026-04-01T12:49:41Z</time></trkpt><trkpt lat="45.61476358962039" lon="11.353714975752712"><ele>361.0</ele><time>2026-04-01T12:49:43Z</time></trkpt><trkpt lat="45.61487522907283" lon="11.353839732079354"><ele>365.8</ele><time>2026-04-01T12:49:45Z</time></trkpt><trkpt lat="45.61494890668277" lon="11.353884077555595"><ele>370.6</ele><time>2026-04-01T12:49:46Z</time></trkpt><trkpt lat="45.61508161154706" lon="11.353932671970327"><ele>375.4</ele><time>2026-04-01T12:49:48Z</time></trkpt><trkpt lat="45.615146232492556" lon="11.353991844001017"><ele>380.2</ele><time>2026-04-01T12:49:49Z</time></trkpt><trkpt lat="45.615197444975024" lon="11.354065408465628"><ele>385.0</ele><time>2026-04-01T12:49:50Z</time></trkpt><trkpt lat="45.61529898604496" lon="11.354153377130993"><ele>380.2</ele><time>2026-04-01T12:49:52Z</time></trkpt><trkpt lat="45.61537341729899" lon="11.354185632020094"><ele>375.4</ele><time>2026-04-01T12:49:53Z</time></trkpt><trkpt lat="45.61545038570355" lon="11.354230380485669"><ele>370.6</ele><time>2026-04-01T12:49:54Z</time></trkpt><trkpt lat="45.61557123037134" lon="11.354277497792475"><ele>365.8</ele><time>2026-04-01T12:49:56Z</time></trkpt><trkpt lat="45.61567687992418" lon="11.3543735174591"><ele>361.0</ele><time>2026-04-01T12:49:58Z</time></trkpt><trkpt lat="45.61574930098346" lon="11.354443477809307"><ele>361.0</ele><time>2026-04-01T12:49:59Z</time></trkpt><trkpt lat="45.61579765296563" lon="11.354513942259151"><ele>361.0</ele><time>2026-04-01T12:50:00Z</time></trkpt><trkpt lat="45.61585312352585" lon="11.354560396237904"><ele>361.0</ele><time>2026-04-01T12:50:01Z</time></trkpt><trkpt lat="45.61592962635971" lon="11.354634227585994"><ele>361.0</ele><time>2026-04-01T12:50:03Z</time></trkpt><trkpt lat="45.61597710079239" lon="11.354714123503772"><ele>361.0</ele><time>2026-04-01T12:50:05Z</time></trkpt><trkpt lat="45.61606834282262" lon="11.354740388625444"><ele>361.0</ele><time>2026-04-01T12:50:07Z</time></trkpt><trkpt lat="45.616137676191585" lon="11.354673237995845"><ele>358.0</ele><time>2026-04-01T12:50:09Z</time></trkpt><trkpt lat="45.616207088396244" lon="11.35457200072513"><ele>355.0</ele><time>2026-04-01T12:50:11Z</time></trkpt><trkpt lat="45.61629950156785" lon="11.354519240491973"><ele>352.0</ele><time>2026-04-01T12:50:13Z</time></trkpt><trkpt lat="45.616407703088505" lon="11.354547200689634"><ele>349.0</ele><time>2026-04-01T12:50:15Z</time></trkpt><trkpt lat="45.616519625072385" lon="11.354607180730474"><ele>346.0</ele><time>2026-04-01T12:50:17Z</time></trkpt><trkpt lat="45.616615001052956" lon="11.354678320982506"><ele>348.0</ele><time>2026-04-01T12:50:19Z</time></trkpt><trkpt lat="45.616657842288085" lon="11.354768049763239"><ele>350.0</ele><time>2026-04-01T12:50:20Z</time></trkpt><trkpt lat="45.61671285896955" lon="11.354882506182692"><ele>352.0</ele><time>2026-04-01T12:50:21Z</time></trkpt><trkpt lat="45.61679097918547" lon="11.355009835365665"><ele>354.0</ele><time>2026-04-01T12:50:22Z</time></trkpt><trkpt lat="45.61687710276321" lon="11.35511375033663"><ele>356.0</ele><time>2026-04-01T12:50:23Z</time></trkpt><trkpt lat="45.61698921116224" lon="11.355215045229748"><ele>356.0</ele><time>2026-04-01T12:50:24Z</time></trkpt><trkpt lat="45.61713401104075" lon="11.35533847150325"><ele>356.0</ele><time>2026-04-01T12:50:25Z</time></trkpt><trkpt lat="45.617259686008204" lon="11.355445541035563"><ele>356.0</ele><time>2026-04-01T12:50:26Z</time></trkpt><trkpt lat="45.617360693529264" lon="11.355525482410858"><ele>356.0</ele><time>2026-04-01T12:50:27Z</time></trkpt><trkpt lat="45.61744186660015" lon="11.355597740935867"><ele>358.75</ele><time>2026-04-01T12:50:28Z</time></trkpt><trkpt lat="45.61753778574929" lon="11.35565536246784"><ele>361.5</ele><time>2026-04-01T12:50:29Z</time></trkpt><trkpt lat="45.617651372597855" lon="11.355744541385944"><ele>364.25</ele><time>2026-04-01T12:50:30Z</time></trkpt><trkpt lat="45.61776600298257" lon="11.355828381431444"><ele>367.0</ele><time>2026-04-01T12:50:31Z</time></trkpt><trkpt lat="45.61785826080726" lon="11.355892844559174"><ele>367.0</ele><time>2026-04-01T12:50:32Z</time></trkpt><trkpt lat="45.6179496369829" lon="11.35595984421216"><ele>367.0</ele><time>2026-04-01T12:50:33Z</time></trkpt><trkpt lat="45.61802346603387" lon="11.356015796485464"><ele>367.0</ele><time>2026-04-01T12:50:34Z</time></trkpt><trkpt lat="45.61812891831341" lon="11.356081600633823"><ele>367.0</ele><time>2026-04-01T12:50:36Z</time></trkpt><trkpt lat="45.61820600642558" lon="11.356077938991662"><ele>367.0</ele><time>2026-04-01T12:50:37Z</time></trkpt><trkpt lat="45.618309434656425" lon="11.356046546885205"><ele>367.0</ele><time>2026-04-01T12:50:38Z</time></trkpt><trkpt lat="45.61839699804657" lon="11.35601121695655"><ele>367.0</ele><time>2026-04-01T12:50:39Z</time></trkpt><trkpt lat="45.61848681427384" lon="11.35596376728052"><ele>367.0</ele><time>2026-04-01T12:50:40Z</time></trkpt><trkpt lat="45.61858141453048" lon="11.355908250862214"><ele>367.0</ele><time>2026-04-01T12:50:41Z</time></trkpt><trkpt lat="45.61866411414686" lon="11.35586965169677"><ele>367.0</ele><time>2026-04-01T12:50:42Z</time></trkpt><trkpt lat="45.61873445223666" lon="11.3558568316542"><ele>367.0</ele><time>2026-04-01T12:50:43Z</time></trkpt><trkpt lat="45.618808671384954" lon="11.355873922009684"><ele>367.16666666666663</ele><time>2026-04-01T12:50:44Z</time></trkpt><trkpt lat="45.61888234946233" lon="11.355878949081632"><ele>367.3333333333333</ele><time>2026-04-01T12:50:45Z</time></trkpt><trkpt lat="45.618976199415755" lon="11.355890595108296"><ele>367.5</ele><time>2026-04-01T12:50:46Z</time></trkpt><trkpt lat="45.61905215932869" lon="11.355904367578715"><ele>367.6666666666667</ele><time>2026-04-01T12:50:47Z</time></trkpt><trkpt lat="45.619129987700184" lon="11.355895195879825"><ele>367.83333333333337</ele><time>2026-04-01T12:50:48Z</time></trkpt><trkpt lat="45.61921377653175" lon="11.35589883863137"><ele>368.0</ele><time>2026-04-01T12:50:49Z</time></trkpt><trkpt lat="45.61928637173636" lon="11.355867863749737"><ele>368.0</ele><time>2026-04-01T12:50:50Z</time></trkpt><trkpt lat="45.61936989399932" lon="11.355813669895035"><ele>368.0</ele><time>2026-04-01T12:50:51Z</time></trkpt><trkpt lat="45.61947089676631" lon="11.355733277579043"><ele>368.0</ele><time>2026-04-01T12:50:52Z</time></trkpt><trkpt lat="45.619572505289455" lon="11.355643653390112"><ele>368.0</ele><time>2026-04-01T12:50:53Z</time></trkpt><trkpt lat="45.61966585742665" lon="11.355575677778956"><ele>368.0</ele><time>2026-04-01T12:50:54Z</time></trkpt><trkpt lat="45.61974439503117" lon="11.355524060928666"><ele>367.0</ele><time>2026-04-01T12:50:55Z</time></trkpt><trkpt lat="45.61981316349157" lon="11.355484615103022"><ele>366.0</ele><time>2026-04-01T12:50:56Z</time></trkpt><trkpt lat="45.61987666929044" lon="11.355468889252265"><ele>365.0</ele><time>2026-04-01T12:50:57Z</time></trkpt><trkpt lat="45.61991159979613" lon="11.355305488558038"><ele>364.0</ele><time>2026-04-01T12:50:59Z</time></trkpt><trkpt lat="45.61990725189996" lon="11.355194400470307"><ele>363.0</ele><time>2026-04-01T12:51:00Z</time></trkpt><trkpt lat="45.61990938388348" lon="11.35505803403675"><ele>362.0</ele><time>2026-04-01T12:51:01Z</time></trkpt><trkpt lat="45.6199478950526" lon="11.354920138375125"><ele>362.0</ele><time>2026-04-01T12:51:02Z</time></trkpt><trkpt lat="45.61998591135205" lon="11.354809422246307"><ele>362.0</ele><time>2026-04-01T12:51:03Z</time></trkpt><trkpt lat="45.620028546835734" lon="11.354712524380552"><ele>362.0</ele><time>2026-04-01T12:51:04Z</time></trkpt><trkpt lat="45.62005772236207" lon="11.354609717318223"><ele>362.0</ele><time>2026-04-01T12:51:05Z</time></trkpt><trkpt lat="45.620127321454255" lon="11.354509246688197"><ele>362.0</ele><time>2026-04-01T12:51:06Z</time></trkpt><trkpt lat="45.62017341572183" lon="11.354376011884826"><ele>362.0</ele><time>2026-04-01T12:51:07Z</time></trkpt><trkpt lat="45.62024411094595" lon="11.354241196386313"><ele>361.20000000000005</ele><time>2026-04-01T12:51:08Z</time></trkpt><trkpt lat="45.62032262473177" lon="11.354107507017853"><ele>360.4</ele><time>2026-04-01T12:51:09Z</time></trkpt><trkpt lat="45.62039202018706" lon="11.353986026207178"><ele>359.6</ele><time>2026-04-01T12:51:10Z</time></trkpt><trkpt lat="45.620455791953546" lon="11.353882360663716"><ele>358.79999999999995</ele><time>2026-04-01T12:51:11Z</time></trkpt><trkpt lat="45.62052638542931" lon="11.353780566887751"><ele>358.0</ele><time>2026-04-01T12:51:12Z</time></trkpt><trkpt lat="45.62059572370066" lon="11.353682946869327"><ele>358.00000000000006</ele><time>2026-04-01T12:51:13Z</time></trkpt><trkpt lat="45.62064729155593" lon="11.35362257695741"><ele>358.0</ele><time>2026-04-01T12:51:14Z</time></trkpt><trkpt lat="45.62070441467309" lon="11.353581183943778"><ele>358.0</ele><time>2026-04-01T12:51:15Z</time></trkpt><trkpt lat="45.62076762428803" lon="11.353597926866302"><ele>358.0</ele><time>2026-04-01T12:51:16Z</time></trkpt><trkpt lat="45.620829790449555" lon="11.353580163350973"><ele>358.0</ele><time>2026-04-01T12:51:17Z</time></trkpt><trkpt lat="45.6209093041339" lon="11.353584100093002"><ele>358.00000000000006</ele><time>2026-04-01T12:51:18Z</time></trkpt><trkpt lat="45.62098754926468" lon="11.353584256434836"><ele>358.0</ele><time>2026-04-01T12:51:19Z</time></trkpt><trkpt lat="45.62106483473315" lon="11.35357268043038"><ele>358.59999999999997</ele><time>2026-04-01T12:51:20Z</time></trkpt><trkpt lat="45.621154060061905" lon="11.35353539797847"><ele>359.2</ele><time>2026-04-01T12:51:21Z</time></trkpt><trkpt lat="45.62124304687873" lon="11.353508764324582"><ele>359.8</ele><time>2026-04-01T12:51:22Z</time></trkpt><trkpt lat="45.621366061124924" lon="11.353484141347385"><ele>360.4</ele><time>2026-04-01T12:51:24Z</time></trkpt><trkpt lat="45.621441992592175" lon="11.353469746599984"><ele>361.0</ele><time>2026-04-01T12:51:25Z</time></trkpt><trkpt lat="45.621545651667695" lon="11.353433356867393"><ele>361.0</ele><time>2026-04-01T12:51:26Z</time></trkpt><trkpt lat="45.62163295247316" lon="11.353389517096295"><ele>361.0</ele><time>2026-04-01T12:51:27Z</time></trkpt><trkpt lat="45.62170966232933" lon="11.35330649422962"><ele>361.0</ele><time>2026-04-01T12:51:28Z</time></trkpt><trkpt lat="45.62178293226484" lon="11.353205063786307"><ele>361.0</ele><time>2026-04-01T12:51:29Z</time></trkpt><trkpt lat="45.62185829247528" lon="11.353083679346504"><ele>361.0</ele><time>2026-04-01T12:51:30Z</time></trkpt><trkpt lat="45.62193425196152" lon="11.352978813723645"><ele>363.5</ele><time>2026-04-01T12:51:31Z</time></trkpt><trkpt lat="45.62200047757804" lon="11.352903921331544"><ele>366.0</ele><time>2026-04-01T12:51:32Z</time></trkpt><trkpt lat="45.62207045393662" lon="11.352861941646813"><ele>368.5</ele><time>2026-04-01T12:51:33Z</time></trkpt><trkpt lat="45.62216615154647" lon="11.352882773441296"><ele>371.0</ele><time>2026-04-01T12:51:34Z</time></trkpt><trkpt lat="45.62226006167886" lon="11.352825005178017"><ele>373.5</ele><time>2026-04-01T12:51:36Z</time></trkpt><trkpt lat="45.62231481380977" lon="11.35273805964802"><ele>376.0</ele><time>2026-04-01T12:51:38Z</time></trkpt><trkpt lat="45.622303873045475" lon="11.352644729555202"><ele>376.0</ele><time>2026-04-01T12:51:39Z</time></trkpt><trkpt lat="45.622248673454465" lon="11.35255343150022"><ele>376.0</ele><time>2026-04-01T12:51:40Z</time></trkpt><trkpt lat="45.622199047694394" lon="11.352435040491338"><ele>376.0</ele><time>2026-04-01T12:51:41Z</time></trkpt><trkpt lat="45.62213832718859" lon="11.35231932628211"><ele>376.0</ele><time>2026-04-01T12:51:42Z</time></trkpt><trkpt lat="45.62206361595157" lon="11.35221702839058"><ele>376.0</ele><time>2026-04-01T12:51:43Z</time></trkpt><trkpt lat="45.621986193622256" lon="11.352111127589147"><ele>374.8</ele><time>2026-04-01T12:51:44Z</time></trkpt><trkpt lat="45.62190857647978" lon="11.352013970995037"><ele>373.6</ele><time>2026-04-01T12:51:45Z</time></trkpt><trkpt lat="45.621843193449756" lon="11.351923504468656"><ele>372.4</ele><time>2026-04-01T12:51:46Z</time></trkpt><trkpt lat="45.621795960473804" lon="11.351800395856428"><ele>371.2</ele><time>2026-04-01T12:51:47Z</time></trkpt><trkpt lat="45.62175096628785" lon="11.351693743572698"><ele>370.0</ele><time>2026-04-01T12:51:48Z</time></trkpt><trkpt lat="45.621711166149964" lon="11.351599802110037"><ele>370.0</ele><time>2026-04-01T12:51:49Z</time></trkpt><trkpt lat="45.62173367304051" lon="11.351497809819943"><ele>370.0</ele><time>2026-04-01T12:51:50Z</time></trkpt><trkpt lat="45.62174590799682" lon="11.351393172766116"><ele>370.0</ele><time>2026-04-01T12:51:51Z</time></trkpt><trkpt lat="45.62176655122172" lon="11.35127063485958"><ele>370.0</ele><time>2026-04-01T12:51:52Z</time></trkpt><trkpt lat="45.62175252945811" lon="11.351135170093755"><ele>370.0</ele><time>2026-04-01T12:51:53Z</time></trkpt><trkpt lat="45.62173304766918" lon="11.350998182196157"><ele>370.0</ele><time>2026-04-01T12:51:54Z</time></trkpt><trkpt lat="45.62171930615231" lon="11.350891272503485"><ele>370.16666666666663</ele><time>2026-04-01T12:51:55Z</time></trkpt><trkpt lat="45.621708590322044" lon="11.350786991070073"><ele>370.3333333333333</ele><time>2026-04-01T12:51:56Z</time></trkpt><trkpt lat="45.62170397629979" lon="11.350684112238126"><ele>370.5</ele><time>2026-04-01T12:51:57Z</time></trkpt><trkpt lat="45.62169494462529" lon="11.350586115472526"><ele>370.6666666666667</ele><time>2026-04-01T12:51:58Z</time></trkpt><trkpt lat="45.62168049248152" lon="11.350468703505221"><ele>370.83333333333337</ele><time>2026-04-01T12:51:59Z</time></trkpt><trkpt lat="45.621666155738765" lon="11.350375256982717"><ele>371.0</ele><time>2026-04-01T12:52:00Z</time></trkpt><trkpt lat="45.62164296565623" lon="11.350247333846811"><ele>371.0</ele><time>2026-04-01T12:52:02Z</time></trkpt><trkpt lat="45.62166986381323" lon="11.350165864317484"><ele>371.0</ele><time>2026-04-01T12:52:03Z</time></trkpt><trkpt lat="45.62170037458461" lon="11.350070345886985"><ele>371.0</ele><time>2026-04-01T12:52:04Z</time></trkpt><trkpt lat="45.62173012444081" lon="11.349955433386054"><ele>371.0</ele><time>2026-04-01T12:52:05Z</time></trkpt><trkpt lat="45.62176508616177" lon="11.34986862810632"><ele>371.0</ele><time>2026-04-01T12:52:06Z</time></trkpt><trkpt lat="45.621855141215796" lon="11.34980915844453"><ele>371.0</ele><time>2026-04-01T12:52:08Z</time></trkpt><trkpt lat="45.621921408213225" lon="11.349676822154569"><ele>370.4</ele><time>2026-04-01T12:52:10Z</time></trkpt><trkpt lat="45.6219404538234" lon="11.34956535689914"><ele>369.8</ele><time>2026-04-01T12:52:11Z</time></trkpt><trkpt lat="45.62197479758489" lon="11.349446058766791"><ele>369.2</ele><time>2026-04-01T12:52:12Z</time></trkpt><trkpt lat="45.62200647732273" lon="11.34931515360566"><ele>368.59999999999997</ele><time>2026-04-01T12:52:13Z</time></trkpt><trkpt lat="45.62204059269633" lon="11.349187900584878"><ele>368.0</ele><time>2026-04-01T12:52:14Z</time></trkpt><trkpt lat="45.62207983245424" lon="11.349067371368974"><ele>369.0</ele><time>2026-04-01T12:52:15Z</time></trkpt><trkpt lat="45.62211618938863" lon="11.34895716076922"><ele>370.0</ele><time>2026-04-01T12:52:16Z</time></trkpt><trkpt lat="45.622147838348845" lon="11.348842029656097"><ele>371.0</ele><time>2026-04-01T12:52:17Z</time></trkpt><trkpt lat="45.622201076453216" lon="11.348769707782392"><ele>372.0</ele><time>2026-04-01T12:52:18Z</time></trkpt><trkpt lat="45.62223751551633" lon="11.348690744187602"><ele>373.0</ele><time>2026-04-01T12:52:19Z</time></trkpt><trkpt lat="45.62234774544545" lon="11.348663686476684"><ele>374.0</ele><time>2026-04-01T12:52:21Z</time></trkpt><trkpt lat="45.62240672068368" lon="11.34870949559787"><ele>374.0</ele><time>2026-04-01T12:52:50Z</time></trkpt><trkpt lat="45.62249170496378" lon="11.348790241402988"><ele>374.0</ele><time>2026-04-01T12:52:52Z</time></trkpt><trkpt lat="45.62256966764633" lon="11.348833124953595"><ele>374.0</ele><time>2026-04-01T12:52:53Z</time></trkpt><trkpt lat="45.62264964469215" lon="11.348875546475213"><ele>374.0</ele><time>2026-04-01T12:52:54Z</time></trkpt><trkpt lat="45.62273533587828" lon="11.348923692195134"><ele>374.0</ele><time>2026-04-01T12:52:55Z</time></trkpt><trkpt lat="45.62282639835636" lon="11.348983336764391"><ele>376.6666666666667</ele><time>2026-04-01T12:52:56Z</time></trkpt><trkpt lat="45.6228572060992" lon="11.349095963932708"><ele>379.33333333333337</ele><time>2026-04-01T12:52:57Z</time></trkpt><trkpt lat="45.62290798417585" lon="11.349175822207206"><ele>382.0</ele><time>2026-04-01T12:52:58Z</time></trkpt><trkpt lat="45.62298262805307" lon="11.349240322373651"><ele>384.6666666666667</ele><time>2026-04-01T12:52:59Z</time></trkpt><trkpt lat="45.623033814344275" lon="11.349343525973822"><ele>387.3333333333333</ele><time>2026-04-01T12:53:00Z</time></trkpt><trkpt lat="45.623081120541535" lon="11.349432970738627"><ele>390.0</ele><time>2026-04-01T12:53:01Z</time></trkpt><trkpt lat="45.62311423192081" lon="11.349542836005732"><ele>392.2</ele><time>2026-04-01T12:53:02Z</time></trkpt><trkpt lat="45.62316369085937" lon="11.349709680684434"><ele>394.4</ele><time>2026-04-01T12:53:03Z</time></trkpt><trkpt lat="45.623213391617924" lon="11.349858876774833"><ele>396.6</ele><time>2026-04-01T12:53:04Z</time></trkpt><trkpt lat="45.62327269334173" lon="11.349962471245254"><ele>398.8</ele><time>2026-04-01T12:53:05Z</time></trkpt><trkpt lat="45.623292752747645" lon="11.350070921051184"><ele>401.0</ele><time>2026-04-01T12:53:06Z</time></trkpt><trkpt lat="45.62332271925299" lon="11.350208081262439"><ele>400.99999999999994</ele><time>2026-04-01T12:53:07Z</time></trkpt><trkpt lat="45.62334851741104" lon="11.350329290556695"><ele>401.0</ele><time>2026-04-01T12:53:08Z</time></trkpt><trkpt lat="45.623387514284914" lon="11.350406446183356"><ele>401.0</ele><time>2026-04-01T12:53:09Z</time></trkpt><trkpt lat="45.62344563813495" lon="11.350457535544603"><ele>401.0</ele><time>2026-04-01T12:53:10Z</time></trkpt><trkpt lat="45.62353093407593" lon="11.350523533420821"><ele>400.99999999999994</ele><time>2026-04-01T12:53:11Z</time></trkpt><trkpt lat="45.62361186048945" lon="11.350623327655402"><ele>401.0</ele><time>2026-04-01T12:53:12Z</time></trkpt><trkpt lat="45.62369500007787" lon="11.350713211786"><ele>405.4</ele><time>2026-04-01T12:53:13Z</time></trkpt><trkpt lat="45.623779351370935" lon="11.350804450494156"><ele>409.8</ele><time>2026-04-01T12:53:14Z</time></trkpt><trkpt lat="45.623858966412456" lon="11.350901107225333"><ele>414.2</ele><time>2026-04-01T12:53:15Z</time></trkpt><trkpt lat="45.623919030683446" lon="11.350986792507204"><ele>418.59999999999997</ele><time>2026-04-01T12:53:16Z</time></trkpt><trkpt lat="45.62398532038586" lon="11.351043377184697"><ele>423.0</ele><time>2026-04-01T12:53:17Z</time></trkpt><trkpt lat="45.62408966860309" lon="11.351120631898644"><ele>423.0</ele><time>2026-04-01T12:53:19Z</time></trkpt><trkpt lat="45.62412899511619" lon="11.351225887739142"><ele>423.0</ele><time>2026-04-01T12:53:20Z</time></trkpt><trkpt lat="45.62417182827857" lon="11.351337516889753"><ele>423.0</ele><time>2026-04-01T12:53:21Z</time></trkpt><trkpt lat="45.62423559434244" lon="11.3514796098276"><ele>423.0</ele><time>2026-04-01T12:53:22Z</time></trkpt><trkpt lat="45.62430334841558" lon="11.351552980070643"><ele>423.0</ele><time>2026-04-01T12:53:23Z</time></trkpt><trkpt lat="45.624367781637055" lon="11.351642709509846"><ele>424.2</ele><time>2026-04-01T12:53:25Z</time></trkpt><trkpt lat="45.62433815602368" lon="11.351734321994076"><ele>425.4</ele><time>2026-04-01T12:53:27Z</time></trkpt><trkpt lat="45.62428759172454" lon="11.351889440514686"><ele>426.59999999999997</ele><time>2026-04-01T12:53:30Z</time></trkpt><trkpt lat="45.62427408109701" lon="11.352104006975182"><ele>427.79999999999995</ele><time>2026-04-01T12:53:32Z</time></trkpt><trkpt lat="45.62428729941158" lon="11.352226810467206"><ele>429.0</ele><time>2026-04-01T12:53:33Z</time></trkpt><trkpt lat="45.62428692170339" lon="11.352352373483814"><ele>429.6666666666667</ele><time>2026-04-01T12:53:34Z</time></trkpt><trkpt lat="45.62425907251034" lon="11.352449848604506"><ele>430.33333333333337</ele><time>2026-04-01T12:53:35Z</time></trkpt><trkpt lat="45.62422162647659" lon="11.35256225306771"><ele>431.0</ele><time>2026-04-01T12:53:36Z</time></trkpt><trkpt lat="45.62420550143135" lon="11.352667923030653"><ele>431.6666666666667</ele><time>2026-04-01T12:53:37Z</time></trkpt><trkpt lat="45.62422299162529" lon="11.352761440171403"><ele>432.33333333333337</ele><time>2026-04-01T12:53:38Z</time></trkpt><trkpt lat="45.62420001075344" lon="11.352883748133502"><ele>433.0</ele><time>2026-04-01T12:53:39Z</time></trkpt><trkpt lat="45.62419069980945" lon="11.353040646347136"><ele>433.4</ele><time>2026-04-01T12:53:40Z</time></trkpt><trkpt lat="45.624182445070765" lon="11.353179746507234"><ele>433.79999999999995</ele><time>2026-04-01T12:53:41Z</time></trkpt><trkpt lat="45.62421355110123" lon="11.353288496143724"><ele>434.2</ele><time>2026-04-01T12:53:42Z</time></trkpt><trkpt lat="45.6242257535355" lon="11.3534666120733"><ele>434.6</ele><time>2026-04-01T12:53:44Z</time></trkpt><trkpt lat="45.624231580954834" lon="11.353576339179858"><ele>435.0</ele><time>2026-04-01T12:53:45Z</time></trkpt><trkpt lat="45.624217153555946" lon="11.353748015903877"><ele>435.0</ele><time>2026-04-01T12:53:47Z</time></trkpt><trkpt lat="45.62419381548384" lon="11.353839211127752"><ele>435.0</ele><time>2026-04-01T12:53:48Z</time></trkpt><trkpt lat="45.624122654558875" lon="11.353960791677343"><ele>435.0</ele><time>2026-04-01T12:53:50Z</time></trkpt><trkpt lat="45.62403976411348" lon="11.354050353756843"><ele>435.0</ele><time>2026-04-01T12:53:52Z</time></trkpt><trkpt lat="45.62396877018271" lon="11.354176277340974"><ele>435.0</ele><time>2026-04-01T12:53:54Z</time></trkpt><trkpt lat="45.62389993690157" lon="11.3542590627577"><ele>433.75</ele><time>2026-04-01T12:53:55Z</time></trkpt><trkpt lat="45.62383180249369" lon="11.354382442761905"><ele>432.5</ele><time>2026-04-01T12:53:57Z</time></trkpt><trkpt lat="45.62375198921942" lon="11.354499078010342"><ele>431.25</ele><time>2026-04-01T12:53:59Z</time></trkpt><trkpt lat="45.623610119038695" lon="11.354523406892145"><ele>430.0</ele><time>2026-04-01T12:54:01Z</time></trkpt><trkpt lat="45.62350573067982" lon="11.354535243228241"><ele>430.00000000000006</ele><time>2026-04-01T12:54:02Z</time></trkpt><trkpt lat="45.62342101383964" lon="11.35456889762026"><ele>430.0</ele><time>2026-04-01T12:54:04Z</time></trkpt><trkpt lat="45.62336628553151" lon="11.354662576551023"><ele>430.0</ele><time>2026-04-01T12:54:06Z</time></trkpt><trkpt lat="45.62334289372409" lon="11.35475047719358"><ele>430.0</ele><time>2026-04-01T12:54:07Z</time></trkpt><trkpt lat="45.623319929860315" lon="11.354918824514142"><ele>430.00000000000006</ele><time>2026-04-01T12:54:09Z</time></trkpt><trkpt lat="45.62327993082338" lon="11.3549979337451"><ele>430.0</ele><time>2026-04-01T12:54:10Z</time></trkpt><trkpt lat="45.623213413016984" lon="11.355057953778985"><ele>437.4</ele><time>2026-04-01T12:54:11Z</time></trkpt><trkpt lat="45.62312896140226" lon="11.355130096957032"><ele>444.8</ele><time>2026-04-01T12:54:13Z</time></trkpt><trkpt lat="45.62308093260472" lon="11.355208051893653"><ele>452.20000000000005</ele><time>2026-04-01T12:54:14Z</time></trkpt><trkpt lat="45.62302441151604" lon="11.35527461533996"><ele>459.6</ele><time>2026-04-01T12:54:15Z</time></trkpt><trkpt lat="45.622922387472215" lon="11.355375589615079"><ele>467.0</ele><time>2026-04-01T12:54:17Z</time></trkpt><trkpt lat="45.62284989978576" lon="11.35545145816714"><ele>467.49999999999994</ele><time>2026-04-01T12:54:18Z</time></trkpt><trkpt lat="45.62277653532265" lon="11.355493868025526"><ele>468.0</ele><time>2026-04-01T12:54:20Z</time></trkpt><trkpt lat="45.62271355569551" lon="11.355580883000323"><ele>468.5</ele><time>2026-04-01T12:54:22Z</time></trkpt><trkpt lat="45.6226614573641" lon="11.35563292898998"><ele>469.0</ele><time>2026-04-01T12:54:23Z</time></trkpt><trkpt lat="45.62260140269421" lon="11.35569013910257"><ele>469.49999999999994</ele><time>2026-04-01T12:54:24Z</time></trkpt><trkpt lat="45.62251349087087" lon="11.35581426493268"><ele>470.0</ele><time>2026-04-01T12:54:26Z</time></trkpt><trkpt lat="45.62244661259822" lon="11.355957376879285"><ele>469.99999999999994</ele><time>2026-04-01T12:54:28Z</time></trkpt><trkpt lat="45.62235759112821" lon="11.356044463180547"><ele>470.0</ele><time>2026-04-01T12:54:30Z</time></trkpt><trkpt lat="45.622314595017386" lon="11.356116400928283"><ele>470.0</ele><time>2026-04-01T12:54:31Z</time></trkpt><trkpt lat="45.62225640521026" lon="11.356157120906856"><ele>470.0</ele><time>2026-04-01T12:54:32Z</time></trkpt><trkpt lat="45.62220237798392" lon="11.35621993339657"><ele>469.99999999999994</ele><time>2026-04-01T12:54:34Z</time></trkpt><trkpt lat="45.62212578680366" lon="11.356295634819986"><ele>470.0</ele><time>2026-04-01T12:54:36Z</time></trkpt><trkpt lat="45.62207251751366" lon="11.356349613168877"><ele>470.16666666666663</ele><time>2026-04-01T12:54:37Z</time></trkpt><trkpt lat="45.62201137152533" lon="11.356395792721267"><ele>470.3333333333333</ele><time>2026-04-01T12:54:38Z</time></trkpt><trkpt lat="45.621946602967135" lon="11.356416384031986"><ele>470.5</ele><time>2026-04-01T12:54:39Z</time></trkpt><trkpt lat="45.62188487865512" lon="11.356447832380862"><ele>470.66666666666663</ele><time>2026-04-01T12:54:40Z</time></trkpt><trkpt lat="45.621831013654266" lon="11.35653872711652"><ele>470.8333333333333</ele><time>2026-04-01T12:54:42Z</time></trkpt><trkpt lat="45.62184019661479" lon="11.356725651948887"><ele>471.0</ele><time>2026-04-01T12:54:45Z</time></trkpt><trkpt lat="45.621862629083225" lon="11.356811711900102"><ele>471.0</ele><time>2026-04-01T12:54:46Z</time></trkpt><trkpt lat="45.62191927120194" lon="11.356955923087138"><ele>471.0</ele><time>2026-04-01T12:54:48Z</time></trkpt><trkpt lat="45.62195534067958" lon="11.357045184860242"><ele>471.0</ele><time>2026-04-01T12:54:49Z</time></trkpt><trkpt lat="45.62200026787068" lon="11.357180099762102"><ele>471.0</ele><time>2026-04-01T12:54:51Z</time></trkpt><trkpt lat="45.62204764347113" lon="11.357335236486437"><ele>471.0</ele><time>2026-04-01T12:54:53Z</time></trkpt><trkpt lat="45.622048990872564" lon="11.357434889048314"><ele>479.3333333333333</ele><time>2026-04-01T12:54:55Z</time></trkpt><trkpt lat="45.622061023997595" lon="11.357565237075502"><ele>487.66666666666663</ele><time>2026-04-01T12:54:57Z</time></trkpt><trkpt lat="45.62207112431689" lon="11.357687373911821"><ele>496.0</ele><time>2026-04-01T12:54:59Z</time></trkpt><trkpt lat="45.6221033192126" lon="11.357820464385071"><ele>504.3333333333333</ele><time>2026-04-01T12:55:02Z</time></trkpt><trkpt lat="45.62211420267984" lon="11.35792783356595"><ele>512.6666666666666</ele><time>2026-04-01T12:55:04Z</time></trkpt><trkpt lat="45.62212311710726" lon="11.35802540516537"><ele>521.0</ele><time>2026-04-01T12:55:06Z</time></trkpt><trkpt lat="45.62211743919793" lon="11.358147400796373"><ele>522.6666666666666</ele><time>2026-04-01T12:55:09Z</time></trkpt><trkpt lat="45.6221059196326" lon="11.358278502441358"><ele>524.3333333333333</ele><time>2026-04-01T12:55:11Z</time></trkpt><trkpt lat="45.62207694415433" lon="11.358360732982806"><ele>526.0</ele><time>2026-04-01T12:55:12Z</time></trkpt><trkpt lat="45.6220070279168" lon="11.358479553108298"><ele>527.6666666666666</ele><time>2026-04-01T12:55:14Z</time></trkpt><trkpt lat="45.62197570338258" lon="11.358583796645956"><ele>529.3333333333334</ele><time>2026-04-01T12:55:17Z</time></trkpt><trkpt lat="45.621952472325844" lon="11.35871318554215"><ele>531.0</ele><time>2026-04-01T12:55:19Z</time></trkpt><trkpt lat="45.62192907031122" lon="11.358849826569308"><ele>528.6666666666666</ele><time>2026-04-01T12:55:21Z</time></trkpt><trkpt lat="45.62188928055882" lon="11.358938188311413"><ele>526.3333333333334</ele><time>2026-04-01T12:55:23Z</time></trkpt><trkpt lat="45.62185850722997" lon="11.359038717546861"><ele>524.0</ele><time>2026-04-01T12:55:25Z</time></trkpt><trkpt lat="45.62180890739833" lon="11.359147627578492"><ele>521.6666666666667</ele><time>2026-04-01T12:55:27Z</time></trkpt><trkpt lat="45.621776422353655" lon="11.359235042248505"><ele>519.3333333333334</ele><time>2026-04-01T12:55:28Z</time></trkpt><trkpt lat="45.62170846418825" lon="11.359368111474588"><ele>517.0</ele><time>2026-04-01T12:55:30Z</time></trkpt><trkpt lat="45.62161144576979" lon="11.359480115536401"><ele>517.0</ele><time>2026-04-01T12:55:32Z</time></trkpt><trkpt lat="45.62150794688105" lon="11.359543940548319"><ele>517.0</ele><time>2026-04-01T12:55:34Z</time></trkpt><trkpt lat="45.62145472664306" lon="11.359635746808967"><ele>517.0</ele><time>2026-04-01T12:55:36Z</time></trkpt><trkpt lat="45.62145583402594" lon="11.359729149738449"><ele>517.0</ele><time>2026-04-01T12:55:37Z</time></trkpt><trkpt lat="45.62146425116501" lon="11.359891420138526"><ele>517.0</ele><time>2026-04-01T12:55:39Z</time></trkpt><trkpt lat="45.62144457719858" lon="11.359999595315804"><ele>521.6</ele><time>2026-04-01T12:55:41Z</time></trkpt><trkpt lat="45.62141512303493" lon="11.360116585697366"><ele>526.2</ele><time>2026-04-01T12:55:43Z</time></trkpt><trkpt lat="45.62137625128125" lon="11.360268140433824"><ele>530.8</ele><time>2026-04-01T12:55:45Z</time></trkpt><trkpt lat="45.62133072450154" lon="11.360416902308293"><ele>535.4</ele><time>2026-04-01T12:55:47Z</time></trkpt><trkpt lat="45.62133638743865" lon="11.360510549567223"><ele>540.0</ele><time>2026-04-01T12:55:48Z</time></trkpt><trkpt lat="45.62133814759844" lon="11.3606684712824"><ele>542.6</ele><time>2026-04-01T12:55:50Z</time></trkpt><trkpt lat="45.62129351305395" lon="11.360833686287332"><ele>545.2</ele><time>2026-04-01T12:55:52Z</time></trkpt><trkpt lat="45.62123194924096" lon="11.360935643051121"><ele>547.8</ele><time>2026-04-01T12:55:54Z</time></trkpt><trkpt lat="45.62120106879296" lon="11.361074598256076"><ele>550.4</ele><time>2026-04-01T12:55:55Z</time></trkpt><trkpt lat="45.621158736563736" lon="11.361212188422009"><ele>553.0</ele><time>2026-04-01T12:55:56Z</time></trkpt><trkpt lat="45.621113495562625" lon="11.361295018067748"><ele>551.8333333333334</ele><time>2026-04-01T12:55:57Z</time></trkpt><trkpt lat="45.62103824923949" lon="11.36133600374712"><ele>550.6666666666667</ele><time>2026-04-01T12:55:59Z</time></trkpt><trkpt lat="45.62092904675322" lon="11.361349935427558"><ele>549.5</ele><time>2026-04-01T12:56:01Z</time></trkpt><trkpt lat="45.620860045254624" lon="11.361362421349039"><ele>548.3333333333334</ele><time>2026-04-01T12:56:02Z</time></trkpt><trkpt lat="45.620773973280095" lon="11.361369190438888"><ele>547.1666666666666</ele><time>2026-04-01T12:56:03Z</time></trkpt><trkpt lat="45.62069974577794" lon="11.361346847412289"><ele>546.0</ele><time>2026-04-01T12:56:04Z</time></trkpt><trkpt lat="45.62060745753451" lon="11.361332053297748"><ele>546.0</ele><time>2026-04-01T12:56:05Z</time></trkpt><trkpt lat="45.620529160796444" lon="11.361368809620402"><ele>546.0</ele><time>2026-04-01T12:56:06Z</time></trkpt><trkpt lat="45.62045691754252" lon="11.361409315403595"><ele>546.0</ele><time>2026-04-01T12:56:07Z</time></trkpt><trkpt lat="45.62035078138524" lon="11.361432923541159"><ele>546.0</ele><time>2026-04-01T12:56:08Z</time></trkpt><trkpt lat="45.62028115119432" lon="11.36143013278516"><ele>546.0</ele><time>2026-04-01T12:56:09Z</time></trkpt><trkpt lat="45.6201682177855" lon="11.36145038365182"><ele>546.0</ele><time>2026-04-01T12:56:11Z</time></trkpt><trkpt lat="45.62011185624813" lon="11.361555079218983"><ele>546.0</ele><time>2026-04-01T12:56:13Z</time></trkpt><trkpt lat="45.620127932254114" lon="11.36165357415264"><ele>546.0</ele><time>2026-04-01T13:00:13Z</time></trkpt><trkpt lat="45.62020107799484" lon="11.361724794438295"><ele>546.0</ele><time>2026-04-01T13:00:15Z</time></trkpt><trkpt lat="45.620317302929934" lon="11.361797935410246"><ele>546.0</ele><time>2026-04-01T13:00:17Z</time></trkpt><trkpt lat="45.620397019812636" lon="11.361844855196134"><ele>546.0</ele><time>2026-04-01T13:00:18Z</time></trkpt><trkpt lat="45.62048101574332" lon="11.361831069173359"><ele>546.0</ele><time>2026-04-01T13:00:20Z</time></trkpt><trkpt lat="45.62054454789768" lon="11.361796927708863"><ele>546.0</ele><time>2026-04-01T13:00:31Z</time></trkpt><trkpt lat="45.6206482438225" lon="11.361831995764478"><ele>546.0</ele><time>2026-04-01T13:00:33Z</time></trkpt><trkpt lat="45.620732379353726" lon="11.361909046950476"><ele>546.0</ele><time>2026-04-01T13:00:35Z</time></trkpt><trkpt lat="45.62075146765413" lon="11.362047775825381"><ele>546.0</ele><time>2026-04-01T13:00:37Z</time></trkpt><trkpt lat="45.620761425988896" lon="11.362142627671274"><ele>546.0</ele><time>2026-04-01T13:00:38Z</time></trkpt><trkpt lat="45.62079308271068" lon="11.362226064029514"><ele>546.0</ele><time>2026-04-01T13:00:40Z</time></trkpt><trkpt lat="45.62078772142259" lon="11.362319128871516"><ele>546.0</ele><time>2026-04-01T13:00:42Z</time></trkpt><trkpt lat="45.62069681581082" lon="11.362427698217815"><ele>546.0</ele><time>2026-04-01T13:00:44Z</time></trkpt><trkpt lat="45.620643134383236" lon="11.362500313495664"><ele>546.0</ele><time>2026-04-01T13:00:46Z</time></trkpt><trkpt lat="45.62058664610507" lon="11.36258117041926"><ele>544.8</ele><time>2026-04-01T13:00:48Z</time></trkpt><trkpt lat="45.62050340012686" lon="11.362707960064803"><ele>543.6</ele><time>2026-04-01T13:00:50Z</time></trkpt><trkpt lat="45.62045342846925" lon="11.362774811594479"><ele>542.4</ele><time>2026-04-01T13:00:51Z</time></trkpt><trkpt lat="45.62037436439409" lon="11.362871882433947"><ele>541.2</ele><time>2026-04-01T13:00:53Z</time></trkpt><trkpt lat="45.62027901127099" lon="11.36296363251143"><ele>540.0</ele><time>2026-04-01T13:00:55Z</time></trkpt><trkpt lat="45.62019603224997" lon="11.363055422569497"><ele>543.0</ele><time>2026-04-01T13:00:57Z</time></trkpt><trkpt lat="45.62013015765839" lon="11.363123828964284"><ele>546.0</ele><time>2026-04-01T13:00:59Z</time></trkpt><trkpt lat="45.62003541407347" lon="11.363220848362241"><ele>549.0</ele><time>2026-04-01T13:01:01Z</time></trkpt><trkpt lat="45.61994642783508" lon="11.363293792143281"><ele>552.0</ele><time>2026-04-01T13:01:03Z</time></trkpt><trkpt lat="45.619868475228735" lon="11.36334155636705"><ele>555.0</ele><time>2026-04-01T13:01:05Z</time></trkpt><trkpt lat="45.61980233443754" lon="11.363413860937273"><ele>555.0</ele><time>2026-04-01T13:01:07Z</time></trkpt><trkpt lat="45.61970791385286" lon="11.363525694517767"><ele>555.0</ele><time>2026-04-01T13:01:09Z</time></trkpt><trkpt lat="45.61963760016265" lon="11.363580636687347"><ele>555.0</ele><time>2026-04-01T13:01:11Z</time></trkpt><trkpt lat="45.61958157873677" lon="11.363673769131914"><ele>555.0</ele><time>2026-04-01T13:01:13Z</time></trkpt><trkpt lat="45.61950982347107" lon="11.36379062274344"><ele>555.0</ele><time>2026-04-01T13:01:15Z</time></trkpt><trkpt lat="45.61945162032269" lon="11.36391988407694"><ele>551.8</ele><time>2026-04-01T13:01:17Z</time></trkpt><trkpt lat="45.6194021823152" lon="11.364032690871104"><ele>548.6</ele><time>2026-04-01T13:01:19Z</time></trkpt><trkpt lat="45.61934542005932" lon="11.364153688321538"><ele>545.4</ele><time>2026-04-01T13:01:21Z</time></trkpt><trkpt lat="45.61928244671304" lon="11.364320257840681"><ele>542.2</ele><time>2026-04-01T13:01:23Z</time></trkpt><trkpt lat="45.61922135985649" lon="11.364465922959537"><ele>539.0</ele><time>2026-04-01T13:01:25Z</time></trkpt><trkpt lat="45.6191764200643" lon="11.364575406043874"><ele>539.0</ele><time>2026-04-01T13:01:27Z</time></trkpt><trkpt lat="45.619118708712584" lon="11.364680392841601"><ele>539.0</ele><time>2026-04-01T13:01:29Z</time></trkpt><trkpt lat="45.619060000681294" lon="11.364803063610632"><ele>539.0</ele><time>2026-04-01T13:01:31Z</time></trkpt><trkpt lat="45.619019300134134" lon="11.364898090051621"><ele>539.0</ele><time>2026-04-01T13:01:33Z</time></trkpt><trkpt lat="45.618967640678946" lon="11.365050957633606"><ele>539.0</ele><time>2026-04-01T13:01:35Z</time></trkpt><trkpt lat="45.618902458252016" lon="11.365137334634376"><ele>539.8</ele><time>2026-04-01T13:01:37Z</time></trkpt><trkpt lat="45.618847086875405" lon="11.365237261740754"><ele>540.5999999999999</ele><time>2026-04-01T13:01:39Z</time></trkpt><trkpt lat="45.61880082318743" lon="11.365348371120415"><ele>541.4</ele><time>2026-04-01T13:01:41Z</time></trkpt><trkpt lat="45.618739322955875" lon="11.365485658792663"><ele>542.1999999999999</ele><time>2026-04-01T13:01:43Z</time></trkpt><trkpt lat="45.618718899244506" lon="11.365578074270138"><ele>543.0</ele><time>2026-04-01T13:01:46Z</time></trkpt><trkpt lat="45.61872824463962" lon="11.365736418379594"><ele>541.0</ele><time>2026-04-01T13:01:48Z</time></trkpt><trkpt lat="45.618712921550156" lon="11.365852163498491"><ele>539.0</ele><time>2026-04-01T13:01:50Z</time></trkpt><trkpt lat="45.61869447122853" lon="11.365940617452068"><ele>537.0</ele><time>2026-04-01T13:01:54Z</time></trkpt><trkpt lat="45.618762768938964" lon="11.365886893137914"><ele>535.0</ele><time>2026-04-01T13:02:02Z</time></trkpt><trkpt lat="45.618830114348334" lon="11.365740058311275"><ele>533.0</ele><time>2026-04-01T13:02:04Z</time></trkpt><trkpt lat="45.61889779263671" lon="11.365708358166927"><ele>531.0</ele><time>2026-04-01T13:02:06Z</time></trkpt><trkpt lat="45.618969750081106" lon="11.365624000432096"><ele>533.4</ele><time>2026-04-01T13:02:08Z</time></trkpt><trkpt lat="45.619044621690456" lon="11.365495718041851"><ele>535.8</ele><time>2026-04-01T13:02:10Z</time></trkpt><trkpt lat="45.61911377465964" lon="11.365376761882295"><ele>538.1999999999999</ele><time>2026-04-01T13:02:12Z</time></trkpt><trkpt lat="45.619191350016784" lon="11.365282206096577"><ele>540.6</ele><time>2026-04-01T13:02:14Z</time></trkpt><trkpt lat="45.619272150023484" lon="11.365187277936451"><ele>543.0</ele><time>2026-04-01T13:02:16Z</time></trkpt><trkpt lat="45.61932582297256" lon="11.365119666296936"><ele>543.0</ele><time>2026-04-01T13:02:17Z</time></trkpt><trkpt lat="45.61939060243322" lon="11.365076100898309"><ele>543.0</ele><time>2026-04-01T13:02:18Z</time></trkpt><trkpt lat="45.619453576008844" lon="11.365011761791147"><ele>543.0</ele><time>2026-04-01T13:02:19Z</time></trkpt><trkpt lat="45.61952297062096" lon="11.364894820857506"><ele>543.0</ele><time>2026-04-01T13:02:21Z</time></trkpt><trkpt lat="45.61957094416964" lon="11.36481435732391"><ele>543.0</ele><time>2026-04-01T13:02:22Z</time></trkpt><trkpt lat="45.61966264330205" lon="11.36468677692781"><ele>546.8</ele><time>2026-04-01T13:02:24Z</time></trkpt><trkpt lat="45.61972361414519" lon="11.364605025848197"><ele>550.5999999999999</ele><time>2026-04-01T13:02:25Z</time></trkpt><trkpt lat="45.61979651178227" lon="11.364504174449618"><ele>554.4000000000001</ele><time>2026-04-01T13:02:27Z</time></trkpt><trkpt lat="45.61986423532638" lon="11.364412753536858"><ele>558.2</ele><time>2026-04-01T13:02:29Z</time></trkpt><trkpt lat="45.61995972479624" lon="11.364307658357488"><ele>562.0</ele><time>2026-04-01T13:02:31Z</time></trkpt><trkpt lat="45.620009334952464" lon="11.364240594576763"><ele>562.0</ele><time>2026-04-01T13:02:32Z</time></trkpt><trkpt lat="45.62008875481798" lon="11.36415089367366"><ele>562.0</ele><time>2026-04-01T13:02:34Z</time></trkpt><trkpt lat="45.620134644675794" lon="11.364078954989342"><ele>562.0</ele><time>2026-04-01T13:02:35Z</time></trkpt><trkpt lat="45.62018781267698" lon="11.364012426582704"><ele>562.0</ele><time>2026-04-01T13:02:36Z</time></trkpt><trkpt lat="45.620239156945544" lon="11.363936393684195"><ele>562.0</ele><time>2026-04-01T13:02:37Z</time></trkpt><trkpt lat="45.62031663177641" lon="11.363813459970231"><ele>562.0</ele><time>2026-04-01T13:02:39Z</time></trkpt><trkpt lat="45.62036663451197" lon="11.363753519873386"><ele>564.0</ele><time>2026-04-01T13:02:40Z</time></trkpt><trkpt lat="45.62048100876581" lon="11.363702328601862"><ele>566.0</ele><time>2026-04-01T13:02:42Z</time></trkpt><trkpt lat="45.62055050755976" lon="11.363669772111338"><ele>568.0</ele><time>2026-04-01T13:02:43Z</time></trkpt><trkpt lat="45.62061868341269" lon="11.36367599629107"><ele>570.0</ele><time>2026-04-01T13:02:44Z</time></trkpt><trkpt lat="45.620739318563864" lon="11.363633899883116"><ele>572.0</ele><time>2026-04-01T13:02:46Z</time></trkpt><trkpt lat="45.620805946517116" lon="11.363600505595274"><ele>572.0</ele><time>2026-04-01T13:02:47Z</time></trkpt><trkpt lat="45.620936268896315" lon="11.363564309474881"><ele>572.0</ele><time>2026-04-01T13:02:49Z</time></trkpt><trkpt lat="45.62099815032448" lon="11.363512665178668"><ele>572.0</ele><time>2026-04-01T13:02:50Z</time></trkpt><trkpt lat="45.62106053601151" lon="11.363471860895617"><ele>572.0</ele><time>2026-04-01T13:02:51Z</time></trkpt><trkpt lat="45.62112996659045" lon="11.363430745914512"><ele>572.0</ele><time>2026-04-01T13:02:52Z</time></trkpt><trkpt lat="45.62119038186484" lon="11.363400501202808"><ele>572.0</ele><time>2026-04-01T13:02:53Z</time></trkpt><trkpt lat="45.62124291073081" lon="11.363346439313846"><ele>573.0</ele><time>2026-04-01T13:02:54Z</time></trkpt><trkpt lat="45.621318164493154" lon="11.363324633752534"><ele>574.0</ele><time>2026-04-01T13:02:55Z</time></trkpt><trkpt lat="45.62138627156634" lon="11.363298831364567"><ele>575.0</ele><time>2026-04-01T13:02:56Z</time></trkpt><trkpt lat="45.62145425190215" lon="11.363223230349872"><ele>576.0</ele><time>2026-04-01T13:02:57Z</time></trkpt><trkpt lat="45.62151548850173" lon="11.363149190806064"><ele>577.0</ele><time>2026-04-01T13:02:58Z</time></trkpt><trkpt lat="45.621580220997004" lon="11.363086728070252"><ele>578.0</ele><time>2026-04-01T13:02:59Z</time></trkpt><trkpt lat="45.62165322916996" lon="11.36302549966336"><ele>578.0</ele><time>2026-04-01T13:03:00Z</time></trkpt><trkpt lat="45.621740654656946" lon="11.36295825664203"><ele>578.0</ele><time>2026-04-01T13:03:01Z</time></trkpt><trkpt lat="45.62180908730497" lon="11.362913182092623"><ele>578.0</ele><time>2026-04-01T13:03:02Z</time></trkpt><trkpt lat="45.621907356833894" lon="11.3628457468926"><ele>578.0</ele><time>2026-04-01T13:03:03Z</time></trkpt><trkpt lat="45.621963838430446" lon="11.36280562989247"><ele>578.0</ele><time>2026-04-01T13:03:04Z</time></trkpt><trkpt lat="45.62204469983427" lon="11.362742013849413"><ele>578.0</ele><time>2026-04-01T13:03:05Z</time></trkpt><trkpt lat="45.62214143394288" lon="11.362696216397074"><ele>580.0</ele><time>2026-04-01T13:03:06Z</time></trkpt><trkpt lat="45.62222727255603" lon="11.362658299215523"><ele>582.0</ele><time>2026-04-01T13:03:07Z</time></trkpt><trkpt lat="45.62229333503937" lon="11.362616183293456"><ele>584.0</ele><time>2026-04-01T13:03:08Z</time></trkpt><trkpt lat="45.62233247759827" lon="11.36252906634126"><ele>586.0</ele><time>2026-04-01T13:03:09Z</time></trkpt><trkpt lat="45.62239963924118" lon="11.362452621521301"><ele>588.0</ele><time>2026-04-01T13:03:10Z</time></trkpt><trkpt lat="45.62244670081906" lon="11.362342495182249"><ele>590.0</ele><time>2026-04-01T13:03:11Z</time></trkpt><trkpt lat="45.62249078944985" lon="11.36226359619891"><ele>590.6</ele><time>2026-04-01T13:03:12Z</time></trkpt><trkpt lat="45.62258486919972" lon="11.362134759260655"><ele>591.2</ele><time>2026-04-01T13:03:14Z</time></trkpt><trkpt lat="45.62263915449638" lon="11.36208669202446"><ele>591.8</ele><time>2026-04-01T13:03:15Z</time></trkpt><trkpt lat="45.6227582465122" lon="11.362089915190797"><ele>592.4</ele><time>2026-04-01T13:03:17Z</time></trkpt><trkpt lat="45.6228377061599" lon="11.36207869164899"><ele>593.0</ele><time>2026-04-01T13:03:18Z</time></trkpt><trkpt lat="45.62292714702314" lon="11.362108509933652"><ele>594.0</ele><time>2026-04-01T13:03:19Z</time></trkpt><trkpt lat="45.62301268904106" lon="11.362163656138437"><ele>595.0</ele><time>2026-04-01T13:03:20Z</time></trkpt><trkpt lat="45.62309155133568" lon="11.362228330449891"><ele>596.0</ele><time>2026-04-01T13:03:21Z</time></trkpt><trkpt lat="45.62315439542063" lon="11.362276677512742"><ele>597.0</ele><time>2026-04-01T13:03:22Z</time></trkpt><trkpt lat="45.62323121396022" lon="11.362311635545243"><ele>598.0</ele><time>2026-04-01T13:03:24Z</time></trkpt><trkpt lat="45.62332632071482" lon="11.362327474345095"><ele>599.0</ele><time>2026-04-01T13:03:27Z</time></trkpt><trkpt lat="45.62339539672597" lon="11.36228862533187"><ele>599.0</ele><time>2026-04-01T13:03:29Z</time></trkpt><trkpt lat="45.62352494943442" lon="11.362297061264716"><ele>599.0</ele><time>2026-04-01T13:03:31Z</time></trkpt><trkpt lat="45.62359598062381" lon="11.362173173352698"><ele>599.0</ele><time>2026-04-01T13:03:33Z</time></trkpt><trkpt lat="45.62368926138163" lon="11.362307760589392"><ele>599.0</ele><time>2026-04-01T13:03:34Z</time></trkpt><trkpt lat="45.62372621998872" lon="11.36255638516495"><ele>597.8</ele><time>2026-04-01T13:03:35Z</time></trkpt><trkpt lat="45.62383393567375" lon="11.362552035693284"><ele>596.5999999999999</ele><time>2026-04-01T13:03:37Z</time></trkpt><trkpt lat="45.623920043288166" lon="11.362539033125918"><ele>595.4</ele><time>2026-04-01T13:03:39Z</time></trkpt><trkpt lat="45.62402323943025" lon="11.362557479277736"><ele>594.1999999999999</ele><time>2026-04-01T13:03:41Z</time></trkpt><trkpt lat="45.62408916680424" lon="11.36254008285435"><ele>593.0</ele><time>2026-04-01T13:03:44Z</time></trkpt><trkpt lat="45.624103525397786" lon="11.362688745870495"><ele>592.9999999999999</ele><time>2026-04-01T13:03:47Z</time></trkpt><trkpt lat="45.62409940968403" lon="11.362818770975581"><ele>593.0</ele><time>2026-04-01T13:03:49Z</time></trkpt><trkpt lat="45.624100518632" lon="11.362911783732448"><ele>593.0</ele><time>2026-04-01T13:03:51Z</time></trkpt><trkpt lat="45.62409288518219" lon="11.363005180246384"><ele>593.0</ele><time>2026-04-01T13:04:14Z</time></trkpt><trkpt lat="45.62405732380448" lon="11.363085239979043"><ele>593.0</ele><time>2026-04-01T13:04:16Z</time></trkpt><trkpt lat="45.62398727057024" lon="11.363128095064868"><ele>592.9999999999999</ele><time>2026-04-01T13:04:20Z</time></trkpt><trkpt lat="45.6239061323935" lon="11.36309829589579"><ele>593.0</ele><time>2026-04-01T13:04:23Z</time></trkpt><trkpt lat="45.62397658475123" lon="11.36309440228132"><ele>593.0</ele><time>2026-04-01T13:05:31Z</time></trkpt><trkpt lat="45.62407564386735" lon="11.362985158997898"><ele>593.0</ele><time>2026-04-01T13:05:37Z</time></trkpt><trkpt lat="45.62410251504982" lon="11.362887810633236"><ele>593.0</ele><time>2026-04-01T13:05:41Z</time></trkpt><trkpt lat="45.62411217536319" lon="11.362743156281734"><ele>593.0</ele><time>2026-04-01T13:05:43Z</time></trkpt><trkpt lat="45.62409837109396" lon="11.36261440645296"><ele>593.0</ele><time>2026-04-01T13:05:45Z</time></trkpt><trkpt lat="45.62413128613939" lon="11.362526938656028"><ele>593.0</ele><time>2026-04-01T13:05:48Z</time></trkpt><trkpt lat="45.62422425133794" lon="11.3624937845925"><ele>593.0</ele><time>2026-04-01T13:05:50Z</time></trkpt><trkpt lat="45.62429429820398" lon="11.362454280309388"><ele>593.0</ele><time>2026-04-01T13:05:51Z</time></trkpt><trkpt lat="45.62437595711797" lon="11.362414267881448"><ele>593.0</ele><time>2026-04-01T13:05:53Z</time></trkpt><trkpt lat="45.62445458499887" lon="11.362296945807982"><ele>593.0</ele><time>2026-04-01T13:05:55Z</time></trkpt><trkpt lat="45.62450310049447" lon="11.362228189307846"><ele>593.0</ele><time>2026-04-01T13:05:56Z</time></trkpt><trkpt lat="45.624578843673866" lon="11.362140582184475"><ele>592.1666666666666</ele><time>2026-04-01T13:05:58Z</time></trkpt><trkpt lat="45.62463598156696" lon="11.36204937781963"><ele>591.3333333333333</ele><time>2026-04-01T13:06:01Z</time></trkpt><trkpt lat="45.624684600139666" lon="11.361954842168597"><ele>590.5</ele><time>2026-04-01T13:06:04Z</time></trkpt><trkpt lat="45.624729644421684" lon="11.361889255511304"><ele>589.6666666666666</ele><time>2026-04-01T13:06:06Z</time></trkpt><trkpt lat="45.6248332161553" lon="11.361881842109785"><ele>588.8333333333334</ele><time>2026-04-01T13:06:09Z</time></trkpt><trkpt lat="45.624925768154746" lon="11.361809726369"><ele>588.0</ele><time>2026-04-01T13:06:11Z</time></trkpt><trkpt lat="45.62498985848087" lon="11.361732425134235"><ele>588.0</ele><time>2026-04-01T13:06:13Z</time></trkpt><trkpt lat="45.6250325517295" lon="11.36160002058274"><ele>588.0</ele><time>2026-04-01T13:06:16Z</time></trkpt><trkpt lat="45.625041604106585" lon="11.361489070553468"><ele>588.0</ele><time>2026-04-01T13:06:18Z</time></trkpt><trkpt lat="45.62506930546996" lon="11.361403332947848"><ele>588.0</ele><time>2026-04-01T13:06:22Z</time></trkpt><trkpt lat="45.62511847348941" lon="11.361308219390175"><ele>588.0</ele><time>2026-04-01T13:06:25Z</time></trkpt><trkpt lat="45.62516748515729" lon="11.361212521875114"><ele>588.0</ele><time>2026-04-01T13:06:28Z</time></trkpt><trkpt lat="45.62519580754296" lon="11.361121882609615"><ele>588.5</ele><time>2026-04-01T13:06:33Z</time></trkpt><trkpt lat="45.62519799945122" lon="11.361003874511725"><ele>589.0</ele><time>2026-04-01T13:06:40Z</time></trkpt><trkpt lat="45.625203101075094" lon="11.360910952277823"><ele>589.5</ele><time>2026-04-01T13:06:44Z</time></trkpt><trkpt lat="45.62522740228693" lon="11.360775528310072"><ele>590.0</ele><time>2026-04-01T13:06:47Z</time></trkpt><trkpt lat="45.62523866871611" lon="11.360635778350257"><ele>590.5</ele><time>2026-04-01T13:06:50Z</time></trkpt><trkpt lat="45.62523879656328" lon="11.360512201394103"><ele>591.0</ele><time>2026-04-01T13:06:53Z</time></trkpt><trkpt lat="45.62524192806996" lon="11.360399034913902"><ele>591.0</ele><time>2026-04-01T13:06:55Z</time></trkpt><trkpt lat="45.62523565886952" lon="11.360286272894506"><ele>591.0</ele><time>2026-04-01T13:06:57Z</time></trkpt><trkpt lat="45.62524303055111" lon="11.360162260624929"><ele>591.0</ele><time>2026-04-01T13:06:59Z</time></trkpt><trkpt lat="45.62526644451198" lon="11.360075172942661"><ele>591.0</ele><time>2026-04-01T13:07:00Z</time></trkpt><trkpt lat="45.625293976851424" lon="11.359960789566552"><ele>591.0</ele><time>2026-04-01T13:07:02Z</time></trkpt><trkpt lat="45.625352545351845" lon="11.35991476335466"><ele>591.0</ele><time>2026-04-01T13:07:03Z</time></trkpt><trkpt lat="45.62542066910539" lon="11.35985074308418"><ele>589.3333333333334</ele><time>2026-04-01T13:07:04Z</time></trkpt><trkpt lat="45.62547530777611" lon="11.359777485488449"><ele>587.6666666666666</ele><time>2026-04-01T13:07:05Z</time></trkpt><trkpt lat="45.625517482566465" lon="11.359695935212338"><ele>586.0</ele><time>2026-04-01T13:07:06Z</time></trkpt><trkpt lat="45.62560143101815" lon="11.359577296103478"><ele>584.3333333333333</ele><time>2026-04-01T13:07:08Z</time></trkpt><trkpt lat="45.62567510827445" lon="11.359546423193212"><ele>582.6666666666666</ele><time>2026-04-01T13:07:09Z</time></trkpt><trkpt lat="45.62574273140904" lon="11.359513052133279"><ele>581.0</ele><time>2026-04-01T13:07:10Z</time></trkpt><trkpt lat="45.62582739133742" lon="11.359484463322644"><ele>581.0</ele><time>2026-04-01T13:07:12Z</time></trkpt><trkpt lat="45.625901582466355" lon="11.359458295199245"><ele>581.0</ele><time>2026-04-01T13:07:14Z</time></trkpt><trkpt lat="45.62598078423187" lon="11.359409827579055"><ele>581.0</ele><time>2026-04-01T13:07:16Z</time></trkpt><trkpt lat="45.62605299053559" lon="11.35935635278775"><ele>581.0</ele><time>2026-04-01T13:07:18Z</time></trkpt><trkpt lat="45.6261227535733" lon="11.35927882509536"><ele>581.0</ele><time>2026-04-01T13:07:22Z</time></trkpt><trkpt lat="45.62614003865847" lon="11.359162872458445"><ele>581.0</ele><time>2026-04-01T13:07:24Z</time></trkpt><trkpt lat="45.626157437382126" lon="11.3590315400205"><ele>580.8333333333333</ele><time>2026-04-01T13:07:26Z</time></trkpt><trkpt lat="45.62618179832741" lon="11.358896261220618"><ele>580.6666666666666</ele><time>2026-04-01T13:07:28Z</time></trkpt><trkpt lat="45.62620772802688" lon="11.358813268518514"><ele>580.5</ele><time>2026-04-01T13:07:30Z</time></trkpt><trkpt lat="45.62620256760967" lon="11.35870337297316"><ele>580.3333333333334</ele><time>2026-04-01T13:07:34Z</time></trkpt><trkpt lat="45.626259978770975" lon="11.358657952410951"><ele>580.1666666666667</ele><time>2026-04-01T13:07:46Z</time></trkpt><trkpt lat="45.626355210411994" lon="11.358667347062372"><ele>580.0</ele><time>2026-04-01T13:07:48Z</time></trkpt><trkpt lat="45.62647105287295" lon="11.358682217654186"><ele>580.8</ele><time>2026-04-01T13:07:50Z</time></trkpt><trkpt lat="45.62659552021517" lon="11.358684597849498"><ele>581.6</ele><time>2026-04-01T13:07:52Z</time></trkpt><trkpt lat="45.6266975782386" lon="11.358674645319686"><ele>582.4</ele><time>2026-04-01T13:07:54Z</time></trkpt><trkpt lat="45.62674812359512" lon="11.358606553956008"><ele>583.2</ele><time>2026-04-01T13:07:56Z</time></trkpt><trkpt lat="45.62681982249826" lon="11.358476376745859"><ele>584.0</ele><time>2026-04-01T13:07:58Z</time></trkpt><trkpt lat="45.62689566213934" lon="11.358377817960305"><ele>581.3333333333333</ele><time>2026-04-01T13:08:00Z</time></trkpt><trkpt lat="45.62697890368169" lon="11.358304738192638"><ele>578.6666666666666</ele><time>2026-04-01T13:08:02Z</time></trkpt><trkpt lat="45.6270580235226" lon="11.358228991646003"><ele>576.0</ele><time>2026-04-01T13:08:04Z</time></trkpt><trkpt lat="45.627135278856805" lon="11.358168763078432"><ele>573.3333333333334</ele><time>2026-04-01T13:08:06Z</time></trkpt><trkpt lat="45.62719205610288" lon="11.358101131004613"><ele>570.6666666666667</ele><time>2026-04-01T13:08:08Z</time></trkpt><trkpt lat="45.62726571736365" lon="11.358075730947382"><ele>568.0</ele><time>2026-04-01T13:08:10Z</time></trkpt><trkpt lat="45.62738014843685" lon="11.358088444390937"><ele>568.0</ele><time>2026-04-01T13:08:12Z</time></trkpt><trkpt lat="45.62744862817101" lon="11.358058178290303"><ele>568.0</ele><time>2026-04-01T13:08:13Z</time></trkpt><trkpt lat="45.627530227204126" lon="11.358052081620526"><ele>568.0</ele><time>2026-04-01T13:08:15Z</time></trkpt><trkpt lat="45.62759760058148" lon="11.35803667124923"><ele>568.0</ele><time>2026-04-01T13:08:17Z</time></trkpt><trkpt lat="45.62767911605938" lon="11.357961246198817"><ele>568.0</ele><time>2026-04-01T13:08:21Z</time></trkpt><trkpt lat="45.6277511030926" lon="11.357900859227593"><ele>568.0</ele><time>2026-04-01T13:08:23Z</time></trkpt><trkpt lat="45.62783298306982" lon="11.35784988370041"><ele>570.8333333333334</ele><time>2026-04-01T13:08:25Z</time></trkpt><trkpt lat="45.62792866424532" lon="11.357791776452977"><ele>573.6666666666667</ele><time>2026-04-01T13:08:27Z</time></trkpt><trkpt lat="45.62800108030412" lon="11.35777995165639"><ele>576.5</ele><time>2026-04-01T13:08:28Z</time></trkpt><trkpt lat="45.628074553411516" lon="11.357783355032188"><ele>579.3333333333334</ele><time>2026-04-01T13:08:29Z</time></trkpt><trkpt lat="45.62816710382656" lon="11.357795921476448"><ele>582.1666666666666</ele><time>2026-04-01T13:08:30Z</time></trkpt><trkpt lat="45.62826300567083" lon="11.357821443643111"><ele>585.0</ele><time>2026-04-01T13:08:31Z</time></trkpt><trkpt lat="45.628355091540314" lon="11.357834859945553"><ele>585.0</ele><time>2026-04-01T13:08:32Z</time></trkpt><trkpt lat="45.62842822697024" lon="11.35782027591023"><ele>585.0</ele><time>2026-04-01T13:08:33Z</time></trkpt><trkpt lat="45.62850944041915" lon="11.357801371120534"><ele>585.0</ele><time>2026-04-01T13:08:34Z</time></trkpt><trkpt lat="45.62861837019956" lon="11.357773136479203"><ele>585.0</ele><time>2026-04-01T13:08:35Z</time></trkpt><trkpt lat="45.62873812804567" lon="11.357740180532772"><ele>585.0</ele><time>2026-04-01T13:08:36Z</time></trkpt><trkpt lat="45.62880758944999" lon="11.357740482641864"><ele>584.8333333333334</ele><time>2026-04-01T13:08:37Z</time></trkpt><trkpt lat="45.62890093121516" lon="11.357730465944632"><ele>584.6666666666666</ele><time>2026-04-01T13:08:38Z</time></trkpt><trkpt lat="45.62900096851848" lon="11.357727520932459"><ele>584.5</ele><time>2026-04-01T13:08:39Z</time></trkpt><trkpt lat="45.629083621073974" lon="11.357723383828892"><ele>584.3333333333333</ele><time>2026-04-01T13:08:40Z</time></trkpt><trkpt lat="45.629174922101804" lon="11.357725386292138"><ele>584.1666666666666</ele><time>2026-04-01T13:08:41Z</time></trkpt><trkpt lat="45.62924896165377" lon="11.357749317509992"><ele>584.0</ele><time>2026-04-01T13:08:42Z</time></trkpt><trkpt lat="45.629317266159475" lon="11.357759637285838"><ele>584.0</ele><time>2026-04-01T13:08:43Z</time></trkpt><trkpt lat="45.62938888833435" lon="11.357749866889652"><ele>584.0</ele><time>2026-04-01T13:08:44Z</time></trkpt><trkpt lat="45.62952693639757" lon="11.357712755952116"><ele>584.0</ele><time>2026-04-01T13:08:46Z</time></trkpt><trkpt lat="45.62961968890355" lon="11.357668547908581"><ele>584.0</ele><time>2026-04-01T13:08:47Z</time></trkpt><trkpt lat="45.62969745181264" lon="11.357654953125882"><ele>584.0</ele><time>2026-04-01T13:08:48Z</time></trkpt><trkpt lat="45.62975518108555" lon="11.357572552781424"><ele>582.8</ele><time>2026-04-01T13:08:50Z</time></trkpt><trkpt lat="45.62980737410394" lon="11.35743213364459"><ele>581.5999999999999</ele><time>2026-04-01T13:08:52Z</time></trkpt><trkpt lat="45.62984486192604" lon="11.357235637277785"><ele>580.4</ele><time>2026-04-01T13:08:54Z</time></trkpt><trkpt lat="45.629890838497474" lon="11.357135023495264"><ele>579.1999999999999</ele><time>2026-04-01T13:08:55Z</time></trkpt><trkpt lat="45.62997123755557" lon="11.357037559344167"><ele>578.0</ele><time>2026-04-01T13:08:57Z</time></trkpt><trkpt lat="45.630046085928505" lon="11.356902593858532"><ele>578.0</ele><time>2026-04-01T13:08:59Z</time></trkpt><trkpt lat="45.63008227972652" lon="11.356794368904561"><ele>578.0</ele><time>2026-04-01T13:09:00Z</time></trkpt><trkpt lat="45.630112927156325" lon="11.3566953104333"><ele>578.0</ele><time>2026-04-01T13:09:01Z</time></trkpt><trkpt lat="45.63014163665627" lon="11.356592514930128"><ele>578.0</ele><time>2026-04-01T13:09:02Z</time></trkpt><trkpt lat="45.630234170155894" lon="11.356467145507954"><ele>578.0</ele><time>2026-04-01T13:09:04Z</time></trkpt><trkpt lat="45.63030681800471" lon="11.35640986929184"><ele>578.0</ele><time>2026-04-01T13:09:05Z</time></trkpt><trkpt lat="45.63037942157732" lon="11.356340949682547"><ele>577.8333333333333</ele><time>2026-04-01T13:09:07Z</time></trkpt><trkpt lat="45.63039173701711" lon="11.35623853285275"><ele>577.6666666666666</ele><time>2026-04-01T13:09:09Z</time></trkpt><trkpt lat="45.63044983455631" lon="11.356122324740245"><ele>577.5</ele><time>2026-04-01T13:09:11Z</time></trkpt><trkpt lat="45.6305057321779" lon="11.356076417661544"><ele>577.3333333333334</ele><time>2026-04-01T13:09:12Z</time></trkpt><trkpt lat="45.630613696987794" lon="11.35602884265656"><ele>577.1666666666667</ele><time>2026-04-01T13:09:14Z</time></trkpt><trkpt lat="45.63071014006741" lon="11.355999502451505"><ele>577.0</ele><time>2026-04-01T13:09:16Z</time></trkpt><trkpt lat="45.63083808089287" lon="11.35598455053007"><ele>577.0</ele><time>2026-04-01T13:09:18Z</time></trkpt><trkpt lat="45.630973083062145" lon="11.355980952141593"><ele>577.0</ele><time>2026-04-01T13:09:20Z</time></trkpt><trkpt lat="45.63103514500898" lon="11.356004698403524"><ele>577.0</ele><time>2026-04-01T13:09:21Z</time></trkpt><trkpt lat="45.631118360127395" lon="11.356059782325277"><ele>577.0</ele><time>2026-04-01T13:09:22Z</time></trkpt><trkpt lat="45.631188604323754" lon="11.356098111037955"><ele>577.0</ele><time>2026-04-01T13:09:23Z</time></trkpt><trkpt lat="45.631282343221535" lon="11.356080599899828"><ele>576.1428571428571</ele><time>2026-04-01T13:09:25Z</time></trkpt><trkpt lat="45.63134960654257" lon="11.356053563847215"><ele>575.2857142857143</ele><time>2026-04-01T13:09:26Z</time></trkpt><trkpt lat="45.63141442376075" lon="11.356026163122104"><ele>574.4285714285714</ele><time>2026-04-01T13:09:27Z</time></trkpt><trkpt lat="45.63150456756228" lon="11.35598427855979"><ele>573.5714285714286</ele><time>2026-04-01T13:09:28Z</time></trkpt><trkpt lat="45.631564277362465" lon="11.355953898985696"><ele>572.7142857142857</ele><time>2026-04-01T13:09:29Z</time></trkpt><trkpt lat="45.631624120399636" lon="11.355916315647047"><ele>571.8571428571429</ele><time>2026-04-01T13:09:30Z</time></trkpt><trkpt lat="45.63168610076914" lon="11.355894139747337"><ele>571.0</ele><time>2026-04-01T13:09:31Z</time></trkpt><trkpt lat="45.63184061827418" lon="11.35586060690734"><ele>571.0</ele><time>2026-04-01T13:09:33Z</time></trkpt><trkpt lat="45.631922886101364" lon="11.355867059537404"><ele>571.0</ele><time>2026-04-01T13:09:34Z</time></trkpt><trkpt lat="45.63202265171306" lon="11.355874781614549"><ele>571.0</ele><time>2026-04-01T13:09:36Z</time></trkpt><trkpt lat="45.6320895054915" lon="11.355814856713605"><ele>571.0</ele><time>2026-04-01T13:09:37Z</time></trkpt><trkpt lat="45.63219726947863" lon="11.355857903539931"><ele>571.0</ele><time>2026-04-01T13:09:39Z</time></trkpt><trkpt lat="45.632261767752276" lon="11.355846504594808"><ele>571.0</ele><time>2026-04-01T13:09:40Z</time></trkpt><trkpt lat="45.63232968299119" lon="11.355820039404076"><ele>570.8</ele><time>2026-04-01T13:09:42Z</time></trkpt><trkpt lat="45.632386695848496" lon="11.355779002730019"><ele>570.6</ele><time>2026-04-01T13:09:46Z</time></trkpt><trkpt lat="45.63250057941269" lon="11.355800946267339"><ele>570.4</ele><time>2026-04-01T13:09:48Z</time></trkpt><trkpt lat="45.632598025459146" lon="11.35582887605065"><ele>570.2</ele><time>2026-04-01T13:09:50Z</time></trkpt><trkpt lat="45.63268996640972" lon="11.355876748391681"><ele>570.0</ele><time>2026-04-01T13:09:52Z</time></trkpt><trkpt lat="45.632801364163385" lon="11.355918841600946"><ele>570.0</ele><time>2026-04-01T13:09:54Z</time></trkpt><trkpt lat="45.63286195637019" lon="11.35594891855328"><ele>570.0</ele><time>2026-04-01T13:09:55Z</time></trkpt><trkpt lat="45.63279403020199" lon="11.355768323803858"><ele>570.0</ele><time>2026-04-01T13:10:01Z</time></trkpt><trkpt lat="45.63268380782766" lon="11.355697065498282"><ele>570.0</ele><time>2026-04-01T13:10:03Z</time></trkpt><trkpt lat="45.63262272003137" lon="11.35566183994261"><ele>570.0</ele><time>2026-04-01T13:10:04Z</time></trkpt><trkpt lat="45.63256100679499" lon="11.35563664143319"><ele>570.0</ele><time>2026-04-01T13:10:05Z</time></trkpt><trkpt lat="45.63248590906474" lon="11.355615593459845"><ele>570.0</ele><time>2026-04-01T13:10:06Z</time></trkpt><trkpt lat="45.6324083726642" lon="11.35560245476903"><ele>570.0</ele><time>2026-04-01T13:10:07Z</time></trkpt><trkpt lat="45.63234252690175" lon="11.35559011558816"><ele>570.0</ele><time>2026-04-01T13:10:08Z</time></trkpt><trkpt lat="45.63218870290892" lon="11.355571077054393"><ele>570.0</ele><time>2026-04-01T13:10:10Z</time></trkpt><trkpt lat="45.632092702445284" lon="11.355569341059276"><ele>570.2</ele><time>2026-04-01T13:10:12Z</time></trkpt><trkpt lat="45.63197001012004" lon="11.355566143736729"><ele>570.4</ele><time>2026-04-01T13:10:14Z</time></trkpt><trkpt lat="45.63189536972443" lon="11.35554551731837"><ele>570.6</ele><time>2026-04-01T13:10:15Z</time></trkpt><trkpt lat="45.631797122735996" lon="11.35548217549684"><ele>570.8</ele><time>2026-04-01T13:10:17Z</time></trkpt><trkpt lat="45.6316993383824" lon="11.355397674814652"><ele>571.0</ele><time>2026-04-01T13:10:19Z</time></trkpt><trkpt lat="45.631591186239646" lon="11.355383065345174"><ele>575.8</ele><time>2026-04-01T13:10:21Z</time></trkpt><trkpt lat="45.63146846474942" lon="11.35537984813366"><ele>580.6</ele><time>2026-04-01T13:10:23Z</time></trkpt><trkpt lat="45.63139700070488" lon="11.355400689785137"><ele>585.4</ele><time>2026-04-01T13:10:24Z</time></trkpt><trkpt lat="45.63127343930179" lon="11.355402207975239"><ele>590.2</ele><time>2026-04-01T13:10:26Z</time></trkpt><trkpt lat="45.63121068133052" lon="11.355388971281357"><ele>595.0</ele><time>2026-04-01T13:10:27Z</time></trkpt><trkpt lat="45.63106647071964" lon="11.355373582271968"><ele>595.0</ele><time>2026-04-01T13:10:29Z</time></trkpt><trkpt lat="45.63097743194146" lon="11.355358381509417"><ele>595.0</ele><time>2026-04-01T13:10:30Z</time></trkpt><trkpt lat="45.63091471615048" lon="11.355344623038349"><ele>595.0</ele><time>2026-04-01T13:10:31Z</time></trkpt><trkpt lat="45.63082031298681" lon="11.355290266062582"><ele>595.0</ele><time>2026-04-01T13:10:33Z</time></trkpt><trkpt lat="45.63074808982504" lon="11.355265929742394"><ele>595.0</ele><time>2026-04-01T13:10:34Z</time></trkpt><trkpt lat="45.63067718684969" lon="11.355260875484545"><ele>595.0</ele><time>2026-04-01T13:10:35Z</time></trkpt><trkpt lat="45.63059449980412" lon="11.355219406385695"><ele>595.0</ele><time>2026-04-01T13:10:36Z</time></trkpt><trkpt lat="45.63050172138664" lon="11.355137788385488"><ele>595.0</ele><time>2026-04-01T13:10:38Z</time></trkpt><trkpt lat="45.63044945235101" lon="11.355072088941219"><ele>595.0</ele><time>2026-04-01T13:10:39Z</time></trkpt><trkpt lat="45.630395897036365" lon="11.355000788869274"><ele>595.0</ele><time>2026-04-01T13:10:40Z</time></trkpt><trkpt lat="45.63033478417559" lon="11.354947678844308"><ele>595.0</ele><time>2026-04-01T13:10:41Z</time></trkpt><trkpt lat="45.630230499387444" lon="11.354908066815725"><ele>595.0</ele><time>2026-04-01T13:10:43Z</time></trkpt><trkpt lat="45.6301637963313" lon="11.354904199543434"><ele>594.5</ele><time>2026-04-01T13:10:44Z</time></trkpt><trkpt lat="45.630097050851596" lon="11.35490938972811"><ele>594.0</ele><time>2026-04-01T13:10:45Z</time></trkpt><trkpt lat="45.6300196177326" lon="11.354913311146165"><ele>593.5</ele><time>2026-04-01T13:10:46Z</time></trkpt><trkpt lat="45.62994959983782" lon="11.354897435864546"><ele>593.0</ele><time>2026-04-01T13:10:47Z</time></trkpt><trkpt lat="45.629877123809756" lon="11.354806497883656"><ele>592.5</ele><time>2026-04-01T13:10:49Z</time></trkpt><trkpt lat="45.62981345036106" lon="11.354760782064776"><ele>592.0</ele><time>2026-04-01T13:10:50Z</time></trkpt><trkpt lat="45.62974788428645" lon="11.354713707377769"><ele>594.6</ele><time>2026-04-01T13:10:51Z</time></trkpt><trkpt lat="45.62965827578693" lon="11.354647042104393"><ele>597.2</ele><time>2026-04-01T13:10:52Z</time></trkpt><trkpt lat="45.629583690518395" lon="11.354588755390472"><ele>599.8</ele><time>2026-04-01T13:10:53Z</time></trkpt><trkpt lat="45.62951364887839" lon="11.354534019408634"><ele>602.4</ele><time>2026-04-01T13:10:54Z</time></trkpt><trkpt lat="45.62942936122637" lon="11.354494844913075"><ele>605.0</ele><time>2026-04-01T13:10:55Z</time></trkpt><trkpt lat="45.629347722954314" lon="11.354424338951207"><ele>605.0</ele><time>2026-04-01T13:10:56Z</time></trkpt><trkpt lat="45.629272473151815" lon="11.354414574426146"><ele>605.0</ele><time>2026-04-01T13:10:57Z</time></trkpt><trkpt lat="45.62918351035704" lon="11.35440443799945"><ele>605.0</ele><time>2026-04-01T13:10:58Z</time></trkpt><trkpt lat="45.62908716762568" lon="11.354428319884487"><ele>605.0</ele><time>2026-04-01T13:10:59Z</time></trkpt><trkpt lat="45.62899364108309" lon="11.354459923449502"><ele>605.0</ele><time>2026-04-01T13:11:00Z</time></trkpt><trkpt lat="45.62891795271561" lon="11.354489987761148"><ele>605.0</ele><time>2026-04-01T13:11:01Z</time></trkpt><trkpt lat="45.62883426613489" lon="11.354534460256032"><ele>605.0</ele><time>2026-04-01T13:11:02Z</time></trkpt><trkpt lat="45.62872847521088" lon="11.354606119208997"><ele>605.0</ele><time>2026-04-01T13:11:04Z</time></trkpt><trkpt lat="45.62865822242937" lon="11.354513575804278"><ele>605.0</ele><time>2026-04-01T13:11:07Z</time></trkpt><trkpt lat="45.6286623711954" lon="11.354412844386506"><ele>605.0</ele><time>2026-04-01T13:11:08Z</time></trkpt><trkpt lat="45.628677728568974" lon="11.354319575830726"><ele>605.0</ele><time>2026-04-01T13:11:09Z</time></trkpt><trkpt lat="45.62869707316317" lon="11.354205169197959"><ele>605.0</ele><time>2026-04-01T13:11:11Z</time></trkpt><trkpt lat="45.6287050094412" lon="11.354054149685828"><ele>605.0</ele><time>2026-04-01T13:11:13Z</time></trkpt><trkpt lat="45.628763620320626" lon="11.35399236079321"><ele>605.0</ele><time>2026-04-01T13:11:14Z</time></trkpt><trkpt lat="45.628811251022384" lon="11.353930207333484"><ele>605.0</ele><time>2026-04-01T13:11:15Z</time></trkpt><trkpt lat="45.62888117176534" lon="11.353852471857595"><ele>605.0</ele><time>2026-04-01T13:11:16Z</time></trkpt><trkpt lat="45.628956945409065" lon="11.35376297414767"><ele>605.0</ele><time>2026-04-01T13:11:17Z</time></trkpt><trkpt lat="45.62901671666951" lon="11.353680101441556"><ele>605.0</ele><time>2026-04-01T13:11:18Z</time></trkpt><trkpt lat="45.6290919927055" lon="11.35357686728659"><ele>606.0</ele><time>2026-04-01T13:11:20Z</time></trkpt><trkpt lat="45.629191117412695" lon="11.353495098241435"><ele>607.0</ele><time>2026-04-01T13:11:22Z</time></trkpt><trkpt lat="45.629301210846634" lon="11.353483078426008"><ele>608.0</ele><time>2026-04-01T13:11:24Z</time></trkpt><trkpt lat="45.6293959410874" lon="11.353555133951627"><ele>609.0</ele><time>2026-04-01T13:11:26Z</time></trkpt><trkpt lat="45.62944938525298" lon="11.353608375782574"><ele>610.0</ele><time>2026-04-01T13:11:40Z</time></trkpt><trkpt lat="45.62939054469208" lon="11.353569007647117"><ele>610.0</ele><time>2026-04-01T13:11:45Z</time></trkpt><trkpt lat="45.62945026722173" lon="11.353254922094381"><ele>610.0</ele><time>2026-04-01T13:11:47Z</time></trkpt><trkpt lat="45.62954016714082" lon="11.35313707754726"><ele>610.0</ele><time>2026-04-01T13:11:49Z</time></trkpt><trkpt lat="45.62963844869013" lon="11.353050317591762"><ele>613.8333333333334</ele><time>2026-04-01T13:11:51Z</time></trkpt><trkpt lat="45.629714023463485" lon="11.353016046792558"><ele>617.6666666666667</ele><time>2026-04-01T13:11:53Z</time></trkpt><trkpt lat="45.6297656359662" lon="11.352897147792813"><ele>621.5</ele><time>2026-04-01T13:11:55Z</time></trkpt><trkpt lat="45.629834151931256" lon="11.352850020642398"><ele>625.3333333333334</ele><time>2026-04-01T13:11:57Z</time></trkpt><trkpt lat="45.62987399503204" lon="11.352767993462876"><ele>629.1666666666666</ele><time>2026-04-01T13:12:00Z</time></trkpt><trkpt lat="45.62996372095572" lon="11.352681947698484"><ele>633.0</ele><time>2026-04-01T13:12:03Z</time></trkpt><trkpt lat="45.63005465485851" lon="11.35262304170149"><ele>633.0</ele><time>2026-04-01T13:12:05Z</time></trkpt><trkpt lat="45.63013253650403" lon="11.352569373443142"><ele>633.0</ele><time>2026-04-01T13:12:07Z</time></trkpt><trkpt lat="45.63016478908944" lon="11.352451467717316"><ele>633.0</ele><time>2026-04-01T13:12:15Z</time></trkpt><trkpt lat="45.63023135336617" lon="11.352433845954"><ele>633.0</ele><time>2026-04-01T13:12:18Z</time></trkpt><trkpt lat="45.630267842473785" lon="11.352521435067931"><ele>633.0</ele><time>2026-04-01T13:12:20Z</time></trkpt><trkpt lat="45.630330983001045" lon="11.352468047306848"><ele>633.0</ele><time>2026-04-01T13:12:29Z</time></trkpt><trkpt lat="45.630368530079686" lon="11.352332352212445"><ele>636.4</ele><time>2026-04-01T13:12:31Z</time></trkpt><trkpt lat="45.63038588847509" lon="11.352226953003774"><ele>639.8</ele><time>2026-04-01T13:17:31Z</time></trkpt><trkpt lat="45.630447999597585" lon="11.35214026893448"><ele>643.2</ele><time>2026-04-01T13:17:33Z</time></trkpt><trkpt lat="45.63050791169578" lon="11.352032917774237"><ele>646.6</ele><time>2026-04-01T13:17:35Z</time></trkpt><trkpt lat="45.63057277200243" lon="11.35190565115156"><ele>650.0</ele><time>2026-04-01T13:17:37Z</time></trkpt><trkpt lat="45.630623426835186" lon="11.351810685274161"><ele>651.0</ele><time>2026-04-01T13:17:39Z</time></trkpt><trkpt lat="45.630684420929946" lon="11.351678902133585"><ele>652.0</ele><time>2026-04-01T13:17:41Z</time></trkpt><trkpt lat="45.630738028222666" lon="11.351593053312039"><ele>653.0</ele><time>2026-04-01T13:17:42Z</time></trkpt><trkpt lat="45.630789960887135" lon="11.351539067237852"><ele>654.0</ele><time>2026-04-01T13:17:43Z</time></trkpt><trkpt lat="45.63084982521485" lon="11.351455142745271"><ele>655.0</ele><time>2026-04-01T13:17:45Z</time></trkpt><trkpt lat="45.63092197007598" lon="11.351414763504344"><ele>656.0</ele><time>2026-04-01T13:17:48Z</time></trkpt><trkpt lat="45.63098690480794" lon="11.35135648892454"><ele>656.0</ele><time>2026-04-01T13:17:50Z</time></trkpt><trkpt lat="45.63101123591652" lon="11.351197838163566"><ele>656.0</ele><time>2026-04-01T13:17:52Z</time></trkpt><trkpt lat="45.6310615042594" lon="11.351084821617228"><ele>656.0</ele><time>2026-04-01T13:17:54Z</time></trkpt><trkpt lat="45.63113415613332" lon="11.351022906230162"><ele>656.0</ele><time>2026-04-01T13:17:56Z</time></trkpt><trkpt lat="45.63119909281734" lon="11.351000307357397"><ele>656.0</ele><time>2026-04-01T13:17:58Z</time></trkpt><trkpt lat="45.63127604082571" lon="11.350961406638488"><ele>656.0</ele><time>2026-04-01T13:18:02Z</time></trkpt><trkpt lat="45.631310693788436" lon="11.350797271852624"><ele>662.4</ele><time>2026-04-01T13:18:04Z</time></trkpt><trkpt lat="45.63135941348451" lon="11.350700819262924"><ele>668.8</ele><time>2026-04-01T13:18:06Z</time></trkpt><trkpt lat="45.63144441536639" lon="11.350590842808273"><ele>675.1999999999999</ele><time>2026-04-01T13:18:08Z</time></trkpt><trkpt lat="45.63151805586903" lon="11.350496454665906"><ele>681.5999999999999</ele><time>2026-04-01T13:18:10Z</time></trkpt><trkpt lat="45.63160911008611" lon="11.350419096053539"><ele>688.0</ele><time>2026-04-01T13:18:12Z</time></trkpt><trkpt lat="45.631666613693056" lon="11.350364598972986"><ele>688.3333333333334</ele><time>2026-04-01T13:18:14Z</time></trkpt><trkpt lat="45.631739298802636" lon="11.350294033241795"><ele>688.6666666666667</ele><time>2026-04-01T13:18:16Z</time></trkpt><trkpt lat="45.63181364048808" lon="11.350229127661029"><ele>689.0</ele><time>2026-04-01T13:18:18Z</time></trkpt><trkpt lat="45.631880130948794" lon="11.35015965192122"><ele>689.3333333333334</ele><time>2026-04-01T13:18:20Z</time></trkpt><trkpt lat="45.631917651689875" lon="11.350086115012118"><ele>689.6666666666666</ele><time>2026-04-01T13:18:21Z</time></trkpt><trkpt lat="45.631969970074756" lon="11.349966623041835"><ele>690.0</ele><time>2026-04-01T13:18:23Z</time></trkpt><trkpt lat="45.632011403743384" lon="11.349879936204768"><ele>694.6666666666666</ele><time>2026-04-01T13:18:25Z</time></trkpt><trkpt lat="45.63203137963099" lon="11.349775388364973"><ele>699.3333333333334</ele><time>2026-04-01T13:18:29Z</time></trkpt><trkpt lat="45.63206119316731" lon="11.349660560838092"><ele>704.0</ele><time>2026-04-01T13:18:31Z</time></trkpt><trkpt lat="45.632066795917304" lon="11.349540318600614"><ele>708.6666666666667</ele><time>2026-04-01T13:18:33Z</time></trkpt><trkpt lat="45.63207233575609" lon="11.349448839001214"><ele>713.3333333333334</ele><time>2026-04-01T13:18:35Z</time></trkpt><trkpt lat="45.632107777843785" lon="11.349305760525844"><ele>718.0</ele><time>2026-04-01T13:18:37Z</time></trkpt><trkpt lat="45.632171826948586" lon="11.349185735797226"><ele>718.3333333333334</ele><time>2026-04-01T13:18:39Z</time></trkpt><trkpt lat="45.63221769549154" lon="11.349091003635426"><ele>718.6666666666667</ele><time>2026-04-01T13:18:40Z</time></trkpt><trkpt lat="45.63229118791124" lon="11.349015494991844"><ele>719.0</ele><time>2026-04-01T13:18:42Z</time></trkpt><trkpt lat="45.632367858719455" lon="11.348927089066658"><ele>719.3333333333334</ele><time>2026-04-01T13:18:44Z</time></trkpt><trkpt lat="45.63242375761009" lon="11.348862842683335"><ele>719.6666666666666</ele><time>2026-04-01T13:18:45Z</time></trkpt><trkpt lat="45.63246535385004" lon="11.348723177697995"><ele>720.0</ele><time>2026-04-01T13:18:47Z</time></trkpt><trkpt lat="45.6324802739483" lon="11.348580173485967"><ele>720.2</ele><time>2026-04-01T13:18:49Z</time></trkpt><trkpt lat="45.63248895230931" lon="11.3484604050426"><ele>720.4</ele><time>2026-04-01T13:18:51Z</time></trkpt><trkpt lat="45.63251883259666" lon="11.348326302033676"><ele>720.5999999999999</ele><time>2026-04-01T13:18:53Z</time></trkpt><trkpt lat="45.63259430577928" lon="11.348240795888861"><ele>720.8</ele><time>2026-04-01T13:18:55Z</time></trkpt><trkpt lat="45.632647575060155" lon="11.348092897977354"><ele>721.0</ele><time>2026-04-01T13:18:57Z</time></trkpt><trkpt lat="45.6326897913627" lon="11.347984139070906"><ele>722.4</ele><time>2026-04-01T13:18:59Z</time></trkpt><trkpt lat="45.63270921246639" lon="11.347896718913798"><ele>723.8</ele><time>2026-04-01T13:19:20Z</time></trkpt><trkpt lat="45.63279885890513" lon="11.347863720118626"><ele>725.1999999999999</ele><time>2026-04-01T13:19:22Z</time></trkpt><trkpt lat="45.63288274219528" lon="11.347817387851668"><ele>726.5999999999999</ele><time>2026-04-01T13:19:24Z</time></trkpt><trkpt lat="45.63298199184132" lon="11.347697887460862"><ele>728.0</ele><time>2026-04-01T13:19:26Z</time></trkpt><trkpt lat="45.63304600994611" lon="11.347624067067883"><ele>728.0</ele><time>2026-04-01T13:19:27Z</time></trkpt><trkpt lat="45.63310840139155" lon="11.347552723768448"><ele>728.0</ele><time>2026-04-01T13:19:28Z</time></trkpt><trkpt lat="45.63317209222997" lon="11.347516673337367"><ele>728.0</ele><time>2026-04-01T13:19:29Z</time></trkpt><trkpt lat="45.63327344572183" lon="11.347490397971953"><ele>728.0</ele><time>2026-04-01T13:19:31Z</time></trkpt><trkpt lat="45.63333764429477" lon="11.347507443490748"><ele>728.0</ele><time>2026-04-01T13:19:32Z</time></trkpt><trkpt lat="45.63345083248033" lon="11.347509602289604"><ele>728.0</ele><time>2026-04-01T13:19:34Z</time></trkpt><trkpt lat="45.63352760328521" lon="11.3474609835691"><ele>728.0</ele><time>2026-04-01T13:19:36Z</time></trkpt><trkpt lat="45.63358691417163" lon="11.347394629559648"><ele>728.0</ele><time>2026-04-01T13:19:37Z</time></trkpt><trkpt lat="45.63364191959807" lon="11.347334849557807"><ele>728.0</ele><time>2026-04-01T13:19:38Z</time></trkpt><trkpt lat="45.633734315549965" lon="11.347232470454859"><ele>728.0</ele><time>2026-04-01T13:19:40Z</time></trkpt><trkpt lat="45.63379762284647" lon="11.347166988854397"><ele>728.0</ele><time>2026-04-01T13:19:41Z</time></trkpt><trkpt lat="45.633887045237714" lon="11.347058236333606"><ele>727.4</ele><time>2026-04-01T13:19:43Z</time></trkpt><trkpt lat="45.633997655779886" lon="11.34695413447686"><ele>726.8</ele><time>2026-04-01T13:19:45Z</time></trkpt><trkpt lat="45.63405808306415" lon="11.34687869077113"><ele>726.2</ele><time>2026-04-01T13:19:46Z</time></trkpt><trkpt lat="45.634125475320204" lon="11.346769841554105"><ele>725.6</ele><time>2026-04-01T13:19:48Z</time></trkpt><trkpt lat="45.63418763816871" lon="11.34666863886332"><ele>725.0</ele><time>2026-04-01T13:19:50Z</time></trkpt><trkpt lat="45.63424519889067" lon="11.346604344311272"><ele>725.0</ele><time>2026-04-01T13:19:51Z</time></trkpt><trkpt lat="45.634330010506574" lon="11.346502900176686"><ele>725.0</ele><time>2026-04-01T13:19:53Z</time></trkpt><trkpt lat="45.63442360793778" lon="11.3464301305171"><ele>725.0</ele><time>2026-04-01T13:19:55Z</time></trkpt><trkpt lat="45.634509430771104" lon="11.346295349239591"><ele>725.0</ele><time>2026-04-01T13:19:57Z</time></trkpt><trkpt lat="45.63459101450989" lon="11.346217539715347"><ele>725.0</ele><time>2026-04-01T13:19:59Z</time></trkpt><trkpt lat="45.6346346374309" lon="11.346151076658513"><ele>724.6666666666666</ele><time>2026-04-01T13:20:00Z</time></trkpt><trkpt lat="45.63468900900819" lon="11.346042485990305"><ele>724.3333333333333</ele><time>2026-04-01T13:20:02Z</time></trkpt><trkpt lat="45.634759626624096" lon="11.345979014170492"><ele>724.0</ele><time>2026-04-01T13:20:04Z</time></trkpt><trkpt lat="45.634830073812545" lon="11.345941037349471"><ele>723.6666666666666</ele><time>2026-04-01T13:20:06Z</time></trkpt><trkpt lat="45.63489979615279" lon="11.34598267583953"><ele>723.3333333333334</ele><time>2026-04-01T13:20:10Z</time></trkpt><trkpt lat="45.63495264956607" lon="11.346042962276641"><ele>723.0</ele><time>2026-04-01T13:20:13Z</time></trkpt><trkpt lat="45.635006094890066" lon="11.346101600590144"><ele>723.0</ele><time>2026-04-01T13:20:15Z</time></trkpt><trkpt lat="45.63505343238711" lon="11.346187850011761"><ele>723.0</ele><time>2026-04-01T13:20:17Z</time></trkpt><trkpt lat="45.63509227037945" lon="11.346289291130223"><ele>723.0</ele><time>2026-04-01T13:20:19Z</time></trkpt><trkpt lat="45.63514733238632" lon="11.346382321337236"><ele>723.0</ele><time>2026-04-01T13:20:22Z</time></trkpt><trkpt lat="45.6352176352341" lon="11.34647089778653"><ele>723.0</ele><time>2026-04-01T13:20:25Z</time></trkpt><trkpt lat="45.63527539420033" lon="11.346595770884397"><ele>723.0</ele><time>2026-04-01T13:20:27Z</time></trkpt><trkpt lat="45.63530506996185" lon="11.346689687644448"><ele>720.6666666666666</ele><time>2026-04-01T13:20:29Z</time></trkpt><trkpt lat="45.635352173887725" lon="11.346787536040036"><ele>718.3333333333334</ele><time>2026-04-01T13:20:32Z</time></trkpt><trkpt lat="45.63542016132834" lon="11.346819869178884"><ele>716.0</ele><time>2026-04-01T13:20:34Z</time></trkpt><trkpt lat="45.63549212694976" lon="11.34683283113571"><ele>713.6666666666667</ele><time>2026-04-01T13:20:36Z</time></trkpt><trkpt lat="45.63555827551633" lon="11.346783656485355"><ele>711.3333333333334</ele><time>2026-04-01T13:20:38Z</time></trkpt><trkpt lat="45.63558037689487" lon="11.346650293802393"><ele>709.0</ele><time>2026-04-01T13:20:40Z</time></trkpt><trkpt lat="45.63563658085268" lon="11.34654209769043"><ele>709.0</ele><time>2026-04-01T13:20:42Z</time></trkpt><trkpt lat="45.635669605097384" lon="11.346461641031329"><ele>709.0</ele><time>2026-04-01T13:20:44Z</time></trkpt><trkpt lat="45.6357572279042" lon="11.346355455852995"><ele>709.0</ele><time>2026-04-01T13:20:47Z</time></trkpt><trkpt lat="45.63581527530016" lon="11.34631546288347"><ele>709.0</ele><time>2026-04-01T13:20:48Z</time></trkpt><trkpt lat="45.635889229542585" lon="11.346227251512424"><ele>709.0</ele><time>2026-04-01T13:20:50Z</time></trkpt><trkpt lat="45.635929028551715" lon="11.346149623259459"><ele>709.0</ele><time>2026-04-01T13:20:51Z</time></trkpt><trkpt lat="45.635974894251824" lon="11.346058273873323"><ele>709.2</ele><time>2026-04-01T13:20:52Z</time></trkpt><trkpt lat="45.636026602671635" lon="11.345950785953185"><ele>709.4000000000001</ele><time>2026-04-01T13:20:53Z</time></trkpt><trkpt lat="45.63608485449778" lon="11.345867385049823"><ele>709.6</ele><time>2026-04-01T13:20:54Z</time></trkpt><trkpt lat="45.63617330310611" lon="11.345795042759239"><ele>709.8</ele><time>2026-04-01T13:20:56Z</time></trkpt><trkpt lat="45.63626518812728" lon="11.345698446273275"><ele>710.0</ele><time>2026-04-01T13:20:58Z</time></trkpt><trkpt lat="45.63633754269775" lon="11.34562842856086"><ele>708.2</ele><time>2026-04-01T13:21:00Z</time></trkpt><trkpt lat="45.636407771314566" lon="11.345591453802092"><ele>706.4</ele><time>2026-04-01T13:21:01Z</time></trkpt><trkpt lat="45.63652461872979" lon="11.345504944984636"><ele>704.5999999999999</ele><time>2026-04-01T13:21:03Z</time></trkpt><trkpt lat="45.63658008117132" lon="11.345388497478119"><ele>702.8</ele><time>2026-04-01T13:21:05Z</time></trkpt><trkpt lat="45.63659868097929" lon="11.345243852678921"><ele>701.0</ele><time>2026-04-01T13:21:07Z</time></trkpt><trkpt lat="45.63662597668136" lon="11.345149807930888"><ele>701.0</ele><time>2026-04-01T13:21:08Z</time></trkpt><trkpt lat="45.636671762822516" lon="11.34504789748263"><ele>701.0</ele><time>2026-04-01T13:21:10Z</time></trkpt><trkpt lat="45.636728029395464" lon="11.344912092302806"><ele>701.0</ele><time>2026-04-01T13:21:12Z</time></trkpt><trkpt lat="45.636812941238915" lon="11.344812006371205"><ele>701.0</ele><time>2026-04-01T13:21:14Z</time></trkpt><trkpt lat="45.636899546900594" lon="11.344755850488028"><ele>701.0</ele><time>2026-04-01T13:21:16Z</time></trkpt><trkpt lat="45.637009645466506" lon="11.34467356325033"><ele>699.8</ele><time>2026-04-01T13:21:18Z</time></trkpt><trkpt lat="45.63707388375657" lon="11.344647745169684"><ele>698.5999999999999</ele><time>2026-04-01T13:21:19Z</time></trkpt><trkpt lat="45.6371583523208" lon="11.344580024541635"><ele>697.4</ele><time>2026-04-01T13:21:21Z</time></trkpt><trkpt lat="45.637254254402194" lon="11.344535830910262"><ele>696.2</ele><time>2026-04-01T13:21:23Z</time></trkpt><trkpt lat="45.637342624553895" lon="11.344484973730523"><ele>695.0</ele><time>2026-04-01T13:21:25Z</time></trkpt><trkpt lat="45.637432250242306" lon="11.344445670715379"><ele>695.0</ele><time>2026-04-01T13:21:27Z</time></trkpt><trkpt lat="45.637496719278666" lon="11.34439788633104"><ele>695.0</ele><time>2026-04-01T13:21:29Z</time></trkpt><trkpt lat="45.637578113320004" lon="11.344363422533787"><ele>695.0</ele><time>2026-04-01T13:21:31Z</time></trkpt><trkpt lat="45.63764784587138" lon="11.344336630267602"><ele>695.0</ele><time>2026-04-01T13:21:33Z</time></trkpt><trkpt lat="45.63771682231476" lon="11.344327439201313"><ele>695.0</ele><time>2026-04-01T13:21:35Z</time></trkpt><trkpt lat="45.63781541476421" lon="11.344260798723289"><ele>695.0</ele><time>2026-04-01T13:21:37Z</time></trkpt><trkpt lat="45.63789165345045" lon="11.344189381339598"><ele>694.6666666666666</ele><time>2026-04-01T13:21:39Z</time></trkpt><trkpt lat="45.63796929199534" lon="11.344097574907385"><ele>694.3333333333333</ele><time>2026-04-01T13:21:41Z</time></trkpt><trkpt lat="45.63802480931823" lon="11.343999834697158"><ele>694.0</ele><time>2026-04-01T13:21:43Z</time></trkpt><trkpt lat="45.63808074758821" lon="11.34394121445107"><ele>693.6666666666666</ele><time>2026-04-01T13:21:44Z</time></trkpt><trkpt lat="45.63815121490888" lon="11.34389920103972"><ele>693.3333333333334</ele><time>2026-04-01T13:21:46Z</time></trkpt><trkpt lat="45.63824471927405" lon="11.34390791433477"><ele>693.0</ele><time>2026-04-01T13:21:48Z</time></trkpt><trkpt lat="45.6383617385425" lon="11.343928401603325"><ele>693.0</ele><time>2026-04-01T13:21:50Z</time></trkpt><trkpt lat="45.63845146654049" lon="11.344015546638252"><ele>693.0</ele><time>2026-04-01T13:21:52Z</time></trkpt><trkpt lat="45.638522056390606" lon="11.344058987725987"><ele>693.0</ele><time>2026-04-01T13:21:54Z</time></trkpt><trkpt lat="45.63859899409509" lon="11.344059389409708"><ele>693.0</ele><time>2026-04-01T13:21:56Z</time></trkpt><trkpt lat="45.63866378219289" lon="11.343968780564314"><ele>693.0</ele><time>2026-04-01T13:21:59Z</time></trkpt><trkpt lat="45.63868051240297" lon="11.34387559488299"><ele>693.0</ele><time>2026-04-01T13:22:01Z</time></trkpt><trkpt lat="45.63874005184696" lon="11.34380341273519"><ele>693.1666666666666</ele><time>2026-04-01T13:22:05Z</time></trkpt><trkpt lat="45.638825773081884" lon="11.34373709704636"><ele>693.3333333333334</ele><time>2026-04-01T13:22:07Z</time></trkpt><trkpt lat="45.63889338649726" lon="11.343679782756604"><ele>693.5</ele><time>2026-04-01T13:22:09Z</time></trkpt><trkpt lat="45.63895874444627" lon="11.343664954435074"><ele>693.6666666666667</ele><time>2026-04-01T13:22:11Z</time></trkpt><trkpt lat="45.63901689694266" lon="11.343702544180667"><ele>693.8333333333334</ele><time>2026-04-01T13:22:13Z</time></trkpt><trkpt lat="45.63906803278388" lon="11.343798142781072"><ele>694.0</ele><time>2026-04-01T13:22:16Z</time></trkpt><trkpt lat="45.639135813543625" lon="11.343894867314516"><ele>694.0</ele><time>2026-04-01T13:22:19Z</time></trkpt><trkpt lat="45.639214828545974" lon="11.343959620627338"><ele>694.0</ele><time>2026-04-01T13:22:21Z</time></trkpt><trkpt lat="45.63926908565796" lon="11.344031415541027"><ele>694.0</ele><time>2026-04-01T13:22:23Z</time></trkpt><trkpt lat="45.639336957347005" lon="11.34405807158574"><ele>694.0</ele><time>2026-04-01T13:22:27Z</time></trkpt><trkpt lat="45.63943023525747" lon="11.344038233300353"><ele>694.0</ele><time>2026-04-01T13:22:30Z</time></trkpt><trkpt lat="45.63949457815971" lon="11.344078666795593"><ele>694.0</ele><time>2026-04-01T13:22:32Z</time></trkpt><trkpt lat="45.639535783094054" lon="11.34415745769358"><ele>694.8000000000001</ele><time>2026-04-01T13:22:34Z</time></trkpt><trkpt lat="45.63960673722727" lon="11.34418504743722"><ele>695.6</ele><time>2026-04-01T13:22:36Z</time></trkpt><trkpt lat="45.63966931549371" lon="11.34421453904323"><ele>696.4</ele><time>2026-04-01T13:22:38Z</time></trkpt><trkpt lat="45.639713590687386" lon="11.34431954234345"><ele>697.2</ele><time>2026-04-01T13:22:41Z</time></trkpt><trkpt lat="45.63970215688957" lon="11.34449699575963"><ele>698.0</ele><time>2026-04-01T13:22:43Z</time></trkpt><trkpt lat="45.639682197515675" lon="11.3446532867701"><ele>695.4</ele><time>2026-04-01T13:22:45Z</time></trkpt><trkpt lat="45.63966273852579" lon="11.344787418869755"><ele>692.8</ele><time>2026-04-01T13:22:47Z</time></trkpt><trkpt lat="45.639624849979754" lon="11.344899339378882"><ele>690.2</ele><time>2026-04-01T13:22:49Z</time></trkpt><trkpt lat="45.63954170926634" lon="11.344936207460567"><ele>687.6</ele><time>2026-04-01T13:22:51Z</time></trkpt><trkpt lat="45.639491057934485" lon="11.345044735546605"><ele>685.0</ele><time>2026-04-01T13:22:53Z</time></trkpt><trkpt lat="45.63947517870089" lon="11.345172558191736"><ele>685.5</ele><time>2026-04-01T13:22:55Z</time></trkpt><trkpt lat="45.63944714524981" lon="11.345333197726086"><ele>686.0</ele><time>2026-04-01T13:22:57Z</time></trkpt><trkpt lat="45.6394230293744" lon="11.345443296138564"><ele>686.5</ele><time>2026-04-01T13:23:00Z</time></trkpt><trkpt lat="45.63936503169305" lon="11.345556945282299"><ele>687.0</ele><time>2026-04-01T13:23:02Z</time></trkpt><trkpt lat="45.63929630397103" lon="11.345625876908853"><ele>687.5</ele><time>2026-04-01T13:23:04Z</time></trkpt><trkpt lat="45.63925275790881" lon="11.345693410887687"><ele>688.0</ele><time>2026-04-01T13:23:07Z</time></trkpt><trkpt lat="45.63930600783556" lon="11.345764632241801"><ele>685.4</ele><time>2026-04-01T13:23:10Z</time></trkpt><trkpt lat="45.63942080226484" lon="11.345766900671592"><ele>682.8</ele><time>2026-04-01T13:23:12Z</time></trkpt><trkpt lat="45.639518281194576" lon="11.345717985180848"><ele>680.2</ele><time>2026-04-01T13:23:15Z</time></trkpt><trkpt lat="45.63958800696059" lon="11.3457746727889"><ele>677.6</ele><time>2026-04-01T13:23:18Z</time></trkpt><trkpt lat="45.63955870777199" lon="11.345867875136346"><ele>675.0</ele><time>2026-04-01T13:23:20Z</time></trkpt><trkpt lat="45.639486346755056" lon="11.345924730704388"><ele>675.0</ele><time>2026-04-01T13:23:22Z</time></trkpt><trkpt lat="45.63943738904054" lon="11.346031240487143"><ele>675.0</ele><time>2026-04-01T13:23:24Z</time></trkpt><trkpt lat="45.63939812236819" lon="11.346158509414394"><ele>675.0</ele><time>2026-04-01T13:23:26Z</time></trkpt><trkpt lat="45.63938189098978" lon="11.34631876584553"><ele>675.0</ele><time>2026-04-01T13:23:28Z</time></trkpt><trkpt lat="45.6393613406469" lon="11.346467719733917"><ele>675.0</ele><time>2026-04-01T13:23:30Z</time></trkpt><trkpt lat="45.63934086133911" lon="11.346594191099529"><ele>671.6</ele><time>2026-04-01T13:23:31Z</time></trkpt><trkpt lat="45.63932024194418" lon="11.346681302436672"><ele>668.2</ele><time>2026-04-01T13:23:32Z</time></trkpt><trkpt lat="45.63928112443019" lon="11.346830316980073"><ele>664.8</ele><time>2026-04-01T13:23:34Z</time></trkpt><trkpt lat="45.639252783608285" lon="11.346958005950956"><ele>661.4</ele><time>2026-04-01T13:23:36Z</time></trkpt><trkpt lat="45.63920410463606" lon="11.347088832765344"><ele>658.0</ele><time>2026-04-01T13:23:39Z</time></trkpt><trkpt lat="45.63922093694893" lon="11.347204608376515"><ele>655.3333333333334</ele><time>2026-04-01T13:23:41Z</time></trkpt><trkpt lat="45.63923493881724" lon="11.347300915663922"><ele>652.6666666666667</ele><time>2026-04-01T13:23:42Z</time></trkpt><trkpt lat="45.63925038057193" lon="11.34740712675369"><ele>650.0</ele><time>2026-04-01T13:23:43Z</time></trkpt><trkpt lat="45.63925183843864" lon="11.347562256784526"><ele>647.3333333333334</ele><time>2026-04-01T13:23:45Z</time></trkpt><trkpt lat="45.63920722372672" lon="11.347662557413628"><ele>644.6666666666666</ele><time>2026-04-01T13:23:47Z</time></trkpt><trkpt lat="45.63914414977347" lon="11.34770247104124"><ele>642.0</ele><time>2026-04-01T13:23:49Z</time></trkpt><trkpt lat="45.63911329406451" lon="11.347812588521496"><ele>642.0</ele><time>2026-04-01T13:23:52Z</time></trkpt><trkpt lat="45.63920005321706" lon="11.347886639257487"><ele>642.0</ele><time>2026-04-01T13:23:53Z</time></trkpt><trkpt lat="45.639289960291094" lon="11.347870090085541"><ele>642.0</ele><time>2026-04-01T13:23:54Z</time></trkpt><trkpt lat="45.639380590795774" lon="11.347858114666447"><ele>642.0</ele><time>2026-04-01T13:23:55Z</time></trkpt><trkpt lat="45.639451013307266" lon="11.347898408132743"><ele>642.0</ele><time>2026-04-01T13:23:56Z</time></trkpt><trkpt lat="45.63953703661648" lon="11.347957523905212"><ele>640.8000000000001</ele><time>2026-04-01T13:23:58Z</time></trkpt><trkpt lat="45.63960901525279" lon="11.348038751896347"><ele>639.6</ele><time>2026-04-01T13:24:00Z</time></trkpt><trkpt lat="45.63971358085159" lon="11.348159704192723"><ele>638.4000000000001</ele><time>2026-04-01T13:24:02Z</time></trkpt><trkpt lat="45.6397630021638" lon="11.348222372543436"><ele>637.2</ele><time>2026-04-01T13:24:03Z</time></trkpt><trkpt lat="45.63983790402338" lon="11.348293749831043"><ele>636.0</ele><time>2026-04-01T13:24:04Z</time></trkpt><trkpt lat="45.6399094599147" lon="11.348380664305777"><ele>634.6</ele><time>2026-04-01T13:24:05Z</time></trkpt><trkpt lat="45.639964731078834" lon="11.348450532138616"><ele>633.2</ele><time>2026-04-01T13:24:06Z</time></trkpt><trkpt lat="45.64006451239479" lon="11.34855078568222"><ele>631.8</ele><time>2026-04-01T13:24:08Z</time></trkpt><trkpt lat="45.64012739350421" lon="11.348589310840627"><ele>630.4</ele><time>2026-04-01T13:24:09Z</time></trkpt><trkpt lat="45.64024501084161" lon="11.34862732999104"><ele>629.0</ele><time>2026-04-01T13:24:11Z</time></trkpt><trkpt lat="45.640358183284455" lon="11.34855520048767"><ele>627.6</ele><time>2026-04-01T13:24:13Z</time></trkpt><trkpt lat="45.64043723855254" lon="11.348565666463408"><ele>626.2</ele><time>2026-04-01T13:24:14Z</time></trkpt><trkpt lat="45.64052213900726" lon="11.348571574154398"><ele>624.8000000000001</ele><time>2026-04-01T13:24:15Z</time></trkpt><trkpt lat="45.640601359306764" lon="11.348566072287745"><ele>623.4</ele><time>2026-04-01T13:24:16Z</time></trkpt><trkpt lat="45.64073096242675" lon="11.348563851060469"><ele>622.0</ele><time>2026-04-01T13:24:18Z</time></trkpt><trkpt lat="45.640806530550236" lon="11.348519790323593"><ele>622.0</ele><time>2026-04-01T13:24:19Z</time></trkpt><trkpt lat="45.64087904008315" lon="11.348473879068914"><ele>622.0</ele><time>2026-04-01T13:24:20Z</time></trkpt><trkpt lat="45.64094086500239" lon="11.348434877745445"><ele>622.0</ele><time>2026-04-01T13:24:21Z</time></trkpt><trkpt lat="45.641008125033814" lon="11.348406994775898"><ele>622.0</ele><time>2026-04-01T13:24:22Z</time></trkpt><trkpt lat="45.641143926790626" lon="11.348397825569501"><ele>622.0</ele><time>2026-04-01T13:24:24Z</time></trkpt><trkpt lat="45.64121772241279" lon="11.348367878810572"><ele>622.0</ele><time>2026-04-01T13:24:25Z</time></trkpt><trkpt lat="45.64130361107511" lon="11.348407287274826"><ele>621.1666666666667</ele><time>2026-04-01T13:24:26Z</time></trkpt><trkpt lat="45.64135924766885" lon="11.348453573905342"><ele>620.3333333333334</ele><time>2026-04-01T13:24:27Z</time></trkpt><trkpt lat="45.64142126775422" lon="11.348504872061238"><ele>619.5</ele><time>2026-04-01T13:24:28Z</time></trkpt><trkpt lat="45.64153175834062" lon="11.348593349970418"><ele>618.6666666666666</ele><time>2026-04-01T13:24:30Z</time></trkpt><trkpt lat="45.64161750949935" lon="11.34861638558431"><ele>617.8333333333333</ele><time>2026-04-01T13:24:31Z</time></trkpt><trkpt lat="45.641688318773625" lon="11.348640153500469"><ele>617.0</ele><time>2026-04-01T13:24:32Z</time></trkpt><trkpt lat="45.64176159051725" lon="11.348647048351957"><ele>617.0</ele><time>2026-04-01T13:24:33Z</time></trkpt><trkpt lat="45.641872220374715" lon="11.348632791557028"><ele>617.0</ele><time>2026-04-01T13:24:35Z</time></trkpt><trkpt lat="45.641937786450455" lon="11.348623648188472"><ele>617.0</ele><time>2026-04-01T13:24:36Z</time></trkpt><trkpt lat="45.64200873264977" lon="11.348582538283292"><ele>617.0</ele><time>2026-04-01T13:24:37Z</time></trkpt><trkpt lat="45.6421001856764" lon="11.348529588129608"><ele>617.0</ele><time>2026-04-01T13:24:38Z</time></trkpt><trkpt lat="45.64220072571133" lon="11.348526999072751"><ele>616.5</ele><time>2026-04-01T13:24:39Z</time></trkpt><trkpt lat="45.64234559346295" lon="11.348555009842768"><ele>616.0</ele><time>2026-04-01T13:24:41Z</time></trkpt><trkpt lat="45.64240825639704" lon="11.348581818505615"><ele>615.5</ele><time>2026-04-01T13:24:42Z</time></trkpt><trkpt lat="45.642476935452216" lon="11.348599913818328"><ele>615.0</ele><time>2026-04-01T13:24:43Z</time></trkpt><trkpt lat="45.64254044456087" lon="11.348620418879928"><ele>614.5</ele><time>2026-04-01T13:24:44Z</time></trkpt><trkpt lat="45.642610586651735" lon="11.348648544088041"><ele>614.0</ele><time>2026-04-01T13:24:45Z</time></trkpt><trkpt lat="45.64268235553018" lon="11.348720456744763"><ele>614.0</ele><time>2026-04-01T13:24:46Z</time></trkpt><trkpt lat="45.64276215353544" lon="11.348793367950002"><ele>614.0</ele><time>2026-04-01T13:24:47Z</time></trkpt><trkpt lat="45.64282961877196" lon="11.348870558752854"><ele>614.0</ele><time>2026-04-01T13:24:48Z</time></trkpt><trkpt lat="45.64288319779319" lon="11.348980544866873"><ele>614.0</ele><time>2026-04-01T13:24:50Z</time></trkpt><trkpt lat="45.64286649180614" lon="11.349068584606957"><ele>614.0</ele><time>2026-04-01T13:24:51Z</time></trkpt><trkpt lat="45.64283681435021" lon="11.349252816918995"><ele>615.2</ele><time>2026-04-01T13:24:53Z</time></trkpt><trkpt lat="45.64283890377992" lon="11.349357421796036"><ele>616.4</ele><time>2026-04-01T13:24:54Z</time></trkpt><trkpt lat="45.64285239992218" lon="11.349454794722583"><ele>617.6</ele><time>2026-04-01T13:24:55Z</time></trkpt><trkpt lat="45.642896210967116" lon="11.349581145806527"><ele>618.8</ele><time>2026-04-01T13:24:57Z</time></trkpt><trkpt lat="45.64300225968862" lon="11.349582302170237"><ele>620.0</ele><time>2026-04-01T13:24:59Z</time></trkpt><trkpt lat="45.64311959340331" lon="11.349566384554581"><ele>620.0</ele><time>2026-04-01T13:25:01Z</time></trkpt><trkpt lat="45.64324372490854" lon="11.3495481767343"><ele>620.0</ele><time>2026-04-01T13:25:03Z</time></trkpt><trkpt lat="45.64335522344679" lon="11.349525867711806"><ele>620.0</ele><time>2026-04-01T13:25:05Z</time></trkpt><trkpt lat="45.6434395463013" lon="11.349542315801038"><ele>620.0</ele><time>2026-04-01T13:25:07Z</time></trkpt><trkpt lat="45.64353858488877" lon="11.349558845168152"><ele>620.0</ele><time>2026-04-01T13:25:11Z</time></trkpt><trkpt lat="45.643627335385474" lon="11.349517025341965"><ele>621.5</ele><time>2026-04-01T13:25:13Z</time></trkpt><trkpt lat="45.64371427909439" lon="11.349258036912115"><ele>623.0</ele><time>2026-04-01T13:25:15Z</time></trkpt><trkpt lat="45.64383876982738" lon="11.349240408705029"><ele>624.5</ele><time>2026-04-01T13:25:17Z</time></trkpt><trkpt lat="45.64390552181717" lon="11.349215447259121"><ele>626.0</ele><time>2026-04-01T13:25:18Z</time></trkpt><trkpt lat="45.64396927635003" lon="11.349193274316363"><ele>626.0</ele><time>2026-04-01T13:25:19Z</time></trkpt><trkpt lat="45.64404825149584" lon="11.349167449230933"><ele>626.0</ele><time>2026-04-01T13:25:20Z</time></trkpt><trkpt lat="45.64415134887438" lon="11.349140864718247"><ele>626.0</ele><time>2026-04-01T13:25:21Z</time></trkpt><trkpt lat="45.644228703623114" lon="11.349134562504"><ele>626.0</ele><time>2026-04-01T13:25:22Z</time></trkpt><trkpt lat="45.64430518671017" lon="11.349163504566047"><ele>626.0</ele><time>2026-04-01T13:25:23Z</time></trkpt><trkpt lat="45.64440575525571" lon="11.349229910357401"><ele>627.1666666666666</ele><time>2026-04-01T13:25:24Z</time></trkpt><trkpt lat="45.644463725278484" lon="11.349276109885611"><ele>628.3333333333333</ele><time>2026-04-01T13:25:25Z</time></trkpt><trkpt lat="45.644556386141424" lon="11.349323143135665"><ele>629.5</ele><time>2026-04-01T13:25:27Z</time></trkpt><trkpt lat="45.64465716814623" lon="11.349323796691575"><ele>630.6666666666666</ele><time>2026-04-01T13:25:29Z</time></trkpt><trkpt lat="45.64473591649867" lon="11.349294932134931"><ele>631.8333333333334</ele><time>2026-04-01T13:25:30Z</time></trkpt><trkpt lat="45.64482448383653" lon="11.349270055680474"><ele>633.0</ele><time>2026-04-01T13:25:31Z</time></trkpt><trkpt lat="45.64489749920924" lon="11.349257517025956"><ele>633.0</ele><time>2026-04-01T13:25:32Z</time></trkpt><trkpt lat="45.64496848631634" lon="11.3492621527296"><ele>633.0</ele><time>2026-04-01T13:25:33Z</time></trkpt><trkpt lat="45.64507260864007" lon="11.349300822125619"><ele>633.0</ele><time>2026-04-01T13:25:35Z</time></trkpt><trkpt lat="45.64515611971475" lon="11.349386431326966"><ele>633.0</ele><time>2026-04-01T13:25:37Z</time></trkpt><trkpt lat="45.6452434214438" lon="11.349460158979921"><ele>633.0</ele><time>2026-04-01T13:25:39Z</time></trkpt><trkpt lat="45.64535805772618" lon="11.349486403103615"><ele>632.8</ele><time>2026-04-01T13:25:41Z</time></trkpt><trkpt lat="45.645412156393235" lon="11.349557058987708"><ele>632.5999999999999</ele><time>2026-04-01T13:25:43Z</time></trkpt><trkpt lat="45.64542488862698" lon="11.349693868546881"><ele>632.4000000000001</ele><time>2026-04-01T13:25:45Z</time></trkpt><trkpt lat="45.64549074821158" lon="11.349835665968998"><ele>632.2</ele><time>2026-04-01T13:25:47Z</time></trkpt><trkpt lat="45.64557977830129" lon="11.349921447225983"><ele>632.0</ele><time>2026-04-01T13:25:49Z</time></trkpt><trkpt lat="45.64564674389701" lon="11.34993747890036"><ele>634.0</ele><time>2026-04-01T13:25:50Z</time></trkpt><trkpt lat="45.64571521680986" lon="11.34997125478317"><ele>636.0</ele><time>2026-04-01T13:25:51Z</time></trkpt><trkpt lat="45.64578251299677" lon="11.34996321776776"><ele>638.0</ele><time>2026-04-01T13:25:52Z</time></trkpt><trkpt lat="45.645862706282465" lon="11.349962970492058"><ele>640.0</ele><time>2026-04-01T13:25:53Z</time></trkpt><trkpt lat="45.6459385827791" lon="11.349974144506207"><ele>642.0</ele><time>2026-04-01T13:25:54Z</time></trkpt><trkpt lat="45.64602615831719" lon="11.349947386795325"><ele>644.0</ele><time>2026-04-01T13:25:55Z</time></trkpt><trkpt lat="45.64611301205493" lon="11.349905134494817"><ele>643.4000000000001</ele><time>2026-04-01T13:25:56Z</time></trkpt><trkpt lat="45.64621062500444" lon="11.349876809312708"><ele>642.8</ele><time>2026-04-01T13:25:58Z</time></trkpt><trkpt lat="45.64627955024289" lon="11.349876603540503"><ele>642.2</ele><time>2026-04-01T13:25:59Z</time></trkpt><trkpt lat="45.64643299064124" lon="11.34985116647855"><ele>641.5999999999999</ele><time>2026-04-01T13:26:01Z</time></trkpt><trkpt lat="45.646534241141964" lon="11.349840759216104"><ele>641.0</ele><time>2026-04-01T13:26:02Z</time></trkpt><trkpt lat="45.64660413227044" lon="11.349850709779048"><ele>641.0</ele><time>2026-04-01T13:26:03Z</time></trkpt><trkpt lat="45.64670284698109" lon="11.349906920976155"><ele>641.0</ele><time>2026-04-01T13:26:05Z</time></trkpt><trkpt lat="45.64677763135197" lon="11.349937461693559"><ele>641.0</ele><time>2026-04-01T13:26:06Z</time></trkpt><trkpt lat="45.64682882900754" lon="11.349990486429022"><ele>641.0</ele><time>2026-04-01T13:26:07Z</time></trkpt><trkpt lat="45.64688876194734" lon="11.350020641099473"><ele>641.0</ele><time>2026-04-01T13:26:08Z</time></trkpt><trkpt lat="45.646949550766415" lon="11.350044672764314"><ele>641.0</ele><time>2026-04-01T13:26:09Z</time></trkpt><trkpt lat="45.64705255433512" lon="11.350008384621878"><ele>641.8333333333333</ele><time>2026-04-01T13:26:11Z</time></trkpt><trkpt lat="45.647127551391165" lon="11.34998909692951"><ele>642.6666666666666</ele><time>2026-04-01T13:26:12Z</time></trkpt><trkpt lat="45.647234107909874" lon="11.34993664722406"><ele>643.5</ele><time>2026-04-01T13:26:14Z</time></trkpt><trkpt lat="45.647301640105624" lon="11.349963375244426"><ele>644.3333333333334</ele><time>2026-04-01T13:26:15Z</time></trkpt><trkpt lat="45.647371148620266" lon="11.349990924788287"><ele>645.1666666666667</ele><time>2026-04-01T13:26:16Z</time></trkpt><trkpt lat="45.64745852052336" lon="11.349911949366595"><ele>646.0</ele><time>2026-04-01T13:26:18Z</time></trkpt><trkpt lat="45.64752964703772" lon="11.349893768890261"><ele>646.0</ele><time>2026-04-01T13:26:19Z</time></trkpt><trkpt lat="45.64761758791135" lon="11.349906864452317"><ele>646.0</ele><time>2026-04-01T13:26:21Z</time></trkpt><trkpt lat="45.647769858227214" lon="11.349943359384376"><ele>646.0</ele><time>2026-04-01T13:26:23Z</time></trkpt><trkpt lat="45.64788168877659" lon="11.34996914013161"><ele>646.0</ele><time>2026-04-01T13:26:24Z</time></trkpt><trkpt lat="45.647960793185604" lon="11.349972152277072"><ele>646.0</ele><time>2026-04-01T13:26:25Z</time></trkpt><trkpt lat="45.64802538943681" lon="11.349973614760708"><ele>646.7142857142858</ele><time>2026-04-01T13:26:26Z</time></trkpt><trkpt lat="45.648105040644886" lon="11.349964213732507"><ele>647.4285714285714</ele><time>2026-04-01T13:26:27Z</time></trkpt><trkpt lat="45.64817480663145" lon="11.349919148143016"><ele>648.1428571428571</ele><time>2026-04-01T13:26:28Z</time></trkpt><trkpt lat="45.64823759471611" lon="11.349862163265346"><ele>648.8571428571429</ele><time>2026-04-01T13:26:29Z</time></trkpt><trkpt lat="45.64830798484543" lon="11.34979462546992"><ele>649.5714285714286</ele><time>2026-04-01T13:26:31Z</time></trkpt><trkpt lat="45.648370293886146" lon="11.349775944449108"><ele>650.2857142857143</ele><time>2026-04-01T13:26:32Z</time></trkpt><trkpt lat="45.64843709493645" lon="11.349772463165428"><ele>651.0</ele><time>2026-04-01T13:26:33Z</time></trkpt><trkpt lat="45.64855605074916" lon="11.349813702265433"><ele>650.4</ele><time>2026-04-01T13:26:35Z</time></trkpt><trkpt lat="45.64866745542097" lon="11.34988411538954"><ele>649.8</ele><time>2026-04-01T13:26:37Z</time></trkpt><trkpt lat="45.64877321503189" lon="11.349895916611109"><ele>649.1999999999999</ele><time>2026-04-01T13:26:39Z</time></trkpt><trkpt lat="45.64885216679606" lon="11.349833469699982"><ele>648.5999999999999</ele><time>2026-04-01T13:26:41Z</time></trkpt><trkpt lat="45.64894733620548" lon="11.349721748288388"><ele>648.0</ele><time>2026-04-01T13:26:43Z</time></trkpt><trkpt lat="45.649018736382715" lon="11.349661788317526"><ele>648.0</ele><time>2026-04-01T13:26:44Z</time></trkpt><trkpt lat="45.64912293229207" lon="11.349620417645207"><ele>648.0</ele><time>2026-04-01T13:26:46Z</time></trkpt><trkpt lat="45.64920583672216" lon="11.349609672370399"><ele>648.0</ele><time>2026-04-01T13:26:48Z</time></trkpt><trkpt lat="45.64927249012294" lon="11.349575737027674"><ele>648.0</ele><time>2026-04-01T13:26:50Z</time></trkpt><trkpt lat="45.649350986761135" lon="11.349557093104497"><ele>648.0</ele><time>2026-04-01T13:26:53Z</time></trkpt><trkpt lat="45.64944743026224" lon="11.34954290638715"><ele>648.0</ele><time>2026-04-01T13:26:55Z</time></trkpt><trkpt lat="45.64951082382885" lon="11.349531416833939"><ele>649.0</ele><time>2026-04-01T13:26:57Z</time></trkpt><trkpt lat="45.64958794198937" lon="11.349521997781297"><ele>650.0</ele><time>2026-04-01T13:27:00Z</time></trkpt><trkpt lat="45.64971649988909" lon="11.349528859565382"><ele>651.0</ele><time>2026-04-01T13:27:02Z</time></trkpt><trkpt lat="45.649792937206016" lon="11.34958013382298"><ele>652.0</ele><time>2026-04-01T13:27:04Z</time></trkpt><trkpt lat="45.649889218990594" lon="11.34959372610276"><ele>653.0</ele><time>2026-04-01T13:27:06Z</time></trkpt><trkpt lat="45.64996852876108" lon="11.349641694717628"><ele>653.0</ele><time>2026-04-01T13:27:08Z</time></trkpt><trkpt lat="45.65002587345274" lon="11.349597631593962"><ele>653.0</ele><time>2026-04-01T13:27:14Z</time></trkpt><trkpt lat="45.650014219352826" lon="11.349481400288422"><ele>653.0</ele><time>2026-04-01T13:27:17Z</time></trkpt><trkpt lat="45.64999587208233" lon="11.349339386472469"><ele>653.0</ele><time>2026-04-01T13:27:19Z</time></trkpt><trkpt lat="45.64998783823772" lon="11.349239324259425"><ele>653.0</ele><time>2026-04-01T13:27:21Z</time></trkpt><trkpt lat="45.64999218008249" lon="11.349066803046538"><ele>653.0</ele><time>2026-04-01T13:27:23Z</time></trkpt><trkpt lat="45.64999545766986" lon="11.348963793235798"><ele>653.2</ele><time>2026-04-01T13:27:25Z</time></trkpt><trkpt lat="45.65003702510257" lon="11.348815104193672"><ele>653.4</ele><time>2026-04-01T13:27:27Z</time></trkpt><trkpt lat="45.65006176833963" lon="11.348656140278194"><ele>653.6</ele><time>2026-04-01T13:27:30Z</time></trkpt><trkpt lat="45.65008307556506" lon="11.348564650466752"><ele>653.8000000000001</ele><time>2026-04-01T13:27:31Z</time></trkpt><trkpt lat="45.65012171286539" lon="11.34848188328319"><ele>654.0</ele><time>2026-04-01T13:27:33Z</time></trkpt><trkpt lat="45.650152033356825" lon="11.348357388424578"><ele>654.0</ele><time>2026-04-01T13:27:35Z</time></trkpt><trkpt lat="45.65020171838665" lon="11.348248382461922"><ele>654.0</ele><time>2026-04-01T13:27:37Z</time></trkpt><trkpt lat="45.65027254030123" lon="11.348116572518917"><ele>654.0</ele><time>2026-04-01T13:27:39Z</time></trkpt><trkpt lat="45.65033853461403" lon="11.348087039547554"><ele>654.0</ele><time>2026-04-01T13:27:41Z</time></trkpt><trkpt lat="45.65039214223456" lon="11.348038511628914"><ele>654.0</ele><time>2026-04-01T13:27:42Z</time></trkpt><trkpt lat="45.65045618544575" lon="11.34799673183118"><ele>654.0</ele><time>2026-04-01T13:27:43Z</time></trkpt><trkpt lat="45.65055279821951" lon="11.347905495885865"><ele>655.8333333333334</ele><time>2026-04-01T13:27:45Z</time></trkpt><trkpt lat="45.650615858436424" lon="11.347840311195377"><ele>657.6666666666666</ele><time>2026-04-01T13:27:47Z</time></trkpt><trkpt lat="45.65066109163163" lon="11.347704846905971"><ele>659.5</ele><time>2026-04-01T13:27:50Z</time></trkpt><trkpt lat="45.65068055116234" lon="11.347564955844513"><ele>661.3333333333333</ele><time>2026-04-01T13:27:52Z</time></trkpt><trkpt lat="45.6506506281155" lon="11.34747091246156"><ele>663.1666666666666</ele><time>2026-04-01T13:27:54Z</time></trkpt><trkpt lat="45.6505779481469" lon="11.347389303785908"><ele>665.0</ele><time>2026-04-01T13:27:56Z</time></trkpt><trkpt lat="45.650527716336775" lon="11.347265827281884"><ele>666.1666666666666</ele><time>2026-04-01T13:27:58Z</time></trkpt><trkpt lat="45.65049286423812" lon="11.347165259896396"><ele>667.3333333333333</ele><time>2026-04-01T13:28:00Z</time></trkpt><trkpt lat="45.65047232078249" lon="11.347039027315425"><ele>668.5</ele><time>2026-04-01T13:28:02Z</time></trkpt><trkpt lat="45.650480697018395" lon="11.346930778613274"><ele>669.6666666666666</ele><time>2026-04-01T13:28:03Z</time></trkpt><trkpt lat="45.650437187159035" lon="11.346782624126128"><ele>670.8333333333334</ele><time>2026-04-01T13:28:05Z</time></trkpt><trkpt lat="45.65042273971315" lon="11.346691167492008"><ele>672.0</ele><time>2026-04-01T13:28:06Z</time></trkpt><trkpt lat="45.650357348322764" lon="11.346558713978629"><ele>671.3333333333334</ele><time>2026-04-01T13:28:08Z</time></trkpt><trkpt lat="45.65029137375667" lon="11.34650421684763"><ele>670.6666666666666</ele><time>2026-04-01T13:28:09Z</time></trkpt><trkpt lat="45.65021219058372" lon="11.346449914021187"><ele>670.0</ele><time>2026-04-01T13:28:10Z</time></trkpt><trkpt lat="45.65015362320156" lon="11.346414509121054"><ele>669.3333333333333</ele><time>2026-04-01T13:28:11Z</time></trkpt><trkpt lat="45.650088826067346" lon="11.346388911158638"><ele>668.6666666666666</ele><time>2026-04-01T13:28:12Z</time></trkpt><trkpt lat="45.64995450764227" lon="11.346332548948856"><ele>668.0</ele><time>2026-04-01T13:28:14Z</time></trkpt><trkpt lat="45.64982650458785" lon="11.34625600212783"><ele>670.0</ele><time>2026-04-01T13:28:16Z</time></trkpt><trkpt lat="45.64971733430862" lon="11.346156135627952"><ele>672.0</ele><time>2026-04-01T13:28:18Z</time></trkpt><trkpt lat="45.64963494267443" lon="11.346115720601668"><ele>674.0</ele><time>2026-04-01T13:28:19Z</time></trkpt><trkpt lat="45.64950705866639" lon="11.346051718529404"><ele>676.0</ele><time>2026-04-01T13:28:21Z</time></trkpt><trkpt lat="45.6494119408327" lon="11.345953390954353"><ele>676.0</ele><time>2026-04-01T13:28:23Z</time></trkpt><trkpt lat="45.64929670737572" lon="11.345905384834266"><ele>676.0</ele><time>2026-04-01T13:28:25Z</time></trkpt><trkpt lat="45.6492075022783" lon="11.345871346640358"><ele>676.0</ele><time>2026-04-01T13:28:26Z</time></trkpt><trkpt lat="45.64908096897185" lon="11.345816926742737"><ele>676.0</ele><time>2026-04-01T13:28:28Z</time></trkpt><trkpt lat="45.64901405781313" lon="11.345717873846185"><ele>676.0</ele><time>2026-04-01T13:28:29Z</time></trkpt><trkpt lat="45.64890590124369" lon="11.345716754023737"><ele>676.0</ele><time>2026-04-01T13:28:31Z</time></trkpt><trkpt lat="45.6488220037398" lon="11.345683061501472"><ele>676.0</ele><time>2026-04-01T13:28:33Z</time></trkpt><trkpt lat="45.64872781820007" lon="11.345634464715166"><ele>676.0</ele><time>2026-04-01T13:28:35Z</time></trkpt><trkpt lat="45.64866853115868" lon="11.3454889370065"><ele>676.0</ele><time>2026-04-01T13:28:37Z</time></trkpt><trkpt lat="45.64862804297057" lon="11.345381075302441"><ele>676.0</ele><time>2026-04-01T13:28:38Z</time></trkpt><trkpt lat="45.648585856989364" lon="11.345310374839919"><ele>675.1999999999999</ele><time>2026-04-01T13:28:39Z</time></trkpt><trkpt lat="45.64853965528931" lon="11.34524619350599"><ele>674.4</ele><time>2026-04-01T13:28:40Z</time></trkpt><trkpt lat="45.648425065559415" lon="11.345223951217235"><ele>673.6</ele><time>2026-04-01T13:28:42Z</time></trkpt><trkpt lat="45.64836976330503" lon="11.345285048294256"><ele>672.8</ele><time>2026-04-01T13:28:43Z</time></trkpt><trkpt lat="45.648255344623635" lon="11.34532130476976"><ele>672.0</ele><time>2026-04-01T13:28:45Z</time></trkpt><trkpt lat="45.648159929745624" lon="11.345365574955776"><ele>672.0</ele><time>2026-04-01T13:28:47Z</time></trkpt><trkpt lat="45.64810460859508" lon="11.345302279102395"><ele>672.0</ele><time>2026-04-01T13:28:50Z</time></trkpt><trkpt lat="45.64802663629485" lon="11.345281608078903"><ele>672.0</ele><time>2026-04-01T13:28:52Z</time></trkpt><trkpt lat="45.64796073073294" lon="11.345257155345326"><ele>672.0</ele><time>2026-04-01T13:28:53Z</time></trkpt><trkpt lat="45.64788353968285" lon="11.34522001155567"><ele>672.0</ele><time>2026-04-01T13:28:54Z</time></trkpt><trkpt lat="45.64782366471393" lon="11.345186794211527"><ele>672.0</ele><time>2026-04-01T13:28:55Z</time></trkpt><trkpt lat="45.64775260603861" lon="11.345147372376447"><ele>672.0</ele><time>2026-04-01T13:28:57Z</time></trkpt><trkpt lat="45.647794115247535" lon="11.345072341281812"><ele>672.0</ele><time>2026-04-01T13:28:59Z</time></trkpt><trkpt lat="45.64781752093941" lon="11.34496513755761"><ele>672.0</ele><time>2026-04-01T13:29:00Z</time></trkpt><trkpt lat="45.647839360487055" lon="11.344866537449482"><ele>672.0</ele><time>2026-04-01T13:29:01Z</time></trkpt><trkpt lat="45.64786540163084" lon="11.34475102799628"><ele>672.0</ele><time>2026-04-01T13:29:02Z</time></trkpt><trkpt lat="45.647898610450035" lon="11.344590218523319"><ele>672.0</ele><time>2026-04-01T13:29:03Z</time></trkpt><trkpt lat="45.64792665746099" lon="11.344454490479615"><ele>673.8</ele><time>2026-04-01T13:29:04Z</time></trkpt><trkpt lat="45.6479534422868" lon="11.344325791958289"><ele>675.6</ele><time>2026-04-01T13:29:05Z</time></trkpt><trkpt lat="45.64797204966914" lon="11.344211445383031"><ele>677.4</ele><time>2026-04-01T13:29:06Z</time></trkpt><trkpt lat="45.648023533941" lon="11.344136745330834"><ele>679.1999999999999</ele><time>2026-04-01T13:29:07Z</time></trkpt><trkpt lat="45.64804486971327" lon="11.343968578270704"><ele>681.0</ele><time>2026-04-01T13:29:09Z</time></trkpt><trkpt lat="45.64806313890875" lon="11.343763382842823"><ele>681.0</ele><time>2026-04-01T13:29:11Z</time></trkpt><trkpt lat="45.64808016593343" lon="11.343653113906068"><ele>681.0</ele><time>2026-04-01T13:29:12Z</time></trkpt><trkpt lat="45.64812057260187" lon="11.343559552837204"><ele>681.0</ele><time>2026-04-01T13:29:13Z</time></trkpt><trkpt lat="45.64813395484202" lon="11.343440416349031"><ele>681.0</ele><time>2026-04-01T13:29:14Z</time></trkpt><trkpt lat="45.648139199431235" lon="11.343324940638599"><ele>681.0</ele><time>2026-04-01T13:29:15Z</time></trkpt><trkpt lat="45.64813849143003" lon="11.343114794378424"><ele>682.4</ele><time>2026-04-01T13:29:17Z</time></trkpt><trkpt lat="45.64810800499161" lon="11.342981206910128"><ele>683.8</ele><time>2026-04-01T13:29:18Z</time></trkpt><trkpt lat="45.64806210550841" lon="11.342838238002022"><ele>685.1999999999999</ele><time>2026-04-01T13:29:19Z</time></trkpt><trkpt lat="45.64800500227528" lon="11.342725560884439"><ele>686.5999999999999</ele><time>2026-04-01T13:29:20Z</time></trkpt><trkpt lat="45.64796558703969" lon="11.342616927971566"><ele>688.0</ele><time>2026-04-01T13:29:21Z</time></trkpt><trkpt lat="45.647925478034686" lon="11.342526407383877"><ele>688.0</ele><time>2026-04-01T13:29:22Z</time></trkpt><trkpt lat="45.64780820500317" lon="11.34248104163387"><ele>688.0</ele><time>2026-04-01T13:29:24Z</time></trkpt><trkpt lat="45.647734175277385" lon="11.342445929990463"><ele>688.0</ele><time>2026-04-01T13:29:25Z</time></trkpt><trkpt lat="45.647632927452854" lon="11.342431472182739"><ele>688.0</ele><time>2026-04-01T13:29:26Z</time></trkpt><trkpt lat="45.647557951454196" lon="11.342418612521262"><ele>688.0</ele><time>2026-04-01T13:29:27Z</time></trkpt><trkpt lat="45.64748570530397" lon="11.342409664226247"><ele>688.0</ele><time>2026-04-01T13:29:28Z</time></trkpt><trkpt lat="45.64739817275574" lon="11.342294059709396"><ele>684.4</ele><time>2026-04-01T13:29:30Z</time></trkpt><trkpt lat="45.647379901601106" lon="11.342164620662183"><ele>680.8</ele><time>2026-04-01T13:29:32Z</time></trkpt><trkpt lat="45.64741419117126" lon="11.342002052877477"><ele>677.2</ele><time>2026-04-01T13:29:34Z</time></trkpt><trkpt lat="45.6474394017524" lon="11.341910384401448"><ele>673.6</ele><time>2026-04-01T13:29:35Z</time></trkpt><trkpt lat="45.64750643245598" lon="11.341762549773819"><ele>670.0</ele><time>2026-04-01T13:29:37Z</time></trkpt><trkpt lat="45.64754834795397" lon="11.341645826431872"><ele>669.9999999999999</ele><time>2026-04-01T13:29:38Z</time></trkpt><trkpt lat="45.647594950297744" lon="11.341575823659957"><ele>670.0</ele><time>2026-04-01T13:29:39Z</time></trkpt><trkpt lat="45.64764357273806" lon="11.341517197277144"><ele>670.0</ele><time>2026-04-01T13:29:40Z</time></trkpt><trkpt lat="45.64770392574826" lon="11.34145329173597"><ele>670.0</ele><time>2026-04-01T13:29:41Z</time></trkpt><trkpt lat="45.64776483075927" lon="11.341377849595325"><ele>670.0</ele><time>2026-04-01T13:29:42Z</time></trkpt><trkpt lat="45.64782557564662" lon="11.341333168352497"><ele>669.9999999999999</ele><time>2026-04-01T13:29:43Z</time></trkpt><trkpt lat="45.64788652961257" lon="11.341303838173127"><ele>670.0</ele><time>2026-04-01T13:29:44Z</time></trkpt><trkpt lat="45.647946270805754" lon="11.341272453712396"><ele>668.5</ele><time>2026-04-01T13:29:45Z</time></trkpt><trkpt lat="45.648020949476994" lon="11.341244269527769"><ele>667.0</ele><time>2026-04-01T13:29:46Z</time></trkpt><trkpt lat="45.64809007666232" lon="11.34119431644109"><ele>665.5</ele><time>2026-04-01T13:29:47Z</time></trkpt><trkpt lat="45.648168040316136" lon="11.341164738464846"><ele>664.0</ele><time>2026-04-01T13:29:48Z</time></trkpt><trkpt lat="45.648268313760056" lon="11.341141906242882"><ele>662.5</ele><time>2026-04-01T13:29:49Z</time></trkpt><trkpt lat="45.648364533867046" lon="11.341131118919892"><ele>661.0</ele><time>2026-04-01T13:29:50Z</time></trkpt><trkpt lat="45.64844712608502" lon="11.341115428834653"><ele>661.0</ele><time>2026-04-01T13:29:51Z</time></trkpt><trkpt lat="45.648550410050696" lon="11.341107354909875"><ele>661.0</ele><time>2026-04-01T13:29:52Z</time></trkpt><trkpt lat="45.64864855156707" lon="11.341103487527215"><ele>661.0</ele><time>2026-04-01T13:29:53Z</time></trkpt><trkpt lat="45.64873379460145" lon="11.34109401760083"><ele>661.0</ele><time>2026-04-01T13:29:54Z</time></trkpt><trkpt lat="45.648809242877476" lon="11.341094964067786"><ele>661.0</ele><time>2026-04-01T13:29:55Z</time></trkpt><trkpt lat="45.64888044037197" lon="11.341113292864193"><ele>661.0</ele><time>2026-04-01T13:29:56Z</time></trkpt><trkpt lat="45.64895454221049" lon="11.341129590067084"><ele>661.1999999999999</ele><time>2026-04-01T13:29:57Z</time></trkpt><trkpt lat="45.64902003781951" lon="11.341156175474895"><ele>661.4</ele><time>2026-04-01T13:29:58Z</time></trkpt><trkpt lat="45.64913482096877" lon="11.341212975869894"><ele>661.6</ele><time>2026-04-01T13:30:00Z</time></trkpt><trkpt lat="45.64926026418871" lon="11.34128115771292"><ele>661.8</ele><time>2026-04-01T13:30:02Z</time></trkpt><trkpt lat="45.64936288015993" lon="11.341344102420946"><ele>662.0</ele><time>2026-04-01T13:30:03Z</time></trkpt><trkpt lat="45.64947453009317" lon="11.3414100574115"><ele>662.0</ele><time>2026-04-01T13:30:04Z</time></trkpt><trkpt lat="45.64957035752345" lon="11.341473855681796"><ele>662.0</ele><time>2026-04-01T13:30:05Z</time></trkpt><trkpt lat="45.64965826273428" lon="11.341514696575436"><ele>662.0</ele><time>2026-04-01T13:30:06Z</time></trkpt><trkpt lat="45.64974907595392" lon="11.341518856193138"><ele>662.0</ele><time>2026-04-01T13:30:07Z</time></trkpt><trkpt lat="45.64984305591914" lon="11.341493732621844"><ele>662.0</ele><time>2026-04-01T13:30:08Z</time></trkpt><trkpt lat="45.64992154012576" lon="11.34147543247417"><ele>662.0</ele><time>2026-04-01T13:30:09Z</time></trkpt><trkpt lat="45.64999706454146" lon="11.341458524230363"><ele>662.0</ele><time>2026-04-01T13:30:10Z</time></trkpt><trkpt lat="45.65006495174354" lon="11.341454119225741"><ele>662.0</ele><time>2026-04-01T13:30:11Z</time></trkpt><trkpt lat="45.65012815927854" lon="11.341476274279366"><ele>662.0</ele><time>2026-04-01T13:30:12Z</time></trkpt><trkpt lat="45.65018492237185" lon="11.341515456853742"><ele>662.0</ele><time>2026-04-01T13:30:13Z</time></trkpt><trkpt lat="45.65021339620631" lon="11.341595980143241"><ele>662.0</ele><time>2026-04-01T13:30:14Z</time></trkpt><trkpt lat="45.65027872119066" lon="11.341635217919437"><ele>662.0</ele><time>2026-04-01T13:30:15Z</time></trkpt><trkpt lat="45.65036129767574" lon="11.34168462712025"><ele>659.8</ele><time>2026-04-01T13:30:16Z</time></trkpt><trkpt lat="45.65042835818854" lon="11.341693774506144"><ele>657.6</ele><time>2026-04-01T13:30:17Z</time></trkpt><trkpt lat="45.6505135991312" lon="11.341690599484242"><ele>655.4</ele><time>2026-04-01T13:30:18Z</time></trkpt><trkpt lat="45.650561823171074" lon="11.341629648707904"><ele>653.1999999999999</ele><time>2026-04-01T13:30:19Z</time></trkpt><trkpt lat="45.650672253680504" lon="11.341586935669243"><ele>651.0</ele><time>2026-04-01T13:30:21Z</time></trkpt><trkpt lat="45.65079507396829" lon="11.341601708705486"><ele>651.0</ele><time>2026-04-01T13:30:23Z</time></trkpt><trkpt lat="45.650857690039516" lon="11.341642501367538"><ele>651.0</ele><time>2026-04-01T13:30:24Z</time></trkpt><trkpt lat="45.650918943618905" lon="11.341690675592849"><ele>651.0</ele><time>2026-04-01T13:30:25Z</time></trkpt><trkpt lat="45.650979630815414" lon="11.341731435015088"><ele>651.0</ele><time>2026-04-01T13:30:26Z</time></trkpt><trkpt lat="45.65104207747395" lon="11.341759852683367"><ele>651.0</ele><time>2026-04-01T13:30:27Z</time></trkpt><trkpt lat="45.65111189644122" lon="11.341775859221363"><ele>651.0</ele><time>2026-04-01T13:30:28Z</time></trkpt><trkpt lat="45.65118457976351" lon="11.341775059931708"><ele>651.0</ele><time>2026-04-01T13:30:29Z</time></trkpt><trkpt lat="45.65125701604461" lon="11.341770380283167"><ele>649.0</ele><time>2026-04-01T13:30:30Z</time></trkpt><trkpt lat="45.65134424209761" lon="11.341763836986644"><ele>647.0</ele><time>2026-04-01T13:30:31Z</time></trkpt><trkpt lat="45.6514288123681" lon="11.341780462904179"><ele>645.0</ele><time>2026-04-01T13:30:32Z</time></trkpt><trkpt lat="45.65150089491141" lon="11.341778682241259"><ele>643.0</ele><time>2026-04-01T13:30:33Z</time></trkpt><trkpt lat="45.651577750611786" lon="11.341804055298892"><ele>641.0</ele><time>2026-04-01T13:30:34Z</time></trkpt><trkpt lat="45.65165096942775" lon="11.34183427604873"><ele>639.0</ele><time>2026-04-01T13:30:35Z</time></trkpt><trkpt lat="45.65171719726437" lon="11.341870389619022"><ele>639.0</ele><time>2026-04-01T13:30:36Z</time></trkpt><trkpt lat="45.65179022629189" lon="11.34191228063573"><ele>639.0</ele><time>2026-04-01T13:30:37Z</time></trkpt><trkpt lat="45.651840436069435" lon="11.341986936638305"><ele>639.0</ele><time>2026-04-01T13:30:38Z</time></trkpt><trkpt lat="45.65188841829434" lon="11.342053658128654"><ele>639.0</ele><time>2026-04-01T13:30:39Z</time></trkpt><trkpt lat="45.651919476475385" lon="11.342210650413943"><ele>639.0</ele><time>2026-04-01T13:30:41Z</time></trkpt><trkpt lat="45.65194484347786" lon="11.342293205655531"><ele>639.0</ele><time>2026-04-01T13:30:42Z</time></trkpt><trkpt lat="45.65198840562613" lon="11.342403225994957"><ele>634.0</ele><time>2026-04-01T13:30:43Z</time></trkpt><trkpt lat="45.652031438383844" lon="11.342491732041823"><ele>629.0</ele><time>2026-04-01T13:30:44Z</time></trkpt><trkpt lat="45.652088814872975" lon="11.342581939223777"><ele>624.0</ele><time>2026-04-01T13:30:45Z</time></trkpt><trkpt lat="45.65214461133641" lon="11.342648592459337"><ele>619.0</ele><time>2026-04-01T13:30:46Z</time></trkpt><trkpt lat="45.652255011159454" lon="11.342739390326736"><ele>614.0</ele><time>2026-04-01T13:30:47Z</time></trkpt><trkpt lat="45.652347340700274" lon="11.34280798042102"><ele>614.0</ele><time>2026-04-01T13:30:48Z</time></trkpt><trkpt lat="45.65241686270589" lon="11.342859460928763"><ele>614.0</ele><time>2026-04-01T13:30:49Z</time></trkpt><trkpt lat="45.65248726334745" lon="11.342905203970242"><ele>614.0</ele><time>2026-04-01T13:30:50Z</time></trkpt><trkpt lat="45.652558801546014" lon="11.342961969127398"><ele>614.0</ele><time>2026-04-01T13:30:51Z</time></trkpt><trkpt lat="45.65265092147609" lon="11.34303963120851"><ele>614.0</ele><time>2026-04-01T13:30:52Z</time></trkpt><trkpt lat="45.65273080173644" lon="11.343102724633603"><ele>614.0</ele><time>2026-04-01T13:30:53Z</time></trkpt><trkpt lat="45.65278681866729" lon="11.343148144726765"><ele>611.3333333333333</ele><time>2026-04-01T13:30:54Z</time></trkpt><trkpt lat="45.65285515268318" lon="11.343197252208004"><ele>608.6666666666666</ele><time>2026-04-01T13:30:55Z</time></trkpt><trkpt lat="45.65291699028998" lon="11.343231558240454"><ele>606.0</ele><time>2026-04-01T13:30:56Z</time></trkpt><trkpt lat="45.652991022542444" lon="11.343266642640922"><ele>603.3333333333334</ele><time>2026-04-01T13:30:57Z</time></trkpt><trkpt lat="45.65302920169472" lon="11.343347730617761"><ele>600.6666666666667</ele><time>2026-04-01T13:30:58Z</time></trkpt><trkpt lat="45.65309536887068" lon="11.343460176230566"><ele>598.0</ele><time>2026-04-01T13:31:00Z</time></trkpt><trkpt lat="45.653181638353956" lon="11.343584636808842"><ele>598.0</ele><time>2026-04-01T13:31:02Z</time></trkpt><trkpt lat="45.65320784414132" lon="11.343702324368143"><ele>598.0</ele><time>2026-04-01T13:31:03Z</time></trkpt><trkpt lat="45.653270270898744" lon="11.343840156559638"><ele>598.0</ele><time>2026-04-01T13:31:05Z</time></trkpt><trkpt lat="45.65330751766801" lon="11.343974585118703"><ele>598.0</ele><time>2026-04-01T13:31:07Z</time></trkpt><trkpt lat="45.65336528236497" lon="11.34409932072912"><ele>598.0</ele><time>2026-04-01T13:31:09Z</time></trkpt><trkpt lat="45.6534377956724" lon="11.34419627309267"><ele>599.4</ele><time>2026-04-01T13:31:11Z</time></trkpt><trkpt lat="45.65355712919701" lon="11.344196063301796"><ele>600.8</ele><time>2026-04-01T13:31:13Z</time></trkpt><trkpt lat="45.65365105970388" lon="11.344174282571407"><ele>602.2</ele><time>2026-04-01T13:31:14Z</time></trkpt><trkpt lat="45.6537276839263" lon="11.344239121176603"><ele>603.6</ele><time>2026-04-01T13:31:15Z</time></trkpt><trkpt lat="45.65384181125556" lon="11.344298602208989"><ele>605.0</ele><time>2026-04-01T13:31:17Z</time></trkpt><trkpt lat="45.65390787224341" lon="11.344338196731067"><ele>602.5</ele><time>2026-04-01T13:31:18Z</time></trkpt><trkpt lat="45.65398667463557" lon="11.344375230126783"><ele>600.0</ele><time>2026-04-01T13:31:19Z</time></trkpt><trkpt lat="45.654059031427686" lon="11.344419849429025"><ele>597.5</ele><time>2026-04-01T13:31:20Z</time></trkpt><trkpt lat="45.654126100780054" lon="11.344463353877988"><ele>595.0</ele><time>2026-04-01T13:31:21Z</time></trkpt><trkpt lat="45.6542256431291" lon="11.344520168086433"><ele>592.5</ele><time>2026-04-01T13:31:23Z</time></trkpt><trkpt lat="45.654289788151836" lon="11.344579332675249"><ele>590.0</ele><time>2026-04-01T13:31:25Z</time></trkpt><trkpt lat="45.654366643332715" lon="11.34468292048825"><ele>590.0</ele><time>2026-04-01T13:31:30Z</time></trkpt><trkpt lat="45.65443665283474" lon="11.344649228431035"><ele>590.0</ele><time>2026-04-01T13:31:32Z</time></trkpt><trkpt lat="45.65460070285007" lon="11.344300206203993"><ele>590.0</ele><time>2026-04-01T13:31:35Z</time></trkpt><trkpt lat="45.65468374028098" lon="11.344248732398647"><ele>590.3333333333333</ele><time>2026-04-01T13:31:37Z</time></trkpt><trkpt lat="45.65478116809054" lon="11.34424738277488"><ele>590.6666666666666</ele><time>2026-04-01T13:31:39Z</time></trkpt><trkpt lat="45.65484800045494" lon="11.344232121178381"><ele>591.0</ele><time>2026-04-01T13:31:40Z</time></trkpt><trkpt lat="45.65493277436784" lon="11.344209955974067"><ele>591.3333333333334</ele><time>2026-04-01T13:31:42Z</time></trkpt><trkpt lat="45.655021452894914" lon="11.344168233105005"><ele>591.6666666666667</ele><time>2026-04-01T13:31:52Z</time></trkpt><trkpt lat="45.65509078267048" lon="11.344120316825798"><ele>592.0</ele><time>2026-04-01T13:31:55Z</time></trkpt><trkpt lat="45.65515929627368" lon="11.344086735898246"><ele>592.0</ele><time>2026-04-01T13:31:59Z</time></trkpt><trkpt lat="45.655209160396396" lon="11.344028018919968"><ele>592.0</ele><time>2026-04-01T13:32:02Z</time></trkpt><trkpt lat="45.655270574430496" lon="11.343925203153319"><ele>592.0</ele><time>2026-04-01T13:32:05Z</time></trkpt><trkpt lat="45.65533129656735" lon="11.34383123185494"><ele>592.0</ele><time>2026-04-01T13:32:08Z</time></trkpt><trkpt lat="45.65538928075216" lon="11.343735490518648"><ele>592.0</ele><time>2026-04-01T13:32:11Z</time></trkpt><trkpt lat="45.65542382653058" lon="11.34363308914192"><ele>592.0</ele><time>2026-04-01T13:32:13Z</time></trkpt><trkpt lat="45.65547126819713" lon="11.343551607094165"><ele>592.8333333333334</ele><time>2026-04-01T13:32:18Z</time></trkpt><trkpt lat="45.655530755048005" lon="11.343462384143763"><ele>593.6666666666667</ele><time>2026-04-01T13:32:20Z</time></trkpt><trkpt lat="45.65560335658406" lon="11.343382373883834"><ele>594.5</ele><time>2026-04-01T13:32:22Z</time></trkpt><trkpt lat="45.65564463261124" lon="11.343293944686096"><ele>595.3333333333334</ele><time>2026-04-01T13:32:24Z</time></trkpt><trkpt lat="45.655692977139466" lon="11.343189707037165"><ele>596.1666666666666</ele><time>2026-04-01T13:32:27Z</time></trkpt><trkpt lat="45.655733737072296" lon="11.34307820703437"><ele>597.0</ele><time>2026-04-01T13:32:29Z</time></trkpt><trkpt lat="45.65579146071094" lon="11.342966219552777"><ele>600.0</ele><time>2026-04-01T13:32:31Z</time></trkpt><trkpt lat="45.65585938579062" lon="11.342865649866686"><ele>603.0</ele><time>2026-04-01T13:32:34Z</time></trkpt><trkpt lat="45.65593751892221" lon="11.34273184898158"><ele>606.0</ele><time>2026-04-01T13:32:36Z</time></trkpt><trkpt lat="45.65598433924119" lon="11.34262269746088"><ele>609.0</ele><time>2026-04-01T13:32:38Z</time></trkpt><trkpt lat="45.65605197654317" lon="11.342519718264901"><ele>612.0</ele><time>2026-04-01T13:32:41Z</time></trkpt><trkpt lat="45.656101468571535" lon="11.34241055155844"><ele>606.6</ele><time>2026-04-01T13:32:43Z</time></trkpt><trkpt lat="45.65612072121238" lon="11.342319388242638"><ele>601.2</ele><time>2026-04-01T13:32:45Z</time></trkpt><trkpt lat="45.65616470121361" lon="11.342164767871948"><ele>595.8</ele><time>2026-04-01T13:32:47Z</time></trkpt><trkpt lat="45.65620428991936" lon="11.342018929071674"><ele>590.4</ele><time>2026-04-01T13:32:49Z</time></trkpt><trkpt lat="45.656265573009314" lon="11.341867332565656"><ele>585.0</ele><time>2026-04-01T13:32:51Z</time></trkpt><trkpt lat="45.656301084716674" lon="11.341732733280695"><ele>585.0</ele><time>2026-04-01T13:32:53Z</time></trkpt><trkpt lat="45.656339479172615" lon="11.341636019092615"><ele>585.0</ele><time>2026-04-01T13:32:54Z</time></trkpt><trkpt lat="45.656358211838615" lon="11.341523708354485"><ele>585.0</ele><time>2026-04-01T13:32:55Z</time></trkpt><trkpt lat="45.65641894917772" lon="11.341413864299033"><ele>585.0</ele><time>2026-04-01T13:32:56Z</time></trkpt><trkpt lat="45.6564809051729" lon="11.34130679787355"><ele>585.0</ele><time>2026-04-01T13:32:58Z</time></trkpt><trkpt lat="45.65654254786195" lon="11.341217598034907"><ele>585.0</ele><time>2026-04-01T13:33:00Z</time></trkpt><trkpt lat="45.656616826895906" lon="11.341203951397116"><ele>584.8333333333334</ele><time>2026-04-01T13:33:02Z</time></trkpt><trkpt lat="45.65669981281829" lon="11.341252414976807"><ele>584.6666666666666</ele><time>2026-04-01T13:33:04Z</time></trkpt><trkpt lat="45.656786595875865" lon="11.341261232380797"><ele>584.5</ele><time>2026-04-01T13:33:06Z</time></trkpt><trkpt lat="45.65686057296788" lon="11.341193522679212"><ele>584.3333333333333</ele><time>2026-04-01T13:33:08Z</time></trkpt><trkpt lat="45.656913756680915" lon="11.34113426601918"><ele>584.1666666666666</ele><time>2026-04-01T13:33:09Z</time></trkpt><trkpt lat="45.656985022307026" lon="11.341066388133878"><ele>584.0</ele><time>2026-04-01T13:33:11Z</time></trkpt><trkpt lat="45.65702888156111" lon="11.34100113685535"><ele>584.0</ele><time>2026-04-01T13:33:12Z</time></trkpt><trkpt lat="45.65709522557644" lon="11.340933321893854"><ele>584.0</ele><time>2026-04-01T13:33:13Z</time></trkpt><trkpt lat="45.657165209784736" lon="11.340874614550419"><ele>584.0</ele><time>2026-04-01T13:33:14Z</time></trkpt><trkpt lat="45.657268667917265" lon="11.34079879731843"><ele>584.0</ele><time>2026-04-01T13:33:16Z</time></trkpt><trkpt lat="45.6573471154343" lon="11.340736328352044"><ele>584.0</ele><time>2026-04-01T13:33:18Z</time></trkpt><trkpt lat="45.65743518913842" lon="11.340622973783313"><ele>584.0</ele><time>2026-04-01T13:33:20Z</time></trkpt><trkpt lat="45.65751352513782" lon="11.340568554516526"><ele>584.0</ele><time>2026-04-01T13:33:21Z</time></trkpt><trkpt lat="45.657587695641496" lon="11.340526632684906"><ele>584.0</ele><time>2026-04-01T13:33:22Z</time></trkpt><trkpt lat="45.65769910792056" lon="11.340509795770005"><ele>584.0</ele><time>2026-04-01T13:33:24Z</time></trkpt><trkpt lat="45.65780303223913" lon="11.340553121675676"><ele>584.0</ele><time>2026-04-01T13:33:26Z</time></trkpt><trkpt lat="45.657910473972905" lon="11.340541518064672"><ele>585.3333333333333</ele><time>2026-04-01T13:33:28Z</time></trkpt><trkpt lat="45.65799106271659" lon="11.340458389368333"><ele>586.6666666666666</ele><time>2026-04-01T13:33:30Z</time></trkpt><trkpt lat="45.6580516106452" lon="11.340403455746445"><ele>588.0</ele><time>2026-04-01T13:33:31Z</time></trkpt><trkpt lat="45.65812380238342" lon="11.340360260199043"><ele>589.3333333333334</ele><time>2026-04-01T13:33:32Z</time></trkpt><trkpt lat="45.65819280709046" lon="11.340335052890849"><ele>590.6666666666667</ele><time>2026-04-01T13:33:33Z</time></trkpt><trkpt lat="45.65827562698245" lon="11.340324696708153"><ele>592.0</ele><time>2026-04-01T13:33:35Z</time></trkpt><trkpt lat="45.658335822341655" lon="11.340275045068946"><ele>592.0</ele><time>2026-04-01T13:33:37Z</time></trkpt><trkpt lat="45.65847921110565" lon="11.340197245836412"><ele>592.0</ele><time>2026-04-01T13:33:39Z</time></trkpt><trkpt lat="45.658348267578575" lon="11.340126202066367"><ele>592.0</ele><time>2026-04-01T13:33:40Z</time></trkpt><trkpt lat="45.65836285711387" lon="11.339949702625661"><ele>592.0</ele><time>2026-04-01T13:33:42Z</time></trkpt><trkpt lat="45.65839156861753" lon="11.339797079715566"><ele>595.0</ele><time>2026-04-01T13:33:44Z</time></trkpt><trkpt lat="45.658427521849426" lon="11.339693159334105"><ele>598.0</ele><time>2026-04-01T13:33:46Z</time></trkpt><trkpt lat="45.65846539497525" lon="11.339610042894332"><ele>601.0</ele><time>2026-04-01T13:33:49Z</time></trkpt><trkpt lat="45.65832840486963" lon="11.339418153222406"><ele>604.0</ele><time>2026-04-01T13:33:53Z</time></trkpt><trkpt lat="45.65825564215777" lon="11.339380999460456"><ele>607.0</ele><time>2026-04-01T13:33:55Z</time></trkpt><trkpt lat="45.65817921137304" lon="11.33940240173326"><ele>607.0</ele><time>2026-04-01T13:33:58Z</time></trkpt><trkpt lat="45.65810645556408" lon="11.339508908735242"><ele>607.0</ele><time>2026-04-01T13:34:00Z</time></trkpt><trkpt lat="45.65805517806936" lon="11.339629576233174"><ele>607.0</ele><time>2026-04-01T13:34:02Z</time></trkpt><trkpt lat="45.657991581937175" lon="11.339592412964326"><ele>607.0</ele><time>2026-04-01T13:34:05Z</time></trkpt><trkpt lat="45.65794044134628" lon="11.339530154519496"><ele>607.0</ele><time>2026-04-01T13:34:07Z</time></trkpt><trkpt lat="45.65786315124672" lon="11.339392309481022"><ele>607.0</ele><time>2026-04-01T13:34:09Z</time></trkpt><trkpt lat="45.657812462789785" lon="11.339266462954011"><ele>607.0</ele><time>2026-04-01T13:34:11Z</time></trkpt><trkpt lat="45.65777753796444" lon="11.339168445902853"><ele>607.0</ele><time>2026-04-01T13:34:12Z</time></trkpt><trkpt lat="45.65772401420743" lon="11.339089729770397"><ele>607.0</ele><time>2026-04-01T13:34:13Z</time></trkpt><trkpt lat="45.65763197228841" lon="11.339018652005862"><ele>607.0</ele><time>2026-04-01T13:34:15Z</time></trkpt><trkpt lat="45.65754534873397" lon="11.33904901817529"><ele>607.0</ele><time>2026-04-01T13:34:17Z</time></trkpt><trkpt lat="45.65751925106006" lon="11.339195019499408"><ele>608.3333333333334</ele><time>2026-04-01T13:34:19Z</time></trkpt><trkpt lat="45.65749070064893" lon="11.339299242050817"><ele>609.6666666666667</ele><time>2026-04-01T13:34:20Z</time></trkpt><trkpt lat="45.657454555484875" lon="11.339379054331012"><ele>611.0</ele><time>2026-04-01T13:34:22Z</time></trkpt><trkpt lat="45.65737344500878" lon="11.339349333608503"><ele>612.3333333333334</ele><time>2026-04-01T13:34:26Z</time></trkpt><trkpt lat="45.65729472279349" lon="11.339288305910912"><ele>613.6666666666666</ele><time>2026-04-01T13:34:28Z</time></trkpt><trkpt lat="45.65723882468578" lon="11.339226480603138"><ele>615.0</ele><time>2026-04-01T13:34:30Z</time></trkpt><trkpt lat="45.65722972910219" lon="11.339114221998727"><ele>615.0</ele><time>2026-04-01T13:34:33Z</time></trkpt><trkpt lat="45.65721972345405" lon="11.339024014583462"><ele>615.0</ele><time>2026-04-01T13:34:39Z</time></trkpt><trkpt lat="45.65720042213878" lon="11.33889335348761"><ele>615.0</ele><time>2026-04-01T13:34:43Z</time></trkpt><trkpt lat="45.6571538693649" lon="11.338797903585764"><ele>615.0</ele><time>2026-04-01T13:34:45Z</time></trkpt><trkpt lat="45.657131555697404" lon="11.338691866269219"><ele>615.0</ele><time>2026-04-01T13:34:47Z</time></trkpt><trkpt lat="45.657150947064764" lon="11.338589341088925"><ele>615.0</ele><time>2026-04-01T13:34:49Z</time></trkpt><trkpt lat="45.657205058214316" lon="11.338472508973734"><ele>618.4</ele><time>2026-04-01T13:34:51Z</time></trkpt><trkpt lat="45.65730155632613" lon="11.338328817675604"><ele>621.8</ele><time>2026-04-01T13:34:53Z</time></trkpt><trkpt lat="45.65735223471068" lon="11.338253690109811"><ele>625.2</ele><time>2026-04-01T13:34:54Z</time></trkpt><trkpt lat="45.65741995206191" lon="11.338161112878586"><ele>628.6</ele><time>2026-04-01T13:34:56Z</time></trkpt><trkpt lat="45.65746746653709" lon="11.338084590555155"><ele>632.0</ele><time>2026-04-01T13:34:57Z</time></trkpt><trkpt lat="45.657560467182876" lon="11.337960624643376"><ele>634.0</ele><time>2026-04-01T13:34:59Z</time></trkpt><trkpt lat="45.65759092773314" lon="11.33785448825646"><ele>636.0</ele><time>2026-04-01T13:35:00Z</time></trkpt><trkpt lat="45.65762319439568" lon="11.337710927986455"><ele>638.0</ele><time>2026-04-01T13:35:02Z</time></trkpt><trkpt lat="45.65767491290997" lon="11.33762215987762"><ele>640.0</ele><time>2026-04-01T13:35:03Z</time></trkpt><trkpt lat="45.657710231655194" lon="11.337498409110903"><ele>642.0</ele><time>2026-04-01T13:35:05Z</time></trkpt><trkpt lat="45.657712519896165" lon="11.33737758859415"><ele>644.0</ele><time>2026-04-01T13:35:06Z</time></trkpt><trkpt lat="45.657703567463656" lon="11.337268568888982"><ele>645.6</ele><time>2026-04-01T13:35:07Z</time></trkpt><trkpt lat="45.65769423445874" lon="11.337135183406572"><ele>647.2</ele><time>2026-04-01T13:35:10Z</time></trkpt><trkpt lat="45.657698229160175" lon="11.336992441468078"><ele>648.8000000000001</ele><time>2026-04-01T13:35:13Z</time></trkpt><trkpt lat="45.657727671001545" lon="11.336875184636057"><ele>650.4000000000001</ele><time>2026-04-01T13:35:15Z</time></trkpt><trkpt lat="45.65769093264992" lon="11.336732629898185"><ele>652.0</ele><time>2026-04-01T13:35:17Z</time></trkpt><trkpt lat="45.65765241009072" lon="11.336585037213123"><ele>652.0</ele><time>2026-04-01T13:35:20Z</time></trkpt><trkpt lat="45.65759502050566" lon="11.336464483864427"><ele>652.0</ele><time>2026-04-01T13:35:22Z</time></trkpt><trkpt lat="45.6575832257205" lon="11.336342681970454"><ele>652.0</ele><time>2026-04-01T13:35:24Z</time></trkpt><trkpt lat="45.657630518212066" lon="11.33627433354767"><ele>652.0</ele><time>2026-04-01T13:35:25Z</time></trkpt><trkpt lat="45.657684184055874" lon="11.336191214015903"><ele>652.0</ele><time>2026-04-01T13:35:26Z</time></trkpt><trkpt lat="45.65774242310507" lon="11.336120379442622"><ele>652.0</ele><time>2026-04-01T13:35:27Z</time></trkpt><trkpt lat="45.65781316582068" lon="11.336053500623038"><ele>653.8333333333334</ele><time>2026-04-01T13:35:28Z</time></trkpt><trkpt lat="45.65787526589225" lon="11.335993714450826"><ele>655.6666666666667</ele><time>2026-04-01T13:35:29Z</time></trkpt><trkpt lat="45.65793766745205" lon="11.335932034025092"><ele>657.5</ele><time>2026-04-01T13:35:30Z</time></trkpt><trkpt lat="45.658012581635774" lon="11.335844940013278"><ele>659.3333333333334</ele><time>2026-04-01T13:35:31Z</time></trkpt><trkpt lat="45.658099466088714" lon="11.335752379805587"><ele>661.1666666666666</ele><time>2026-04-01T13:35:32Z</time></trkpt><trkpt lat="45.658172397788796" lon="11.335697189914665"><ele>663.0</ele><time>2026-04-01T13:35:33Z</time></trkpt><trkpt lat="45.65824036271124" lon="11.335701135041106"><ele>662.9999999999999</ele><time>2026-04-01T13:35:34Z</time></trkpt><trkpt lat="45.65830236984988" lon="11.335751538287349"><ele>663.0</ele><time>2026-04-01T13:35:35Z</time></trkpt><trkpt lat="45.658350639053616" lon="11.335828466493671"><ele>663.0</ele><time>2026-04-01T13:35:36Z</time></trkpt><trkpt lat="45.65839782911707" lon="11.33590314443325"><ele>663.0</ele><time>2026-04-01T13:35:37Z</time></trkpt><trkpt lat="45.658460300997874" lon="11.335984675224923"><ele>663.0</ele><time>2026-04-01T13:35:38Z</time></trkpt><trkpt lat="45.658529930347605" lon="11.336037321018615"><ele>662.9999999999999</ele><time>2026-04-01T13:35:39Z</time></trkpt><trkpt lat="45.65859843463782" lon="11.336032395597156"><ele>663.0</ele><time>2026-04-01T13:35:40Z</time></trkpt><trkpt lat="45.65865856762595" lon="11.33599658043448"><ele>665.4</ele><time>2026-04-01T13:35:41Z</time></trkpt><trkpt lat="45.65876189018989" lon="11.335851724278479"><ele>667.8</ele><time>2026-04-01T13:35:43Z</time></trkpt><trkpt lat="45.65879264560849" lon="11.335725781073334"><ele>670.2</ele><time>2026-04-01T13:35:44Z</time></trkpt><trkpt lat="45.65880454665882" lon="11.335609593076814"><ele>672.6</ele><time>2026-04-01T13:35:45Z</time></trkpt><trkpt lat="45.65880085453487" lon="11.335491151130643"><ele>675.0</ele><time>2026-04-01T13:35:46Z</time></trkpt><trkpt lat="45.65879907974751" lon="11.335370483215518"><ele>675.0</ele><time>2026-04-01T13:35:47Z</time></trkpt><trkpt lat="45.6587954115166" lon="11.335253125998273"><ele>675.0</ele><time>2026-04-01T13:35:48Z</time></trkpt><trkpt lat="45.65878331482735" lon="11.335120880591306"><ele>675.0</ele><time>2026-04-01T13:35:49Z</time></trkpt><trkpt lat="45.65878289087064" lon="11.334975778989852"><ele>675.0</ele><time>2026-04-01T13:35:50Z</time></trkpt><trkpt lat="45.65878835573632" lon="11.334834934674648"><ele>675.0</ele><time>2026-04-01T13:35:51Z</time></trkpt><trkpt lat="45.65879248838972" lon="11.334677300239312"><ele>676.0</ele><time>2026-04-01T13:35:52Z</time></trkpt><trkpt lat="45.658800920735644" lon="11.33452127346428"><ele>677.0</ele><time>2026-04-01T13:35:53Z</time></trkpt><trkpt lat="45.65881923486338" lon="11.334385773781621"><ele>678.0</ele><time>2026-04-01T13:35:54Z</time></trkpt><trkpt lat="45.65888388151076" lon="11.334289875193408"><ele>679.0</ele><time>2026-04-01T13:35:55Z</time></trkpt><trkpt lat="45.65895267017641" lon="11.334182026399587"><ele>680.0</ele><time>2026-04-01T13:35:56Z</time></trkpt><trkpt lat="45.65903351350717" lon="11.33407445856098"><ele>680.0</ele><time>2026-04-01T13:35:57Z</time></trkpt><trkpt lat="45.659105000241986" lon="11.3339760630308"><ele>680.0</ele><time>2026-04-01T13:35:58Z</time></trkpt><trkpt lat="45.65918079586535" lon="11.333879970163402"><ele>680.0</ele><time>2026-04-01T13:35:59Z</time></trkpt><trkpt lat="45.65925076092828" lon="11.333778887292414"><ele>680.0</ele><time>2026-04-01T13:36:00Z</time></trkpt><trkpt lat="45.659311815980374" lon="11.333670402996173"><ele>680.0</ele><time>2026-04-01T13:36:01Z</time></trkpt><trkpt lat="45.659383436625895" lon="11.333550728210588"><ele>679.8</ele><time>2026-04-01T13:36:02Z</time></trkpt><trkpt lat="45.659444739931295" lon="11.333421582835513"><ele>679.6</ele><time>2026-04-01T13:36:03Z</time></trkpt><trkpt lat="45.659492301997474" lon="11.333295495889104"><ele>679.4000000000001</ele><time>2026-04-01T13:36:04Z</time></trkpt><trkpt lat="45.65952192991341" lon="11.333154868232894"><ele>679.2</ele><time>2026-04-01T13:36:05Z</time></trkpt><trkpt lat="45.659540189423815" lon="11.333013733689723"><ele>679.0</ele><time>2026-04-01T13:36:06Z</time></trkpt><trkpt lat="45.65954110176354" lon="11.332885786680148"><ele>679.0</ele><time>2026-04-01T13:36:07Z</time></trkpt><trkpt lat="45.65953257601823" lon="11.332773892910838"><ele>679.0</ele><time>2026-04-01T13:36:08Z</time></trkpt><trkpt lat="45.65951579016747" lon="11.332648526033235"><ele>679.0</ele><time>2026-04-01T13:36:09Z</time></trkpt><trkpt lat="45.65950081945067" lon="11.33252062976477"><ele>679.0</ele><time>2026-04-01T13:36:10Z</time></trkpt><trkpt lat="45.65948689718431" lon="11.332389306123995"><ele>679.0</ele><time>2026-04-01T13:36:11Z</time></trkpt><trkpt lat="45.65948519882414" lon="11.332253508325739"><ele>679.0</ele><time>2026-04-01T13:36:12Z</time></trkpt><trkpt lat="45.65948733081999" lon="11.332123155737161"><ele>681.4000000000001</ele><time>2026-04-01T13:36:13Z</time></trkpt><trkpt lat="45.65949948246453" lon="11.331999004766015"><ele>683.8</ele><time>2026-04-01T13:36:14Z</time></trkpt><trkpt lat="45.65955260751525" lon="11.331867449247005"><ele>686.2</ele><time>2026-04-01T13:36:15Z</time></trkpt><trkpt lat="45.659620256263835" lon="11.331764517553134"><ele>688.5999999999999</ele><time>2026-04-01T13:36:16Z</time></trkpt><trkpt lat="45.65970812092094" lon="11.331664429415596"><ele>691.0</ele><time>2026-04-01T13:36:17Z</time></trkpt><trkpt lat="45.65978086863235" lon="11.331570141133147"><ele>691.0</ele><time>2026-04-01T13:36:18Z</time></trkpt><trkpt lat="45.65985669224356" lon="11.331478307887489"><ele>691.0</ele><time>2026-04-01T13:36:19Z</time></trkpt><trkpt lat="45.65993272801033" lon="11.331372916947505"><ele>691.0</ele><time>2026-04-01T13:36:20Z</time></trkpt><trkpt lat="45.659995754456006" lon="11.33126743016347"><ele>691.0</ele><time>2026-04-01T13:36:21Z</time></trkpt><trkpt lat="45.66003033826944" lon="11.331158368475919"><ele>691.0</ele><time>2026-04-01T13:36:22Z</time></trkpt><trkpt lat="45.660050140770466" lon="11.331033565089356"><ele>692.5999999999999</ele><time>2026-04-01T13:36:23Z</time></trkpt><trkpt lat="45.660069286116034" lon="11.330880213221082"><ele>694.2</ele><time>2026-04-01T13:36:24Z</time></trkpt><trkpt lat="45.6600741381744" lon="11.330724235763121"><ele>695.8</ele><time>2026-04-01T13:36:25Z</time></trkpt><trkpt lat="45.6600627398617" lon="11.330573928151964"><ele>697.4000000000001</ele><time>2026-04-01T13:36:26Z</time></trkpt><trkpt lat="45.66004872097306" lon="11.330431514113616"><ele>699.0</ele><time>2026-04-01T13:36:27Z</time></trkpt><trkpt lat="45.66003579049643" lon="11.330311374276056"><ele>698.8333333333334</ele><time>2026-04-01T13:36:28Z</time></trkpt><trkpt lat="45.66003649350503" lon="11.330215883411926"><ele>698.6666666666666</ele><time>2026-04-01T13:36:29Z</time></trkpt><trkpt lat="45.66005655657799" lon="11.330102713552604"><ele>698.5</ele><time>2026-04-01T13:36:31Z</time></trkpt><trkpt lat="45.660129460149335" lon="11.330103531058201"><ele>698.3333333333333</ele><time>2026-04-01T13:36:34Z</time></trkpt><trkpt lat="45.660234229043226" lon="11.330076232197946"><ele>698.1666666666666</ele><time>2026-04-01T13:36:36Z</time></trkpt><trkpt lat="45.660299942204745" lon="11.330064217381413"><ele>698.0</ele><time>2026-04-01T13:36:37Z</time></trkpt><trkpt lat="45.660370727934136" lon="11.330031104232779"><ele>698.0</ele><time>2026-04-01T13:36:38Z</time></trkpt><trkpt lat="45.66044125573837" lon="11.329979378496684"><ele>698.0</ele><time>2026-04-01T13:36:39Z</time></trkpt><trkpt lat="45.66051057948396" lon="11.329905841612256"><ele>698.0</ele><time>2026-04-01T13:36:40Z</time></trkpt><trkpt lat="45.66058576606318" lon="11.329835595070886"><ele>698.0</ele><time>2026-04-01T13:36:41Z</time></trkpt><trkpt lat="45.6606618363136" lon="11.329789306250804"><ele>698.0</ele><time>2026-04-01T13:36:42Z</time></trkpt><trkpt lat="45.66075141167402" lon="11.329726940873798"><ele>698.0</ele><time>2026-04-01T13:36:43Z</time></trkpt><trkpt lat="45.66083816308925" lon="11.329665717340013"><ele>698.5999999999999</ele><time>2026-04-01T13:36:44Z</time></trkpt><trkpt lat="45.66091115933998" lon="11.329609104317111"><ele>699.1999999999999</ele><time>2026-04-01T13:36:45Z</time></trkpt><trkpt lat="45.661016347759336" lon="11.329552253433668"><ele>699.8</ele><time>2026-04-01T13:36:47Z</time></trkpt><trkpt lat="45.6611012063526" lon="11.329535589134439"><ele>700.4</ele><time>2026-04-01T13:36:49Z</time></trkpt><trkpt lat="45.661195548099506" lon="11.329612518231139"><ele>701.0</ele><time>2026-04-01T13:36:51Z</time></trkpt><trkpt lat="45.661242692842734" lon="11.329677658968446"><ele>700.4</ele><time>2026-04-01T13:36:52Z</time></trkpt><trkpt lat="45.66132013234961" lon="11.329775757560608"><ele>699.8</ele><time>2026-04-01T13:36:54Z</time></trkpt><trkpt lat="45.661397208411756" lon="11.329913894904802"><ele>699.1999999999999</ele><time>2026-04-01T13:36:56Z</time></trkpt><trkpt lat="45.66149379400883" lon="11.330044902887657"><ele>698.5999999999999</ele><time>2026-04-01T13:36:58Z</time></trkpt><trkpt lat="45.66152039579136" lon="11.330131393518503"><ele>698.0</ele><time>2026-04-01T13:36:59Z</time></trkpt><trkpt lat="45.661550536808086" lon="11.330283793348961"><ele>698.0</ele><time>2026-04-01T13:37:01Z</time></trkpt><trkpt lat="45.66162219506322" lon="11.330419520417959"><ele>698.0</ele><time>2026-04-01T13:37:03Z</time></trkpt><trkpt lat="45.66170351313302" lon="11.330452467310288"><ele>698.0</ele><time>2026-04-01T13:37:04Z</time></trkpt><trkpt lat="45.66176568958262" lon="11.330528699286011"><ele>698.0</ele><time>2026-04-01T13:37:05Z</time></trkpt><trkpt lat="45.66183327925179" lon="11.33062101021516"><ele>698.0</ele><time>2026-04-01T13:37:07Z</time></trkpt><trkpt lat="45.661883485026024" lon="11.330683561658661"><ele>698.0</ele><time>2026-04-01T13:37:09Z</time></trkpt><trkpt lat="45.66193612012312" lon="11.330749139798975"><ele>695.8</ele><time>2026-04-01T13:37:11Z</time></trkpt><trkpt lat="45.66199865368815" lon="11.33082705046029"><ele>693.5999999999999</ele><time>2026-04-01T13:37:13Z</time></trkpt><trkpt lat="45.66209683278649" lon="11.33076482726056"><ele>691.4000000000001</ele><time>2026-04-01T13:37:14Z</time></trkpt><trkpt lat="45.662100171279285" lon="11.330923642487358"><ele>689.2</ele><time>2026-04-01T13:37:16Z</time></trkpt><trkpt lat="45.662110247975505" lon="11.331061813319813"><ele>687.0</ele><time>2026-04-01T13:37:18Z</time></trkpt><trkpt lat="45.66216747624503" lon="11.331207710747004"><ele>687.0</ele><time>2026-04-01T13:37:20Z</time></trkpt><trkpt lat="45.66222494321132" lon="11.331326188504349"><ele>687.0</ele><time>2026-04-01T13:37:22Z</time></trkpt><trkpt lat="45.66228212771095" lon="11.331390006206215"><ele>687.0</ele><time>2026-04-01T13:37:23Z</time></trkpt><trkpt lat="45.66234181740572" lon="11.331444984754546"><ele>687.0</ele><time>2026-04-01T13:37:24Z</time></trkpt><trkpt lat="45.66245080325351" lon="11.331474326780086"><ele>687.0</ele><time>2026-04-01T13:37:26Z</time></trkpt><trkpt lat="45.6625245893503" lon="11.331471188261487"><ele>687.0</ele><time>2026-04-01T13:37:27Z</time></trkpt><trkpt lat="45.66260270477349" lon="11.331462340391225"><ele>685.4000000000001</ele><time>2026-04-01T13:37:28Z</time></trkpt><trkpt lat="45.662668503868595" lon="11.331439233865124"><ele>683.8000000000001</ele><time>2026-04-01T13:37:29Z</time></trkpt><trkpt lat="45.66278272521241" lon="11.331353445459715"><ele>682.2</ele><time>2026-04-01T13:37:31Z</time></trkpt><trkpt lat="45.66284808367935" lon="11.33129560063275"><ele>680.6</ele><time>2026-04-01T13:37:32Z</time></trkpt><trkpt lat="45.66292205209053" lon="11.331210468143528"><ele>679.0</ele><time>2026-04-01T13:37:33Z</time></trkpt><trkpt lat="45.66298700554208" lon="11.331120595392765"><ele>679.0</ele><time>2026-04-01T13:37:34Z</time></trkpt><trkpt lat="45.663040400832735" lon="11.331038119469815"><ele>679.0</ele><time>2026-04-01T13:37:35Z</time></trkpt><trkpt lat="45.66309389659423" lon="11.330942014794122"><ele>679.0</ele><time>2026-04-01T13:37:36Z</time></trkpt><trkpt lat="45.66314757170992" lon="11.330861548087718"><ele>679.0</ele><time>2026-04-01T13:37:37Z</time></trkpt><trkpt lat="45.663213946704026" lon="11.330788279635222"><ele>679.0</ele><time>2026-04-01T13:37:38Z</time></trkpt><trkpt lat="45.66327797140043" lon="11.33075453025895"><ele>679.0</ele><time>2026-04-01T13:37:39Z</time></trkpt><trkpt lat="45.66335217552814" lon="11.330739123208614"><ele>679.0</ele><time>2026-04-01T13:37:40Z</time></trkpt><trkpt lat="45.66342206906085" lon="11.33072813208322"><ele>679.0</ele><time>2026-04-01T13:37:41Z</time></trkpt><trkpt lat="45.663539856591896" lon="11.330653119640845"><ele>679.0</ele><time>2026-04-01T13:37:43Z</time></trkpt><trkpt lat="45.66361537453423" lon="11.33056993153661"><ele>679.0</ele><time>2026-04-01T13:37:44Z</time></trkpt><trkpt lat="45.66368488244784" lon="11.33051296532267"><ele>679.0</ele><time>2026-04-01T13:37:45Z</time></trkpt><trkpt lat="45.663746274964105" lon="11.330479508973978"><ele>679.0</ele><time>2026-04-01T13:37:46Z</time></trkpt><trkpt lat="45.66383319576349" lon="11.33044157358812"><ele>678.6</ele><time>2026-04-01T13:37:47Z</time></trkpt><trkpt lat="45.663897750754565" lon="11.33040651314421"><ele>678.2</ele><time>2026-04-01T13:37:48Z</time></trkpt><trkpt lat="45.66400759128668" lon="11.330314348306715"><ele>677.8000000000001</ele><time>2026-04-01T13:37:50Z</time></trkpt><trkpt lat="45.664120162149175" lon="11.33022679660831"><ele>677.4000000000001</ele><time>2026-04-01T13:37:52Z</time></trkpt><trkpt lat="45.66418246996427" lon="11.330179252330606"><ele>677.0</ele><time>2026-04-01T13:37:54Z</time></trkpt><trkpt lat="45.66424222693102" lon="11.330060071825203"><ele>677.0</ele><time>2026-04-01T13:37:57Z</time></trkpt><trkpt lat="45.66429089418902" lon="11.329916466895503"><ele>677.0</ele><time>2026-04-01T13:37:59Z</time></trkpt><trkpt lat="45.66431025526968" lon="11.32977748224318"><ele>677.0</ele><time>2026-04-01T13:38:01Z</time></trkpt><trkpt lat="45.66432370326268" lon="11.329610387333478"><ele>677.0</ele><time>2026-04-01T13:38:03Z</time></trkpt><trkpt lat="45.66431937806594" lon="11.329492166462103"><ele>677.0</ele><time>2026-04-01T13:38:04Z</time></trkpt><trkpt lat="45.66432349069693" lon="11.329375109900273"><ele>676.8</ele><time>2026-04-01T13:38:06Z</time></trkpt><trkpt lat="45.66439012854606" lon="11.329239134770024"><ele>676.6</ele><time>2026-04-01T13:38:08Z</time></trkpt><trkpt lat="45.66444930210145" lon="11.32913333458015"><ele>676.4</ele><time>2026-04-01T13:38:10Z</time></trkpt><trkpt lat="45.66455332142241" lon="11.329071606305416"><ele>676.1999999999999</ele><time>2026-04-01T13:38:12Z</time></trkpt><trkpt lat="45.66467286384541" lon="11.329053094838612"><ele>676.0</ele><time>2026-04-01T13:38:14Z</time></trkpt><trkpt lat="45.66473904462674" lon="11.329054679489673"><ele>674.0</ele><time>2026-04-01T13:38:15Z</time></trkpt><trkpt lat="45.66482164494765" lon="11.329040691123494"><ele>672.0</ele><time>2026-04-01T13:38:17Z</time></trkpt><trkpt lat="45.66489626850859" lon="11.328986771410348"><ele>670.0</ele><time>2026-04-01T13:38:19Z</time></trkpt><trkpt lat="45.66493531950325" lon="11.328881552197323"><ele>668.0</ele><time>2026-04-01T13:38:21Z</time></trkpt><trkpt lat="45.66499070618574" lon="11.328749199876473"><ele>666.0</ele><time>2026-04-01T13:38:23Z</time></trkpt><trkpt lat="45.665063374956084" lon="11.328604200387897"><ele>666.0</ele><time>2026-04-01T13:38:25Z</time></trkpt><trkpt lat="45.66509690264793" lon="11.328474500653824"><ele>666.0</ele><time>2026-04-01T13:38:27Z</time></trkpt><trkpt lat="45.66510247806683" lon="11.328358389691688"><ele>666.0</ele><time>2026-04-01T13:38:29Z</time></trkpt><trkpt lat="45.665151002619396" lon="11.328288213336108"><ele>666.0</ele><time>2026-04-01T13:38:30Z</time></trkpt><trkpt lat="45.665249838751016" lon="11.328200730240946"><ele>666.0</ele><time>2026-04-01T13:38:32Z</time></trkpt><trkpt lat="45.66531285941316" lon="11.328161106651757"><ele>666.0</ele><time>2026-04-01T13:38:33Z</time></trkpt><trkpt lat="45.66536857787786" lon="11.328101421447776"><ele>665.5999999999999</ele><time>2026-04-01T13:38:34Z</time></trkpt><trkpt lat="45.66544756139607" lon="11.327984268040732"><ele>665.2</ele><time>2026-04-01T13:38:36Z</time></trkpt><trkpt lat="45.665534896116085" lon="11.327922705007003"><ele>664.8</ele><time>2026-04-01T13:38:38Z</time></trkpt><trkpt lat="45.66560536133651" lon="11.327896516577503"><ele>664.4000000000001</ele><time>2026-04-01T13:38:39Z</time></trkpt><trkpt lat="45.66571282296061" lon="11.32787200739513"><ele>664.0</ele><time>2026-04-01T13:38:41Z</time></trkpt><trkpt lat="45.66577772300962" lon="11.327832013544414"><ele>664.0</ele><time>2026-04-01T13:38:42Z</time></trkpt><trkpt lat="45.66585611859817" lon="11.327795922828079"><ele>664.0</ele><time>2026-04-01T13:38:43Z</time></trkpt><trkpt lat="45.66593017603579" lon="11.327776865027811"><ele>664.0</ele><time>2026-04-01T13:38:44Z</time></trkpt><trkpt lat="45.66602147954965" lon="11.327755047598485"><ele>664.0</ele><time>2026-04-01T13:38:46Z</time></trkpt><trkpt lat="45.666102004427735" lon="11.327711860684037"><ele>664.0</ele><time>2026-04-01T13:38:48Z</time></trkpt><trkpt lat="45.666160914166795" lon="11.327618412856772"><ele>664.0</ele><time>2026-04-01T13:38:50Z</time></trkpt><trkpt lat="45.666198846651135" lon="11.327537073396888"><ele>663.8000000000001</ele><time>2026-04-01T13:38:51Z</time></trkpt><trkpt lat="45.666205765715645" lon="11.327398946526344"><ele>663.6</ele><time>2026-04-01T13:38:53Z</time></trkpt><trkpt lat="45.66625900616864" lon="11.32723732758046"><ele>663.4</ele><time>2026-04-01T13:38:55Z</time></trkpt><trkpt lat="45.66632584916838" lon="11.327093346031193"><ele>663.2</ele><time>2026-04-01T13:38:57Z</time></trkpt><trkpt lat="45.66637812081671" lon="11.327027195978648"><ele>663.0</ele><time>2026-04-01T13:38:58Z</time></trkpt><trkpt lat="45.666437486716696" lon="11.326931980520223"><ele>663.0</ele><time>2026-04-01T13:38:59Z</time></trkpt><trkpt lat="45.666489911426005" lon="11.326872621913518"><ele>663.0</ele><time>2026-04-01T13:39:00Z</time></trkpt><trkpt lat="45.666590086168426" lon="11.326800962262533"><ele>663.0</ele><time>2026-04-01T13:39:02Z</time></trkpt><trkpt lat="45.66664999002651" lon="11.326760601087384"><ele>663.0</ele><time>2026-04-01T13:39:03Z</time></trkpt><trkpt lat="45.66675144127164" lon="11.326691038489145"><ele>663.0</ele><time>2026-04-01T13:39:05Z</time></trkpt><trkpt lat="45.66686189875528" lon="11.326626205058277"><ele>663.0</ele><time>2026-04-01T13:39:07Z</time></trkpt><trkpt lat="45.6669389255369" lon="11.326590304883878"><ele>663.0</ele><time>2026-04-01T13:39:10Z</time></trkpt><trkpt lat="45.66706632370929" lon="11.326653205223748"><ele>663.0</ele><time>2026-04-01T13:39:12Z</time></trkpt><trkpt lat="45.66713086147635" lon="11.326700830837959"><ele>663.0</ele><time>2026-04-01T13:39:13Z</time></trkpt><trkpt lat="45.667193210096656" lon="11.326739606054373"><ele>663.0</ele><time>2026-04-01T13:39:14Z</time></trkpt><trkpt lat="45.6672863834368" lon="11.326762559181038"><ele>662.3333333333334</ele><time>2026-04-01T13:39:16Z</time></trkpt><trkpt lat="45.66738329889835" lon="11.326768452061229"><ele>661.6666666666666</ele><time>2026-04-01T13:39:18Z</time></trkpt><trkpt lat="45.66744270599935" lon="11.326811781783741"><ele>661.0</ele><time>2026-04-01T13:39:20Z</time></trkpt><trkpt lat="45.66753361231818" lon="11.326846424491835"><ele>660.3333333333333</ele><time>2026-04-01T13:39:22Z</time></trkpt><trkpt lat="45.667644784094875" lon="11.326840710325456"><ele>659.6666666666666</ele><time>2026-04-01T13:39:24Z</time></trkpt><trkpt lat="45.66771348942002" lon="11.326860727901673"><ele>659.0</ele><time>2026-04-01T13:39:25Z</time></trkpt><trkpt lat="45.6677876352659" lon="11.326881233172736"><ele>656.4000000000001</ele><time>2026-04-01T13:39:27Z</time></trkpt><trkpt lat="45.66787165310201" lon="11.326901990242265"><ele>653.8</ele><time>2026-04-01T13:39:29Z</time></trkpt><trkpt lat="45.66793392908646" lon="11.326874595458131"><ele>651.2</ele><time>2026-04-01T13:39:31Z</time></trkpt><trkpt lat="45.66802528890509" lon="11.32680229118387"><ele>648.5999999999999</ele><time>2026-04-01T13:39:33Z</time></trkpt><trkpt lat="45.66807626840838" lon="11.326718695154998"><ele>646.0</ele><time>2026-04-01T13:39:35Z</time></trkpt><trkpt lat="45.66811109348314" lon="11.32655372694741"><ele>646.0</ele><time>2026-04-01T13:39:37Z</time></trkpt><trkpt lat="45.668164949105325" lon="11.32643760468222"><ele>646.0</ele><time>2026-04-01T13:39:39Z</time></trkpt><trkpt lat="45.66835098228822" lon="11.326427724406594"><ele>646.0</ele><time>2026-04-01T13:39:41Z</time></trkpt><trkpt lat="45.6683954866393" lon="11.326298200572985"><ele>646.0</ele><time>2026-04-01T13:39:43Z</time></trkpt><trkpt lat="45.66848050745991" lon="11.326209505939445"><ele>645.0</ele><time>2026-04-01T13:39:45Z</time></trkpt><trkpt lat="45.66856573387917" lon="11.32615930453976"><ele>644.0</ele><time>2026-04-01T13:39:47Z</time></trkpt><trkpt lat="45.6686692870714" lon="11.326120889777174"><ele>643.0</ele><time>2026-04-01T13:39:49Z</time></trkpt><trkpt lat="45.66872799306424" lon="11.326087874257183"><ele>642.0</ele><time>2026-04-01T13:39:50Z</time></trkpt><trkpt lat="45.66881832586949" lon="11.326047618500949"><ele>641.0</ele><time>2026-04-01T13:39:52Z</time></trkpt><trkpt lat="45.66889330570491" lon="11.326066830606882"><ele>640.0</ele><time>2026-04-01T13:39:54Z</time></trkpt><trkpt lat="45.66896279539634" lon="11.326075983427893"><ele>640.0</ele><time>2026-04-01T13:39:57Z</time></trkpt><trkpt lat="45.66905710414347" lon="11.326093568066836"><ele>640.0</ele><time>2026-04-01T13:40:00Z</time></trkpt><trkpt lat="45.669164219882674" lon="11.326128942831842"><ele>640.0</ele><time>2026-04-01T13:40:02Z</time></trkpt><trkpt lat="45.66923953393884" lon="11.326138211684674"><ele>640.0</ele><time>2026-04-01T13:40:03Z</time></trkpt><trkpt lat="45.66931964029313" lon="11.326147377792152"><ele>640.0</ele><time>2026-04-01T13:40:05Z</time></trkpt><trkpt lat="45.66943322749317" lon="11.326172485154384"><ele>640.8</ele><time>2026-04-01T13:40:09Z</time></trkpt><trkpt lat="45.66951281178073" lon="11.326215404741752"><ele>641.6</ele><time>2026-04-01T13:40:11Z</time></trkpt><trkpt lat="45.66961653830784" lon="11.326270869622544"><ele>642.4000000000001</ele><time>2026-04-01T13:40:13Z</time></trkpt><trkpt lat="45.669723699586285" lon="11.326330661337279"><ele>643.2</ele><time>2026-04-01T13:40:15Z</time></trkpt><trkpt lat="45.66978315632234" lon="11.326366051041294"><ele>644.0</ele><time>2026-04-01T13:40:16Z</time></trkpt><trkpt lat="45.66985340905756" lon="11.326405159512467"><ele>644.0</ele><time>2026-04-01T13:40:18Z</time></trkpt><trkpt lat="45.66991583292902" lon="11.326467830220455"><ele>644.0</ele><time>2026-04-01T13:40:22Z</time></trkpt><trkpt lat="45.66986377991782" lon="11.326410928290786"><ele>644.0</ele><time>2026-04-01T13:40:31Z</time></trkpt><trkpt lat="45.66973903680423" lon="11.326321674913329"><ele>644.0</ele><time>2026-04-01T13:40:32Z</time></trkpt><trkpt lat="45.669614517220325" lon="11.326253858032775"><ele>644.0</ele><time>2026-04-01T13:40:34Z</time></trkpt><trkpt lat="45.66955403601012" lon="11.326215836480024"><ele>644.0</ele><time>2026-04-01T13:40:35Z</time></trkpt><trkpt lat="45.669470361673746" lon="11.326168892223109"><ele>644.0</ele><time>2026-04-01T13:40:36Z</time></trkpt><trkpt lat="45.6693609297785" lon="11.326127645419044"><ele>644.0</ele><time>2026-04-01T13:40:37Z</time></trkpt><trkpt lat="45.66925890219273" lon="11.326111712531919"><ele>644.0</ele><time>2026-04-01T13:40:38Z</time></trkpt><trkpt lat="45.669182158474754" lon="11.32610987114428"><ele>644.0</ele><time>2026-04-01T13:40:39Z</time></trkpt><trkpt lat="45.66911655213377" lon="11.326090736499763"><ele>644.0</ele><time>2026-04-01T13:40:40Z</time></trkpt><trkpt lat="45.668995070207394" lon="11.326080490634395"><ele>643.3333333333333</ele><time>2026-04-01T13:40:42Z</time></trkpt><trkpt lat="45.66892511504687" lon="11.32605634715794"><ele>642.6666666666666</ele><time>2026-04-01T13:40:43Z</time></trkpt><trkpt lat="45.66884334052588" lon="11.326045792575384"><ele>642.0</ele><time>2026-04-01T13:40:44Z</time></trkpt><trkpt lat="45.66877109459222" lon="11.326043458732537"><ele>641.3333333333334</ele><time>2026-04-01T13:40:45Z</time></trkpt><trkpt lat="45.668689531963636" lon="11.326061460569855"><ele>640.6666666666667</ele><time>2026-04-01T13:40:46Z</time></trkpt><trkpt lat="45.66862673745984" lon="11.326112814993966"><ele>640.0</ele><time>2026-04-01T13:40:47Z</time></trkpt><trkpt lat="45.6685180030553" lon="11.32614706688503"><ele>640.0</ele><time>2026-04-01T13:40:49Z</time></trkpt><trkpt lat="45.66843548509902" lon="11.326198182614858"><ele>640.0</ele><time>2026-04-01T13:40:51Z</time></trkpt><trkpt lat="45.668385092343996" lon="11.326287902470458"><ele>640.0</ele><time>2026-04-01T13:40:54Z</time></trkpt><trkpt lat="45.66851547511017" lon="11.326413602615814"><ele>640.0</ele><time>2026-04-01T13:40:59Z</time></trkpt><trkpt lat="45.668649225212185" lon="11.326476907635508"><ele>640.6666666666667</ele><time>2026-04-01T13:41:01Z</time></trkpt><trkpt lat="45.66871862683348" lon="11.326519016843779"><ele>641.3333333333334</ele><time>2026-04-01T13:41:02Z</time></trkpt><trkpt lat="45.66880941427059" lon="11.326578348525246"><ele>642.0</ele><time>2026-04-01T13:41:04Z</time></trkpt><trkpt lat="45.668890368573734" lon="11.326612871382826"><ele>642.6666666666666</ele><time>2026-04-01T13:41:06Z</time></trkpt><trkpt lat="45.66896368358615" lon="11.326677278249111"><ele>643.3333333333333</ele><time>2026-04-01T13:41:08Z</time></trkpt><trkpt lat="45.669022377218425" lon="11.326755774430408"><ele>644.0</ele><time>2026-04-01T13:41:10Z</time></trkpt><trkpt lat="45.669086422107526" lon="11.326767179799797"><ele>644.0</ele><time>2026-04-01T13:41:20Z</time></trkpt><trkpt lat="45.66907660558176" lon="11.326881195704235"><ele>644.0</ele><time>2026-04-01T13:41:25Z</time></trkpt><trkpt lat="45.669151450883206" lon="11.326954873159965"><ele>644.0</ele><time>2026-04-01T13:41:28Z</time></trkpt><trkpt lat="45.669225186028406" lon="11.326959312185835"><ele>644.0</ele><time>2026-04-01T13:41:32Z</time></trkpt><trkpt lat="45.669288962725055" lon="11.327015887662059"><ele>644.0</ele><time>2026-04-01T13:41:36Z</time></trkpt><trkpt lat="45.66936032061374" lon="11.327051456963815"><ele>644.0</ele><time>2026-04-01T13:42:00Z</time></trkpt><trkpt lat="45.66945028822414" lon="11.327100317182753"><ele>644.1666666666666</ele><time>2026-04-01T13:42:03Z</time></trkpt><trkpt lat="45.66954812535621" lon="11.327180026316086"><ele>644.3333333333333</ele><time>2026-04-01T13:42:05Z</time></trkpt><trkpt lat="45.66960604550898" lon="11.327248255460452"><ele>644.5</ele><time>2026-04-01T13:42:06Z</time></trkpt><trkpt lat="45.669535841239714" lon="11.327197559398696"><ele>644.6666666666666</ele><time>2026-04-01T13:42:07Z</time></trkpt><trkpt lat="45.66960341286972" lon="11.327268898101723"><ele>644.8333333333334</ele><time>2026-04-01T13:42:10Z</time></trkpt><trkpt lat="45.66966855504669" lon="11.327277608531332"><ele>645.0</ele><time>2026-04-01T13:42:13Z</time></trkpt><trkpt lat="45.669754194981415" lon="11.32724161488192"><ele>645.0</ele><time>2026-04-01T13:42:21Z</time></trkpt><trkpt lat="45.66985034425452" lon="11.32720795997957"><ele>645.0</ele><time>2026-04-01T13:42:23Z</time></trkpt><trkpt lat="45.66991295090858" lon="11.32716837464621"><ele>645.0</ele><time>2026-04-01T13:42:24Z</time></trkpt><trkpt lat="45.6699998582199" lon="11.327105604810315"><ele>645.0</ele><time>2026-04-01T13:42:26Z</time></trkpt><trkpt lat="45.67007693733229" lon="11.327027556445925"><ele>645.0</ele><time>2026-04-01T13:42:28Z</time></trkpt><trkpt lat="45.67013053749235" lon="11.326967440401127"><ele>645.0</ele><time>2026-04-01T13:42:29Z</time></trkpt><trkpt lat="45.67021532599861" lon="11.326903361842628"><ele>645.1666666666666</ele><time>2026-04-01T13:42:30Z</time></trkpt><trkpt lat="45.670288730803605" lon="11.326784972802272"><ele>645.3333333333334</ele><time>2026-04-01T13:42:33Z</time></trkpt><trkpt lat="45.67032248744571" lon="11.326689641775157"><ele>645.5</ele><time>2026-04-01T13:42:35Z</time></trkpt><trkpt lat="45.67033701636783" lon="11.326581314132302"><ele>645.6666666666667</ele><time>2026-04-01T13:42:37Z</time></trkpt><trkpt lat="45.67033290362145" lon="11.326476503872994"><ele>645.8333333333334</ele><time>2026-04-01T13:42:44Z</time></trkpt><trkpt lat="45.6703559053703" lon="11.326360698090502"><ele>646.0</ele><time>2026-04-01T13:42:49Z</time></trkpt><trkpt lat="45.670377568229625" lon="11.326262859566347"><ele>646.0</ele><time>2026-04-01T13:42:52Z</time></trkpt><trkpt lat="45.670474083698736" lon="11.326259243798267"><ele>646.0</ele><time>2026-04-01T13:42:55Z</time></trkpt><trkpt lat="45.67056411868423" lon="11.326344056603883"><ele>646.0</ele><time>2026-04-01T13:42:57Z</time></trkpt><trkpt lat="45.67067816293688" lon="11.32642088626614"><ele>646.0</ele><time>2026-04-01T13:42:59Z</time></trkpt><trkpt lat="45.67073916783642" lon="11.326465822050112"><ele>646.0</ele><time>2026-04-01T13:43:00Z</time></trkpt><trkpt lat="45.67081805228892" lon="11.3265673705193"><ele>646.0</ele><time>2026-04-01T13:43:02Z</time></trkpt><trkpt lat="45.670889669806165" lon="11.326683011680462"><ele>646.0</ele><time>2026-04-01T13:43:04Z</time></trkpt><trkpt lat="45.670947985042346" lon="11.326787473178845"><ele>646.0</ele><time>2026-04-01T13:43:06Z</time></trkpt><trkpt lat="45.670956852096204" lon="11.326977576991034"><ele>646.0</ele><time>2026-04-01T13:43:10Z</time></trkpt><trkpt lat="45.67112064800336" lon="11.326710531508688"><ele>649.1999999999999</ele><time>2026-04-01T13:43:11Z</time></trkpt><trkpt lat="45.671207280511794" lon="11.32660872636687"><ele>652.4</ele><time>2026-04-01T13:43:13Z</time></trkpt><trkpt lat="45.67128038401989" lon="11.326506922254493"><ele>655.6</ele><time>2026-04-01T13:43:15Z</time></trkpt><trkpt lat="45.67132466444338" lon="11.326422790862933"><ele>658.8</ele><time>2026-04-01T13:43:17Z</time></trkpt><trkpt lat="45.67133517592303" lon="11.32628080862445"><ele>662.0</ele><time>2026-04-01T13:43:19Z</time></trkpt><trkpt lat="45.67132064224646" lon="11.326166568476037"><ele>664.5</ele><time>2026-04-01T13:43:21Z</time></trkpt><trkpt lat="45.67128226485662" lon="11.32609505238577"><ele>667.0</ele><time>2026-04-01T13:43:22Z</time></trkpt><trkpt lat="45.671221377387276" lon="11.32598716242251"><ele>669.5</ele><time>2026-04-01T13:43:24Z</time></trkpt><trkpt lat="45.671161123838836" lon="11.325915517412945"><ele>672.0</ele><time>2026-04-01T13:43:26Z</time></trkpt><trkpt lat="45.67112205224973" lon="11.325821371331159"><ele>674.5</ele><time>2026-04-01T13:43:29Z</time></trkpt><trkpt lat="45.67119686127442" lon="11.32574891891361"><ele>677.0</ele><time>2026-04-01T13:43:34Z</time></trkpt><trkpt lat="45.67126506725229" lon="11.325763448186974"><ele>677.0</ele><time>2026-04-01T13:43:36Z</time></trkpt><trkpt lat="45.67132789855193" lon="11.325690999644724"><ele>677.0</ele><time>2026-04-01T13:43:39Z</time></trkpt><trkpt lat="45.671389668233275" lon="11.325624911031069"><ele>677.0</ele><time>2026-04-01T13:43:41Z</time></trkpt><trkpt lat="45.67144944083728" lon="11.325564712323652"><ele>677.0</ele><time>2026-04-01T13:43:44Z</time></trkpt><trkpt lat="45.67149369908531" lon="11.325495405310415"><ele>677.0</ele><time>2026-04-01T13:43:47Z</time></trkpt><trkpt lat="45.671558719221224" lon="11.325449140321835"><ele>677.0</ele><time>2026-04-01T13:43:52Z</time></trkpt><trkpt lat="45.67163804625863" lon="11.32542002855292"><ele>677.3333333333333</ele><time>2026-04-01T13:43:55Z</time></trkpt><trkpt lat="45.67171972442204" lon="11.325406047735711"><ele>677.6666666666666</ele><time>2026-04-01T13:43:57Z</time></trkpt><trkpt lat="45.67179604800811" lon="11.325390446909042"><ele>678.0</ele><time>2026-04-01T13:43:59Z</time></trkpt><trkpt lat="45.67188619098244" lon="11.325287631801922"><ele>678.3333333333334</ele><time>2026-04-01T13:44:01Z</time></trkpt><trkpt lat="45.671947635104985" lon="11.325226470067172"><ele>678.6666666666667</ele><time>2026-04-01T13:44:03Z</time></trkpt><trkpt lat="45.67203148978829" lon="11.325189361735903"><ele>679.0</ele><time>2026-04-01T13:44:05Z</time></trkpt><trkpt lat="45.67209915355123" lon="11.325152113781849"><ele>680.3333333333334</ele><time>2026-04-01T13:44:07Z</time></trkpt><trkpt lat="45.67215840436935" lon="11.325092069823938"><ele>681.6666666666667</ele><time>2026-04-01T13:44:09Z</time></trkpt><trkpt lat="45.672189850939375" lon="11.324986433753645"><ele>683.0</ele><time>2026-04-01T13:44:11Z</time></trkpt><trkpt lat="45.672207752809044" lon="11.324826696129076"><ele>684.3333333333334</ele><time>2026-04-01T13:44:13Z</time></trkpt><trkpt lat="45.67225050048819" lon="11.324719303546095"><ele>685.6666666666666</ele><time>2026-04-01T13:44:15Z</time></trkpt><trkpt lat="45.67229460572633" lon="11.324615405245273"><ele>687.0</ele><time>2026-04-01T13:44:17Z</time></trkpt><trkpt lat="45.67233687309108" lon="11.324513572352746"><ele>689.0</ele><time>2026-04-01T13:44:21Z</time></trkpt><trkpt lat="45.67237677759223" lon="11.32440228095299"><ele>691.0</ele><time>2026-04-01T13:44:23Z</time></trkpt><trkpt lat="45.6724108988861" lon="11.32431681660525"><ele>693.0</ele><time>2026-04-01T13:44:24Z</time></trkpt><trkpt lat="45.6724613089988" lon="11.324243367765199"><ele>695.0</ele><time>2026-04-01T13:44:25Z</time></trkpt><trkpt lat="45.67251310132203" lon="11.324166842067418"><ele>697.0</ele><time>2026-04-01T13:44:31Z</time></trkpt><trkpt lat="45.67258541680722" lon="11.324064029602214"><ele>699.0</ele><time>2026-04-01T13:44:33Z</time></trkpt><trkpt lat="45.67264294711131" lon="11.323962881776218"><ele>700.8000000000001</ele><time>2026-04-01T13:44:37Z</time></trkpt><trkpt lat="45.67268501658996" lon="11.323820146900355"><ele>702.6</ele><time>2026-04-01T13:44:40Z</time></trkpt><trkpt lat="45.672744879386045" lon="11.323769581270637"><ele>704.4</ele><time>2026-04-01T13:44:41Z</time></trkpt><trkpt lat="45.67282849886553" lon="11.32367756136987"><ele>706.2</ele><time>2026-04-01T13:44:43Z</time></trkpt><trkpt lat="45.67293505917789" lon="11.323616348677582"><ele>708.0</ele><time>2026-04-01T13:44:45Z</time></trkpt><trkpt lat="45.67299836765143" lon="11.32360667471502"><ele>708.0</ele><time>2026-04-01T13:44:46Z</time></trkpt><trkpt lat="45.6731048340879" lon="11.32365941070437"><ele>708.0</ele><time>2026-04-01T13:44:48Z</time></trkpt><trkpt lat="45.67316799907228" lon="11.323663069682233"><ele>708.0</ele><time>2026-04-01T13:44:49Z</time></trkpt><trkpt lat="45.67324482022307" lon="11.323606366086448"><ele>708.0</ele><time>2026-04-01T13:44:51Z</time></trkpt><trkpt lat="45.673304458407415" lon="11.323551468935117"><ele>708.0</ele><time>2026-04-01T13:44:58Z</time></trkpt><trkpt lat="45.673364419104914" lon="11.32351568576129"><ele>708.0</ele><time>2026-04-01T13:45:00Z</time></trkpt><trkpt lat="45.67344677322187" lon="11.323449330521957"><ele>708.0</ele><time>2026-04-01T13:45:02Z</time></trkpt><trkpt lat="45.673553182969535" lon="11.323379419629783"><ele>708.0</ele><time>2026-04-01T13:45:04Z</time></trkpt><trkpt lat="45.67361636704988" lon="11.323325825698763"><ele>708.0</ele><time>2026-04-01T13:45:05Z</time></trkpt><trkpt lat="45.673687741430925" lon="11.323274440009335"><ele>708.0</ele><time>2026-04-01T13:45:06Z</time></trkpt><trkpt lat="45.67374522895862" lon="11.323139802801283"><ele>708.0</ele><time>2026-04-01T13:45:08Z</time></trkpt><trkpt lat="45.67383442710657" lon="11.32299849208268"><ele>706.1666666666666</ele><time>2026-04-01T13:45:10Z</time></trkpt><trkpt lat="45.67388004872258" lon="11.322918101940852"><ele>704.3333333333334</ele><time>2026-04-01T13:45:11Z</time></trkpt><trkpt lat="45.673982664208694" lon="11.322833050592411"><ele>702.5</ele><time>2026-04-01T13:45:13Z</time></trkpt><trkpt lat="45.674057835451244" lon="11.32279074614629"><ele>700.6666666666667</ele><time>2026-04-01T13:45:15Z</time></trkpt><trkpt lat="45.674124445673115" lon="11.32270810757488"><ele>698.8333333333334</ele><time>2026-04-01T13:45:17Z</time></trkpt><trkpt lat="45.67417143617123" lon="11.322612257179063"><ele>697.0</ele><time>2026-04-01T13:45:19Z</time></trkpt><trkpt lat="45.67419097609047" lon="11.322490168665402"><ele>697.0</ele><time>2026-04-01T13:45:21Z</time></trkpt><trkpt lat="45.674219933856705" lon="11.322321512712328"><ele>697.0</ele><time>2026-04-01T13:45:23Z</time></trkpt><trkpt lat="45.67421922108539" lon="11.322157527874866"><ele>697.0</ele><time>2026-04-01T13:45:25Z</time></trkpt><trkpt lat="45.67422608602379" lon="11.322027639624967"><ele>697.0</ele><time>2026-04-01T13:45:27Z</time></trkpt><trkpt lat="45.67428867013221" lon="11.321887480905424"><ele>697.0</ele><time>2026-04-01T13:45:29Z</time></trkpt><trkpt lat="45.674336910788796" lon="11.321812435503464"><ele>695.6</ele><time>2026-04-01T13:45:30Z</time></trkpt><trkpt lat="45.67444218101603" lon="11.321730078505668"><ele>694.2</ele><time>2026-04-01T13:45:32Z</time></trkpt><trkpt lat="45.67454567899371" lon="11.32165573986114"><ele>692.8</ele><time>2026-04-01T13:45:34Z</time></trkpt><trkpt lat="45.67462018262014" lon="11.321562046369355"><ele>691.4</ele><time>2026-04-01T13:45:36Z</time></trkpt><trkpt lat="45.674676474020345" lon="11.321505354215237"><ele>690.0</ele><time>2026-04-01T13:45:38Z</time></trkpt><trkpt lat="45.674750716180824" lon="11.321523397431749"><ele>690.0</ele><time>2026-04-01T13:45:40Z</time></trkpt><trkpt lat="45.67485466067938" lon="11.321607854156595"><ele>690.0</ele><time>2026-04-01T13:45:42Z</time></trkpt><trkpt lat="45.674977519223525" lon="11.321643853839172"><ele>690.0</ele><time>2026-04-01T13:45:44Z</time></trkpt><trkpt lat="45.67509405062694" lon="11.321619801801226"><ele>690.0</ele><time>2026-04-01T13:45:46Z</time></trkpt><trkpt lat="45.6751644253065" lon="11.321589217903146"><ele>690.0</ele><time>2026-04-01T13:45:47Z</time></trkpt><trkpt lat="45.67523444118456" lon="11.321553481658627"><ele>690.6666666666666</ele><time>2026-04-01T13:45:48Z</time></trkpt><trkpt lat="45.67529876859516" lon="11.321506917380727"><ele>691.3333333333334</ele><time>2026-04-01T13:45:49Z</time></trkpt><trkpt lat="45.67536222391121" lon="11.32146643622007"><ele>692.0</ele><time>2026-04-01T13:45:50Z</time></trkpt><trkpt lat="45.67547643484642" lon="11.321434953731087"><ele>692.6666666666667</ele><time>2026-04-01T13:45:52Z</time></trkpt><trkpt lat="45.6755612692461" lon="11.321416163181446"><ele>693.3333333333334</ele><time>2026-04-01T13:45:54Z</time></trkpt><trkpt lat="45.67566410373087" lon="11.321438574197085"><ele>694.0</ele><time>2026-04-01T13:45:56Z</time></trkpt><trkpt lat="45.67575055472618" lon="11.321517169368999"><ele>694.0</ele><time>2026-04-01T13:45:58Z</time></trkpt><trkpt lat="45.67579759449086" lon="11.32158421548623"><ele>694.0</ele><time>2026-04-01T13:45:59Z</time></trkpt><trkpt lat="45.675843494816036" lon="11.32167991188145"><ele>694.0</ele><time>2026-04-01T13:46:01Z</time></trkpt><trkpt lat="45.67589672254893" lon="11.321773713880193"><ele>694.0</ele><time>2026-04-01T13:46:03Z</time></trkpt><trkpt lat="45.67591981586472" lon="11.321867753018369"><ele>694.0</ele><time>2026-04-01T13:46:09Z</time></trkpt><trkpt lat="45.67598109242328" lon="11.32196744207257"><ele>694.0</ele><time>2026-04-01T13:46:10Z</time></trkpt><trkpt lat="45.676061704673096" lon="11.322002849134975"><ele>698.5</ele><time>2026-04-01T13:46:12Z</time></trkpt><trkpt lat="45.676342019378644" lon="11.321568230146195"><ele>703.0</ele><time>2026-04-01T13:46:27Z</time></trkpt><trkpt lat="45.676337550627046" lon="11.32143163405127"><ele>704.25</ele><time>2026-04-01T13:46:29Z</time></trkpt><trkpt lat="45.67629455446721" lon="11.321290418867763"><ele>705.5</ele><time>2026-04-01T13:46:31Z</time></trkpt><trkpt lat="45.67618983661232" lon="11.321189992447017"><ele>706.75</ele><time>2026-04-01T13:46:33Z</time></trkpt><trkpt lat="45.6762179325554" lon="11.321088621640802"><ele>708.0</ele><time>2026-04-01T13:46:36Z</time></trkpt><trkpt lat="45.67631361557482" lon="11.320939701770675"><ele>708.0</ele><time>2026-04-01T13:46:38Z</time></trkpt><trkpt lat="45.676377992125325" lon="11.3208528458438"><ele>708.0</ele><time>2026-04-01T13:46:39Z</time></trkpt><trkpt lat="45.676411802293245" lon="11.320759562413164"><ele>708.0</ele><time>2026-04-01T13:46:40Z</time></trkpt><trkpt lat="45.67644662625473" lon="11.32065454431967"><ele>708.0</ele><time>2026-04-01T13:46:41Z</time></trkpt><trkpt lat="45.676471636584374" lon="11.320460704830053"><ele>708.0</ele><time>2026-04-01T13:46:43Z</time></trkpt><trkpt lat="45.67651488700967" lon="11.320372430427641"><ele>709.1666666666666</ele><time>2026-04-01T13:46:44Z</time></trkpt><trkpt lat="45.67656713417711" lon="11.320298464572414"><ele>710.3333333333334</ele><time>2026-04-01T13:46:45Z</time></trkpt><trkpt lat="45.6766329648003" lon="11.320236265544073"><ele>711.5</ele><time>2026-04-01T13:46:46Z</time></trkpt><trkpt lat="45.676697675880945" lon="11.320176026424274"><ele>712.6666666666667</ele><time>2026-04-01T13:46:47Z</time></trkpt><trkpt lat="45.67677905569078" lon="11.320055489391374"><ele>713.8333333333334</ele><time>2026-04-01T13:46:49Z</time></trkpt><trkpt lat="45.676836438360716" lon="11.319976883370135"><ele>715.0</ele><time>2026-04-01T13:46:50Z</time></trkpt><trkpt lat="45.67689278020722" lon="11.31993602819182"><ele>714.6666666666667</ele><time>2026-04-01T13:46:51Z</time></trkpt><trkpt lat="45.676972782855536" lon="11.31991885334535"><ele>714.3333333333334</ele><time>2026-04-01T13:46:53Z</time></trkpt><trkpt lat="45.677008537504" lon="11.319837782188845"><ele>714.0</ele><time>2026-04-01T13:46:59Z</time></trkpt><trkpt lat="45.677007244288774" lon="11.319745008696811"><ele>713.6666666666666</ele><time>2026-04-01T13:47:02Z</time></trkpt><trkpt lat="45.67705500152224" lon="11.319668455002622"><ele>713.3333333333333</ele><time>2026-04-01T13:47:04Z</time></trkpt><trkpt lat="45.67714419208109" lon="11.31958650697063"><ele>713.0</ele><time>2026-04-01T13:47:06Z</time></trkpt><trkpt lat="45.67719375050753" lon="11.31952702880355"><ele>713.0</ele><time>2026-04-01T13:47:07Z</time></trkpt><trkpt lat="45.67731142386477" lon="11.319464951537439"><ele>713.0</ele><time>2026-04-01T13:47:09Z</time></trkpt><trkpt lat="45.67740213854596" lon="11.319381854044092"><ele>713.0</ele><time>2026-04-01T13:47:11Z</time></trkpt><trkpt lat="45.67745561797649" lon="11.31933162418961"><ele>713.0</ele><time>2026-04-01T13:47:12Z</time></trkpt><trkpt lat="45.67751995165577" lon="11.319242152225407"><ele>713.0</ele><time>2026-04-01T13:47:14Z</time></trkpt><trkpt lat="45.677613353525324" lon="11.31912500460527"><ele>713.0</ele><time>2026-04-01T13:47:16Z</time></trkpt><trkpt lat="45.677677325993685" lon="11.31901434092812"><ele>713.0</ele><time>2026-04-01T13:47:17Z</time></trkpt><trkpt lat="45.67771253056614" lon="11.318920620967585"><ele>713.0</ele><time>2026-04-01T13:47:18Z</time></trkpt><trkpt lat="45.67776671182183" lon="11.318752023837291"><ele>713.0</ele><time>2026-04-01T13:47:20Z</time></trkpt><trkpt lat="45.67775847503528" lon="11.318615767030066"><ele>713.0</ele><time>2026-04-01T13:47:22Z</time></trkpt><trkpt lat="45.67776085806958" lon="11.318507156851805"><ele>710.4</ele><time>2026-04-01T13:47:24Z</time></trkpt><trkpt lat="45.677776267831455" lon="11.318393119706371"><ele>707.8</ele><time>2026-04-01T13:47:25Z</time></trkpt><trkpt lat="45.67780932249615" lon="11.318285490607792"><ele>705.2</ele><time>2026-04-01T13:47:26Z</time></trkpt><trkpt lat="45.67785651553852" lon="11.318181724648499"><ele>702.6</ele><time>2026-04-01T13:47:27Z</time></trkpt><trkpt lat="45.67793384922243" lon="11.31804643312226"><ele>700.0</ele><time>2026-04-01T13:47:29Z</time></trkpt><trkpt lat="45.67799281938752" lon="11.317959875966464"><ele>700.0</ele><time>2026-04-01T13:47:30Z</time></trkpt><trkpt lat="45.678045178451725" lon="11.31787052618807"><ele>700.0</ele><time>2026-04-01T13:47:31Z</time></trkpt><trkpt lat="45.678098941304576" lon="11.317752201100229"><ele>700.0</ele><time>2026-04-01T13:47:32Z</time></trkpt><trkpt lat="45.67813329621897" lon="11.317662682670576"><ele>700.0</ele><time>2026-04-01T13:47:33Z</time></trkpt><trkpt lat="45.67816648767526" lon="11.317526651429521"><ele>700.0</ele><time>2026-04-01T13:47:35Z</time></trkpt><trkpt lat="45.678187731246815" lon="11.317420297642789"><ele>700.0</ele><time>2026-04-01T13:47:37Z</time></trkpt><trkpt lat="45.67825322619719" lon="11.317322739223577"><ele>700.0</ele><time>2026-04-01T13:47:39Z</time></trkpt><trkpt lat="45.678301528701006" lon="11.317253920901349"><ele>700.0</ele><time>2026-04-01T13:47:40Z</time></trkpt><trkpt lat="45.67833150692362" lon="11.317169574201198"><ele>700.0</ele><time>2026-04-01T13:47:41Z</time></trkpt><trkpt lat="45.67839939238078" lon="11.317025194951343"><ele>700.0</ele><time>2026-04-01T13:47:43Z</time></trkpt><trkpt lat="45.6784912543355" lon="11.31698557455626"><ele>700.0</ele><time>2026-04-01T13:47:45Z</time></trkpt><trkpt lat="45.678570908817875" lon="11.316988258574195"><ele>700.0</ele><time>2026-04-01T13:47:46Z</time></trkpt><trkpt lat="45.67863411887925" lon="11.316971300226179"><ele>697.1666666666667</ele><time>2026-04-01T13:47:47Z</time></trkpt><trkpt lat="45.678714311054804" lon="11.316915280370656"><ele>694.3333333333334</ele><time>2026-04-01T13:47:49Z</time></trkpt><trkpt lat="45.67876684223695" lon="11.316841758885793"><ele>691.5</ele><time>2026-04-01T13:47:50Z</time></trkpt><trkpt lat="45.67879736992218" lon="11.316758335131368"><ele>688.6666666666666</ele><time>2026-04-01T13:47:51Z</time></trkpt><trkpt lat="45.678818460433064" lon="11.31662536619158"><ele>685.8333333333333</ele><time>2026-04-01T13:47:53Z</time></trkpt><trkpt lat="45.67882113441666" lon="11.316500717125512"><ele>683.0</ele><time>2026-04-01T13:47:55Z</time></trkpt><trkpt lat="45.67886643146631" lon="11.316381978403664"><ele>682.1666666666666</ele><time>2026-04-01T13:47:57Z</time></trkpt><trkpt lat="45.678960921842084" lon="11.31635414512895"><ele>681.3333333333333</ele><time>2026-04-01T13:47:59Z</time></trkpt><trkpt lat="45.679034357637406" lon="11.316317138311568"><ele>680.5</ele><time>2026-04-01T13:48:00Z</time></trkpt><trkpt lat="45.679111379782476" lon="11.316279814434406"><ele>679.6666666666666</ele><time>2026-04-01T13:48:01Z</time></trkpt><trkpt lat="45.67919775245482" lon="11.316260435033708"><ele>678.8333333333334</ele><time>2026-04-01T13:48:02Z</time></trkpt><trkpt lat="45.67930331526117" lon="11.316258179716874"><ele>678.0</ele><time>2026-04-01T13:48:03Z</time></trkpt><trkpt lat="45.67937794554417" lon="11.316266045037924"><ele>680.0</ele><time>2026-04-01T13:48:04Z</time></trkpt><trkpt lat="45.67949825151988" lon="11.316239826946902"><ele>682.0</ele><time>2026-04-01T13:48:06Z</time></trkpt><trkpt lat="45.67957355951291" lon="11.316227873458779"><ele>684.0</ele><time>2026-04-01T13:48:07Z</time></trkpt><trkpt lat="45.67966821499318" lon="11.316202923184868"><ele>686.0</ele><time>2026-04-01T13:48:08Z</time></trkpt><trkpt lat="45.67976799650774" lon="11.31618637097162"><ele>688.0</ele><time>2026-04-01T13:48:09Z</time></trkpt><trkpt lat="45.67983721731383" lon="11.316176085392362"><ele>688.0</ele><time>2026-04-01T13:48:10Z</time></trkpt><trkpt lat="45.679908259733196" lon="11.316176466423522"><ele>688.0</ele><time>2026-04-01T13:48:11Z</time></trkpt><trkpt lat="45.680002918413706" lon="11.316207992075261"><ele>688.0</ele><time>2026-04-01T13:48:13Z</time></trkpt><trkpt lat="45.68007005716397" lon="11.316311187351776"><ele>688.0</ele><time>2026-04-01T13:48:16Z</time></trkpt><trkpt lat="45.68012991971899" lon="11.31637004423677"><ele>688.0</ele><time>2026-04-01T13:48:20Z</time></trkpt><trkpt lat="45.68020107740395" lon="11.316324040678396"><ele>688.0</ele><time>2026-04-01T13:48:22Z</time></trkpt><trkpt lat="45.68023960788007" lon="11.31625073464052"><ele>688.5999999999999</ele><time>2026-04-01T13:48:23Z</time></trkpt><trkpt lat="45.68033045687403" lon="11.316149617327081"><ele>689.1999999999999</ele><time>2026-04-01T13:48:25Z</time></trkpt><trkpt lat="45.68041878359709" lon="11.316051909929906"><ele>689.8</ele><time>2026-04-01T13:48:26Z</time></trkpt><trkpt lat="45.680476031275155" lon="11.315989232946631"><ele>690.4</ele><time>2026-04-01T13:48:27Z</time></trkpt><trkpt lat="45.680535575682796" lon="11.315901410735856"><ele>691.0</ele><time>2026-04-01T13:48:28Z</time></trkpt><trkpt lat="45.68059734654051" lon="11.315816208320284"><ele>691.0</ele><time>2026-04-01T13:48:29Z</time></trkpt><trkpt lat="45.68066642947953" lon="11.31575451262881"><ele>691.0</ele><time>2026-04-01T13:48:30Z</time></trkpt><trkpt lat="45.68073918626727" lon="11.31570630629707"><ele>691.0</ele><time>2026-04-01T13:48:31Z</time></trkpt><trkpt lat="45.680820392681134" lon="11.315642395623103"><ele>691.0</ele><time>2026-04-01T13:48:32Z</time></trkpt><trkpt lat="45.68092691689886" lon="11.315554426427203"><ele>691.0</ele><time>2026-04-01T13:48:34Z</time></trkpt><trkpt lat="45.68099204020314" lon="11.315487256303577"><ele>691.1999999999999</ele><time>2026-04-01T13:48:35Z</time></trkpt><trkpt lat="45.68103253953754" lon="11.315415471043815"><ele>691.4</ele><time>2026-04-01T13:48:36Z</time></trkpt><trkpt lat="45.68113221810257" lon="11.315255916796056"><ele>691.6</ele><time>2026-04-01T13:48:38Z</time></trkpt><trkpt lat="45.68122760185843" lon="11.315144993499187"><ele>691.8</ele><time>2026-04-01T13:48:39Z</time></trkpt><trkpt lat="45.681296438046196" lon="11.315119091859875"><ele>692.0</ele><time>2026-04-01T13:48:40Z</time></trkpt><trkpt lat="45.68140693030176" lon="11.315051813695764"><ele>692.0</ele><time>2026-04-01T13:48:42Z</time></trkpt><trkpt lat="45.68144619156996" lon="11.314924301746803"><ele>692.0</ele><time>2026-04-01T13:48:44Z</time></trkpt><trkpt lat="45.68146660372499" lon="11.314831222209095"><ele>692.0</ele><time>2026-04-01T13:48:45Z</time></trkpt><trkpt lat="45.681524396290364" lon="11.314697692208657"><ele>692.0</ele><time>2026-04-01T13:48:47Z</time></trkpt><trkpt lat="45.68156213991233" lon="11.314615398140432"><ele>692.0</ele><time>2026-04-01T13:48:48Z</time></trkpt><trkpt lat="45.681628640903455" lon="11.314508872192018"><ele>692.0</ele><time>2026-04-01T13:48:49Z</time></trkpt><trkpt lat="45.68170173258975" lon="11.314360927280097"><ele>691.8</ele><time>2026-04-01T13:48:51Z</time></trkpt><trkpt lat="45.68173546910964" lon="11.314275563116693"><ele>691.6</ele><time>2026-04-01T13:48:52Z</time></trkpt><trkpt lat="45.681777961927864" lon="11.314165528707477"><ele>691.4</ele><time>2026-04-01T13:48:53Z</time></trkpt><trkpt lat="45.68179354434104" lon="11.314002862806092"><ele>691.1999999999999</ele><time>2026-04-01T13:48:55Z</time></trkpt><trkpt lat="45.68180225890689" lon="11.313830388946313"><ele>691.0</ele><time>2026-04-01T13:48:57Z</time></trkpt><trkpt lat="45.68178550984125" lon="11.313729285986225"><ele>690.5</ele><time>2026-04-01T13:48:58Z</time></trkpt><trkpt lat="45.68172626034843" lon="11.31359211135347"><ele>690.0</ele><time>2026-04-01T13:49:00Z</time></trkpt><trkpt lat="45.68168231026932" lon="11.31351464993617"><ele>689.5</ele><time>2026-04-01T13:49:01Z</time></trkpt><trkpt lat="45.68164534137258" lon="11.31339540114275"><ele>689.0</ele><time>2026-04-01T13:49:02Z</time></trkpt><trkpt lat="45.681632166150536" lon="11.313307077548581"><ele>688.5</ele><time>2026-04-01T13:49:03Z</time></trkpt><trkpt lat="45.68163258361415" lon="11.31321381359113"><ele>688.0</ele><time>2026-04-01T13:49:04Z</time></trkpt><trkpt lat="45.68162715245161" lon="11.313122897819971"><ele>687.2</ele><time>2026-04-01T13:49:05Z</time></trkpt><trkpt lat="45.68158542708815" lon="11.312988728640217"><ele>686.4</ele><time>2026-04-01T13:49:07Z</time></trkpt><trkpt lat="45.68156268205298" lon="11.312889885418558"><ele>685.6</ele><time>2026-04-01T13:49:08Z</time></trkpt><trkpt lat="45.68153540505267" lon="11.312726266811344"><ele>684.8000000000001</ele><time>2026-04-01T13:49:10Z</time></trkpt><trkpt lat="45.68153083795349" lon="11.31261895979033"><ele>684.0</ele><time>2026-04-01T13:49:11Z</time></trkpt><trkpt lat="45.68152750173733" lon="11.312483388104381"><ele>684.0</ele><time>2026-04-01T13:49:12Z</time></trkpt><trkpt lat="45.68151473572621" lon="11.31238291334266"><ele>684.0</ele><time>2026-04-01T13:49:13Z</time></trkpt><trkpt lat="45.68152954238526" lon="11.312213049710149"><ele>684.0</ele><time>2026-04-01T13:49:15Z</time></trkpt><trkpt lat="45.681571185343216" lon="11.312049485571013"><ele>684.0</ele><time>2026-04-01T13:49:17Z</time></trkpt><trkpt lat="45.681608248170996" lon="11.311952287187848"><ele>684.0</ele><time>2026-04-01T13:49:18Z</time></trkpt><trkpt lat="45.68164952356225" lon="11.311877815256993"><ele>682.7142857142857</ele><time>2026-04-01T13:49:19Z</time></trkpt><trkpt lat="45.68168372930467" lon="11.311788944036463"><ele>681.4285714285714</ele><time>2026-04-01T13:49:20Z</time></trkpt><trkpt lat="45.681708133943204" lon="11.311683704913548"><ele>680.1428571428571</ele><time>2026-04-01T13:49:21Z</time></trkpt><trkpt lat="45.6817452581571" lon="11.311594147003808"><ele>678.8571428571429</ele><time>2026-04-01T13:49:22Z</time></trkpt><trkpt lat="45.681779183371276" lon="11.311514562474775"><ele>677.5714285714286</ele><time>2026-04-01T13:49:23Z</time></trkpt><trkpt lat="45.68181123348801" lon="11.311414409699207"><ele>676.2857142857142</ele><time>2026-04-01T13:49:24Z</time></trkpt><trkpt lat="45.681859594603466" lon="11.311348289798044"><ele>675.0</ele><time>2026-04-01T13:49:25Z</time></trkpt><trkpt lat="45.681898663199654" lon="11.311249777167971"><ele>674.8333333333334</ele><time>2026-04-01T13:49:26Z</time></trkpt><trkpt lat="45.68198274566523" lon="11.311100897500411"><ele>674.6666666666666</ele><time>2026-04-01T13:49:28Z</time></trkpt><trkpt lat="45.6820251529357" lon="11.31100340763132"><ele>674.5</ele><time>2026-04-01T13:49:29Z</time></trkpt><trkpt lat="45.68208498039657" lon="11.310927715919984"><ele>674.3333333333333</ele><time>2026-04-01T13:49:30Z</time></trkpt><trkpt lat="45.682134975325596" lon="11.31084654530055"><ele>674.1666666666666</ele><time>2026-04-01T13:49:31Z</time></trkpt><trkpt lat="45.68216195532359" lon="11.310764254852565"><ele>674.0</ele><time>2026-04-01T13:49:32Z</time></trkpt><trkpt lat="45.68223622503192" lon="11.31064917768544"><ele>674.0</ele><time>2026-04-01T13:49:34Z</time></trkpt><trkpt lat="45.68236328515245" lon="11.310636314390274"><ele>674.0</ele><time>2026-04-01T13:49:36Z</time></trkpt><trkpt lat="45.682429118354435" lon="11.31061552539749"><ele>674.0</ele><time>2026-04-01T13:49:37Z</time></trkpt><trkpt lat="45.68251144655521" lon="11.310602233732363"><ele>674.0</ele><time>2026-04-01T13:49:38Z</time></trkpt><trkpt lat="45.68261009485287" lon="11.310550236720447"><ele>674.0</ele><time>2026-04-01T13:49:39Z</time></trkpt><trkpt lat="45.68268501938783" lon="11.3105007555984"><ele>668.4000000000001</ele><time>2026-04-01T13:49:40Z</time></trkpt><trkpt lat="45.682805970792025" lon="11.310396325507597"><ele>662.8</ele><time>2026-04-01T13:49:42Z</time></trkpt><trkpt lat="45.68287361574886" lon="11.310348756202274"><ele>657.2</ele><time>2026-04-01T13:49:43Z</time></trkpt><trkpt lat="45.68298880413958" lon="11.310259990787303"><ele>651.5999999999999</ele><time>2026-04-01T13:49:45Z</time></trkpt><trkpt lat="45.683048705972624" lon="11.310183491946013"><ele>646.0</ele><time>2026-04-01T13:49:46Z</time></trkpt><trkpt lat="45.68310239296948" lon="11.310099352983679"><ele>646.0</ele><time>2026-04-01T13:49:47Z</time></trkpt><trkpt lat="45.683148645472166" lon="11.310038145147551"><ele>646.0</ele><time>2026-04-01T13:49:48Z</time></trkpt><trkpt lat="45.68319534042807" lon="11.309974810149955"><ele>646.0</ele><time>2026-04-01T13:49:49Z</time></trkpt><trkpt lat="45.68325173715116" lon="11.309930189081603"><ele>646.0</ele><time>2026-04-01T13:49:50Z</time></trkpt><trkpt lat="45.68333504564145" lon="11.309879717080717"><ele>646.0</ele><time>2026-04-01T13:49:52Z</time></trkpt><trkpt lat="45.68346825005915" lon="11.30988827939637"><ele>646.0</ele><time>2026-04-01T13:49:54Z</time></trkpt><trkpt lat="45.68355843834317" lon="11.309876127536528"><ele>644.0</ele><time>2026-04-01T13:49:55Z</time></trkpt><trkpt lat="45.68365231357111" lon="11.309864707300775"><ele>642.0</ele><time>2026-04-01T13:49:56Z</time></trkpt><trkpt lat="45.68371354315565" lon="11.309832565773345"><ele>640.0</ele><time>2026-04-01T13:49:57Z</time></trkpt><trkpt lat="45.683800989478975" lon="11.309787996860452"><ele>638.0</ele><time>2026-04-01T13:49:59Z</time></trkpt><trkpt lat="45.68387317676125" lon="11.309795081091513"><ele>636.0</ele><time>2026-04-01T13:50:01Z</time></trkpt><trkpt lat="45.68400432629545" lon="11.309684098958105"><ele>636.0</ele><time>2026-04-01T13:50:05Z</time></trkpt><trkpt lat="45.68402850100217" lon="11.309575720213951"><ele>636.0</ele><time>2026-04-01T13:50:08Z</time></trkpt><trkpt lat="45.68407159388678" lon="11.309436503541802"><ele>636.0</ele><time>2026-04-01T13:50:10Z</time></trkpt><trkpt lat="45.684094716049664" lon="11.309335535394336"><ele>636.0</ele><time>2026-04-01T13:50:12Z</time></trkpt><trkpt lat="45.684053591156434" lon="11.309463237376926"><ele>636.0</ele><time>2026-04-01T13:51:26Z</time></trkpt><trkpt lat="45.684159559732755" lon="11.30942114579894"><ele>636.0</ele><time>2026-04-01T13:51:27Z</time></trkpt><trkpt lat="45.684153257373765" lon="11.309285034923539"><ele>636.0</ele><time>2026-04-01T13:51:28Z</time></trkpt><trkpt lat="45.68412032057769" lon="11.309453984843886"><ele>636.0</ele><time>2026-04-01T13:51:29Z</time></trkpt><trkpt lat="45.68394126350431" lon="11.309518316250125"><ele>636.0</ele><time>2026-04-01T13:54:15Z</time></trkpt><trkpt lat="45.6840001652721" lon="11.309463103925884"><ele>636.0</ele><time>2026-04-01T14:14:02Z</time></trkpt><trkpt lat="45.68407544385822" lon="11.309231607270187"><ele>636.0</ele><time>2026-04-01T14:14:06Z</time></trkpt><trkpt lat="45.68408252021675" lon="11.309123350129914"><ele>636.0</ele><time>2026-04-01T14:14:07Z</time></trkpt><trkpt lat="45.68412940730159" lon="11.30895522738962"><ele>636.0</ele><time>2026-04-01T14:14:09Z</time></trkpt><trkpt lat="45.68415488408266" lon="11.308853771560168"><ele>636.0</ele><time>2026-04-01T14:14:10Z</time></trkpt><trkpt lat="45.68417418768593" lon="11.308747180277528"><ele>636.0</ele><time>2026-04-01T14:14:11Z</time></trkpt><trkpt lat="45.68420802203685" lon="11.308637183053024"><ele>636.0</ele><time>2026-04-01T14:14:12Z</time></trkpt><trkpt lat="45.68425110550148" lon="11.308518580001529"><ele>636.0</ele><time>2026-04-01T14:14:13Z</time></trkpt><trkpt lat="45.68429408738271" lon="11.3084159100207"><ele>636.0</ele><time>2026-04-01T14:14:14Z</time></trkpt><trkpt lat="45.68433080738185" lon="11.308334757762234"><ele>636.0</ele><time>2026-04-01T14:14:15Z</time></trkpt><trkpt lat="45.68439209137992" lon="11.308309566738902"><ele>636.0</ele><time>2026-04-01T14:14:16Z</time></trkpt><trkpt lat="45.68438708086064" lon="11.308211133041135"><ele>636.0</ele><time>2026-04-01T14:14:17Z</time></trkpt><trkpt lat="45.68442534259346" lon="11.3081080389275"><ele>636.0</ele><time>2026-04-01T14:14:18Z</time></trkpt><trkpt lat="45.68446831944656" lon="11.307992240178688"><ele>636.0</ele><time>2026-04-01T14:14:19Z</time></trkpt><trkpt lat="45.68450329518212" lon="11.307858354089975"><ele>636.0</ele><time>2026-04-01T14:14:20Z</time></trkpt><trkpt lat="45.68455449798082" lon="11.307756005123172"><ele>636.0</ele><time>2026-04-01T14:14:21Z</time></trkpt><trkpt lat="45.684599712373654" lon="11.307677036491224"><ele>636.1666666666666</ele><time>2026-04-01T14:14:22Z</time></trkpt><trkpt lat="45.68464573215663" lon="11.307596661242377"><ele>636.3333333333334</ele><time>2026-04-01T14:14:23Z</time></trkpt><trkpt lat="45.68469136557183" lon="11.307511486111025"><ele>636.5</ele><time>2026-04-01T14:14:24Z</time></trkpt><trkpt lat="45.684746529193326" lon="11.307390482435958"><ele>636.6666666666667</ele><time>2026-04-01T14:14:26Z</time></trkpt><trkpt lat="45.68476655379717" lon="11.307293375468793"><ele>636.8333333333334</ele><time>2026-04-01T14:14:28Z</time></trkpt><trkpt lat="45.68478798671702" lon="11.307207562576378"><ele>637.0</ele><time>2026-04-01T14:14:29Z</time></trkpt><trkpt lat="45.684820815615105" lon="11.3070973317954"><ele>640.0</ele><time>2026-04-01T14:14:30Z</time></trkpt><trkpt lat="45.68484363158488" lon="11.306996858128567"><ele>643.0</ele><time>2026-04-01T14:14:31Z</time></trkpt><trkpt lat="45.68485723548129" lon="11.306893166288729"><ele>646.0</ele><time>2026-04-01T14:14:32Z</time></trkpt><trkpt lat="45.68488200703907" lon="11.306722443389681"><ele>649.0</ele><time>2026-04-01T14:14:34Z</time></trkpt><trkpt lat="45.685186023671925" lon="11.306741114808599"><ele>649.0</ele><time>2026-04-01T14:14:35Z</time></trkpt><trkpt lat="45.6852508631442" lon="11.306723436255265"><ele>649.0</ele><time>2026-04-01T14:14:36Z</time></trkpt><trkpt lat="45.68537324349262" lon="11.30674481101494"><ele>649.0</ele><time>2026-04-01T14:14:38Z</time></trkpt><trkpt lat="45.68545202579764" lon="11.306721028418922"><ele>649.0</ele><time>2026-04-01T14:14:39Z</time></trkpt><trkpt lat="45.68552140657409" lon="11.306700698415709"><ele>649.0</ele><time>2026-04-01T14:14:40Z</time></trkpt><trkpt lat="45.68560814628" lon="11.306714939101859"><ele>649.0</ele><time>2026-04-01T14:14:41Z</time></trkpt><trkpt lat="45.68567236844445" lon="11.306687805504552"><ele>650.5</ele><time>2026-04-01T14:14:42Z</time></trkpt><trkpt lat="45.68573474218134" lon="11.306662732225647"><ele>652.0</ele><time>2026-04-01T14:14:43Z</time></trkpt><trkpt lat="45.68580798890225" lon="11.306656696818692"><ele>653.5</ele><time>2026-04-01T14:14:44Z</time></trkpt><trkpt lat="45.68589052358304" lon="11.306655121839645"><ele>655.0</ele><time>2026-04-01T14:14:45Z</time></trkpt><trkpt lat="45.68595756607136" lon="11.30664391488366"><ele>656.5</ele><time>2026-04-01T14:14:46Z</time></trkpt><trkpt lat="45.68602723443736" lon="11.306620681314435"><ele>658.0</ele><time>2026-04-01T14:14:47Z</time></trkpt><trkpt lat="45.68612108187946" lon="11.306525515177952"><ele>658.6666666666667</ele><time>2026-04-01T14:14:49Z</time></trkpt><trkpt lat="45.6861821083966" lon="11.306467357387616"><ele>659.3333333333334</ele><time>2026-04-01T14:14:50Z</time></trkpt><trkpt lat="45.68622821022414" lon="11.30640310352746"><ele>660.0</ele><time>2026-04-01T14:14:51Z</time></trkpt><trkpt lat="45.68630931405465" lon="11.306316653118296"><ele>660.6666666666666</ele><time>2026-04-01T14:14:52Z</time></trkpt><trkpt lat="45.686388523808624" lon="11.306243423139653"><ele>661.3333333333333</ele><time>2026-04-01T14:14:53Z</time></trkpt><trkpt lat="45.686462420173974" lon="11.306185791492513"><ele>662.0</ele><time>2026-04-01T14:14:54Z</time></trkpt><trkpt lat="45.68657944545915" lon="11.306106526966605"><ele>665.6666666666666</ele><time>2026-04-01T14:14:56Z</time></trkpt><trkpt lat="45.686652374361366" lon="11.306027357380042"><ele>669.3333333333333</ele><time>2026-04-01T14:14:57Z</time></trkpt><trkpt lat="45.68671373660388" lon="11.305959522551811"><ele>673.0</ele><time>2026-04-01T14:14:58Z</time></trkpt><trkpt lat="45.68678951198005" lon="11.305903777091457"><ele>676.6666666666666</ele><time>2026-04-01T14:14:59Z</time></trkpt><trkpt lat="45.68684206059487" lon="11.305834096523418"><ele>680.3333333333334</ele><time>2026-04-01T14:15:00Z</time></trkpt><trkpt lat="45.68692423511657" lon="11.305804352490833"><ele>684.0</ele><time>2026-04-01T14:15:02Z</time></trkpt><trkpt lat="45.68697958824591" lon="11.305894742136191"><ele>684.0</ele><time>2026-04-01T14:15:04Z</time></trkpt><trkpt lat="45.68697367257563" lon="11.306038696365658"><ele>684.0</ele><time>2026-04-01T14:15:06Z</time></trkpt><trkpt lat="45.6869425775704" lon="11.306140721598863"><ele>684.0</ele><time>2026-04-01T14:15:07Z</time></trkpt><trkpt lat="45.68692224367626" lon="11.306303213457328"><ele>684.0</ele><time>2026-04-01T14:15:09Z</time></trkpt><trkpt lat="45.68691519963706" lon="11.306479237370683"><ele>684.0</ele><time>2026-04-01T14:15:11Z</time></trkpt><trkpt lat="45.68692353387709" lon="11.306653604009712"><ele>682.8333333333334</ele><time>2026-04-01T14:15:13Z</time></trkpt><trkpt lat="45.68695145977844" lon="11.306808311859692"><ele>681.6666666666666</ele><time>2026-04-01T14:15:15Z</time></trkpt><trkpt lat="45.68699008682956" lon="11.306917752630978"><ele>680.5</ele><time>2026-04-01T14:15:16Z</time></trkpt><trkpt lat="45.687036377405875" lon="11.307045202528926"><ele>679.3333333333333</ele><time>2026-04-01T14:15:17Z</time></trkpt><trkpt lat="45.687036969391286" lon="11.307145480259242"><ele>678.1666666666666</ele><time>2026-04-01T14:15:18Z</time></trkpt><trkpt lat="45.68704043311521" lon="11.307236418744495"><ele>677.0</ele><time>2026-04-01T14:15:19Z</time></trkpt><trkpt lat="45.68704082308109" lon="11.307340737514977"><ele>677.0</ele><time>2026-04-01T14:15:20Z</time></trkpt><trkpt lat="45.687052979918526" lon="11.307443000739434"><ele>677.0</ele><time>2026-04-01T14:15:21Z</time></trkpt><trkpt lat="45.687061362602904" lon="11.307535606088758"><ele>677.0</ele><time>2026-04-01T14:15:22Z</time></trkpt><trkpt lat="45.68709662044583" lon="11.30769645098102"><ele>677.0</ele><time>2026-04-01T14:15:24Z</time></trkpt><trkpt lat="45.68716725229172" lon="11.30778089113963"><ele>677.0</ele><time>2026-04-01T14:15:26Z</time></trkpt><trkpt lat="45.68722192410468" lon="11.307838472029614"><ele>677.0</ele><time>2026-04-01T14:15:27Z</time></trkpt><trkpt lat="45.68728561983413" lon="11.307898035869945"><ele>677.0</ele><time>2026-04-01T14:15:28Z</time></trkpt><trkpt lat="45.687342428261736" lon="11.307978683973966"><ele>677.0</ele><time>2026-04-01T14:15:29Z</time></trkpt><trkpt lat="45.687357281946916" lon="11.308141382202018"><ele>677.0</ele><time>2026-04-01T14:15:31Z</time></trkpt><trkpt lat="45.687400704458945" lon="11.308303400483018"><ele>677.0</ele><time>2026-04-01T14:15:33Z</time></trkpt><trkpt lat="45.68744328501549" lon="11.308383795024577"><ele>677.0</ele><time>2026-04-01T14:15:34Z</time></trkpt><trkpt lat="45.6875305215252" lon="11.308490180349912"><ele>674.75</ele><time>2026-04-01T14:15:36Z</time></trkpt><trkpt lat="45.68763592985826" lon="11.308544360785373"><ele>672.5</ele><time>2026-04-01T14:15:38Z</time></trkpt><trkpt lat="45.68777526849877" lon="11.308531868211702"><ele>670.25</ele><time>2026-04-01T14:15:40Z</time></trkpt><trkpt lat="45.68788688269803" lon="11.308463461670234"><ele>668.0</ele><time>2026-04-01T14:15:42Z</time></trkpt><trkpt lat="45.68798816966199" lon="11.308371609577819"><ele>668.0</ele><time>2026-04-01T14:15:44Z</time></trkpt><trkpt lat="45.68805508880201" lon="11.308308016574248"><ele>668.0</ele><time>2026-04-01T14:15:45Z</time></trkpt><trkpt lat="45.688137483349394" lon="11.308274041604308"><ele>668.0</ele><time>2026-04-01T14:15:46Z</time></trkpt><trkpt lat="45.68821481473151" lon="11.308247111290175"><ele>668.0</ele><time>2026-04-01T14:15:47Z</time></trkpt><trkpt lat="45.688340968817165" lon="11.308270183955479"><ele>668.0</ele><time>2026-04-01T14:15:49Z</time></trkpt><trkpt lat="45.68841313482533" lon="11.308294056522591"><ele>668.0</ele><time>2026-04-01T14:15:50Z</time></trkpt><trkpt lat="45.68849573035587" lon="11.308290624764496"><ele>668.0</ele><time>2026-04-01T14:15:51Z</time></trkpt><trkpt lat="45.688588035859176" lon="11.308295230072"><ele>668.0</ele><time>2026-04-01T14:15:52Z</time></trkpt><trkpt lat="45.68868142571217" lon="11.308293945254992"><ele>668.0</ele><time>2026-04-01T14:15:53Z</time></trkpt><trkpt lat="45.68877113164835" lon="11.308299220665866"><ele>668.0</ele><time>2026-04-01T14:15:54Z</time></trkpt><trkpt lat="45.688856862864014" lon="11.308317173575858"><ele>668.0</ele><time>2026-04-01T14:15:55Z</time></trkpt><trkpt lat="45.688925886228894" lon="11.308335135687908"><ele>668.0</ele><time>2026-04-01T14:15:56Z</time></trkpt><trkpt lat="45.6890356898021" lon="11.30838599194614"><ele>670.1666666666666</ele><time>2026-04-01T14:15:58Z</time></trkpt><trkpt lat="45.689108621334704" lon="11.308390343197772"><ele>672.3333333333333</ele><time>2026-04-01T14:16:00Z</time></trkpt><trkpt lat="45.689211417443325" lon="11.308394997851927"><ele>674.5</ele><time>2026-04-01T14:16:02Z</time></trkpt><trkpt lat="45.68928159959918" lon="11.308374975622502"><ele>676.6666666666666</ele><time>2026-04-01T14:16:03Z</time></trkpt><trkpt lat="45.68936249090569" lon="11.308392778551497"><ele>678.8333333333334</ele><time>2026-04-01T14:16:04Z</time></trkpt><trkpt lat="45.689450487638545" lon="11.308372891665043"><ele>681.0</ele><time>2026-04-01T14:16:05Z</time></trkpt><trkpt lat="45.689523874507344" lon="11.308365944911092"><ele>682.8333333333334</ele><time>2026-04-01T14:16:06Z</time></trkpt><trkpt lat="45.6896152945602" lon="11.308361277909631"><ele>684.6666666666666</ele><time>2026-04-01T14:16:07Z</time></trkpt><trkpt lat="45.689707159080925" lon="11.308366569974027"><ele>686.5</ele><time>2026-04-01T14:16:08Z</time></trkpt><trkpt lat="45.689790294792466" lon="11.30837761711332"><ele>688.3333333333333</ele><time>2026-04-01T14:16:09Z</time></trkpt><trkpt lat="45.68984534176234" lon="11.308430876207163"><ele>690.1666666666666</ele><time>2026-04-01T14:16:10Z</time></trkpt><trkpt lat="45.68992174670335" lon="11.30850411769701"><ele>692.0</ele><time>2026-04-01T14:16:11Z</time></trkpt><trkpt lat="45.68998657294242" lon="11.308568847767418"><ele>692.0</ele><time>2026-04-01T14:16:12Z</time></trkpt><trkpt lat="45.6900466730846" lon="11.308638839186568"><ele>692.0</ele><time>2026-04-01T14:16:13Z</time></trkpt><trkpt lat="45.690155930117264" lon="11.30873668278161"><ele>692.0</ele><time>2026-04-01T14:16:15Z</time></trkpt><trkpt lat="45.69021469233108" lon="11.308777844631468"><ele>692.0</ele><time>2026-04-01T14:16:16Z</time></trkpt><trkpt lat="45.69029858015059" lon="11.308813687975476"><ele>692.0</ele><time>2026-04-01T14:16:17Z</time></trkpt><trkpt lat="45.69038656834621" lon="11.308831290434652"><ele>692.0</ele><time>2026-04-01T14:16:18Z</time></trkpt><trkpt lat="45.69048367357954" lon="11.30885616011394"><ele>693.5</ele><time>2026-04-01T14:16:19Z</time></trkpt><trkpt lat="45.69055702407277" lon="11.30889642597952"><ele>695.0</ele><time>2026-04-01T14:16:20Z</time></trkpt><trkpt lat="45.690624501278656" lon="11.30892737780683"><ele>696.5</ele><time>2026-04-01T14:16:21Z</time></trkpt><trkpt lat="45.6906813256111" lon="11.308990576794516"><ele>698.0</ele><time>2026-04-01T14:16:22Z</time></trkpt><trkpt lat="45.69073377730304" lon="11.309062413128517"><ele>699.5</ele><time>2026-04-01T14:16:23Z</time></trkpt><trkpt lat="45.690807198449725" lon="11.309192448269643"><ele>701.0</ele><time>2026-04-01T14:16:25Z</time></trkpt><trkpt lat="45.690881867280225" lon="11.309273553950447"><ele>697.6666666666666</ele><time>2026-04-01T14:16:27Z</time></trkpt><trkpt lat="45.69094481194276" lon="11.309284806805316"><ele>694.3333333333333</ele><time>2026-04-01T14:16:28Z</time></trkpt><trkpt lat="45.69107922528171" lon="11.30927631275219"><ele>691.0</ele><time>2026-04-01T14:16:30Z</time></trkpt><trkpt lat="45.6911499952428" lon="11.309267478298255"><ele>687.6666666666666</ele><time>2026-04-01T14:16:31Z</time></trkpt><trkpt lat="45.69122831921624" lon="11.309259898568754"><ele>684.3333333333334</ele><time>2026-04-01T14:16:32Z</time></trkpt><trkpt lat="45.69130128206618" lon="11.309255550808675"><ele>681.0</ele><time>2026-04-01T14:16:33Z</time></trkpt><trkpt lat="45.69137905726637" lon="11.309264191651277"><ele>681.0</ele><time>2026-04-01T14:16:34Z</time></trkpt><trkpt lat="45.69145609472085" lon="11.309264220102765"><ele>681.0</ele><time>2026-04-01T14:16:35Z</time></trkpt><trkpt lat="45.69152228939612" lon="11.309306864171264"><ele>681.0</ele><time>2026-04-01T14:16:36Z</time></trkpt><trkpt lat="45.691609449072196" lon="11.309347440587159"><ele>681.0</ele><time>2026-04-01T14:16:37Z</time></trkpt><trkpt lat="45.691696634642945" lon="11.30937023024893"><ele>681.0</ele><time>2026-04-01T14:16:38Z</time></trkpt><trkpt lat="45.691782215254015" lon="11.309367103063046"><ele>681.0</ele><time>2026-04-01T14:16:39Z</time></trkpt><trkpt lat="45.69185395176689" lon="11.309368752866323"><ele>681.0000000000001</ele><time>2026-04-01T14:16:40Z</time></trkpt><trkpt lat="45.691922753690804" lon="11.309365139442294"><ele>681.0</ele><time>2026-04-01T14:16:41Z</time></trkpt><trkpt lat="45.69198958407189" lon="11.309361205052628"><ele>681.0</ele><time>2026-04-01T14:16:42Z</time></trkpt><trkpt lat="45.69206324695681" lon="11.309371083771776"><ele>681.0</ele><time>2026-04-01T14:16:43Z</time></trkpt><trkpt lat="45.692129472676704" lon="11.309389944026558"><ele>681.0</ele><time>2026-04-01T14:16:44Z</time></trkpt><trkpt lat="45.69221135546322" lon="11.309406804255158"><ele>681.0000000000001</ele><time>2026-04-01T14:16:45Z</time></trkpt><trkpt lat="45.69229435493057" lon="11.309410930937483"><ele>681.0</ele><time>2026-04-01T14:16:46Z</time></trkpt><trkpt lat="45.6923911560974" lon="11.309413915285091"><ele>682.3333333333334</ele><time>2026-04-01T14:16:47Z</time></trkpt><trkpt lat="45.69247651651117" lon="11.309420675508541"><ele>683.6666666666666</ele><time>2026-04-01T14:16:48Z</time></trkpt><trkpt lat="45.69256588066674" lon="11.309427569058194"><ele>685.0</ele><time>2026-04-01T14:16:49Z</time></trkpt><trkpt lat="45.69267409102494" lon="11.309440607863058"><ele>686.3333333333333</ele><time>2026-04-01T14:16:50Z</time></trkpt><trkpt lat="45.69276514638749" lon="11.309448991774115"><ele>687.6666666666666</ele><time>2026-04-01T14:16:51Z</time></trkpt><trkpt lat="45.69283638227149" lon="11.309456659903397"><ele>689.0</ele><time>2026-04-01T14:16:52Z</time></trkpt><trkpt lat="45.692920344880875" lon="11.30947511820247"><ele>689.1666666666666</ele><time>2026-04-01T14:16:53Z</time></trkpt><trkpt lat="45.6930106428103" lon="11.30949374803404"><ele>689.3333333333333</ele><time>2026-04-01T14:16:54Z</time></trkpt><trkpt lat="45.69311521898887" lon="11.309529075906637"><ele>689.5</ele><time>2026-04-01T14:16:55Z</time></trkpt><trkpt lat="45.693190760837425" lon="11.309566394814114"><ele>689.6666666666666</ele><time>2026-04-01T14:16:56Z</time></trkpt><trkpt lat="45.693274623086424" lon="11.309595205013531"><ele>689.8333333333334</ele><time>2026-04-01T14:16:57Z</time></trkpt><trkpt lat="45.6933413570545" lon="11.30963722669355"><ele>690.0</ele><time>2026-04-01T14:16:58Z</time></trkpt><trkpt lat="45.69345268751541" lon="11.309672604001413"><ele>690.0</ele><time>2026-04-01T14:17:00Z</time></trkpt><trkpt lat="45.69351964729723" lon="11.309667462442095"><ele>690.0</ele><time>2026-04-01T14:17:01Z</time></trkpt><trkpt lat="45.69359575914689" lon="11.309651128625154"><ele>690.0</ele><time>2026-04-01T14:17:02Z</time></trkpt><trkpt lat="45.693676895963584" lon="11.309601690244005"><ele>690.0</ele><time>2026-04-01T14:17:03Z</time></trkpt><trkpt lat="45.69375380131482" lon="11.309561057946588"><ele>690.0</ele><time>2026-04-01T14:17:04Z</time></trkpt><trkpt lat="45.69381256274379" lon="11.309527309116058"><ele>690.0</ele><time>2026-04-01T14:17:05Z</time></trkpt><trkpt lat="45.693887490055545" lon="11.309463877411508"><ele>686.5</ele><time>2026-04-01T14:17:06Z</time></trkpt><trkpt lat="45.693951045895425" lon="11.309409158766826"><ele>683.0</ele><time>2026-04-01T14:17:07Z</time></trkpt><trkpt lat="45.69401101194823" lon="11.309340543176575"><ele>679.5</ele><time>2026-04-01T14:17:08Z</time></trkpt><trkpt lat="45.694063109985336" lon="11.309282650089958"><ele>676.0</ele><time>2026-04-01T14:17:09Z</time></trkpt><trkpt lat="45.69410786024451" lon="11.309216359490991"><ele>672.5</ele><time>2026-04-01T14:17:10Z</time></trkpt><trkpt lat="45.69418529236515" lon="11.309112017971149"><ele>669.0</ele><time>2026-04-01T14:17:12Z</time></trkpt><trkpt lat="45.69423981865618" lon="11.308998126472712"><ele>669.2</ele><time>2026-04-01T14:17:13Z</time></trkpt><trkpt lat="45.69430636702468" lon="11.308890109102832"><ele>669.4000000000001</ele><time>2026-04-01T14:17:14Z</time></trkpt><trkpt lat="45.6943316084261" lon="11.308778172478327"><ele>669.6</ele><time>2026-04-01T14:17:15Z</time></trkpt><trkpt lat="45.694336844465184" lon="11.308675470281715"><ele>669.8</ele><time>2026-04-01T14:17:16Z</time></trkpt><trkpt lat="45.69429771154755" lon="11.308550013644824"><ele>670.0</ele><time>2026-04-01T14:17:18Z</time></trkpt><trkpt lat="45.69421838219857" lon="11.308366893664859"><ele>670.0</ele><time>2026-04-01T14:17:20Z</time></trkpt><trkpt lat="45.69417084657827" lon="11.308297403256226"><ele>670.0</ele><time>2026-04-01T14:17:21Z</time></trkpt><trkpt lat="45.69412297770911" lon="11.30819630857809"><ele>670.0</ele><time>2026-04-01T14:17:22Z</time></trkpt><trkpt lat="45.694069759013885" lon="11.308111975060417"><ele>670.0</ele><time>2026-04-01T14:17:23Z</time></trkpt><trkpt lat="45.69402229304902" lon="11.308021477353686"><ele>670.0</ele><time>2026-04-01T14:17:24Z</time></trkpt><trkpt lat="45.693985324431594" lon="11.30792238936347"><ele>670.0</ele><time>2026-04-01T14:17:25Z</time></trkpt><trkpt lat="45.69392680565265" lon="11.307795245934875"><ele>665.8</ele><time>2026-04-01T14:17:27Z</time></trkpt><trkpt lat="45.69389358770528" lon="11.307696116473123"><ele>661.6</ele><time>2026-04-01T14:17:28Z</time></trkpt><trkpt lat="45.69382647094476" lon="11.307520723819747"><ele>657.4000000000001</ele><time>2026-04-01T14:17:30Z</time></trkpt><trkpt lat="45.69378121601425" lon="11.307419441354302"><ele>653.2</ele><time>2026-04-01T14:17:31Z</time></trkpt><trkpt lat="45.69373037222407" lon="11.307330731737947"><ele>649.0</ele><time>2026-04-01T14:17:32Z</time></trkpt><trkpt lat="45.69368328057641" lon="11.30725614298304"><ele>658.0</ele><time>2026-04-01T14:17:33Z</time></trkpt><trkpt lat="45.69358051145453" lon="11.307120534505078"><ele>667.0</ele><time>2026-04-01T14:17:35Z</time></trkpt><trkpt lat="45.693538309705175" lon="11.307035507973769"><ele>676.0</ele><time>2026-04-01T14:17:36Z</time></trkpt><trkpt lat="45.69347181263701" lon="11.306869561582587"><ele>685.0</ele><time>2026-04-01T14:17:38Z</time></trkpt><trkpt lat="45.6934348799412" lon="11.306773887085606"><ele>694.0</ele><time>2026-04-01T14:17:39Z</time></trkpt><trkpt lat="45.69342973815966" lon="11.30664767576066"><ele>694.0</ele><time>2026-04-01T14:17:40Z</time></trkpt><trkpt lat="45.69341914019408" lon="11.306480530175596"><ele>694.0</ele><time>2026-04-01T14:17:42Z</time></trkpt><trkpt lat="45.69340664086985" lon="11.306347269137312"><ele>694.0</ele><time>2026-04-01T14:17:43Z</time></trkpt><trkpt lat="45.69339272579528" lon="11.306145045779619"><ele>694.0</ele><time>2026-04-01T14:17:45Z</time></trkpt><trkpt lat="45.69338615388352" lon="11.305987725362765"><ele>691.4000000000001</ele><time>2026-04-01T14:17:47Z</time></trkpt><trkpt lat="45.69335288969778" lon="11.305891454059642"><ele>688.8</ele><time>2026-04-01T14:17:48Z</time></trkpt><trkpt lat="45.693353468070484" lon="11.30570247223259"><ele>686.2</ele><time>2026-04-01T14:17:50Z</time></trkpt><trkpt lat="45.693331646735736" lon="11.305567946760315"><ele>683.5999999999999</ele><time>2026-04-01T14:17:52Z</time></trkpt><trkpt lat="45.693263355450725" lon="11.30541075487106"><ele>681.0</ele><time>2026-04-01T14:17:54Z</time></trkpt><trkpt lat="45.693235747889396" lon="11.305325509264755"><ele>677.1999999999999</ele><time>2026-04-01T14:17:55Z</time></trkpt><trkpt lat="45.69320688707668" lon="11.30513817630069"><ele>673.4</ele><time>2026-04-01T14:17:57Z</time></trkpt><trkpt lat="45.69320459810928" lon="11.305042650328094"><ele>669.6</ele><time>2026-04-01T14:17:58Z</time></trkpt><trkpt lat="45.693182863583914" lon="11.304923490900338"><ele>665.8</ele><time>2026-04-01T14:18:00Z</time></trkpt><trkpt lat="45.693096881536874" lon="11.30486252546752"><ele>662.0</ele><time>2026-04-01T14:18:02Z</time></trkpt><trkpt lat="45.692965380155904" lon="11.304819136502221"><ele>662.0</ele><time>2026-04-01T14:18:04Z</time></trkpt><trkpt lat="45.6928754946507" lon="11.304780642203681"><ele>662.0</ele><time>2026-04-01T14:18:05Z</time></trkpt><trkpt lat="45.69281741239029" lon="11.304738098415337"><ele>662.0</ele><time>2026-04-01T14:18:06Z</time></trkpt><trkpt lat="45.69274428378869" lon="11.30463997997569"><ele>662.0</ele><time>2026-04-01T14:18:08Z</time></trkpt><trkpt lat="45.6927133978687" lon="11.304553505349247"><ele>662.0</ele><time>2026-04-01T14:18:09Z</time></trkpt><trkpt lat="45.69269586580025" lon="11.304391033488367"><ele>662.0</ele><time>2026-04-01T14:18:11Z</time></trkpt><trkpt lat="45.69267033735294" lon="11.304199838910872"><ele>670.6</ele><time>2026-04-01T14:18:13Z</time></trkpt><trkpt lat="45.69264350174247" lon="11.304029417828062"><ele>679.2</ele><time>2026-04-01T14:18:15Z</time></trkpt><trkpt lat="45.692576221516" lon="11.303862910468876"><ele>687.8</ele><time>2026-04-01T14:18:17Z</time></trkpt><trkpt lat="45.69257118946521" lon="11.30376174636056"><ele>696.4</ele><time>2026-04-01T14:18:18Z</time></trkpt><trkpt lat="45.69256381583718" lon="11.303661814631669"><ele>705.0</ele><time>2026-04-01T14:18:19Z</time></trkpt><trkpt lat="45.69256478404978" lon="11.303566792437419"><ele>705.5</ele><time>2026-04-01T14:18:20Z</time></trkpt><trkpt lat="45.692559544730294" lon="11.303459109685875"><ele>706.0</ele><time>2026-04-01T14:18:21Z</time></trkpt><trkpt lat="45.692563174115946" lon="11.303344934480624"><ele>706.5</ele><time>2026-04-01T14:18:22Z</time></trkpt><trkpt lat="45.692577802771446" lon="11.303253681077859"><ele>707.0</ele><time>2026-04-01T14:18:23Z</time></trkpt><trkpt lat="45.69263279111896" lon="11.303101128642332"><ele>707.5</ele><time>2026-04-01T14:18:25Z</time></trkpt><trkpt lat="45.69268668541705" lon="11.302988116004341"><ele>708.0</ele><time>2026-04-01T14:18:26Z</time></trkpt><trkpt lat="45.692736508628755" lon="11.302893497466087"><ele>701.5</ele><time>2026-04-01T14:18:27Z</time></trkpt><trkpt lat="45.69279129784952" lon="11.302780063487576"><ele>695.0</ele><time>2026-04-01T14:18:29Z</time></trkpt><trkpt lat="45.69284897451258" lon="11.302701543614605"><ele>688.5</ele><time>2026-04-01T14:18:30Z</time></trkpt><trkpt lat="45.69289890982916" lon="11.302639168897858"><ele>682.0</ele><time>2026-04-01T14:18:31Z</time></trkpt><trkpt lat="45.692961771056645" lon="11.302532424074554"><ele>675.5</ele><time>2026-04-01T14:18:33Z</time></trkpt><trkpt lat="45.693021068528765" lon="11.30246605116678"><ele>669.0</ele><time>2026-04-01T14:18:34Z</time></trkpt><trkpt lat="45.693038846920636" lon="11.302373025039039"><ele>669.0</ele><time>2026-04-01T14:18:35Z</time></trkpt><trkpt lat="45.69304523239664" lon="11.302256603057726"><ele>669.0</ele><time>2026-04-01T14:18:36Z</time></trkpt><trkpt lat="45.69303767583355" lon="11.302144528532207"><ele>669.0</ele><time>2026-04-01T14:18:37Z</time></trkpt><trkpt lat="45.69306430533119" lon="11.302003690034784"><ele>669.0</ele><time>2026-04-01T14:18:38Z</time></trkpt><trkpt lat="45.693103071334086" lon="11.301920671018546"><ele>669.0</ele><time>2026-04-01T14:18:39Z</time></trkpt><trkpt lat="45.69313709706288" lon="11.301841825634659"><ele>669.0</ele><time>2026-04-01T14:18:40Z</time></trkpt><trkpt lat="45.69319559333906" lon="11.301770884429818"><ele>674.4000000000001</ele><time>2026-04-01T14:18:41Z</time></trkpt><trkpt lat="45.69327019968477" lon="11.301692926550594"><ele>679.8</ele><time>2026-04-01T14:18:42Z</time></trkpt><trkpt lat="45.69332145192492" lon="11.301631501022735"><ele>685.2</ele><time>2026-04-01T14:18:43Z</time></trkpt><trkpt lat="45.69338459544322" lon="11.301477818022462"><ele>690.5999999999999</ele><time>2026-04-01T14:18:45Z</time></trkpt><trkpt lat="45.693437294169904" lon="11.301377842215139"><ele>696.0</ele><time>2026-04-01T14:18:46Z</time></trkpt><trkpt lat="45.69347624671064" lon="11.301261351115455"><ele>698.6666666666666</ele><time>2026-04-01T14:18:47Z</time></trkpt><trkpt lat="45.693519423927164" lon="11.301140837237863"><ele>701.3333333333334</ele><time>2026-04-01T14:18:48Z</time></trkpt><trkpt lat="45.69358350769587" lon="11.30101370048809"><ele>704.0</ele><time>2026-04-01T14:18:49Z</time></trkpt><trkpt lat="45.69363547275007" lon="11.300924763833711"><ele>706.6666666666667</ele><time>2026-04-01T14:18:50Z</time></trkpt><trkpt lat="45.693666069617585" lon="11.300845762044215"><ele>709.3333333333334</ele><time>2026-04-01T14:18:51Z</time></trkpt><trkpt lat="45.69371198240788" lon="11.300753656375166"><ele>712.0</ele><time>2026-04-01T14:18:52Z</time></trkpt><trkpt lat="45.69374749919599" lon="11.300675803893721"><ele>711.1666666666667</ele><time>2026-04-01T14:18:53Z</time></trkpt><trkpt lat="45.69376925791483" lon="11.300581037099912"><ele>710.3333333333334</ele><time>2026-04-01T14:18:54Z</time></trkpt><trkpt lat="45.6937702094845" lon="11.300454348667433"><ele>709.5</ele><time>2026-04-01T14:18:56Z</time></trkpt><trkpt lat="45.69368670136032" lon="11.3003362539791"><ele>708.6666666666666</ele><time>2026-04-01T14:18:58Z</time></trkpt><trkpt lat="45.693634857197345" lon="11.30027465171872"><ele>707.8333333333333</ele><time>2026-04-01T14:18:59Z</time></trkpt><trkpt lat="45.69357670969902" lon="11.300194314799299"><ele>707.0</ele><time>2026-04-01T14:19:00Z</time></trkpt><trkpt lat="45.69349342664156" lon="11.300122989014435"><ele>707.0</ele><time>2026-04-01T14:19:01Z</time></trkpt><trkpt lat="45.69343441192506" lon="11.300058782036173"><ele>707.0</ele><time>2026-04-01T14:19:02Z</time></trkpt><trkpt lat="45.69335690808742" lon="11.29993266639947"><ele>707.0</ele><time>2026-04-01T14:19:04Z</time></trkpt><trkpt lat="45.69334070234862" lon="11.299845445492888"><ele>707.0</ele><time>2026-04-01T14:19:05Z</time></trkpt><trkpt lat="45.693370622404096" lon="11.299700350878018"><ele>707.0</ele><time>2026-04-01T14:19:07Z</time></trkpt><trkpt lat="45.693402985967325" lon="11.299571147592385"><ele>703.2</ele><time>2026-04-01T14:19:09Z</time></trkpt><trkpt lat="45.693349514171146" lon="11.29942992097747"><ele>699.4000000000001</ele><time>2026-04-01T14:19:11Z</time></trkpt><trkpt lat="45.69328094911827" lon="11.299354795267243"><ele>695.5999999999999</ele><time>2026-04-01T14:19:12Z</time></trkpt><trkpt lat="45.69320959030968" lon="11.299288642445928"><ele>691.8</ele><time>2026-04-01T14:19:13Z</time></trkpt><trkpt lat="45.693152395668385" lon="11.299238590983792"><ele>688.0</ele><time>2026-04-01T14:19:14Z</time></trkpt><trkpt lat="45.693111656881655" lon="11.299100846495348"><ele>688.0</ele><time>2026-04-01T14:19:16Z</time></trkpt><trkpt lat="45.693118368686974" lon="11.299000508296697"><ele>688.0</ele><time>2026-04-01T14:19:17Z</time></trkpt><trkpt lat="45.693091489401546" lon="11.298912924342488"><ele>688.0</ele><time>2026-04-01T14:19:18Z</time></trkpt><trkpt lat="45.69308155823183" lon="11.2987921365667"><ele>688.0</ele><time>2026-04-01T14:19:19Z</time></trkpt><trkpt lat="45.693058366423" lon="11.298615758951966"><ele>688.0</ele><time>2026-04-01T14:19:21Z</time></trkpt><trkpt lat="45.69309336909328" lon="11.29850710239258"><ele>688.0</ele><time>2026-04-01T14:19:23Z</time></trkpt><trkpt lat="45.69320064342482" lon="11.298446982170677"><ele>688.6666666666667</ele><time>2026-04-01T14:19:25Z</time></trkpt><trkpt lat="45.69325824907557" lon="11.298401974970915"><ele>689.3333333333334</ele><time>2026-04-01T14:19:26Z</time></trkpt><trkpt lat="45.693323812042436" lon="11.298328762558087"><ele>690.0</ele><time>2026-04-01T14:19:27Z</time></trkpt><trkpt lat="45.69338008740808" lon="11.29824278237214"><ele>690.6666666666666</ele><time>2026-04-01T14:19:28Z</time></trkpt><trkpt lat="45.69341622049779" lon="11.298167110407153"><ele>691.3333333333333</ele><time>2026-04-01T14:19:29Z</time></trkpt><trkpt lat="45.693451594187344" lon="11.298029499098002"><ele>692.0</ele><time>2026-04-01T14:19:31Z</time></trkpt><trkpt lat="45.693410146263716" lon="11.29786827643928"><ele>694.5</ele><time>2026-04-01T14:19:33Z</time></trkpt><trkpt lat="45.693366476328606" lon="11.297785993034712"><ele>697.0</ele><time>2026-04-01T14:19:34Z</time></trkpt><trkpt lat="45.69332184870205" lon="11.297649121772318"><ele>699.5</ele><time>2026-04-01T14:19:35Z</time></trkpt><trkpt lat="45.693279728619686" lon="11.297529513754654"><ele>702.0</ele><time>2026-04-01T14:19:36Z</time></trkpt><trkpt lat="45.69330788095662" lon="11.297438170074924"><ele>704.5</ele><time>2026-04-01T14:19:37Z</time></trkpt><trkpt lat="45.69332814651404" lon="11.297312876242827"><ele>707.0</ele><time>2026-04-01T14:19:38Z</time></trkpt><trkpt lat="45.69334667872546" lon="11.297208977422729"><ele>708.5</ele><time>2026-04-01T14:19:39Z</time></trkpt><trkpt lat="45.69336474039678" lon="11.297096449247345"><ele>710.0</ele><time>2026-04-01T14:19:40Z</time></trkpt><trkpt lat="45.69340540153705" lon="11.297017140102357"><ele>711.5</ele><time>2026-04-01T14:19:41Z</time></trkpt><trkpt lat="45.693459116483574" lon="11.296919161788425"><ele>713.0</ele><time>2026-04-01T14:19:42Z</time></trkpt><trkpt lat="45.69352967051694" lon="11.29683136898297"><ele>714.5</ele><time>2026-04-01T14:19:43Z</time></trkpt><trkpt lat="45.69359591697132" lon="11.296777884843939"><ele>716.0</ele><time>2026-04-01T14:19:44Z</time></trkpt><trkpt lat="45.693656268721185" lon="11.296691157527016"><ele>705.5999999999999</ele><time>2026-04-01T14:19:46Z</time></trkpt><trkpt lat="45.69367545996854" lon="11.296560606694902"><ele>695.2</ele><time>2026-04-01T14:19:48Z</time></trkpt><trkpt lat="45.69360304868002" lon="11.296408206387694"><ele>684.8</ele><time>2026-04-01T14:19:50Z</time></trkpt><trkpt lat="45.69359186390355" lon="11.296312590429116"><ele>674.4000000000001</ele><time>2026-04-01T14:19:51Z</time></trkpt><trkpt lat="45.69363882381184" lon="11.296130983448675"><ele>664.0</ele><time>2026-04-01T14:19:53Z</time></trkpt><trkpt lat="45.693629839345085" lon="11.296017217392933"><ele>664.0</ele><time>2026-04-01T14:19:54Z</time></trkpt><trkpt lat="45.6936805834934" lon="11.29592983380496"><ele>664.0</ele><time>2026-04-01T14:19:55Z</time></trkpt><trkpt lat="45.693744079989905" lon="11.295814996530575"><ele>664.0</ele><time>2026-04-01T14:19:56Z</time></trkpt><trkpt lat="45.693784838465014" lon="11.295693106930585"><ele>664.0</ele><time>2026-04-01T14:19:58Z</time></trkpt><trkpt lat="45.69383335467349" lon="11.295529968618913"><ele>664.0</ele><time>2026-04-01T14:20:00Z</time></trkpt><trkpt lat="45.69381367327281" lon="11.29542883131609"><ele>663.1666666666667</ele><time>2026-04-01T14:20:01Z</time></trkpt><trkpt lat="45.69380775785696" lon="11.295326034890858"><ele>662.3333333333334</ele><time>2026-04-01T14:20:02Z</time></trkpt><trkpt lat="45.693793986098534" lon="11.295226040436402"><ele>661.5</ele><time>2026-04-01T14:20:03Z</time></trkpt><trkpt lat="45.69372265014195" lon="11.295075993425845"><ele>660.6666666666666</ele><time>2026-04-01T14:20:05Z</time></trkpt><trkpt lat="45.69370249818493" lon="11.29497383303193"><ele>659.8333333333333</ele><time>2026-04-01T14:20:06Z</time></trkpt><trkpt lat="45.69370160437775" lon="11.294862403148018"><ele>659.0</ele><time>2026-04-01T14:20:07Z</time></trkpt><trkpt lat="45.693657651846515" lon="11.294696317703158"><ele>656.0</ele><time>2026-04-01T14:20:09Z</time></trkpt><trkpt lat="45.693594860581435" lon="11.29462789419112"><ele>653.0</ele><time>2026-04-01T14:20:10Z</time></trkpt><trkpt lat="45.69345906036222" lon="11.294622562612519"><ele>650.0</ele><time>2026-04-01T14:20:12Z</time></trkpt><trkpt lat="45.69339492424687" lon="11.294615526798667"><ele>647.0</ele><time>2026-04-01T14:20:13Z</time></trkpt><trkpt lat="45.69333071603751" lon="11.29460160368096"><ele>644.0</ele><time>2026-04-01T14:20:14Z</time></trkpt><trkpt lat="45.69321792735552" lon="11.294525691235238"><ele>652.6666666666666</ele><time>2026-04-01T14:20:16Z</time></trkpt><trkpt lat="45.69316240722351" lon="11.294461952234682"><ele>661.3333333333333</ele><time>2026-04-01T14:20:17Z</time></trkpt><trkpt lat="45.69310749954169" lon="11.294387357949603"><ele>670.0</ele><time>2026-04-01T14:20:18Z</time></trkpt><trkpt lat="45.69306118947382" lon="11.294321325262846"><ele>678.6666666666666</ele><time>2026-04-01T14:20:19Z</time></trkpt><trkpt lat="45.6930177878817" lon="11.29425066900093"><ele>687.3333333333334</ele><time>2026-04-01T14:20:20Z</time></trkpt><trkpt lat="45.69296235584913" lon="11.294083814365422"><ele>696.0</ele><time>2026-04-01T14:20:22Z</time></trkpt><trkpt lat="45.69295418683399" lon="11.29393121105129"><ele>693.8</ele><time>2026-04-01T14:20:24Z</time></trkpt><trkpt lat="45.6929554898978" lon="11.293840157150376"><ele>691.5999999999999</ele><time>2026-04-01T14:20:25Z</time></trkpt><trkpt lat="45.692965960756894" lon="11.293676163314897"><ele>689.4</ele><time>2026-04-01T14:20:27Z</time></trkpt><trkpt lat="45.693002723545376" lon="11.293587764488986"><ele>687.2</ele><time>2026-04-01T14:20:28Z</time></trkpt><trkpt lat="45.69302565257159" lon="11.293461861993393"><ele>685.0</ele><time>2026-04-01T14:20:30Z</time></trkpt><trkpt lat="45.69298578962853" lon="11.293313860319008"><ele>685.0</ele><time>2026-04-01T14:20:32Z</time></trkpt><trkpt lat="45.69294583739465" lon="11.293224088369422"><ele>685.0</ele><time>2026-04-01T14:20:33Z</time></trkpt><trkpt lat="45.69289932199489" lon="11.29313589897625"><ele>685.0</ele><time>2026-04-01T14:20:34Z</time></trkpt><trkpt lat="45.69284433788794" lon="11.29295614893255"><ele>685.0</ele><time>2026-04-01T14:20:36Z</time></trkpt><trkpt lat="45.69281495531144" lon="11.292859097558546"><ele>685.0</ele><time>2026-04-01T14:20:37Z</time></trkpt><trkpt lat="45.6927895488898" lon="11.292680534546959"><ele>686.2</ele><time>2026-04-01T14:20:39Z</time></trkpt><trkpt lat="45.69280849729932" lon="11.292570957156297"><ele>687.4</ele><time>2026-04-01T14:20:41Z</time></trkpt><trkpt lat="45.692841870788115" lon="11.292471661881239"><ele>688.5999999999999</ele><time>2026-04-01T14:20:42Z</time></trkpt><trkpt lat="45.69293277085257" lon="11.292322757782987"><ele>689.8</ele><time>2026-04-01T14:20:44Z</time></trkpt><trkpt lat="45.69299698376118" lon="11.292165600158743"><ele>691.0</ele><time>2026-04-01T14:20:46Z</time></trkpt><trkpt lat="45.69304908123058" lon="11.292070523255834"><ele>691.5</ele><time>2026-04-01T14:20:47Z</time></trkpt><trkpt lat="45.69309458377361" lon="11.291921777061823"><ele>692.0</ele><time>2026-04-01T14:20:49Z</time></trkpt><trkpt lat="45.69311683784625" lon="11.291836690039606"><ele>692.5</ele><time>2026-04-01T14:20:50Z</time></trkpt><trkpt lat="45.69310215132881" lon="11.291686537273362"><ele>693.0</ele><time>2026-04-01T14:20:52Z</time></trkpt><trkpt lat="45.69302958864589" lon="11.291621686640758"><ele>693.5</ele><time>2026-04-01T14:20:54Z</time></trkpt><trkpt lat="45.69296401522045" lon="11.291602700988681"><ele>694.0</ele><time>2026-04-01T14:20:55Z</time></trkpt><trkpt lat="45.69289120915144" lon="11.291577063357835"><ele>694.0</ele><time>2026-04-01T14:20:56Z</time></trkpt><trkpt lat="45.69279741520784" lon="11.29151290148373"><ele>694.0</ele><time>2026-04-01T14:20:58Z</time></trkpt><trkpt lat="45.69270012050596" lon="11.29135186472663"><ele>694.0</ele><time>2026-04-01T14:21:00Z</time></trkpt><trkpt lat="45.69269935929123" lon="11.291193392091586"><ele>694.0</ele><time>2026-04-01T14:21:02Z</time></trkpt><trkpt lat="45.69268800044472" lon="11.291067221282871"><ele>703.2</ele><time>2026-04-01T14:21:03Z</time></trkpt><trkpt lat="45.69268058258079" lon="11.29095522058259"><ele>712.4000000000001</ele><time>2026-04-01T14:21:04Z</time></trkpt><trkpt lat="45.692698027162656" lon="11.290819957534708"><ele>721.6</ele><time>2026-04-01T14:21:06Z</time></trkpt><trkpt lat="45.69268942096641" lon="11.29063458604579"><ele>730.8</ele><time>2026-04-01T14:21:08Z</time></trkpt><trkpt lat="45.69267203388853" lon="11.290502292499564"><ele>740.0</ele><time>2026-04-01T14:21:09Z</time></trkpt><trkpt lat="45.692663288001164" lon="11.290316188240697"><ele>741.0</ele><time>2026-04-01T14:21:11Z</time></trkpt><trkpt lat="45.69268498817501" lon="11.29012783080427"><ele>742.0</ele><time>2026-04-01T14:21:13Z</time></trkpt><trkpt lat="45.69269682110722" lon="11.290020488333006"><ele>743.0</ele><time>2026-04-01T14:21:14Z</time></trkpt><trkpt lat="45.69272126838647" lon="11.289838658392087"><ele>744.0</ele><time>2026-04-01T14:21:16Z</time></trkpt><trkpt lat="45.692733828254916" lon="11.289712492302954"><ele>745.0</ele><time>2026-04-01T14:21:17Z</time></trkpt><trkpt lat="45.692768175367526" lon="11.289557855583478"><ele>739.4</ele><time>2026-04-01T14:21:18Z</time></trkpt><trkpt lat="45.69279694864542" lon="11.28946188188758"><ele>733.8</ele><time>2026-04-01T14:21:19Z</time></trkpt><trkpt lat="45.69283858730182" lon="11.289370101905945"><ele>728.2</ele><time>2026-04-01T14:21:20Z</time></trkpt><trkpt lat="45.6928952319331" lon="11.289283358520159"><ele>722.6</ele><time>2026-04-01T14:21:21Z</time></trkpt><trkpt lat="45.69297095141219" lon="11.289218502069401"><ele>717.0</ele><time>2026-04-01T14:21:23Z</time></trkpt><trkpt lat="45.69311478364586" lon="11.289193237193775"><ele>717.0</ele><time>2026-04-01T14:21:25Z</time></trkpt><trkpt lat="45.69318113032931" lon="11.28916858674448"><ele>717.0</ele><time>2026-04-01T14:21:26Z</time></trkpt><trkpt lat="45.693258652910345" lon="11.289057861101481"><ele>717.0</ele><time>2026-04-01T14:21:28Z</time></trkpt><trkpt lat="45.6932733784267" lon="11.288935160343993"><ele>717.0</ele><time>2026-04-01T14:21:29Z</time></trkpt><trkpt lat="45.693310356124584" lon="11.288837553436199"><ele>717.0</ele><time>2026-04-01T14:21:30Z</time></trkpt><trkpt lat="45.693324744924794" lon="11.288723012301457"><ele>717.0</ele><time>2026-04-01T14:21:31Z</time></trkpt><trkpt lat="45.69338293982208" lon="11.288604390055605"><ele>717.0</ele><time>2026-04-01T14:21:32Z</time></trkpt><trkpt lat="45.69340896784605" lon="11.28851226558363"><ele>717.0</ele><time>2026-04-01T14:21:33Z</time></trkpt><trkpt lat="45.6935042240627" lon="11.288451014639207"><ele>717.0</ele><time>2026-04-01T14:21:35Z</time></trkpt><trkpt lat="45.69356987800281" lon="11.288450230748062"><ele>717.0</ele><time>2026-04-01T14:21:36Z</time></trkpt><trkpt lat="45.69368208286197" lon="11.288420091891796"><ele>717.0</ele><time>2026-04-01T14:21:38Z</time></trkpt><trkpt lat="45.693729910966525" lon="11.288357411255223"><ele>717.0</ele><time>2026-04-01T14:21:39Z</time></trkpt><trkpt lat="45.693774092738316" lon="11.288270090833224"><ele>717.0</ele><time>2026-04-01T14:21:40Z</time></trkpt><trkpt lat="45.69383075400513" lon="11.288159349701143"><ele>717.0</ele><time>2026-04-01T14:21:41Z</time></trkpt><trkpt lat="45.693885596916665" lon="11.287999499713454"><ele>717.0</ele><time>2026-04-01T14:21:42Z</time></trkpt><trkpt lat="45.69395564903969" lon="11.287844549277338"><ele>717.0</ele><time>2026-04-01T14:21:43Z</time></trkpt><trkpt lat="45.69399151819864" lon="11.28773467461754"><ele>717.0</ele><time>2026-04-01T14:21:44Z</time></trkpt><trkpt lat="45.69402633640607" lon="11.28765171786291"><ele>716.8333333333334</ele><time>2026-04-01T14:21:45Z</time></trkpt><trkpt lat="45.694054316908215" lon="11.287539962735396"><ele>716.6666666666666</ele><time>2026-04-01T14:21:46Z</time></trkpt><trkpt lat="45.69408594936221" lon="11.287452637987508"><ele>716.5</ele><time>2026-04-01T14:21:47Z</time></trkpt><trkpt lat="45.69411779246987" lon="11.287369276996461"><ele>716.3333333333333</ele><time>2026-04-01T14:21:48Z</time></trkpt><trkpt lat="45.69418685560422" lon="11.287225994178108"><ele>716.1666666666666</ele><time>2026-04-01T14:21:50Z</time></trkpt><trkpt lat="45.69423516337349" lon="11.287130044184368"><ele>716.0</ele><time>2026-04-01T14:21:51Z</time></trkpt><trkpt lat="45.69430032345188" lon="11.287007614717972"><ele>716.0</ele><time>2026-04-01T14:21:52Z</time></trkpt><trkpt lat="45.69436698977991" lon="11.286906042434127"><ele>716.0</ele><time>2026-04-01T14:21:53Z</time></trkpt><trkpt lat="45.69443208109753" lon="11.286792947141873"><ele>716.0</ele><time>2026-04-01T14:21:54Z</time></trkpt><trkpt lat="45.69449066342051" lon="11.286706734385605"><ele>716.0</ele><time>2026-04-01T14:21:55Z</time></trkpt><trkpt lat="45.69451996157207" lon="11.286616220627"><ele>716.0</ele><time>2026-04-01T14:21:56Z</time></trkpt><trkpt lat="45.69456943057545" lon="11.286452584544767"><ele>723.1999999999999</ele><time>2026-04-01T14:21:58Z</time></trkpt><trkpt lat="45.69460698259931" lon="11.286357767694764"><ele>730.4</ele><time>2026-04-01T14:21:59Z</time></trkpt><trkpt lat="45.69464233440929" lon="11.286203382125557"><ele>737.6</ele><time>2026-04-01T14:22:01Z</time></trkpt><trkpt lat="45.694613193300356" lon="11.286050938244774"><ele>744.8</ele><time>2026-04-01T14:22:03Z</time></trkpt><trkpt lat="45.694563101124864" lon="11.285868711186797"><ele>752.0</ele><time>2026-04-01T14:22:05Z</time></trkpt><trkpt lat="45.694555626954354" lon="11.285691894369515"><ele>746.8333333333333</ele><time>2026-04-01T14:22:07Z</time></trkpt><trkpt lat="45.69455212878956" lon="11.285559792653086"><ele>741.6666666666666</ele><time>2026-04-01T14:22:08Z</time></trkpt><trkpt lat="45.69454669322528" lon="11.28543198556842"><ele>736.5</ele><time>2026-04-01T14:22:09Z</time></trkpt><trkpt lat="45.69454244059817" lon="11.285316115087221"><ele>731.3333333333334</ele><time>2026-04-01T14:22:10Z</time></trkpt><trkpt lat="45.69457217997498" lon="11.285220908363664"><ele>726.1666666666667</ele><time>2026-04-01T14:22:12Z</time></trkpt><trkpt lat="45.69465157104177" lon="11.285181972224226"><ele>721.0</ele><time>2026-04-01T14:22:14Z</time></trkpt><trkpt lat="45.694722857514826" lon="11.285182128357452"><ele>721.0</ele><time>2026-04-01T14:22:15Z</time></trkpt><trkpt lat="45.69479128101669" lon="11.285160247628491"><ele>721.0</ele><time>2026-04-01T14:22:16Z</time></trkpt><trkpt lat="45.69490970733971" lon="11.285171833899602"><ele>721.0</ele><time>2026-04-01T14:22:17Z</time></trkpt><trkpt lat="45.6950179146067" lon="11.285152485036448"><ele>721.0</ele><time>2026-04-01T14:22:18Z</time></trkpt><trkpt lat="45.69510513402444" lon="11.285135733749607"><ele>721.0</ele><time>2026-04-01T14:22:19Z</time></trkpt><trkpt lat="45.69516830747016" lon="11.285146324018022"><ele>721.0</ele><time>2026-04-01T14:22:20Z</time></trkpt><trkpt lat="45.69527993683578" lon="11.285209583664674"><ele>719.3333333333334</ele><time>2026-04-01T14:22:22Z</time></trkpt><trkpt lat="45.695342415737834" lon="11.285232831605953"><ele>717.6666666666667</ele><time>2026-04-01T14:22:23Z</time></trkpt><trkpt lat="45.69540656773569" lon="11.285275429365717"><ele>716.0</ele><time>2026-04-01T14:22:24Z</time></trkpt><trkpt lat="45.69548889598956" lon="11.2853279910087"><ele>714.3333333333334</ele><time>2026-04-01T14:22:25Z</time></trkpt><trkpt lat="45.69556302800125" lon="11.28536552906215"><ele>712.6666666666666</ele><time>2026-04-01T14:22:26Z</time></trkpt><trkpt lat="45.695643603766385" lon="11.285417429207047"><ele>711.0</ele><time>2026-04-01T14:22:27Z</time></trkpt><trkpt lat="45.69571603992215" lon="11.28546232199318"><ele>711.0</ele><time>2026-04-01T14:22:28Z</time></trkpt><trkpt lat="45.69579762642907" lon="11.285515254498696"><ele>711.0</ele><time>2026-04-01T14:22:29Z</time></trkpt><trkpt lat="45.69587072620657" lon="11.285578414000351"><ele>711.0</ele><time>2026-04-01T14:22:30Z</time></trkpt><trkpt lat="45.69596894892569" lon="11.285665063631315"><ele>711.0</ele><time>2026-04-01T14:22:31Z</time></trkpt><trkpt lat="45.696054537675764" lon="11.28574023320631"><ele>711.0</ele><time>2026-04-01T14:22:32Z</time></trkpt><trkpt lat="45.696125299100494" lon="11.285807332413937"><ele>716.1999999999999</ele><time>2026-04-01T14:22:33Z</time></trkpt><trkpt lat="45.696190925600554" lon="11.285884078418153"><ele>721.4</ele><time>2026-04-01T14:22:34Z</time></trkpt><trkpt lat="45.69627476309296" lon="11.285972892267063"><ele>726.6</ele><time>2026-04-01T14:22:35Z</time></trkpt><trkpt lat="45.69633959157475" lon="11.286036037727285"><ele>731.8</ele><time>2026-04-01T14:22:36Z</time></trkpt><trkpt lat="45.69640895906567" lon="11.2860847433737"><ele>737.0</ele><time>2026-04-01T14:22:37Z</time></trkpt><trkpt lat="45.69651282500186" lon="11.286171291058249"><ele>737.0</ele><time>2026-04-01T14:22:38Z</time></trkpt><trkpt lat="45.696610430962984" lon="11.286228410340735"><ele>737.0</ele><time>2026-04-01T14:22:39Z</time></trkpt><trkpt lat="45.69667350017351" lon="11.286258231728958"><ele>737.0</ele><time>2026-04-01T14:22:40Z</time></trkpt><trkpt lat="45.69675446571658" lon="11.28626841560772"><ele>737.0</ele><time>2026-04-01T14:22:42Z</time></trkpt><trkpt lat="45.696796866015944" lon="11.286191052594823"><ele>737.0</ele><time>2026-04-01T14:22:44Z</time></trkpt><trkpt lat="45.69680888821929" lon="11.286040735648609"><ele>737.0</ele><time>2026-04-01T14:22:46Z</time></trkpt><trkpt lat="45.69682833721604" lon="11.285876746043174"><ele>739.4000000000001</ele><time>2026-04-01T14:22:48Z</time></trkpt><trkpt lat="45.6969200957336" lon="11.285759798631442"><ele>741.8000000000001</ele><time>2026-04-01T14:22:50Z</time></trkpt><trkpt lat="45.696995447905564" lon="11.285705354306332"><ele>744.2</ele><time>2026-04-01T14:22:51Z</time></trkpt><trkpt lat="45.69711600549658" lon="11.285660690905601"><ele>746.6</ele><time>2026-04-01T14:22:53Z</time></trkpt><trkpt lat="45.69723127488137" lon="11.28566971260052"><ele>749.0</ele><time>2026-04-01T14:22:55Z</time></trkpt><trkpt lat="45.6973010844218" lon="11.285688754884744"><ele>749.0</ele><time>2026-04-01T14:22:56Z</time></trkpt><trkpt lat="45.69738721492495" lon="11.285708641599253"><ele>749.0</ele><time>2026-04-01T14:22:58Z</time></trkpt><trkpt lat="45.697578685830614" lon="11.285740723566882"><ele>749.0</ele><time>2026-04-01T14:23:02Z</time></trkpt><trkpt lat="45.697619544376025" lon="11.285810719884568"><ele>749.0</ele><time>2026-04-01T14:23:03Z</time></trkpt><trkpt lat="45.69766517171827" lon="11.28588032072073"><ele>749.0</ele><time>2026-04-01T14:23:05Z</time></trkpt><trkpt lat="45.69772624858463" lon="11.285963304499377"><ele>752.5</ele><time>2026-04-01T14:23:07Z</time></trkpt><trkpt lat="45.697834764466485" lon="11.28607357669273"><ele>756.0</ele><time>2026-04-01T14:23:09Z</time></trkpt><trkpt lat="45.69796363261963" lon="11.286183331525704"><ele>759.5</ele><time>2026-04-01T14:23:11Z</time></trkpt><trkpt lat="45.698032241582354" lon="11.286265707812131"><ele>763.0</ele><time>2026-04-01T14:23:12Z</time></trkpt><trkpt lat="45.698119625060976" lon="11.286314317169413"><ele>763.0</ele><time>2026-04-01T14:23:13Z</time></trkpt><trkpt lat="45.6982078268996" lon="11.286370146138923"><ele>763.0</ele><time>2026-04-01T14:23:14Z</time></trkpt><trkpt lat="45.69827046822479" lon="11.286443335864277"><ele>763.0</ele><time>2026-04-01T14:23:15Z</time></trkpt><trkpt lat="45.69834366487714" lon="11.286503629122292"><ele>763.0</ele><time>2026-04-01T14:23:17Z</time></trkpt><trkpt lat="45.698415507736435" lon="11.286552014678392"><ele>763.0</ele><time>2026-04-01T14:23:19Z</time></trkpt><trkpt lat="45.69848533921389" lon="11.286599044135958"><ele>763.0</ele><time>2026-04-01T14:23:21Z</time></trkpt><trkpt lat="45.698557632197605" lon="11.28665231418292"><ele>759.2</ele><time>2026-04-01T14:23:24Z</time></trkpt><trkpt lat="45.69859812546495" lon="11.286721474127214"><ele>755.4</ele><time>2026-04-01T14:23:25Z</time></trkpt><trkpt lat="45.69866159591847" lon="11.286867945429846"><ele>751.6</ele><time>2026-04-01T14:23:27Z</time></trkpt><trkpt lat="45.69871266161588" lon="11.286975335713542"><ele>747.8000000000001</ele><time>2026-04-01T14:23:29Z</time></trkpt><trkpt lat="45.69869912902353" lon="11.287104141690438"><ele>744.0</ele><time>2026-04-01T14:23:31Z</time></trkpt><trkpt lat="45.69870931468518" lon="11.28723333818524"><ele>744.0</ele><time>2026-04-01T14:23:33Z</time></trkpt><trkpt lat="45.69870533002203" lon="11.287349587297141"><ele>744.0</ele><time>2026-04-01T14:23:35Z</time></trkpt><trkpt lat="45.698802365691876" lon="11.287361807218087"><ele>744.0</ele><time>2026-04-01T14:23:38Z</time></trkpt><trkpt lat="45.698906419342364" lon="11.287277922042117"><ele>744.0</ele><time>2026-04-01T14:23:40Z</time></trkpt><trkpt lat="45.699012849853034" lon="11.287211576678148"><ele>744.0</ele><time>2026-04-01T14:23:42Z</time></trkpt><trkpt lat="45.699084046935376" lon="11.287117927759805"><ele>744.0</ele><time>2026-04-01T14:23:44Z</time></trkpt><trkpt lat="45.69916722676809" lon="11.28702731797125"><ele>744.0</ele><time>2026-04-01T14:23:46Z</time></trkpt><trkpt lat="45.69920757599988" lon="11.286915959159513"><ele>744.0</ele><time>2026-04-01T14:23:47Z</time></trkpt><trkpt lat="45.69924968812835" lon="11.286834069655942"><ele>744.0</ele><time>2026-04-01T14:23:48Z</time></trkpt><trkpt lat="45.699285811711206" lon="11.286750627173024"><ele>744.0</ele><time>2026-04-01T14:23:49Z</time></trkpt><trkpt lat="45.69933503904328" lon="11.286680551519686"><ele>744.0</ele><time>2026-04-01T14:23:50Z</time></trkpt><trkpt lat="45.69940349861793" lon="11.286605576713207"><ele>740.3333333333334</ele><time>2026-04-01T14:23:52Z</time></trkpt><trkpt lat="45.69944282504162" lon="11.286523769771517"><ele>736.6666666666666</ele><time>2026-04-01T14:23:54Z</time></trkpt><trkpt lat="45.69943711317668" lon="11.286426668600068"><ele>733.0</ele><time>2026-04-01T14:23:55Z</time></trkpt><trkpt lat="45.69946373636881" lon="11.286305724852731"><ele>729.3333333333333</ele><time>2026-04-01T14:23:57Z</time></trkpt><trkpt lat="45.69954219284986" lon="11.28617259452905"><ele>725.6666666666666</ele><time>2026-04-01T14:23:59Z</time></trkpt><trkpt lat="45.69959700364208" lon="11.286065738380584"><ele>722.0</ele><time>2026-04-01T14:24:01Z</time></trkpt><trkpt lat="45.69964833981996" lon="11.285932406312714"><ele>722.0</ele><time>2026-04-01T14:24:03Z</time></trkpt><trkpt lat="45.699718979018925" lon="11.285754277075181"><ele>722.0</ele><time>2026-04-01T14:24:05Z</time></trkpt><trkpt lat="45.699751487919976" lon="11.285640019165369"><ele>722.0</ele><time>2026-04-01T14:24:06Z</time></trkpt><trkpt lat="45.69978751229458" lon="11.285545678273845"><ele>722.0</ele><time>2026-04-01T14:24:07Z</time></trkpt><trkpt lat="45.69984605551355" lon="11.285424459986796"><ele>722.0</ele><time>2026-04-01T14:24:09Z</time></trkpt><trkpt lat="45.69988720764516" lon="11.285350980553826"><ele>724.0</ele><time>2026-04-01T14:24:10Z</time></trkpt><trkpt lat="45.69995503088632" lon="11.285225224317143"><ele>726.0</ele><time>2026-04-01T14:24:12Z</time></trkpt><trkpt lat="45.69999086847129" lon="11.285146944185376"><ele>728.0</ele><time>2026-04-01T14:24:13Z</time></trkpt><trkpt lat="45.700027126155206" lon="11.285064795971111"><ele>730.0</ele><time>2026-04-01T14:24:14Z</time></trkpt><trkpt lat="45.70004533612782" lon="11.284956857735065"><ele>732.0</ele><time>2026-04-01T14:24:15Z</time></trkpt><trkpt lat="45.70005533118869" lon="11.284866832477762"><ele>734.0</ele><time>2026-04-01T14:24:16Z</time></trkpt><trkpt lat="45.7000668288074" lon="11.28475413277259"><ele>734.1666666666666</ele><time>2026-04-01T14:24:17Z</time></trkpt><trkpt lat="45.700073213742364" lon="11.284661981380555"><ele>734.3333333333333</ele><time>2026-04-01T14:24:18Z</time></trkpt><trkpt lat="45.70006477346488" lon="11.284563608149034"><ele>734.5</ele><time>2026-04-01T14:24:19Z</time></trkpt><trkpt lat="45.700070713786914" lon="11.284367033310756"><ele>734.6666666666666</ele><time>2026-04-01T14:24:22Z</time></trkpt><trkpt lat="45.700079546433194" lon="11.28426225017266"><ele>734.8333333333334</ele><time>2026-04-01T14:24:23Z</time></trkpt><trkpt lat="45.70006234721335" lon="11.284152927739601"><ele>735.0</ele><time>2026-04-01T14:24:24Z</time></trkpt><trkpt lat="45.70006845974525" lon="11.28404657543753"><ele>735.6</ele><time>2026-04-01T14:24:25Z</time></trkpt><trkpt lat="45.700069543144515" lon="11.283893542725261"><ele>736.2</ele><time>2026-04-01T14:24:27Z</time></trkpt><trkpt lat="45.700071004467404" lon="11.283738887404231"><ele>736.8</ele><time>2026-04-01T14:24:29Z</time></trkpt><trkpt lat="45.70008475014433" lon="11.283587801150066"><ele>737.4</ele><time>2026-04-01T14:24:31Z</time></trkpt><trkpt lat="45.70011797406089" lon="11.283469791377152"><ele>738.0</ele><time>2026-04-01T14:24:33Z</time></trkpt><trkpt lat="45.70016726088255" lon="11.283388462723652"><ele>733.4</ele><time>2026-04-01T14:24:34Z</time></trkpt><trkpt lat="45.70025233125265" lon="11.283287991673076"><ele>728.8</ele><time>2026-04-01T14:24:36Z</time></trkpt><trkpt lat="45.700369329048" lon="11.283209630457277"><ele>724.2</ele><time>2026-04-01T14:24:38Z</time></trkpt><trkpt lat="45.70046575531348" lon="11.28322627229655"><ele>719.6</ele><time>2026-04-01T14:24:39Z</time></trkpt><trkpt lat="45.70054094919678" lon="11.283224931496376"><ele>715.0</ele><time>2026-04-01T14:24:40Z</time></trkpt><trkpt lat="45.700644440536934" lon="11.2832111201799"><ele>715.0</ele><time>2026-04-01T14:24:42Z</time></trkpt><trkpt lat="45.70074773671977" lon="11.283205442652944"><ele>715.0</ele><time>2026-04-01T14:24:44Z</time></trkpt><trkpt lat="45.70086044141447" lon="11.283191928280681"><ele>715.0</ele><time>2026-04-01T14:24:46Z</time></trkpt><trkpt lat="45.700981112667364" lon="11.28325371641627"><ele>715.0</ele><time>2026-04-01T14:24:48Z</time></trkpt><trkpt lat="45.70105098816932" lon="11.2832293263015"><ele>715.0</ele><time>2026-04-01T14:24:49Z</time></trkpt><trkpt lat="45.7011318446245" lon="11.283225873324822"><ele>711.4</ele><time>2026-04-01T14:24:50Z</time></trkpt><trkpt lat="45.70122155523703" lon="11.28321611744295"><ele>707.8</ele><time>2026-04-01T14:24:51Z</time></trkpt><trkpt lat="45.70130336693288" lon="11.283199999093789"><ele>704.2</ele><time>2026-04-01T14:24:53Z</time></trkpt><trkpt lat="45.70141629463335" lon="11.283173825599711"><ele>700.6</ele><time>2026-04-01T14:24:55Z</time></trkpt><trkpt lat="45.70151606168286" lon="11.283141173627174"><ele>697.0</ele><time>2026-04-01T14:24:57Z</time></trkpt><trkpt lat="45.7016316996724" lon="11.283115030897905"><ele>697.4000000000001</ele><time>2026-04-01T14:24:59Z</time></trkpt><trkpt lat="45.701729528172116" lon="11.283038141470954"><ele>697.8000000000001</ele><time>2026-04-01T14:25:01Z</time></trkpt><trkpt lat="45.701809431958175" lon="11.282975498232084"><ele>698.2</ele><time>2026-04-01T14:25:03Z</time></trkpt><trkpt lat="45.70187745917865" lon="11.282860961389256"><ele>698.6</ele><time>2026-04-01T14:25:05Z</time></trkpt><trkpt lat="45.701931577922416" lon="11.282720298149087"><ele>699.0</ele><time>2026-04-01T14:25:07Z</time></trkpt><trkpt lat="45.70197408297101" lon="11.282630990990178"><ele>699.0</ele><time>2026-04-01T14:25:09Z</time></trkpt><trkpt lat="45.702028560898064" lon="11.28257948545925"><ele>699.0</ele><time>2026-04-01T14:25:11Z</time></trkpt><trkpt lat="45.70213727587444" lon="11.28256519878739"><ele>699.0</ele><time>2026-04-01T14:25:13Z</time></trkpt><trkpt lat="45.70225660676049" lon="11.282580887762668"><ele>699.0</ele><time>2026-04-01T14:25:15Z</time></trkpt><trkpt lat="45.70232396522193" lon="11.282576884318233"><ele>699.0</ele><time>2026-04-01T14:25:16Z</time></trkpt><trkpt lat="45.70241040734729" lon="11.282591148319627"><ele>699.0</ele><time>2026-04-01T14:25:17Z</time></trkpt><trkpt lat="45.70250958143613" lon="11.282558557150125"><ele>699.0</ele><time>2026-04-01T14:25:18Z</time></trkpt><trkpt lat="45.70259374445455" lon="11.28251138543624"><ele>699.0</ele><time>2026-04-01T14:25:19Z</time></trkpt><trkpt lat="45.70268513603621" lon="11.282451171692317"><ele>699.0</ele><time>2026-04-01T14:25:22Z</time></trkpt><trkpt lat="45.7027330167313" lon="11.2823915828847"><ele>699.0</ele><time>2026-04-01T14:25:23Z</time></trkpt><trkpt lat="45.702821151547106" lon="11.282310659836178"><ele>699.0</ele><time>2026-04-01T14:25:25Z</time></trkpt><trkpt lat="45.702928006864454" lon="11.282246621962015"><ele>695.8333333333334</ele><time>2026-04-01T14:25:27Z</time></trkpt><trkpt lat="45.70300405807593" lon="11.28218041477333"><ele>692.6666666666666</ele><time>2026-04-01T14:25:28Z</time></trkpt><trkpt lat="45.70306285119622" lon="11.282122586753076"><ele>689.5</ele><time>2026-04-01T14:25:29Z</time></trkpt><trkpt lat="45.70312779295236" lon="11.282017447230228"><ele>686.3333333333333</ele><time>2026-04-01T14:25:31Z</time></trkpt><trkpt lat="45.70314927099071" lon="11.281893102861128"><ele>683.1666666666666</ele><time>2026-04-01T14:25:33Z</time></trkpt><trkpt lat="45.70315329352177" lon="11.281790559842177"><ele>680.0</ele><time>2026-04-01T14:25:34Z</time></trkpt><trkpt lat="45.703152458131775" lon="11.281682623133271"><ele>680.0</ele><time>2026-04-01T14:25:35Z</time></trkpt><trkpt lat="45.70313126546777" lon="11.28152147324897"><ele>680.0</ele><time>2026-04-01T14:25:37Z</time></trkpt><trkpt lat="45.70311713636103" lon="11.281414783779766"><ele>680.0</ele><time>2026-04-01T14:25:38Z</time></trkpt><trkpt lat="45.70311060549468" lon="11.281270485544391"><ele>680.0</ele><time>2026-04-01T14:25:39Z</time></trkpt><trkpt lat="45.70309500697974" lon="11.281153007971545"><ele>680.0</ele><time>2026-04-01T14:25:40Z</time></trkpt><trkpt lat="45.703079958460854" lon="11.280994265731334"><ele>680.4</ele><time>2026-04-01T14:25:42Z</time></trkpt><trkpt lat="45.70306887795151" lon="11.280887337811729"><ele>680.8</ele><time>2026-04-01T14:25:43Z</time></trkpt><trkpt lat="45.70306948424482" lon="11.280735098748503"><ele>681.2</ele><time>2026-04-01T14:25:45Z</time></trkpt><trkpt lat="45.70306416913087" lon="11.280642179647808"><ele>681.6</ele><time>2026-04-01T14:25:46Z</time></trkpt><trkpt lat="45.703064938558235" lon="11.280534620566167"><ele>682.0</ele><time>2026-04-01T14:25:47Z</time></trkpt><trkpt lat="45.703090969300526" lon="11.280322849405035"><ele>682.3333333333334</ele><time>2026-04-01T14:25:49Z</time></trkpt><trkpt lat="45.703097339698694" lon="11.280224233256321"><ele>682.6666666666667</ele><time>2026-04-01T14:25:50Z</time></trkpt><trkpt lat="45.70310168170344" lon="11.280121376736101"><ele>683.0</ele><time>2026-04-01T14:25:51Z</time></trkpt><trkpt lat="45.7031048430484" lon="11.279950709396129"><ele>683.3333333333334</ele><time>2026-04-01T14:25:53Z</time></trkpt><trkpt lat="45.70310074168023" lon="11.279855881073736"><ele>683.6666666666666</ele><time>2026-04-01T14:25:58Z</time></trkpt><trkpt lat="45.7030779088722" lon="11.279752788487452"><ele>684.0</ele><time>2026-04-01T14:26:12Z</time></trkpt><trkpt lat="45.70305699718825" lon="11.279595902345806"><ele>684.0</ele><time>2026-04-01T14:26:14Z</time></trkpt><trkpt lat="45.70304683819343" lon="11.279486119709071"><ele>684.0</ele><time>2026-04-01T14:26:15Z</time></trkpt><trkpt lat="45.70303462138457" lon="11.279369871233275"><ele>684.0</ele><time>2026-04-01T14:26:16Z</time></trkpt><trkpt lat="45.703025311575196" lon="11.27926339788814"><ele>684.0</ele><time>2026-04-01T14:26:17Z</time></trkpt><trkpt lat="45.70300448391955" lon="11.279047682361591"><ele>684.0</ele><time>2026-04-01T14:26:19Z</time></trkpt><trkpt lat="45.703000904482124" lon="11.278934913091602"><ele>684.6666666666666</ele><time>2026-04-01T14:26:20Z</time></trkpt><trkpt lat="45.70300604914521" lon="11.2788436756236"><ele>685.3333333333334</ele><time>2026-04-01T14:26:21Z</time></trkpt><trkpt lat="45.70305851552877" lon="11.278766319468245"><ele>686.0</ele><time>2026-04-01T14:26:22Z</time></trkpt><trkpt lat="45.70311610987008" lon="11.278571935076387"><ele>686.6666666666667</ele><time>2026-04-01T14:26:24Z</time></trkpt><trkpt lat="45.70313969313784" lon="11.278462800917419"><ele>687.3333333333334</ele><time>2026-04-01T14:26:25Z</time></trkpt><trkpt lat="45.703172929646136" lon="11.278383680548512"><ele>688.0</ele><time>2026-04-01T14:26:26Z</time></trkpt><trkpt lat="45.70317228648885" lon="11.27829286445165"><ele>688.0000000000001</ele><time>2026-04-01T14:26:27Z</time></trkpt><trkpt lat="45.70323336101311" lon="11.278201015215563"><ele>688.0</ele><time>2026-04-01T14:26:29Z</time></trkpt><trkpt lat="45.70327811011717" lon="11.278136787122207"><ele>688.0</ele><time>2026-04-01T14:26:33Z</time></trkpt><trkpt lat="45.703345245618294" lon="11.278088615222746"><ele>688.0</ele><time>2026-04-01T14:27:10Z</time></trkpt><trkpt lat="45.70337777202805" lon="11.277983949330048"><ele>688.0</ele><time>2026-04-01T14:27:11Z</time></trkpt><trkpt lat="45.703393960426716" lon="11.277895726785006"><ele>688.0000000000001</ele><time>2026-04-01T14:27:12Z</time></trkpt><trkpt lat="45.7034059039429" lon="11.277802198420497"><ele>688.0</ele><time>2026-04-01T14:27:13Z</time></trkpt><trkpt lat="45.703381337841634" lon="11.277662847273156"><ele>689.0</ele><time>2026-04-01T14:27:15Z</time></trkpt><trkpt lat="45.70331021386568" lon="11.277598900236129"><ele>690.0</ele><time>2026-04-01T14:27:16Z</time></trkpt><trkpt lat="45.70328149789296" lon="11.277515205568937"><ele>691.0</ele><time>2026-04-01T14:27:17Z</time></trkpt><trkpt lat="45.70323554048042" lon="11.277443285834986"><ele>692.0</ele><time>2026-04-01T14:27:18Z</time></trkpt><trkpt lat="45.703174791947646" lon="11.277325280878372"><ele>693.0</ele><time>2026-04-01T14:27:19Z</time></trkpt><trkpt lat="45.70311940681586" lon="11.277207715535148"><ele>694.0</ele><time>2026-04-01T14:27:21Z</time></trkpt><trkpt lat="45.7031172668016" lon="11.27705225643678"><ele>695.0</ele><time>2026-04-01T14:27:23Z</time></trkpt><trkpt lat="45.7030977768174" lon="11.27692987801688"><ele>696.0</ele><time>2026-04-01T14:27:24Z</time></trkpt><trkpt lat="45.70308280578614" lon="11.276809901550033"><ele>697.0</ele><time>2026-04-01T14:27:25Z</time></trkpt><trkpt lat="45.70305116206364" lon="11.276641701364309"><ele>698.0</ele><time>2026-04-01T14:27:26Z</time></trkpt><trkpt lat="45.70302921763765" lon="11.27650176320451"><ele>699.0</ele><time>2026-04-01T14:27:27Z</time></trkpt><trkpt lat="45.702994427285844" lon="11.27640377596307"><ele>700.4000000000001</ele><time>2026-04-01T14:27:28Z</time></trkpt><trkpt lat="45.70294164182165" lon="11.276327940750821"><ele>701.8</ele><time>2026-04-01T14:27:29Z</time></trkpt><trkpt lat="45.70288812003592" lon="11.27618077383922"><ele>703.2</ele><time>2026-04-01T14:27:31Z</time></trkpt><trkpt lat="45.70285003962689" lon="11.276045877802689"><ele>704.5999999999999</ele><time>2026-04-01T14:27:34Z</time></trkpt><trkpt lat="45.702790899715616" lon="11.275982406202893"><ele>706.0</ele><time>2026-04-01T14:27:35Z</time></trkpt><trkpt lat="45.70270976342271" lon="11.275914025542125"><ele>706.0</ele><time>2026-04-01T14:27:36Z</time></trkpt><trkpt lat="45.702634042037616" lon="11.27580251496518"><ele>706.0</ele><time>2026-04-01T14:27:38Z</time></trkpt><trkpt lat="45.702591311974686" lon="11.27573385528806"><ele>706.0</ele><time>2026-04-01T14:27:39Z</time></trkpt><trkpt lat="45.702568900120994" lon="11.275545388677504"><ele>706.0</ele><time>2026-04-01T14:27:41Z</time></trkpt><trkpt lat="45.70256308486683" lon="11.275374126845884"><ele>706.0</ele><time>2026-04-01T14:27:43Z</time></trkpt><trkpt lat="45.70256972591742" lon="11.275188812966753"><ele>704.6666666666667</ele><time>2026-04-01T14:27:45Z</time></trkpt><trkpt lat="45.702572336001026" lon="11.27508807909499"><ele>703.3333333333334</ele><time>2026-04-01T14:27:46Z</time></trkpt><trkpt lat="45.70256343684983" lon="11.274979797493238"><ele>702.0</ele><time>2026-04-01T14:27:47Z</time></trkpt><trkpt lat="45.70255784300667" lon="11.274796508752935"><ele>700.6666666666666</ele><time>2026-04-01T14:27:49Z</time></trkpt><trkpt lat="45.702537752857765" lon="11.274674327109107"><ele>699.3333333333333</ele><time>2026-04-01T14:27:50Z</time></trkpt><trkpt lat="45.70250640041505" lon="11.274573448101728"><ele>698.0</ele><time>2026-04-01T14:27:51Z</time></trkpt><trkpt lat="45.7024550553812" lon="11.274398540929372"><ele>697.0</ele><time>2026-04-01T14:27:53Z</time></trkpt><trkpt lat="45.702465808448544" lon="11.27427499650273"><ele>696.0</ele><time>2026-04-01T14:27:54Z</time></trkpt><trkpt lat="45.70246750732064" lon="11.274153158865886"><ele>695.0</ele><time>2026-04-01T14:27:55Z</time></trkpt><trkpt lat="45.70245349520202" lon="11.274040099926072"><ele>694.0</ele><time>2026-04-01T14:27:56Z</time></trkpt><trkpt lat="45.70244149513058" lon="11.27394470805225"><ele>693.0</ele><time>2026-04-01T14:27:57Z</time></trkpt><trkpt lat="45.7024294834338" lon="11.273812650213209"><ele>692.0</ele><time>2026-04-01T14:27:59Z</time></trkpt><trkpt lat="45.7023835387399" lon="11.273734389036093"><ele>690.1666666666666</ele><time>2026-04-01T14:28:00Z</time></trkpt><trkpt lat="45.70230001700251" lon="11.273650329507822"><ele>688.3333333333333</ele><time>2026-04-01T14:28:02Z</time></trkpt><trkpt lat="45.70224672723295" lon="11.273596350186109"><ele>686.5</ele><time>2026-04-01T14:28:03Z</time></trkpt><trkpt lat="45.70220227607217" lon="11.273532341141"><ele>684.6666666666666</ele><time>2026-04-01T14:28:04Z</time></trkpt><trkpt lat="45.70216561911754" lon="11.273454466728746"><ele>682.8333333333334</ele><time>2026-04-01T14:28:05Z</time></trkpt><trkpt lat="45.70212905258585" lon="11.273348354185798"><ele>681.0</ele><time>2026-04-01T14:28:07Z</time></trkpt><trkpt lat="45.70211381070016" lon="11.273231654113967"><ele>681.0</ele><time>2026-04-01T14:28:09Z</time></trkpt><trkpt lat="45.702104838024546" lon="11.273133940622891"><ele>681.0</ele><time>2026-04-01T14:28:10Z</time></trkpt><trkpt lat="45.70211592501433" lon="11.27296669543663"><ele>681.0</ele><time>2026-04-01T14:28:12Z</time></trkpt><trkpt lat="45.70214629941137" lon="11.272858472948677"><ele>681.0</ele><time>2026-04-01T14:28:14Z</time></trkpt><trkpt lat="45.70216847356982" lon="11.272714882675137"><ele>681.0</ele><time>2026-04-01T14:28:16Z</time></trkpt><trkpt lat="45.702067144850496" lon="11.272617838416396"><ele>682.6666666666666</ele><time>2026-04-01T14:28:18Z</time></trkpt><trkpt lat="45.70199303069545" lon="11.272559066338552"><ele>684.3333333333334</ele><time>2026-04-01T14:28:19Z</time></trkpt><trkpt lat="45.70192672840152" lon="11.272471460601965"><ele>686.0</ele><time>2026-04-01T14:28:20Z</time></trkpt><trkpt lat="45.70190386288722" lon="11.272355518079175"><ele>687.6666666666667</ele><time>2026-04-01T14:28:21Z</time></trkpt><trkpt lat="45.70187880312201" lon="11.272241202287844"><ele>689.3333333333334</ele><time>2026-04-01T14:28:22Z</time></trkpt><trkpt lat="45.70187724196678" lon="11.27214895652137"><ele>691.0</ele><time>2026-04-01T14:28:23Z</time></trkpt><trkpt lat="45.70184363603357" lon="11.27205527504827"><ele>691.0</ele><time>2026-04-01T14:28:24Z</time></trkpt><trkpt lat="45.70181704779923" lon="11.27194574877364"><ele>691.0</ele><time>2026-04-01T14:28:25Z</time></trkpt><trkpt lat="45.70178352017019" lon="11.271823278572185"><ele>691.0</ele><time>2026-04-01T14:28:26Z</time></trkpt><trkpt lat="45.70175625470573" lon="11.271720611462277"><ele>691.0</ele><time>2026-04-01T14:28:27Z</time></trkpt><trkpt lat="45.7017434622845" lon="11.271573566154414"><ele>691.0</ele><time>2026-04-01T14:28:29Z</time></trkpt><trkpt lat="45.701691066029646" lon="11.271443820187224"><ele>687.8</ele><time>2026-04-01T14:28:31Z</time></trkpt><trkpt lat="45.70164725202949" lon="11.271361655084965"><ele>684.5999999999999</ele><time>2026-04-01T14:28:32Z</time></trkpt><trkpt lat="45.701590950519254" lon="11.271262971993114"><ele>681.4</ele><time>2026-04-01T14:28:33Z</time></trkpt><trkpt lat="45.701541514384445" lon="11.271176322254231"><ele>678.2</ele><time>2026-04-01T14:28:34Z</time></trkpt><trkpt lat="45.7014984596311" lon="11.271100857592666"><ele>675.0</ele><time>2026-04-01T14:28:35Z</time></trkpt><trkpt lat="45.70141028015235" lon="11.270936879469614"><ele>675.0</ele><time>2026-04-01T14:28:37Z</time></trkpt><trkpt lat="45.70135197763945" lon="11.270822811207864"><ele>675.0</ele><time>2026-04-01T14:28:38Z</time></trkpt><trkpt lat="45.701320499020646" lon="11.270742181357393"><ele>675.0</ele><time>2026-04-01T14:28:39Z</time></trkpt><trkpt lat="45.70123455855089" lon="11.270660637374665"><ele>675.0</ele><time>2026-04-01T14:28:41Z</time></trkpt><trkpt lat="45.70117252318108" lon="11.27057899943804"><ele>675.0</ele><time>2026-04-01T14:28:42Z</time></trkpt><trkpt lat="45.70111071587049" lon="11.270538652127902"><ele>675.0</ele><time>2026-04-01T14:28:43Z</time></trkpt><trkpt lat="45.700997934033126" lon="11.270450234025354"><ele>678.8333333333334</ele><time>2026-04-01T14:28:45Z</time></trkpt><trkpt lat="45.70092626665133" lon="11.270388489058822"><ele>682.6666666666666</ele><time>2026-04-01T14:28:46Z</time></trkpt><trkpt lat="45.700872960187745" lon="11.270331931042932"><ele>686.5</ele><time>2026-04-01T14:28:47Z</time></trkpt><trkpt lat="45.70081590145147" lon="11.270227092581719"><ele>690.3333333333333</ele><time>2026-04-01T14:28:49Z</time></trkpt><trkpt lat="45.700787584234384" lon="11.270092881468292"><ele>694.1666666666666</ele><time>2026-04-01T14:28:51Z</time></trkpt><trkpt lat="45.70076988501183" lon="11.269981137646454"><ele>698.0</ele><time>2026-04-01T14:28:52Z</time></trkpt><trkpt lat="45.70073411596093" lon="11.269873405040256"><ele>698.0</ele><time>2026-04-01T14:28:53Z</time></trkpt><trkpt lat="45.70068487051529" lon="11.269789192200388"><ele>698.0</ele><time>2026-04-01T14:28:54Z</time></trkpt><trkpt lat="45.70065127878084" lon="11.269699667978978"><ele>698.0</ele><time>2026-04-01T14:28:55Z</time></trkpt><trkpt lat="45.70062726348946" lon="11.269607219638836"><ele>698.0</ele><time>2026-04-01T14:28:56Z</time></trkpt><trkpt lat="45.700592126679226" lon="11.26952556427007"><ele>698.0</ele><time>2026-04-01T14:28:57Z</time></trkpt><trkpt lat="45.700509620226875" lon="11.269378574779164"><ele>698.0</ele><time>2026-04-01T14:28:59Z</time></trkpt><trkpt lat="45.70049565746452" lon="11.269240267096553"><ele>698.1666666666666</ele><time>2026-04-01T14:29:01Z</time></trkpt><trkpt lat="45.70048287388053" lon="11.269144178492606"><ele>698.3333333333333</ele><time>2026-04-01T14:29:02Z</time></trkpt><trkpt lat="45.70046405565355" lon="11.268999528698115"><ele>698.5</ele><time>2026-04-01T14:29:04Z</time></trkpt><trkpt lat="45.700421562834464" lon="11.26890604976324"><ele>698.6666666666666</ele><time>2026-04-01T14:29:11Z</time></trkpt><trkpt lat="45.70037058052196" lon="11.268796905691778"><ele>698.8333333333334</ele><time>2026-04-01T14:36:48Z</time></trkpt><trkpt lat="45.700348698867586" lon="11.268690383249462"><ele>699.0</ele><time>2026-04-01T14:36:50Z</time></trkpt><trkpt lat="45.7003228917018" lon="11.268528312707007"><ele>699.0</ele><time>2026-04-01T14:36:52Z</time></trkpt><trkpt lat="45.70031262201805" lon="11.268437524589919"><ele>699.0</ele><time>2026-04-01T14:36:53Z</time></trkpt><trkpt lat="45.70030662639923" lon="11.268298176045217"><ele>699.0</ele><time>2026-04-01T14:36:55Z</time></trkpt><trkpt lat="45.70030629084153" lon="11.26812188551533"><ele>699.0</ele><time>2026-04-01T14:36:57Z</time></trkpt><trkpt lat="45.70031318580252" lon="11.268011240705293"><ele>699.0</ele><time>2026-04-01T14:36:58Z</time></trkpt><trkpt lat="45.7003231862618" lon="11.267886239402058"><ele>700.3333333333334</ele><time>2026-04-01T14:36:59Z</time></trkpt><trkpt lat="45.700355318448594" lon="11.267791992486696"><ele>701.6666666666666</ele><time>2026-04-01T14:37:00Z</time></trkpt><trkpt lat="45.70040420688806" lon="11.26769187665027"><ele>703.0</ele><time>2026-04-01T14:37:01Z</time></trkpt><trkpt lat="45.700440449444045" lon="11.26761025499177"><ele>704.3333333333333</ele><time>2026-04-01T14:37:02Z</time></trkpt><trkpt lat="45.70050205689931" lon="11.267451266036772"><ele>705.6666666666666</ele><time>2026-04-01T14:37:04Z</time></trkpt><trkpt lat="45.70053106513504" lon="11.267368438233815"><ele>707.0</ele><time>2026-04-01T14:37:05Z</time></trkpt><trkpt lat="45.700557714396695" lon="11.267278788876117"><ele>706.8333333333333</ele><time>2026-04-01T14:37:06Z</time></trkpt><trkpt lat="45.700590501872966" lon="11.267183249234305"><ele>706.6666666666666</ele><time>2026-04-01T14:37:07Z</time></trkpt><trkpt lat="45.700626784845845" lon="11.26705142053916"><ele>706.5</ele><time>2026-04-01T14:37:09Z</time></trkpt><trkpt lat="45.70070506409034" lon="11.266918973276924"><ele>706.3333333333334</ele><time>2026-04-01T14:37:11Z</time></trkpt><trkpt lat="45.70070364022209" lon="11.2667940311042"><ele>706.1666666666667</ele><time>2026-04-01T14:37:12Z</time></trkpt><trkpt lat="45.700738523444315" lon="11.266718959177327"><ele>706.0</ele><time>2026-04-01T14:37:13Z</time></trkpt><trkpt lat="45.7008533480766" lon="11.266631314762483"><ele>706.0</ele><time>2026-04-01T14:37:15Z</time></trkpt><trkpt lat="45.70091021640957" lon="11.266587520367771"><ele>706.0</ele><time>2026-04-01T14:37:16Z</time></trkpt><trkpt lat="45.70097078755911" lon="11.266543160644773"><ele>706.0</ele><time>2026-04-01T14:37:17Z</time></trkpt><trkpt lat="45.70103931700942" lon="11.2664758069275"><ele>706.0</ele><time>2026-04-01T14:37:18Z</time></trkpt><trkpt lat="45.701099084451194" lon="11.266369364035215"><ele>706.0</ele><time>2026-04-01T14:37:19Z</time></trkpt><trkpt lat="45.701154503487054" lon="11.266279866070722"><ele>706.0</ele><time>2026-04-01T14:37:20Z</time></trkpt><trkpt lat="45.701202279321194" lon="11.26620668150265"><ele>707.0</ele><time>2026-04-01T14:37:21Z</time></trkpt><trkpt lat="45.701258398773845" lon="11.26615636415365"><ele>708.0</ele><time>2026-04-01T14:37:22Z</time></trkpt><trkpt lat="45.701346218425286" lon="11.266123036250237"><ele>709.0</ele><time>2026-04-01T14:37:24Z</time></trkpt><trkpt lat="45.70143096924106" lon="11.26617418308115"><ele>710.0</ele><time>2026-04-01T14:37:26Z</time></trkpt><trkpt lat="45.70151352717974" lon="11.26619698481034"><ele>711.0</ele><time>2026-04-01T14:37:27Z</time></trkpt><trkpt lat="45.70157657510188" lon="11.26626426303938"><ele>712.0</ele><time>2026-04-01T14:37:28Z</time></trkpt><trkpt lat="45.701616689889136" lon="11.266378337853082"><ele>712.0</ele><time>2026-04-01T14:37:29Z</time></trkpt><trkpt lat="45.70169510622791" lon="11.266451020412884"><ele>712.0</ele><time>2026-04-01T14:37:30Z</time></trkpt><trkpt lat="45.70178518914823" lon="11.266463073730407"><ele>712.0</ele><time>2026-04-01T14:37:32Z</time></trkpt><trkpt lat="45.70185373285989" lon="11.266413954994627"><ele>712.0</ele><time>2026-04-01T14:37:33Z</time></trkpt><trkpt lat="45.701925894466115" lon="11.266349442504042"><ele>712.0</ele><time>2026-04-01T14:37:34Z</time></trkpt><trkpt lat="45.70198984172883" lon="11.266314341042714"><ele>712.0</ele><time>2026-04-01T14:37:35Z</time></trkpt><trkpt lat="45.70206995013161" lon="11.266278345211852"><ele>713.5</ele><time>2026-04-01T14:37:36Z</time></trkpt><trkpt lat="45.702147708569846" lon="11.2662241054734"><ele>715.0</ele><time>2026-04-01T14:37:37Z</time></trkpt><trkpt lat="45.70223765765782" lon="11.26612237437989"><ele>716.5</ele><time>2026-04-01T14:37:39Z</time></trkpt><trkpt lat="45.70229525703158" lon="11.266056879719944"><ele>718.0</ele><time>2026-04-01T14:37:40Z</time></trkpt><trkpt lat="45.702366240428645" lon="11.265987935605445"><ele>719.5</ele><time>2026-04-01T14:37:41Z</time></trkpt><trkpt lat="45.70243021797339" lon="11.265924392198928"><ele>721.0</ele><time>2026-04-01T14:37:42Z</time></trkpt><trkpt lat="45.70247772322401" lon="11.265843882427943"><ele>721.0</ele><time>2026-04-01T14:37:43Z</time></trkpt><trkpt lat="45.70256915802894" lon="11.265753472693689"><ele>721.0</ele><time>2026-04-01T14:37:44Z</time></trkpt><trkpt lat="45.702630112949514" lon="11.265631300225209"><ele>721.0</ele><time>2026-04-01T14:37:45Z</time></trkpt><trkpt lat="45.702709748050516" lon="11.26553321398335"><ele>721.0</ele><time>2026-04-01T14:37:46Z</time></trkpt><trkpt lat="45.7027883571736" lon="11.265464909171776"><ele>721.0</ele><time>2026-04-01T14:37:47Z</time></trkpt><trkpt lat="45.702845529970276" lon="11.2654014185984"><ele>722.6666666666667</ele><time>2026-04-01T14:37:48Z</time></trkpt><trkpt lat="45.70291008118476" lon="11.26535651506455"><ele>724.3333333333334</ele><time>2026-04-01T14:37:49Z</time></trkpt><trkpt lat="45.702977847183575" lon="11.2653230124809"><ele>726.0</ele><time>2026-04-01T14:37:50Z</time></trkpt><trkpt lat="45.703047256728446" lon="11.265250705888823"><ele>727.6666666666666</ele><time>2026-04-01T14:37:52Z</time></trkpt><trkpt lat="45.70313819741192" lon="11.265140874511163"><ele>729.3333333333333</ele><time>2026-04-01T14:37:54Z</time></trkpt><trkpt lat="45.70319948965724" lon="11.265120132889262"><ele>731.0</ele><time>2026-04-01T14:37:55Z</time></trkpt><trkpt lat="45.70329650319173" lon="11.26510780268525"><ele>731.0</ele><time>2026-04-01T14:37:56Z</time></trkpt><trkpt lat="45.70338774268877" lon="11.265126084690957"><ele>731.0</ele><time>2026-04-01T14:37:57Z</time></trkpt><trkpt lat="45.70347372195121" lon="11.265117432851058"><ele>731.0</ele><time>2026-04-01T14:37:58Z</time></trkpt><trkpt lat="45.70358003945054" lon="11.265081355762693"><ele>731.0</ele><time>2026-04-01T14:37:59Z</time></trkpt><trkpt lat="45.7036812372305" lon="11.26508287397277"><ele>731.0</ele><time>2026-04-01T14:38:00Z</time></trkpt><trkpt lat="45.70376049347253" lon="11.26507998078246"><ele>733.0</ele><time>2026-04-01T14:38:01Z</time></trkpt><trkpt lat="45.70389596867755" lon="11.265043898485539"><ele>735.0</ele><time>2026-04-01T14:38:03Z</time></trkpt><trkpt lat="45.703986557292524" lon="11.26505376348277"><ele>737.0</ele><time>2026-04-01T14:38:04Z</time></trkpt><trkpt lat="45.70408931534803" lon="11.265029365546553"><ele>739.0</ele><time>2026-04-01T14:38:05Z</time></trkpt><trkpt lat="45.70417639033998" lon="11.265026675832322"><ele>741.0</ele><time>2026-04-01T14:38:06Z</time></trkpt><trkpt lat="45.704261582785065" lon="11.265058568690423"><ele>741.0</ele><time>2026-04-01T14:38:07Z</time></trkpt><trkpt lat="45.70433873960967" lon="11.26505139103844"><ele>741.0</ele><time>2026-04-01T14:38:08Z</time></trkpt><trkpt lat="45.70441870919965" lon="11.265008522790556"><ele>741.0</ele><time>2026-04-01T14:38:09Z</time></trkpt><trkpt lat="45.70450062889654" lon="11.2649493062759"><ele>741.0</ele><time>2026-04-01T14:38:10Z</time></trkpt><trkpt lat="45.70459184810287" lon="11.264882954323857"><ele>741.0</ele><time>2026-04-01T14:38:11Z</time></trkpt><trkpt lat="45.70466781642579" lon="11.264811373075709"><ele>741.0</ele><time>2026-04-01T14:38:12Z</time></trkpt><trkpt lat="45.704748548167416" lon="11.264706060794317"><ele>740.5999999999999</ele><time>2026-04-01T14:38:14Z</time></trkpt><trkpt lat="45.70473251459933" lon="11.264568829613864"><ele>740.2</ele><time>2026-04-01T14:38:15Z</time></trkpt><trkpt lat="45.70474083493756" lon="11.264454412952535"><ele>739.8</ele><time>2026-04-01T14:38:16Z</time></trkpt><trkpt lat="45.70476886939053" lon="11.264330232244244"><ele>739.4000000000001</ele><time>2026-04-01T14:38:17Z</time></trkpt><trkpt lat="45.704817954591014" lon="11.264215060758207"><ele>739.0</ele><time>2026-04-01T14:38:18Z</time></trkpt><trkpt lat="45.70486806276093" lon="11.26407723686423"><ele>739.0</ele><time>2026-04-01T14:38:19Z</time></trkpt><trkpt lat="45.70492869909889" lon="11.263958602343122"><ele>739.0</ele><time>2026-04-01T14:38:20Z</time></trkpt><trkpt lat="45.705027023116486" lon="11.263796316882447"><ele>739.0</ele><time>2026-04-01T14:38:22Z</time></trkpt><trkpt lat="45.705094509717206" lon="11.263740267620353"><ele>739.0</ele><time>2026-04-01T14:38:23Z</time></trkpt><trkpt lat="45.705183186205005" lon="11.263657165618259"><ele>739.0</ele><time>2026-04-01T14:38:25Z</time></trkpt><trkpt lat="45.70524586720245" lon="11.263593013368917"><ele>739.6666666666667</ele><time>2026-04-01T14:38:26Z</time></trkpt><trkpt lat="45.705327728538485" lon="11.263511837889729"><ele>740.3333333333334</ele><time>2026-04-01T14:38:27Z</time></trkpt><trkpt lat="45.705383798613646" lon="11.263431779221309"><ele>741.0</ele><time>2026-04-01T14:38:28Z</time></trkpt><trkpt lat="45.705401145007215" lon="11.263255562661765"><ele>741.6666666666666</ele><time>2026-04-01T14:38:30Z</time></trkpt><trkpt lat="45.705380772607874" lon="11.263169916925875"><ele>742.3333333333333</ele><time>2026-04-01T14:38:31Z</time></trkpt><trkpt lat="45.70537333872603" lon="11.263061055351757"><ele>743.0</ele><time>2026-04-01T14:38:32Z</time></trkpt><trkpt lat="45.70536989629557" lon="11.262960174025997"><ele>743.5999999999999</ele><time>2026-04-01T14:38:33Z</time></trkpt><trkpt lat="45.70534226245008" lon="11.262841961362891"><ele>744.1999999999999</ele><time>2026-04-01T14:38:35Z</time></trkpt><trkpt lat="45.70538216374366" lon="11.262758689101258"><ele>744.8</ele><time>2026-04-01T14:38:37Z</time></trkpt><trkpt lat="45.70547080619828" lon="11.262677622273959"><ele>745.4</ele><time>2026-04-01T14:38:39Z</time></trkpt><trkpt lat="45.70556632918961" lon="11.262566416910348"><ele>746.0</ele><time>2026-04-01T14:38:41Z</time></trkpt><trkpt lat="45.70564977741262" lon="11.262487718192922"><ele>746.0</ele><time>2026-04-01T14:38:42Z</time></trkpt><trkpt lat="45.705736348352524" lon="11.262421499978215"><ele>746.0</ele><time>2026-04-01T14:38:43Z</time></trkpt><trkpt lat="45.70583094522129" lon="11.26237001211914"><ele>746.0</ele><time>2026-04-01T14:38:44Z</time></trkpt><trkpt lat="45.705897702291175" lon="11.262319214556724"><ele>746.0</ele><time>2026-04-01T14:38:45Z</time></trkpt><trkpt lat="45.70596592283299" lon="11.262288890209357"><ele>746.0</ele><time>2026-04-01T14:38:46Z</time></trkpt><trkpt lat="45.70605865781376" lon="11.262266737558488"><ele>746.0</ele><time>2026-04-01T14:38:47Z</time></trkpt><trkpt lat="45.70615501835445" lon="11.26226039144459"><ele>745.6666666666666</ele><time>2026-04-01T14:38:48Z</time></trkpt><trkpt lat="45.70625264452773" lon="11.262238162422536"><ele>745.3333333333333</ele><time>2026-04-01T14:38:49Z</time></trkpt><trkpt lat="45.706308715082294" lon="11.262192772074748"><ele>745.0</ele><time>2026-04-01T14:38:50Z</time></trkpt><trkpt lat="45.70640480342856" lon="11.26217878021942"><ele>744.6666666666666</ele><time>2026-04-01T14:38:52Z</time></trkpt><trkpt lat="45.70648448197682" lon="11.262113778409136"><ele>744.3333333333334</ele><time>2026-04-01T14:38:53Z</time></trkpt><trkpt lat="45.706554653594424" lon="11.26207071331836"><ele>744.0</ele><time>2026-04-01T14:38:54Z</time></trkpt><trkpt lat="45.70661574478129" lon="11.261994044261357"><ele>744.0</ele><time>2026-04-01T14:38:55Z</time></trkpt><trkpt lat="45.706691774928245" lon="11.261927010274345"><ele>744.0</ele><time>2026-04-01T14:38:56Z</time></trkpt><trkpt lat="45.70676885618959" lon="11.261890173894418"><ele>744.0</ele><time>2026-04-01T14:38:57Z</time></trkpt><trkpt lat="45.70685107988433" lon="11.26181795782316"><ele>744.0</ele><time>2026-04-01T14:38:58Z</time></trkpt><trkpt lat="45.70693963524" lon="11.261764722022718"><ele>744.0</ele><time>2026-04-01T14:38:59Z</time></trkpt><trkpt lat="45.70707896069684" lon="11.261703065782836"><ele>743.0</ele><time>2026-04-01T14:39:01Z</time></trkpt><trkpt lat="45.707154053524675" lon="11.261652924722911"><ele>742.0</ele><time>2026-04-01T14:39:02Z</time></trkpt><trkpt lat="45.70729589416923" lon="11.261591998869806"><ele>741.0</ele><time>2026-04-01T14:39:04Z</time></trkpt><trkpt lat="45.70735743518632" lon="11.261561200314455"><ele>740.0</ele><time>2026-04-01T14:39:05Z</time></trkpt><trkpt lat="45.707439574330294" lon="11.26151090685202"><ele>739.0</ele><time>2026-04-01T14:39:06Z</time></trkpt><trkpt lat="45.70748805264305" lon="11.261400755757062"><ele>739.0</ele><time>2026-04-01T14:39:07Z</time></trkpt><trkpt lat="45.70755381147496" lon="11.261366032778549"><ele>739.0</ele><time>2026-04-01T14:39:08Z</time></trkpt><trkpt lat="45.70764297072163" lon="11.261353283323727"><ele>739.0</ele><time>2026-04-01T14:39:09Z</time></trkpt><trkpt lat="45.707742399308856" lon="11.261284691129013"><ele>739.0</ele><time>2026-04-01T14:39:10Z</time></trkpt><trkpt lat="45.70780313222936" lon="11.261163287037013"><ele>739.0</ele><time>2026-04-01T14:39:11Z</time></trkpt><trkpt lat="45.707877867140475" lon="11.26109223727665"><ele>737.1666666666667</ele><time>2026-04-01T14:39:12Z</time></trkpt><trkpt lat="45.70794187413762" lon="11.261046974433942"><ele>735.3333333333334</ele><time>2026-04-01T14:39:13Z</time></trkpt><trkpt lat="45.70802742951375" lon="11.26106055466858"><ele>733.5</ele><time>2026-04-01T14:39:14Z</time></trkpt><trkpt lat="45.708101145867076" lon="11.2610184992251"><ele>731.6666666666666</ele><time>2026-04-01T14:39:15Z</time></trkpt><trkpt lat="45.708170813576544" lon="11.260987975843461"><ele>729.8333333333333</ele><time>2026-04-01T14:39:16Z</time></trkpt><trkpt lat="45.70823708695869" lon="11.260946432946605"><ele>728.0</ele><time>2026-04-01T14:39:17Z</time></trkpt><trkpt lat="45.70829486040285" lon="11.26088297441862"><ele>728.0</ele><time>2026-04-01T14:39:18Z</time></trkpt><trkpt lat="45.708371288890284" lon="11.26080849694933"><ele>728.0</ele><time>2026-04-01T14:39:19Z</time></trkpt><trkpt lat="45.7084450701665" lon="11.260737636571914"><ele>728.0</ele><time>2026-04-01T14:39:20Z</time></trkpt><trkpt lat="45.70852706424455" lon="11.26068058302421"><ele>728.0</ele><time>2026-04-01T14:39:21Z</time></trkpt><trkpt lat="45.708615507109904" lon="11.260580899010408"><ele>728.0</ele><time>2026-04-01T14:39:23Z</time></trkpt><trkpt lat="45.70866873022853" lon="11.260529460436462"><ele>728.0</ele><time>2026-04-01T14:39:25Z</time></trkpt><trkpt lat="45.70870209311729" lon="11.260434774854147"><ele>727.2</ele><time>2026-04-01T14:39:27Z</time></trkpt><trkpt lat="45.708751951345086" lon="11.260354616334805"><ele>726.4</ele><time>2026-04-01T14:39:31Z</time></trkpt><trkpt lat="45.70882856078105" lon="11.26037942380181"><ele>725.6</ele><time>2026-04-01T14:39:33Z</time></trkpt><trkpt lat="45.70890342863036" lon="11.260352831139924"><ele>724.8000000000001</ele><time>2026-04-01T14:39:35Z</time></trkpt><trkpt lat="45.709007579280865" lon="11.260274065930073"><ele>724.0</ele><time>2026-04-01T14:39:37Z</time></trkpt><trkpt lat="45.709113703228645" lon="11.260183973647203"><ele>724.0</ele><time>2026-04-01T14:39:39Z</time></trkpt><trkpt lat="45.70921511194028" lon="11.260085615675369"><ele>724.0</ele><time>2026-04-01T14:39:41Z</time></trkpt><trkpt lat="45.70926723914109" lon="11.260032061628685"><ele>724.0</ele><time>2026-04-01T14:39:42Z</time></trkpt><trkpt lat="45.709356101005305" lon="11.259913806787964"><ele>724.0</ele><time>2026-04-01T14:39:44Z</time></trkpt><trkpt lat="45.70942588287019" lon="11.259880517951068"><ele>724.0</ele><time>2026-04-01T14:39:45Z</time></trkpt><trkpt lat="45.7095012295231" lon="11.259825148970263"><ele>723.3333333333334</ele><time>2026-04-01T14:39:46Z</time></trkpt><trkpt lat="45.7095696858479" lon="11.259777856218463"><ele>722.6666666666667</ele><time>2026-04-01T14:39:47Z</time></trkpt><trkpt lat="45.70963128190023" lon="11.259729591454333"><ele>722.0</ele><time>2026-04-01T14:39:48Z</time></trkpt><trkpt lat="45.70970959754572" lon="11.25963119644574"><ele>721.3333333333334</ele><time>2026-04-01T14:39:51Z</time></trkpt><trkpt lat="45.70979954262586" lon="11.25952430187409"><ele>720.6666666666666</ele><time>2026-04-01T14:39:53Z</time></trkpt><trkpt lat="45.70984795357452" lon="11.259461203110419"><ele>720.0</ele><time>2026-04-01T14:39:54Z</time></trkpt><trkpt lat="45.709930781192774" lon="11.259372419367653"><ele>720.0</ele><time>2026-04-01T14:39:56Z</time></trkpt><trkpt lat="45.70999438095526" lon="11.259335795821865"><ele>720.0</ele><time>2026-04-01T14:39:57Z</time></trkpt><trkpt lat="45.71005878569327" lon="11.259272429193727"><ele>720.0</ele><time>2026-04-01T14:39:58Z</time></trkpt><trkpt lat="45.710129924524544" lon="11.259178604147564"><ele>720.0</ele><time>2026-04-01T14:40:00Z</time></trkpt><trkpt lat="45.7101838629946" lon="11.259113248086306"><ele>720.0</ele><time>2026-04-01T14:40:02Z</time></trkpt><trkpt lat="45.71025682834678" lon="11.259027618898028"><ele>720.0</ele><time>2026-04-01T14:40:05Z</time></trkpt><trkpt lat="45.710319027632515" lon="11.258967812020096"><ele>720.0</ele><time>2026-04-01T14:40:19Z</time></trkpt><trkpt lat="45.71041040354848" lon="11.258891267312144"><ele>720.0</ele><time>2026-04-01T14:40:21Z</time></trkpt><trkpt lat="45.71048492949692" lon="11.258808177693371"><ele>720.0</ele><time>2026-04-01T14:40:23Z</time></trkpt><trkpt lat="45.7105027141602" lon="11.25869724957788"><ele>720.0</ele><time>2026-04-01T14:41:03Z</time></trkpt><trkpt lat="45.71058743201075" lon="11.258555240905986"><ele>720.0</ele><time>2026-04-01T14:41:05Z</time></trkpt><trkpt lat="45.71067377938975" lon="11.258470618915412"><ele>720.0</ele><time>2026-04-01T14:41:07Z</time></trkpt><trkpt lat="45.71079436077977" lon="11.258387071423556"><ele>720.0</ele><time>2026-04-01T14:41:09Z</time></trkpt><trkpt lat="45.71090658152892" lon="11.258279823849204"><ele>720.0</ele><time>2026-04-01T14:41:10Z</time></trkpt><trkpt lat="45.71096030482124" lon="11.258232197055962"><ele>720.0</ele><time>2026-04-01T14:41:11Z</time></trkpt><trkpt lat="45.71106378279272" lon="11.25816326541242"><ele>720.0</ele><time>2026-04-01T14:41:13Z</time></trkpt><trkpt lat="45.7110761065023" lon="11.258007400034046"><ele>718.0</ele><time>2026-04-01T14:41:14Z</time></trkpt><trkpt lat="45.71092214800714" lon="11.257912669880646"><ele>716.0</ele><time>2026-04-01T14:41:15Z</time></trkpt><trkpt lat="45.71082912057653" lon="11.257890937588341"><ele>714.0</ele><time>2026-04-01T14:41:16Z</time></trkpt><trkpt lat="45.71074542596505" lon="11.257890511704405"><ele>712.0</ele><time>2026-04-01T14:41:17Z</time></trkpt><trkpt lat="45.71067304628342" lon="11.257881064733308"><ele>710.0</ele><time>2026-04-01T14:41:18Z</time></trkpt><trkpt lat="45.710608665167825" lon="11.257872083487506"><ele>710.0</ele><time>2026-04-01T14:41:19Z</time></trkpt><trkpt lat="45.71053242319256" lon="11.25785974035904"><ele>710.0</ele><time>2026-04-01T14:41:20Z</time></trkpt><trkpt lat="45.710470006711155" lon="11.25784644434518"><ele>710.0</ele><time>2026-04-01T14:41:21Z</time></trkpt><trkpt lat="45.71040114929974" lon="11.257825880091309"><ele>710.0</ele><time>2026-04-01T14:41:22Z</time></trkpt><trkpt lat="45.71033465094043" lon="11.257801321717428"><ele>710.0</ele><time>2026-04-01T14:41:23Z</time></trkpt><trkpt lat="45.71025556421041" lon="11.257774980339192"><ele>710.0</ele><time>2026-04-01T14:41:24Z</time></trkpt><trkpt lat="45.71014925646321" lon="11.257717051183985"><ele>708.3333333333333</ele><time>2026-04-01T14:41:26Z</time></trkpt><trkpt lat="45.7100967053699" lon="11.257652405942276"><ele>706.6666666666666</ele><time>2026-04-01T14:41:27Z</time></trkpt><trkpt lat="45.710100150620214" lon="11.25752273148749"><ele>705.0</ele><time>2026-04-01T14:41:29Z</time></trkpt><trkpt lat="45.71012015711842" lon="11.257433003666188"><ele>703.3333333333334</ele><time>2026-04-01T14:41:30Z</time></trkpt><trkpt lat="45.71019113368335" lon="11.25735760310168"><ele>701.6666666666667</ele><time>2026-04-01T14:41:31Z</time></trkpt><trkpt lat="45.710266394751834" lon="11.257276170186406"><ele>700.0</ele><time>2026-04-01T14:41:32Z</time></trkpt><trkpt lat="45.710334147719756" lon="11.257191206463114"><ele>700.0</ele><time>2026-04-01T14:41:33Z</time></trkpt><trkpt lat="45.710420796677866" lon="11.25710937089827"><ele>700.0</ele><time>2026-04-01T14:41:34Z</time></trkpt><trkpt lat="45.71049597473725" lon="11.257026147367434"><ele>700.0</ele><time>2026-04-01T14:41:35Z</time></trkpt><trkpt lat="45.71055240372549" lon="11.256945059953198"><ele>700.0</ele><time>2026-04-01T14:41:36Z</time></trkpt><trkpt lat="45.71060394113176" lon="11.25685902228884"><ele>700.0</ele><time>2026-04-01T14:41:37Z</time></trkpt><trkpt lat="45.71065586693446" lon="11.2567863784355"><ele>700.0</ele><time>2026-04-01T14:41:38Z</time></trkpt><trkpt lat="45.71071324845323" lon="11.256720795010905"><ele>700.0</ele><time>2026-04-01T14:41:39Z</time></trkpt><trkpt lat="45.71076212816354" lon="11.25665383250908"><ele>700.0</ele><time>2026-04-01T14:41:40Z</time></trkpt><trkpt lat="45.71077392544847" lon="11.256473363966766"><ele>700.0</ele><time>2026-04-01T14:41:42Z</time></trkpt><trkpt lat="45.710742663183545" lon="11.256385915233343"><ele>700.0</ele><time>2026-04-01T14:41:43Z</time></trkpt><trkpt lat="45.710676918987296" lon="11.256326796322728"><ele>700.0</ele><time>2026-04-01T14:41:44Z</time></trkpt><trkpt lat="45.71057878912194" lon="11.256356029026286"><ele>700.0</ele><time>2026-04-01T14:41:45Z</time></trkpt><trkpt lat="45.71048513002992" lon="11.256330334822332"><ele>699.6</ele><time>2026-04-01T14:41:46Z</time></trkpt><trkpt lat="45.7103617488752" lon="11.256330019564329"><ele>699.2</ele><time>2026-04-01T14:41:47Z</time></trkpt><trkpt lat="45.71026175722985" lon="11.256329675249733"><ele>698.8</ele><time>2026-04-01T14:41:48Z</time></trkpt><trkpt lat="45.71016416183793" lon="11.256313316223958"><ele>698.4</ele><time>2026-04-01T14:41:49Z</time></trkpt><trkpt lat="45.710080475469475" lon="11.256295885230813"><ele>698.0</ele><time>2026-04-01T14:41:50Z</time></trkpt><trkpt lat="45.71000251198435" lon="11.256277383471724"><ele>693.5999999999999</ele><time>2026-04-01T14:41:51Z</time></trkpt><trkpt lat="45.709881986322586" lon="11.256269597123094"><ele>689.1999999999999</ele><time>2026-04-01T14:41:53Z</time></trkpt><trkpt lat="45.709821617826194" lon="11.256231877059257"><ele>684.8</ele><time>2026-04-01T14:41:54Z</time></trkpt><trkpt lat="45.709760279983044" lon="11.256209461746687"><ele>680.4</ele><time>2026-04-01T14:41:55Z</time></trkpt><trkpt lat="45.709654443414145" lon="11.256104497991744"><ele>676.0</ele><time>2026-04-01T14:41:57Z</time></trkpt><trkpt lat="45.70959785800153" lon="11.256016692355796"><ele>676.0</ele><time>2026-04-01T14:41:58Z</time></trkpt><trkpt lat="45.70954688693324" lon="11.255933797337585"><ele>676.0</ele><time>2026-04-01T14:41:59Z</time></trkpt><trkpt lat="45.709517330215775" lon="11.255834081938987"><ele>676.0</ele><time>2026-04-01T14:42:00Z</time></trkpt><trkpt lat="45.70948510585563" lon="11.255753516343404"><ele>676.0</ele><time>2026-04-01T14:42:01Z</time></trkpt><trkpt lat="45.709446201856686" lon="11.255622114654518"><ele>676.0</ele><time>2026-04-01T14:42:02Z</time></trkpt><trkpt lat="45.70940141333628" lon="11.255506268210365"><ele>676.0</ele><time>2026-04-01T14:42:03Z</time></trkpt><trkpt lat="45.70938109265574" lon="11.255387589890818"><ele>672.3333333333334</ele><time>2026-04-01T14:42:04Z</time></trkpt><trkpt lat="45.709356245823635" lon="11.255296221936733"><ele>668.6666666666667</ele><time>2026-04-01T14:42:05Z</time></trkpt><trkpt lat="45.70933946240575" lon="11.2552041780595"><ele>665.0</ele><time>2026-04-01T14:42:06Z</time></trkpt><trkpt lat="45.70929230079203" lon="11.255049255546528"><ele>661.3333333333334</ele><time>2026-04-01T14:42:08Z</time></trkpt><trkpt lat="45.70926292880353" lon="11.254969428495173"><ele>657.6666666666666</ele><time>2026-04-01T14:42:11Z</time></trkpt><trkpt lat="45.709149814877115" lon="11.255022673670288"><ele>654.0</ele><time>2026-04-01T14:42:12Z</time></trkpt><trkpt lat="45.709092046285875" lon="11.255077540870579"><ele>654.0</ele><time>2026-04-01T14:42:13Z</time></trkpt><trkpt lat="45.70902246739121" lon="11.255142526150548"><ele>654.0</ele><time>2026-04-01T14:42:14Z</time></trkpt><trkpt lat="45.70893926697964" lon="11.255217444030462"><ele>654.0</ele><time>2026-04-01T14:42:15Z</time></trkpt><trkpt lat="45.708868925104476" lon="11.255280783387777"><ele>654.0</ele><time>2026-04-01T14:42:16Z</time></trkpt><trkpt lat="45.708778389862644" lon="11.255364788035356"><ele>654.0</ele><time>2026-04-01T14:42:17Z</time></trkpt><trkpt lat="45.7086961675323" lon="11.25545106755877"><ele>654.0</ele><time>2026-04-01T14:42:18Z</time></trkpt><trkpt lat="45.70863613748058" lon="11.255554857469873"><ele>654.0</ele><time>2026-04-01T14:42:19Z</time></trkpt><trkpt lat="45.70853724740763" lon="11.255615581940132"><ele>654.0</ele><time>2026-04-01T14:42:20Z</time></trkpt><trkpt lat="45.70845407702436" lon="11.255688662240372"><ele>654.0</ele><time>2026-04-01T14:42:21Z</time></trkpt><trkpt lat="45.708395442700976" lon="11.2557982127513"><ele>654.0</ele><time>2026-04-01T14:42:22Z</time></trkpt><trkpt lat="45.70831821843603" lon="11.255872720857358"><ele>652.8000000000001</ele><time>2026-04-01T14:42:23Z</time></trkpt><trkpt lat="45.708238015763804" lon="11.255952508494003"><ele>651.6</ele><time>2026-04-01T14:42:24Z</time></trkpt><trkpt lat="45.7081582554872" lon="11.25602717581251"><ele>650.4</ele><time>2026-04-01T14:42:25Z</time></trkpt><trkpt lat="45.708064063776845" lon="11.25607319975289"><ele>649.2</ele><time>2026-04-01T14:42:26Z</time></trkpt><trkpt lat="45.707980761044546" lon="11.25612316220755"><ele>648.0</ele><time>2026-04-01T14:42:27Z</time></trkpt><trkpt lat="45.70789494212035" lon="11.256164699652745"><ele>648.0</ele><time>2026-04-01T14:42:28Z</time></trkpt><trkpt lat="45.7077983268215" lon="11.256109904991005"><ele>648.0</ele><time>2026-04-01T14:42:29Z</time></trkpt><trkpt lat="45.707709847391364" lon="11.25611076591825"><ele>648.0</ele><time>2026-04-01T14:42:30Z</time></trkpt><trkpt lat="45.70762364974546" lon="11.256152290380122"><ele>648.0</ele><time>2026-04-01T14:42:31Z</time></trkpt><trkpt lat="45.707530907027184" lon="11.256161537091344"><ele>648.0</ele><time>2026-04-01T14:42:32Z</time></trkpt><trkpt lat="45.70741427524138" lon="11.256207945384068"><ele>644.8</ele><time>2026-04-01T14:42:33Z</time></trkpt><trkpt lat="45.707306665985044" lon="11.25619200805973"><ele>641.5999999999999</ele><time>2026-04-01T14:42:34Z</time></trkpt><trkpt lat="45.70721019136166" lon="11.256179498107178"><ele>638.4000000000001</ele><time>2026-04-01T14:42:35Z</time></trkpt><trkpt lat="45.707106794548295" lon="11.256185756234645"><ele>635.2</ele><time>2026-04-01T14:42:36Z</time></trkpt><trkpt lat="45.70701942538221" lon="11.256164474718243"><ele>632.0</ele><time>2026-04-01T14:42:37Z</time></trkpt><trkpt lat="45.70693852288555" lon="11.256138257091562"><ele>631.5</ele><time>2026-04-01T14:42:38Z</time></trkpt><trkpt lat="45.70688282325414" lon="11.256050418106508"><ele>631.0</ele><time>2026-04-01T14:42:39Z</time></trkpt><trkpt lat="45.70682876132982" lon="11.25598379496089"><ele>630.5</ele><time>2026-04-01T14:42:40Z</time></trkpt><trkpt lat="45.70677248098275" lon="11.25591931560036"><ele>630.0</ele><time>2026-04-01T14:42:41Z</time></trkpt><trkpt lat="45.70673934693409" lon="11.255824530478211"><ele>629.5</ele><time>2026-04-01T14:42:42Z</time></trkpt><trkpt lat="45.706705663913155" lon="11.25572337351519"><ele>629.0</ele><time>2026-04-01T14:42:43Z</time></trkpt><trkpt lat="45.70666067191156" lon="11.255593875766792"><ele>626.6</ele><time>2026-04-01T14:42:44Z</time></trkpt><trkpt lat="45.70661548376862" lon="11.25544137222356"><ele>624.2</ele><time>2026-04-01T14:42:45Z</time></trkpt><trkpt lat="45.70657100227017" lon="11.255311213973371"><ele>621.8000000000001</ele><time>2026-04-01T14:42:46Z</time></trkpt><trkpt lat="45.70653935003636" lon="11.255174704149615"><ele>619.4</ele><time>2026-04-01T14:42:47Z</time></trkpt><trkpt lat="45.70649402259965" lon="11.255070447307554"><ele>617.0</ele><time>2026-04-01T14:42:48Z</time></trkpt><trkpt lat="45.706425002515886" lon="11.254967374584329"><ele>617.0</ele><time>2026-04-01T14:42:49Z</time></trkpt><trkpt lat="45.70634003783272" lon="11.25487240253095"><ele>617.0</ele><time>2026-04-01T14:42:50Z</time></trkpt><trkpt lat="45.70625094403856" lon="11.254775041639862"><ele>617.0</ele><time>2026-04-01T14:42:51Z</time></trkpt><trkpt lat="45.70615727810727" lon="11.254671866977443"><ele>617.0</ele><time>2026-04-01T14:42:52Z</time></trkpt><trkpt lat="45.7060722136784" lon="11.254600319404211"><ele>617.0</ele><time>2026-04-01T14:42:53Z</time></trkpt><trkpt lat="45.70602096551013" lon="11.25450527361275"><ele>614.6666666666666</ele><time>2026-04-01T14:42:54Z</time></trkpt><trkpt lat="45.705956600584706" lon="11.25442109788395"><ele>612.3333333333333</ele><time>2026-04-01T14:42:55Z</time></trkpt><trkpt lat="45.70589530555373" lon="11.254362973699493"><ele>610.0</ele><time>2026-04-01T14:42:56Z</time></trkpt><trkpt lat="45.70582654210473" lon="11.254322672146923"><ele>607.6666666666666</ele><time>2026-04-01T14:42:57Z</time></trkpt><trkpt lat="45.70573014221068" lon="11.254319241019347"><ele>605.3333333333334</ele><time>2026-04-01T14:42:58Z</time></trkpt><trkpt lat="45.70564149283228" lon="11.254329766084048"><ele>603.0</ele><time>2026-04-01T14:42:59Z</time></trkpt><trkpt lat="45.70556347069305" lon="11.254356447634844"><ele>603.0</ele><time>2026-04-01T14:43:00Z</time></trkpt><trkpt lat="45.70546753449171" lon="11.254375328855224"><ele>603.0</ele><time>2026-04-01T14:43:01Z</time></trkpt><trkpt lat="45.70535769463784" lon="11.254394094102105"><ele>603.0</ele><time>2026-04-01T14:43:02Z</time></trkpt><trkpt lat="45.7052335313624" lon="11.2544174117254"><ele>603.0</ele><time>2026-04-01T14:43:03Z</time></trkpt><trkpt lat="45.70510953252451" lon="11.254442810332153"><ele>601.6666666666666</ele><time>2026-04-01T14:43:04Z</time></trkpt><trkpt lat="45.705015635867795" lon="11.254446644668223"><ele>600.3333333333334</ele><time>2026-04-01T14:43:05Z</time></trkpt><trkpt lat="45.704936003807624" lon="11.254435299164191"><ele>599.0</ele><time>2026-04-01T14:43:06Z</time></trkpt><trkpt lat="45.70487847702982" lon="11.254386618715346"><ele>597.6666666666667</ele><time>2026-04-01T14:43:07Z</time></trkpt><trkpt lat="45.70481042491294" lon="11.254340484600588"><ele>596.3333333333334</ele><time>2026-04-01T14:43:08Z</time></trkpt><trkpt lat="45.70474799591454" lon="11.25429901026746"><ele>595.0</ele><time>2026-04-01T14:43:09Z</time></trkpt><trkpt lat="45.70467689156348" lon="11.254246210066023"><ele>595.0</ele><time>2026-04-01T14:43:10Z</time></trkpt><trkpt lat="45.704555558819756" lon="11.254093413062275"><ele>595.0</ele><time>2026-04-01T14:43:12Z</time></trkpt><trkpt lat="45.70447624302691" lon="11.254027769516568"><ele>595.0</ele><time>2026-04-01T14:43:13Z</time></trkpt><trkpt lat="45.70439807258339" lon="11.253998795381968"><ele>595.0</ele><time>2026-04-01T14:43:14Z</time></trkpt><trkpt lat="45.704323272989924" lon="11.253980355915495"><ele>595.0</ele><time>2026-04-01T14:43:15Z</time></trkpt><trkpt lat="45.70423295807718" lon="11.25399604464964"><ele>594.4</ele><time>2026-04-01T14:43:16Z</time></trkpt><trkpt lat="45.704171693045936" lon="11.254113298541103"><ele>593.8</ele><time>2026-04-01T14:43:17Z</time></trkpt><trkpt lat="45.704097124079055" lon="11.254172966297372"><ele>593.2</ele><time>2026-04-01T14:43:18Z</time></trkpt><trkpt lat="45.70402988028065" lon="11.254262191822045"><ele>592.6</ele><time>2026-04-01T14:43:19Z</time></trkpt><trkpt lat="45.703965109544235" lon="11.254368449197226"><ele>592.0</ele><time>2026-04-01T14:43:20Z</time></trkpt><trkpt lat="45.70391022276184" lon="11.254497220629586"><ele>592.0</ele><time>2026-04-01T14:43:21Z</time></trkpt><trkpt lat="45.70389037550501" lon="11.254623475981708"><ele>592.0</ele><time>2026-04-01T14:43:22Z</time></trkpt><trkpt lat="45.703872858895764" lon="11.25475345714152"><ele>592.0</ele><time>2026-04-01T14:43:23Z</time></trkpt><trkpt lat="45.70386076962156" lon="11.254903173284967"><ele>592.0</ele><time>2026-04-01T14:43:24Z</time></trkpt><trkpt lat="45.7037948897402" lon="11.255048298285747"><ele>592.0</ele><time>2026-04-01T14:43:25Z</time></trkpt><trkpt lat="45.70372664032792" lon="11.255190513451666"><ele>593.6</ele><time>2026-04-01T14:43:26Z</time></trkpt><trkpt lat="45.703647940217195" lon="11.25531642127723"><ele>595.2</ele><time>2026-04-01T14:43:27Z</time></trkpt><trkpt lat="45.70356951619062" lon="11.255427882617788"><ele>596.8</ele><time>2026-04-01T14:43:28Z</time></trkpt><trkpt lat="45.70349959414232" lon="11.255532155841744"><ele>598.4</ele><time>2026-04-01T14:43:29Z</time></trkpt><trkpt lat="45.70344454109737" lon="11.255640697165457"><ele>600.0</ele><time>2026-04-01T14:43:30Z</time></trkpt><trkpt lat="45.703363576619594" lon="11.255695593123637"><ele>596.6</ele><time>2026-04-01T14:43:31Z</time></trkpt><trkpt lat="45.70329463756172" lon="11.255742854323811"><ele>593.2</ele><time>2026-04-01T14:43:32Z</time></trkpt><trkpt lat="45.70320271566523" lon="11.25577346640872"><ele>589.8</ele><time>2026-04-01T14:43:33Z</time></trkpt><trkpt lat="45.7031136463899" lon="11.255821326403696"><ele>586.4</ele><time>2026-04-01T14:43:34Z</time></trkpt><trkpt lat="45.70300184916262" lon="11.255855687261255"><ele>583.0</ele><time>2026-04-01T14:43:35Z</time></trkpt><trkpt lat="45.70287824886352" lon="11.255910017942586"><ele>583.0</ele><time>2026-04-01T14:43:36Z</time></trkpt><trkpt lat="45.70276744038123" lon="11.255972661404654"><ele>583.0</ele><time>2026-04-01T14:43:37Z</time></trkpt><trkpt lat="45.702661285032555" lon="11.256035299740631"><ele>583.0</ele><time>2026-04-01T14:43:38Z</time></trkpt><trkpt lat="45.70255459050109" lon="11.256113172783385"><ele>583.0</ele><time>2026-04-01T14:43:39Z</time></trkpt><trkpt lat="45.70246205774508" lon="11.25619681180261"><ele>582.4</ele><time>2026-04-01T14:43:40Z</time></trkpt><trkpt lat="45.70237281547365" lon="11.25629928661337"><ele>581.8</ele><time>2026-04-01T14:43:41Z</time></trkpt><trkpt lat="45.702288937450355" lon="11.256407887737131"><ele>581.2</ele><time>2026-04-01T14:43:42Z</time></trkpt><trkpt lat="45.70220804118175" lon="11.256509853725214"><ele>580.6</ele><time>2026-04-01T14:43:43Z</time></trkpt><trkpt lat="45.70213524752708" lon="11.256615580918366"><ele>580.0</ele><time>2026-04-01T14:43:44Z</time></trkpt><trkpt lat="45.70207593179538" lon="11.25672607985199"><ele>580.0</ele><time>2026-04-01T14:43:45Z</time></trkpt><trkpt lat="45.70203462397908" lon="11.25684639933936"><ele>580.0</ele><time>2026-04-01T14:43:46Z</time></trkpt><trkpt lat="45.70200425994419" lon="11.256973718382026"><ele>580.0</ele><time>2026-04-01T14:43:47Z</time></trkpt><trkpt lat="45.70197460245692" lon="11.25709880256991"><ele>580.0</ele><time>2026-04-01T14:43:48Z</time></trkpt><trkpt lat="45.701956641927765" lon="11.257220713808941"><ele>580.0</ele><time>2026-04-01T14:43:49Z</time></trkpt><trkpt lat="45.70194207361191" lon="11.257362023772457"><ele>574.0</ele><time>2026-04-01T14:43:50Z</time></trkpt><trkpt lat="45.7019134113029" lon="11.257524616006588"><ele>568.0</ele><time>2026-04-01T14:43:51Z</time></trkpt><trkpt lat="45.70186273381525" lon="11.257625421714192"><ele>562.0</ele><time>2026-04-01T14:43:52Z</time></trkpt><trkpt lat="45.70179176185045" lon="11.257705264300967"><ele>556.0</ele><time>2026-04-01T14:43:53Z</time></trkpt><trkpt lat="45.701714626102664" lon="11.257753203710514"><ele>550.0</ele><time>2026-04-01T14:43:54Z</time></trkpt><trkpt lat="45.70163170701376" lon="11.257759416866815"><ele>550.0</ele><time>2026-04-01T14:43:55Z</time></trkpt><trkpt lat="45.701532091136876" lon="11.257835344159739"><ele>550.0</ele><time>2026-04-01T14:43:56Z</time></trkpt><trkpt lat="45.70143598802117" lon="11.257903490471621"><ele>550.0</ele><time>2026-04-01T14:43:57Z</time></trkpt><trkpt lat="45.70134787055333" lon="11.257982965791115"><ele>550.0</ele><time>2026-04-01T14:43:58Z</time></trkpt><trkpt lat="45.7012848565238" lon="11.25805703865858"><ele>550.0</ele><time>2026-04-01T14:43:59Z</time></trkpt><trkpt lat="45.70123870266507" lon="11.258129201233015"><ele>547.6</ele><time>2026-04-01T14:44:00Z</time></trkpt><trkpt lat="45.701186582589294" lon="11.258182565640812"><ele>545.2</ele><time>2026-04-01T14:44:01Z</time></trkpt><trkpt lat="45.7010976161772" lon="11.258333490145734"><ele>542.8</ele><time>2026-04-01T14:44:03Z</time></trkpt><trkpt lat="45.70108786454031" lon="11.2584702490051"><ele>540.4</ele><time>2026-04-01T14:44:04Z</time></trkpt><trkpt lat="45.70097122696243" lon="11.25855548245507"><ele>538.0</ele><time>2026-04-01T14:44:05Z</time></trkpt><trkpt lat="45.70089390767347" lon="11.258690284552792"><ele>538.0</ele><time>2026-04-01T14:44:06Z</time></trkpt><trkpt lat="45.700809867356696" lon="11.258814461014456"><ele>538.0</ele><time>2026-04-01T14:44:07Z</time></trkpt><trkpt lat="45.70072611771694" lon="11.258943784294217"><ele>538.0</ele><time>2026-04-01T14:44:08Z</time></trkpt><trkpt lat="45.70064576772836" lon="11.259073280866152"><ele>538.0</ele><time>2026-04-01T14:44:09Z</time></trkpt><trkpt lat="45.70057876975666" lon="11.259215651873387"><ele>535.6</ele><time>2026-04-01T14:44:10Z</time></trkpt><trkpt lat="45.70050315248951" lon="11.259326394020107"><ele>533.1999999999999</ele><time>2026-04-01T14:44:11Z</time></trkpt><trkpt lat="45.70043325128112" lon="11.25943725327494"><ele>530.8</ele><time>2026-04-01T14:44:12Z</time></trkpt><trkpt lat="45.70037030021378" lon="11.259536437075091"><ele>528.4</ele><time>2026-04-01T14:44:13Z</time></trkpt><trkpt lat="45.700302491065536" lon="11.25964312977094"><ele>526.0</ele><time>2026-04-01T14:44:14Z</time></trkpt><trkpt lat="45.70023200538564" lon="11.259747423018338"><ele>528.2</ele><time>2026-04-01T14:44:15Z</time></trkpt><trkpt lat="45.70016302837419" lon="11.259857828370636"><ele>530.4000000000001</ele><time>2026-04-01T14:44:16Z</time></trkpt><trkpt lat="45.700106295197514" lon="11.259949364725118"><ele>532.6</ele><time>2026-04-01T14:44:17Z</time></trkpt><trkpt lat="45.70002471589729" lon="11.260021648443756"><ele>534.8000000000001</ele><time>2026-04-01T14:44:18Z</time></trkpt><trkpt lat="45.69996550230878" lon="11.260107275289657"><ele>537.0</ele><time>2026-04-01T14:44:19Z</time></trkpt><trkpt lat="45.69987217153546" lon="11.260106808408347"><ele>537.0</ele><time>2026-04-01T14:44:20Z</time></trkpt><trkpt lat="45.69978178660188" lon="11.260146866655505"><ele>537.0</ele><time>2026-04-01T14:44:21Z</time></trkpt><trkpt lat="45.6996955779037" lon="11.260188226472765"><ele>537.0</ele><time>2026-04-01T14:44:22Z</time></trkpt><trkpt lat="45.699582805661635" lon="11.260260533133089"><ele>537.0</ele><time>2026-04-01T14:44:23Z</time></trkpt><trkpt lat="45.69948676335799" lon="11.260358889502138"><ele>537.0</ele><time>2026-04-01T14:44:24Z</time></trkpt><trkpt lat="45.69937992985549" lon="11.260450001150133"><ele>535.0</ele><time>2026-04-01T14:44:25Z</time></trkpt><trkpt lat="45.699291117492166" lon="11.260562922637293"><ele>533.0</ele><time>2026-04-01T14:44:26Z</time></trkpt><trkpt lat="45.69920890244435" lon="11.260666851824965"><ele>531.0</ele><time>2026-04-01T14:44:27Z</time></trkpt><trkpt lat="45.69912519575181" lon="11.260775261516269"><ele>529.0</ele><time>2026-04-01T14:44:28Z</time></trkpt><trkpt lat="45.69904032079506" lon="11.260890652090717"><ele>529.0</ele><time>2026-04-01T14:44:29Z</time></trkpt><trkpt lat="45.69895797210354" lon="11.261006081791582"><ele>529.0</ele><time>2026-04-01T14:44:30Z</time></trkpt><trkpt lat="45.69886908276751" lon="11.261124122166843"><ele>529.0</ele><time>2026-04-01T14:44:31Z</time></trkpt><trkpt lat="45.69877998322094" lon="11.261234376535807"><ele>529.0</ele><time>2026-04-01T14:44:32Z</time></trkpt><trkpt lat="45.69869776808634" lon="11.261339587637224"><ele>529.0</ele><time>2026-04-01T14:44:33Z</time></trkpt><trkpt lat="45.69861899199389" lon="11.26143318714629"><ele>529.0</ele><time>2026-04-01T14:44:34Z</time></trkpt><trkpt lat="45.6985251913347" lon="11.261501257210133"><ele>529.0</ele><time>2026-04-01T14:44:35Z</time></trkpt><trkpt lat="45.698446395421605" lon="11.261576033787916"><ele>529.0</ele><time>2026-04-01T14:44:36Z</time></trkpt><trkpt lat="45.69836836117323" lon="11.261615907516665"><ele>529.0</ele><time>2026-04-01T14:44:37Z</time></trkpt><trkpt lat="45.69828334162229" lon="11.261657690116563"><ele>527.6666666666667</ele><time>2026-04-01T14:44:38Z</time></trkpt><trkpt lat="45.69821172606611" lon="11.261712497383575"><ele>526.3333333333334</ele><time>2026-04-01T14:44:39Z</time></trkpt><trkpt lat="45.698144372600304" lon="11.261764376301315"><ele>525.0</ele><time>2026-04-01T14:44:40Z</time></trkpt><trkpt lat="45.698073492275675" lon="11.261822582043825"><ele>523.6666666666666</ele><time>2026-04-01T14:44:41Z</time></trkpt><trkpt lat="45.698048599560074" lon="11.26194033551755"><ele>522.3333333333333</ele><time>2026-04-01T14:44:42Z</time></trkpt><trkpt lat="45.69807125711559" lon="11.262082714335712"><ele>521.0</ele><time>2026-04-01T14:44:43Z</time></trkpt><trkpt lat="45.6980830305281" lon="11.262193946573433"><ele>520.6666666666666</ele><time>2026-04-01T14:44:44Z</time></trkpt><trkpt lat="45.69808269509755" lon="11.262294536305738"><ele>520.3333333333333</ele><time>2026-04-01T14:44:45Z</time></trkpt><trkpt lat="45.698056493380086" lon="11.262392916175981"><ele>520.0</ele><time>2026-04-01T14:44:46Z</time></trkpt><trkpt lat="45.69805064061804" lon="11.262516748631182"><ele>519.6666666666666</ele><time>2026-04-01T14:44:47Z</time></trkpt><trkpt lat="45.69793458571126" lon="11.26247941846021"><ele>519.3333333333334</ele><time>2026-04-01T14:44:48Z</time></trkpt><trkpt lat="45.69784432871743" lon="11.262488903404181"><ele>519.0</ele><time>2026-04-01T14:44:49Z</time></trkpt><trkpt lat="45.6977491565317" lon="11.262434710223154"><ele>519.0</ele><time>2026-04-01T14:44:50Z</time></trkpt><trkpt lat="45.69765064451438" lon="11.262375309605783"><ele>519.0</ele><time>2026-04-01T14:44:51Z</time></trkpt><trkpt lat="45.69756238536454" lon="11.262315948799174"><ele>519.0</ele><time>2026-04-01T14:44:52Z</time></trkpt><trkpt lat="45.69747491571722" lon="11.262264991867774"><ele>519.0</ele><time>2026-04-01T14:44:53Z</time></trkpt><trkpt lat="45.69739193692912" lon="11.262219913604588"><ele>519.0</ele><time>2026-04-01T14:44:54Z</time></trkpt><trkpt lat="45.697303119730385" lon="11.262201216455795"><ele>515.6</ele><time>2026-04-01T14:44:55Z</time></trkpt><trkpt lat="45.6972174507509" lon="11.262215766997812"><ele>512.2</ele><time>2026-04-01T14:44:56Z</time></trkpt><trkpt lat="45.6971398705929" lon="11.26223301968733"><ele>508.80000000000007</ele><time>2026-04-01T14:44:57Z</time></trkpt><trkpt lat="45.69705702505428" lon="11.262248186235974"><ele>505.40000000000003</ele><time>2026-04-01T14:44:58Z</time></trkpt><trkpt lat="45.696959460059425" lon="11.262241797668242"><ele>502.0</ele><time>2026-04-01T14:44:59Z</time></trkpt><trkpt lat="45.696851121876335" lon="11.262265214279095"><ele>503.0</ele><time>2026-04-01T14:45:00Z</time></trkpt><trkpt lat="45.69672859940458" lon="11.262294957047637"><ele>504.0</ele><time>2026-04-01T14:45:01Z</time></trkpt><trkpt lat="45.69658824278008" lon="11.262349447720425"><ele>505.0</ele><time>2026-04-01T14:45:02Z</time></trkpt><trkpt lat="45.69645601929315" lon="11.262378341604618"><ele>506.0</ele><time>2026-04-01T14:45:03Z</time></trkpt><trkpt lat="45.696335324879264" lon="11.26241569335919"><ele>506.0</ele><time>2026-04-01T14:45:04Z</time></trkpt><trkpt lat="45.69623039230446" lon="11.262442397206073"><ele>506.0</ele><time>2026-04-01T14:45:05Z</time></trkpt><trkpt lat="45.69612939375491" lon="11.262464907470257"><ele>506.0</ele><time>2026-04-01T14:45:06Z</time></trkpt><trkpt lat="45.69603559640275" lon="11.262483955980809"><ele>506.0</ele><time>2026-04-01T14:45:07Z</time></trkpt><trkpt lat="45.695935937971754" lon="11.262506441328135"><ele>506.0</ele><time>2026-04-01T14:45:08Z</time></trkpt><trkpt lat="45.695837481149816" lon="11.262540797324712"><ele>502.25</ele><time>2026-04-01T14:45:09Z</time></trkpt><trkpt lat="45.69572441215575" lon="11.262567386728591"><ele>498.5</ele><time>2026-04-01T14:45:10Z</time></trkpt><trkpt lat="45.6956122265562" lon="11.262609889641904"><ele>494.75</ele><time>2026-04-01T14:45:11Z</time></trkpt><trkpt lat="45.695480359558346" lon="11.262660157844975"><ele>491.0</ele><time>2026-04-01T14:45:12Z</time></trkpt><trkpt lat="45.695357545359606" lon="11.262729315412553"><ele>487.0</ele><time>2026-04-01T14:45:13Z</time></trkpt><trkpt lat="45.69523794955573" lon="11.262802979579575"><ele>483.0</ele><time>2026-04-01T14:45:14Z</time></trkpt><trkpt lat="45.69512565575462" lon="11.26289505864452"><ele>479.0</ele><time>2026-04-01T14:45:15Z</time></trkpt><trkpt lat="45.69501697924895" lon="11.262970447976095"><ele>475.0</ele><time>2026-04-01T14:45:16Z</time></trkpt><trkpt lat="45.694910096528154" lon="11.263049817308778"><ele>474.2</ele><time>2026-04-01T14:45:17Z</time></trkpt><trkpt lat="45.694807418419956" lon="11.263122574898418"><ele>473.4</ele><time>2026-04-01T14:45:18Z</time></trkpt><trkpt lat="45.69469854919172" lon="11.26317873867813"><ele>472.6</ele><time>2026-04-01T14:45:19Z</time></trkpt><trkpt lat="45.69459323967414" lon="11.263248930301302"><ele>471.8</ele><time>2026-04-01T14:45:20Z</time></trkpt><trkpt lat="45.694508410746835" lon="11.263326924866208"><ele>471.0</ele><time>2026-04-01T14:45:21Z</time></trkpt><trkpt lat="45.694412287795394" lon="11.263400680611994"><ele>471.0</ele><time>2026-04-01T14:45:22Z</time></trkpt><trkpt lat="45.69429829055912" lon="11.263484013986595"><ele>471.0</ele><time>2026-04-01T14:45:23Z</time></trkpt><trkpt lat="45.6941876564548" lon="11.263598158577585"><ele>471.0</ele><time>2026-04-01T14:45:24Z</time></trkpt><trkpt lat="45.69409310206696" lon="11.263719556175838"><ele>471.0</ele><time>2026-04-01T14:45:25Z</time></trkpt><trkpt lat="45.69401253289277" lon="11.26384346342868"><ele>474.20000000000005</ele><time>2026-04-01T14:45:26Z</time></trkpt><trkpt lat="45.69394800184225" lon="11.263959363138229"><ele>477.40000000000003</ele><time>2026-04-01T14:45:27Z</time></trkpt><trkpt lat="45.69387780444626" lon="11.264074360621446"><ele>480.6</ele><time>2026-04-01T14:45:28Z</time></trkpt><trkpt lat="45.69380058770516" lon="11.264170046533815"><ele>483.8</ele><time>2026-04-01T14:45:29Z</time></trkpt><trkpt lat="45.69371882744675" lon="11.264248883609012"><ele>487.0</ele><time>2026-04-01T14:45:30Z</time></trkpt><trkpt lat="45.693629727430555" lon="11.264320802919638"><ele>481.25</ele><time>2026-04-01T14:45:31Z</time></trkpt><trkpt lat="45.6935356665087" lon="11.264395716313047"><ele>475.5</ele><time>2026-04-01T14:45:32Z</time></trkpt><trkpt lat="45.69343476640712" lon="11.264463360685406"><ele>469.75</ele><time>2026-04-01T14:45:33Z</time></trkpt><trkpt lat="45.69331664928877" lon="11.264530518972542"><ele>464.0</ele><time>2026-04-01T14:45:34Z</time></trkpt><trkpt lat="45.69319792405729" lon="11.26458477199734"><ele>464.0</ele><time>2026-04-01T14:45:35Z</time></trkpt><trkpt lat="45.69308139118949" lon="11.264636553057597"><ele>464.0</ele><time>2026-04-01T14:45:36Z</time></trkpt><trkpt lat="45.69296706938958" lon="11.264677182835165"><ele>464.0</ele><time>2026-04-01T14:45:37Z</time></trkpt><trkpt lat="45.69285078853836" lon="11.264711181934592"><ele>464.0</ele><time>2026-04-01T14:45:38Z</time></trkpt><trkpt lat="45.6927207127935" lon="11.26474692428298"><ele>462.5</ele><time>2026-04-01T14:45:39Z</time></trkpt><trkpt lat="45.69258894443309" lon="11.264782951051922"><ele>461.0</ele><time>2026-04-01T14:45:40Z</time></trkpt><trkpt lat="45.69248212747376" lon="11.26481775106872"><ele>459.5</ele><time>2026-04-01T14:45:41Z</time></trkpt><trkpt lat="45.69238019424331" lon="11.26484336561308"><ele>458.0</ele><time>2026-04-01T14:45:42Z</time></trkpt><trkpt lat="45.692289513392396" lon="11.264911885115168"><ele>458.0</ele><time>2026-04-01T14:45:43Z</time></trkpt><trkpt lat="45.69222385745207" lon="11.265008263764011"><ele>457.99999999999994</ele><time>2026-04-01T14:45:44Z</time></trkpt><trkpt lat="45.69217896398388" lon="11.265122468476779"><ele>457.99999999999994</ele><time>2026-04-01T14:45:45Z</time></trkpt><trkpt lat="45.69214308347596" lon="11.265265650783597"><ele>458.0</ele><time>2026-04-01T14:45:46Z</time></trkpt><trkpt lat="45.69210475717695" lon="11.265439506587015"><ele>458.0</ele><time>2026-04-01T14:45:47Z</time></trkpt><trkpt lat="45.69204848170268" lon="11.26561137247327"><ele>460.4</ele><time>2026-04-01T14:45:48Z</time></trkpt><trkpt lat="45.691987995161256" lon="11.265770755144974"><ele>462.79999999999995</ele><time>2026-04-01T14:45:49Z</time></trkpt><trkpt lat="45.69193908437488" lon="11.26591424316412"><ele>465.2</ele><time>2026-04-01T14:45:50Z</time></trkpt><trkpt lat="45.691891336771924" lon="11.266052568558012"><ele>467.6</ele><time>2026-04-01T14:45:51Z</time></trkpt><trkpt lat="45.69184715630823" lon="11.266181468943868"><ele>470.0</ele><time>2026-04-01T14:45:52Z</time></trkpt><trkpt lat="45.691797726678125" lon="11.266326405657999"><ele>465.6</ele><time>2026-04-01T14:45:53Z</time></trkpt><trkpt lat="45.69176134769645" lon="11.266442616824229"><ele>461.2</ele><time>2026-04-01T14:45:54Z</time></trkpt><trkpt lat="45.69172013687291" lon="11.266553141214539"><ele>456.79999999999995</ele><time>2026-04-01T14:45:55Z</time></trkpt><trkpt lat="45.691659399628485" lon="11.266633635453555"><ele>452.4</ele><time>2026-04-01T14:45:56Z</time></trkpt><trkpt lat="45.69156487792595" lon="11.266723928802845"><ele>448.0</ele><time>2026-04-01T14:45:57Z</time></trkpt><trkpt lat="45.69145344979758" lon="11.266823829352013"><ele>448.0</ele><time>2026-04-01T14:45:58Z</time></trkpt><trkpt lat="45.69133660393178" lon="11.266927342754053"><ele>448.0</ele><time>2026-04-01T14:45:59Z</time></trkpt><trkpt lat="45.69123593009814" lon="11.26701958906456"><ele>448.0</ele><time>2026-04-01T14:46:00Z</time></trkpt><trkpt lat="45.69114134713857" lon="11.26710834281798"><ele>448.0</ele><time>2026-04-01T14:46:01Z</time></trkpt><trkpt lat="45.69107383488226" lon="11.267193911997133"><ele>443.79999999999995</ele><time>2026-04-01T14:46:02Z</time></trkpt><trkpt lat="45.69100959869034" lon="11.267301280240996"><ele>439.59999999999997</ele><time>2026-04-01T14:46:03Z</time></trkpt><trkpt lat="45.69095419026709" lon="11.26742667303255"><ele>435.40000000000003</ele><time>2026-04-01T14:46:04Z</time></trkpt><trkpt lat="45.69090969426589" lon="11.267539451975306"><ele>431.20000000000005</ele><time>2026-04-01T14:46:05Z</time></trkpt><trkpt lat="45.69086026052602" lon="11.267652837082709"><ele>427.0</ele><time>2026-04-01T14:46:06Z</time></trkpt><trkpt lat="45.690776535449196" lon="11.267730521466056"><ele>427.0</ele><time>2026-04-01T14:46:07Z</time></trkpt><trkpt lat="45.69072268845268" lon="11.267848747344814"><ele>427.00000000000006</ele><time>2026-04-01T14:46:08Z</time></trkpt><trkpt lat="45.690658062721624" lon="11.267939890517871"><ele>427.00000000000006</ele><time>2026-04-01T14:46:09Z</time></trkpt><trkpt lat="45.690579961298866" lon="11.268052102849467"><ele>427.0</ele><time>2026-04-01T14:46:10Z</time></trkpt><trkpt lat="45.690513128115825" lon="11.268164527063886"><ele>427.0</ele><time>2026-04-01T14:46:11Z</time></trkpt><trkpt lat="45.69044513897198" lon="11.268262351926047"><ele>424.8</ele><time>2026-04-01T14:46:12Z</time></trkpt><trkpt lat="45.69038823983832" lon="11.268349556424583"><ele>422.6</ele><time>2026-04-01T14:46:13Z</time></trkpt><trkpt lat="45.69032753562416" lon="11.268414182712977"><ele>420.40000000000003</ele><time>2026-04-01T14:46:14Z</time></trkpt><trkpt lat="45.69024571919595" lon="11.268557524886171"><ele>418.20000000000005</ele><time>2026-04-01T14:46:16Z</time></trkpt><trkpt lat="45.69020051541292" lon="11.268637908681567"><ele>416.0</ele><time>2026-04-01T14:46:17Z</time></trkpt><trkpt lat="45.69024262755112" lon="11.268791751624615"><ele>416.0</ele><time>2026-04-01T14:46:18Z</time></trkpt><trkpt lat="45.69019891993077" lon="11.268874847098775"><ele>416.0</ele><time>2026-04-01T14:46:19Z</time></trkpt><trkpt lat="45.69014064415741" lon="11.268984104550823"><ele>416.0</ele><time>2026-04-01T14:46:20Z</time></trkpt><trkpt lat="45.690072810808324" lon="11.269101616355139"><ele>416.0</ele><time>2026-04-01T14:46:21Z</time></trkpt><trkpt lat="45.690002909766946" lon="11.269223824818877"><ele>416.0</ele><time>2026-04-01T14:46:22Z</time></trkpt><trkpt lat="45.68993328427912" lon="11.269349332503426"><ele>419.4</ele><time>2026-04-01T14:46:23Z</time></trkpt><trkpt lat="45.68986502830096" lon="11.269472728493012"><ele>422.8</ele><time>2026-04-01T14:46:24Z</time></trkpt><trkpt lat="45.68979775624082" lon="11.26957237262281"><ele>426.19999999999993</ele><time>2026-04-01T14:46:25Z</time></trkpt><trkpt lat="45.68973860823332" lon="11.26965687425989"><ele>429.59999999999997</ele><time>2026-04-01T14:46:26Z</time></trkpt><trkpt lat="45.689671867698245" lon="11.269674809814274"><ele>433.0</ele><time>2026-04-01T14:46:27Z</time></trkpt><trkpt lat="45.6895668136279" lon="11.269671579371142"><ele>433.0</ele><time>2026-04-01T14:46:28Z</time></trkpt><trkpt lat="45.68945559550789" lon="11.269658994217744"><ele>432.99999999999994</ele><time>2026-04-01T14:46:29Z</time></trkpt><trkpt lat="45.6893509490622" lon="11.269648223850998"><ele>432.99999999999994</ele><time>2026-04-01T14:46:30Z</time></trkpt><trkpt lat="45.689257258198936" lon="11.269655315804133"><ele>433.0</ele><time>2026-04-01T14:46:31Z</time></trkpt><trkpt lat="45.68916076014978" lon="11.269659089748854"><ele>433.0</ele><time>2026-04-01T14:46:32Z</time></trkpt><trkpt lat="45.68905109207401" lon="11.269666209332456"><ele>431.79999999999995</ele><time>2026-04-01T14:46:33Z</time></trkpt><trkpt lat="45.688932499387754" lon="11.269723482236442"><ele>430.59999999999997</ele><time>2026-04-01T14:46:34Z</time></trkpt><trkpt lat="45.68880798990652" lon="11.269781431129399"><ele>429.40000000000003</ele><time>2026-04-01T14:46:35Z</time></trkpt><trkpt lat="45.68870095031846" lon="11.269822343161902"><ele>428.20000000000005</ele><time>2026-04-01T14:46:36Z</time></trkpt><trkpt lat="45.68862658857164" lon="11.26983336484448"><ele>427.0</ele><time>2026-04-01T14:46:37Z</time></trkpt><trkpt lat="45.68856105702773" lon="11.269915440588498"><ele>429.50000000000006</ele><time>2026-04-01T14:46:39Z</time></trkpt><trkpt lat="45.68855313206815" lon="11.270016070156998"><ele>432.0</ele><time>2026-04-01T14:46:40Z</time></trkpt><trkpt lat="45.68855625632125" lon="11.27012126987946"><ele>434.5</ele><time>2026-04-01T14:46:41Z</time></trkpt><trkpt lat="45.688575132444605" lon="11.270228807726316"><ele>437.0</ele><time>2026-04-01T14:46:42Z</time></trkpt><trkpt lat="45.688593514519965" lon="11.270342894342757"><ele>439.50000000000006</ele><time>2026-04-01T14:46:43Z</time></trkpt><trkpt lat="45.68861728390283" lon="11.270485032700678"><ele>442.0</ele><time>2026-04-01T14:46:44Z</time></trkpt><trkpt lat="45.68862246278195" lon="11.270587919761564"><ele>448.1666666666667</ele><time>2026-04-01T14:46:45Z</time></trkpt><trkpt lat="45.68863169451781" lon="11.270687913073415"><ele>454.33333333333337</ele><time>2026-04-01T14:46:46Z</time></trkpt><trkpt lat="45.688649594994054" lon="11.27078779276366"><ele>460.5</ele><time>2026-04-01T14:46:47Z</time></trkpt><trkpt lat="45.68872730061767" lon="11.270926485636283"><ele>466.66666666666663</ele><time>2026-04-01T14:46:49Z</time></trkpt><trkpt lat="45.68877236463952" lon="11.270997424310147"><ele>472.8333333333333</ele><time>2026-04-01T14:46:50Z</time></trkpt><trkpt lat="45.68882084635944" lon="11.271071033052927"><ele>479.0</ele><time>2026-04-01T14:46:51Z</time></trkpt><trkpt lat="45.688873483887065" lon="11.271150951468359"><ele>478.99999999999994</ele><time>2026-04-01T14:46:52Z</time></trkpt><trkpt lat="45.68892787572082" lon="11.271233533406717"><ele>479.0</ele><time>2026-04-01T14:46:53Z</time></trkpt><trkpt lat="45.688964192097465" lon="11.271318391905101"><ele>479.0</ele><time>2026-04-01T14:46:54Z</time></trkpt><trkpt lat="45.688959750249516" lon="11.271415884054194"><ele>479.0</ele><time>2026-04-01T14:46:55Z</time></trkpt><trkpt lat="45.688934379861905" lon="11.271517091296182"><ele>478.99999999999994</ele><time>2026-04-01T14:46:56Z</time></trkpt><trkpt lat="45.68892354194061" lon="11.271642135171154"><ele>479.0</ele><time>2026-04-01T14:46:57Z</time></trkpt><trkpt lat="45.688918856330105" lon="11.271793027900355"><ele>478.16666666666663</ele><time>2026-04-01T14:46:58Z</time></trkpt><trkpt lat="45.68892632046911" lon="11.271893946306607"><ele>477.3333333333333</ele><time>2026-04-01T14:46:59Z</time></trkpt><trkpt lat="45.688952026965005" lon="11.27199378513083"><ele>476.5</ele><time>2026-04-01T14:47:00Z</time></trkpt><trkpt lat="45.688988645628704" lon="11.272092310645494"><ele>475.66666666666663</ele><time>2026-04-01T14:47:01Z</time></trkpt><trkpt lat="45.689052471354366" lon="11.272206599048483"><ele>474.8333333333333</ele><time>2026-04-01T14:47:02Z</time></trkpt><trkpt lat="45.68911632816673" lon="11.272294585825621"><ele>474.0</ele><time>2026-04-01T14:47:03Z</time></trkpt><trkpt lat="45.689197047293376" lon="11.27238011552266"><ele>471.2</ele><time>2026-04-01T14:47:04Z</time></trkpt><trkpt lat="45.689274361067184" lon="11.272460924087117"><ele>468.4</ele><time>2026-04-01T14:47:05Z</time></trkpt><trkpt lat="45.68933021040166" lon="11.272519331818199"><ele>465.6</ele><time>2026-04-01T14:47:06Z</time></trkpt><trkpt lat="45.68940738199869" lon="11.272600198313903"><ele>462.8</ele><time>2026-04-01T14:47:07Z</time></trkpt><trkpt lat="45.68948990272737" lon="11.272697663357354"><ele>460.0</ele><time>2026-04-01T14:47:08Z</time></trkpt><trkpt lat="45.68956972635498" lon="11.272811395042694"><ele>465.0</ele><time>2026-04-01T14:47:09Z</time></trkpt><trkpt lat="45.6896467016139" lon="11.27292511625724"><ele>470.0</ele><time>2026-04-01T14:47:10Z</time></trkpt><trkpt lat="45.68973073575438" lon="11.273031301715303"><ele>475.0</ele><time>2026-04-01T14:47:11Z</time></trkpt><trkpt lat="45.68982824807303" lon="11.273133493506077"><ele>480.0</ele><time>2026-04-01T14:47:12Z</time></trkpt><trkpt lat="45.68991328339082" lon="11.273248519857969"><ele>480.0</ele><time>2026-04-01T14:47:13Z</time></trkpt><trkpt lat="45.68997284841198" lon="11.273352768649348"><ele>480.0</ele><time>2026-04-01T14:47:14Z</time></trkpt><trkpt lat="45.69000677474412" lon="11.27346760545323"><ele>480.0</ele><time>2026-04-01T14:47:15Z</time></trkpt><trkpt lat="45.69006143162731" lon="11.273572154558465"><ele>480.0</ele><time>2026-04-01T14:47:16Z</time></trkpt><trkpt lat="45.690120552870674" lon="11.273679386393573"><ele>480.0</ele><time>2026-04-01T14:47:17Z</time></trkpt><trkpt lat="45.69016639609942" lon="11.273766018984958"><ele>480.0</ele><time>2026-04-01T14:47:18Z</time></trkpt><trkpt lat="45.6902340559285" lon="11.273875887468852"><ele>482.4</ele><time>2026-04-01T14:47:19Z</time></trkpt><trkpt lat="45.690304053205416" lon="11.2739427546262"><ele>484.8</ele><time>2026-04-01T14:47:20Z</time></trkpt><trkpt lat="45.69038460221796" lon="11.274056704909277"><ele>487.20000000000005</ele><time>2026-04-01T14:47:21Z</time></trkpt><trkpt lat="45.69046509526418" lon="11.274170891490556"><ele>489.6</ele><time>2026-04-01T14:47:22Z</time></trkpt><trkpt lat="45.69055214344578" lon="11.27426440708196"><ele>492.0</ele><time>2026-04-01T14:47:23Z</time></trkpt><trkpt lat="45.69063886713037" lon="11.274305674934618"><ele>492.0</ele><time>2026-04-01T14:47:24Z</time></trkpt><trkpt lat="45.690726968314095" lon="11.27433931045203"><ele>492.00000000000006</ele><time>2026-04-01T14:47:25Z</time></trkpt><trkpt lat="45.69082242805926" lon="11.27439915412382"><ele>492.00000000000006</ele><time>2026-04-01T14:47:26Z</time></trkpt><trkpt lat="45.69090092409861" lon="11.274454478566195"><ele>492.0</ele><time>2026-04-01T14:47:27Z</time></trkpt><trkpt lat="45.690973068034815" lon="11.274545238357748"><ele>492.0</ele><time>2026-04-01T14:47:28Z</time></trkpt><trkpt lat="45.691027497903896" lon="11.274624192349458"><ele>492.0</ele><time>2026-04-01T14:47:29Z</time></trkpt><trkpt lat="45.6910713832424" lon="11.274739300367731"><ele>492.00000000000006</ele><time>2026-04-01T14:47:30Z</time></trkpt><trkpt lat="45.691119685900254" lon="11.274897814315933"><ele>492.00000000000006</ele><time>2026-04-01T14:47:31Z</time></trkpt><trkpt lat="45.69117139467822" lon="11.275012682869473"><ele>492.0</ele><time>2026-04-01T14:47:32Z</time></trkpt><trkpt lat="45.69124383136033" lon="11.275078482515061"><ele>492.0</ele><time>2026-04-01T14:47:33Z</time></trkpt><trkpt lat="45.69132183716759" lon="11.275164413433767"><ele>494.0</ele><time>2026-04-01T14:47:34Z</time></trkpt><trkpt lat="45.691390915376566" lon="11.27525309138656"><ele>496.00000000000006</ele><time>2026-04-01T14:47:35Z</time></trkpt><trkpt lat="45.69145846542493" lon="11.275350870152424"><ele>498.00000000000006</ele><time>2026-04-01T14:47:36Z</time></trkpt><trkpt lat="45.691526257035136" lon="11.275457727375308"><ele>500.0</ele><time>2026-04-01T14:47:37Z</time></trkpt><trkpt lat="45.691595588761686" lon="11.275582463508103"><ele>502.0</ele><time>2026-04-01T14:47:38Z</time></trkpt><trkpt lat="45.69165726531913" lon="11.275715278834962"><ele>502.0</ele><time>2026-04-01T14:47:39Z</time></trkpt><trkpt lat="45.691705239482545" lon="11.275851614718961"><ele>502.00000000000006</ele><time>2026-04-01T14:47:40Z</time></trkpt><trkpt lat="45.69175780010298" lon="11.27596148104491"><ele>502.00000000000006</ele><time>2026-04-01T14:47:41Z</time></trkpt><trkpt lat="45.69182887158506" lon="11.276090631616686"><ele>502.0</ele><time>2026-04-01T14:47:42Z</time></trkpt><trkpt lat="45.691893085060215" lon="11.276207232666154"><ele>502.0</ele><time>2026-04-01T14:47:43Z</time></trkpt><trkpt lat="45.691971911182854" lon="11.276343634766635"><ele>508.20000000000005</ele><time>2026-04-01T14:47:44Z</time></trkpt><trkpt lat="45.69202524341443" lon="11.276484128315056"><ele>514.4000000000001</ele><time>2026-04-01T14:47:45Z</time></trkpt><trkpt lat="45.69207782427094" lon="11.276591865488308"><ele>520.5999999999999</ele><time>2026-04-01T14:47:46Z</time></trkpt><trkpt lat="45.69214731958513" lon="11.276681852935134"><ele>526.8</ele><time>2026-04-01T14:47:47Z</time></trkpt><trkpt lat="45.692241976235294" lon="11.276743672348665"><ele>533.0</ele><time>2026-04-01T14:47:48Z</time></trkpt><trkpt lat="45.692327087934686" lon="11.27681246210896"><ele>533.0</ele><time>2026-04-01T14:47:49Z</time></trkpt><trkpt lat="45.69242454734432" lon="11.276900596489126"><ele>533.0</ele><time>2026-04-01T14:47:50Z</time></trkpt><trkpt lat="45.69250498515409" lon="11.277000201426329"><ele>533.0</ele><time>2026-04-01T14:47:51Z</time></trkpt><trkpt lat="45.69253550902642" lon="11.277116718133113"><ele>533.0</ele><time>2026-04-01T14:47:52Z</time></trkpt><trkpt lat="45.692574468550625" lon="11.277313288859137"><ele>531.1999999999999</ele><time>2026-04-01T14:47:54Z</time></trkpt><trkpt lat="45.69260612336889" lon="11.277422098689645"><ele>529.4</ele><time>2026-04-01T14:47:55Z</time></trkpt><trkpt lat="45.69261846814352" lon="11.27757715082589"><ele>527.5999999999999</ele><time>2026-04-01T14:47:56Z</time></trkpt><trkpt lat="45.69263246038841" lon="11.277701551559032"><ele>525.8</ele><time>2026-04-01T14:47:57Z</time></trkpt><trkpt lat="45.69265477213673" lon="11.277845048822376"><ele>524.0</ele><time>2026-04-01T14:47:58Z</time></trkpt><trkpt lat="45.692667031355676" lon="11.277972299114998"><ele>524.0</ele><time>2026-04-01T14:47:59Z</time></trkpt><trkpt lat="45.692716431830696" lon="11.278069063420327"><ele>524.0</ele><time>2026-04-01T14:48:01Z</time></trkpt><trkpt lat="45.69280131993442" lon="11.278041588015626"><ele>524.0</ele><time>2026-04-01T14:48:03Z</time></trkpt><trkpt lat="45.69280920189716" lon="11.277933209053534"><ele>524.0</ele><time>2026-04-01T14:48:04Z</time></trkpt><trkpt lat="45.69280963036962" lon="11.277840979525566"><ele>524.0</ele><time>2026-04-01T14:48:05Z</time></trkpt><trkpt lat="45.69278879052608" lon="11.27774857419989"><ele>524.0</ele><time>2026-04-01T14:48:06Z</time></trkpt><trkpt lat="45.6927960743266" lon="11.277643745523033"><ele>530.6666666666666</ele><time>2026-04-01T14:48:07Z</time></trkpt><trkpt lat="45.69278959930634" lon="11.277549566800168"><ele>537.3333333333333</ele><time>2026-04-01T14:48:08Z</time></trkpt><trkpt lat="45.692787176352674" lon="11.277433274000702"><ele>544.0</ele><time>2026-04-01T14:48:10Z</time></trkpt><trkpt lat="45.69286596586033" lon="11.27745219343297"><ele>550.6666666666666</ele><time>2026-04-01T14:48:12Z</time></trkpt><trkpt lat="45.69289489945223" lon="11.277607306620409"><ele>557.3333333333334</ele><time>2026-04-01T14:48:14Z</time></trkpt><trkpt lat="45.69293901262562" lon="11.277698136464892"><ele>564.0</ele><time>2026-04-01T14:48:15Z</time></trkpt><trkpt lat="45.69296622943578" lon="11.27779574897737"><ele>564.0</ele><time>2026-04-01T14:48:16Z</time></trkpt><trkpt lat="45.693015248696625" lon="11.277953018463252"><ele>564.0</ele><time>2026-04-01T14:48:18Z</time></trkpt><trkpt lat="45.693000088985684" lon="11.278074504051416"><ele>564.0</ele><time>2026-04-01T14:48:19Z</time></trkpt><trkpt lat="45.692976344098895" lon="11.278181282816083"><ele>564.0</ele><time>2026-04-01T14:48:20Z</time></trkpt><trkpt lat="45.69295048443317" lon="11.278322926043003"><ele>564.0</ele><time>2026-04-01T14:48:21Z</time></trkpt><trkpt lat="45.69292419381952" lon="11.278484404820015"><ele>562.6</ele><time>2026-04-01T14:48:22Z</time></trkpt><trkpt lat="45.69291471311576" lon="11.278605245981954"><ele>561.2</ele><time>2026-04-01T14:48:23Z</time></trkpt><trkpt lat="45.69293723171473" lon="11.278701641051915"><ele>559.8000000000001</ele><time>2026-04-01T14:48:24Z</time></trkpt><trkpt lat="45.69297975737308" lon="11.278831867821513"><ele>558.4</ele><time>2026-04-01T14:48:25Z</time></trkpt><trkpt lat="45.69307306147991" lon="11.278910859529358"><ele>557.0</ele><time>2026-04-01T14:48:26Z</time></trkpt><trkpt lat="45.693141689642694" lon="11.279021821537881"><ele>557.0</ele><time>2026-04-01T14:48:27Z</time></trkpt><trkpt lat="45.69317485787821" lon="11.279135713375373"><ele>557.0</ele><time>2026-04-01T14:48:28Z</time></trkpt><trkpt lat="45.6932010204213" lon="11.279278095009687"><ele>557.0</ele><time>2026-04-01T14:48:29Z</time></trkpt><trkpt lat="45.693229173265394" lon="11.279401137700727"><ele>557.0</ele><time>2026-04-01T14:48:30Z</time></trkpt><trkpt lat="45.693301587429275" lon="11.279530298343657"><ele>557.0</ele><time>2026-04-01T14:48:32Z</time></trkpt><trkpt lat="45.69336139096459" lon="11.279493795176052"><ele>557.0</ele><time>2026-04-01T14:48:34Z</time></trkpt><trkpt lat="45.69335853217796" lon="11.279383125299544"><ele>557.0</ele><time>2026-04-01T14:48:36Z</time></trkpt><trkpt lat="45.69331742615201" lon="11.27920681437193"><ele>557.0</ele><time>2026-04-01T14:48:38Z</time></trkpt><trkpt lat="45.693300917925164" lon="11.27909732642994"><ele>557.0</ele><time>2026-04-01T14:48:39Z</time></trkpt><trkpt lat="45.6932839395572" lon="11.278955948048868"><ele>557.0</ele><time>2026-04-01T14:48:40Z</time></trkpt><trkpt lat="45.6932420747326" lon="11.278809696922012"><ele>557.0</ele><time>2026-04-01T14:48:41Z</time></trkpt><trkpt lat="45.69324571854822" lon="11.278688979230763"><ele>557.0</ele><time>2026-04-01T14:48:42Z</time></trkpt><trkpt lat="45.69329934080545" lon="11.278518102730722"><ele>557.0</ele><time>2026-04-01T14:48:44Z</time></trkpt><trkpt lat="45.69335697609255" lon="11.278446156763078"><ele>557.0</ele><time>2026-04-01T14:48:45Z</time></trkpt><trkpt lat="45.693414719973255" lon="11.278366117241518"><ele>557.0</ele><time>2026-04-01T14:48:46Z</time></trkpt><trkpt lat="45.69348145519128" lon="11.278330970987378"><ele>557.0</ele><time>2026-04-01T14:48:48Z</time></trkpt><trkpt lat="45.69346869999813" lon="11.278494524942802"><ele>557.0</ele><time>2026-04-01T14:48:50Z</time></trkpt><trkpt lat="45.6934976647166" lon="11.278668323928475"><ele>557.0</ele><time>2026-04-01T14:48:52Z</time></trkpt><trkpt lat="45.69354172979146" lon="11.278765342073852"><ele>557.0</ele><time>2026-04-01T14:48:53Z</time></trkpt><trkpt lat="45.69357518740609" lon="11.278856865422265"><ele>557.0</ele><time>2026-04-01T14:48:54Z</time></trkpt><trkpt lat="45.693585177434954" lon="11.278994143142949"><ele>557.0</ele><time>2026-04-01T14:48:55Z</time></trkpt><trkpt lat="45.69360833182314" lon="11.279132969779047"><ele>564.6</ele><time>2026-04-01T14:48:56Z</time></trkpt><trkpt lat="45.69364031353341" lon="11.27930845817018"><ele>572.2</ele><time>2026-04-01T14:48:57Z</time></trkpt><trkpt lat="45.69366936416543" lon="11.27945089233619"><ele>579.8</ele><time>2026-04-01T14:48:58Z</time></trkpt><trkpt lat="45.693709997971396" lon="11.27954988011469"><ele>587.4</ele><time>2026-04-01T14:48:59Z</time></trkpt><trkpt lat="45.69373092252557" lon="11.279662940236623"><ele>595.0</ele><time>2026-04-01T14:49:00Z</time></trkpt><trkpt lat="45.693727644248625" lon="11.279766494633792"><ele>595.0</ele><time>2026-04-01T14:49:01Z</time></trkpt><trkpt lat="45.69373938096472" lon="11.279879587189308"><ele>595.0</ele><time>2026-04-01T14:49:02Z</time></trkpt><trkpt lat="45.693773668779244" lon="11.279979998228002"><ele>595.0</ele><time>2026-04-01T14:49:04Z</time></trkpt><trkpt lat="45.69388934034945" lon="11.27990124860483"><ele>595.0</ele><time>2026-04-01T14:49:06Z</time></trkpt><trkpt lat="45.693888447976995" lon="11.27977834075515"><ele>595.0</ele><time>2026-04-01T14:49:07Z</time></trkpt><trkpt lat="45.69389793971369" lon="11.279657801074709"><ele>595.0</ele><time>2026-04-01T14:49:08Z</time></trkpt><trkpt lat="45.69393063466671" lon="11.27954350243076"><ele>595.0</ele><time>2026-04-01T14:49:09Z</time></trkpt><trkpt lat="45.69393891470001" lon="11.279407667150968"><ele>595.0</ele><time>2026-04-01T14:49:10Z</time></trkpt><trkpt lat="45.69397226909644" lon="11.279264019034793"><ele>595.0</ele><time>2026-04-01T14:49:11Z</time></trkpt><trkpt lat="45.69395351547636" lon="11.279098675961563"><ele>595.0</ele><time>2026-04-01T14:49:13Z</time></trkpt><trkpt lat="45.69396651979099" lon="11.278968336960425"><ele>595.0</ele><time>2026-04-01T14:49:15Z</time></trkpt><trkpt lat="45.69404254950864" lon="11.279030682234966"><ele>595.0</ele><time>2026-04-01T14:49:17Z</time></trkpt><trkpt lat="45.694025789403376" lon="11.279135259128223"><ele>595.0</ele><time>2026-04-01T14:49:18Z</time></trkpt><trkpt lat="45.69403485262795" lon="11.279227743207342"><ele>595.0</ele><time>2026-04-01T14:49:19Z</time></trkpt><trkpt lat="45.69406659203999" lon="11.27935669688928"><ele>595.0</ele><time>2026-04-01T14:49:20Z</time></trkpt><trkpt lat="45.694093948695425" lon="11.279476560379388"><ele>595.0</ele><time>2026-04-01T14:49:21Z</time></trkpt><trkpt lat="45.69413141496616" lon="11.279628355855229"><ele>593.25</ele><time>2026-04-01T14:49:22Z</time></trkpt><trkpt lat="45.69415992864313" lon="11.279796217829018"><ele>591.5</ele><time>2026-04-01T14:49:23Z</time></trkpt><trkpt lat="45.69420033730745" lon="11.279987800243703"><ele>589.75</ele><time>2026-04-01T14:49:24Z</time></trkpt><trkpt lat="45.69420294668649" lon="11.280135042783204"><ele>588.0</ele><time>2026-04-01T14:49:25Z</time></trkpt><trkpt lat="45.694209096824245" lon="11.280261809756523"><ele>588.0</ele><time>2026-04-01T14:49:26Z</time></trkpt><trkpt lat="45.6941892512073" lon="11.280349880007508"><ele>588.0</ele><time>2026-04-01T14:49:27Z</time></trkpt><trkpt lat="45.69415183086031" lon="11.2804587761077"><ele>588.0</ele><time>2026-04-01T14:49:28Z</time></trkpt><trkpt lat="45.69411779781827" lon="11.280547497000276"><ele>588.0</ele><time>2026-04-01T14:49:29Z</time></trkpt><trkpt lat="45.694073727872045" lon="11.280687802043081"><ele>588.0</ele><time>2026-04-01T14:49:31Z</time></trkpt><trkpt lat="45.694055785688214" lon="11.280796608187524"><ele>588.0</ele><time>2026-04-01T14:49:32Z</time></trkpt><trkpt lat="45.694070278658906" lon="11.280906243202807"><ele>588.0</ele><time>2026-04-01T14:49:33Z</time></trkpt><trkpt lat="45.69417384722669" lon="11.281013367057634"><ele>588.0</ele><time>2026-04-01T14:49:34Z</time></trkpt><trkpt lat="45.69423147317406" lon="11.281120799094074"><ele>588.0</ele><time>2026-04-01T14:49:35Z</time></trkpt><trkpt lat="45.69428187047616" lon="11.281291595223456"><ele>588.0</ele><time>2026-04-01T14:49:37Z</time></trkpt><trkpt lat="45.694311338903866" lon="11.281378384785743"><ele>588.0</ele><time>2026-04-01T14:49:38Z</time></trkpt><trkpt lat="45.69435794654912" lon="11.28151565275162"><ele>593.5</ele><time>2026-04-01T14:49:40Z</time></trkpt><trkpt lat="45.69447210693046" lon="11.281456845712146"><ele>599.0</ele><time>2026-04-01T14:49:42Z</time></trkpt><trkpt lat="45.694509955268586" lon="11.28134670718866"><ele>604.5</ele><time>2026-04-01T14:49:43Z</time></trkpt><trkpt lat="45.69457530469523" lon="11.281261117238165"><ele>610.0</ele><time>2026-04-01T14:49:44Z</time></trkpt><trkpt lat="45.69462006898854" lon="11.281175848008816"><ele>615.5</ele><time>2026-04-01T14:49:45Z</time></trkpt><trkpt lat="45.694656818684365" lon="11.281092828933666"><ele>621.0</ele><time>2026-04-01T14:49:46Z</time></trkpt><trkpt lat="45.69471548430452" lon="11.280965055167767"><ele>621.8333333333334</ele><time>2026-04-01T14:49:47Z</time></trkpt><trkpt lat="45.69474282968039" lon="11.280859076529502"><ele>622.6666666666666</ele><time>2026-04-01T14:49:48Z</time></trkpt><trkpt lat="45.69474517154592" lon="11.28075116604778"><ele>623.5</ele><time>2026-04-01T14:49:49Z</time></trkpt><trkpt lat="45.694762723348994" lon="11.280623214295483"><ele>624.3333333333333</ele><time>2026-04-01T14:49:50Z</time></trkpt><trkpt lat="45.69477824916185" lon="11.280483910136972"><ele>625.1666666666666</ele><time>2026-04-01T14:49:51Z</time></trkpt><trkpt lat="45.6947979711305" lon="11.280350381878451"><ele>626.0</ele><time>2026-04-01T14:49:52Z</time></trkpt><trkpt lat="45.69481191269155" lon="11.280190122075856"><ele>627.6666666666666</ele><time>2026-04-01T14:49:53Z</time></trkpt><trkpt lat="45.6948273430615" lon="11.280100382534663"><ele>629.3333333333333</ele><time>2026-04-01T14:49:54Z</time></trkpt><trkpt lat="45.69483117974314" lon="11.279967819213518"><ele>631.0</ele><time>2026-04-01T14:49:55Z</time></trkpt><trkpt lat="45.694838372986595" lon="11.279857106815577"><ele>632.6666666666666</ele><time>2026-04-01T14:49:56Z</time></trkpt><trkpt lat="45.694878121637736" lon="11.279762812500536"><ele>634.3333333333334</ele><time>2026-04-01T14:49:58Z</time></trkpt><trkpt lat="45.69493057639147" lon="11.27989755457651"><ele>636.0</ele><time>2026-04-01T14:50:00Z</time></trkpt><trkpt lat="45.69489105297636" lon="11.280085613545461"><ele>636.0</ele><time>2026-04-01T14:50:02Z</time></trkpt><trkpt lat="45.69488473061687" lon="11.280238175501045"><ele>636.0</ele><time>2026-04-01T14:50:03Z</time></trkpt><trkpt lat="45.69489543876184" lon="11.280376878058721"><ele>636.0</ele><time>2026-04-01T14:50:04Z</time></trkpt><trkpt lat="45.69488428406486" lon="11.280514790709603"><ele>636.0</ele><time>2026-04-01T14:50:05Z</time></trkpt><trkpt lat="45.69488645853224" lon="11.280631427457969"><ele>636.0</ele><time>2026-04-01T14:50:06Z</time></trkpt><trkpt lat="45.694911421025594" lon="11.280780442818926"><ele>633.5</ele><time>2026-04-01T14:50:07Z</time></trkpt><trkpt lat="45.69495699162253" lon="11.280944735545729"><ele>631.0</ele><time>2026-04-01T14:50:08Z</time></trkpt><trkpt lat="45.69500302274528" lon="11.281095528846011"><ele>628.5</ele><time>2026-04-01T14:50:09Z</time></trkpt><trkpt lat="45.69504658619403" lon="11.281245701081154"><ele>626.0</ele><time>2026-04-01T14:50:10Z</time></trkpt><trkpt lat="45.695097043251096" lon="11.28138300764675"><ele>625.0</ele><time>2026-04-01T14:50:11Z</time></trkpt><trkpt lat="45.695137850637764" lon="11.281541370744831"><ele>624.0</ele><time>2026-04-01T14:50:12Z</time></trkpt><trkpt lat="45.69517839602435" lon="11.281675338885663"><ele>623.0</ele><time>2026-04-01T14:50:13Z</time></trkpt><trkpt lat="45.69520447870355" lon="11.281770847159304"><ele>622.0</ele><time>2026-04-01T14:50:14Z</time></trkpt><trkpt lat="45.69527835998213" lon="11.281934295844524"><ele>621.0</ele><time>2026-04-01T14:50:16Z</time></trkpt><trkpt lat="45.69533839795806" lon="11.282016873139282"><ele>629.8</ele><time>2026-04-01T14:50:17Z</time></trkpt><trkpt lat="45.69539183443089" lon="11.282101197212961"><ele>638.6</ele><time>2026-04-01T14:50:18Z</time></trkpt><trkpt lat="45.69549652484283" lon="11.282066604616876"><ele>647.4</ele><time>2026-04-01T14:50:20Z</time></trkpt><trkpt lat="45.69551955245742" lon="11.281883429395435"><ele>656.2</ele><time>2026-04-01T14:50:22Z</time></trkpt><trkpt lat="45.69547772345126" lon="11.281774365282399"><ele>665.0</ele><time>2026-04-01T14:50:23Z</time></trkpt><trkpt lat="45.695431863254434" lon="11.28164478346204"><ele>665.0</ele><time>2026-04-01T14:50:24Z</time></trkpt><trkpt lat="45.695402885663285" lon="11.281561610640106"><ele>665.0</ele><time>2026-04-01T14:50:25Z</time></trkpt><trkpt lat="45.69546327673167" lon="11.281477052187538"><ele>665.0</ele><time>2026-04-01T14:50:28Z</time></trkpt><trkpt lat="45.69550045340074" lon="11.281604398499224"><ele>665.0</ele><time>2026-04-01T14:50:30Z</time></trkpt><trkpt lat="45.69553815708932" lon="11.281692091727976"><ele>665.0</ele><time>2026-04-01T14:50:31Z</time></trkpt><trkpt lat="45.6955936765836" lon="11.28183088915799"><ele>665.0</ele><time>2026-04-01T14:50:32Z</time></trkpt><trkpt lat="45.6956352059926" lon="11.281939292089826"><ele>665.0</ele><time>2026-04-01T14:50:33Z</time></trkpt><trkpt lat="45.69569041181301" lon="11.282111342537709"><ele>665.0</ele><time>2026-04-01T14:50:34Z</time></trkpt><trkpt lat="45.69572897123396" lon="11.282279052223885"><ele>665.0</ele><time>2026-04-01T14:50:35Z</time></trkpt><trkpt lat="45.69577328150056" lon="11.282425469282073"><ele>665.0</ele><time>2026-04-01T14:50:36Z</time></trkpt><trkpt lat="45.6958206673758" lon="11.282574784234459"><ele>663.4</ele><time>2026-04-01T14:50:37Z</time></trkpt><trkpt lat="45.695865824758094" lon="11.282736627600478"><ele>661.8</ele><time>2026-04-01T14:50:38Z</time></trkpt><trkpt lat="45.69589418349809" lon="11.282881048748553"><ele>660.2</ele><time>2026-04-01T14:50:39Z</time></trkpt><trkpt lat="45.69589528856303" lon="11.28300078386167"><ele>658.6</ele><time>2026-04-01T14:50:40Z</time></trkpt><trkpt lat="45.69586188651315" lon="11.283112612574788"><ele>657.0</ele><time>2026-04-01T14:50:41Z</time></trkpt><trkpt lat="45.69585780200853" lon="11.283227388071367"><ele>657.0</ele><time>2026-04-01T14:50:42Z</time></trkpt><trkpt lat="45.69585338423942" lon="11.28334298290887"><ele>657.0</ele><time>2026-04-01T14:50:43Z</time></trkpt><trkpt lat="45.695849557594215" lon="11.283442535609701"><ele>657.0</ele><time>2026-04-01T14:50:44Z</time></trkpt><trkpt lat="45.695784049417234" lon="11.283525896784187"><ele>657.0</ele><time>2026-04-01T14:50:45Z</time></trkpt><trkpt lat="45.695784099300226" lon="11.283642734977631"><ele>657.0</ele><time>2026-04-01T14:50:47Z</time></trkpt><trkpt lat="45.69588241243103" lon="11.283571383512356"><ele>657.0</ele><time>2026-04-01T14:50:49Z</time></trkpt><trkpt lat="45.69592608051202" lon="11.283452802582639"><ele>657.0</ele><time>2026-04-01T14:50:50Z</time></trkpt><trkpt lat="45.695962939742" lon="11.283345748469438"><ele>657.0</ele><time>2026-04-01T14:50:51Z</time></trkpt><trkpt lat="45.696023235510644" lon="11.283213683842405"><ele>657.0</ele><time>2026-04-01T14:50:52Z</time></trkpt><trkpt lat="45.6960649209975" lon="11.283141637976442"><ele>657.0</ele><time>2026-04-01T14:50:53Z</time></trkpt><trkpt lat="45.69610206286531" lon="11.283058788775438"><ele>657.0</ele><time>2026-04-01T14:50:54Z</time></trkpt><trkpt lat="45.69617140391162" lon="11.28300520435115"><ele>657.0</ele><time>2026-04-01T14:50:55Z</time></trkpt><trkpt lat="45.69623053593764" lon="11.282931107318053"><ele>661.5</ele><time>2026-04-01T14:50:56Z</time></trkpt><trkpt lat="45.69631082474108" lon="11.28285398796867"><ele>666.0</ele><time>2026-04-01T14:50:57Z</time></trkpt><trkpt lat="45.69635636665981" lon="11.282774583857837"><ele>670.5</ele><time>2026-04-01T14:50:58Z</time></trkpt><trkpt lat="45.69638373628252" lon="11.28262013140297"><ele>675.0</ele><time>2026-04-01T14:51:00Z</time></trkpt><trkpt lat="45.69641168414694" lon="11.282745240291304"><ele>679.5</ele><time>2026-04-01T14:51:04Z</time></trkpt><trkpt lat="45.69640729734973" lon="11.282836501477632"><ele>684.0</ele><time>2026-04-01T14:51:05Z</time></trkpt><trkpt lat="45.696363038055374" lon="11.28294202306217"><ele>684.0</ele><time>2026-04-01T14:51:06Z</time></trkpt><trkpt lat="45.69631654665159" lon="11.283066045691974"><ele>684.0</ele><time>2026-04-01T14:51:07Z</time></trkpt><trkpt lat="45.69625250838399" lon="11.283166491181312"><ele>684.0</ele><time>2026-04-01T14:51:08Z</time></trkpt><trkpt lat="45.69621002588455" lon="11.283243983947203"><ele>684.0</ele><time>2026-04-01T14:51:09Z</time></trkpt><trkpt lat="45.69618822761697" lon="11.283349122677988"><ele>684.0</ele><time>2026-04-01T14:51:10Z</time></trkpt><trkpt lat="45.69621482284959" lon="11.283532563216411"><ele>684.6</ele><time>2026-04-01T14:51:12Z</time></trkpt><trkpt lat="45.69628298076535" lon="11.28366266568659"><ele>685.2</ele><time>2026-04-01T14:51:13Z</time></trkpt><trkpt lat="45.69633243973824" lon="11.283778352966268"><ele>685.8000000000001</ele><time>2026-04-01T14:51:14Z</time></trkpt><trkpt lat="45.696325414196615" lon="11.283916482132499"><ele>686.4000000000001</ele><time>2026-04-01T14:51:16Z</time></trkpt><trkpt lat="45.69630711621164" lon="11.2840132662731"><ele>687.0</ele><time>2026-04-01T14:51:17Z</time></trkpt><trkpt lat="45.696303492817854" lon="11.28416987838069"><ele>687.0</ele><time>2026-04-01T14:51:19Z</time></trkpt><trkpt lat="45.696412177267206" lon="11.284198532224906"><ele>687.0</ele><time>2026-04-01T14:51:21Z</time></trkpt><trkpt lat="45.696520241365135" lon="11.28406683702424"><ele>687.0</ele><time>2026-04-01T14:51:23Z</time></trkpt><trkpt lat="45.696587569278385" lon="11.283943416738186"><ele>687.0</ele><time>2026-04-01T14:51:24Z</time></trkpt><trkpt lat="45.69661734463945" lon="11.283837166589546"><ele>687.0</ele><time>2026-04-01T14:51:25Z</time></trkpt><trkpt lat="45.696592835415416" lon="11.283740837323704"><ele>687.0</ele><time>2026-04-01T14:51:26Z</time></trkpt><trkpt lat="45.696590349066526" lon="11.283636079247293"><ele>687.0</ele><time>2026-04-01T14:51:27Z</time></trkpt><trkpt lat="45.69659985242897" lon="11.283544667937702"><ele>687.0</ele><time>2026-04-01T14:51:28Z</time></trkpt><trkpt lat="45.69671767042878" lon="11.283444721167522"><ele>687.0</ele><time>2026-04-01T14:51:30Z</time></trkpt><trkpt lat="45.696776102565615" lon="11.283334459948517"><ele>687.0</ele><time>2026-04-01T14:51:31Z</time></trkpt><trkpt lat="45.69681483658797" lon="11.28324310109936"><ele>687.0</ele><time>2026-04-01T14:51:32Z</time></trkpt><trkpt lat="45.696865034135755" lon="11.283126273281297"><ele>686.5</ele><time>2026-04-01T14:51:33Z</time></trkpt><trkpt lat="45.69689913061452" lon="11.282985261839224"><ele>686.0</ele><time>2026-04-01T14:51:34Z</time></trkpt><trkpt lat="45.69693230495431" lon="11.28290701442609"><ele>685.5</ele><time>2026-04-01T14:51:35Z</time></trkpt><trkpt lat="45.69698158264454" lon="11.282836856040019"><ele>685.0</ele><time>2026-04-01T14:51:36Z</time></trkpt><trkpt lat="45.697075751806445" lon="11.282811848619858"><ele>684.5</ele><time>2026-04-01T14:51:37Z</time></trkpt><trkpt lat="45.697155055794944" lon="11.282722952512412"><ele>684.0</ele><time>2026-04-01T14:51:38Z</time></trkpt><trkpt lat="45.69720827771376" lon="11.282653700361502"><ele>691.0</ele><time>2026-04-01T14:51:39Z</time></trkpt><trkpt lat="45.69725513174423" lon="11.28251731434758"><ele>698.0</ele><time>2026-04-01T14:51:41Z</time></trkpt><trkpt lat="45.6972083810298" lon="11.282362448019425"><ele>705.0</ele><time>2026-04-01T14:51:43Z</time></trkpt><trkpt lat="45.69708892521295" lon="11.28228398282419"><ele>712.0</ele><time>2026-04-01T14:51:44Z</time></trkpt><trkpt lat="45.69701840837303" lon="11.282184021683015"><ele>712.0</ele><time>2026-04-01T14:51:46Z</time></trkpt><trkpt lat="45.69707429584049" lon="11.28209774046208"><ele>712.0</ele><time>2026-04-01T14:51:48Z</time></trkpt><trkpt lat="45.697170766206575" lon="11.282194561489062"><ele>712.0</ele><time>2026-04-01T14:51:50Z</time></trkpt><trkpt lat="45.697241425236705" lon="11.282281615169817"><ele>712.0</ele><time>2026-04-01T14:51:51Z</time></trkpt><trkpt lat="45.697324102942645" lon="11.282319077268165"><ele>712.0</ele><time>2026-04-01T14:51:52Z</time></trkpt><trkpt lat="45.697414349215634" lon="11.282350105285946"><ele>711.9999999999999</ele><time>2026-04-01T14:51:53Z</time></trkpt><trkpt lat="45.697484920762456" lon="11.282377864725984"><ele>712.0</ele><time>2026-04-01T14:51:54Z</time></trkpt><trkpt lat="45.6975497404244" lon="11.282425419332881"><ele>712.0</ele><time>2026-04-01T14:51:55Z</time></trkpt><trkpt lat="45.69757987681276" lon="11.282505822604865"><ele>712.0</ele><time>2026-04-01T14:51:56Z</time></trkpt><trkpt lat="45.69758793127799" lon="11.282614878126099"><ele>712.0</ele><time>2026-04-01T14:51:57Z</time></trkpt><trkpt lat="45.697590682146064" lon="11.282712759888673"><ele>711.9999999999999</ele><time>2026-04-01T14:51:58Z</time></trkpt><trkpt lat="45.69758693508393" lon="11.282814358363662"><ele>712.0</ele><time>2026-04-01T14:51:59Z</time></trkpt><trkpt lat="45.69755836408056" lon="11.282942749346745"><ele>712.0</ele><time>2026-04-01T14:52:00Z</time></trkpt><trkpt lat="45.697499374474674" lon="11.282992892688114"><ele>712.0</ele><time>2026-04-01T14:52:01Z</time></trkpt><trkpt lat="45.697429515219106" lon="11.282987152525463"><ele>712.0</ele><time>2026-04-01T14:52:02Z</time></trkpt><trkpt lat="45.69736759478436" lon="11.283022886415242"><ele>712.0</ele><time>2026-04-01T14:52:03Z</time></trkpt><trkpt lat="45.69723482791322" lon="11.283146855295156"><ele>712.0</ele><time>2026-04-01T14:52:05Z</time></trkpt><trkpt lat="45.69723655791486" lon="11.28327388190848"><ele>713.0</ele><time>2026-04-01T14:52:06Z</time></trkpt><trkpt lat="45.69720891321705" lon="11.283408898731984"><ele>714.0</ele><time>2026-04-01T14:52:07Z</time></trkpt><trkpt lat="45.69718946290136" lon="11.283544425649344"><ele>715.0</ele><time>2026-04-01T14:52:08Z</time></trkpt><trkpt lat="45.69719594523373" lon="11.283648515931896"><ele>716.0</ele><time>2026-04-01T14:52:09Z</time></trkpt><trkpt lat="45.69720792462318" lon="11.283738048102366"><ele>717.0</ele><time>2026-04-01T14:52:10Z</time></trkpt><trkpt lat="45.697281265495455" lon="11.283917509424349"><ele>719.75</ele><time>2026-04-01T14:52:12Z</time></trkpt><trkpt lat="45.697343879670704" lon="11.284018761896982"><ele>722.5</ele><time>2026-04-01T14:52:13Z</time></trkpt><trkpt lat="45.697429119825685" lon="11.284148342668038"><ele>725.25</ele><time>2026-04-01T14:52:14Z</time></trkpt><trkpt lat="45.69751562254014" lon="11.284269890929158"><ele>728.0</ele><time>2026-04-01T14:52:15Z</time></trkpt><trkpt lat="45.69758979679845" lon="11.28439821849158"><ele>728.0</ele><time>2026-04-01T14:52:16Z</time></trkpt><trkpt lat="45.697625049737624" lon="11.284484012439496"><ele>728.0</ele><time>2026-04-01T14:52:17Z</time></trkpt><trkpt lat="45.69762729630919" lon="11.284665236843392"><ele>728.0</ele><time>2026-04-01T14:52:19Z</time></trkpt><trkpt lat="45.69764073156072" lon="11.284772433872446"><ele>728.0</ele><time>2026-04-01T14:52:20Z</time></trkpt><trkpt lat="45.69763690462625" lon="11.284957321698165"><ele>728.0</ele><time>2026-04-01T14:52:22Z</time></trkpt><trkpt lat="45.697631897170574" lon="11.285060630475703"><ele>729.25</ele><time>2026-04-01T14:52:23Z</time></trkpt><trkpt lat="45.69763253950149" lon="11.285163761662776"><ele>730.5</ele><time>2026-04-01T14:52:24Z</time></trkpt><trkpt lat="45.6976915033117" lon="11.285448268557067"><ele>731.75</ele><time>2026-04-01T14:52:26Z</time></trkpt><trkpt lat="45.69763737717491" lon="11.285586782272608"><ele>733.0</ele><time>2026-04-01T14:52:27Z</time></trkpt><trkpt lat="45.69746162139271" lon="11.285667257174447"><ele>735.6666666666667</ele><time>2026-04-01T14:52:28Z</time></trkpt><trkpt lat="45.697338818225255" lon="11.2856382684696"><ele>738.3333333333334</ele><time>2026-04-01T14:52:29Z</time></trkpt><trkpt lat="45.697270225362466" lon="11.285620889598789"><ele>741.0</ele><time>2026-04-01T14:52:30Z</time></trkpt><trkpt lat="45.697183480173706" lon="11.285602385885369"><ele>743.6666666666666</ele><time>2026-04-01T14:52:31Z</time></trkpt><trkpt lat="45.6970935296819" lon="11.285600576617744"><ele>746.3333333333333</ele><time>2026-04-01T14:52:32Z</time></trkpt><trkpt lat="45.697024740584375" lon="11.28560057661712"><ele>749.0</ele><time>2026-04-01T14:52:33Z</time></trkpt><trkpt lat="45.69695994295254" lon="11.285661614133211"><ele>746.0</ele><time>2026-04-01T14:52:35Z</time></trkpt><trkpt lat="45.69686609430883" lon="11.285745473055295"><ele>743.0</ele><time>2026-04-01T14:52:37Z</time></trkpt><trkpt lat="45.69679075257693" lon="11.285847741924368"><ele>740.0</ele><time>2026-04-01T14:52:39Z</time></trkpt><trkpt lat="45.69674604076861" lon="11.285942221329258"><ele>737.0</ele><time>2026-04-01T14:52:41Z</time></trkpt><trkpt lat="45.69635648358546" lon="11.285987077263812"><ele>737.0</ele><time>2026-04-01T14:52:43Z</time></trkpt><trkpt lat="45.69628212310221" lon="11.285901925445097"><ele>737.0</ele><time>2026-04-01T14:52:44Z</time></trkpt><trkpt lat="45.69621191781573" lon="11.28583207394917"><ele>737.0</ele><time>2026-04-01T14:52:45Z</time></trkpt><trkpt lat="45.69614294113702" lon="11.285768451630554"><ele>737.0</ele><time>2026-04-01T14:52:46Z</time></trkpt><trkpt lat="45.6960905878816" lon="11.285716066570954"><ele>737.0</ele><time>2026-04-01T14:52:47Z</time></trkpt><trkpt lat="45.69602698613136" lon="11.28565242368267"><ele>737.0</ele><time>2026-04-01T14:52:48Z</time></trkpt><trkpt lat="45.695954900485546" lon="11.285580293191392"><ele>730.5</ele><time>2026-04-01T14:52:49Z</time></trkpt><trkpt lat="45.69582892890881" lon="11.285473819018726"><ele>724.0</ele><time>2026-04-01T14:52:51Z</time></trkpt><trkpt lat="45.69570580769967" lon="11.285386766970179"><ele>717.5</ele><time>2026-04-01T14:52:53Z</time></trkpt><trkpt lat="45.69563246766235" lon="11.285335876318793"><ele>711.0</ele><time>2026-04-01T14:52:54Z</time></trkpt><trkpt lat="45.695554511498116" lon="11.28528251866242"><ele>711.0</ele><time>2026-04-01T14:52:55Z</time></trkpt><trkpt lat="45.69548738551055" lon="11.285242449558655"><ele>711.0</ele><time>2026-04-01T14:52:56Z</time></trkpt><trkpt lat="45.69541589956077" lon="11.285198134586041"><ele>711.0</ele><time>2026-04-01T14:52:57Z</time></trkpt><trkpt lat="45.69534286622823" lon="11.285160165243349"><ele>711.0</ele><time>2026-04-01T14:52:58Z</time></trkpt><trkpt lat="45.69523905026295" lon="11.285113183131243"><ele>711.0</ele><time>2026-04-01T14:53:00Z</time></trkpt><trkpt lat="45.695159394856965" lon="11.285091295001942"><ele>711.0</ele><time>2026-04-01T14:53:02Z</time></trkpt><trkpt lat="45.69507984788945" lon="11.285084843062762"><ele>713.0</ele><time>2026-04-01T14:53:03Z</time></trkpt><trkpt lat="45.695001935931685" lon="11.285085367886033"><ele>715.0</ele><time>2026-04-01T14:53:04Z</time></trkpt><trkpt lat="45.69492124481032" lon="11.285098569790472"><ele>717.0</ele><time>2026-04-01T14:53:05Z</time></trkpt><trkpt lat="45.69482612048037" lon="11.285118332925952"><ele>719.0</ele><time>2026-04-01T14:53:06Z</time></trkpt><trkpt lat="45.69471723428815" lon="11.285130662779395"><ele>721.0</ele><time>2026-04-01T14:53:07Z</time></trkpt><trkpt lat="45.694605819057436" lon="11.285141658556151"><ele>721.0</ele><time>2026-04-01T14:53:08Z</time></trkpt><trkpt lat="45.694479796465664" lon="11.285154549128581"><ele>721.0</ele><time>2026-04-01T14:53:09Z</time></trkpt><trkpt lat="45.69436124671094" lon="11.285219795372523"><ele>721.0</ele><time>2026-04-01T14:53:11Z</time></trkpt><trkpt lat="45.69428399134182" lon="11.285227723785109"><ele>721.0</ele><time>2026-04-01T14:53:12Z</time></trkpt><trkpt lat="45.694203444208554" lon="11.285233430554142"><ele>721.0</ele><time>2026-04-01T14:53:13Z</time></trkpt><trkpt lat="45.69398620865463" lon="11.284472639041796"><ele>718.3333333333334</ele><time>2026-04-01T14:53:14Z</time></trkpt><trkpt lat="45.6939189564573" lon="11.284461667740837"><ele>715.6666666666667</ele><time>2026-04-01T14:53:15Z</time></trkpt><trkpt lat="45.69383044487253" lon="11.284536463252458"><ele>713.0</ele><time>2026-04-01T14:53:17Z</time></trkpt><trkpt lat="45.69381422364639" lon="11.284628683378548"><ele>710.3333333333334</ele><time>2026-04-01T14:53:18Z</time></trkpt><trkpt lat="45.69383494004002" lon="11.284751632292878"><ele>707.6666666666666</ele><time>2026-04-01T14:53:19Z</time></trkpt><trkpt lat="45.693866621803586" lon="11.284910873691192"><ele>705.0</ele><time>2026-04-01T14:53:20Z</time></trkpt><trkpt lat="45.6939003558195" lon="11.285070597365113"><ele>705.0</ele><time>2026-04-01T14:53:21Z</time></trkpt><trkpt lat="45.69392076468012" lon="11.285197342218034"><ele>705.0</ele><time>2026-04-01T14:53:22Z</time></trkpt><trkpt lat="45.693936564962485" lon="11.285319732334665"><ele>705.0</ele><time>2026-04-01T14:53:23Z</time></trkpt><trkpt lat="45.69395459189174" lon="11.285436502587604"><ele>705.0</ele><time>2026-04-01T14:53:24Z</time></trkpt><trkpt lat="45.693989944492344" lon="11.28553700460311"><ele>705.0</ele><time>2026-04-01T14:53:25Z</time></trkpt><trkpt lat="45.69403161403138" lon="11.285651906324953"><ele>705.0</ele><time>2026-04-01T14:53:26Z</time></trkpt><trkpt lat="45.69405105094389" lon="11.285789657198682"><ele>705.6666666666666</ele><time>2026-04-01T14:53:27Z</time></trkpt><trkpt lat="45.69405731883216" lon="11.285924805535789"><ele>706.3333333333334</ele><time>2026-04-01T14:53:28Z</time></trkpt><trkpt lat="45.694043692991166" lon="11.286052702372263"><ele>707.0</ele><time>2026-04-01T14:53:29Z</time></trkpt><trkpt lat="45.694031982003565" lon="11.28616269370649"><ele>707.6666666666667</ele><time>2026-04-01T14:53:30Z</time></trkpt><trkpt lat="45.69399054060911" lon="11.286258948400272"><ele>708.3333333333334</ele><time>2026-04-01T14:53:31Z</time></trkpt><trkpt lat="45.693942603195715" lon="11.286332963894566"><ele>709.0</ele><time>2026-04-01T14:53:32Z</time></trkpt><trkpt lat="45.69388179919816" lon="11.286381970015194"><ele>709.0</ele><time>2026-04-01T14:53:33Z</time></trkpt><trkpt lat="45.69381855239599" lon="11.28639870621922"><ele>709.0</ele><time>2026-04-01T14:53:34Z</time></trkpt><trkpt lat="45.69374784090823" lon="11.28639286073341"><ele>709.0</ele><time>2026-04-01T14:53:35Z</time></trkpt><trkpt lat="45.69364982152663" lon="11.286369579110797"><ele>709.0</ele><time>2026-04-01T14:53:36Z</time></trkpt><trkpt lat="45.69354960334775" lon="11.286382851032096"><ele>709.0</ele><time>2026-04-01T14:53:37Z</time></trkpt><trkpt lat="45.6934697747227" lon="11.286370442355693"><ele>709.0</ele><time>2026-04-01T14:53:38Z</time></trkpt><trkpt lat="45.69341065318629" lon="11.286325646983995"><ele>703.3333333333334</ele><time>2026-04-01T14:53:39Z</time></trkpt><trkpt lat="45.69334552148829" lon="11.28627099539765"><ele>697.6666666666667</ele><time>2026-04-01T14:53:40Z</time></trkpt><trkpt lat="45.69324731696077" lon="11.28622099285369"><ele>692.0</ele><time>2026-04-01T14:53:41Z</time></trkpt><trkpt lat="45.69315888686543" lon="11.286189798163235"><ele>686.3333333333334</ele><time>2026-04-01T14:53:42Z</time></trkpt><trkpt lat="45.69309498599195" lon="11.286167045581319"><ele>680.6666666666666</ele><time>2026-04-01T14:53:43Z</time></trkpt><trkpt lat="45.69302897243585" lon="11.286172505878264"><ele>675.0</ele><time>2026-04-01T14:53:44Z</time></trkpt><trkpt lat="45.69295000840974" lon="11.28617789222567"><ele>675.0</ele><time>2026-04-01T14:53:45Z</time></trkpt><trkpt lat="45.69286970205224" lon="11.28620417538925"><ele>675.0</ele><time>2026-04-01T14:53:46Z</time></trkpt><trkpt lat="45.692805275707606" lon="11.286191421787036"><ele>675.0</ele><time>2026-04-01T14:53:47Z</time></trkpt><trkpt lat="45.692741421149506" lon="11.286076692888248"><ele>675.0</ele><time>2026-04-01T14:53:49Z</time></trkpt><trkpt lat="45.69271437687547" lon="11.285987123771102"><ele>675.0</ele><time>2026-04-01T14:53:50Z</time></trkpt><trkpt lat="45.692670889431724" lon="11.28587876121698"><ele>675.0</ele><time>2026-04-01T14:53:51Z</time></trkpt><trkpt lat="45.69263046483731" lon="11.285802324664235"><ele>675.6666666666666</ele><time>2026-04-01T14:53:52Z</time></trkpt><trkpt lat="45.69256438996395" lon="11.285763346749684"><ele>676.3333333333334</ele><time>2026-04-01T14:53:53Z</time></trkpt><trkpt lat="45.69248736851964" lon="11.285709216846934"><ele>677.0</ele><time>2026-04-01T14:53:54Z</time></trkpt><trkpt lat="45.69241622376962" lon="11.285647730888583"><ele>677.6666666666667</ele><time>2026-04-01T14:53:55Z</time></trkpt><trkpt lat="45.69235504091139" lon="11.285567177217304"><ele>678.3333333333334</ele><time>2026-04-01T14:53:56Z</time></trkpt><trkpt lat="45.692306798320516" lon="11.285500374792324"><ele>679.0</ele><time>2026-04-01T14:53:57Z</time></trkpt><trkpt lat="45.692243784807204" lon="11.285448491505255"><ele>677.2</ele><time>2026-04-01T14:53:58Z</time></trkpt><trkpt lat="45.692174403233594" lon="11.285411136895657"><ele>675.4000000000001</ele><time>2026-04-01T14:53:59Z</time></trkpt><trkpt lat="45.69211316317011" lon="11.285343842291187"><ele>673.6</ele><time>2026-04-01T14:54:00Z</time></trkpt><trkpt lat="45.692041681082294" lon="11.285212757365297"><ele>671.8</ele><time>2026-04-01T14:54:02Z</time></trkpt><trkpt lat="45.69193838335026" lon="11.285198350963391"><ele>670.0</ele><time>2026-04-01T14:54:04Z</time></trkpt><trkpt lat="45.69183013044322" lon="11.285262624260525"><ele>670.0</ele><time>2026-04-01T14:54:06Z</time></trkpt><trkpt lat="45.6917557079105" lon="11.285278846121424"><ele>670.0</ele><time>2026-04-01T14:54:07Z</time></trkpt><trkpt lat="45.69169223437049" lon="11.285268401935374"><ele>670.0</ele><time>2026-04-01T14:54:08Z</time></trkpt><trkpt lat="45.69165505777818" lon="11.285179611510143"><ele>670.0</ele><time>2026-04-01T14:54:10Z</time></trkpt><trkpt lat="45.69163874888308" lon="11.28507948815969"><ele>670.0</ele><time>2026-04-01T14:54:11Z</time></trkpt><trkpt lat="45.69162883626133" lon="11.284946934263601"><ele>670.0</ele><time>2026-04-01T14:54:12Z</time></trkpt><trkpt lat="45.691624607013885" lon="11.284828750218338"><ele>664.3333333333334</ele><time>2026-04-01T14:54:13Z</time></trkpt><trkpt lat="45.691586478571686" lon="11.284753576498915"><ele>658.6666666666667</ele><time>2026-04-01T14:54:14Z</time></trkpt><trkpt lat="45.69155778551473" lon="11.284658883122763"><ele>653.0</ele><time>2026-04-01T14:54:15Z</time></trkpt><trkpt lat="45.691516410047" lon="11.284539571006848"><ele>647.3333333333334</ele><time>2026-04-01T14:54:16Z</time></trkpt><trkpt lat="45.69146805119836" lon="11.284452954475626"><ele>641.6666666666666</ele><time>2026-04-01T14:54:17Z</time></trkpt><trkpt lat="45.69142862096542" lon="11.284374609826273"><ele>636.0</ele><time>2026-04-01T14:54:18Z</time></trkpt><trkpt lat="45.691319782502426" lon="11.284311414772496"><ele>636.0</ele><time>2026-04-01T14:54:20Z</time></trkpt><trkpt lat="45.691229536074616" lon="11.284285859340402"><ele>636.0</ele><time>2026-04-01T14:54:21Z</time></trkpt><trkpt lat="45.69113787353723" lon="11.284256485254888"><ele>636.0</ele><time>2026-04-01T14:54:22Z</time></trkpt><trkpt lat="45.6910697432388" lon="11.284260181677544"><ele>636.0</ele><time>2026-04-01T14:54:23Z</time></trkpt><trkpt lat="45.69099217582154" lon="11.28426101923361"><ele>636.0</ele><time>2026-04-01T14:54:24Z</time></trkpt><trkpt lat="45.69090358289552" lon="11.284119223445858"><ele>633.8333333333334</ele><time>2026-04-01T14:54:26Z</time></trkpt><trkpt lat="45.69086069064966" lon="11.28402334490096"><ele>631.6666666666666</ele><time>2026-04-01T14:54:27Z</time></trkpt><trkpt lat="45.690803421761515" lon="11.283967376650745"><ele>629.5</ele><time>2026-04-01T14:54:28Z</time></trkpt><trkpt lat="45.69074143632185" lon="11.283936237781031"><ele>627.3333333333333</ele><time>2026-04-01T14:54:29Z</time></trkpt><trkpt lat="45.69066952507193" lon="11.283926076152444"><ele>625.1666666666666</ele><time>2026-04-01T14:54:30Z</time></trkpt><trkpt lat="45.69056382566279" lon="11.283954168879921"><ele>623.0</ele><time>2026-04-01T14:54:31Z</time></trkpt><trkpt lat="45.69045681064132" lon="11.28395358358762"><ele>623.0</ele><time>2026-04-01T14:54:32Z</time></trkpt><trkpt lat="45.69038414757187" lon="11.283920399461609"><ele>623.0</ele><time>2026-04-01T14:54:33Z</time></trkpt><trkpt lat="45.69030209392192" lon="11.283842732031559"><ele>623.0</ele><time>2026-04-01T14:54:34Z</time></trkpt><trkpt lat="45.690231813225665" lon="11.283767793271071"><ele>623.0</ele><time>2026-04-01T14:54:35Z</time></trkpt><trkpt lat="45.69015691395681" lon="11.283702275910297"><ele>623.0</ele><time>2026-04-01T14:54:36Z</time></trkpt><trkpt lat="45.69007455393935" lon="11.283591466471727"><ele>626.0</ele><time>2026-04-01T14:54:37Z</time></trkpt><trkpt lat="45.689995361373875" lon="11.283492567304178"><ele>629.0</ele><time>2026-04-01T14:54:38Z</time></trkpt><trkpt lat="45.6899275944102" lon="11.283405537823732"><ele>632.0</ele><time>2026-04-01T14:54:39Z</time></trkpt><trkpt lat="45.68985403684213" lon="11.28333636806206"><ele>635.0</ele><time>2026-04-01T14:54:40Z</time></trkpt><trkpt lat="45.68977586521834" lon="11.283269778960387"><ele>638.0</ele><time>2026-04-01T14:54:41Z</time></trkpt><trkpt lat="45.68971044359325" lon="11.283237109588928"><ele>641.0</ele><time>2026-04-01T14:54:42Z</time></trkpt><trkpt lat="45.68964492996304" lon="11.28321393467732"><ele>641.0</ele><time>2026-04-01T14:54:43Z</time></trkpt><trkpt lat="45.689570768878156" lon="11.283186623606277"><ele>641.0</ele><time>2026-04-01T14:54:44Z</time></trkpt><trkpt lat="45.68950478704583" lon="11.283109936682797"><ele>641.0</ele><time>2026-04-01T14:54:45Z</time></trkpt><trkpt lat="45.689449592133" lon="11.283043759394907"><ele>641.0</ele><time>2026-04-01T14:54:46Z</time></trkpt><trkpt lat="45.68936758414087" lon="11.282981477729749"><ele>641.0</ele><time>2026-04-01T14:54:47Z</time></trkpt><trkpt lat="45.689281814060024" lon="11.282939177578971"><ele>641.0</ele><time>2026-04-01T14:54:48Z</time></trkpt><trkpt lat="45.689181644824735" lon="11.282886295142566"><ele>639.1666666666666</ele><time>2026-04-01T14:54:49Z</time></trkpt><trkpt lat="45.689128101173054" lon="11.282832568275872"><ele>637.3333333333333</ele><time>2026-04-01T14:54:50Z</time></trkpt><trkpt lat="45.68907635532116" lon="11.282756081805521"><ele>635.5</ele><time>2026-04-01T14:54:51Z</time></trkpt><trkpt lat="45.68904692226043" lon="11.282602439706316"><ele>633.6666666666666</ele><time>2026-04-01T14:54:53Z</time></trkpt><trkpt lat="45.68904509805481" lon="11.282486179733723"><ele>631.8333333333334</ele><time>2026-04-01T14:54:54Z</time></trkpt><trkpt lat="45.68903181403098" lon="11.282358279685765"><ele>630.0</ele><time>2026-04-01T14:54:55Z</time></trkpt><trkpt lat="45.689027246257105" lon="11.282236773992299"><ele>629.6666666666666</ele><time>2026-04-01T14:54:56Z</time></trkpt><trkpt lat="45.688994059223916" lon="11.282115245621677"><ele>629.3333333333334</ele><time>2026-04-01T14:54:57Z</time></trkpt><trkpt lat="45.68895395640666" lon="11.282033891435525"><ele>629.0</ele><time>2026-04-01T14:54:58Z</time></trkpt><trkpt lat="45.688870063543376" lon="11.28198604800232"><ele>628.6666666666667</ele><time>2026-04-01T14:55:00Z</time></trkpt><trkpt lat="45.68878013724104" lon="11.28199380806246"><ele>628.3333333333334</ele><time>2026-04-01T14:55:02Z</time></trkpt><trkpt lat="45.68870872930244" lon="11.282050198214959"><ele>628.0</ele><time>2026-04-01T14:55:03Z</time></trkpt><trkpt lat="45.6885788810775" lon="11.28200153393197"><ele>628.0</ele><time>2026-04-01T14:55:05Z</time></trkpt><trkpt lat="45.68852825593941" lon="11.281931002673641"><ele>628.0</ele><time>2026-04-01T14:55:06Z</time></trkpt><trkpt lat="45.68846568277474" lon="11.281805780214942"><ele>628.0</ele><time>2026-04-01T14:55:07Z</time></trkpt><trkpt lat="45.68841056874443" lon="11.28169689016005"><ele>628.0</ele><time>2026-04-01T14:55:08Z</time></trkpt><trkpt lat="45.68833236790484" lon="11.281602516199545"><ele>628.0</ele><time>2026-04-01T14:55:09Z</time></trkpt><trkpt lat="45.688245733783006" lon="11.281506529299554"><ele>622.1666666666667</ele><time>2026-04-01T14:55:10Z</time></trkpt><trkpt lat="45.68816280194465" lon="11.281405760687935"><ele>616.3333333333334</ele><time>2026-04-01T14:55:11Z</time></trkpt><trkpt lat="45.68809560012653" lon="11.28133096394486"><ele>610.5</ele><time>2026-04-01T14:55:12Z</time></trkpt><trkpt lat="45.688037324702286" lon="11.281249482540808"><ele>604.6666666666666</ele><time>2026-04-01T14:55:13Z</time></trkpt><trkpt lat="45.68795519532813" lon="11.281187638523859"><ele>598.8333333333333</ele><time>2026-04-01T14:55:15Z</time></trkpt><trkpt lat="45.68789143545235" lon="11.2811979979902"><ele>593.0</ele><time>2026-04-01T14:55:16Z</time></trkpt><trkpt lat="45.68779821315472" lon="11.281189247859722"><ele>598.8333333333333</ele><time>2026-04-01T14:55:17Z</time></trkpt><trkpt lat="45.687741351030915" lon="11.281143449064313"><ele>604.6666666666666</ele><time>2026-04-01T14:55:18Z</time></trkpt><trkpt lat="45.68768873322787" lon="11.280989645179059"><ele>610.5</ele><time>2026-04-01T14:55:20Z</time></trkpt><trkpt lat="45.68766227248694" lon="11.280875908294853"><ele>616.3333333333334</ele><time>2026-04-01T14:55:21Z</time></trkpt><trkpt lat="45.68762395483346" lon="11.280789075672331"><ele>622.1666666666667</ele><time>2026-04-01T14:55:22Z</time></trkpt><trkpt lat="45.687549225932074" lon="11.280676297007417"><ele>628.0</ele><time>2026-04-01T14:55:24Z</time></trkpt><trkpt lat="45.687481422158896" lon="11.280636910883317"><ele>621.5</ele><time>2026-04-01T14:55:25Z</time></trkpt><trkpt lat="45.68736957389281" lon="11.280572303536339"><ele>615.0</ele><time>2026-04-01T14:55:26Z</time></trkpt><trkpt lat="45.687289937459056" lon="11.2805287528043"><ele>608.5</ele><time>2026-04-01T14:55:27Z</time></trkpt><trkpt lat="45.68721310595254" lon="11.280466038145306"><ele>602.0</ele><time>2026-04-01T14:55:28Z</time></trkpt><trkpt lat="45.6871588237448" lon="11.280383842530382"><ele>595.5</ele><time>2026-04-01T14:55:29Z</time></trkpt><trkpt lat="45.687128522020224" lon="11.280285043186218"><ele>589.0</ele><time>2026-04-01T14:55:30Z</time></trkpt><trkpt lat="45.68705443856282" lon="11.280141499813"><ele>589.0</ele><time>2026-04-01T14:55:31Z</time></trkpt><trkpt lat="45.68698540472112" lon="11.28002155430415"><ele>589.0</ele><time>2026-04-01T14:55:32Z</time></trkpt><trkpt lat="45.686918046379716" lon="11.279938051683043"><ele>589.0</ele><time>2026-04-01T14:55:33Z</time></trkpt><trkpt lat="45.68682388942137" lon="11.279836419653826"><ele>589.0</ele><time>2026-04-01T14:55:34Z</time></trkpt><trkpt lat="45.686741472269" lon="11.279725410957823"><ele>589.0</ele><time>2026-04-01T14:55:35Z</time></trkpt><trkpt lat="45.686663976434666" lon="11.27962085802783"><ele>590.4</ele><time>2026-04-01T14:55:36Z</time></trkpt><trkpt lat="45.68660044871651" lon="11.27950468927736"><ele>591.8</ele><time>2026-04-01T14:55:37Z</time></trkpt><trkpt lat="45.68653914930517" lon="11.279382683076223"><ele>593.2</ele><time>2026-04-01T14:55:38Z</time></trkpt><trkpt lat="45.68648766168663" lon="11.279253622802644"><ele>594.6</ele><time>2026-04-01T14:55:39Z</time></trkpt><trkpt lat="45.686442986954376" lon="11.279122261771612"><ele>596.0</ele><time>2026-04-01T14:55:40Z</time></trkpt><trkpt lat="45.68642217342978" lon="11.279030902451955"><ele>596.2</ele><time>2026-04-01T14:55:41Z</time></trkpt><trkpt lat="45.686385541248015" lon="11.27891378995651"><ele>596.4000000000001</ele><time>2026-04-01T14:55:42Z</time></trkpt><trkpt lat="45.68635057911638" lon="11.27883060769126"><ele>596.6</ele><time>2026-04-01T14:55:43Z</time></trkpt><trkpt lat="45.68628718960728" lon="11.27875370333312"><ele>596.8000000000001</ele><time>2026-04-01T14:55:44Z</time></trkpt><trkpt lat="45.68620079088498" lon="11.278690766104988"><ele>597.0</ele><time>2026-04-01T14:55:45Z</time></trkpt><trkpt lat="45.686090324893605" lon="11.27861799099368"><ele>597.0</ele><time>2026-04-01T14:55:46Z</time></trkpt><trkpt lat="45.68599029631149" lon="11.2785498738421"><ele>597.0</ele><time>2026-04-01T14:55:47Z</time></trkpt><trkpt lat="45.68590648374647" lon="11.27847419837126"><ele>597.0</ele><time>2026-04-01T14:55:48Z</time></trkpt><trkpt lat="45.685832755416214" lon="11.27840690263448"><ele>597.0</ele><time>2026-04-01T14:55:49Z</time></trkpt><trkpt lat="45.68576205862682" lon="11.27830240664283"><ele>597.0</ele><time>2026-04-01T14:55:50Z</time></trkpt><trkpt lat="45.685711399434176" lon="11.278214365983649"><ele>597.0</ele><time>2026-04-01T14:55:51Z</time></trkpt><trkpt lat="45.68565589793135" lon="11.278150315638744"><ele>597.0</ele><time>2026-04-01T14:55:52Z</time></trkpt><trkpt lat="45.685573187811436" lon="11.278102885271407"><ele>597.0</ele><time>2026-04-01T14:55:53Z</time></trkpt><trkpt lat="45.68546483566842" lon="11.278067590915406"><ele>597.0</ele><time>2026-04-01T14:55:54Z</time></trkpt><trkpt lat="45.68540267444422" lon="11.27801800162403"><ele>597.0</ele><time>2026-04-01T14:55:55Z</time></trkpt><trkpt lat="45.68535927928685" lon="11.277939055162971"><ele>597.0</ele><time>2026-04-01T14:55:56Z</time></trkpt><trkpt lat="45.68530579480221" lon="11.277852085475061"><ele>596.2</ele><time>2026-04-01T14:55:57Z</time></trkpt><trkpt lat="45.6852860056021" lon="11.277722995917012"><ele>595.4000000000001</ele><time>2026-04-01T14:55:58Z</time></trkpt><trkpt lat="45.68524450040249" lon="11.277600865471507"><ele>594.5999999999999</ele><time>2026-04-01T14:55:59Z</time></trkpt><trkpt lat="45.685185318480734" lon="11.277541896101242"><ele>593.8</ele><time>2026-04-01T14:56:00Z</time></trkpt><trkpt lat="45.685095243335184" lon="11.277508025141845"><ele>593.0</ele><time>2026-04-01T14:56:01Z</time></trkpt><trkpt lat="45.684991484511414" lon="11.277468159809118"><ele>593.0</ele><time>2026-04-01T14:56:02Z</time></trkpt><trkpt lat="45.68488146536362" lon="11.277399055092479"><ele>593.0</ele><time>2026-04-01T14:56:03Z</time></trkpt><trkpt lat="45.684758296640894" lon="11.277321295831547"><ele>593.0</ele><time>2026-04-01T14:56:04Z</time></trkpt><trkpt lat="45.68465925567306" lon="11.277252004411821"><ele>593.0</ele><time>2026-04-01T14:56:05Z</time></trkpt><trkpt lat="45.684579982977084" lon="11.27719186082901"><ele>587.1999999999999</ele><time>2026-04-01T14:56:06Z</time></trkpt><trkpt lat="45.68450879367201" lon="11.277128979394353"><ele>581.4</ele><time>2026-04-01T14:56:07Z</time></trkpt><trkpt lat="45.6844362698217" lon="11.27708813011303"><ele>575.5999999999999</ele><time>2026-04-01T14:56:08Z</time></trkpt><trkpt lat="45.68432678502172" lon="11.277075264223521"><ele>569.8</ele><time>2026-04-01T14:56:10Z</time></trkpt><trkpt lat="45.6842245102252" lon="11.277149504802853"><ele>564.0</ele><time>2026-04-01T14:56:12Z</time></trkpt><trkpt lat="45.684131406190595" lon="11.277199759684999"><ele>564.0</ele><time>2026-04-01T14:56:13Z</time></trkpt><trkpt lat="45.68404514636711" lon="11.2772016650658"><ele>564.0</ele><time>2026-04-01T14:56:14Z</time></trkpt><trkpt lat="45.683941252377146" lon="11.27717147674466"><ele>564.0</ele><time>2026-04-01T14:56:15Z</time></trkpt><trkpt lat="45.683841633264905" lon="11.277139606934178"><ele>564.0</ele><time>2026-04-01T14:56:16Z</time></trkpt><trkpt lat="45.68377773856929" lon="11.277110783317566"><ele>564.0</ele><time>2026-04-01T14:56:17Z</time></trkpt><trkpt lat="45.683654653098834" lon="11.277111643324092"><ele>565.0</ele><time>2026-04-01T14:56:19Z</time></trkpt><trkpt lat="45.68354464484175" lon="11.277196440521978"><ele>566.0</ele><time>2026-04-01T14:56:21Z</time></trkpt><trkpt lat="45.68346811170452" lon="11.277264616680649"><ele>567.0</ele><time>2026-04-01T14:56:22Z</time></trkpt><trkpt lat="45.68334305687457" lon="11.277276072819712"><ele>568.0</ele><time>2026-04-01T14:56:24Z</time></trkpt><trkpt lat="45.68324717554347" lon="11.277245319432517"><ele>569.0</ele><time>2026-04-01T14:56:25Z</time></trkpt><trkpt lat="45.68314679306475" lon="11.27720595848196"><ele>569.0</ele><time>2026-04-01T14:56:26Z</time></trkpt><trkpt lat="45.68307622143629" lon="11.277157722827063"><ele>569.0</ele><time>2026-04-01T14:56:27Z</time></trkpt><trkpt lat="45.68297812198894" lon="11.277167535794819"><ele>569.0</ele><time>2026-04-01T14:56:29Z</time></trkpt><trkpt lat="45.68290112235085" lon="11.277192000167206"><ele>569.0</ele><time>2026-04-01T14:56:30Z</time></trkpt><trkpt lat="45.6828078951436" lon="11.277198670095133"><ele>569.0</ele><time>2026-04-01T14:56:31Z</time></trkpt><trkpt lat="45.68271326319759" lon="11.27717080857222"><ele>569.0</ele><time>2026-04-01T14:56:32Z</time></trkpt><trkpt lat="45.68259528458972" lon="11.277115285204523"><ele>571.6</ele><time>2026-04-01T14:56:33Z</time></trkpt><trkpt lat="45.68250310942068" lon="11.277097195635946"><ele>574.2</ele><time>2026-04-01T14:56:34Z</time></trkpt><trkpt lat="45.68242742600863" lon="11.277107007340158"><ele>576.8000000000001</ele><time>2026-04-01T14:56:35Z</time></trkpt><trkpt lat="45.68233428327243" lon="11.277146661305204"><ele>579.4</ele><time>2026-04-01T14:56:36Z</time></trkpt><trkpt lat="45.682223452601896" lon="11.277189782352353"><ele>582.0</ele><time>2026-04-01T14:56:37Z</time></trkpt><trkpt lat="45.68210904499942" lon="11.277208507608453"><ele>582.0</ele><time>2026-04-01T14:56:38Z</time></trkpt><trkpt lat="45.6819947107358" lon="11.277187961883222"><ele>582.0</ele><time>2026-04-01T14:56:39Z</time></trkpt><trkpt lat="45.681907536753016" lon="11.277171610223178"><ele>582.0</ele><time>2026-04-01T14:56:40Z</time></trkpt><trkpt lat="45.68179443252974" lon="11.27715773663963"><ele>582.0</ele><time>2026-04-01T14:56:41Z</time></trkpt><trkpt lat="45.68168415743776" lon="11.277159184371984"><ele>582.0</ele><time>2026-04-01T14:56:42Z</time></trkpt><trkpt lat="45.681589850366215" lon="11.277141565779324"><ele>582.8333333333334</ele><time>2026-04-01T14:56:43Z</time></trkpt><trkpt lat="45.68152431031024" lon="11.27712687430584"><ele>583.6666666666666</ele><time>2026-04-01T14:56:44Z</time></trkpt><trkpt lat="45.681427722059716" lon="11.277183907219802"><ele>584.5</ele><time>2026-04-01T14:56:46Z</time></trkpt><trkpt lat="45.68138512132607" lon="11.277267628763457"><ele>585.3333333333333</ele><time>2026-04-01T14:56:47Z</time></trkpt><trkpt lat="45.68131878910757" lon="11.277388547215484"><ele>586.1666666666666</ele><time>2026-04-01T14:56:48Z</time></trkpt><trkpt lat="45.681267081748835" lon="11.277469996665165"><ele>587.0</ele><time>2026-04-01T14:56:49Z</time></trkpt><trkpt lat="45.68120433482947" lon="11.277525887217653"><ele>591.0</ele><time>2026-04-01T14:56:50Z</time></trkpt><trkpt lat="45.681103260996515" lon="11.277556022543124"><ele>595.0</ele><time>2026-04-01T14:56:52Z</time></trkpt><trkpt lat="45.68101951735538" lon="11.277630570051386"><ele>599.0</ele><time>2026-04-01T14:56:54Z</time></trkpt><trkpt lat="45.68098257552611" lon="11.277716379290185"><ele>603.0</ele><time>2026-04-01T14:56:55Z</time></trkpt><trkpt lat="45.68094950620432" lon="11.27785272748099"><ele>607.0</ele><time>2026-04-01T14:56:56Z</time></trkpt><trkpt lat="45.68089466924122" lon="11.277968387439818"><ele>607.0</ele><time>2026-04-01T14:56:57Z</time></trkpt><trkpt lat="45.6808537325904" lon="11.278041580294099"><ele>607.0</ele><time>2026-04-01T14:56:58Z</time></trkpt><trkpt lat="45.680769989952545" lon="11.27814167065919"><ele>607.0</ele><time>2026-04-01T14:56:59Z</time></trkpt><trkpt lat="45.68067111416871" lon="11.278261549612049"><ele>607.0</ele><time>2026-04-01T14:57:00Z</time></trkpt><trkpt lat="45.68056599639556" lon="11.278376761661239"><ele>607.0</ele><time>2026-04-01T14:57:01Z</time></trkpt><trkpt lat="45.68043860100815" lon="11.278517532655528"><ele>607.4</ele><time>2026-04-01T14:57:02Z</time></trkpt><trkpt lat="45.68035957199222" lon="11.278618954991341"><ele>607.8000000000001</ele><time>2026-04-01T14:57:03Z</time></trkpt><trkpt lat="45.68028329238465" lon="11.278682543579018"><ele>608.2</ele><time>2026-04-01T14:57:04Z</time></trkpt><trkpt lat="45.680191155056065" lon="11.278809410241156"><ele>608.6</ele><time>2026-04-01T14:57:06Z</time></trkpt><trkpt lat="45.68015388829249" lon="11.278917238542334"><ele>609.0</ele><time>2026-04-01T14:57:07Z</time></trkpt><trkpt lat="45.68012372140847" lon="11.279026195852705"><ele>612.0</ele><time>2026-04-01T14:57:08Z</time></trkpt><trkpt lat="45.680120351209595" lon="11.27914771721184"><ele>615.0</ele><time>2026-04-01T14:57:09Z</time></trkpt><trkpt lat="45.68015179847811" lon="11.279247425746108"><ele>618.0</ele><time>2026-04-01T14:57:10Z</time></trkpt><trkpt lat="45.6802051627154" lon="11.279325659143808"><ele>621.0</ele><time>2026-04-01T14:57:11Z</time></trkpt><trkpt lat="45.680251662890925" lon="11.279395961968222"><ele>624.0</ele><time>2026-04-01T14:57:12Z</time></trkpt><trkpt lat="45.68032670669222" lon="11.279475220907218"><ele>627.0</ele><time>2026-04-01T14:57:13Z</time></trkpt><trkpt lat="45.68041238817616" lon="11.279570665821385"><ele>630.4000000000001</ele><time>2026-04-01T14:57:14Z</time></trkpt><trkpt lat="45.68049387784543" lon="11.2796725625144"><ele>633.8000000000001</ele><time>2026-04-01T14:57:15Z</time></trkpt><trkpt lat="45.680568663735954" lon="11.279739514594791"><ele>637.2</ele><time>2026-04-01T14:57:16Z</time></trkpt><trkpt lat="45.680665977727045" lon="11.279792772260025"><ele>640.6</ele><time>2026-04-01T14:57:17Z</time></trkpt><trkpt lat="45.68077757322676" lon="11.279847127175078"><ele>644.0</ele><time>2026-04-01T14:57:18Z</time></trkpt><trkpt lat="45.680884729790456" lon="11.2798977525153"><ele>644.0</ele><time>2026-04-01T14:57:19Z</time></trkpt><trkpt lat="45.68098945694408" lon="11.279958157070109"><ele>644.0</ele><time>2026-04-01T14:57:20Z</time></trkpt><trkpt lat="45.68108491954285" lon="11.280010114544647"><ele>644.0</ele><time>2026-04-01T14:57:21Z</time></trkpt><trkpt lat="45.68117278473058" lon="11.280077880403338"><ele>644.0</ele><time>2026-04-01T14:57:22Z</time></trkpt><trkpt lat="45.68127390550144" lon="11.280140790434013"><ele>644.0</ele><time>2026-04-01T14:57:23Z</time></trkpt><trkpt lat="45.68136902222898" lon="11.28021317201563"><ele>645.2</ele><time>2026-04-01T14:57:24Z</time></trkpt><trkpt lat="45.68145757502508" lon="11.280283189245415"><ele>646.4000000000001</ele><time>2026-04-01T14:57:25Z</time></trkpt><trkpt lat="45.68154684543354" lon="11.280356297251002"><ele>647.6</ele><time>2026-04-01T14:57:26Z</time></trkpt><trkpt lat="45.68164438467742" lon="11.280454731736567"><ele>648.8</ele><time>2026-04-01T14:57:27Z</time></trkpt><trkpt lat="45.681740119439674" lon="11.280557889642933"><ele>650.0</ele><time>2026-04-01T14:57:28Z</time></trkpt><trkpt lat="45.68183042185044" lon="11.280671739366921"><ele>650.0</ele><time>2026-04-01T14:57:29Z</time></trkpt><trkpt lat="45.68191561762923" lon="11.280781955070221"><ele>650.0</ele><time>2026-04-01T14:57:30Z</time></trkpt><trkpt lat="45.68199969931769" lon="11.280887258509416"><ele>650.0</ele><time>2026-04-01T14:57:31Z</time></trkpt><trkpt lat="45.68209109992561" lon="11.281001792319945"><ele>650.0</ele><time>2026-04-01T14:57:32Z</time></trkpt><trkpt lat="45.682185116018914" lon="11.281157638915248"><ele>655.25</ele><time>2026-04-01T14:57:33Z</time></trkpt><trkpt lat="45.68227405513583" lon="11.28130874254795"><ele>660.5</ele><time>2026-04-01T14:57:34Z</time></trkpt><trkpt lat="45.68235620849861" lon="11.281429985119193"><ele>665.75</ele><time>2026-04-01T14:57:35Z</time></trkpt><trkpt lat="45.682441044142266" lon="11.28155097574019"><ele>671.0</ele><time>2026-04-01T14:57:36Z</time></trkpt><trkpt lat="45.682531162012026" lon="11.281682245181026"><ele>671.0</ele><time>2026-04-01T14:57:37Z</time></trkpt><trkpt lat="45.6826229186496" lon="11.281823831479192"><ele>671.0</ele><time>2026-04-01T14:57:38Z</time></trkpt><trkpt lat="45.68268939873366" lon="11.281952619417616"><ele>671.0</ele><time>2026-04-01T14:57:39Z</time></trkpt><trkpt lat="45.682741818201734" lon="11.282065154245151"><ele>671.0</ele><time>2026-04-01T14:57:40Z</time></trkpt><trkpt lat="45.682793731641304" lon="11.282207064469992"><ele>677.75</ele><time>2026-04-01T14:57:41Z</time></trkpt><trkpt lat="45.682851978050394" lon="11.282360681413818"><ele>684.5</ele><time>2026-04-01T14:57:42Z</time></trkpt><trkpt lat="45.68290540150035" lon="11.282518678942342"><ele>691.25</ele><time>2026-04-01T14:57:43Z</time></trkpt><trkpt lat="45.68295768518371" lon="11.282684814719547"><ele>698.0</ele><time>2026-04-01T14:57:44Z</time></trkpt><trkpt lat="45.68300958073722" lon="11.282847359695669"><ele>698.0</ele><time>2026-04-01T14:57:45Z</time></trkpt><trkpt lat="45.683054641511504" lon="11.282996926649401"><ele>698.0</ele><time>2026-04-01T14:57:46Z</time></trkpt><trkpt lat="45.68307776852123" lon="11.28313396081713"><ele>698.0</ele><time>2026-04-01T14:57:47Z</time></trkpt><trkpt lat="45.683133310830215" lon="11.283221285182861"><ele>698.0</ele><time>2026-04-01T14:57:48Z</time></trkpt><trkpt lat="45.683203499883724" lon="11.283310988404079"><ele>698.0</ele><time>2026-04-01T14:57:49Z</time></trkpt><trkpt lat="45.68328805876667" lon="11.28340825549444"><ele>696.4</ele><time>2026-04-01T14:57:50Z</time></trkpt><trkpt lat="45.683332054333206" lon="11.283506009677598"><ele>694.8</ele><time>2026-04-01T14:57:51Z</time></trkpt><trkpt lat="45.683313354409904" lon="11.283616471081007"><ele>693.2</ele><time>2026-04-01T14:57:52Z</time></trkpt><trkpt lat="45.68329155372728" lon="11.283753321236546"><ele>691.6</ele><time>2026-04-01T14:57:53Z</time></trkpt><trkpt lat="45.68330140794318" lon="11.283901888828101"><ele>690.0</ele><time>2026-04-01T14:57:54Z</time></trkpt><trkpt lat="45.68329663751672" lon="11.284052340686424"><ele>690.0</ele><time>2026-04-01T14:57:55Z</time></trkpt><trkpt lat="45.68330012495278" lon="11.284215980514658"><ele>690.0</ele><time>2026-04-01T14:57:56Z</time></trkpt><trkpt lat="45.68330903288537" lon="11.28437633782342"><ele>690.0</ele><time>2026-04-01T14:57:57Z</time></trkpt><trkpt lat="45.683309935206914" lon="11.284536634480911"><ele>690.0</ele><time>2026-04-01T14:57:58Z</time></trkpt><trkpt lat="45.683303003238905" lon="11.284679304427108"><ele>690.0</ele><time>2026-04-01T14:57:59Z</time></trkpt><trkpt lat="45.6833001979521" lon="11.28482406365051"><ele>690.0</ele><time>2026-04-01T14:58:00Z</time></trkpt><trkpt lat="45.68331683150421" lon="11.284933954708361"><ele>690.0</ele><time>2026-04-01T14:58:01Z</time></trkpt><trkpt lat="45.68335728685597" lon="11.28505563106266"><ele>690.0</ele><time>2026-04-01T14:58:02Z</time></trkpt><trkpt lat="45.68340989159125" lon="11.285177864854903"><ele>690.0</ele><time>2026-04-01T14:58:03Z</time></trkpt><trkpt lat="45.68346365878261" lon="11.285278066097005"><ele>690.0</ele><time>2026-04-01T14:58:04Z</time></trkpt><trkpt lat="45.68352420063603" lon="11.285395580726783"><ele>690.0</ele><time>2026-04-01T14:58:05Z</time></trkpt><trkpt lat="45.68357183102119" lon="11.285504876405119"><ele>690.0</ele><time>2026-04-01T14:58:06Z</time></trkpt><trkpt lat="45.683584915518495" lon="11.2856322681852"><ele>690.0</ele><time>2026-04-01T14:58:07Z</time></trkpt><trkpt lat="45.68361775638866" lon="11.2857654080504"><ele>690.0</ele><time>2026-04-01T14:58:08Z</time></trkpt><trkpt lat="45.6836261438891" lon="11.285922206717236"><ele>690.0</ele><time>2026-04-01T14:58:09Z</time></trkpt><trkpt lat="45.683633241866836" lon="11.286079245263922"><ele>697.6</ele><time>2026-04-01T14:58:10Z</time></trkpt><trkpt lat="45.683647640135305" lon="11.286223522135463"><ele>705.2</ele><time>2026-04-01T14:58:11Z</time></trkpt><trkpt lat="45.683668375716394" lon="11.286365615155237"><ele>712.8</ele><time>2026-04-01T14:58:12Z</time></trkpt><trkpt lat="45.68368350401909" lon="11.286519642046027"><ele>720.4</ele><time>2026-04-01T14:58:13Z</time></trkpt><trkpt lat="45.68369458168063" lon="11.286654402283128"><ele>728.0</ele><time>2026-04-01T14:58:14Z</time></trkpt><trkpt lat="45.683692089925486" lon="11.286779506315217"><ele>728.0</ele><time>2026-04-01T14:58:15Z</time></trkpt><trkpt lat="45.68370176890213" lon="11.286884542677027"><ele>728.0</ele><time>2026-04-01T14:58:16Z</time></trkpt><trkpt lat="45.6837223805405" lon="11.287010418330679"><ele>728.0</ele><time>2026-04-01T14:58:17Z</time></trkpt><trkpt lat="45.683756442235406" lon="11.287156712149326"><ele>728.0</ele><time>2026-04-01T14:58:18Z</time></trkpt><trkpt lat="45.6837870241162" lon="11.287276262340388"><ele>728.0</ele><time>2026-04-01T14:58:19Z</time></trkpt><trkpt lat="45.68379758215749" lon="11.287433801565445"><ele>727.3333333333333</ele><time>2026-04-01T14:58:20Z</time></trkpt><trkpt lat="45.683812666171356" lon="11.287572585235582"><ele>726.6666666666666</ele><time>2026-04-01T14:58:21Z</time></trkpt><trkpt lat="45.68383290147841" lon="11.287706445125314"><ele>726.0</ele><time>2026-04-01T14:58:22Z</time></trkpt><trkpt lat="45.68386463970597" lon="11.287824818167508"><ele>725.3333333333334</ele><time>2026-04-01T14:58:23Z</time></trkpt><trkpt lat="45.683898159372205" lon="11.28792508912498"><ele>724.6666666666667</ele><time>2026-04-01T14:58:24Z</time></trkpt><trkpt lat="45.68394954148674" lon="11.288004571707187"><ele>724.0</ele><time>2026-04-01T14:58:25Z</time></trkpt><trkpt lat="45.68402699442456" lon="11.288067301752015"><ele>724.0</ele><time>2026-04-01T14:58:26Z</time></trkpt><trkpt lat="45.68409092036687" lon="11.288083354105881"><ele>724.0</ele><time>2026-04-01T14:58:27Z</time></trkpt><trkpt lat="45.68418737792598" lon="11.288119119531485"><ele>724.0</ele><time>2026-04-01T14:58:28Z</time></trkpt><trkpt lat="45.68424873183651" lon="11.288192514395858"><ele>724.0</ele><time>2026-04-01T14:58:29Z</time></trkpt><trkpt lat="45.68428693755305" lon="11.288287119622202"><ele>724.0</ele><time>2026-04-01T14:58:30Z</time></trkpt><trkpt lat="45.68432623946193" lon="11.288387821997006"><ele>724.0</ele><time>2026-04-01T14:58:31Z</time></trkpt><trkpt lat="45.68432554184751" lon="11.288506294455196"><ele>726.0</ele><time>2026-04-01T14:58:32Z</time></trkpt><trkpt lat="45.68436190508985" lon="11.28858371822091"><ele>728.0</ele><time>2026-04-01T14:58:33Z</time></trkpt><trkpt lat="45.684376477020116" lon="11.288690827019186"><ele>730.0</ele><time>2026-04-01T14:58:34Z</time></trkpt><trkpt lat="45.68441662774958" lon="11.28878591787532"><ele>732.0</ele><time>2026-04-01T14:58:35Z</time></trkpt><trkpt lat="45.68447753467548" lon="11.288896584692244"><ele>734.0</ele><time>2026-04-01T14:58:36Z</time></trkpt><trkpt lat="45.68454051219306" lon="11.289009731695504"><ele>736.0</ele><time>2026-04-01T14:58:37Z</time></trkpt><trkpt lat="45.68459261647988" lon="11.289121475873328"><ele>736.0</ele><time>2026-04-01T14:58:38Z</time></trkpt><trkpt lat="45.68463544893573" lon="11.28923186516594"><ele>736.0</ele><time>2026-04-01T14:58:39Z</time></trkpt><trkpt lat="45.68472717229301" lon="11.289412445511642"><ele>736.0</ele><time>2026-04-01T14:58:41Z</time></trkpt><trkpt lat="45.68479946510175" lon="11.289533925296123"><ele>736.0</ele><time>2026-04-01T14:58:42Z</time></trkpt><trkpt lat="45.6848815382159" lon="11.289631325241794"><ele>736.0</ele><time>2026-04-01T14:58:43Z</time></trkpt><trkpt lat="45.684973386083186" lon="11.289715762741748"><ele>736.0</ele><time>2026-04-01T14:58:44Z</time></trkpt><trkpt lat="45.685058255555816" lon="11.289790790067078"><ele>736.0</ele><time>2026-04-01T14:58:45Z</time></trkpt><trkpt lat="45.685148515235355" lon="11.289875579870142"><ele>736.0</ele><time>2026-04-01T14:58:46Z</time></trkpt><trkpt lat="45.68524324108278" lon="11.28996344079475"><ele>736.0</ele><time>2026-04-01T14:58:47Z</time></trkpt><trkpt lat="45.685339652053315" lon="11.290059235729592"><ele>739.0</ele><time>2026-04-01T14:58:48Z</time></trkpt><trkpt lat="45.685433178759645" lon="11.290183994736019"><ele>742.0</ele><time>2026-04-01T14:58:49Z</time></trkpt><trkpt lat="45.68553366162354" lon="11.290284728480227"><ele>745.0</ele><time>2026-04-01T14:58:50Z</time></trkpt><trkpt lat="45.685608715591705" lon="11.290405067851536"><ele>748.0</ele><time>2026-04-01T14:58:51Z</time></trkpt><trkpt lat="45.68566854800275" lon="11.290510483248413"><ele>742.2</ele><time>2026-04-01T14:58:52Z</time></trkpt><trkpt lat="45.68573024982665" lon="11.29061859207573"><ele>736.4</ele><time>2026-04-01T14:58:53Z</time></trkpt><trkpt lat="45.68580324695729" lon="11.29071727457895"><ele>730.6</ele><time>2026-04-01T14:58:54Z</time></trkpt><trkpt lat="45.685882278097324" lon="11.290811254457372"><ele>724.8000000000001</ele><time>2026-04-01T14:58:55Z</time></trkpt><trkpt lat="45.685971658791786" lon="11.290907259804738"><ele>719.0</ele><time>2026-04-01T14:58:56Z</time></trkpt><trkpt lat="45.68607295266645" lon="11.290983025657354"><ele>727.2</ele><time>2026-04-01T14:58:57Z</time></trkpt><trkpt lat="45.68617160348438" lon="11.291041365245233"><ele>735.4000000000001</ele><time>2026-04-01T14:58:58Z</time></trkpt><trkpt lat="45.686253935349555" lon="11.291096445606437"><ele>743.6</ele><time>2026-04-01T14:58:59Z</time></trkpt><trkpt lat="45.68632781889299" lon="11.2911678717375"><ele>751.8</ele><time>2026-04-01T14:59:00Z</time></trkpt><trkpt lat="45.68639723408123" lon="11.291289668732905"><ele>760.0</ele><time>2026-04-01T14:59:01Z</time></trkpt><trkpt lat="45.68647373827143" lon="11.291378196588068"><ele>753.0</ele><time>2026-04-01T14:59:02Z</time></trkpt><trkpt lat="45.68655723087646" lon="11.29149941899091"><ele>746.0</ele><time>2026-04-01T14:59:03Z</time></trkpt><trkpt lat="45.686647912609395" lon="11.291596806325519"><ele>739.0</ele><time>2026-04-01T14:59:04Z</time></trkpt><trkpt lat="45.68674979247768" lon="11.291675965771608"><ele>732.0</ele><time>2026-04-01T14:59:05Z</time></trkpt><trkpt lat="45.686834989132365" lon="11.291751878472388"><ele>725.0</ele><time>2026-04-01T14:59:06Z</time></trkpt><trkpt lat="45.68689072686238" lon="11.29188438187364"><ele>729.8</ele><time>2026-04-01T14:59:07Z</time></trkpt><trkpt lat="45.68697037091397" lon="11.291993318902128"><ele>734.6</ele><time>2026-04-01T14:59:08Z</time></trkpt><trkpt lat="45.68706794355047" lon="11.29208713342242"><ele>739.4000000000001</ele><time>2026-04-01T14:59:09Z</time></trkpt><trkpt lat="45.687163440194624" lon="11.292186279029606"><ele>744.2</ele><time>2026-04-01T14:59:10Z</time></trkpt><trkpt lat="45.68724773515069" lon="11.292261585406282"><ele>749.0</ele><time>2026-04-01T14:59:11Z</time></trkpt><trkpt lat="45.68729755671498" lon="11.292357236409565"><ele>749.0</ele><time>2026-04-01T14:59:12Z</time></trkpt><trkpt lat="45.68734110445954" lon="11.292425464375125"><ele>749.0</ele><time>2026-04-01T14:59:13Z</time></trkpt><trkpt lat="45.68730639148025" lon="11.292539759529854"><ele>749.0</ele><time>2026-04-01T14:59:14Z</time></trkpt><trkpt lat="45.68725912587859" lon="11.29263924858766"><ele>749.0</ele><time>2026-04-01T14:59:15Z</time></trkpt><trkpt lat="45.68725997559792" lon="11.292770365213194"><ele>749.0</ele><time>2026-04-01T14:59:16Z</time></trkpt><trkpt lat="45.687250054298616" lon="11.292928003698666"><ele>749.0</ele><time>2026-04-01T14:59:17Z</time></trkpt><trkpt lat="45.687247968512494" lon="11.293086888948977"><ele>749.0</ele><time>2026-04-01T14:59:18Z</time></trkpt><trkpt lat="45.68725349569814" lon="11.293251329023821"><ele>749.0</ele><time>2026-04-01T14:59:19Z</time></trkpt><trkpt lat="45.68727399809169" lon="11.293406857012046"><ele>749.0</ele><time>2026-04-01T14:59:20Z</time></trkpt><trkpt lat="45.68729037671545" lon="11.29357392403919"><ele>749.0</ele><time>2026-04-01T14:59:21Z</time></trkpt><trkpt lat="45.68732105030268" lon="11.293726671064578"><ele>749.0</ele><time>2026-04-01T14:59:22Z</time></trkpt><trkpt lat="45.687346260843306" lon="11.29386415914894"><ele>749.0</ele><time>2026-04-01T14:59:23Z</time></trkpt><trkpt lat="45.687367858441185" lon="11.29398908930525"><ele>749.0</ele><time>2026-04-01T14:59:24Z</time></trkpt><trkpt lat="45.68739763643468" lon="11.294121794120063"><ele>749.0</ele><time>2026-04-01T14:59:25Z</time></trkpt><trkpt lat="45.68742879249796" lon="11.294241302594504"><ele>749.0</ele><time>2026-04-01T14:59:26Z</time></trkpt><trkpt lat="45.68746870484505" lon="11.294374124817317"><ele>749.3333333333333</ele><time>2026-04-01T14:59:27Z</time></trkpt><trkpt lat="45.68749216431528" lon="11.294482853815637"><ele>749.6666666666666</ele><time>2026-04-01T14:59:28Z</time></trkpt><trkpt lat="45.68748436808523" lon="11.294574936478572"><ele>750.0</ele><time>2026-04-01T14:59:29Z</time></trkpt><trkpt lat="45.68741735487584" lon="11.294648383953387"><ele>750.3333333333334</ele><time>2026-04-01T14:59:30Z</time></trkpt><trkpt lat="45.687393281265976" lon="11.294746147926293"><ele>750.6666666666667</ele><time>2026-04-01T14:59:31Z</time></trkpt><trkpt lat="45.68736613631858" lon="11.294863979238162"><ele>751.0</ele><time>2026-04-01T14:59:32Z</time></trkpt><trkpt lat="45.68734747847715" lon="11.295017225294465"><ele>751.0</ele><time>2026-04-01T14:59:33Z</time></trkpt><trkpt lat="45.68734047749081" lon="11.295200459325068"><ele>751.0</ele><time>2026-04-01T14:59:34Z</time></trkpt><trkpt lat="45.687329398664396" lon="11.295376120349905"><ele>751.0</ele><time>2026-04-01T14:59:35Z</time></trkpt><trkpt lat="45.68731733640919" lon="11.295517210163018"><ele>751.0</ele><time>2026-04-01T14:59:36Z</time></trkpt><trkpt lat="45.687302191838654" lon="11.295673957221299"><ele>752.8</ele><time>2026-04-01T14:59:37Z</time></trkpt><trkpt lat="45.687287314831885" lon="11.295855222832094"><ele>754.5999999999999</ele><time>2026-04-01T14:59:38Z</time></trkpt><trkpt lat="45.68727761109833" lon="11.296002646851804"><ele>756.4</ele><time>2026-04-01T14:59:39Z</time></trkpt><trkpt lat="45.6872875587214" lon="11.296139334079198"><ele>758.2</ele><time>2026-04-01T14:59:40Z</time></trkpt><trkpt lat="45.68730780246335" lon="11.29626172435116"><ele>760.0</ele><time>2026-04-01T14:59:41Z</time></trkpt><trkpt lat="45.68733981112252" lon="11.29639104135732"><ele>761.1666666666667</ele><time>2026-04-01T14:59:42Z</time></trkpt><trkpt lat="45.68735186822605" lon="11.296499945833961"><ele>762.3333333333334</ele><time>2026-04-01T14:59:43Z</time></trkpt><trkpt lat="45.687357274989886" lon="11.296595085364805"><ele>763.5</ele><time>2026-04-01T14:59:44Z</time></trkpt><trkpt lat="45.6872531868971" lon="11.296670051127283"><ele>764.6666666666666</ele><time>2026-04-01T14:59:46Z</time></trkpt><trkpt lat="45.687177144917534" lon="11.29665080260582"><ele>765.8333333333333</ele><time>2026-04-01T14:59:47Z</time></trkpt><trkpt lat="45.68707559444663" lon="11.296636088175351"><ele>767.0</ele><time>2026-04-01T14:59:48Z</time></trkpt><trkpt lat="45.686968278475774" lon="11.29663800499734"><ele>761.25</ele><time>2026-04-01T14:59:49Z</time></trkpt><trkpt lat="45.68684959904214" lon="11.296629207566825"><ele>755.5</ele><time>2026-04-01T14:59:50Z</time></trkpt><trkpt lat="45.686733056091775" lon="11.29659465060794"><ele>749.75</ele><time>2026-04-01T14:59:51Z</time></trkpt><trkpt lat="45.686632644434866" lon="11.296549722383197"><ele>744.0</ele><time>2026-04-01T14:59:52Z</time></trkpt><trkpt lat="45.68653009220569" lon="11.296501928558083"><ele>744.0</ele><time>2026-04-01T14:59:53Z</time></trkpt><trkpt lat="45.68643367583777" lon="11.296445820483266"><ele>744.0</ele><time>2026-04-01T14:59:54Z</time></trkpt><trkpt lat="45.68633860947867" lon="11.296385077222723"><ele>744.0</ele><time>2026-04-01T14:59:55Z</time></trkpt><trkpt lat="45.686243141948616" lon="11.296314152062134"><ele>744.0</ele><time>2026-04-01T14:59:56Z</time></trkpt><trkpt lat="45.68615448791004" lon="11.296253355406659"><ele>744.0</ele><time>2026-04-01T14:59:57Z</time></trkpt><trkpt lat="45.686072306480554" lon="11.296174373343714"><ele>736.6</ele><time>2026-04-01T14:59:58Z</time></trkpt><trkpt lat="45.68600933692385" lon="11.2961042410252"><ele>729.2</ele><time>2026-04-01T14:59:59Z</time></trkpt><trkpt lat="45.685942794060715" lon="11.296002980623781"><ele>721.8000000000001</ele><time>2026-04-01T15:00:00Z</time></trkpt><trkpt lat="45.685879334170174" lon="11.295962356723889"><ele>714.4000000000001</ele><time>2026-04-01T15:00:01Z</time></trkpt><trkpt lat="45.68576018158116" lon="11.295979980292131"><ele>707.0</ele><time>2026-04-01T15:00:03Z</time></trkpt><trkpt lat="45.68572267268372" lon="11.296100453760145"><ele>707.0</ele><time>2026-04-01T15:00:04Z</time></trkpt><trkpt lat="45.685638930682096" lon="11.296169655007759"><ele>707.0</ele><time>2026-04-01T15:00:05Z</time></trkpt><trkpt lat="45.685549500601404" lon="11.296215238500553"><ele>707.0</ele><time>2026-04-01T15:00:06Z</time></trkpt><trkpt lat="45.685449791312" lon="11.296242831799859"><ele>707.0</ele><time>2026-04-01T15:00:07Z</time></trkpt><trkpt lat="45.68534958102539" lon="11.296239866170763"><ele>707.0</ele><time>2026-04-01T15:00:08Z</time></trkpt><trkpt lat="45.68525927536954" lon="11.29623573235989"><ele>707.8</ele><time>2026-04-01T15:00:09Z</time></trkpt><trkpt lat="45.685184056110565" lon="11.29626635155488"><ele>708.6</ele><time>2026-04-01T15:00:10Z</time></trkpt><trkpt lat="45.68507842627401" lon="11.296357124673904"><ele>709.4</ele><time>2026-04-01T15:00:12Z</time></trkpt><trkpt lat="45.68506409360133" lon="11.29649218306318"><ele>710.1999999999999</ele><time>2026-04-01T15:00:13Z</time></trkpt><trkpt lat="45.68503642085249" lon="11.296632582779951"><ele>711.0</ele><time>2026-04-01T15:00:14Z</time></trkpt><trkpt lat="45.685004932930106" lon="11.296774362249483"><ele>711.0</ele><time>2026-04-01T15:00:15Z</time></trkpt><trkpt lat="45.68495543944742" lon="11.296918518201174"><ele>711.0</ele><time>2026-04-01T15:00:16Z</time></trkpt><trkpt lat="45.68490871827452" lon="11.297040582198537"><ele>711.0</ele><time>2026-04-01T15:00:17Z</time></trkpt><trkpt lat="45.68485995384251" lon="11.29716434854025"><ele>711.0</ele><time>2026-04-01T15:00:18Z</time></trkpt><trkpt lat="45.684806393088905" lon="11.29729323655077"><ele>711.0</ele><time>2026-04-01T15:00:19Z</time></trkpt><trkpt lat="45.68476781760314" lon="11.297421077200026"><ele>713.0</ele><time>2026-04-01T15:00:20Z</time></trkpt><trkpt lat="45.68473389339256" lon="11.297561099502818"><ele>715.0</ele><time>2026-04-01T15:00:21Z</time></trkpt><trkpt lat="45.68470662928691" lon="11.29769110306148"><ele>717.0</ele><time>2026-04-01T15:00:22Z</time></trkpt><trkpt lat="45.684660255057565" lon="11.297837529524566"><ele>719.0</ele><time>2026-04-01T15:00:23Z</time></trkpt><trkpt lat="45.68461965863373" lon="11.297937131325723"><ele>721.0</ele><time>2026-04-01T15:00:24Z</time></trkpt><trkpt lat="45.68458083340268" lon="11.298051773118615"><ele>721.5</ele><time>2026-04-01T15:00:25Z</time></trkpt><trkpt lat="45.68452008408747" lon="11.29815676486384"><ele>722.0</ele><time>2026-04-01T15:00:26Z</time></trkpt><trkpt lat="45.68443534284486" lon="11.29821952698656"><ele>722.5</ele><time>2026-04-01T15:00:27Z</time></trkpt><trkpt lat="45.68438601713704" lon="11.298295917258528"><ele>723.0</ele><time>2026-04-01T15:00:28Z</time></trkpt><trkpt lat="45.68434134784555" lon="11.298387100592587"><ele>723.5</ele><time>2026-04-01T15:00:29Z</time></trkpt><trkpt lat="45.684313526196675" lon="11.29847601809231"><ele>724.0</ele><time>2026-04-01T15:00:30Z</time></trkpt><trkpt lat="45.68430963942431" lon="11.298578510765134"><ele>721.6</ele><time>2026-04-01T15:00:31Z</time></trkpt><trkpt lat="45.68434511628324" lon="11.298707743595244"><ele>719.2</ele><time>2026-04-01T15:00:32Z</time></trkpt><trkpt lat="45.68439850676628" lon="11.298868843635889"><ele>716.8000000000001</ele><time>2026-04-01T15:00:33Z</time></trkpt><trkpt lat="45.684446581270585" lon="11.298977567942263"><ele>714.4000000000001</ele><time>2026-04-01T15:00:34Z</time></trkpt><trkpt lat="45.684516696095955" lon="11.299051580004638"><ele>712.0</ele><time>2026-04-01T15:00:35Z</time></trkpt><trkpt lat="45.684592567055375" lon="11.299087865774718"><ele>712.0</ele><time>2026-04-01T15:00:36Z</time></trkpt><trkpt lat="45.684689763914086" lon="11.299129411975649"><ele>712.0</ele><time>2026-04-01T15:00:37Z</time></trkpt><trkpt lat="45.68478417980886" lon="11.299208145286409"><ele>712.0</ele><time>2026-04-01T15:00:38Z</time></trkpt><trkpt lat="45.68484532443512" lon="11.299285777118431"><ele>712.0</ele><time>2026-04-01T15:00:39Z</time></trkpt><trkpt lat="45.684891813156234" lon="11.299366893420643"><ele>712.0</ele><time>2026-04-01T15:00:40Z</time></trkpt><trkpt lat="45.68490021489634" lon="11.29953587059537"><ele>712.0</ele><time>2026-04-01T15:00:42Z</time></trkpt><trkpt lat="45.684822783166986" lon="11.29958488754278"><ele>712.0</ele><time>2026-04-01T15:00:43Z</time></trkpt><trkpt lat="45.68476415227223" lon="11.299649034438879"><ele>712.0</ele><time>2026-04-01T15:00:44Z</time></trkpt><trkpt lat="45.68469022783843" lon="11.299758801112878"><ele>712.0</ele><time>2026-04-01T15:00:45Z</time></trkpt><trkpt lat="45.684627275475044" lon="11.299861642055232"><ele>712.0</ele><time>2026-04-01T15:00:46Z</time></trkpt><trkpt lat="45.684561617299046" lon="11.29997787367225"><ele>711.75</ele><time>2026-04-01T15:00:47Z</time></trkpt><trkpt lat="45.68450041279232" lon="11.300097469136483"><ele>711.5</ele><time>2026-04-01T15:00:48Z</time></trkpt><trkpt lat="45.684448496744004" lon="11.300261000906733"><ele>711.25</ele><time>2026-04-01T15:00:49Z</time></trkpt><trkpt lat="45.684385689043474" lon="11.30041568451226"><ele>711.0</ele><time>2026-04-01T15:00:50Z</time></trkpt><trkpt lat="45.684328048302035" lon="11.300570744845345"><ele>704.5999999999999</ele><time>2026-04-01T15:00:51Z</time></trkpt><trkpt lat="45.68427087342679" lon="11.300706136078189"><ele>698.2</ele><time>2026-04-01T15:00:52Z</time></trkpt><trkpt lat="45.684222888664095" lon="11.300819199998061"><ele>691.8</ele><time>2026-04-01T15:00:53Z</time></trkpt><trkpt lat="45.68416217476751" lon="11.30093553803301"><ele>685.4000000000001</ele><time>2026-04-01T15:00:54Z</time></trkpt><trkpt lat="45.68413424729426" lon="11.30104498252283"><ele>679.0</ele><time>2026-04-01T15:00:55Z</time></trkpt><trkpt lat="45.68413313535508" lon="11.30116708051073"><ele>679.0</ele><time>2026-04-01T15:00:56Z</time></trkpt><trkpt lat="45.68416529176604" lon="11.301269230945605"><ele>679.0</ele><time>2026-04-01T15:00:57Z</time></trkpt><trkpt lat="45.68423277180936" lon="11.301364490781506"><ele>679.0</ele><time>2026-04-01T15:00:58Z</time></trkpt><trkpt lat="45.68430857848695" lon="11.301459848781779"><ele>679.0</ele><time>2026-04-01T15:00:59Z</time></trkpt><trkpt lat="45.68439057314483" lon="11.301562447639785"><ele>679.0</ele><time>2026-04-01T15:01:00Z</time></trkpt><trkpt lat="45.68448578561301" lon="11.301676370686677"><ele>683.6666666666667</ele><time>2026-04-01T15:01:01Z</time></trkpt><trkpt lat="45.68457021303205" lon="11.301798719453842"><ele>688.3333333333334</ele><time>2026-04-01T15:01:02Z</time></trkpt><trkpt lat="45.684637421438715" lon="11.301884923904769"><ele>693.0</ele><time>2026-04-01T15:01:03Z</time></trkpt><trkpt lat="45.684686398995595" lon="11.301956132468577"><ele>697.6666666666666</ele><time>2026-04-01T15:01:04Z</time></trkpt><trkpt lat="45.68469061483043" lon="11.302093700520498"><ele>702.3333333333333</ele><time>2026-04-01T15:01:06Z</time></trkpt><trkpt lat="45.684638670548296" lon="11.302155485707713"><ele>707.0</ele><time>2026-04-01T15:01:07Z</time></trkpt><trkpt lat="45.684552122344094" lon="11.30213649212015"><ele>707.0</ele><time>2026-04-01T15:01:08Z</time></trkpt><trkpt lat="45.684477046647295" lon="11.302170314784906"><ele>707.0</ele><time>2026-04-01T15:01:09Z</time></trkpt><trkpt lat="45.68437705774955" lon="11.30223352533372"><ele>707.0</ele><time>2026-04-01T15:01:10Z</time></trkpt><trkpt lat="45.68427034759455" lon="11.302286314910203"><ele>707.0</ele><time>2026-04-01T15:01:11Z</time></trkpt><trkpt lat="45.68418052990741" lon="11.30233448952335"><ele>707.0</ele><time>2026-04-01T15:01:12Z</time></trkpt><trkpt lat="45.68410546873738" lon="11.302362107828097"><ele>703.1666666666666</ele><time>2026-04-01T15:01:13Z</time></trkpt><trkpt lat="45.68400895360657" lon="11.302298313167798"><ele>699.3333333333333</ele><time>2026-04-01T15:01:15Z</time></trkpt><trkpt lat="45.68396799923082" lon="11.302213486265567"><ele>695.5</ele><time>2026-04-01T15:01:16Z</time></trkpt><trkpt lat="45.68391886331478" lon="11.302149259496508"><ele>691.6666666666666</ele><time>2026-04-01T15:01:17Z</time></trkpt><trkpt lat="45.68385062923353" lon="11.302080952930796"><ele>687.8333333333334</ele><time>2026-04-01T15:01:18Z</time></trkpt><trkpt lat="45.68377936793827" lon="11.30204034185088"><ele>684.0</ele><time>2026-04-01T15:01:19Z</time></trkpt><trkpt lat="45.68369683837616" lon="11.302024960038304"><ele>682.4000000000001</ele><time>2026-04-01T15:01:20Z</time></trkpt><trkpt lat="45.68361420035634" lon="11.302074958705179"><ele>680.8</ele><time>2026-04-01T15:01:21Z</time></trkpt><trkpt lat="45.68351024341496" lon="11.302112888057419"><ele>679.2</ele><time>2026-04-01T15:01:22Z</time></trkpt><trkpt lat="45.68340162933733" lon="11.302145357350662"><ele>677.5999999999999</ele><time>2026-04-01T15:01:23Z</time></trkpt><trkpt lat="45.68331707697011" lon="11.302229230308097"><ele>676.0</ele><time>2026-04-01T15:01:24Z</time></trkpt><trkpt lat="45.68322979301139" lon="11.302304467310545"><ele>672.75</ele><time>2026-04-01T15:01:25Z</time></trkpt><trkpt lat="45.68314223454034" lon="11.30240486555253"><ele>669.5</ele><time>2026-04-01T15:01:26Z</time></trkpt><trkpt lat="45.68305672723598" lon="11.302514569910363"><ele>666.25</ele><time>2026-04-01T15:01:27Z</time></trkpt><trkpt lat="45.6829684918474" lon="11.302635806421087"><ele>663.0</ele><time>2026-04-01T15:01:28Z</time></trkpt><trkpt lat="45.68288554980013" lon="11.30274841778189"><ele>663.0</ele><time>2026-04-01T15:01:29Z</time></trkpt><trkpt lat="45.682821611434385" lon="11.302856603061334"><ele>663.0</ele><time>2026-04-01T15:01:30Z</time></trkpt><trkpt lat="45.68277234271691" lon="11.302973801631225"><ele>663.0</ele><time>2026-04-01T15:01:31Z</time></trkpt><trkpt lat="45.68274366611174" lon="11.303096649787024"><ele>663.0</ele><time>2026-04-01T15:01:32Z</time></trkpt><trkpt lat="45.68274238123816" lon="11.303204799636084"><ele>663.0</ele><time>2026-04-01T15:01:33Z</time></trkpt><trkpt lat="45.682782527018624" lon="11.303284129386883"><ele>663.0</ele><time>2026-04-01T15:01:34Z</time></trkpt><trkpt lat="45.68283707340069" lon="11.303364689442493"><ele>664.8</ele><time>2026-04-01T15:01:35Z</time></trkpt><trkpt lat="45.68291085633716" lon="11.303436809066165"><ele>666.5999999999999</ele><time>2026-04-01T15:01:36Z</time></trkpt><trkpt lat="45.682998805694616" lon="11.303533685459081"><ele>668.4000000000001</ele><time>2026-04-01T15:01:37Z</time></trkpt><trkpt lat="45.683095831395484" lon="11.303648327570054"><ele>670.2</ele><time>2026-04-01T15:01:38Z</time></trkpt><trkpt lat="45.683176690458865" lon="11.303757751388117"><ele>672.0</ele><time>2026-04-01T15:01:39Z</time></trkpt><trkpt lat="45.68326659046636" lon="11.303872735629156"><ele>675.5</ele><time>2026-04-01T15:01:40Z</time></trkpt><trkpt lat="45.68335465583263" lon="11.304004083989382"><ele>679.0</ele><time>2026-04-01T15:01:41Z</time></trkpt><trkpt lat="45.683441773422025" lon="11.304133105921357"><ele>682.5</ele><time>2026-04-01T15:01:42Z</time></trkpt><trkpt lat="45.68353023201491" lon="11.304254036255443"><ele>686.0</ele><time>2026-04-01T15:01:43Z</time></trkpt><trkpt lat="45.6836085087107" lon="11.304377732878162"><ele>686.0</ele><time>2026-04-01T15:01:44Z</time></trkpt><trkpt lat="45.68368472282902" lon="11.304507741378293"><ele>686.0</ele><time>2026-04-01T15:01:45Z</time></trkpt><trkpt lat="45.68375305230824" lon="11.30464835216137"><ele>686.0</ele><time>2026-04-01T15:01:46Z</time></trkpt><trkpt lat="45.683822358770534" lon="11.30477904066415"><ele>686.0</ele><time>2026-04-01T15:01:47Z</time></trkpt><trkpt lat="45.68388747798456" lon="11.304902354662353"><ele>679.4</ele><time>2026-04-01T15:01:48Z</time></trkpt><trkpt lat="45.68395019915847" lon="11.305025945409586"><ele>672.8</ele><time>2026-04-01T15:01:49Z</time></trkpt><trkpt lat="45.68399776455479" lon="11.305148054584905"><ele>666.1999999999999</ele><time>2026-04-01T15:01:50Z</time></trkpt><trkpt lat="45.68403188410428" lon="11.305275927025548"><ele>659.5999999999999</ele><time>2026-04-01T15:01:51Z</time></trkpt><trkpt lat="45.68404625982978" lon="11.305413654488756"><ele>653.0</ele><time>2026-04-01T15:01:52Z</time></trkpt><trkpt lat="45.6840470809771" lon="11.305544579813716"><ele>650.0</ele><time>2026-04-01T15:01:53Z</time></trkpt><trkpt lat="45.68403610266147" lon="11.305683796650857"><ele>647.0</ele><time>2026-04-01T15:01:54Z</time></trkpt><trkpt lat="45.68402554948095" lon="11.305828688553401"><ele>644.0</ele><time>2026-04-01T15:01:55Z</time></trkpt><trkpt lat="45.684020496212334" lon="11.305946494200034"><ele>641.0</ele><time>2026-04-01T15:01:56Z</time></trkpt><trkpt lat="45.68402257417733" lon="11.306042339889352"><ele>638.0</ele><time>2026-04-01T15:01:57Z</time></trkpt><trkpt lat="45.68402473465825" lon="11.306137963456926"><ele>635.0</ele><time>2026-04-01T15:01:59Z</time></trkpt><trkpt lat="45.68399937426665" lon="11.306268542219367"><ele>633.8</ele><time>2026-04-01T15:02:13Z</time></trkpt><trkpt lat="45.68399225694932" lon="11.30646931613"><ele>632.6</ele><time>2026-04-01T15:02:15Z</time></trkpt><trkpt lat="45.68411409672857" lon="11.306511276448239"><ele>631.4</ele><time>2026-04-01T15:02:16Z</time></trkpt><trkpt lat="45.684150227594635" lon="11.306600360259859"><ele>630.2</ele><time>2026-04-01T15:02:17Z</time></trkpt><trkpt lat="45.68418289902672" lon="11.306699368205265"><ele>629.0</ele><time>2026-04-01T15:02:18Z</time></trkpt><trkpt lat="45.68420210160363" lon="11.30680417791238"><ele>629.0</ele><time>2026-04-01T15:02:19Z</time></trkpt><trkpt lat="45.68420296809455" lon="11.30693119667971"><ele>629.0</ele><time>2026-04-01T15:02:20Z</time></trkpt><trkpt lat="45.68417791110167" lon="11.307080863928554"><ele>629.0</ele><time>2026-04-01T15:02:21Z</time></trkpt><trkpt lat="45.68414071852501" lon="11.307228941963828"><ele>629.0</ele><time>2026-04-01T15:02:22Z</time></trkpt><trkpt lat="45.68410452951869" lon="11.307383754287395"><ele>629.0</ele><time>2026-04-01T15:02:23Z</time></trkpt><trkpt lat="45.684068184957695" lon="11.307557553920073"><ele>629.5</ele><time>2026-04-01T15:02:24Z</time></trkpt><trkpt lat="45.68403032322369" lon="11.307731642914677"><ele>630.0</ele><time>2026-04-01T15:02:25Z</time></trkpt><trkpt lat="45.68399118203549" lon="11.30790317870684"><ele>630.5</ele><time>2026-04-01T15:02:26Z</time></trkpt><trkpt lat="45.68394383663971" lon="11.308035058115902"><ele>631.0</ele><time>2026-04-01T15:02:27Z</time></trkpt><trkpt lat="45.68388997890414" lon="11.308159329903729"><ele>632.0</ele><time>2026-04-01T15:02:28Z</time></trkpt><trkpt lat="45.683839120451566" lon="11.308307658428516"><ele>633.0</ele><time>2026-04-01T15:02:29Z</time></trkpt><trkpt lat="45.68380821668486" lon="11.308458339735715"><ele>634.0</ele><time>2026-04-01T15:02:30Z</time></trkpt><trkpt lat="45.68380788316193" lon="11.308617211436967"><ele>635.0</ele><time>2026-04-01T15:02:31Z</time></trkpt><trkpt lat="45.68383204349782" lon="11.308762486289606"><ele>636.0</ele><time>2026-04-01T15:02:32Z</time></trkpt><trkpt lat="45.68387904964221" lon="11.308889426110103"><ele>636.0</ele><time>2026-04-01T15:02:33Z</time></trkpt><trkpt lat="45.68393945702881" lon="11.30898140867226"><ele>636.0</ele><time>2026-04-01T15:02:34Z</time></trkpt><trkpt lat="45.68400239969558" lon="11.309053724617545"><ele>636.0</ele><time>2026-04-01T15:02:35Z</time></trkpt><trkpt lat="45.68405734994064" lon="11.309138180087064"><ele>636.0</ele><time>2026-04-01T15:02:36Z</time></trkpt><trkpt lat="45.68407799808082" lon="11.309249254808671"><ele>636.0</ele><time>2026-04-01T15:02:37Z</time></trkpt><trkpt lat="45.684066180806575" lon="11.309371461884261"><ele>636.0</ele><time>2026-04-01T15:02:38Z</time></trkpt><trkpt lat="45.68403562829486" lon="11.309492505902936"><ele>636.0</ele><time>2026-04-01T15:02:39Z</time></trkpt><trkpt lat="45.68397931033374" lon="11.309629203093305"><ele>636.0</ele><time>2026-04-01T15:02:40Z</time></trkpt><trkpt lat="45.683936647612505" lon="11.309713855354435"><ele>636.0</ele><time>2026-04-01T15:02:41Z</time></trkpt><trkpt lat="45.683867510699635" lon="11.309764038000186"><ele>636.0</ele><time>2026-04-01T15:02:42Z</time></trkpt><trkpt lat="45.68378337674425" lon="11.309758423228034"><ele>636.0</ele><time>2026-04-01T15:02:43Z</time></trkpt><trkpt lat="45.68369017116593" lon="11.309796295561505"><ele>636.0</ele><time>2026-04-01T15:02:44Z</time></trkpt><trkpt lat="45.68359618766586" lon="11.30985014514556"><ele>638.0</ele><time>2026-04-01T15:02:45Z</time></trkpt><trkpt lat="45.683496250046765" lon="11.309873832643031"><ele>640.0</ele><time>2026-04-01T15:02:46Z</time></trkpt><trkpt lat="45.68341148673339" lon="11.309844679856777"><ele>642.0</ele><time>2026-04-01T15:02:47Z</time></trkpt><trkpt lat="45.68334184225011" lon="11.309855902067182"><ele>644.0</ele><time>2026-04-01T15:02:48Z</time></trkpt><trkpt lat="45.68327234697079" lon="11.309919511705838"><ele>646.0</ele><time>2026-04-01T15:02:50Z</time></trkpt><trkpt lat="45.68315465725505" lon="11.310028254362775"><ele>646.0</ele><time>2026-04-01T15:02:52Z</time></trkpt><trkpt lat="45.68309698926354" lon="11.310106729391732"><ele>646.0</ele><time>2026-04-01T15:02:53Z</time></trkpt><trkpt lat="45.68300067883831" lon="11.310166854576018"><ele>646.0</ele><time>2026-04-01T15:02:54Z</time></trkpt><trkpt lat="45.68296654740421" lon="11.310280739177642"><ele>646.0</ele><time>2026-04-01T15:02:55Z</time></trkpt><trkpt lat="45.68289357333019" lon="11.31037678735857"><ele>646.0</ele><time>2026-04-01T15:02:56Z</time></trkpt><trkpt lat="45.68282677847858" lon="11.310441831226916"><ele>646.8</ele><time>2026-04-01T15:02:57Z</time></trkpt><trkpt lat="45.68275125757743" lon="11.310499679742732"><ele>647.5999999999999</ele><time>2026-04-01T15:02:58Z</time></trkpt><trkpt lat="45.68267228850227" lon="11.310536155552757"><ele>648.4</ele><time>2026-04-01T15:02:59Z</time></trkpt><trkpt lat="45.68255793585258" lon="11.310614531950378"><ele>649.2</ele><time>2026-04-01T15:03:01Z</time></trkpt><trkpt lat="45.68247411406438" lon="11.310667742073912"><ele>650.0</ele><time>2026-04-01T15:03:02Z</time></trkpt><trkpt lat="45.68238130863518" lon="11.31067341077926"><ele>654.8</ele><time>2026-04-01T15:03:03Z</time></trkpt><trkpt lat="45.68229345845673" lon="11.310699173805478"><ele>659.6</ele><time>2026-04-01T15:03:04Z</time></trkpt><trkpt lat="45.68219872916916" lon="11.310704543809445"><ele>664.4000000000001</ele><time>2026-04-01T15:03:05Z</time></trkpt><trkpt lat="45.6821154591279" lon="11.310779322943612"><ele>669.2</ele><time>2026-04-01T15:03:07Z</time></trkpt><trkpt lat="45.68207817287934" lon="11.310900047388815"><ele>674.0</ele><time>2026-04-01T15:03:09Z</time></trkpt><trkpt lat="45.68203952050417" lon="11.311006324224005"><ele>674.0</ele><time>2026-04-01T15:03:11Z</time></trkpt><trkpt lat="45.681985159940545" lon="11.311098869899878"><ele>674.0</ele><time>2026-04-01T15:03:13Z</time></trkpt><trkpt lat="45.68190343243794" lon="11.31121671162162"><ele>674.0</ele><time>2026-04-01T15:03:15Z</time></trkpt><trkpt lat="45.68185263696609" lon="11.311354467075162"><ele>674.0</ele><time>2026-04-01T15:03:17Z</time></trkpt><trkpt lat="45.68180788029004" lon="11.3114244824042"><ele>674.0</ele><time>2026-04-01T15:03:18Z</time></trkpt><trkpt lat="45.68176428929343" lon="11.31151588323044"><ele>674.2</ele><time>2026-04-01T15:03:19Z</time></trkpt><trkpt lat="45.68172924655108" lon="11.31162359696916"><ele>674.4000000000001</ele><time>2026-04-01T15:03:20Z</time></trkpt><trkpt lat="45.68170347437452" lon="11.311721377466753"><ele>674.6</ele><time>2026-04-01T15:03:21Z</time></trkpt><trkpt lat="45.681647379176766" lon="11.311844438849231"><ele>674.8</ele><time>2026-04-01T15:03:22Z</time></trkpt><trkpt lat="45.68160459945561" lon="11.311971428265094"><ele>675.0</ele><time>2026-04-01T15:03:23Z</time></trkpt><trkpt lat="45.68156124253741" lon="11.31209229931034"><ele>676.8</ele><time>2026-04-01T15:03:24Z</time></trkpt><trkpt lat="45.68152017354498" lon="11.312247258934415"><ele>678.6</ele><time>2026-04-01T15:03:26Z</time></trkpt><trkpt lat="45.68151419414293" lon="11.31237404769943"><ele>680.4000000000001</ele><time>2026-04-01T15:03:27Z</time></trkpt><trkpt lat="45.681522889514596" lon="11.312565037789545"><ele>682.2</ele><time>2026-04-01T15:03:29Z</time></trkpt><trkpt lat="45.681542191502466" lon="11.312699340265665"><ele>684.0</ele><time>2026-04-01T15:03:30Z</time></trkpt><trkpt lat="45.681560680860436" lon="11.312854211358168"><ele>684.0</ele><time>2026-04-01T15:03:31Z</time></trkpt><trkpt lat="45.6815873129802" lon="11.31297863657988"><ele>684.0</ele><time>2026-04-01T15:03:32Z</time></trkpt><trkpt lat="45.68162306418737" lon="11.313082969571052"><ele>684.0</ele><time>2026-04-01T15:03:33Z</time></trkpt><trkpt lat="45.68165663707148" lon="11.313188837918334"><ele>684.0</ele><time>2026-04-01T15:03:34Z</time></trkpt><trkpt lat="45.681674530005296" lon="11.313307355587748"><ele>684.0</ele><time>2026-04-01T15:03:35Z</time></trkpt><trkpt lat="45.68168469704197" lon="11.313426913095554"><ele>684.0</ele><time>2026-04-01T15:03:36Z</time></trkpt><trkpt lat="45.68170539963738" lon="11.313538467788593"><ele>684.8000000000001</ele><time>2026-04-01T15:03:37Z</time></trkpt><trkpt lat="45.68175826514015" lon="11.31364966222393"><ele>685.6</ele><time>2026-04-01T15:03:38Z</time></trkpt><trkpt lat="45.68180145213457" lon="11.313740262521247"><ele>686.4</ele><time>2026-04-01T15:03:39Z</time></trkpt><trkpt lat="45.68183346080155" lon="11.313906525249012"><ele>687.2</ele><time>2026-04-01T15:03:41Z</time></trkpt><trkpt lat="45.68182221002696" lon="11.314012756960606"><ele>688.0</ele><time>2026-04-01T15:03:42Z</time></trkpt><trkpt lat="45.68181757889903" lon="11.314134517870936"><ele>688.5999999999999</ele><time>2026-04-01T15:03:43Z</time></trkpt><trkpt lat="45.68179343532251" lon="11.314243296559733"><ele>689.1999999999999</ele><time>2026-04-01T15:03:44Z</time></trkpt><trkpt lat="45.68174638514511" lon="11.314333822465768"><ele>689.8</ele><time>2026-04-01T15:03:45Z</time></trkpt><trkpt lat="45.681707102363426" lon="11.314418557072138"><ele>690.4</ele><time>2026-04-01T15:03:46Z</time></trkpt><trkpt lat="45.68166369987126" lon="11.314521979239045"><ele>691.0</ele><time>2026-04-01T15:03:47Z</time></trkpt><trkpt lat="45.681574611158354" lon="11.314672001394847"><ele>691.1999999999999</ele><time>2026-04-01T15:03:49Z</time></trkpt><trkpt lat="45.681516514783176" lon="11.314771755920175"><ele>691.4</ele><time>2026-04-01T15:03:50Z</time></trkpt><trkpt lat="45.68145782043851" lon="11.314964061005584"><ele>691.6</ele><time>2026-04-01T15:03:52Z</time></trkpt><trkpt lat="45.68143039308705" lon="11.315048623033466"><ele>691.8</ele><time>2026-04-01T15:03:53Z</time></trkpt><trkpt lat="45.68136171376706" lon="11.315160740456342"><ele>692.0</ele><time>2026-04-01T15:03:55Z</time></trkpt><trkpt lat="45.68122462490006" lon="11.315232792058596"><ele>692.0</ele><time>2026-04-01T15:03:57Z</time></trkpt><trkpt lat="45.681140759032445" lon="11.315296464374425"><ele>692.0</ele><time>2026-04-01T15:03:58Z</time></trkpt><trkpt lat="45.681071266308706" lon="11.315390658171626"><ele>692.0</ele><time>2026-04-01T15:03:59Z</time></trkpt><trkpt lat="45.68099588267802" lon="11.315521753157595"><ele>692.0</ele><time>2026-04-01T15:04:01Z</time></trkpt><trkpt lat="45.68093449718905" lon="11.315600273281207"><ele>692.0</ele><time>2026-04-01T15:04:02Z</time></trkpt><trkpt lat="45.68085997378942" lon="11.31565994489809"><ele>691.8333333333333</ele><time>2026-04-01T15:04:03Z</time></trkpt><trkpt lat="45.680791353993726" lon="11.315704711815807"><ele>691.6666666666666</ele><time>2026-04-01T15:04:04Z</time></trkpt><trkpt lat="45.68070789356404" lon="11.31575980864082"><ele>691.5</ele><time>2026-04-01T15:04:05Z</time></trkpt><trkpt lat="45.68062838402886" lon="11.315820082676453"><ele>691.3333333333334</ele><time>2026-04-01T15:04:06Z</time></trkpt><trkpt lat="45.68055733998959" lon="11.315886749172558"><ele>691.1666666666667</ele><time>2026-04-01T15:04:07Z</time></trkpt><trkpt lat="45.680507648902406" lon="11.315965058778643"><ele>691.0</ele><time>2026-04-01T15:04:08Z</time></trkpt><trkpt lat="45.68046303771101" lon="11.31603053158021"><ele>691.0</ele><time>2026-04-01T15:04:09Z</time></trkpt><trkpt lat="45.68039282561877" lon="11.31611603452342"><ele>691.0</ele><time>2026-04-01T15:04:10Z</time></trkpt><trkpt lat="45.68027396418189" lon="11.31618570870129"><ele>691.0</ele><time>2026-04-01T15:04:12Z</time></trkpt><trkpt lat="45.680188233836994" lon="11.31628231186171"><ele>691.0</ele><time>2026-04-01T15:04:14Z</time></trkpt><trkpt lat="45.68011691877477" lon="11.31637460932401"><ele>691.0</ele><time>2026-04-01T15:04:16Z</time></trkpt><trkpt lat="45.680057214117454" lon="11.316439001955288"><ele>689.8333333333334</ele><time>2026-04-01T15:04:19Z</time></trkpt><trkpt lat="45.68000460807696" lon="11.31649298109113"><ele>688.6666666666667</ele><time>2026-04-01T15:04:22Z</time></trkpt><trkpt lat="45.6799311774422" lon="11.316570077800598"><ele>687.5</ele><time>2026-04-01T15:04:25Z</time></trkpt><trkpt lat="45.679879171316436" lon="11.316664402973906"><ele>686.3333333333334</ele><time>2026-04-01T15:04:28Z</time></trkpt><trkpt lat="45.679833337205174" lon="11.316729333343648"><ele>685.1666666666666</ele><time>2026-04-01T15:04:30Z</time></trkpt><trkpt lat="45.679780064603335" lon="11.316830194824492"><ele>684.0</ele><time>2026-04-01T15:04:33Z</time></trkpt><trkpt lat="45.67971290481996" lon="11.316948484167636"><ele>684.0</ele><time>2026-04-01T15:04:36Z</time></trkpt><trkpt lat="45.679640856686085" lon="11.31703970815386"><ele>684.0</ele><time>2026-04-01T15:04:38Z</time></trkpt><trkpt lat="45.67959233176978" lon="11.317109175458256"><ele>684.0</ele><time>2026-04-01T15:04:43Z</time></trkpt><trkpt lat="45.67953604695107" lon="11.317226858770933"><ele>684.0</ele><time>2026-04-01T15:04:46Z</time></trkpt><trkpt lat="45.67952151322601" lon="11.317317098713584"><ele>684.0</ele><time>2026-04-01T15:04:49Z</time></trkpt><trkpt lat="45.67948003257768" lon="11.317500436986611"><ele>682.6</ele><time>2026-04-01T15:04:51Z</time></trkpt><trkpt lat="45.67944662659725" lon="11.317593952006762"><ele>681.2</ele><time>2026-04-01T15:04:52Z</time></trkpt><trkpt lat="45.67947735295545" lon="11.317682490557381"><ele>679.8000000000001</ele><time>2026-04-01T15:04:54Z</time></trkpt><trkpt lat="45.67950066597849" lon="11.317842951586364"><ele>678.4000000000001</ele><time>2026-04-01T15:04:56Z</time></trkpt><trkpt lat="45.67949337834355" lon="11.317991271167948"><ele>677.0</ele><time>2026-04-01T15:04:58Z</time></trkpt><trkpt lat="45.67947715726464" lon="11.318159423331336"><ele>677.0</ele><time>2026-04-01T15:05:00Z</time></trkpt><trkpt lat="45.67947280845099" lon="11.318256161814663"><ele>677.0</ele><time>2026-04-01T15:05:01Z</time></trkpt><trkpt lat="45.67944126049525" lon="11.318367822450911"><ele>677.0</ele><time>2026-04-01T15:05:02Z</time></trkpt><trkpt lat="45.679392399643824" lon="11.31844305471925"><ele>677.0</ele><time>2026-04-01T15:05:03Z</time></trkpt><trkpt lat="45.67932281306465" lon="11.318495930482184"><ele>677.0</ele><time>2026-04-01T15:05:04Z</time></trkpt><trkpt lat="45.679292967213975" lon="11.318585216918404"><ele>677.0</ele><time>2026-04-01T15:05:05Z</time></trkpt><trkpt lat="45.67926745880291" lon="11.318714209568501"><ele>677.0</ele><time>2026-04-01T15:05:07Z</time></trkpt><trkpt lat="45.67931929239762" lon="11.318832648767275"><ele>677.0</ele><time>2026-04-01T15:05:09Z</time></trkpt><trkpt lat="45.67934668591098" lon="11.318927560051543"><ele>677.0</ele><time>2026-04-01T15:05:10Z</time></trkpt><trkpt lat="45.67940485921448" lon="11.31909130493009"><ele>677.0</ele><time>2026-04-01T15:05:12Z</time></trkpt><trkpt lat="45.67943576073142" lon="11.31921705329472"><ele>677.0</ele><time>2026-04-01T15:05:13Z</time></trkpt><trkpt lat="45.67948671554206" lon="11.319338476780882"><ele>672.8333333333333</ele><time>2026-04-01T15:05:14Z</time></trkpt><trkpt lat="45.67953040352867" lon="11.319433674603655"><ele>668.6666666666666</ele><time>2026-04-01T15:05:15Z</time></trkpt><trkpt lat="45.6795871992967" lon="11.319505552226975"><ele>664.5</ele><time>2026-04-01T15:05:16Z</time></trkpt><trkpt lat="45.67964414910286" lon="11.319578471091583"><ele>660.3333333333334</ele><time>2026-04-01T15:05:17Z</time></trkpt><trkpt lat="45.67971547536958" lon="11.31962928116546"><ele>656.1666666666667</ele><time>2026-04-01T15:05:18Z</time></trkpt><trkpt lat="45.67979926428813" lon="11.319673390634701"><ele>652.0</ele><time>2026-04-01T15:05:19Z</time></trkpt><trkpt lat="45.67989533756408" lon="11.319766340517234"><ele>652.0</ele><time>2026-04-01T15:05:21Z</time></trkpt><trkpt lat="45.67998442002045" lon="11.319854115483494"><ele>652.0</ele><time>2026-04-01T15:05:23Z</time></trkpt><trkpt lat="45.68000016579372" lon="11.319993420849054"><ele>652.0</ele><time>2026-04-01T15:05:25Z</time></trkpt><trkpt lat="45.67998060327129" lon="11.320105628349964"><ele>652.0</ele><time>2026-04-01T15:05:27Z</time></trkpt><trkpt lat="45.679952265750835" lon="11.320214129473202"><ele>652.0</ele><time>2026-04-01T15:05:30Z</time></trkpt><trkpt lat="45.6799668787365" lon="11.320396255919022"><ele>652.0</ele><time>2026-04-01T15:05:32Z</time></trkpt><trkpt lat="45.67994221097736" lon="11.320484471345228"><ele>652.0</ele><time>2026-04-01T15:05:33Z</time></trkpt><trkpt lat="45.679810549716656" lon="11.32086044302727"><ele>652.0</ele><time>2026-04-01T15:05:34Z</time></trkpt><trkpt lat="45.6796249510119" lon="11.320824741973109"><ele>650.8333333333334</ele><time>2026-04-01T15:05:35Z</time></trkpt><trkpt lat="45.679533949975664" lon="11.32081218535912"><ele>649.6666666666667</ele><time>2026-04-01T15:05:36Z</time></trkpt><trkpt lat="45.67943029800764" lon="11.320886310372195"><ele>648.5</ele><time>2026-04-01T15:05:37Z</time></trkpt><trkpt lat="45.679356490968004" lon="11.320941744201075"><ele>647.3333333333334</ele><time>2026-04-01T15:05:38Z</time></trkpt><trkpt lat="45.67929948386294" lon="11.320999577112648"><ele>646.1666666666666</ele><time>2026-04-01T15:05:39Z</time></trkpt><trkpt lat="45.6792414892221" lon="11.321074653390031"><ele>645.0</ele><time>2026-04-01T15:05:40Z</time></trkpt><trkpt lat="45.67916671167506" lon="11.321181095228646"><ele>646.8</ele><time>2026-04-01T15:05:41Z</time></trkpt><trkpt lat="45.67910310880152" lon="11.321307676714397"><ele>648.6</ele><time>2026-04-01T15:05:42Z</time></trkpt><trkpt lat="45.6790340999352" lon="11.321401715942178"><ele>650.4000000000001</ele><time>2026-04-01T15:05:43Z</time></trkpt><trkpt lat="45.67897698086192" lon="11.321505718632544"><ele>652.2</ele><time>2026-04-01T15:05:44Z</time></trkpt><trkpt lat="45.678919444459964" lon="11.321658622502301"><ele>654.0</ele><time>2026-04-01T15:05:45Z</time></trkpt><trkpt lat="45.67884390024185" lon="11.321810754776202"><ele>654.0</ele><time>2026-04-01T15:05:46Z</time></trkpt><trkpt lat="45.67878256492681" lon="11.321990561620224"><ele>654.0</ele><time>2026-04-01T15:05:47Z</time></trkpt><trkpt lat="45.678727966448086" lon="11.322157127288651"><ele>654.0</ele><time>2026-04-01T15:05:48Z</time></trkpt><trkpt lat="45.67865437303598" lon="11.322247243024648"><ele>654.0</ele><time>2026-04-01T15:05:49Z</time></trkpt><trkpt lat="45.67853377480381" lon="11.322323218608783"><ele>657.0</ele><time>2026-04-01T15:05:51Z</time></trkpt><trkpt lat="45.678466065828005" lon="11.322377385802627"><ele>660.0</ele><time>2026-04-01T15:05:52Z</time></trkpt><trkpt lat="45.678394785556904" lon="11.322494779325714"><ele>663.0</ele><time>2026-04-01T15:05:53Z</time></trkpt><trkpt lat="45.678342623287946" lon="11.322622811541027"><ele>666.0</ele><time>2026-04-01T15:05:54Z</time></trkpt><trkpt lat="45.67831252131647" lon="11.322763236678025"><ele>669.0</ele><time>2026-04-01T15:05:55Z</time></trkpt><trkpt lat="45.678327256212135" lon="11.322889311267598"><ele>669.0</ele><time>2026-04-01T15:05:56Z</time></trkpt><trkpt lat="45.678314786246446" lon="11.3230177964535"><ele>669.0</ele><time>2026-04-01T15:05:57Z</time></trkpt><trkpt lat="45.678275096166246" lon="11.323165253827716"><ele>669.0</ele><time>2026-04-01T15:05:59Z</time></trkpt><trkpt lat="45.678220475013575" lon="11.323267155778213"><ele>669.0</ele><time>2026-04-01T15:06:01Z</time></trkpt><trkpt lat="45.67818878963862" lon="11.32336038408151"><ele>669.0</ele><time>2026-04-01T15:06:02Z</time></trkpt><trkpt lat="45.67815879429973" lon="11.323475267675846"><ele>669.0</ele><time>2026-04-01T15:06:03Z</time></trkpt><trkpt lat="45.67814534287571" lon="11.323585010515378"><ele>666.0</ele><time>2026-04-01T15:06:04Z</time></trkpt><trkpt lat="45.678127127526814" lon="11.323714824957397"><ele>663.0</ele><time>2026-04-01T15:06:05Z</time></trkpt><trkpt lat="45.67814402814111" lon="11.323886070253774"><ele>660.0</ele><time>2026-04-01T15:06:06Z</time></trkpt><trkpt lat="45.678181122385304" lon="11.324048423110339"><ele>657.0</ele><time>2026-04-01T15:06:07Z</time></trkpt><trkpt lat="45.67821478686781" lon="11.324187945961977"><ele>654.0</ele><time>2026-04-01T15:06:08Z</time></trkpt><trkpt lat="45.678229453901096" lon="11.324333512723689"><ele>652.0</ele><time>2026-04-01T15:06:09Z</time></trkpt><trkpt lat="45.678241111167736" lon="11.324465648160619"><ele>650.0</ele><time>2026-04-01T15:06:10Z</time></trkpt><trkpt lat="45.678244698143374" lon="11.324587242831129"><ele>648.0</ele><time>2026-04-01T15:06:11Z</time></trkpt><trkpt lat="45.678235647254525" lon="11.324715931661892"><ele>646.0</ele><time>2026-04-01T15:06:12Z</time></trkpt><trkpt lat="45.678188614431235" lon="11.32483786455216"><ele>644.0</ele><time>2026-04-01T15:06:13Z</time></trkpt><trkpt lat="45.67813542477834" lon="11.324980625144356"><ele>642.2</ele><time>2026-04-01T15:06:14Z</time></trkpt><trkpt lat="45.678052207830596" lon="11.325100077226795"><ele>640.4000000000001</ele><time>2026-04-01T15:06:15Z</time></trkpt><trkpt lat="45.67797118358738" lon="11.32516973367542"><ele>638.6</ele><time>2026-04-01T15:06:16Z</time></trkpt><trkpt lat="45.67790089897637" lon="11.325267031629197"><ele>636.8</ele><time>2026-04-01T15:06:17Z</time></trkpt><trkpt lat="45.677853346957235" lon="11.325413846286786"><ele>635.0</ele><time>2026-04-01T15:06:18Z</time></trkpt><trkpt lat="45.67779555064593" lon="11.325571520521306"><ele>638.0</ele><time>2026-04-01T15:06:19Z</time></trkpt><trkpt lat="45.677731744590766" lon="11.32571862997406"><ele>641.0</ele><time>2026-04-01T15:06:20Z</time></trkpt><trkpt lat="45.67767784051869" lon="11.32582712371875"><ele>644.0</ele><time>2026-04-01T15:06:21Z</time></trkpt><trkpt lat="45.677627525775776" lon="11.325912362376933"><ele>647.0</ele><time>2026-04-01T15:06:22Z</time></trkpt><trkpt lat="45.677571319043864" lon="11.326008308003534"><ele>650.0</ele><time>2026-04-01T15:06:23Z</time></trkpt><trkpt lat="45.67748646359515" lon="11.326109527384931"><ele>650.0</ele><time>2026-04-01T15:06:24Z</time></trkpt><trkpt lat="45.67741294757558" lon="11.326231301329441"><ele>650.0</ele><time>2026-04-01T15:06:25Z</time></trkpt><trkpt lat="45.67735703847074" lon="11.326361338846022"><ele>650.0</ele><time>2026-04-01T15:06:26Z</time></trkpt><trkpt lat="45.67731987094974" lon="11.326501142332683"><ele>650.0</ele><time>2026-04-01T15:06:27Z</time></trkpt><trkpt lat="45.6772726179346" lon="11.326643570919199"><ele>650.0</ele><time>2026-04-01T15:06:28Z</time></trkpt><trkpt lat="45.677238288621844" lon="11.326752548102288"><ele>648.3333333333333</ele><time>2026-04-01T15:06:29Z</time></trkpt><trkpt lat="45.67719953339945" lon="11.326857055236324"><ele>646.6666666666666</ele><time>2026-04-01T15:06:31Z</time></trkpt><trkpt lat="45.6771718619546" lon="11.326939002039305"><ele>645.0</ele><time>2026-04-01T15:06:34Z</time></trkpt><trkpt lat="45.6771813175856" lon="11.326768291144909"><ele>643.3333333333334</ele><time>2026-04-01T15:06:35Z</time></trkpt><trkpt lat="45.67716705720834" lon="11.326663881089068"><ele>641.6666666666667</ele><time>2026-04-01T15:06:36Z</time></trkpt><trkpt lat="45.67715394793708" lon="11.326567899081558"><ele>640.0</ele><time>2026-04-01T15:06:37Z</time></trkpt><trkpt lat="45.67712822105375" lon="11.326455195925128"><ele>642.0</ele><time>2026-04-01T15:06:38Z</time></trkpt><trkpt lat="45.677115639261096" lon="11.326348669449288"><ele>644.0</ele><time>2026-04-01T15:06:39Z</time></trkpt><trkpt lat="45.67709777687288" lon="11.326225295528435"><ele>646.0</ele><time>2026-04-01T15:06:40Z</time></trkpt><trkpt lat="45.67707242217163" lon="11.326081508853918"><ele>648.0</ele><time>2026-04-01T15:06:41Z</time></trkpt><trkpt lat="45.6770463107494" lon="11.325971135701801"><ele>650.0</ele><time>2026-04-01T15:06:42Z</time></trkpt><trkpt lat="45.67696346501763" lon="11.325856053695805"><ele>651.2</ele><time>2026-04-01T15:06:43Z</time></trkpt><trkpt lat="45.676881741407556" lon="11.325728648513186"><ele>652.4</ele><time>2026-04-01T15:06:44Z</time></trkpt><trkpt lat="45.676805717386365" lon="11.325598213282493"><ele>653.5999999999999</ele><time>2026-04-01T15:06:45Z</time></trkpt><trkpt lat="45.67675478098665" lon="11.325465109472363"><ele>654.8</ele><time>2026-04-01T15:06:46Z</time></trkpt><trkpt lat="45.67670010955011" lon="11.325364014713694"><ele>656.0</ele><time>2026-04-01T15:06:47Z</time></trkpt><trkpt lat="45.6766379567166" lon="11.325285137736811"><ele>659.5999999999999</ele><time>2026-04-01T15:06:48Z</time></trkpt><trkpt lat="45.67657595631211" lon="11.325173445858244"><ele>663.2</ele><time>2026-04-01T15:06:49Z</time></trkpt><trkpt lat="45.67649814316656" lon="11.325101027670595"><ele>666.8</ele><time>2026-04-01T15:06:50Z</time></trkpt><trkpt lat="45.67642287354943" lon="11.325033940359779"><ele>670.4000000000001</ele><time>2026-04-01T15:06:51Z</time></trkpt><trkpt lat="45.676349545061655" lon="11.324968373800864"><ele>674.0</ele><time>2026-04-01T15:06:52Z</time></trkpt><trkpt lat="45.676267652815845" lon="11.324879427101525"><ele>674.0</ele><time>2026-04-01T15:06:53Z</time></trkpt><trkpt lat="45.67619392439851" lon="11.324765191192402"><ele>674.0</ele><time>2026-04-01T15:06:54Z</time></trkpt><trkpt lat="45.6761351621687" lon="11.324650818621802"><ele>674.0</ele><time>2026-04-01T15:06:55Z</time></trkpt><trkpt lat="45.676100533146915" lon="11.324536972114316"><ele>674.0</ele><time>2026-04-01T15:06:56Z</time></trkpt><trkpt lat="45.67606873894396" lon="11.324394967419497"><ele>674.0</ele><time>2026-04-01T15:06:57Z</time></trkpt><trkpt lat="45.67602947773688" lon="11.324279307929968"><ele>673.6</ele><time>2026-04-01T15:06:58Z</time></trkpt><trkpt lat="45.676010927633016" lon="11.324174001933855"><ele>673.2</ele><time>2026-04-01T15:06:59Z</time></trkpt><trkpt lat="45.67599960490748" lon="11.323988368173486"><ele>672.8000000000001</ele><time>2026-04-01T15:07:01Z</time></trkpt><trkpt lat="45.67603463343475" lon="11.323853457442624"><ele>672.4000000000001</ele><time>2026-04-01T15:07:02Z</time></trkpt><trkpt lat="45.6760919338501" lon="11.323732698390957"><ele>672.0</ele><time>2026-04-01T15:07:03Z</time></trkpt><trkpt lat="45.67610497686461" lon="11.323614832529742"><ele>672.0</ele><time>2026-04-01T15:07:04Z</time></trkpt><trkpt lat="45.676099406232765" lon="11.323482910157587"><ele>672.0</ele><time>2026-04-01T15:07:05Z</time></trkpt><trkpt lat="45.67608983222834" lon="11.32337023982099"><ele>672.0</ele><time>2026-04-01T15:07:06Z</time></trkpt><trkpt lat="45.67608457848617" lon="11.323256785461723"><ele>672.0</ele><time>2026-04-01T15:07:07Z</time></trkpt><trkpt lat="45.676104388136736" lon="11.323139223297332"><ele>672.0</ele><time>2026-04-01T15:07:08Z</time></trkpt><trkpt lat="45.676137317732355" lon="11.32302155503134"><ele>672.0</ele><time>2026-04-01T15:07:09Z</time></trkpt><trkpt lat="45.6761712747607" lon="11.322920997402932"><ele>678.0</ele><time>2026-04-01T15:07:10Z</time></trkpt><trkpt lat="45.67618415903025" lon="11.32272562097911"><ele>684.0</ele><time>2026-04-01T15:07:12Z</time></trkpt><trkpt lat="45.676202905408125" lon="11.322586636704326"><ele>690.0</ele><time>2026-04-01T15:07:13Z</time></trkpt><trkpt lat="45.67623422127859" lon="11.322448451363957"><ele>696.0</ele><time>2026-04-01T15:07:14Z</time></trkpt><trkpt lat="45.676254457098786" lon="11.322288347900871"><ele>695.5999999999999</ele><time>2026-04-01T15:07:15Z</time></trkpt><trkpt lat="45.676276393619716" lon="11.322167692912098"><ele>695.2</ele><time>2026-04-01T15:07:16Z</time></trkpt><trkpt lat="45.67623630405799" lon="11.322076173738616"><ele>694.8</ele><time>2026-04-01T15:07:18Z</time></trkpt><trkpt lat="45.676109005666696" lon="11.321971122863868"><ele>694.4000000000001</ele><time>2026-04-01T15:07:20Z</time></trkpt><trkpt lat="45.67601385028052" lon="11.321932669601102"><ele>694.0</ele><time>2026-04-01T15:07:21Z</time></trkpt><trkpt lat="45.675922423139525" lon="11.32187246449887"><ele>694.0</ele><time>2026-04-01T15:07:22Z</time></trkpt><trkpt lat="45.67589037645598" lon="11.321709059907858"><ele>694.0</ele><time>2026-04-01T15:07:24Z</time></trkpt><trkpt lat="45.6758244102755" lon="11.321583905915626"><ele>694.0</ele><time>2026-04-01T15:07:25Z</time></trkpt><trkpt lat="45.67577242970144" lon="11.321497630399227"><ele>694.0</ele><time>2026-04-01T15:07:26Z</time></trkpt><trkpt lat="45.67571148307157" lon="11.321422051597693"><ele>694.0</ele><time>2026-04-01T15:07:27Z</time></trkpt><trkpt lat="45.67564322063262" lon="11.3213979383913"><ele>694.0</ele><time>2026-04-01T15:07:28Z</time></trkpt><trkpt lat="45.67547735162384" lon="11.321399389563128"><ele>694.0</ele><time>2026-04-01T15:07:30Z</time></trkpt><trkpt lat="45.675372279167064" lon="11.32143837262043"><ele>694.0</ele><time>2026-04-01T15:07:31Z</time></trkpt><trkpt lat="45.67526738196853" lon="11.32149269157634"><ele>694.0</ele><time>2026-04-01T15:07:32Z</time></trkpt><trkpt lat="45.67516335624708" lon="11.321545365219054"><ele>693.3333333333334</ele><time>2026-04-01T15:07:33Z</time></trkpt><trkpt lat="45.67507170568293" lon="11.32158992617874"><ele>692.6666666666667</ele><time>2026-04-01T15:07:34Z</time></trkpt><trkpt lat="45.67499932182326" lon="11.321600511136202"><ele>692.0</ele><time>2026-04-01T15:07:35Z</time></trkpt><trkpt lat="45.67492209561068" lon="11.321600599355415"><ele>691.3333333333334</ele><time>2026-04-01T15:07:36Z</time></trkpt><trkpt lat="45.674858134186096" lon="11.321584795104226"><ele>690.6666666666666</ele><time>2026-04-01T15:07:37Z</time></trkpt><trkpt lat="45.67478337934068" lon="11.321550934907478"><ele>690.0</ele><time>2026-04-01T15:07:38Z</time></trkpt><trkpt lat="45.6747110772605" lon="11.321491925196923"><ele>690.0</ele><time>2026-04-01T15:07:39Z</time></trkpt><trkpt lat="45.674635281737544" lon="11.321410741143982"><ele>690.0</ele><time>2026-04-01T15:07:40Z</time></trkpt><trkpt lat="45.674572392599664" lon="11.321320751247388"><ele>690.0</ele><time>2026-04-01T15:07:41Z</time></trkpt><trkpt lat="45.674527334462944" lon="11.32123841665231"><ele>690.0</ele><time>2026-04-01T15:07:42Z</time></trkpt><trkpt lat="45.674478638623974" lon="11.32116409215867"><ele>690.0</ele><time>2026-04-01T15:07:43Z</time></trkpt><trkpt lat="45.674390676236584" lon="11.321081565833257"><ele>690.0</ele><time>2026-04-01T15:07:45Z</time></trkpt><trkpt lat="45.67434571683932" lon="11.320982337927658"><ele>689.0</ele><time>2026-04-01T15:07:47Z</time></trkpt><trkpt lat="45.6742628001216" lon="11.320870859032707"><ele>688.0</ele><time>2026-04-01T15:07:50Z</time></trkpt><trkpt lat="45.674052908397364" lon="11.321056861085728"><ele>687.0</ele><time>2026-04-01T15:07:51Z</time></trkpt><trkpt lat="45.67396853059175" lon="11.321055464949955"><ele>686.0</ele><time>2026-04-01T15:07:52Z</time></trkpt><trkpt lat="45.67388880646713" lon="11.321063310669384"><ele>686.0</ele><time>2026-04-01T15:07:53Z</time></trkpt><trkpt lat="45.67378181450468" lon="11.321070777524609"><ele>686.0</ele><time>2026-04-01T15:07:54Z</time></trkpt><trkpt lat="45.67366917708834" lon="11.321080854341474"><ele>686.0</ele><time>2026-04-01T15:07:55Z</time></trkpt><trkpt lat="45.67357590321854" lon="11.321087984588035"><ele>686.0</ele><time>2026-04-01T15:07:56Z</time></trkpt><trkpt lat="45.67347332448041" lon="11.321080367001226"><ele>686.0</ele><time>2026-04-01T15:07:57Z</time></trkpt><trkpt lat="45.673373445421134" lon="11.321089719703918"><ele>684.1999999999999</ele><time>2026-04-01T15:07:58Z</time></trkpt><trkpt lat="45.67326636450288" lon="11.321101651729748"><ele>682.4</ele><time>2026-04-01T15:07:59Z</time></trkpt><trkpt lat="45.67315669625021" lon="11.321120436696688"><ele>680.6</ele><time>2026-04-01T15:08:00Z</time></trkpt><trkpt lat="45.67308157138497" lon="11.32112970566043"><ele>678.8</ele><time>2026-04-01T15:08:01Z</time></trkpt><trkpt lat="45.67299794461974" lon="11.321150765969973"><ele>677.0</ele><time>2026-04-01T15:08:02Z</time></trkpt><trkpt lat="45.67290913120679" lon="11.321169174391942"><ele>677.0</ele><time>2026-04-01T15:08:03Z</time></trkpt><trkpt lat="45.672828585596896" lon="11.321184452720745"><ele>677.0</ele><time>2026-04-01T15:08:04Z</time></trkpt><trkpt lat="45.672750513430316" lon="11.321204624268946"><ele>677.0</ele><time>2026-04-01T15:08:05Z</time></trkpt><trkpt lat="45.67269194281179" lon="11.32124183299441"><ele>677.0</ele><time>2026-04-01T15:08:06Z</time></trkpt><trkpt lat="45.672601993402715" lon="11.321351683565005"><ele>677.0</ele><time>2026-04-01T15:08:08Z</time></trkpt><trkpt lat="45.67255243341537" lon="11.321422494383397"><ele>677.0</ele><time>2026-04-01T15:08:09Z</time></trkpt><trkpt lat="45.67249880272569" lon="11.32149066335559"><ele>678.0</ele><time>2026-04-01T15:08:10Z</time></trkpt><trkpt lat="45.67245123562689" lon="11.32157535039113"><ele>679.0</ele><time>2026-04-01T15:08:11Z</time></trkpt><trkpt lat="45.672372887371026" lon="11.321736729446611"><ele>680.0</ele><time>2026-04-01T15:08:13Z</time></trkpt><trkpt lat="45.672306866578374" lon="11.321835532450493"><ele>681.0</ele><time>2026-04-01T15:08:14Z</time></trkpt><trkpt lat="45.672244195607746" lon="11.32191944783673"><ele>682.0</ele><time>2026-04-01T15:08:15Z</time></trkpt><trkpt lat="45.67219674001841" lon="11.321989493184422"><ele>682.0</ele><time>2026-04-01T15:08:16Z</time></trkpt><trkpt lat="45.67210514733288" lon="11.322143789203821"><ele>682.0</ele><time>2026-04-01T15:08:18Z</time></trkpt><trkpt lat="45.6720402599792" lon="11.322241495414884"><ele>682.0</ele><time>2026-04-01T15:08:19Z</time></trkpt><trkpt lat="45.671976702985056" lon="11.322341269755631"><ele>682.0</ele><time>2026-04-01T15:08:20Z</time></trkpt><trkpt lat="45.67191538223719" lon="11.322424919953326"><ele>682.0</ele><time>2026-04-01T15:08:21Z</time></trkpt><trkpt lat="45.67184981021739" lon="11.32252552089166"><ele>680.6</ele><time>2026-04-01T15:08:22Z</time></trkpt><trkpt lat="45.67179744902285" lon="11.322603665965929"><ele>679.2</ele><time>2026-04-01T15:08:23Z</time></trkpt><trkpt lat="45.67172799099514" lon="11.322700699717865"><ele>677.8</ele><time>2026-04-01T15:08:24Z</time></trkpt><trkpt lat="45.67164488595867" lon="11.322837378117901"><ele>676.4</ele><time>2026-04-01T15:08:26Z</time></trkpt><trkpt lat="45.671584805188225" lon="11.322984094944907"><ele>675.0</ele><time>2026-04-01T15:08:28Z</time></trkpt><trkpt lat="45.67157167145507" lon="11.323145067548994"><ele>675.0</ele><time>2026-04-01T15:08:30Z</time></trkpt><trkpt lat="45.671564944346024" lon="11.323244391654832"><ele>675.0</ele><time>2026-04-01T15:08:31Z</time></trkpt><trkpt lat="45.67155278505723" lon="11.323401705969209"><ele>675.0</ele><time>2026-04-01T15:08:33Z</time></trkpt><trkpt lat="45.671552149796284" lon="11.323511230273816"><ele>675.0</ele><time>2026-04-01T15:08:34Z</time></trkpt><trkpt lat="45.671551822971445" lon="11.323613044645482"><ele>675.0</ele><time>2026-04-01T15:08:35Z</time></trkpt><trkpt lat="45.67158340324273" lon="11.323736414060326"><ele>675.0</ele><time>2026-04-01T15:08:37Z</time></trkpt><trkpt lat="45.671616637988315" lon="11.32382596110093"><ele>675.2</ele><time>2026-04-01T15:08:38Z</time></trkpt><trkpt lat="45.67161838733728" lon="11.324008336408813"><ele>675.4</ele><time>2026-04-01T15:08:40Z</time></trkpt><trkpt lat="45.67161262555897" lon="11.324106398730493"><ele>675.5999999999999</ele><time>2026-04-01T15:08:41Z</time></trkpt><trkpt lat="45.67158829381019" lon="11.324255878705314"><ele>675.8</ele><time>2026-04-01T15:08:43Z</time></trkpt><trkpt lat="45.671534065520824" lon="11.324388100609548"><ele>676.0</ele><time>2026-04-01T15:08:45Z</time></trkpt><trkpt lat="45.671477457166006" lon="11.324545901009419"><ele>676.0</ele><time>2026-04-01T15:08:47Z</time></trkpt><trkpt lat="45.67139341356014" lon="11.32463707003309"><ele>676.0</ele><time>2026-04-01T15:08:49Z</time></trkpt><trkpt lat="45.67134319021009" lon="11.32469618495557"><ele>676.0</ele><time>2026-04-01T15:08:50Z</time></trkpt><trkpt lat="45.671273174091816" lon="11.324794496629018"><ele>676.0</ele><time>2026-04-01T15:08:51Z</time></trkpt><trkpt lat="45.67121575422755" lon="11.324886151146872"><ele>676.0</ele><time>2026-04-01T15:08:52Z</time></trkpt><trkpt lat="45.671168235617515" lon="11.32498513171116"><ele>676.0</ele><time>2026-04-01T15:08:53Z</time></trkpt><trkpt lat="45.671117848448574" lon="11.325179687603644"><ele>676.1999999999999</ele><time>2026-04-01T15:08:55Z</time></trkpt><trkpt lat="45.67106898166274" lon="11.325382521055877"><ele>676.4</ele><time>2026-04-01T15:08:57Z</time></trkpt><trkpt lat="45.671058833637" lon="11.325543192872635"><ele>676.6</ele><time>2026-04-01T15:08:59Z</time></trkpt><trkpt lat="45.671048790946514" lon="11.325652741161154"><ele>676.8</ele><time>2026-04-01T15:09:00Z</time></trkpt><trkpt lat="45.67105070969232" lon="11.325762346510608"><ele>677.0</ele><time>2026-04-01T15:09:01Z</time></trkpt><trkpt lat="45.67113818255749" lon="11.325892874720916"><ele>677.0</ele><time>2026-04-01T15:09:03Z</time></trkpt><trkpt lat="45.67121279879969" lon="11.326012571291365"><ele>677.0</ele><time>2026-04-01T15:09:05Z</time></trkpt><trkpt lat="45.67128319101044" lon="11.326136262730763"><ele>677.0</ele><time>2026-04-01T15:09:07Z</time></trkpt><trkpt lat="45.671340502298456" lon="11.326277573026927"><ele>677.0</ele><time>2026-04-01T15:09:09Z</time></trkpt><trkpt lat="45.67133037375823" lon="11.326439237726875"><ele>674.0</ele><time>2026-04-01T15:09:11Z</time></trkpt><trkpt lat="45.67125872004738" lon="11.326575790410276"><ele>671.0</ele><time>2026-04-01T15:09:13Z</time></trkpt><trkpt lat="45.67115835742661" lon="11.326686453137139"><ele>668.0</ele><time>2026-04-01T15:09:15Z</time></trkpt><trkpt lat="45.67109980822564" lon="11.32674789772734"><ele>665.0</ele><time>2026-04-01T15:09:16Z</time></trkpt><trkpt lat="45.67103515743086" lon="11.3268222883743"><ele>662.0</ele><time>2026-04-01T15:09:18Z</time></trkpt><trkpt lat="45.67096979471066" lon="11.326819716950157"><ele>661.0</ele><time>2026-04-01T15:09:21Z</time></trkpt><trkpt lat="45.67089375063723" lon="11.3266724619259"><ele>660.0</ele><time>2026-04-01T15:09:23Z</time></trkpt><trkpt lat="45.67084375879445" lon="11.326577410147674"><ele>659.0</ele><time>2026-04-01T15:09:24Z</time></trkpt><trkpt lat="45.670783360505105" lon="11.32649037614266"><ele>658.0</ele><time>2026-04-01T15:09:25Z</time></trkpt><trkpt lat="45.67070579138793" lon="11.32640103537697"><ele>657.0</ele><time>2026-04-01T15:09:26Z</time></trkpt><trkpt lat="45.670628772826376" lon="11.326338794641195"><ele>657.0</ele><time>2026-04-01T15:09:27Z</time></trkpt><trkpt lat="45.67052180641179" lon="11.326292229472914"><ele>657.0</ele><time>2026-04-01T15:09:29Z</time></trkpt><trkpt lat="45.67043283202919" lon="11.326227471183373"><ele>657.0</ele><time>2026-04-01T15:09:31Z</time></trkpt><trkpt lat="45.67031035730638" lon="11.32628746181063"><ele>657.0</ele><time>2026-04-01T15:09:33Z</time></trkpt><trkpt lat="45.67023868957254" lon="11.326338348155963"><ele>657.0</ele><time>2026-04-01T15:09:34Z</time></trkpt><trkpt lat="45.67015497655394" lon="11.326408744963315"><ele>655.0</ele><time>2026-04-01T15:09:35Z</time></trkpt><trkpt lat="45.670063484886875" lon="11.326441048015338"><ele>653.0</ele><time>2026-04-01T15:09:36Z</time></trkpt><trkpt lat="45.66999822145103" lon="11.326410145263955"><ele>651.0</ele><time>2026-04-01T15:09:37Z</time></trkpt><trkpt lat="45.66988569462933" lon="11.326370563811453"><ele>649.0</ele><time>2026-04-01T15:09:39Z</time></trkpt><trkpt lat="45.669814001130774" lon="11.326333448314887"><ele>647.0</ele><time>2026-04-01T15:09:40Z</time></trkpt><trkpt lat="45.66974863545335" lon="11.326294058592975"><ele>645.0</ele><time>2026-04-01T15:09:41Z</time></trkpt><trkpt lat="45.669652225391225" lon="11.326239437496284"><ele>644.8</ele><time>2026-04-01T15:09:42Z</time></trkpt><trkpt lat="45.669566153844286" lon="11.326192733994237"><ele>644.6</ele><time>2026-04-01T15:09:43Z</time></trkpt><trkpt lat="45.6694854663627" lon="11.326151634027905"><ele>644.4000000000001</ele><time>2026-04-01T15:09:44Z</time></trkpt><trkpt lat="45.669400671253214" lon="11.326115817735332"><ele>644.2</ele><time>2026-04-01T15:09:45Z</time></trkpt><trkpt lat="45.66928612071441" lon="11.326095069074741"><ele>644.0</ele><time>2026-04-01T15:09:46Z</time></trkpt><trkpt lat="45.66920677203958" lon="11.3260890414426"><ele>643.2</ele><time>2026-04-01T15:09:47Z</time></trkpt><trkpt lat="45.66913625423764" lon="11.326075809546118"><ele>642.4000000000001</ele><time>2026-04-01T15:09:48Z</time></trkpt><trkpt lat="45.66902687868792" lon="11.326055489776298"><ele>641.6</ele><time>2026-04-01T15:09:50Z</time></trkpt><trkpt lat="45.668899784695036" lon="11.326052081002363"><ele>640.8</ele><time>2026-04-01T15:09:52Z</time></trkpt><trkpt lat="45.66880095614887" lon="11.326032713360673"><ele>640.0</ele><time>2026-04-01T15:09:54Z</time></trkpt><trkpt lat="45.66873972790116" lon="11.32605375984532"><ele>640.0</ele><time>2026-04-01T15:09:55Z</time></trkpt><trkpt lat="45.66864737618675" lon="11.326107490835692"><ele>640.0</ele><time>2026-04-01T15:09:56Z</time></trkpt><trkpt lat="45.66857566227867" lon="11.326125444590161"><ele>640.0</ele><time>2026-04-01T15:09:57Z</time></trkpt><trkpt lat="45.66851053401273" lon="11.326151050044249"><ele>640.0</ele><time>2026-04-01T15:09:58Z</time></trkpt><trkpt lat="45.66842953326204" lon="11.326202440142051"><ele>640.0</ele><time>2026-04-01T15:10:00Z</time></trkpt><trkpt lat="45.66833642351828" lon="11.326270852580382"><ele>640.0</ele><time>2026-04-01T15:10:02Z</time></trkpt><trkpt lat="45.668327412885624" lon="11.326373291722025"><ele>641.2</ele><time>2026-04-01T15:10:04Z</time></trkpt><trkpt lat="45.66830716584142" lon="11.326491248889198"><ele>642.4</ele><time>2026-04-01T15:10:06Z</time></trkpt><trkpt lat="45.66826279324161" lon="11.326625889795752"><ele>643.5999999999999</ele><time>2026-04-01T15:10:08Z</time></trkpt><trkpt lat="45.668233397648706" lon="11.326714616615153"><ele>644.8</ele><time>2026-04-01T15:10:09Z</time></trkpt><trkpt lat="45.668188800520596" lon="11.326849228536824"><ele>646.0</ele><time>2026-04-01T15:10:11Z</time></trkpt><trkpt lat="45.66814657591929" lon="11.32697667924023"><ele>646.0</ele><time>2026-04-01T15:10:13Z</time></trkpt><trkpt lat="45.667865107824085" lon="11.326924868462582"><ele>646.0</ele><time>2026-04-01T15:10:15Z</time></trkpt><trkpt lat="45.6677679169127" lon="11.326900788387457"><ele>646.0</ele><time>2026-04-01T15:10:17Z</time></trkpt><trkpt lat="45.66765221661072" lon="11.326862219665598"><ele>648.5999999999999</ele><time>2026-04-01T15:10:19Z</time></trkpt><trkpt lat="45.66757715654147" lon="11.326853874907034"><ele>651.2</ele><time>2026-04-01T15:10:20Z</time></trkpt><trkpt lat="45.6674623430442" lon="11.326843306051622"><ele>653.8</ele><time>2026-04-01T15:10:22Z</time></trkpt><trkpt lat="45.6673562457531" lon="11.326768064080154"><ele>656.4000000000001</ele><time>2026-04-01T15:10:24Z</time></trkpt><trkpt lat="45.66722927670552" lon="11.326750645314922"><ele>659.0</ele><time>2026-04-01T15:10:26Z</time></trkpt><trkpt lat="45.66716120346407" lon="11.32672131606903"><ele>659.0</ele><time>2026-04-01T15:10:27Z</time></trkpt><trkpt lat="45.66705793534079" lon="11.326654433172527"><ele>659.0</ele><time>2026-04-01T15:10:29Z</time></trkpt><trkpt lat="45.66697861881211" lon="11.32661113084851"><ele>659.0</ele><time>2026-04-01T15:10:30Z</time></trkpt><trkpt lat="45.666910508300774" lon="11.326585776797677"><ele>659.0</ele><time>2026-04-01T15:10:32Z</time></trkpt><trkpt lat="45.66680540789802" lon="11.326636742350855"><ele>659.0</ele><time>2026-04-01T15:10:34Z</time></trkpt><trkpt lat="45.66674016360971" lon="11.326690245298348"><ele>659.6666666666666</ele><time>2026-04-01T15:10:35Z</time></trkpt><trkpt lat="45.666667647070796" lon="11.326755358145858"><ele>660.3333333333333</ele><time>2026-04-01T15:10:36Z</time></trkpt><trkpt lat="45.66656662280633" lon="11.326865310058535"><ele>661.0</ele><time>2026-04-01T15:10:38Z</time></trkpt><trkpt lat="45.66649643200669" lon="11.326901852535682"><ele>661.6666666666666</ele><time>2026-04-01T15:10:39Z</time></trkpt><trkpt lat="45.66643088101692" lon="11.326953839926125"><ele>662.3333333333334</ele><time>2026-04-01T15:10:40Z</time></trkpt><trkpt lat="45.66638669511423" lon="11.327021975463255"><ele>663.0</ele><time>2026-04-01T15:10:41Z</time></trkpt><trkpt lat="45.66634619972056" lon="11.32709397360869"><ele>663.0</ele><time>2026-04-01T15:10:42Z</time></trkpt><trkpt lat="45.66629352506906" lon="11.32719432676564"><ele>663.0</ele><time>2026-04-01T15:10:43Z</time></trkpt><trkpt lat="45.666257506590405" lon="11.327282305894194"><ele>663.0</ele><time>2026-04-01T15:10:44Z</time></trkpt><trkpt lat="45.66621735925796" lon="11.327452198568997"><ele>663.0</ele><time>2026-04-01T15:10:46Z</time></trkpt><trkpt lat="45.66618971441582" lon="11.327593488577584"><ele>663.0</ele><time>2026-04-01T15:10:48Z</time></trkpt><trkpt lat="45.666143067798785" lon="11.327709790689395"><ele>663.1666666666666</ele><time>2026-04-01T15:10:50Z</time></trkpt><trkpt lat="45.666079249775066" lon="11.327763272150213"><ele>663.3333333333334</ele><time>2026-04-01T15:10:52Z</time></trkpt><trkpt lat="45.66601150938875" lon="11.327783435073224"><ele>663.5</ele><time>2026-04-01T15:10:53Z</time></trkpt><trkpt lat="45.665948978803534" lon="11.327797562194014"><ele>663.6666666666667</ele><time>2026-04-01T15:10:54Z</time></trkpt><trkpt lat="45.66585537628643" lon="11.327818198148176"><ele>663.8333333333334</ele><time>2026-04-01T15:10:55Z</time></trkpt><trkpt lat="45.66577211199387" lon="11.327846503865091"><ele>664.0</ele><time>2026-04-01T15:10:56Z</time></trkpt><trkpt lat="45.665709837006595" lon="11.327885270546446"><ele>664.0</ele><time>2026-04-01T15:10:57Z</time></trkpt><trkpt lat="45.66562031393098" lon="11.327925263331219"><ele>664.0</ele><time>2026-04-01T15:10:59Z</time></trkpt><trkpt lat="45.665550359513404" lon="11.327908143010019"><ele>664.0</ele><time>2026-04-01T15:11:01Z</time></trkpt><trkpt lat="45.665475808472394" lon="11.327825112973581"><ele>664.0</ele><time>2026-04-01T15:11:03Z</time></trkpt><trkpt lat="45.66540403460101" lon="11.327779867573232"><ele>664.0</ele><time>2026-04-01T15:11:05Z</time></trkpt><trkpt lat="45.665312945424404" lon="11.327775545904224"><ele>664.0</ele><time>2026-04-01T15:11:07Z</time></trkpt><trkpt lat="45.66523295731718" lon="11.3276707110955"><ele>665.3333333333334</ele><time>2026-04-01T15:11:09Z</time></trkpt><trkpt lat="45.665167200773375" lon="11.32761531594084"><ele>666.6666666666667</ele><time>2026-04-01T15:11:11Z</time></trkpt><trkpt lat="45.66510310155401" lon="11.327612127514747"><ele>668.0</ele><time>2026-04-01T15:11:13Z</time></trkpt><trkpt lat="45.66502371053906" lon="11.32766470651716"><ele>669.3333333333334</ele><time>2026-04-01T15:11:15Z</time></trkpt><trkpt lat="45.66494594665424" lon="11.327695204889404"><ele>670.6666666666666</ele><time>2026-04-01T15:11:17Z</time></trkpt><trkpt lat="45.66486091458473" lon="11.327695806417887"><ele>672.0</ele><time>2026-04-01T15:11:19Z</time></trkpt><trkpt lat="45.664810668434114" lon="11.327619784193406"><ele>672.0</ele><time>2026-04-01T15:11:21Z</time></trkpt><trkpt lat="45.66476921473912" lon="11.327496415869604"><ele>672.0</ele><time>2026-04-01T15:11:24Z</time></trkpt><trkpt lat="45.664727138694" lon="11.327420172566422"><ele>672.0</ele><time>2026-04-01T15:11:26Z</time></trkpt><trkpt lat="45.66466436312923" lon="11.327376830910842"><ele>672.0</ele><time>2026-04-01T15:11:28Z</time></trkpt><trkpt lat="45.664580685229666" lon="11.327345468034753"><ele>672.0</ele><time>2026-04-01T15:11:30Z</time></trkpt><trkpt lat="45.6644698322369" lon="11.327345406901793"><ele>672.0</ele><time>2026-04-01T15:11:32Z</time></trkpt><trkpt lat="45.664341558996604" lon="11.327380138571383"><ele>675.0</ele><time>2026-04-01T15:11:34Z</time></trkpt><trkpt lat="45.664243453635265" lon="11.327420570582158"><ele>678.0</ele><time>2026-04-01T15:11:35Z</time></trkpt><trkpt lat="45.6641555894691" lon="11.327458091711637"><ele>681.0</ele><time>2026-04-01T15:11:36Z</time></trkpt><trkpt lat="45.66407053761904" lon="11.327537447170716"><ele>684.0</ele><time>2026-04-01T15:11:38Z</time></trkpt><trkpt lat="45.6640015575291" lon="11.327623783614703"><ele>687.0</ele><time>2026-04-01T15:11:40Z</time></trkpt><trkpt lat="45.66393851227828" lon="11.327725663900457"><ele>687.0</ele><time>2026-04-01T15:11:42Z</time></trkpt><trkpt lat="45.66390447439107" lon="11.327869894027334"><ele>687.0</ele><time>2026-04-01T15:11:44Z</time></trkpt><trkpt lat="45.66386212178879" lon="11.32794684691928"><ele>687.0</ele><time>2026-04-01T15:11:45Z</time></trkpt><trkpt lat="45.66381066422506" lon="11.328011048449069"><ele>687.0</ele><time>2026-04-01T15:11:46Z</time></trkpt><trkpt lat="45.66371252015167" lon="11.328107375994103"><ele>687.0</ele><time>2026-04-01T15:11:48Z</time></trkpt><trkpt lat="45.66362669822824" lon="11.328213796153783"><ele>687.3333333333334</ele><time>2026-04-01T15:11:50Z</time></trkpt><trkpt lat="45.663527198793304" lon="11.328354211966852"><ele>687.6666666666666</ele><time>2026-04-01T15:11:52Z</time></trkpt><trkpt lat="45.663478280558735" lon="11.328440607046154"><ele>688.0</ele><time>2026-04-01T15:11:53Z</time></trkpt><trkpt lat="45.66340800924731" lon="11.32852270320964"><ele>688.3333333333333</ele><time>2026-04-01T15:11:54Z</time></trkpt><trkpt lat="45.66334642260196" lon="11.328589712021532"><ele>688.6666666666666</ele><time>2026-04-01T15:11:55Z</time></trkpt><trkpt lat="45.66330074269866" lon="11.328651896059528"><ele>689.0</ele><time>2026-04-01T15:11:56Z</time></trkpt><trkpt lat="45.66323575864103" lon="11.328732014072825"><ele>689.0</ele><time>2026-04-01T15:11:57Z</time></trkpt><trkpt lat="45.66316070005763" lon="11.328751025875802"><ele>689.0</ele><time>2026-04-01T15:11:58Z</time></trkpt><trkpt lat="45.66306800037778" lon="11.328780353284229"><ele>689.0</ele><time>2026-04-01T15:11:59Z</time></trkpt><trkpt lat="45.662963997041054" lon="11.3287987573239"><ele>689.0</ele><time>2026-04-01T15:12:00Z</time></trkpt><trkpt lat="45.66289013454675" lon="11.32878761276692"><ele>689.0</ele><time>2026-04-01T15:12:01Z</time></trkpt><trkpt lat="45.66278064763739" lon="11.328759364986867"><ele>688.8333333333333</ele><time>2026-04-01T15:12:02Z</time></trkpt><trkpt lat="45.66271131885831" lon="11.32873216893262"><ele>688.6666666666666</ele><time>2026-04-01T15:12:03Z</time></trkpt><trkpt lat="45.66262569731357" lon="11.328699805227632"><ele>688.5</ele><time>2026-04-01T15:12:04Z</time></trkpt><trkpt lat="45.662549222573965" lon="11.328690583294328"><ele>688.3333333333334</ele><time>2026-04-01T15:12:05Z</time></trkpt><trkpt lat="45.662458672761744" lon="11.328698063429409"><ele>688.1666666666667</ele><time>2026-04-01T15:12:06Z</time></trkpt><trkpt lat="45.66237841910121" lon="11.328713907148302"><ele>688.0</ele><time>2026-04-01T15:12:07Z</time></trkpt><trkpt lat="45.66228852400809" lon="11.328795624972734"><ele>688.0</ele><time>2026-04-01T15:12:08Z</time></trkpt><trkpt lat="45.66220345986877" lon="11.328859019570777"><ele>688.0</ele><time>2026-04-01T15:12:09Z</time></trkpt><trkpt lat="45.66210327529418" lon="11.328971687273324"><ele>688.0</ele><time>2026-04-01T15:12:11Z</time></trkpt><trkpt lat="45.66201715229206" lon="11.32905478467141"><ele>688.0</ele><time>2026-04-01T15:12:12Z</time></trkpt><trkpt lat="45.661921494529345" lon="11.32912935773162"><ele>688.0</ele><time>2026-04-01T15:12:13Z</time></trkpt><trkpt lat="45.66185734320912" lon="11.329192967090673"><ele>690.5999999999999</ele><time>2026-04-01T15:12:14Z</time></trkpt><trkpt lat="45.66175101797809" lon="11.329233972967405"><ele>693.1999999999999</ele><time>2026-04-01T15:12:16Z</time></trkpt><trkpt lat="45.66167428480948" lon="11.329339493690131"><ele>695.8</ele><time>2026-04-01T15:12:18Z</time></trkpt><trkpt lat="45.66160148013781" lon="11.329460875673796"><ele>698.4</ele><time>2026-04-01T15:12:20Z</time></trkpt><trkpt lat="45.66151940364071" lon="11.32953579393265"><ele>701.0</ele><time>2026-04-01T15:12:22Z</time></trkpt><trkpt lat="45.66139640776107" lon="11.329502293105694"><ele>701.0</ele><time>2026-04-01T15:12:24Z</time></trkpt><trkpt lat="45.6613209456152" lon="11.32949670015581"><ele>701.0</ele><time>2026-04-01T15:12:25Z</time></trkpt><trkpt lat="45.661248994129096" lon="11.329492884972492"><ele>701.0</ele><time>2026-04-01T15:12:26Z</time></trkpt><trkpt lat="45.661175000460325" lon="11.329507857393596"><ele>701.0</ele><time>2026-04-01T15:12:27Z</time></trkpt><trkpt lat="45.661090636372236" lon="11.32950235243504"><ele>701.0</ele><time>2026-04-01T15:12:28Z</time></trkpt><trkpt lat="45.66100339735793" lon="11.329525708603063"><ele>701.0</ele><time>2026-04-01T15:12:29Z</time></trkpt><trkpt lat="45.66091069825029" lon="11.329578162375265"><ele>700.4</ele><time>2026-04-01T15:12:30Z</time></trkpt><trkpt lat="45.66081316387655" lon="11.329638481417135"><ele>699.8</ele><time>2026-04-01T15:12:31Z</time></trkpt><trkpt lat="45.660728736666194" lon="11.32969792792196"><ele>699.1999999999999</ele><time>2026-04-01T15:12:32Z</time></trkpt><trkpt lat="45.66065998350027" lon="11.32974854414141"><ele>698.5999999999999</ele><time>2026-04-01T15:12:33Z</time></trkpt><trkpt lat="45.66059972997205" lon="11.329793507225759"><ele>698.0</ele><time>2026-04-01T15:12:34Z</time></trkpt><trkpt lat="45.660496578652655" lon="11.329873249559983"><ele>698.0</ele><time>2026-04-01T15:12:36Z</time></trkpt><trkpt lat="45.66042885350155" lon="11.329925941997416"><ele>698.0</ele><time>2026-04-01T15:12:37Z</time></trkpt><trkpt lat="45.660369232312526" lon="11.329971703710019"><ele>698.0</ele><time>2026-04-01T15:12:38Z</time></trkpt><trkpt lat="45.66031179848373" lon="11.330009922194462"><ele>698.0</ele><time>2026-04-01T15:12:39Z</time></trkpt><trkpt lat="45.66020757909313" lon="11.33004638124823"><ele>698.0</ele><time>2026-04-01T15:12:41Z</time></trkpt><trkpt lat="45.66012734222819" lon="11.330045964757987"><ele>698.0</ele><time>2026-04-01T15:12:43Z</time></trkpt><trkpt lat="45.66006128353651" lon="11.330043774007452"><ele>698.5999999999999</ele><time>2026-04-01T15:12:55Z</time></trkpt><trkpt lat="45.65996144969439" lon="11.330040470596936"><ele>699.1999999999999</ele><time>2026-04-01T15:12:57Z</time></trkpt><trkpt lat="45.65988481167507" lon="11.330037934703157"><ele>699.8</ele><time>2026-04-01T15:12:58Z</time></trkpt><trkpt lat="45.659807950522065" lon="11.330035391426128"><ele>700.4</ele><time>2026-04-01T15:12:59Z</time></trkpt><trkpt lat="45.65971213137998" lon="11.330158979567964"><ele>701.0</ele><time>2026-04-01T15:13:00Z</time></trkpt><trkpt lat="45.6596270923397" lon="11.330134500021858"><ele>701.0</ele><time>2026-04-01T15:13:01Z</time></trkpt><trkpt lat="45.65955926989188" lon="11.330070182789314"><ele>701.0</ele><time>2026-04-01T15:13:02Z</time></trkpt><trkpt lat="45.65947619780048" lon="11.329996946687931"><ele>701.0</ele><time>2026-04-01T15:13:03Z</time></trkpt><trkpt lat="45.659329298289975" lon="11.329970248961425"><ele>701.0</ele><time>2026-04-01T15:13:05Z</time></trkpt><trkpt lat="45.659216164683826" lon="11.329981626115643"><ele>701.0</ele><time>2026-04-01T15:13:06Z</time></trkpt><trkpt lat="45.65912323607251" lon="11.32998207847086"><ele>702.0</ele><time>2026-04-01T15:13:07Z</time></trkpt><trkpt lat="45.65903782487908" lon="11.330023168019952"><ele>703.0</ele><time>2026-04-01T15:13:09Z</time></trkpt><trkpt lat="45.65895044585022" lon="11.330177904211434"><ele>704.0</ele><time>2026-04-01T15:13:11Z</time></trkpt><trkpt lat="45.65887121752324" lon="11.33027061439138"><ele>705.0</ele><time>2026-04-01T15:13:12Z</time></trkpt><trkpt lat="45.658806193683176" lon="11.330309735390147"><ele>706.0</ele><time>2026-04-01T15:13:13Z</time></trkpt><trkpt lat="45.658698225614295" lon="11.330328806685992"><ele>706.0</ele><time>2026-04-01T15:13:15Z</time></trkpt><trkpt lat="45.6586311472199" lon="11.330313881159597"><ele>706.0</ele><time>2026-04-01T15:13:16Z</time></trkpt><trkpt lat="45.65857214486245" lon="11.330272969726352"><ele>706.0</ele><time>2026-04-01T15:13:17Z</time></trkpt><trkpt lat="45.658446984758676" lon="11.330266073883031"><ele>706.0</ele><time>2026-04-01T15:13:19Z</time></trkpt><trkpt lat="45.65836286328815" lon="11.330279769144218"><ele>706.0</ele><time>2026-04-01T15:13:20Z</time></trkpt><trkpt lat="45.65827651670304" lon="11.330310156647386"><ele>706.0</ele><time>2026-04-01T15:13:21Z</time></trkpt><trkpt lat="45.658218996006035" lon="11.3303538358046"><ele>705.8</ele><time>2026-04-01T15:13:22Z</time></trkpt><trkpt lat="45.65812521855103" lon="11.330425966885834"><ele>705.5999999999999</ele><time>2026-04-01T15:13:24Z</time></trkpt><trkpt lat="45.65806693608132" lon="11.330469637454947"><ele>705.4</ele><time>2026-04-01T15:13:25Z</time></trkpt><trkpt lat="45.65795157960768" lon="11.330472616237744"><ele>705.2</ele><time>2026-04-01T15:13:27Z</time></trkpt><trkpt lat="45.6578854007943" lon="11.330448242196407"><ele>705.0</ele><time>2026-04-01T15:13:28Z</time></trkpt><trkpt lat="45.6577767979216" lon="11.330465352420624"><ele>705.0</ele><time>2026-04-01T15:13:30Z</time></trkpt><trkpt lat="45.65769643017145" lon="11.330479437189247"><ele>705.0</ele><time>2026-04-01T15:13:31Z</time></trkpt><trkpt lat="45.6576051524898" lon="11.330482267711398"><ele>705.0</ele><time>2026-04-01T15:13:32Z</time></trkpt><trkpt lat="45.65752524354784" lon="11.33046477561332"><ele>705.0</ele><time>2026-04-01T15:13:33Z</time></trkpt><trkpt lat="45.657456302517154" lon="11.330432960199335"><ele>705.0</ele><time>2026-04-01T15:13:34Z</time></trkpt><trkpt lat="45.65739581719095" lon="11.330403424923045"><ele>705.0</ele><time>2026-04-01T15:13:35Z</time></trkpt><trkpt lat="45.657312142123004" lon="11.330376307981101"><ele>705.0</ele><time>2026-04-01T15:13:36Z</time></trkpt><trkpt lat="45.65722614853446" lon="11.330318710286045"><ele>705.0</ele><time>2026-04-01T15:13:37Z</time></trkpt><trkpt lat="45.65714845289481" lon="11.330286829899004"><ele>705.0</ele><time>2026-04-01T15:13:38Z</time></trkpt><trkpt lat="45.65702674375744" lon="11.330304244013586"><ele>705.0</ele><time>2026-04-01T15:13:40Z</time></trkpt><trkpt lat="45.656924136220674" lon="11.330364103225092"><ele>705.0</ele><time>2026-04-01T15:13:42Z</time></trkpt><trkpt lat="45.65684132100266" lon="11.330356311645144"><ele>705.3333333333334</ele><time>2026-04-01T15:13:44Z</time></trkpt><trkpt lat="45.65677259322152" lon="11.330318429666484"><ele>705.6666666666666</ele><time>2026-04-01T15:13:46Z</time></trkpt><trkpt lat="45.65666360630669" lon="11.330295559836022"><ele>706.0</ele><time>2026-04-01T15:13:50Z</time></trkpt><trkpt lat="45.656606954466355" lon="11.330252935830705"><ele>706.3333333333333</ele><time>2026-04-01T15:13:53Z</time></trkpt><trkpt lat="45.656541527257595" lon="11.33022808432937"><ele>706.6666666666666</ele><time>2026-04-01T15:13:55Z</time></trkpt><trkpt lat="45.656444137768354" lon="11.3302056142134"><ele>707.0</ele><time>2026-04-01T15:13:57Z</time></trkpt><trkpt lat="45.65635510029532" lon="11.330198134998447"><ele>707.0</ele><time>2026-04-01T15:14:00Z</time></trkpt><trkpt lat="45.656263610536925" lon="11.330165692714516"><ele>707.0</ele><time>2026-04-01T15:14:03Z</time></trkpt><trkpt lat="45.65618733589817" lon="11.330062028642702"><ele>707.0</ele><time>2026-04-01T15:14:05Z</time></trkpt><trkpt lat="45.65609026818853" lon="11.33000150215707"><ele>707.0</ele><time>2026-04-01T15:14:08Z</time></trkpt><trkpt lat="45.65602198960075" lon="11.329927589945513"><ele>707.0</ele><time>2026-04-01T15:14:10Z</time></trkpt><trkpt lat="45.65595018204371" lon="11.329883159151459"><ele>709.8</ele><time>2026-04-01T15:14:12Z</time></trkpt><trkpt lat="45.65589744520957" lon="11.329828944606847"><ele>712.6</ele><time>2026-04-01T15:14:13Z</time></trkpt><trkpt lat="45.65578497852878" lon="11.329726390137902"><ele>715.4</ele><time>2026-04-01T15:14:15Z</time></trkpt><trkpt lat="45.65570936493221" lon="11.329694057008425"><ele>718.1999999999999</ele><time>2026-04-01T15:14:16Z</time></trkpt><trkpt lat="45.65560969337633" lon="11.329661816655426"><ele>721.0</ele><time>2026-04-01T15:14:18Z</time></trkpt><trkpt lat="45.65551599266313" lon="11.329581981871355"><ele>718.0</ele><time>2026-04-01T15:14:20Z</time></trkpt><trkpt lat="45.65544100794753" lon="11.329540153345462"><ele>715.0</ele><time>2026-04-01T15:14:21Z</time></trkpt><trkpt lat="45.65535848571139" lon="11.329538754554866"><ele>712.0</ele><time>2026-04-01T15:14:23Z</time></trkpt><trkpt lat="45.65526876379032" lon="11.3294888299693"><ele>709.0</ele><time>2026-04-01T15:14:26Z</time></trkpt><trkpt lat="45.655225377850385" lon="11.329394423204333"><ele>706.0</ele><time>2026-04-01T15:14:29Z</time></trkpt><trkpt lat="45.655142638317685" lon="11.329278002699994"><ele>706.0</ele><time>2026-04-01T15:14:31Z</time></trkpt><trkpt lat="45.65504855778919" lon="11.329172957338404"><ele>706.0</ele><time>2026-04-01T15:14:33Z</time></trkpt><trkpt lat="45.65493019715552" lon="11.32912836067855"><ele>706.0</ele><time>2026-04-01T15:14:35Z</time></trkpt><trkpt lat="45.65485318508373" lon="11.329105301705805"><ele>706.0</ele><time>2026-04-01T15:14:36Z</time></trkpt><trkpt lat="45.65475745457127" lon="11.329030510435187"><ele>706.0</ele><time>2026-04-01T15:14:38Z</time></trkpt><trkpt lat="45.65468920500739" lon="11.328955325348645"><ele>704.8333333333334</ele><time>2026-04-01T15:14:40Z</time></trkpt><trkpt lat="45.654642068250084" lon="11.32886122279716"><ele>703.6666666666667</ele><time>2026-04-01T15:14:42Z</time></trkpt><trkpt lat="45.65457160602181" lon="11.328810569187922"><ele>702.5</ele><time>2026-04-01T15:14:44Z</time></trkpt><trkpt lat="45.65449575991878" lon="11.328812578669412"><ele>701.3333333333334</ele><time>2026-04-01T15:14:46Z</time></trkpt><trkpt lat="45.65444642903353" lon="11.328741949108831"><ele>700.1666666666666</ele><time>2026-04-01T15:14:48Z</time></trkpt><trkpt lat="45.65438931212716" lon="11.32865588682703"><ele>699.0</ele><time>2026-04-01T15:14:51Z</time></trkpt><trkpt lat="45.654283113434865" lon="11.328682408927625"><ele>699.0</ele><time>2026-04-01T15:14:54Z</time></trkpt><trkpt lat="45.654222277542246" lon="11.328621156239496"><ele>699.0</ele><time>2026-04-01T15:14:56Z</time></trkpt><trkpt lat="45.65417563507719" lon="11.328515385438"><ele>699.0</ele><time>2026-04-01T15:14:58Z</time></trkpt><trkpt lat="45.65408988780196" lon="11.328452405689063"><ele>699.0</ele><time>2026-04-01T15:15:00Z</time></trkpt><trkpt lat="45.65401531813192" lon="11.32844892130762"><ele>699.0</ele><time>2026-04-01T15:15:02Z</time></trkpt><trkpt lat="45.65395031528602" lon="11.328397899210483"><ele>699.0</ele><time>2026-04-01T15:15:07Z</time></trkpt><trkpt lat="45.65382640540689" lon="11.328344226963706"><ele>699.0</ele><time>2026-04-01T15:15:09Z</time></trkpt><trkpt lat="45.65375477121005" lon="11.32829003007112"><ele>699.0</ele><time>2026-04-01T15:15:10Z</time></trkpt><trkpt lat="45.65364059925925" lon="11.328245323651304"><ele>699.0</ele><time>2026-04-01T15:15:12Z</time></trkpt><trkpt lat="45.65355592432031" lon="11.328237880697749"><ele>699.0</ele><time>2026-04-01T15:15:13Z</time></trkpt><trkpt lat="45.653450310712714" lon="11.32821296502413"><ele>699.0</ele><time>2026-04-01T15:15:14Z</time></trkpt><trkpt lat="45.65330810295003" lon="11.328132038241293"><ele>697.4000000000001</ele><time>2026-04-01T15:15:16Z</time></trkpt><trkpt lat="45.653230581117995" lon="11.328085487072428"><ele>695.8</ele><time>2026-04-01T15:15:17Z</time></trkpt><trkpt lat="45.65316108205491" lon="11.328042314565195"><ele>694.2</ele><time>2026-04-01T15:15:18Z</time></trkpt><trkpt lat="45.653113930818314" lon="11.327981884230079"><ele>692.5999999999999</ele><time>2026-04-01T15:15:19Z</time></trkpt><trkpt lat="45.653011144162114" lon="11.327928844447637"><ele>691.0</ele><time>2026-04-01T15:15:21Z</time></trkpt><trkpt lat="45.65289638729828" lon="11.327970937558591"><ele>691.0</ele><time>2026-04-01T15:15:23Z</time></trkpt><trkpt lat="45.65280704590198" lon="11.327984842685588"><ele>691.0</ele><time>2026-04-01T15:15:24Z</time></trkpt><trkpt lat="45.652720408053575" lon="11.327990723197056"><ele>691.0</ele><time>2026-04-01T15:15:25Z</time></trkpt><trkpt lat="45.65260324038264" lon="11.327987367968316"><ele>691.0</ele><time>2026-04-01T15:15:27Z</time></trkpt><trkpt lat="45.65253687085513" lon="11.327954883549967"><ele>691.0</ele><time>2026-04-01T15:15:28Z</time></trkpt><trkpt lat="45.65246268824127" lon="11.327934632461904"><ele>691.0</ele><time>2026-04-01T15:15:29Z</time></trkpt><trkpt lat="45.65239844721357" lon="11.327917207003937"><ele>691.5</ele><time>2026-04-01T15:15:30Z</time></trkpt><trkpt lat="45.6522786758766" lon="11.327884581123701"><ele>692.0</ele><time>2026-04-01T15:15:32Z</time></trkpt><trkpt lat="45.652157042501734" lon="11.327880176873265"><ele>692.5</ele><time>2026-04-01T15:15:34Z</time></trkpt><trkpt lat="45.65208016054715" lon="11.327883130316344"><ele>693.0</ele><time>2026-04-01T15:15:35Z</time></trkpt><trkpt lat="45.651952509013114" lon="11.327912607544619"><ele>691.6666666666666</ele><time>2026-04-01T15:15:37Z</time></trkpt><trkpt lat="45.65188999565878" lon="11.32795124258673"><ele>690.3333333333334</ele><time>2026-04-01T15:15:38Z</time></trkpt><trkpt lat="45.651828736354425" lon="11.327985504674857"><ele>689.0</ele><time>2026-04-01T15:15:39Z</time></trkpt><trkpt lat="45.651748792695074" lon="11.328019091244556"><ele>687.6666666666667</ele><time>2026-04-01T15:15:40Z</time></trkpt><trkpt lat="45.651666816265006" lon="11.328042233353404"><ele>686.3333333333334</ele><time>2026-04-01T15:15:41Z</time></trkpt><trkpt lat="45.651571045301694" lon="11.328058340129438"><ele>685.0</ele><time>2026-04-01T15:15:42Z</time></trkpt><trkpt lat="45.651490179857625" lon="11.328079107263978"><ele>686.0</ele><time>2026-04-01T15:15:43Z</time></trkpt><trkpt lat="45.651415452541094" lon="11.328099941608114"><ele>687.0</ele><time>2026-04-01T15:15:44Z</time></trkpt><trkpt lat="45.651332740718836" lon="11.328114415268184"><ele>688.0</ele><time>2026-04-01T15:15:45Z</time></trkpt><trkpt lat="45.65125449846949" lon="11.328135939237121"><ele>689.0</ele><time>2026-04-01T15:15:46Z</time></trkpt><trkpt lat="45.65119671386303" lon="11.328183940091428"><ele>690.0</ele><time>2026-04-01T15:15:47Z</time></trkpt><trkpt lat="45.65109282065708" lon="11.328311882815282"><ele>691.0</ele><time>2026-04-01T15:15:49Z</time></trkpt><trkpt lat="45.65102761898374" lon="11.328414186346022"><ele>690.9999999999999</ele><time>2026-04-01T15:15:50Z</time></trkpt><trkpt lat="45.65096989883941" lon="11.328511053700932"><ele>691.0</ele><time>2026-04-01T15:15:51Z</time></trkpt><trkpt lat="45.65092699073434" lon="11.328605644529295"><ele>691.0</ele><time>2026-04-01T15:15:52Z</time></trkpt><trkpt lat="45.65090578309408" lon="11.328695142478932"><ele>691.0</ele><time>2026-04-01T15:15:53Z</time></trkpt><trkpt lat="45.650880507260815" lon="11.328796491229042"><ele>691.0</ele><time>2026-04-01T15:15:54Z</time></trkpt><trkpt lat="45.65086077204558" lon="11.328894400711821"><ele>690.9999999999999</ele><time>2026-04-01T15:15:55Z</time></trkpt><trkpt lat="45.65084474472556" lon="11.328986359682109"><ele>691.0</ele><time>2026-04-01T15:15:56Z</time></trkpt><trkpt lat="45.65083205821189" lon="11.32908871312247"><ele>692.6666666666667</ele><time>2026-04-01T15:15:57Z</time></trkpt><trkpt lat="45.650818255745115" lon="11.329201378238375"><ele>694.3333333333334</ele><time>2026-04-01T15:15:58Z</time></trkpt><trkpt lat="45.650767730689" lon="11.329258659109708"><ele>696.0</ele><time>2026-04-01T15:15:59Z</time></trkpt><trkpt lat="45.65075073964143" lon="11.32936630037519"><ele>697.6666666666666</ele><time>2026-04-01T15:16:01Z</time></trkpt><trkpt lat="45.650723519802376" lon="11.329494105897071"><ele>699.3333333333333</ele><time>2026-04-01T15:16:04Z</time></trkpt><trkpt lat="45.65070741723265" lon="11.329636366862397"><ele>701.0</ele><time>2026-04-01T15:16:06Z</time></trkpt><trkpt lat="45.65070366553745" lon="11.32973969093851"><ele>703.1666666666666</ele><time>2026-04-01T15:16:08Z</time></trkpt><trkpt lat="45.65069153924219" lon="11.32986230251809"><ele>705.3333333333333</ele><time>2026-04-01T15:16:10Z</time></trkpt><trkpt lat="45.65067819334526" lon="11.330001083788856"><ele>707.5</ele><time>2026-04-01T15:16:12Z</time></trkpt><trkpt lat="45.650670283475336" lon="11.330111436045119"><ele>709.6666666666666</ele><time>2026-04-01T15:16:13Z</time></trkpt><trkpt lat="45.65066452447351" lon="11.330208681004448"><ele>711.8333333333334</ele><time>2026-04-01T15:16:14Z</time></trkpt><trkpt lat="45.6506614162" lon="11.330348860184964"><ele>714.0</ele><time>2026-04-01T15:16:16Z</time></trkpt><trkpt lat="45.65066416018252" lon="11.330455771746104"><ele>715.6</ele><time>2026-04-01T15:16:17Z</time></trkpt><trkpt lat="45.65066617004587" lon="11.330579507472672"><ele>717.2</ele><time>2026-04-01T15:16:18Z</time></trkpt><trkpt lat="45.65066347051521" lon="11.330676811964505"><ele>718.8000000000001</ele><time>2026-04-01T15:16:19Z</time></trkpt><trkpt lat="45.650651261151054" lon="11.33094670481054"><ele>720.4000000000001</ele><time>2026-04-01T15:16:20Z</time></trkpt><trkpt lat="45.65060145144539" lon="11.331069392392305"><ele>722.0</ele><time>2026-04-01T15:16:21Z</time></trkpt><trkpt lat="45.65044375664069" lon="11.331240745809966"><ele>722.0</ele><time>2026-04-01T15:16:22Z</time></trkpt><trkpt lat="45.650375136989844" lon="11.331286971902523"><ele>722.0</ele><time>2026-04-01T15:16:24Z</time></trkpt><trkpt lat="45.65008372713023" lon="11.330579922979373"><ele>714.2</ele><time>2026-04-01T15:16:28Z</time></trkpt><trkpt lat="45.65004072642635" lon="11.330419578290886"><ele>706.4000000000001</ele><time>2026-04-01T15:16:30Z</time></trkpt><trkpt lat="45.65001646263736" lon="11.330313126662032"><ele>698.5999999999999</ele><time>2026-04-01T15:16:31Z</time></trkpt><trkpt lat="45.649965419541374" lon="11.330184581793155"><ele>690.8</ele><time>2026-04-01T15:16:33Z</time></trkpt><trkpt lat="45.64992043095126" lon="11.330093797506237"><ele>683.0</ele><time>2026-04-01T15:16:35Z</time></trkpt><trkpt lat="45.64985298120083" lon="11.330025358886244"><ele>683.0</ele><time>2026-04-01T15:16:38Z</time></trkpt><trkpt lat="45.64979257317835" lon="11.33007010301814"><ele>683.0</ele><time>2026-04-01T15:16:40Z</time></trkpt><trkpt lat="45.649708193415876" lon="11.330092456882602"><ele>683.0</ele><time>2026-04-01T15:16:42Z</time></trkpt><trkpt lat="45.64962741500111" lon="11.330020625988892"><ele>683.0</ele><time>2026-04-01T15:16:44Z</time></trkpt><trkpt lat="45.649570980164164" lon="11.329974090662738"><ele>683.0</ele><time>2026-04-01T15:16:45Z</time></trkpt><trkpt lat="45.64950504144139" lon="11.329921291025203"><ele>683.0</ele><time>2026-04-01T15:16:47Z</time></trkpt><trkpt lat="45.64944690205944" lon="11.329882813234516"><ele>680.8333333333333</ele><time>2026-04-01T15:16:48Z</time></trkpt><trkpt lat="45.649360753128974" lon="11.329874556544697"><ele>678.6666666666666</ele><time>2026-04-01T15:16:50Z</time></trkpt><trkpt lat="45.649271823120735" lon="11.329882895966927"><ele>676.5</ele><time>2026-04-01T15:16:52Z</time></trkpt><trkpt lat="45.64918848258334" lon="11.329881357195404"><ele>674.3333333333334</ele><time>2026-04-01T15:16:54Z</time></trkpt><trkpt lat="45.6491199765778" lon="11.329937832653076"><ele>672.1666666666667</ele><time>2026-04-01T15:16:56Z</time></trkpt><trkpt lat="45.64906920921714" lon="11.330070977416058"><ele>670.0</ele><time>2026-04-01T15:16:58Z</time></trkpt><trkpt lat="45.64902087868692" lon="11.330137680182427"><ele>670.0</ele><time>2026-04-01T15:16:59Z</time></trkpt><trkpt lat="45.64895778998627" lon="11.330183605596952"><ele>670.0</ele><time>2026-04-01T15:17:00Z</time></trkpt><trkpt lat="45.64889738018931" lon="11.330226705037298"><ele>670.0</ele><time>2026-04-01T15:17:01Z</time></trkpt><trkpt lat="45.64881370442309" lon="11.330298302322195"><ele>670.0</ele><time>2026-04-01T15:17:02Z</time></trkpt><trkpt lat="45.64873707955871" lon="11.330353158180424"><ele>670.0</ele><time>2026-04-01T15:17:03Z</time></trkpt><trkpt lat="45.64867542056716" lon="11.33039506750345"><ele>670.0</ele><time>2026-04-01T15:17:04Z</time></trkpt><trkpt lat="45.64861333618521" lon="11.330422948765786"><ele>667.2</ele><time>2026-04-01T15:17:05Z</time></trkpt><trkpt lat="45.64851123674191" lon="11.330477050656437"><ele>664.4</ele><time>2026-04-01T15:17:07Z</time></trkpt><trkpt lat="45.64838774714178" lon="11.330570308389005"><ele>661.5999999999999</ele><time>2026-04-01T15:17:09Z</time></trkpt><trkpt lat="45.6483432500282" lon="11.33064040397517"><ele>658.8</ele><time>2026-04-01T15:17:10Z</time></trkpt><trkpt lat="45.648315337521716" lon="11.330729348991044"><ele>656.0</ele><time>2026-04-01T15:17:11Z</time></trkpt><trkpt lat="45.648306799022635" lon="11.33082518946043"><ele>656.0</ele><time>2026-04-01T15:17:12Z</time></trkpt><trkpt lat="45.6482252901627" lon="11.330961040053184"><ele>656.0</ele><time>2026-04-01T15:17:14Z</time></trkpt><trkpt lat="45.64815217789005" lon="11.331001553228093"><ele>656.0</ele><time>2026-04-01T15:17:15Z</time></trkpt><trkpt lat="45.64808071542524" lon="11.331009244160638"><ele>656.0</ele><time>2026-04-01T15:17:16Z</time></trkpt><trkpt lat="45.6480159730619" lon="11.331024190556747"><ele>656.0</ele><time>2026-04-01T15:17:17Z</time></trkpt><trkpt lat="45.64794191753126" lon="11.331008388193831"><ele>656.0</ele><time>2026-04-01T15:17:19Z</time></trkpt><trkpt lat="45.64793972838888" lon="11.330895983964796"><ele>656.0</ele><time>2026-04-01T15:17:21Z</time></trkpt><trkpt lat="45.64793278306143" lon="11.330708970871521"><ele>656.0</ele><time>2026-04-01T15:17:23Z</time></trkpt><trkpt lat="45.64791715354258" lon="11.330582191806027"><ele>656.0</ele><time>2026-04-01T15:17:24Z</time></trkpt><trkpt lat="45.647887545867135" lon="11.330484127552296"><ele>656.0</ele><time>2026-04-01T15:17:25Z</time></trkpt><trkpt lat="45.64784189163263" lon="11.330364989870674"><ele>656.0</ele><time>2026-04-01T15:17:27Z</time></trkpt><trkpt lat="45.64781875685534" lon="11.330202083862224"><ele>652.6666666666666</ele><time>2026-04-01T15:17:29Z</time></trkpt><trkpt lat="45.64777244841006" lon="11.330116730701278"><ele>649.3333333333333</ele><time>2026-04-01T15:17:30Z</time></trkpt><trkpt lat="45.64772546621425" lon="11.330047061824697"><ele>646.0</ele><time>2026-04-01T15:17:31Z</time></trkpt><trkpt lat="45.6476767800502" lon="11.329972711389079"><ele>642.6666666666666</ele><time>2026-04-01T15:17:32Z</time></trkpt><trkpt lat="45.64764442656483" lon="11.329875585325974"><ele>639.3333333333334</ele><time>2026-04-01T15:17:33Z</time></trkpt><trkpt lat="45.647583643724836" lon="11.329743671642637"><ele>636.0</ele><time>2026-04-01T15:17:35Z</time></trkpt><trkpt lat="45.64758251646845" lon="11.329631157770152"><ele>636.0</ele><time>2026-04-01T15:17:37Z</time></trkpt><trkpt lat="45.64750827114639" lon="11.329583639106852"><ele>636.0</ele><time>2026-04-01T15:17:39Z</time></trkpt><trkpt lat="45.647444686632696" lon="11.329636464181986"><ele>636.0</ele><time>2026-04-01T15:17:40Z</time></trkpt><trkpt lat="45.647372778945055" lon="11.329768081956338"><ele>636.0</ele><time>2026-04-01T15:17:42Z</time></trkpt><trkpt lat="45.64730894376167" lon="11.329840764905653"><ele>636.0</ele><time>2026-04-01T15:17:44Z</time></trkpt><trkpt lat="45.6471930758533" lon="11.329909364352394"><ele>636.0</ele><time>2026-04-01T15:17:46Z</time></trkpt><trkpt lat="45.647136649213415" lon="11.329968043387051"><ele>636.0</ele><time>2026-04-01T15:17:47Z</time></trkpt><trkpt lat="45.64707021845388" lon="11.330006660340853"><ele>636.0</ele><time>2026-04-01T15:17:48Z</time></trkpt><trkpt lat="45.64700730163509" lon="11.330057296714141"><ele>636.0</ele><time>2026-04-01T15:17:49Z</time></trkpt><trkpt lat="45.64689720312161" lon="11.330145904869555"><ele>636.0</ele><time>2026-04-01T15:17:51Z</time></trkpt><trkpt lat="45.64677336505054" lon="11.330188282475909"><ele>633.2</ele><time>2026-04-01T15:17:53Z</time></trkpt><trkpt lat="45.64666106537088" lon="11.330156206414191"><ele>630.4000000000001</ele><time>2026-04-01T15:17:55Z</time></trkpt><trkpt lat="45.64657732224678" lon="11.330104791578593"><ele>627.6</ele><time>2026-04-01T15:17:57Z</time></trkpt><trkpt lat="45.64650470847024" lon="11.330276379051853"><ele>624.8000000000001</ele><time>2026-04-01T15:17:58Z</time></trkpt><trkpt lat="45.64644674739367" lon="11.33022826544925"><ele>622.0</ele><time>2026-04-01T15:18:00Z</time></trkpt><trkpt lat="45.64643995818145" lon="11.330122775925794"><ele>622.0</ele><time>2026-04-01T15:18:05Z</time></trkpt><trkpt lat="45.64643014685071" lon="11.330016489610584"><ele>622.0</ele><time>2026-04-01T15:18:09Z</time></trkpt><trkpt lat="45.64641050139841" lon="11.329915587204505"><ele>622.0</ele><time>2026-04-01T15:18:11Z</time></trkpt><trkpt lat="45.646508223288684" lon="11.329725628447084"><ele>622.0</ele><time>2026-04-01T15:18:13Z</time></trkpt><trkpt lat="45.64648454253228" lon="11.329630606148315"><ele>622.0</ele><time>2026-04-01T15:18:14Z</time></trkpt><trkpt lat="45.64645417514381" lon="11.329513546130537"><ele>620.3333333333334</ele><time>2026-04-01T15:18:15Z</time></trkpt><trkpt lat="45.64642715865907" lon="11.32940572147949"><ele>618.6666666666667</ele><time>2026-04-01T15:18:16Z</time></trkpt><trkpt lat="45.64639737393528" lon="11.329275703007664"><ele>617.0</ele><time>2026-04-01T15:18:17Z</time></trkpt><trkpt lat="45.64637750931203" lon="11.329188990406859"><ele>615.3333333333334</ele><time>2026-04-01T15:18:18Z</time></trkpt><trkpt lat="45.64634554952024" lon="11.329087129093406"><ele>613.6666666666666</ele><time>2026-04-01T15:18:19Z</time></trkpt><trkpt lat="45.64632035640196" lon="11.329001569688941"><ele>612.0</ele><time>2026-04-01T15:18:20Z</time></trkpt><trkpt lat="45.64627515046318" lon="11.328914723659384"><ele>610.8333333333334</ele><time>2026-04-01T15:18:21Z</time></trkpt><trkpt lat="45.646227196734294" lon="11.32885535400475"><ele>609.6666666666666</ele><time>2026-04-01T15:18:22Z</time></trkpt><trkpt lat="45.646160918814026" lon="11.32878876075782"><ele>608.5</ele><time>2026-04-01T15:18:23Z</time></trkpt><trkpt lat="45.64608316155771" lon="11.328738280135884"><ele>607.3333333333333</ele><time>2026-04-01T15:18:24Z</time></trkpt><trkpt lat="45.6459984234811" lon="11.328711298029543"><ele>606.1666666666666</ele><time>2026-04-01T15:18:25Z</time></trkpt><trkpt lat="45.645915157774304" lon="11.328689970627954"><ele>605.0</ele><time>2026-04-01T15:18:26Z</time></trkpt><trkpt lat="45.64582820150223" lon="11.328677957829942"><ele>603.1666666666666</ele><time>2026-04-01T15:18:27Z</time></trkpt><trkpt lat="45.64575693862845" lon="11.328662399719615"><ele>601.3333333333333</ele><time>2026-04-01T15:18:28Z</time></trkpt><trkpt lat="45.64569623260924" lon="11.328636832279523"><ele>599.5</ele><time>2026-04-01T15:18:29Z</time></trkpt><trkpt lat="45.64560871637255" lon="11.328526474342308"><ele>597.6666666666666</ele><time>2026-04-01T15:18:31Z</time></trkpt><trkpt lat="45.645552826318195" lon="11.328462646638926"><ele>595.8333333333334</ele><time>2026-04-01T15:18:32Z</time></trkpt><trkpt lat="45.645493631058756" lon="11.328415669787786"><ele>594.0</ele><time>2026-04-01T15:18:33Z</time></trkpt><trkpt lat="45.64541591881032" lon="11.328408382690927"><ele>594.0</ele><time>2026-04-01T15:18:34Z</time></trkpt><trkpt lat="45.64534064186055" lon="11.328410202056705"><ele>594.0</ele><time>2026-04-01T15:18:35Z</time></trkpt><trkpt lat="45.64527661587356" lon="11.3284155809363"><ele>594.0</ele><time>2026-04-01T15:18:36Z</time></trkpt><trkpt lat="45.64520429009682" lon="11.328425458237968"><ele>594.0</ele><time>2026-04-01T15:18:37Z</time></trkpt><trkpt lat="45.64513714283602" lon="11.328429770292576"><ele>594.0</ele><time>2026-04-01T15:18:38Z</time></trkpt><trkpt lat="45.64503616865773" lon="11.328401562097156"><ele>594.0</ele><time>2026-04-01T15:18:40Z</time></trkpt><trkpt lat="45.644943819695825" lon="11.328462163305097"><ele>592.6666666666666</ele><time>2026-04-01T15:18:41Z</time></trkpt><trkpt lat="45.64486849016902" lon="11.328500829808199"><ele>591.3333333333334</ele><time>2026-04-01T15:18:42Z</time></trkpt><trkpt lat="45.6447828956723" lon="11.328520432720815"><ele>590.0</ele><time>2026-04-01T15:18:43Z</time></trkpt><trkpt lat="45.64471550364664" lon="11.328505929712483"><ele>588.6666666666667</ele><time>2026-04-01T15:18:44Z</time></trkpt><trkpt lat="45.644617196469234" lon="11.328478107253517"><ele>587.3333333333334</ele><time>2026-04-01T15:18:45Z</time></trkpt><trkpt lat="45.64452673682578" lon="11.328442335712959"><ele>586.0</ele><time>2026-04-01T15:18:46Z</time></trkpt><trkpt lat="45.64444622704756" lon="11.32840732035743"><ele>585.2</ele><time>2026-04-01T15:18:47Z</time></trkpt><trkpt lat="45.64436183445076" lon="11.328372888703228"><ele>584.4000000000001</ele><time>2026-04-01T15:18:48Z</time></trkpt><trkpt lat="45.64426998980198" lon="11.328342680735838"><ele>583.6</ele><time>2026-04-01T15:18:49Z</time></trkpt><trkpt lat="45.64416482307473" lon="11.328316652257872"><ele>582.8000000000001</ele><time>2026-04-01T15:18:50Z</time></trkpt><trkpt lat="45.64404876242171" lon="11.328306728872754"><ele>582.0</ele><time>2026-04-01T15:18:51Z</time></trkpt><trkpt lat="45.64394616149683" lon="11.328310494572811"><ele>582.0</ele><time>2026-04-01T15:18:52Z</time></trkpt><trkpt lat="45.64385015909643" lon="11.328314556045827"><ele>582.0</ele><time>2026-04-01T15:18:53Z</time></trkpt><trkpt lat="45.64375891376598" lon="11.328315812850041"><ele>582.0</ele><time>2026-04-01T15:18:54Z</time></trkpt><trkpt lat="45.6436671783314" lon="11.328316470085312"><ele>582.0</ele><time>2026-04-01T15:18:55Z</time></trkpt><trkpt lat="45.643573247130604" lon="11.328317143057204"><ele>582.0</ele><time>2026-04-01T15:18:56Z</time></trkpt><trkpt lat="45.64347501491777" lon="11.328317846841408"><ele>581.25</ele><time>2026-04-01T15:18:57Z</time></trkpt><trkpt lat="45.643358717244034" lon="11.328319980698755"><ele>580.5</ele><time>2026-04-01T15:18:58Z</time></trkpt><trkpt lat="45.64322748424298" lon="11.328333486542798"><ele>579.75</ele><time>2026-04-01T15:18:59Z</time></trkpt><trkpt lat="45.64309679777072" lon="11.328368582663233"><ele>579.0</ele><time>2026-04-01T15:19:00Z</time></trkpt><trkpt lat="45.64299203117967" lon="11.328405081670965"><ele>579.0</ele><time>2026-04-01T15:19:01Z</time></trkpt><trkpt lat="45.64289664643131" lon="11.328453526077842"><ele>579.0</ele><time>2026-04-01T15:19:02Z</time></trkpt><trkpt lat="45.642812444197126" lon="11.328490921885479"><ele>579.0</ele><time>2026-04-01T15:19:03Z</time></trkpt><trkpt lat="45.642727408862235" lon="11.328521975705112"><ele>579.0</ele><time>2026-04-01T15:19:04Z</time></trkpt><trkpt lat="45.64263639669583" lon="11.32853527546547"><ele>579.0</ele><time>2026-04-01T15:19:05Z</time></trkpt><trkpt lat="45.64254723382072" lon="11.328568920399771"><ele>578.1666666666666</ele><time>2026-04-01T15:19:06Z</time></trkpt><trkpt lat="45.642451493264076" lon="11.328602669250468"><ele>577.3333333333334</ele><time>2026-04-01T15:19:07Z</time></trkpt><trkpt lat="45.64235099423706" lon="11.328632799283472"><ele>576.5</ele><time>2026-04-01T15:19:08Z</time></trkpt><trkpt lat="45.642252569090694" lon="11.328655664382492"><ele>575.6666666666667</ele><time>2026-04-01T15:19:09Z</time></trkpt><trkpt lat="45.64217924046846" lon="11.328648542438646"><ele>574.8333333333334</ele><time>2026-04-01T15:19:10Z</time></trkpt><trkpt lat="45.64210644221349" lon="11.32863365801115"><ele>574.0</ele><time>2026-04-01T15:19:11Z</time></trkpt><trkpt lat="45.64196893662474" lon="11.328545980585364"><ele>576.2</ele><time>2026-04-01T15:19:13Z</time></trkpt><trkpt lat="45.64187532178988" lon="11.328501991907826"><ele>578.4</ele><time>2026-04-01T15:19:14Z</time></trkpt><trkpt lat="45.641796512819134" lon="11.328492687061207"><ele>580.6</ele><time>2026-04-01T15:19:15Z</time></trkpt><trkpt lat="45.64170440885834" lon="11.32843838148394"><ele>582.8</ele><time>2026-04-01T15:19:16Z</time></trkpt><trkpt lat="45.64162372356991" lon="11.32842032337311"><ele>585.0</ele><time>2026-04-01T15:19:17Z</time></trkpt><trkpt lat="45.64152587824487" lon="11.32839992210985"><ele>585.0</ele><time>2026-04-01T15:19:18Z</time></trkpt><trkpt lat="45.641433021606744" lon="11.328380561027624"><ele>585.0</ele><time>2026-04-01T15:19:19Z</time></trkpt><trkpt lat="45.641359895431705" lon="11.32836555954661"><ele>585.0</ele><time>2026-04-01T15:19:20Z</time></trkpt><trkpt lat="45.641283742802706" lon="11.32837468871475"><ele>585.0</ele><time>2026-04-01T15:19:21Z</time></trkpt><trkpt lat="45.64121048865328" lon="11.328357924142383"><ele>585.0</ele><time>2026-04-01T15:19:22Z</time></trkpt><trkpt lat="45.641113055000595" lon="11.328347994198294"><ele>585.0</ele><time>2026-04-01T15:19:23Z</time></trkpt><trkpt lat="45.641025852578665" lon="11.328352825109413"><ele>585.5</ele><time>2026-04-01T15:19:24Z</time></trkpt><trkpt lat="45.640946311296396" lon="11.328387289191179"><ele>586.0</ele><time>2026-04-01T15:19:25Z</time></trkpt><trkpt lat="45.64088966697907" lon="11.328444159409862"><ele>586.5</ele><time>2026-04-01T15:19:26Z</time></trkpt><trkpt lat="45.64084596711847" lon="11.3285202302527"><ele>587.0</ele><time>2026-04-01T15:19:27Z</time></trkpt><trkpt lat="45.640796456356924" lon="11.328593408548901"><ele>587.5</ele><time>2026-04-01T15:19:28Z</time></trkpt><trkpt lat="45.6407560516508" lon="11.328693801239945"><ele>588.0</ele><time>2026-04-01T15:19:29Z</time></trkpt><trkpt lat="45.64071149292096" lon="11.3287930573359"><ele>588.0</ele><time>2026-04-01T15:19:30Z</time></trkpt><trkpt lat="45.64066209636202" lon="11.328890403605376"><ele>588.0</ele><time>2026-04-01T15:19:31Z</time></trkpt><trkpt lat="45.640612383810854" lon="11.328972002433975"><ele>588.0</ele><time>2026-04-01T15:19:32Z</time></trkpt><trkpt lat="45.64054230597568" lon="11.329075617280692"><ele>588.0</ele><time>2026-04-01T15:19:33Z</time></trkpt><trkpt lat="45.64047578263572" lon="11.329183377926416"><ele>588.0</ele><time>2026-04-01T15:19:34Z</time></trkpt><trkpt lat="45.640414534912" lon="11.329316569731503"><ele>588.0</ele><time>2026-04-01T15:19:35Z</time></trkpt><trkpt lat="45.64035398652141" lon="11.329411041114529"><ele>588.0</ele><time>2026-04-01T15:19:36Z</time></trkpt><trkpt lat="45.64029484508579" lon="11.329485442029648"><ele>588.0</ele><time>2026-04-01T15:19:37Z</time></trkpt><trkpt lat="45.640235400101574" lon="11.329558327026964"><ele>588.0</ele><time>2026-04-01T15:19:38Z</time></trkpt><trkpt lat="45.64016148659518" lon="11.329612738353607"><ele>588.0</ele><time>2026-04-01T15:19:39Z</time></trkpt><trkpt lat="45.640074387777965" lon="11.329649130601076"><ele>588.0</ele><time>2026-04-01T15:19:40Z</time></trkpt><trkpt lat="45.63999404169808" lon="11.32971538232579"><ele>591.6666666666666</ele><time>2026-04-01T15:19:41Z</time></trkpt><trkpt lat="45.639941832544885" lon="11.329792105926249"><ele>595.3333333333334</ele><time>2026-04-01T15:19:42Z</time></trkpt><trkpt lat="45.63988828589978" lon="11.329868831809932"><ele>599.0</ele><time>2026-04-01T15:19:43Z</time></trkpt><trkpt lat="45.63983919750584" lon="11.329967941710322"><ele>602.6666666666667</ele><time>2026-04-01T15:19:44Z</time></trkpt><trkpt lat="45.639782954567" lon="11.330042325320761"><ele>606.3333333333334</ele><time>2026-04-01T15:19:45Z</time></trkpt><trkpt lat="45.639715911229864" lon="11.330145631082408"><ele>610.0</ele><time>2026-04-01T15:19:46Z</time></trkpt><trkpt lat="45.639638824306836" lon="11.330238435577984"><ele>610.0</ele><time>2026-04-01T15:19:47Z</time></trkpt><trkpt lat="45.63955049797526" lon="11.330294322000567"><ele>610.0</ele><time>2026-04-01T15:19:48Z</time></trkpt><trkpt lat="45.63949112014469" lon="11.330330944707347"><ele>610.0</ele><time>2026-04-01T15:19:49Z</time></trkpt><trkpt lat="45.639425387952116" lon="11.330367102499856"><ele>610.0</ele><time>2026-04-01T15:19:50Z</time></trkpt><trkpt lat="45.63934141315959" lon="11.330403006842053"><ele>610.0</ele><time>2026-04-01T15:19:51Z</time></trkpt><trkpt lat="45.639268453307025" lon="11.330439903756949"><ele>610.0</ele><time>2026-04-01T15:19:52Z</time></trkpt><trkpt lat="45.63918556635937" lon="11.330520522095394"><ele>610.1666666666667</ele><time>2026-04-01T15:19:53Z</time></trkpt><trkpt lat="45.63910847627285" lon="11.330579744786275"><ele>610.3333333333334</ele><time>2026-04-01T15:19:54Z</time></trkpt><trkpt lat="45.63906266492701" lon="11.330641503347776"><ele>610.5</ele><time>2026-04-01T15:19:55Z</time></trkpt><trkpt lat="45.63898267619563" lon="11.33072902405766"><ele>610.6666666666666</ele><time>2026-04-01T15:19:57Z</time></trkpt><trkpt lat="45.63892796558453" lon="11.330817479920961"><ele>610.8333333333333</ele><time>2026-04-01T15:31:25Z</time></trkpt><trkpt lat="45.638831390657685" lon="11.330872776631766"><ele>611.0</ele><time>2026-04-01T15:31:27Z</time></trkpt><trkpt lat="45.63875420524996" lon="11.330900550177835"><ele>611.0</ele><time>2026-04-01T15:31:28Z</time></trkpt><trkpt lat="45.63868035046881" lon="11.330927177975319"><ele>611.0</ele><time>2026-04-01T15:31:29Z</time></trkpt><trkpt lat="45.638594702066996" lon="11.33094035441238"><ele>611.0</ele><time>2026-04-01T15:31:30Z</time></trkpt><trkpt lat="45.638532513797465" lon="11.330913801098461"><ele>611.0</ele><time>2026-04-01T15:31:31Z</time></trkpt><trkpt lat="45.63846050132612" lon="11.330891158605045"><ele>611.0</ele><time>2026-04-01T15:31:32Z</time></trkpt><trkpt lat="45.63839608580479" lon="11.330876151314172"><ele>611.0</ele><time>2026-04-01T15:31:33Z</time></trkpt><trkpt lat="45.638298054237254" lon="11.330933515982604"><ele>611.0</ele><time>2026-04-01T15:31:35Z</time></trkpt><trkpt lat="45.63832373052456" lon="11.331124939926331"><ele>611.0</ele><time>2026-04-01T15:31:37Z</time></trkpt><trkpt lat="45.638475799346864" lon="11.331181925474565"><ele>611.0</ele><time>2026-04-01T15:31:39Z</time></trkpt><trkpt lat="45.638538577447676" lon="11.33120723949751"><ele>611.0</ele><time>2026-04-01T15:31:40Z</time></trkpt><trkpt lat="45.63861603614386" lon="11.331249797903828"><ele>611.0</ele><time>2026-04-01T15:31:41Z</time></trkpt><trkpt lat="45.63867434169312" lon="11.331325586565486"><ele>611.0</ele><time>2026-04-01T15:31:42Z</time></trkpt><trkpt lat="45.63874364486679" lon="11.331382929730129"><ele>611.0</ele><time>2026-04-01T15:31:43Z</time></trkpt><trkpt lat="45.63879580042988" lon="11.331463035087232"><ele>611.0</ele><time>2026-04-01T15:31:44Z</time></trkpt><trkpt lat="45.63885379173449" lon="11.33153585589647"><ele>611.0</ele><time>2026-04-01T15:31:45Z</time></trkpt><trkpt lat="45.638918841561754" lon="11.331619183682317"><ele>611.0</ele><time>2026-04-01T15:31:46Z</time></trkpt><trkpt lat="45.6389527081459" lon="11.331732629745135"><ele>611.0</ele><time>2026-04-01T15:31:47Z</time></trkpt><trkpt lat="45.63898955922541" lon="11.331832745287958"><ele>609.4</ele><time>2026-04-01T15:31:48Z</time></trkpt><trkpt lat="45.639018701685394" lon="11.331947588856602"><ele>607.8</ele><time>2026-04-01T15:31:49Z</time></trkpt><trkpt lat="45.63904731242625" lon="11.332065312512006"><ele>606.1999999999999</ele><time>2026-04-01T15:31:50Z</time></trkpt><trkpt lat="45.639080850163104" lon="11.332181658264295"><ele>604.6</ele><time>2026-04-01T15:31:51Z</time></trkpt><trkpt lat="45.639121790665634" lon="11.3323079384736"><ele>603.0</ele><time>2026-04-01T15:31:52Z</time></trkpt><trkpt lat="45.63918066634199" lon="11.332425047518306"><ele>600.6</ele><time>2026-04-01T15:31:53Z</time></trkpt><trkpt lat="45.63922030098458" lon="11.33252147718768"><ele>598.1999999999999</ele><time>2026-04-01T15:31:54Z</time></trkpt><trkpt lat="45.63926531926838" lon="11.33261696686634"><ele>595.8</ele><time>2026-04-01T15:31:55Z</time></trkpt><trkpt lat="45.63932762860963" lon="11.332797461785336"><ele>593.4</ele><time>2026-04-01T15:31:57Z</time></trkpt><trkpt lat="45.639321394174075" lon="11.332895593071557"><ele>591.0</ele><time>2026-04-01T15:31:58Z</time></trkpt><trkpt lat="45.63933581071201" lon="11.333024596473225"><ele>589.8333333333334</ele><time>2026-04-01T15:31:59Z</time></trkpt><trkpt lat="45.639354617452874" lon="11.333152990596426"><ele>588.6666666666666</ele><time>2026-04-01T15:32:00Z</time></trkpt><trkpt lat="45.63939097153017" lon="11.333268635967578"><ele>587.5</ele><time>2026-04-01T15:32:01Z</time></trkpt><trkpt lat="45.63940998250681" lon="11.333368586001376"><ele>586.3333333333333</ele><time>2026-04-01T15:32:02Z</time></trkpt><trkpt lat="45.63944128010267" lon="11.333465312185531"><ele>585.1666666666666</ele><time>2026-04-01T15:32:03Z</time></trkpt><trkpt lat="45.639480958852204" lon="11.333554861538847"><ele>584.0</ele><time>2026-04-01T15:32:04Z</time></trkpt><trkpt lat="45.639494494564836" lon="11.333661361169725"><ele>587.0</ele><time>2026-04-01T15:32:05Z</time></trkpt><trkpt lat="45.6395352681389" lon="11.333752951994377"><ele>590.0</ele><time>2026-04-01T15:32:06Z</time></trkpt><trkpt lat="45.63955532058386" lon="11.33385247337878"><ele>593.0</ele><time>2026-04-01T15:32:07Z</time></trkpt><trkpt lat="45.639540629360894" lon="11.333944115760765"><ele>596.0</ele><time>2026-04-01T15:32:08Z</time></trkpt><trkpt lat="45.63954155651664" lon="11.334048629839591"><ele>599.0</ele><time>2026-04-01T15:32:09Z</time></trkpt><trkpt lat="45.639534699345596" lon="11.334147838270164"><ele>602.0</ele><time>2026-04-01T15:32:10Z</time></trkpt><trkpt lat="45.63951956296955" lon="11.334283849509525"><ele>602.0</ele><time>2026-04-01T15:32:11Z</time></trkpt><trkpt lat="45.6395036310348" lon="11.334414793399178"><ele>602.0</ele><time>2026-04-01T15:32:12Z</time></trkpt><trkpt lat="45.63949149732207" lon="11.334508789876798"><ele>602.0</ele><time>2026-04-01T15:32:13Z</time></trkpt><trkpt lat="45.63947493042545" lon="11.334605261904724"><ele>602.0</ele><time>2026-04-01T15:32:14Z</time></trkpt><trkpt lat="45.639442789933774" lon="11.334723047055155"><ele>602.0</ele><time>2026-04-01T15:32:16Z</time></trkpt><trkpt lat="45.63939640959849" lon="11.334790122508847"><ele>602.0</ele><time>2026-04-01T15:32:19Z</time></trkpt><trkpt lat="45.63933280161905" lon="11.33469501613174"><ele>597.6</ele><time>2026-04-01T15:32:20Z</time></trkpt><trkpt lat="45.6392648979232" lon="11.334631834873683"><ele>593.2</ele><time>2026-04-01T15:32:21Z</time></trkpt><trkpt lat="45.63918322079882" lon="11.334585356977131"><ele>588.8</ele><time>2026-04-01T15:32:22Z</time></trkpt><trkpt lat="45.639102231230375" lon="11.33451178212356"><ele>584.4</ele><time>2026-04-01T15:32:23Z</time></trkpt><trkpt lat="45.63901006915857" lon="11.334430388037681"><ele>580.0</ele><time>2026-04-01T15:32:24Z</time></trkpt><trkpt lat="45.638927632853736" lon="11.334350354087388"><ele>580.0</ele><time>2026-04-01T15:32:25Z</time></trkpt><trkpt lat="45.63885199328191" lon="11.334288335336158"><ele>580.0</ele><time>2026-04-01T15:32:26Z</time></trkpt><trkpt lat="45.6387880712391" lon="11.334222794057473"><ele>580.0</ele><time>2026-04-01T15:32:27Z</time></trkpt><trkpt lat="45.63872794604514" lon="11.334147778047335"><ele>580.0</ele><time>2026-04-01T15:32:28Z</time></trkpt><trkpt lat="45.63869333147692" lon="11.334062244310596"><ele>580.0</ele><time>2026-04-01T15:32:29Z</time></trkpt><trkpt lat="45.638632020733176" lon="11.334000874526092"><ele>580.0</ele><time>2026-04-01T15:32:30Z</time></trkpt><trkpt lat="45.63854084267088" lon="11.333860927703627"><ele>577.3333333333334</ele><time>2026-04-01T15:32:32Z</time></trkpt><trkpt lat="45.63849755992058" lon="11.333794112277394"><ele>574.6666666666667</ele><time>2026-04-01T15:32:33Z</time></trkpt><trkpt lat="45.63845273812319" lon="11.333726031362165"><ele>572.0</ele><time>2026-04-01T15:32:35Z</time></trkpt><trkpt lat="45.63838148929382" lon="11.333881412218465"><ele>569.3333333333334</ele><time>2026-04-01T15:32:38Z</time></trkpt><trkpt lat="45.63839082089045" lon="11.333974199998348"><ele>566.6666666666666</ele><time>2026-04-01T15:32:39Z</time></trkpt><trkpt lat="45.638401262422" lon="11.334080320596462"><ele>564.0</ele><time>2026-04-01T15:32:40Z</time></trkpt><trkpt lat="45.63842926312991" lon="11.334181058137663"><ele>563.0</ele><time>2026-04-01T15:32:41Z</time></trkpt><trkpt lat="45.6384471068317" lon="11.334283333161238"><ele>562.0</ele><time>2026-04-01T15:32:42Z</time></trkpt><trkpt lat="45.638453589325586" lon="11.334408349776558"><ele>561.0</ele><time>2026-04-01T15:32:43Z</time></trkpt><trkpt lat="45.6384677278797" lon="11.33450481980596"><ele>560.0</ele><time>2026-04-01T15:32:44Z</time></trkpt><trkpt lat="45.63847428204125" lon="11.334612174217282"><ele>559.0</ele><time>2026-04-01T15:32:45Z</time></trkpt><trkpt lat="45.6384545627023" lon="11.334709826331807"><ele>558.0</ele><time>2026-04-01T15:32:46Z</time></trkpt><trkpt lat="45.63844354800536" lon="11.334823246660203"><ele>556.4</ele><time>2026-04-01T15:32:47Z</time></trkpt><trkpt lat="45.638455751084074" lon="11.33494028422248"><ele>554.8</ele><time>2026-04-01T15:32:48Z</time></trkpt><trkpt lat="45.63845933852674" lon="11.335065845257684"><ele>553.2</ele><time>2026-04-01T15:32:49Z</time></trkpt><trkpt lat="45.638444356419775" lon="11.335195745039883"><ele>551.6</ele><time>2026-04-01T15:32:50Z</time></trkpt><trkpt lat="45.638444356407824" lon="11.335324886766516"><ele>550.0</ele><time>2026-04-01T15:32:51Z</time></trkpt><trkpt lat="45.63844557383937" lon="11.335487716802195"><ele>549.0</ele><time>2026-04-01T15:32:52Z</time></trkpt><trkpt lat="45.63847582670074" lon="11.335647461226596"><ele>548.0</ele><time>2026-04-01T15:32:53Z</time></trkpt><trkpt lat="45.63850023551647" lon="11.33577680487643"><ele>547.0</ele><time>2026-04-01T15:32:54Z</time></trkpt><trkpt lat="45.63853348410812" lon="11.335922865465083"><ele>546.0</ele><time>2026-04-01T15:32:55Z</time></trkpt><trkpt lat="45.63856038341693" lon="11.336077206045431"><ele>545.0</ele><time>2026-04-01T15:32:56Z</time></trkpt><trkpt lat="45.6385557092962" lon="11.33622074199156"><ele>545.0</ele><time>2026-04-01T15:32:57Z</time></trkpt><trkpt lat="45.63855587107219" lon="11.336350685537205"><ele>545.0</ele><time>2026-04-01T15:32:58Z</time></trkpt><trkpt lat="45.63855261605575" lon="11.336488714692397"><ele>545.0</ele><time>2026-04-01T15:32:59Z</time></trkpt><trkpt lat="45.63853981669495" lon="11.336616081853135"><ele>545.0</ele><time>2026-04-01T15:33:00Z</time></trkpt><trkpt lat="45.638503975186666" lon="11.336745279179402"><ele>545.0</ele><time>2026-04-01T15:33:01Z</time></trkpt><trkpt lat="45.6384579694313" lon="11.336850714306676"><ele>544.8333333333333</ele><time>2026-04-01T15:33:02Z</time></trkpt><trkpt lat="45.6384024882982" lon="11.336961799962463"><ele>544.6666666666666</ele><time>2026-04-01T15:33:03Z</time></trkpt><trkpt lat="45.63835417365657" lon="11.337071150872932"><ele>544.5</ele><time>2026-04-01T15:33:04Z</time></trkpt><trkpt lat="45.6383258947362" lon="11.337179647395839"><ele>544.3333333333334</ele><time>2026-04-01T15:33:05Z</time></trkpt><trkpt lat="45.63827884823608" lon="11.337262107706387"><ele>544.1666666666667</ele><time>2026-04-01T15:33:06Z</time></trkpt><trkpt lat="45.638244301924864" lon="11.337348507163869"><ele>544.0</ele><time>2026-04-01T15:33:07Z</time></trkpt><trkpt lat="45.63821751471615" lon="11.33743420132292"><ele>544.0</ele><time>2026-04-01T15:33:08Z</time></trkpt><trkpt lat="45.638155218931274" lon="11.337574788481774"><ele>544.0</ele><time>2026-04-01T15:33:10Z</time></trkpt><trkpt lat="45.63807524563536" lon="11.337693474751676"><ele>544.0</ele><time>2026-04-01T15:33:12Z</time></trkpt><trkpt lat="45.63802244714176" lon="11.337824095491671"><ele>544.0</ele><time>2026-04-01T15:33:14Z</time></trkpt><trkpt lat="45.637981433017515" lon="11.337957930046011"><ele>544.0</ele><time>2026-04-01T15:33:16Z</time></trkpt><trkpt lat="45.63799568304703" lon="11.338076088402799"><ele>543.8</ele><time>2026-04-01T15:33:18Z</time></trkpt><trkpt lat="45.63800381851321" lon="11.338223508659345"><ele>543.5999999999999</ele><time>2026-04-01T15:33:20Z</time></trkpt><trkpt lat="45.63802335211059" lon="11.338347360976144"><ele>543.4</ele><time>2026-04-01T15:33:22Z</time></trkpt><trkpt lat="45.63803790878638" lon="11.338470521021241"><ele>543.1999999999999</ele><time>2026-04-01T15:33:24Z</time></trkpt><trkpt lat="45.63803962577161" lon="11.338630174602411"><ele>543.0</ele><time>2026-04-01T15:33:26Z</time></trkpt><trkpt lat="45.63802142549731" lon="11.338766680112863"><ele>543.0</ele><time>2026-04-01T15:33:28Z</time></trkpt><trkpt lat="45.63795715586085" lon="11.338805128852051"><ele>543.0</ele><time>2026-04-01T15:33:31Z</time></trkpt><trkpt lat="45.637845093570874" lon="11.338868022353891"><ele>543.0</ele><time>2026-04-01T15:33:33Z</time></trkpt><trkpt lat="45.63776206690978" lon="11.338916809201475"><ele>543.0</ele><time>2026-04-01T15:33:35Z</time></trkpt><trkpt lat="45.63765808908663" lon="11.338948314116717"><ele>543.0</ele><time>2026-04-01T15:33:37Z</time></trkpt><trkpt lat="45.63759379022987" lon="11.33898651490341"><ele>539.0</ele><time>2026-04-01T15:33:38Z</time></trkpt><trkpt lat="45.63751539473207" lon="11.339042913183775"><ele>535.0</ele><time>2026-04-01T15:33:40Z</time></trkpt><trkpt lat="45.637457973743345" lon="11.33908671398809"><ele>531.0</ele><time>2026-04-01T15:33:42Z</time></trkpt><trkpt lat="45.6374006785683" lon="11.339181752234706"><ele>527.0</ele><time>2026-04-01T15:33:44Z</time></trkpt><trkpt lat="45.63747677103687" lon="11.339334838013713"><ele>523.0</ele><time>2026-04-01T15:33:46Z</time></trkpt><trkpt lat="45.637496020672124" lon="11.339428333827746"><ele>519.0</ele><time>2026-04-01T15:33:47Z</time></trkpt><trkpt lat="45.63752611622108" lon="11.33951850069833"><ele>519.0</ele><time>2026-04-01T15:33:48Z</time></trkpt><trkpt lat="45.637554222320745" lon="11.339620142142927"><ele>519.0</ele><time>2026-04-01T15:33:49Z</time></trkpt><trkpt lat="45.63751916955068" lon="11.339726695301145"><ele>519.0</ele><time>2026-04-01T15:33:51Z</time></trkpt><trkpt lat="45.63743025760317" lon="11.33989306508988"><ele>519.0</ele><time>2026-04-01T15:33:53Z</time></trkpt><trkpt lat="45.637388854889686" lon="11.339971425183458"><ele>519.0</ele><time>2026-04-01T15:33:54Z</time></trkpt><trkpt lat="45.63731221395246" lon="11.34008557142492"><ele>519.0</ele><time>2026-04-01T15:33:56Z</time></trkpt><trkpt lat="45.637229855988444" lon="11.340146066060548"><ele>519.0</ele><time>2026-04-01T15:33:58Z</time></trkpt><trkpt lat="45.63710873693985" lon="11.340191838021402"><ele>519.0</ele><time>2026-04-01T15:34:00Z</time></trkpt><trkpt lat="45.6370419886115" lon="11.340210061667255"><ele>519.0</ele><time>2026-04-01T15:34:01Z</time></trkpt><trkpt lat="45.6369587182787" lon="11.340245012872339"><ele>519.0</ele><time>2026-04-01T15:34:03Z</time></trkpt><trkpt lat="45.63683452012491" lon="11.340341224936589"><ele>517.4</ele><time>2026-04-01T15:34:05Z</time></trkpt><trkpt lat="45.63672763731978" lon="11.34041694351665"><ele>515.8</ele><time>2026-04-01T15:34:07Z</time></trkpt><trkpt lat="45.63663397854505" lon="11.340472697015429"><ele>514.2</ele><time>2026-04-01T15:34:09Z</time></trkpt><trkpt lat="45.63656472933929" lon="11.34051541150056"><ele>512.6</ele><time>2026-04-01T15:34:11Z</time></trkpt><trkpt lat="45.63646028017451" lon="11.340601919384453"><ele>511.0</ele><time>2026-04-01T15:34:13Z</time></trkpt><trkpt lat="45.636399492579116" lon="11.340568086767124"><ele>511.0</ele><time>2026-04-01T15:34:15Z</time></trkpt><trkpt lat="45.63638397238612" lon="11.34047912615518"><ele>511.0</ele><time>2026-04-01T15:34:17Z</time></trkpt><trkpt lat="45.636370022261204" lon="11.340387779010266"><ele>511.0</ele><time>2026-04-01T15:34:20Z</time></trkpt><trkpt lat="45.636385021127786" lon="11.340480840712226"><ele>511.0</ele><time>2026-04-01T15:34:35Z</time></trkpt><trkpt lat="45.63639972325962" lon="11.34059870482748"><ele>511.0</ele><time>2026-04-01T15:34:37Z</time></trkpt><trkpt lat="45.63644730104041" lon="11.340669631848973"><ele>511.0</ele><time>2026-04-01T15:34:39Z</time></trkpt><trkpt lat="45.63642487526898" lon="11.340568971376577"><ele>511.0</ele><time>2026-04-01T15:34:41Z</time></trkpt><trkpt lat="45.636601167820075" lon="11.340517496984193"><ele>511.00000000000006</ele><time>2026-04-01T15:34:42Z</time></trkpt><trkpt lat="45.63653626330843" lon="11.340567953177866"><ele>511.0</ele><time>2026-04-01T15:39:56Z</time></trkpt><trkpt lat="45.63648387053723" lon="11.340665284652093"><ele>511.0</ele><time>2026-04-01T15:39:58Z</time></trkpt><trkpt lat="45.63641011035671" lon="11.340632447766353"><ele>511.0</ele><time>2026-04-01T15:40:00Z</time></trkpt><trkpt lat="45.636371248628585" lon="11.340533502298555"><ele>511.00000000000006</ele><time>2026-04-01T15:40:02Z</time></trkpt><trkpt lat="45.63636128021093" lon="11.340435441116016"><ele>511.0</ele><time>2026-04-01T15:40:04Z</time></trkpt><trkpt lat="45.636333932880994" lon="11.34033494474566"><ele>508.8</ele><time>2026-04-01T15:40:40Z</time></trkpt><trkpt lat="45.63634872226035" lon="11.340211223683234"><ele>506.6</ele><time>2026-04-01T15:40:42Z</time></trkpt><trkpt lat="45.63634021041897" lon="11.340065007256081"><ele>504.4</ele><time>2026-04-01T15:40:44Z</time></trkpt><trkpt lat="45.6362974658512" lon="11.3399617521823"><ele>502.2</ele><time>2026-04-01T15:40:46Z</time></trkpt><trkpt lat="45.636249393506" lon="11.3398161208829"><ele>500.0</ele><time>2026-04-01T15:40:48Z</time></trkpt><trkpt lat="45.63623359368093" lon="11.339704740752518"><ele>499.6</ele><time>2026-04-01T15:40:49Z</time></trkpt><trkpt lat="45.63621754432505" lon="11.339556907069696"><ele>499.2</ele><time>2026-04-01T15:40:50Z</time></trkpt><trkpt lat="45.63619293567016" lon="11.339414917093041"><ele>498.79999999999995</ele><time>2026-04-01T15:40:51Z</time></trkpt><trkpt lat="45.63617790856641" lon="11.3392822874083"><ele>498.4</ele><time>2026-04-01T15:40:52Z</time></trkpt><trkpt lat="45.636156783935164" lon="11.339185368853542"><ele>498.0</ele><time>2026-04-01T15:40:53Z</time></trkpt><trkpt lat="45.636141017757076" lon="11.339062625045397"><ele>494.3333333333333</ele><time>2026-04-01T15:40:54Z</time></trkpt><trkpt lat="45.63612910248389" lon="11.338935658091483"><ele>490.66666666666663</ele><time>2026-04-01T15:40:55Z</time></trkpt><trkpt lat="45.63610369592859" lon="11.338829283490949"><ele>487.0</ele><time>2026-04-01T15:40:56Z</time></trkpt><trkpt lat="45.63607425668272" lon="11.338735967099254"><ele>483.3333333333333</ele><time>2026-04-01T15:40:57Z</time></trkpt><trkpt lat="45.636040325493994" lon="11.338631740957489"><ele>479.66666666666663</ele><time>2026-04-01T15:40:58Z</time></trkpt><trkpt lat="45.63600103469813" lon="11.338518663604427"><ele>476.0</ele><time>2026-04-01T15:40:59Z</time></trkpt><trkpt lat="45.635953559182745" lon="11.338404184317046"><ele>476.0</ele><time>2026-04-01T15:41:00Z</time></trkpt><trkpt lat="45.63592166842718" lon="11.33830179643653"><ele>476.0</ele><time>2026-04-01T15:41:01Z</time></trkpt><trkpt lat="45.635879538082165" lon="11.338166497256747"><ele>476.0</ele><time>2026-04-01T15:41:03Z</time></trkpt><trkpt lat="45.63576645934256" lon="11.338156410993044"><ele>476.0</ele><time>2026-04-01T15:41:05Z</time></trkpt><trkpt lat="45.6357201552001" lon="11.338237954252152"><ele>476.0</ele><time>2026-04-01T15:41:06Z</time></trkpt><trkpt lat="45.63572004005419" lon="11.338364932371636"><ele>475.99999999999994</ele><time>2026-04-01T15:41:07Z</time></trkpt><trkpt lat="45.635723522156276" lon="11.338492482635836"><ele>476.0</ele><time>2026-04-01T15:41:08Z</time></trkpt><trkpt lat="45.635724801177574" lon="11.338585054791665"><ele>476.0</ele><time>2026-04-01T15:41:09Z</time></trkpt><trkpt lat="45.63572571490729" lon="11.33867729461204"><ele>476.0</ele><time>2026-04-01T15:41:10Z</time></trkpt><trkpt lat="45.635720866452985" lon="11.33882240997236"><ele>475.99999999999994</ele><time>2026-04-01T15:41:12Z</time></trkpt><trkpt lat="45.635710869262375" lon="11.338948103180602"><ele>476.0</ele><time>2026-04-01T15:41:14Z</time></trkpt><trkpt lat="45.635676118788076" lon="11.33910182884425"><ele>475.8333333333333</ele><time>2026-04-01T15:41:16Z</time></trkpt><trkpt lat="45.63563942462115" lon="11.339184599561381"><ele>475.66666666666663</ele><time>2026-04-01T15:41:17Z</time></trkpt><trkpt lat="45.63553828769736" lon="11.33925803619422"><ele>475.5</ele><time>2026-04-01T15:41:19Z</time></trkpt><trkpt lat="45.635476422436916" lon="11.33928582280561"><ele>475.33333333333337</ele><time>2026-04-01T15:41:20Z</time></trkpt><trkpt lat="45.63538409381573" lon="11.339329139516865"><ele>475.1666666666667</ele><time>2026-04-01T15:41:21Z</time></trkpt><trkpt lat="45.6352850286915" lon="11.339370989397919"><ele>475.0</ele><time>2026-04-01T15:41:22Z</time></trkpt><trkpt lat="45.63519432146821" lon="11.339400560583462"><ele>473.1666666666667</ele><time>2026-04-01T15:41:23Z</time></trkpt><trkpt lat="45.63511865237332" lon="11.339399973724719"><ele>471.33333333333337</ele><time>2026-04-01T15:41:24Z</time></trkpt><trkpt lat="45.63505536893437" lon="11.339367779494774"><ele>469.5</ele><time>2026-04-01T15:41:25Z</time></trkpt><trkpt lat="45.63498732839844" lon="11.339324881818943"><ele>467.66666666666663</ele><time>2026-04-01T15:41:26Z</time></trkpt><trkpt lat="45.63490121608429" lon="11.33927264663903"><ele>465.8333333333333</ele><time>2026-04-01T15:41:27Z</time></trkpt><trkpt lat="45.63482103392126" lon="11.339216715147433"><ele>464.0</ele><time>2026-04-01T15:41:28Z</time></trkpt><trkpt lat="45.63476294872011" lon="11.339160231432697"><ele>463.99999999999994</ele><time>2026-04-01T15:41:29Z</time></trkpt><trkpt lat="45.63470215327058" lon="11.339088785369437"><ele>464.0</ele><time>2026-04-01T15:41:30Z</time></trkpt><trkpt lat="45.63463229596193" lon="11.339064744223109"><ele>464.0</ele><time>2026-04-01T15:41:31Z</time></trkpt><trkpt lat="45.634556465775646" lon="11.338980307766958"><ele>464.0</ele><time>2026-04-01T15:41:33Z</time></trkpt><trkpt lat="45.63448324785823" lon="11.338920884315131"><ele>463.99999999999994</ele><time>2026-04-01T15:41:36Z</time></trkpt><trkpt lat="45.63440536182025" lon="11.33903514052042"><ele>464.0</ele><time>2026-04-01T15:41:37Z</time></trkpt><trkpt lat="45.63434602771946" lon="11.33909597452205"><ele>462.3333333333333</ele><time>2026-04-01T15:41:38Z</time></trkpt><trkpt lat="45.634316648448404" lon="11.33918467655963"><ele>460.66666666666663</ele><time>2026-04-01T15:41:39Z</time></trkpt><trkpt lat="45.63432404069656" lon="11.33929562035986"><ele>459.0</ele><time>2026-04-01T15:41:40Z</time></trkpt><trkpt lat="45.6343780609758" lon="11.339387287848009"><ele>457.33333333333337</ele><time>2026-04-01T15:41:42Z</time></trkpt><trkpt lat="45.63441796615292" lon="11.339506320967516"><ele>455.6666666666667</ele><time>2026-04-01T15:41:44Z</time></trkpt><trkpt lat="45.634434003212796" lon="11.339624183935744"><ele>454.0</ele><time>2026-04-01T15:41:47Z</time></trkpt><trkpt lat="45.63435898273686" lon="11.339654056713549"><ele>454.0</ele><time>2026-04-01T15:41:49Z</time></trkpt><trkpt lat="45.63425576593971" lon="11.339658893417262"><ele>454.0</ele><time>2026-04-01T15:41:51Z</time></trkpt><trkpt lat="45.63416446499886" lon="11.339671360366465"><ele>454.0</ele><time>2026-04-01T15:41:52Z</time></trkpt><trkpt lat="45.63408740836663" lon="11.339679625636922"><ele>454.0</ele><time>2026-04-01T15:41:53Z</time></trkpt><trkpt lat="45.63400461197723" lon="11.339687514571489"><ele>454.0</ele><time>2026-04-01T15:41:54Z</time></trkpt><trkpt lat="45.63391176143865" lon="11.339717759275185"><ele>454.4</ele><time>2026-04-01T15:41:55Z</time></trkpt><trkpt lat="45.633808968176375" lon="11.339727923000158"><ele>454.79999999999995</ele><time>2026-04-01T15:41:56Z</time></trkpt><trkpt lat="45.63370250286124" lon="11.339733663617409"><ele>455.20000000000005</ele><time>2026-04-01T15:41:57Z</time></trkpt><trkpt lat="45.63359004417941" lon="11.339763513558093"><ele>455.6</ele><time>2026-04-01T15:41:58Z</time></trkpt><trkpt lat="45.63348147378798" lon="11.339778520623755"><ele>456.0</ele><time>2026-04-01T15:41:59Z</time></trkpt><trkpt lat="45.63338781769399" lon="11.339778173662422"><ele>456.0</ele><time>2026-04-01T15:42:00Z</time></trkpt><trkpt lat="45.63330282815494" lon="11.33976983977794"><ele>456.0</ele><time>2026-04-01T15:42:01Z</time></trkpt><trkpt lat="45.633214772490895" lon="11.339792729307645"><ele>456.0</ele><time>2026-04-01T15:42:02Z</time></trkpt><trkpt lat="45.633130159297394" lon="11.339776343857688"><ele>456.0</ele><time>2026-04-01T15:42:03Z</time></trkpt><trkpt lat="45.63300750286395" lon="11.339791279453909"><ele>456.0</ele><time>2026-04-01T15:42:04Z</time></trkpt><trkpt lat="45.632888781439206" lon="11.339813508182415"><ele>455.0</ele><time>2026-04-01T15:42:05Z</time></trkpt><trkpt lat="45.63279612307502" lon="11.339841332188408"><ele>454.0</ele><time>2026-04-01T15:42:06Z</time></trkpt><trkpt lat="45.63271575081677" lon="11.339872195099948"><ele>453.0</ele><time>2026-04-01T15:42:07Z</time></trkpt><trkpt lat="45.63263413410927" lon="11.339915020618879"><ele>452.0</ele><time>2026-04-01T15:42:08Z</time></trkpt><trkpt lat="45.632545952636754" lon="11.339982432013398"><ele>451.0</ele><time>2026-04-01T15:42:09Z</time></trkpt><trkpt lat="45.632473725331074" lon="11.340069556467277"><ele>451.00000000000006</ele><time>2026-04-01T15:42:10Z</time></trkpt><trkpt lat="45.63243150318655" lon="11.340153371269986"><ele>451.0</ele><time>2026-04-01T15:42:11Z</time></trkpt><trkpt lat="45.63237048513453" lon="11.340223556843327"><ele>451.0</ele><time>2026-04-01T15:42:12Z</time></trkpt><trkpt lat="45.63231425173611" lon="11.340309435246967"><ele>451.0</ele><time>2026-04-01T15:42:13Z</time></trkpt><trkpt lat="45.63224792607531" lon="11.340415715443022"><ele>451.00000000000006</ele><time>2026-04-01T15:42:14Z</time></trkpt><trkpt lat="45.63219823175985" lon="11.340496856402615"><ele>451.0</ele><time>2026-04-01T15:42:15Z</time></trkpt><trkpt lat="45.63213886434114" lon="11.340588931456596"><ele>450.4</ele><time>2026-04-01T15:42:16Z</time></trkpt><trkpt lat="45.63207825983585" lon="11.340670070106132"><ele>449.8</ele><time>2026-04-01T15:42:17Z</time></trkpt><trkpt lat="45.632009484763294" lon="11.34076225520535"><ele>449.19999999999993</ele><time>2026-04-01T15:42:18Z</time></trkpt><trkpt lat="45.63194806000655" lon="11.34088030071211"><ele>448.59999999999997</ele><time>2026-04-01T15:42:19Z</time></trkpt><trkpt lat="45.631843228553855" lon="11.341030427866857"><ele>448.0</ele><time>2026-04-01T15:42:21Z</time></trkpt><trkpt lat="45.6317646459597" lon="11.341075033938745"><ele>448.0</ele><time>2026-04-01T15:42:22Z</time></trkpt><trkpt lat="45.63167780323714" lon="11.341159297468378"><ele>447.99999999999994</ele><time>2026-04-01T15:42:23Z</time></trkpt><trkpt lat="45.63158124503112" lon="11.341271938459574"><ele>447.99999999999994</ele><time>2026-04-01T15:42:24Z</time></trkpt><trkpt lat="45.6314927446946" lon="11.341365560569518"><ele>448.0</ele><time>2026-04-01T15:42:25Z</time></trkpt><trkpt lat="45.63140371755737" lon="11.341412155311378"><ele>448.0</ele><time>2026-04-01T15:42:26Z</time></trkpt><trkpt lat="45.63132588331351" lon="11.341462037968444"><ele>450.2</ele><time>2026-04-01T15:42:27Z</time></trkpt><trkpt lat="45.63124167365306" lon="11.341549790255385"><ele>452.4</ele><time>2026-04-01T15:42:28Z</time></trkpt><trkpt lat="45.63116627630802" lon="11.341650075620619"><ele>454.59999999999997</ele><time>2026-04-01T15:42:29Z</time></trkpt><trkpt lat="45.631095155047845" lon="11.341727414500234"><ele>456.79999999999995</ele><time>2026-04-01T15:42:30Z</time></trkpt><trkpt lat="45.63102565539004" lon="11.341789237619366"><ele>459.0</ele><time>2026-04-01T15:42:31Z</time></trkpt><trkpt lat="45.63094875971505" lon="11.341861288613734"><ele>459.0</ele><time>2026-04-01T15:42:32Z</time></trkpt><trkpt lat="45.6308905260069" lon="11.34192678782244"><ele>459.0</ele><time>2026-04-01T15:42:33Z</time></trkpt><trkpt lat="45.6308444484578" lon="11.342005419066744"><ele>459.0</ele><time>2026-04-01T15:42:34Z</time></trkpt><trkpt lat="45.63077289451131" lon="11.342070884554776"><ele>459.0</ele><time>2026-04-01T15:42:36Z</time></trkpt><trkpt lat="45.63071573280711" lon="11.342158270590229"><ele>459.0</ele><time>2026-04-01T15:42:37Z</time></trkpt><trkpt lat="45.63065622630235" lon="11.342276422866682"><ele>459.0</ele><time>2026-04-01T15:42:38Z</time></trkpt><trkpt lat="45.630625537678206" lon="11.342393847444706"><ele>460.1666666666667</ele><time>2026-04-01T15:42:39Z</time></trkpt><trkpt lat="45.63057892292251" lon="11.342455111264982"><ele>461.33333333333337</ele><time>2026-04-01T15:42:40Z</time></trkpt><trkpt lat="45.63051017674789" lon="11.342507036709588"><ele>462.5</ele><time>2026-04-01T15:42:42Z</time></trkpt><trkpt lat="45.63045953673769" lon="11.342445547749238"><ele>463.6666666666667</ele><time>2026-04-01T15:42:45Z</time></trkpt><trkpt lat="45.630374161982516" lon="11.342578478534305"><ele>464.83333333333337</ele><time>2026-04-01T15:42:47Z</time></trkpt><trkpt lat="45.63030773292503" lon="11.342621964882154"><ele>466.0</ele><time>2026-04-01T15:42:48Z</time></trkpt><trkpt lat="45.630187497106746" lon="11.34271801978032"><ele>465.00000000000006</ele><time>2026-04-01T15:42:50Z</time></trkpt><trkpt lat="45.63013106148489" lon="11.342779968300926"><ele>464.0</ele><time>2026-04-01T15:42:51Z</time></trkpt><trkpt lat="45.63007690644891" lon="11.34285675781966"><ele>463.0</ele><time>2026-04-01T15:42:52Z</time></trkpt><trkpt lat="45.63003835307342" lon="11.342941064552162"><ele>462.0</ele><time>2026-04-01T15:42:53Z</time></trkpt><trkpt lat="45.62996713189221" lon="11.343098810179407"><ele>461.00000000000006</ele><time>2026-04-01T15:42:55Z</time></trkpt><trkpt lat="45.62991810559646" lon="11.343186259647366"><ele>460.0</ele><time>2026-04-01T15:42:56Z</time></trkpt><trkpt lat="45.629862375229955" lon="11.343267618102916"><ele>460.0</ele><time>2026-04-01T15:42:57Z</time></trkpt><trkpt lat="45.62980500793292" lon="11.34334346257913"><ele>460.0</ele><time>2026-04-01T15:42:58Z</time></trkpt><trkpt lat="45.629738397214986" lon="11.343431762221373"><ele>460.0</ele><time>2026-04-01T15:42:59Z</time></trkpt><trkpt lat="45.62966287683389" lon="11.343530875808854"><ele>460.0</ele><time>2026-04-01T15:43:00Z</time></trkpt><trkpt lat="45.629587886971066" lon="11.343627581501464"><ele>460.0</ele><time>2026-04-01T15:43:01Z</time></trkpt><trkpt lat="45.62951032645365" lon="11.343725803153598"><ele>460.1666666666667</ele><time>2026-04-01T15:43:02Z</time></trkpt><trkpt lat="45.62943479932828" lon="11.343819990852236"><ele>460.33333333333337</ele><time>2026-04-01T15:43:03Z</time></trkpt><trkpt lat="45.62938392710258" lon="11.343883423054969"><ele>460.5</ele><time>2026-04-01T15:43:04Z</time></trkpt><trkpt lat="45.62932340959822" lon="11.343959448059783"><ele>460.66666666666663</ele><time>2026-04-01T15:43:05Z</time></trkpt><trkpt lat="45.62925471476434" lon="11.344043373516866"><ele>460.8333333333333</ele><time>2026-04-01T15:43:06Z</time></trkpt><trkpt lat="45.62917175821955" lon="11.344110035224494"><ele>461.0</ele><time>2026-04-01T15:43:07Z</time></trkpt><trkpt lat="45.629086725748785" lon="11.344164439499341"><ele>460.99999999999994</ele><time>2026-04-01T15:43:08Z</time></trkpt><trkpt lat="45.629009404043316" lon="11.344211149806213"><ele>461.0</ele><time>2026-04-01T15:43:09Z</time></trkpt><trkpt lat="45.62894103460363" lon="11.344247657030296"><ele>461.0</ele><time>2026-04-01T15:43:10Z</time></trkpt><trkpt lat="45.62885608892818" lon="11.344287605530718"><ele>461.0</ele><time>2026-04-01T15:43:11Z</time></trkpt><trkpt lat="45.62877536651356" lon="11.344321076733776"><ele>460.99999999999994</ele><time>2026-04-01T15:43:12Z</time></trkpt><trkpt lat="45.62869327288083" lon="11.344354164283752"><ele>461.0</ele><time>2026-04-01T15:43:13Z</time></trkpt><trkpt lat="45.62860992086644" lon="11.344387759067208"><ele>460.14285714285717</ele><time>2026-04-01T15:43:14Z</time></trkpt><trkpt lat="45.628535905642956" lon="11.344418192499122"><ele>459.28571428571433</ele><time>2026-04-01T15:43:15Z</time></trkpt><trkpt lat="45.62845748846622" lon="11.344454219922053"><ele>458.42857142857144</ele><time>2026-04-01T15:43:16Z</time></trkpt><trkpt lat="45.62839808865404" lon="11.344498820977547"><ele>457.57142857142856</ele><time>2026-04-01T15:43:17Z</time></trkpt><trkpt lat="45.62833265423321" lon="11.34453877374472"><ele>456.7142857142857</ele><time>2026-04-01T15:43:18Z</time></trkpt><trkpt lat="45.62826554129359" lon="11.344554194075702"><ele>455.8571428571429</ele><time>2026-04-01T15:43:19Z</time></trkpt><trkpt lat="45.62820013290089" lon="11.344618499163898"><ele>455.0</ele><time>2026-04-01T15:43:20Z</time></trkpt><trkpt lat="45.6281530351958" lon="11.344721991525175"><ele>459.2</ele><time>2026-04-01T15:43:21Z</time></trkpt><trkpt lat="45.6280889927388" lon="11.344838233464435"><ele>463.4</ele><time>2026-04-01T15:43:23Z</time></trkpt><trkpt lat="45.627996939743774" lon="11.344763527442877"><ele>467.6</ele><time>2026-04-01T15:43:27Z</time></trkpt><trkpt lat="45.62791737408646" lon="11.344820796004598"><ele>471.8</ele><time>2026-04-01T15:43:29Z</time></trkpt><trkpt lat="45.62788012411489" lon="11.344905172833029"><ele>476.0</ele><time>2026-04-01T15:43:30Z</time></trkpt><trkpt lat="45.62781709046457" lon="11.345028649637799"><ele>473.0</ele><time>2026-04-01T15:43:32Z</time></trkpt><trkpt lat="45.62776263813975" lon="11.345152524700472"><ele>470.0</ele><time>2026-04-01T15:43:34Z</time></trkpt><trkpt lat="45.62769730830065" lon="11.345273807775067"><ele>467.0</ele><time>2026-04-01T15:43:36Z</time></trkpt><trkpt lat="45.62760979454019" lon="11.345296553018718"><ele>464.0</ele><time>2026-04-01T15:43:39Z</time></trkpt><trkpt lat="45.62752589302706" lon="11.34523281879704"><ele>461.0</ele><time>2026-04-01T15:43:41Z</time></trkpt><trkpt lat="45.627499240788914" lon="11.345125587172454"><ele>460.99999999999994</ele><time>2026-04-01T15:43:43Z</time></trkpt><trkpt lat="45.627484332685476" lon="11.34503436411688"><ele>461.0</ele><time>2026-04-01T15:43:44Z</time></trkpt><trkpt lat="45.627469152820964" lon="11.34492985750183"><ele>461.0</ele><time>2026-04-01T15:43:45Z</time></trkpt><trkpt lat="45.62743891479915" lon="11.344814559717829"><ele>461.0</ele><time>2026-04-01T15:43:46Z</time></trkpt><trkpt lat="45.627388884845566" lon="11.34472768891953"><ele>460.99999999999994</ele><time>2026-04-01T15:43:47Z</time></trkpt><trkpt lat="45.62732475231546" lon="11.344650103533741"><ele>461.0</ele><time>2026-04-01T15:43:48Z</time></trkpt><trkpt lat="45.62724707871981" lon="11.34456549516536"><ele>461.16666666666663</ele><time>2026-04-01T15:43:49Z</time></trkpt><trkpt lat="45.62717451851719" lon="11.344491588127088"><ele>461.3333333333333</ele><time>2026-04-01T15:43:50Z</time></trkpt><trkpt lat="45.6270924322011" lon="11.344417658162788"><ele>461.5</ele><time>2026-04-01T15:43:51Z</time></trkpt><trkpt lat="45.62701634841862" lon="11.344350403258131"><ele>461.66666666666663</ele><time>2026-04-01T15:43:52Z</time></trkpt><trkpt lat="45.62694872465316" lon="11.344286983498439"><ele>461.8333333333333</ele><time>2026-04-01T15:43:53Z</time></trkpt><trkpt lat="45.62688424197928" lon="11.34421592805887"><ele>462.0</ele><time>2026-04-01T15:43:54Z</time></trkpt><trkpt lat="45.626802035068586" lon="11.344149385942105"><ele>457.8</ele><time>2026-04-01T15:43:55Z</time></trkpt><trkpt lat="45.62670833027453" lon="11.344078305014477"><ele>453.6</ele><time>2026-04-01T15:43:56Z</time></trkpt><trkpt lat="45.62661223188353" lon="11.344035051343766"><ele>449.40000000000003</ele><time>2026-04-01T15:43:57Z</time></trkpt><trkpt lat="45.6265322365391" lon="11.343974158904128"><ele>445.20000000000005</ele><time>2026-04-01T15:43:58Z</time></trkpt><trkpt lat="45.626438532404336" lon="11.343948473473642"><ele>441.0</ele><time>2026-04-01T15:43:59Z</time></trkpt><trkpt lat="45.626342638927255" lon="11.343969740818801"><ele>441.0</ele><time>2026-04-01T15:44:00Z</time></trkpt><trkpt lat="45.62622186926722" lon="11.343961799751273"><ele>441.0</ele><time>2026-04-01T15:44:01Z</time></trkpt><trkpt lat="45.626078821949406" lon="11.343997705456545"><ele>441.0</ele><time>2026-04-01T15:44:02Z</time></trkpt><trkpt lat="45.62594752419248" lon="11.344044079683478"><ele>441.0</ele><time>2026-04-01T15:44:03Z</time></trkpt><trkpt lat="45.62584479992506" lon="11.344085382120419"><ele>437.5</ele><time>2026-04-01T15:44:04Z</time></trkpt><trkpt lat="45.6257690825949" lon="11.344113214713396"><ele>434.0</ele><time>2026-04-01T15:44:05Z</time></trkpt><trkpt lat="45.625690116502945" lon="11.344128592701516"><ele>430.5</ele><time>2026-04-01T15:44:06Z</time></trkpt><trkpt lat="45.62561607315115" lon="11.344106045671486"><ele>427.0</ele><time>2026-04-01T15:44:07Z</time></trkpt><trkpt lat="45.62552950633822" lon="11.344071241169004"><ele>423.5</ele><time>2026-04-01T15:44:08Z</time></trkpt><trkpt lat="45.62543606625839" lon="11.344012420500121"><ele>420.0</ele><time>2026-04-01T15:44:09Z</time></trkpt><trkpt lat="45.6253264505226" lon="11.343938018073457"><ele>418.2</ele><time>2026-04-01T15:44:10Z</time></trkpt><trkpt lat="45.625223959373095" lon="11.343896033019822"><ele>416.4</ele><time>2026-04-01T15:44:11Z</time></trkpt><trkpt lat="45.62513829385894" lon="11.343834728240969"><ele>414.6</ele><time>2026-04-01T15:44:12Z</time></trkpt><trkpt lat="45.625049736527615" lon="11.343789915226088"><ele>412.8</ele><time>2026-04-01T15:44:13Z</time></trkpt><trkpt lat="45.624964130420885" lon="11.343728735753356"><ele>411.0</ele><time>2026-04-01T15:44:14Z</time></trkpt><trkpt lat="45.624868095938446" lon="11.343697307731636"><ele>410.5</ele><time>2026-04-01T15:44:15Z</time></trkpt><trkpt lat="45.62478161895513" lon="11.343673000220134"><ele>410.0</ele><time>2026-04-01T15:44:16Z</time></trkpt><trkpt lat="45.62469125985086" lon="11.343652257357308"><ele>409.5</ele><time>2026-04-01T15:44:17Z</time></trkpt><trkpt lat="45.62461488889259" lon="11.343648645045796"><ele>409.0</ele><time>2026-04-01T15:44:18Z</time></trkpt><trkpt lat="45.624530385315474" lon="11.343621245499868"><ele>408.5</ele><time>2026-04-01T15:44:19Z</time></trkpt><trkpt lat="45.624445570308154" lon="11.343617090627935"><ele>408.0</ele><time>2026-04-01T15:44:20Z</time></trkpt><trkpt lat="45.62432285129852" lon="11.34358642732256"><ele>406.59999999999997</ele><time>2026-04-01T15:44:21Z</time></trkpt><trkpt lat="45.62421167127037" lon="11.34358848316829"><ele>405.2</ele><time>2026-04-01T15:44:22Z</time></trkpt><trkpt lat="45.624101241774675" lon="11.34361740570926"><ele>403.8</ele><time>2026-04-01T15:44:23Z</time></trkpt><trkpt lat="45.62399087830294" lon="11.343630103112531"><ele>402.4</ele><time>2026-04-01T15:44:24Z</time></trkpt><trkpt lat="45.623887699482296" lon="11.343649675399888"><ele>401.0</ele><time>2026-04-01T15:44:25Z</time></trkpt><trkpt lat="45.623804918330116" lon="11.34364751684"><ele>400.99999999999994</ele><time>2026-04-01T15:44:26Z</time></trkpt><trkpt lat="45.623734719429805" lon="11.343692555148722"><ele>401.0</ele><time>2026-04-01T15:44:27Z</time></trkpt><trkpt lat="45.62368297672295" lon="11.343795888191659"><ele>401.0</ele><time>2026-04-01T15:44:28Z</time></trkpt><trkpt lat="45.62367014593834" lon="11.343913492379693"><ele>401.0</ele><time>2026-04-01T15:44:29Z</time></trkpt><trkpt lat="45.623652885528635" lon="11.344036822759882"><ele>400.99999999999994</ele><time>2026-04-01T15:44:30Z</time></trkpt><trkpt lat="45.6236573918325" lon="11.344153325453414"><ele>401.0</ele><time>2026-04-01T15:44:31Z</time></trkpt><trkpt lat="45.623683374056725" lon="11.344263616264678"><ele>401.49999999999994</ele><time>2026-04-01T15:44:32Z</time></trkpt><trkpt lat="45.62371844698867" lon="11.344355978629968"><ele>402.0</ele><time>2026-04-01T15:44:33Z</time></trkpt><trkpt lat="45.6237659224173" lon="11.344452103178641"><ele>402.5</ele><time>2026-04-01T15:44:34Z</time></trkpt><trkpt lat="45.62381094250599" lon="11.344557229331865"><ele>403.0</ele><time>2026-04-01T15:44:35Z</time></trkpt><trkpt lat="45.623851889140006" lon="11.344653468073028"><ele>403.49999999999994</ele><time>2026-04-01T15:44:36Z</time></trkpt><trkpt lat="45.62389924437473" lon="11.344756338152465"><ele>404.0</ele><time>2026-04-01T15:44:37Z</time></trkpt><trkpt lat="45.62392401542767" lon="11.344855765009337"><ele>402.16666666666663</ele><time>2026-04-01T15:44:38Z</time></trkpt><trkpt lat="45.62392014264471" lon="11.344967822580653"><ele>400.3333333333333</ele><time>2026-04-01T15:44:39Z</time></trkpt><trkpt lat="45.623930649211" lon="11.345076812867129"><ele>398.5</ele><time>2026-04-01T15:44:41Z</time></trkpt><trkpt lat="45.6239261392498" lon="11.345167103523826"><ele>396.66666666666663</ele><time>2026-04-01T15:46:25Z</time></trkpt><trkpt lat="45.62388972569361" lon="11.345250278955874"><ele>394.8333333333333</ele><time>2026-04-01T15:47:21Z</time></trkpt><trkpt lat="45.62381645878723" lon="11.345425606458019"><ele>393.0</ele><time>2026-04-01T15:47:26Z</time></trkpt><trkpt lat="45.62378025477181" lon="11.345512242160353"><ele>392.0</ele><time>2026-04-01T15:47:27Z</time></trkpt><trkpt lat="45.623961951415296" lon="11.345794791864531"><ele>391.0</ele><time>2026-04-01T15:47:28Z</time></trkpt><trkpt lat="45.6239616870781" lon="11.345921897311014"><ele>390.0</ele><time>2026-04-01T15:47:29Z</time></trkpt><trkpt lat="45.62395077331658" lon="11.346031902530521"><ele>389.0</ele><time>2026-04-01T15:47:30Z</time></trkpt><trkpt lat="45.62395937988254" lon="11.346133981433159"><ele>389.0</ele><time>2026-04-01T15:47:31Z</time></trkpt><trkpt lat="45.623964838400326" lon="11.346314122236125"><ele>389.0</ele><time>2026-04-01T15:47:33Z</time></trkpt><trkpt lat="45.623966001228595" lon="11.34641064002195"><ele>389.0</ele><time>2026-04-01T15:47:34Z</time></trkpt><trkpt lat="45.62398415043187" lon="11.3465609497133"><ele>389.0</ele><time>2026-04-01T15:47:36Z</time></trkpt><trkpt lat="45.62401586090639" lon="11.346643701739179"><ele>389.0</ele><time>2026-04-01T15:47:37Z</time></trkpt><trkpt lat="45.624078664745504" lon="11.346770691658945"><ele>388.2857142857143</ele><time>2026-04-01T15:47:39Z</time></trkpt><trkpt lat="45.624126193605306" lon="11.346830681027859"><ele>387.57142857142856</ele><time>2026-04-01T15:47:40Z</time></trkpt><trkpt lat="45.62417300475622" lon="11.346898836424815"><ele>386.85714285714283</ele><time>2026-04-01T15:47:41Z</time></trkpt><trkpt lat="45.62419849989426" lon="11.34698307629041"><ele>386.1428571428571</ele><time>2026-04-01T15:47:42Z</time></trkpt><trkpt lat="45.62424438016668" lon="11.347100881057443"><ele>385.42857142857144</ele><time>2026-04-01T15:47:44Z</time></trkpt><trkpt lat="45.62430169904325" lon="11.347177946989442"><ele>384.71428571428567</ele><time>2026-04-01T15:47:45Z</time></trkpt><trkpt lat="45.62436297327532" lon="11.347242648530809"><ele>384.0</ele><time>2026-04-01T15:47:46Z</time></trkpt><trkpt lat="45.62442415900883" lon="11.347310530101682"><ele>385.6666666666667</ele><time>2026-04-01T15:47:47Z</time></trkpt><trkpt lat="45.62448549863667" lon="11.347402364823973"><ele>387.33333333333337</ele><time>2026-04-01T15:47:48Z</time></trkpt><trkpt lat="45.62453384192983" lon="11.347461315738162"><ele>389.0</ele><time>2026-04-01T15:47:49Z</time></trkpt><trkpt lat="45.624619368375754" lon="11.347541449699113"><ele>390.6666666666667</ele><time>2026-04-01T15:47:51Z</time></trkpt><trkpt lat="45.624684450824205" lon="11.347580867621357"><ele>392.33333333333337</ele><time>2026-04-01T15:47:54Z</time></trkpt><trkpt lat="45.62469920511463" lon="11.347709571252498"><ele>394.0</ele><time>2026-04-01T15:47:57Z</time></trkpt><trkpt lat="45.62467486989406" lon="11.34779805287876"><ele>394.00000000000006</ele><time>2026-04-01T15:47:58Z</time></trkpt><trkpt lat="45.6246406708947" lon="11.347917016254414"><ele>394.0</ele><time>2026-04-01T15:47:59Z</time></trkpt><trkpt lat="45.624623028651804" lon="11.348018603426857"><ele>394.0</ele><time>2026-04-01T15:48:00Z</time></trkpt><trkpt lat="45.62461738292888" lon="11.34812384087497"><ele>394.0</ele><time>2026-04-01T15:48:01Z</time></trkpt><trkpt lat="45.62462905289606" lon="11.348214933107673"><ele>394.00000000000006</ele><time>2026-04-01T15:48:02Z</time></trkpt><trkpt lat="45.62455737812898" lon="11.348285560732506"><ele>394.0</ele><time>2026-04-01T15:48:05Z</time></trkpt><trkpt lat="45.6244912876896" lon="11.348293123615269"><ele>392.6666666666667</ele><time>2026-04-01T15:48:06Z</time></trkpt><trkpt lat="45.62440811520017" lon="11.348262814756875"><ele>391.33333333333337</ele><time>2026-04-01T15:48:07Z</time></trkpt><trkpt lat="45.62433064877866" lon="11.34823440568139"><ele>390.0</ele><time>2026-04-01T15:48:08Z</time></trkpt><trkpt lat="45.624224795687226" lon="11.348210408609361"><ele>388.66666666666663</ele><time>2026-04-01T15:48:09Z</time></trkpt><trkpt lat="45.62413962199852" lon="11.348203796401922"><ele>387.3333333333333</ele><time>2026-04-01T15:48:10Z</time></trkpt><trkpt lat="45.62405230776658" lon="11.34819891994225"><ele>386.0</ele><time>2026-04-01T15:48:11Z</time></trkpt><trkpt lat="45.62396685654125" lon="11.348211003034274"><ele>386.0</ele><time>2026-04-01T15:48:12Z</time></trkpt><trkpt lat="45.623848741628066" lon="11.348263542512584"><ele>386.0</ele><time>2026-04-01T15:48:14Z</time></trkpt><trkpt lat="45.623763862226575" lon="11.348312280337025"><ele>386.0</ele><time>2026-04-01T15:48:15Z</time></trkpt><trkpt lat="45.623675906988936" lon="11.348378097349626"><ele>386.0</ele><time>2026-04-01T15:48:16Z</time></trkpt><trkpt lat="45.62361232840131" lon="11.34843949482832"><ele>386.0</ele><time>2026-04-01T15:48:17Z</time></trkpt><trkpt lat="45.623558162243356" lon="11.348532385320494"><ele>386.66666666666663</ele><time>2026-04-01T15:48:19Z</time></trkpt><trkpt lat="45.62355554571761" lon="11.34864527122008"><ele>387.3333333333333</ele><time>2026-04-01T15:48:21Z</time></trkpt><trkpt lat="45.623577735796225" lon="11.348763803262413"><ele>388.0</ele><time>2026-04-01T15:48:23Z</time></trkpt><trkpt lat="45.62358102076759" lon="11.348860194266424"><ele>388.66666666666663</ele><time>2026-04-01T15:48:25Z</time></trkpt><trkpt lat="45.62355733751386" lon="11.3489695074492"><ele>389.3333333333333</ele><time>2026-04-01T15:48:28Z</time></trkpt><trkpt lat="45.62349151164996" lon="11.349030996718126"><ele>390.0</ele><time>2026-04-01T15:48:30Z</time></trkpt><trkpt lat="45.623410615944756" lon="11.348939513902758"><ele>387.1666666666667</ele><time>2026-04-01T15:48:33Z</time></trkpt><trkpt lat="45.62338433726189" lon="11.348837750158115"><ele>384.3333333333333</ele><time>2026-04-01T15:48:36Z</time></trkpt><trkpt lat="45.62334894293352" lon="11.348711354464523"><ele>381.5</ele><time>2026-04-01T15:48:38Z</time></trkpt><trkpt lat="45.62329938959801" lon="11.348603624176608"><ele>378.66666666666663</ele><time>2026-04-01T15:48:40Z</time></trkpt><trkpt lat="45.62323925350316" lon="11.348558025452004"><ele>375.8333333333333</ele><time>2026-04-01T15:48:42Z</time></trkpt><trkpt lat="45.62312226453377" lon="11.348537282073147"><ele>373.0</ele><time>2026-04-01T15:48:44Z</time></trkpt><trkpt lat="45.62305051254297" lon="11.348511401118788"><ele>373.0</ele><time>2026-04-01T15:48:45Z</time></trkpt><trkpt lat="45.62298371694613" lon="11.348475546091532"><ele>373.0</ele><time>2026-04-01T15:48:46Z</time></trkpt><trkpt lat="45.62290973439484" lon="11.348445030350224"><ele>373.0</ele><time>2026-04-01T15:48:47Z</time></trkpt><trkpt lat="45.622827939515545" lon="11.348422674578266"><ele>373.0</ele><time>2026-04-01T15:48:48Z</time></trkpt><trkpt lat="45.62274115460514" lon="11.34843281459809"><ele>373.0</ele><time>2026-04-01T15:48:49Z</time></trkpt><trkpt lat="45.62263862327875" lon="11.348454133596812"><ele>373.0</ele><time>2026-04-01T15:48:50Z</time></trkpt><trkpt lat="45.62255569035384" lon="11.348494918589942"><ele>373.2</ele><time>2026-04-01T15:48:51Z</time></trkpt><trkpt lat="45.62249412464848" lon="11.348540329615078"><ele>373.4</ele><time>2026-04-01T15:48:52Z</time></trkpt><trkpt lat="45.622409321967076" lon="11.348627419040474"><ele>373.59999999999997</ele><time>2026-04-01T15:48:54Z</time></trkpt><trkpt lat="45.62235104472139" lon="11.348590257288208"><ele>373.79999999999995</ele><time>2026-04-01T15:48:55Z</time></trkpt><trkpt lat="45.62222488229076" lon="11.348673723919731"><ele>374.0</ele><time>2026-04-01T15:48:57Z</time></trkpt><trkpt lat="45.62217926621026" lon="11.348757186306711"><ele>374.0</ele><time>2026-04-01T15:48:58Z</time></trkpt><trkpt lat="45.62212677124733" lon="11.348827808115079"><ele>374.0</ele><time>2026-04-01T15:48:59Z</time></trkpt><trkpt lat="45.62210722591066" lon="11.348940677726635"><ele>374.0</ele><time>2026-04-01T15:49:00Z</time></trkpt><trkpt lat="45.62205696179953" lon="11.34904315089567"><ele>374.0</ele><time>2026-04-01T15:49:01Z</time></trkpt><trkpt lat="45.62201453089339" lon="11.349179754770196"><ele>374.0</ele><time>2026-04-01T15:49:02Z</time></trkpt><trkpt lat="45.62197221412032" lon="11.349332204815926"><ele>373.4</ele><time>2026-04-01T15:49:03Z</time></trkpt><trkpt lat="45.621943182959036" lon="11.349441013149997"><ele>372.79999999999995</ele><time>2026-04-01T15:49:04Z</time></trkpt><trkpt lat="45.62190959208939" lon="11.349565890985907"><ele>372.20000000000005</ele><time>2026-04-01T15:49:05Z</time></trkpt><trkpt lat="45.62188361101737" lon="11.349660937162847"><ele>371.6</ele><time>2026-04-01T15:49:06Z</time></trkpt><trkpt lat="45.62182703704814" lon="11.349802622753508"><ele>371.0</ele><time>2026-04-01T15:49:08Z</time></trkpt><trkpt lat="45.62173790539473" lon="11.349854931706979"><ele>371.0</ele><time>2026-04-01T15:49:10Z</time></trkpt><trkpt lat="45.62169241300418" lon="11.34993685497436"><ele>371.0</ele><time>2026-04-01T15:49:11Z</time></trkpt><trkpt lat="45.62167269257599" lon="11.350062685091553"><ele>371.0</ele><time>2026-04-01T15:49:12Z</time></trkpt><trkpt lat="45.62165157504188" lon="11.350148013060263"><ele>371.0</ele><time>2026-04-01T15:49:13Z</time></trkpt><trkpt lat="45.62162613651434" lon="11.350249338068432"><ele>371.0</ele><time>2026-04-01T15:49:15Z</time></trkpt><trkpt lat="45.62159012893283" lon="11.350341577277094"><ele>371.0</ele><time>2026-04-01T15:49:17Z</time></trkpt><trkpt lat="45.6216479348405" lon="11.35048825857967"><ele>371.20000000000005</ele><time>2026-04-01T15:49:18Z</time></trkpt><trkpt lat="45.62166078366454" lon="11.350613172363238"><ele>371.40000000000003</ele><time>2026-04-01T15:49:19Z</time></trkpt><trkpt lat="45.621672858489255" lon="11.350753271750358"><ele>371.6</ele><time>2026-04-01T15:49:20Z</time></trkpt><trkpt lat="45.62168278519749" lon="11.350868447344618"><ele>371.8</ele><time>2026-04-01T15:49:21Z</time></trkpt><trkpt lat="45.62169386937505" lon="11.351001058110425"><ele>372.0</ele><time>2026-04-01T15:49:22Z</time></trkpt><trkpt lat="45.62170320398056" lon="11.351130032440087"><ele>372.0</ele><time>2026-04-01T15:49:23Z</time></trkpt><trkpt lat="45.62170958971624" lon="11.351238022169076"><ele>372.0</ele><time>2026-04-01T15:49:24Z</time></trkpt><trkpt lat="45.621713926342366" lon="11.351335098579407"><ele>372.0</ele><time>2026-04-01T15:49:25Z</time></trkpt><trkpt lat="45.62170677625365" lon="11.351481024221982"><ele>372.0</ele><time>2026-04-01T15:49:27Z</time></trkpt><trkpt lat="45.621707335938595" lon="11.351637028834581"><ele>372.0</ele><time>2026-04-01T15:49:29Z</time></trkpt><trkpt lat="45.62173471563799" lon="11.351739912898926"><ele>372.0</ele><time>2026-04-01T15:49:30Z</time></trkpt><trkpt lat="45.62177765895566" lon="11.351840685095215"><ele>371.6</ele><time>2026-04-01T15:49:31Z</time></trkpt><trkpt lat="45.621839699362596" lon="11.351950771179487"><ele>371.20000000000005</ele><time>2026-04-01T15:49:32Z</time></trkpt><trkpt lat="45.62191824062208" lon="11.352060942040952"><ele>370.8</ele><time>2026-04-01T15:49:33Z</time></trkpt><trkpt lat="45.62200357619106" lon="11.352168828502606"><ele>370.4</ele><time>2026-04-01T15:49:34Z</time></trkpt><trkpt lat="45.622076189677095" lon="11.352254275720787"><ele>370.0</ele><time>2026-04-01T15:49:35Z</time></trkpt><trkpt lat="45.622142684626596" lon="11.352356764653472"><ele>371.2</ele><time>2026-04-01T15:49:36Z</time></trkpt><trkpt lat="45.62221035586086" lon="11.35248522967529"><ele>372.4</ele><time>2026-04-01T15:49:37Z</time></trkpt><trkpt lat="45.622259801118126" lon="11.352606406611667"><ele>373.6</ele><time>2026-04-01T15:49:38Z</time></trkpt><trkpt lat="45.622290337735436" lon="11.352734308261443"><ele>374.8</ele><time>2026-04-01T15:49:40Z</time></trkpt><trkpt lat="45.62224219128438" lon="11.352845285058935"><ele>376.0</ele><time>2026-04-01T15:49:42Z</time></trkpt><trkpt lat="45.62217257400651" lon="11.352843888957153"><ele>376.0</ele><time>2026-04-01T15:49:43Z</time></trkpt><trkpt lat="45.622099399151345" lon="11.352846217011981"><ele>376.0</ele><time>2026-04-01T15:49:44Z</time></trkpt><trkpt lat="45.62202960737738" lon="11.352852104605018"><ele>376.0</ele><time>2026-04-01T15:49:45Z</time></trkpt><trkpt lat="45.62196230337561" lon="11.352894774431709"><ele>376.0</ele><time>2026-04-01T15:49:46Z</time></trkpt><trkpt lat="45.62190791993589" lon="11.35296633106517"><ele>376.0</ele><time>2026-04-01T15:49:47Z</time></trkpt><trkpt lat="45.621849334364576" lon="11.35304367761683"><ele>376.0</ele><time>2026-04-01T15:49:48Z</time></trkpt><trkpt lat="45.621772976843936" lon="11.353146049945675"><ele>373.0</ele><time>2026-04-01T15:49:49Z</time></trkpt><trkpt lat="45.62169114627169" lon="11.353255526166214"><ele>370.0</ele><time>2026-04-01T15:49:50Z</time></trkpt><trkpt lat="45.62161397996374" lon="11.353349571626412"><ele>367.0</ele><time>2026-04-01T15:49:51Z</time></trkpt><trkpt lat="45.62152934508317" lon="11.35340792456866"><ele>364.0</ele><time>2026-04-01T15:49:52Z</time></trkpt><trkpt lat="45.62144083973007" lon="11.353446594726504"><ele>361.0</ele><time>2026-04-01T15:49:53Z</time></trkpt><trkpt lat="45.62135520810865" lon="11.353452583148794"><ele>361.0</ele><time>2026-04-01T15:49:54Z</time></trkpt><trkpt lat="45.62128238226676" lon="11.353472021148555"><ele>361.0</ele><time>2026-04-01T15:49:55Z</time></trkpt><trkpt lat="45.62120638399984" lon="11.353492305955378"><ele>361.0</ele><time>2026-04-01T15:49:56Z</time></trkpt><trkpt lat="45.621127020358706" lon="11.353515368750898"><ele>361.0</ele><time>2026-04-01T15:49:57Z</time></trkpt><trkpt lat="45.62105045531688" lon="11.353535492164518"><ele>361.0</ele><time>2026-04-01T15:49:58Z</time></trkpt><trkpt lat="45.62094609297415" lon="11.353552393030084"><ele>361.0</ele><time>2026-04-01T15:49:59Z</time></trkpt><trkpt lat="45.62082940477476" lon="11.353551679548525"><ele>360.4</ele><time>2026-04-01T15:50:00Z</time></trkpt><trkpt lat="45.620725654749094" lon="11.35355615287717"><ele>359.8</ele><time>2026-04-01T15:50:01Z</time></trkpt><trkpt lat="45.62065289676394" lon="11.353580804881057"><ele>359.2</ele><time>2026-04-01T15:50:02Z</time></trkpt><trkpt lat="45.62058999774415" lon="11.353625609965851"><ele>358.59999999999997</ele><time>2026-04-01T15:50:03Z</time></trkpt><trkpt lat="45.62049206330796" lon="11.353808328427746"><ele>358.0</ele><time>2026-04-01T15:50:05Z</time></trkpt><trkpt lat="45.62039048430955" lon="11.353959558684256"><ele>358.4</ele><time>2026-04-01T15:50:07Z</time></trkpt><trkpt lat="45.62032435790705" lon="11.354052573414917"><ele>358.79999999999995</ele><time>2026-04-01T15:50:08Z</time></trkpt><trkpt lat="45.62025141938273" lon="11.354182183487794"><ele>359.2</ele><time>2026-04-01T15:50:09Z</time></trkpt><trkpt lat="45.6201987408751" lon="11.354281927439686"><ele>359.6</ele><time>2026-04-01T15:50:10Z</time></trkpt><trkpt lat="45.62014372831681" lon="11.354393311852045"><ele>360.0</ele><time>2026-04-01T15:50:11Z</time></trkpt><trkpt lat="45.620098969741605" lon="11.354484238723137"><ele>360.0</ele><time>2026-04-01T15:50:12Z</time></trkpt><trkpt lat="45.62005994312369" lon="11.354563521082719"><ele>360.0</ele><time>2026-04-01T15:50:13Z</time></trkpt><trkpt lat="45.62001785004855" lon="11.354667236750267"><ele>360.0</ele><time>2026-04-01T15:50:14Z</time></trkpt><trkpt lat="45.619977484546716" lon="11.354778593805761"><ele>360.0</ele><time>2026-04-01T15:50:15Z</time></trkpt><trkpt lat="45.61994019403702" lon="11.354873011392138"><ele>360.0</ele><time>2026-04-01T15:50:16Z</time></trkpt><trkpt lat="45.61991136823359" lon="11.354991589707716"><ele>360.0</ele><time>2026-04-01T15:50:17Z</time></trkpt><trkpt lat="45.61989461596834" lon="11.355122841553708"><ele>360.4</ele><time>2026-04-01T15:50:18Z</time></trkpt><trkpt lat="45.619893495331674" lon="11.355233330063495"><ele>360.8</ele><time>2026-04-01T15:50:19Z</time></trkpt><trkpt lat="45.619874024815715" lon="11.355337063538904"><ele>361.20000000000005</ele><time>2026-04-01T15:50:20Z</time></trkpt><trkpt lat="45.61985017681264" lon="11.355439458261412"><ele>361.6</ele><time>2026-04-01T15:50:21Z</time></trkpt><trkpt lat="45.61972945302493" lon="11.355500492906199"><ele>362.0</ele><time>2026-04-01T15:50:23Z</time></trkpt><trkpt lat="45.619625804967875" lon="11.355562809885855"><ele>363.20000000000005</ele><time>2026-04-01T15:50:24Z</time></trkpt><trkpt lat="45.619527769556626" lon="11.355638392260323"><ele>364.4</ele><time>2026-04-01T15:50:25Z</time></trkpt><trkpt lat="45.619438130194915" lon="11.355708756922873"><ele>365.6</ele><time>2026-04-01T15:50:26Z</time></trkpt><trkpt lat="45.61935433110675" lon="11.355774970960002"><ele>366.79999999999995</ele><time>2026-04-01T15:50:27Z</time></trkpt><trkpt lat="45.61926827362375" lon="11.355836560477087"><ele>368.0</ele><time>2026-04-01T15:50:28Z</time></trkpt><trkpt lat="45.6191854020429" lon="11.355864641763446"><ele>368.0</ele><time>2026-04-01T15:50:29Z</time></trkpt><trkpt lat="45.619055945956966" lon="11.355858446211622"><ele>368.0</ele><time>2026-04-01T15:50:31Z</time></trkpt><trkpt lat="45.618961896926116" lon="11.355841557854994"><ele>368.0</ele><time>2026-04-01T15:50:32Z</time></trkpt><trkpt lat="45.61886122274513" lon="11.355831172874904"><ele>368.0</ele><time>2026-04-01T15:50:33Z</time></trkpt><trkpt lat="45.618765305373024" lon="11.355827282561076"><ele>368.0</ele><time>2026-04-01T15:50:34Z</time></trkpt><trkpt lat="45.6186589739748" lon="11.355845778707602"><ele>367.79999999999995</ele><time>2026-04-01T15:50:35Z</time></trkpt><trkpt lat="45.61856079016885" lon="11.355882424098185"><ele>367.6</ele><time>2026-04-01T15:50:36Z</time></trkpt><trkpt lat="45.618475940110685" lon="11.355927008209628"><ele>367.4</ele><time>2026-04-01T15:50:37Z</time></trkpt><trkpt lat="45.61837247634734" lon="11.355988105245183"><ele>367.20000000000005</ele><time>2026-04-01T15:50:38Z</time></trkpt><trkpt lat="45.61827714544895" lon="11.356022831421132"><ele>367.0</ele><time>2026-04-01T15:50:39Z</time></trkpt><trkpt lat="45.618195231455715" lon="11.35604701742828"><ele>367.0</ele><time>2026-04-01T15:50:40Z</time></trkpt><trkpt lat="45.618113928159715" lon="11.35604457503441"><ele>367.0</ele><time>2026-04-01T15:50:41Z</time></trkpt><trkpt lat="45.618049032298515" lon="11.356028863138903"><ele>367.0</ele><time>2026-04-01T15:50:42Z</time></trkpt><trkpt lat="45.61798587119597" lon="11.35595211027406"><ele>367.0</ele><time>2026-04-01T15:50:43Z</time></trkpt><trkpt lat="45.61789294869155" lon="11.355882320137406"><ele>367.0</ele><time>2026-04-01T15:50:44Z</time></trkpt><trkpt lat="45.61777385621466" lon="11.355818675476758"><ele>369.0</ele><time>2026-04-01T15:50:45Z</time></trkpt><trkpt lat="45.61766770229194" lon="11.355740359565962"><ele>371.0</ele><time>2026-04-01T15:50:46Z</time></trkpt><trkpt lat="45.61756256702005" lon="11.355669636844432"><ele>373.0</ele><time>2026-04-01T15:50:47Z</time></trkpt><trkpt lat="45.617476057647444" lon="11.355602562699765"><ele>375.0</ele><time>2026-04-01T15:50:48Z</time></trkpt><trkpt lat="45.617384071308074" lon="11.355535570491622"><ele>377.0</ele><time>2026-04-01T15:50:49Z</time></trkpt><trkpt lat="45.6172982844406" lon="11.35546762846474"><ele>372.8</ele><time>2026-04-01T15:50:50Z</time></trkpt><trkpt lat="45.61720603266873" lon="11.35538582314964"><ele>368.6</ele><time>2026-04-01T15:50:51Z</time></trkpt><trkpt lat="45.617119938479696" lon="11.35531509318489"><ele>364.40000000000003</ele><time>2026-04-01T15:50:52Z</time></trkpt><trkpt lat="45.6170410101664" lon="11.355241629472445"><ele>360.20000000000005</ele><time>2026-04-01T15:50:53Z</time></trkpt><trkpt lat="45.616965255101654" lon="11.3551728902218"><ele>356.0</ele><time>2026-04-01T15:50:54Z</time></trkpt><trkpt lat="45.61688507914585" lon="11.355092338049216"><ele>356.0</ele><time>2026-04-01T15:50:55Z</time></trkpt><trkpt lat="45.616806853770875" lon="11.355004439925724"><ele>356.0</ele><time>2026-04-01T15:50:56Z</time></trkpt><trkpt lat="45.61673761699956" lon="11.354905397738547"><ele>356.0</ele><time>2026-04-01T15:50:57Z</time></trkpt><trkpt lat="45.616682032129866" lon="11.354819635195714"><ele>356.0</ele><time>2026-04-01T15:50:58Z</time></trkpt><trkpt lat="45.616645963909555" lon="11.354741962686003"><ele>356.0</ele><time>2026-04-01T15:50:59Z</time></trkpt><trkpt lat="45.61659351573969" lon="11.35464724129154"><ele>356.0</ele><time>2026-04-01T15:51:01Z</time></trkpt><trkpt lat="45.616567751561156" lon="11.354551291075698"><ele>353.5</ele><time>2026-04-01T15:51:04Z</time></trkpt><trkpt lat="45.61650853188068" lon="11.35445697954491"><ele>351.0</ele><time>2026-04-01T15:51:06Z</time></trkpt><trkpt lat="45.616308569731174" lon="11.354549815410355"><ele>348.5</ele><time>2026-04-01T15:51:07Z</time></trkpt><trkpt lat="45.61619786095165" lon="11.354605184887882"><ele>346.0</ele><time>2026-04-01T15:51:09Z</time></trkpt><trkpt lat="45.61609709370479" lon="11.35475244050517"><ele>348.5</ele><time>2026-04-01T15:51:11Z</time></trkpt><trkpt lat="45.61601456843241" lon="11.354790170430798"><ele>351.0</ele><time>2026-04-01T15:51:13Z</time></trkpt><trkpt lat="45.61594169124173" lon="11.354660890381865"><ele>353.5</ele><time>2026-04-01T15:51:15Z</time></trkpt><trkpt lat="45.61589052112473" lon="11.354581688306604"><ele>356.0</ele><time>2026-04-01T15:51:16Z</time></trkpt><trkpt lat="45.615840942195405" lon="11.354525067745325"><ele>358.5</ele><time>2026-04-01T15:51:17Z</time></trkpt><trkpt lat="45.61578000096864" lon="11.354478044590216"><ele>361.0</ele><time>2026-04-01T15:51:18Z</time></trkpt><trkpt lat="45.61568012005692" lon="11.354387649533024"><ele>361.0</ele><time>2026-04-01T15:51:20Z</time></trkpt><trkpt lat="45.615606535363916" lon="11.354311822603659"><ele>361.0</ele><time>2026-04-01T15:51:21Z</time></trkpt><trkpt lat="45.61553139819256" lon="11.354269506588823"><ele>361.0</ele><time>2026-04-01T15:51:22Z</time></trkpt><trkpt lat="45.61543733750713" lon="11.354233008457204"><ele>361.0</ele><time>2026-04-01T15:51:23Z</time></trkpt><trkpt lat="45.61532195822859" lon="11.354169046942676"><ele>361.0</ele><time>2026-04-01T15:51:24Z</time></trkpt><trkpt lat="45.61522791611646" lon="11.354104905960677"><ele>361.0</ele><time>2026-04-01T15:51:25Z</time></trkpt><trkpt lat="45.61516169982932" lon="11.354068350501969"><ele>361.0</ele><time>2026-04-01T15:51:26Z</time></trkpt><trkpt lat="45.61510375059067" lon="11.353988380327992"><ele>361.0</ele><time>2026-04-01T15:51:27Z</time></trkpt><trkpt lat="45.6149951994238" lon="11.353895110176069"><ele>361.0</ele><time>2026-04-01T15:51:29Z</time></trkpt><trkpt lat="45.61490482135578" lon="11.353855048294738"><ele>361.0</ele><time>2026-04-01T15:51:30Z</time></trkpt><trkpt lat="45.61478341183789" lon="11.35375456072003"><ele>361.0</ele><time>2026-04-01T15:51:32Z</time></trkpt><trkpt lat="45.61472873825108" lon="11.353690091594753"><ele>361.0</ele><time>2026-04-01T15:51:33Z</time></trkpt><trkpt lat="45.61460665415451" lon="11.353616938326889"><ele>361.0</ele><time>2026-04-01T15:51:35Z</time></trkpt><trkpt lat="45.61452548047818" lon="11.353577115253831"><ele>361.0</ele><time>2026-04-01T15:51:36Z</time></trkpt><trkpt lat="45.61441792133722" lon="11.353523156138374"><ele>361.0</ele><time>2026-04-01T15:51:38Z</time></trkpt><trkpt lat="45.614339677836846" lon="11.353513045966833"><ele>364.0</ele><time>2026-04-01T15:51:40Z</time></trkpt><trkpt lat="45.614228889947626" lon="11.353488122543034"><ele>367.0</ele><time>2026-04-01T15:51:42Z</time></trkpt><trkpt lat="45.61412949893885" lon="11.353486980523268"><ele>370.0</ele><time>2026-04-01T15:51:44Z</time></trkpt><trkpt lat="45.614047201384736" lon="11.353502979078065"><ele>373.0</ele><time>2026-04-01T15:51:46Z</time></trkpt><trkpt lat="45.6139624143355" lon="11.35351488894521"><ele>376.0</ele><time>2026-04-01T15:51:48Z</time></trkpt><trkpt lat="45.61387870080223" lon="11.353528384484383"><ele>376.0</ele><time>2026-04-01T15:51:50Z</time></trkpt><trkpt lat="45.61379505070114" lon="11.353501116958421"><ele>376.0</ele><time>2026-04-01T15:51:52Z</time></trkpt><trkpt lat="45.61368912778551" lon="11.353447023146833"><ele>376.0</ele><time>2026-04-01T15:51:54Z</time></trkpt><trkpt lat="45.61360568084698" lon="11.353462645271298"><ele>376.0</ele><time>2026-04-01T15:51:56Z</time></trkpt><trkpt lat="45.61354347439589" lon="11.353532084540197"><ele>376.0</ele><time>2026-04-01T15:51:58Z</time></trkpt><trkpt lat="45.6134997930746" lon="11.35361073955548"><ele>376.0</ele><time>2026-04-01T15:52:00Z</time></trkpt><trkpt lat="45.61345037259469" lon="11.353704359897023"><ele>375.0</ele><time>2026-04-01T15:52:02Z</time></trkpt><trkpt lat="45.61342205255183" lon="11.353806976888592"><ele>374.0</ele><time>2026-04-01T15:52:05Z</time></trkpt><trkpt lat="45.61347654563737" lon="11.353880098974292"><ele>373.0</ele><time>2026-04-01T15:52:07Z</time></trkpt><trkpt lat="45.61353659234646" lon="11.353909421139132"><ele>372.0</ele><time>2026-04-01T15:52:09Z</time></trkpt><trkpt lat="45.613629018343794" lon="11.35397447621146"><ele>371.0</ele><time>2026-04-01T15:52:11Z</time></trkpt><trkpt lat="45.61372261680411" lon="11.354045294836958"><ele>370.0</ele><time>2026-04-01T15:52:13Z</time></trkpt><trkpt lat="45.61377418955406" lon="11.35415563194809"><ele>370.0</ele><time>2026-04-01T15:52:15Z</time></trkpt><trkpt lat="45.61380700335933" lon="11.35428857557017"><ele>370.0</ele><time>2026-04-01T15:52:17Z</time></trkpt><trkpt lat="45.61378704235451" lon="11.35445403077758"><ele>370.0</ele><time>2026-04-01T15:52:19Z</time></trkpt><trkpt lat="45.61379450217198" lon="11.354562712549445"><ele>370.0</ele><time>2026-04-01T15:52:20Z</time></trkpt><trkpt lat="45.61380752920389" lon="11.354687871129588"><ele>370.0</ele><time>2026-04-01T15:52:21Z</time></trkpt><trkpt lat="45.61381973739472" lon="11.354789189958394"><ele>368.8333333333333</ele><time>2026-04-01T15:52:22Z</time></trkpt><trkpt lat="45.61381451195575" lon="11.354888655201147"><ele>367.66666666666663</ele><time>2026-04-01T15:52:23Z</time></trkpt><trkpt lat="45.61380787704228" lon="11.354997249989403"><ele>366.5</ele><time>2026-04-01T15:52:24Z</time></trkpt><trkpt lat="45.6138037770515" lon="11.35517661903636"><ele>365.3333333333333</ele><time>2026-04-01T15:52:26Z</time></trkpt><trkpt lat="45.6138079552824" lon="11.355288215644164"><ele>364.1666666666667</ele><time>2026-04-01T15:52:27Z</time></trkpt><trkpt lat="45.61381513285506" lon="11.355395968397156"><ele>363.0</ele><time>2026-04-01T15:52:28Z</time></trkpt><trkpt lat="45.61383041462225" lon="11.355531295168305"><ele>362.8333333333333</ele><time>2026-04-01T15:52:30Z</time></trkpt><trkpt lat="45.61389760893804" lon="11.355618166998493"><ele>362.6666666666667</ele><time>2026-04-01T15:52:32Z</time></trkpt><trkpt lat="45.61394447069655" lon="11.35567878167094"><ele>362.5</ele><time>2026-04-01T15:52:33Z</time></trkpt><trkpt lat="45.613946121698945" lon="11.355787240895646"><ele>362.33333333333337</ele><time>2026-04-01T15:52:35Z</time></trkpt><trkpt lat="45.61394893816944" lon="11.355932998452008"><ele>362.1666666666667</ele><time>2026-04-01T15:52:37Z</time></trkpt><trkpt lat="45.61394941824156" lon="11.35608771125196"><ele>362.0</ele><time>2026-04-01T15:52:39Z</time></trkpt><trkpt lat="45.613902933576924" lon="11.356238434616579"><ele>362.0</ele><time>2026-04-01T15:52:41Z</time></trkpt><trkpt lat="45.613892694674675" lon="11.356400466651953"><ele>362.0</ele><time>2026-04-01T15:52:43Z</time></trkpt><trkpt lat="45.61388595393351" lon="11.35656069654311"><ele>362.0</ele><time>2026-04-01T15:52:45Z</time></trkpt><trkpt lat="45.6138943373248" lon="11.356671059977963"><ele>362.0</ele><time>2026-04-01T15:52:46Z</time></trkpt><trkpt lat="45.61388843298458" lon="11.356810652548829"><ele>362.0</ele><time>2026-04-01T15:52:47Z</time></trkpt><trkpt lat="45.61390312156222" lon="11.3569289762277"><ele>362.0</ele><time>2026-04-01T15:52:49Z</time></trkpt><trkpt lat="45.613917666932366" lon="11.357089827643424"><ele>362.0</ele><time>2026-04-01T15:52:51Z</time></trkpt><trkpt lat="45.61389762896787" lon="11.357190241817577"><ele>362.0</ele><time>2026-04-01T15:52:52Z</time></trkpt><trkpt lat="45.6138896593594" lon="11.357280059248428"><ele>362.0</ele><time>2026-04-01T15:52:53Z</time></trkpt><trkpt lat="45.61388166797534" lon="11.357443878247656"><ele>362.0</ele><time>2026-04-01T15:52:55Z</time></trkpt><trkpt lat="45.61386582481631" lon="11.3575497345198"><ele>362.0</ele><time>2026-04-01T15:52:56Z</time></trkpt><trkpt lat="45.613840372104626" lon="11.357659411987365"><ele>363.7142857142857</ele><time>2026-04-01T15:52:57Z</time></trkpt><trkpt lat="45.61381852443568" lon="11.35774787819049"><ele>365.42857142857144</ele><time>2026-04-01T15:52:58Z</time></trkpt><trkpt lat="45.61379011969272" lon="11.357861369244937"><ele>367.1428571428571</ele><time>2026-04-01T15:52:59Z</time></trkpt><trkpt lat="45.61377584925258" lon="11.357987120717919"><ele>368.8571428571429</ele><time>2026-04-01T15:53:00Z</time></trkpt><trkpt lat="45.61373744515186" lon="11.35808148401051"><ele>370.5714285714286</ele><time>2026-04-01T15:53:01Z</time></trkpt><trkpt lat="45.61369163249727" lon="11.358154510754101"><ele>372.2857142857143</ele><time>2026-04-01T15:53:02Z</time></trkpt><trkpt lat="45.613643233057765" lon="11.358217203356691"><ele>374.0</ele><time>2026-04-01T15:53:03Z</time></trkpt><trkpt lat="45.61357358063946" lon="11.358260137516066"><ele>369.7142857142857</ele><time>2026-04-01T15:53:04Z</time></trkpt><trkpt lat="45.61351088920089" lon="11.358273701556358"><ele>365.42857142857144</ele><time>2026-04-01T15:53:05Z</time></trkpt><trkpt lat="45.613448769773306" lon="11.358305305675746"><ele>361.14285714285717</ele><time>2026-04-01T15:53:06Z</time></trkpt><trkpt lat="45.61338355231589" lon="11.358339255842992"><ele>356.8571428571429</ele><time>2026-04-01T15:53:07Z</time></trkpt><trkpt lat="45.61332401336687" lon="11.358405542181663"><ele>352.57142857142856</ele><time>2026-04-01T15:53:09Z</time></trkpt><trkpt lat="45.61326092065497" lon="11.358395860869472"><ele>348.28571428571433</ele><time>2026-04-01T15:53:11Z</time></trkpt><trkpt lat="45.61321225032658" lon="11.35825495285377"><ele>344.0</ele><time>2026-04-01T15:53:13Z</time></trkpt><trkpt lat="45.61315219537445" lon="11.358110066642544"><ele>344.0</ele><time>2026-04-01T15:53:15Z</time></trkpt><trkpt lat="45.6130983619127" lon="11.358037884984551"><ele>344.0</ele><time>2026-04-01T15:53:16Z</time></trkpt><trkpt lat="45.612996656842384" lon="11.357941940311823"><ele>344.0</ele><time>2026-04-01T15:53:18Z</time></trkpt><trkpt lat="45.61293951550636" lon="11.357886253020784"><ele>344.0</ele><time>2026-04-01T15:53:19Z</time></trkpt><trkpt lat="45.61288742945506" lon="11.357830378802682"><ele>344.0</ele><time>2026-04-01T15:53:20Z</time></trkpt><trkpt lat="45.612834738249866" lon="11.357761987066237"><ele>344.0</ele><time>2026-04-01T15:53:21Z</time></trkpt><trkpt lat="45.6127935149396" lon="11.357693229284132"><ele>337.59999999999997</ele><time>2026-04-01T15:53:22Z</time></trkpt><trkpt lat="45.61275117503207" lon="11.35760551829218"><ele>331.2</ele><time>2026-04-01T15:53:23Z</time></trkpt><trkpt lat="45.61270952657485" lon="11.357462914176393"><ele>324.79999999999995</ele><time>2026-04-01T15:53:25Z</time></trkpt><trkpt lat="45.612678562233654" lon="11.357382215484447"><ele>318.4</ele><time>2026-04-01T15:53:27Z</time></trkpt><trkpt lat="45.61272564310506" lon="11.357282364960792"><ele>312.0</ele><time>2026-04-01T15:53:28Z</time></trkpt><trkpt lat="45.61262042651395" lon="11.357604978537458"><ele>312.0</ele><time>2026-04-01T15:53:31Z</time></trkpt><trkpt lat="45.6126071252851" lon="11.357718311731794"><ele>312.0</ele><time>2026-04-01T15:53:32Z</time></trkpt><trkpt lat="45.61258916203463" lon="11.357833184090982"><ele>312.0</ele><time>2026-04-01T15:53:33Z</time></trkpt><trkpt lat="45.61257722048041" lon="11.357966865587708"><ele>312.0</ele><time>2026-04-01T15:53:34Z</time></trkpt><trkpt lat="45.61256117026701" lon="11.358066646443861"><ele>312.0</ele><time>2026-04-01T15:53:35Z</time></trkpt><trkpt lat="45.6125522267905" lon="11.35816068966179"><ele>312.0</ele><time>2026-04-01T15:53:36Z</time></trkpt><trkpt lat="45.61256088941192" lon="11.35836705191437"><ele>312.0</ele><time>2026-04-01T15:53:38Z</time></trkpt><trkpt lat="45.61257581868435" lon="11.358516371948443"><ele>312.0</ele><time>2026-04-01T15:53:39Z</time></trkpt><trkpt lat="45.61259448640435" lon="11.358648138079372"><ele>312.0</ele><time>2026-04-01T15:53:40Z</time></trkpt><trkpt lat="45.61261708203113" lon="11.358739885145944"><ele>312.0</ele><time>2026-04-01T15:53:41Z</time></trkpt><trkpt lat="45.6126334660949" lon="11.358839478990781"><ele>312.0</ele><time>2026-04-01T15:53:42Z</time></trkpt><trkpt lat="45.61264776958071" lon="11.358954533391831"><ele>312.0</ele><time>2026-04-01T15:53:43Z</time></trkpt><trkpt lat="45.61266064583249" lon="11.359053375167386"><ele>311.2</ele><time>2026-04-01T15:53:44Z</time></trkpt><trkpt lat="45.61264602247543" lon="11.359211092637555"><ele>310.4</ele><time>2026-04-01T15:53:46Z</time></trkpt><trkpt lat="45.612662572957326" lon="11.359360459192155"><ele>309.6</ele><time>2026-04-01T15:53:48Z</time></trkpt><trkpt lat="45.61269769428366" lon="11.359440313632"><ele>308.8</ele><time>2026-04-01T15:53:49Z</time></trkpt><trkpt lat="45.61274643880323" lon="11.359603071374258"><ele>308.0</ele><time>2026-04-01T15:53:51Z</time></trkpt><trkpt lat="45.61274637771592" lon="11.359812938077235"><ele>306.83333333333337</ele><time>2026-04-01T15:53:53Z</time></trkpt><trkpt lat="45.6127286257475" lon="11.359948239862346"><ele>305.6666666666667</ele><time>2026-04-01T15:53:54Z</time></trkpt><trkpt lat="45.61272156301557" lon="11.360086772844268"><ele>304.5</ele><time>2026-04-01T15:53:55Z</time></trkpt><trkpt lat="45.61271009495844" lon="11.360207165830822"><ele>303.3333333333333</ele><time>2026-04-01T15:53:56Z</time></trkpt><trkpt lat="45.61270637138867" lon="11.360319731589623"><ele>302.16666666666663</ele><time>2026-04-01T15:53:57Z</time></trkpt><trkpt lat="45.61270614653525" lon="11.360450513192005"><ele>301.0</ele><time>2026-04-01T15:53:58Z</time></trkpt><trkpt lat="45.61270024345746" lon="11.360575856640153"><ele>300.3333333333333</ele><time>2026-04-01T15:53:59Z</time></trkpt><trkpt lat="45.61267735446827" lon="11.360669412028557"><ele>299.66666666666663</ele><time>2026-04-01T15:54:00Z</time></trkpt><trkpt lat="45.61265404539708" lon="11.360767449104033"><ele>299.0</ele><time>2026-04-01T15:54:01Z</time></trkpt><trkpt lat="45.612627570937626" lon="11.360888156447865"><ele>298.3333333333333</ele><time>2026-04-01T15:54:02Z</time></trkpt><trkpt lat="45.61259029518875" lon="11.360971971930923"><ele>297.6666666666667</ele><time>2026-04-01T15:54:03Z</time></trkpt><trkpt lat="45.612534541092046" lon="11.361033084363637"><ele>297.0</ele><time>2026-04-01T15:54:04Z</time></trkpt><trkpt lat="45.612461104199916" lon="11.361187081476272"><ele>297.0</ele><time>2026-04-01T15:54:06Z</time></trkpt><trkpt lat="45.61241341271278" lon="11.361296929285189"><ele>297.0</ele><time>2026-04-01T15:54:07Z</time></trkpt><trkpt lat="45.612382290611976" lon="11.361381785399354"><ele>297.0</ele><time>2026-04-01T15:54:08Z</time></trkpt><trkpt lat="45.61227204342782" lon="11.361510722362892"><ele>297.0</ele><time>2026-04-01T15:54:10Z</time></trkpt><trkpt lat="45.612208941728284" lon="11.361608674095278"><ele>297.0</ele><time>2026-04-01T15:54:11Z</time></trkpt><trkpt lat="45.61215381209577" lon="11.361696054924181"><ele>295.8</ele><time>2026-04-01T15:54:12Z</time></trkpt><trkpt lat="45.612107188897866" lon="11.361777773107"><ele>294.6</ele><time>2026-04-01T15:54:13Z</time></trkpt><trkpt lat="45.61206582705964" lon="11.361860897959103"><ele>293.40000000000003</ele><time>2026-04-01T15:54:14Z</time></trkpt><trkpt lat="45.61201208155517" lon="11.362000834409098"><ele>292.2</ele><time>2026-04-01T15:54:16Z</time></trkpt><trkpt lat="45.61192544989919" lon="11.362139111988455"><ele>291.0</ele><time>2026-04-01T15:54:18Z</time></trkpt><trkpt lat="45.611878790551046" lon="11.362244725564745"><ele>291.0</ele><time>2026-04-01T15:54:19Z</time></trkpt><trkpt lat="45.6118414889466" lon="11.362339449380439"><ele>291.0</ele><time>2026-04-01T15:54:20Z</time></trkpt><trkpt lat="45.61180511786184" lon="11.362414778177687"><ele>291.0</ele><time>2026-04-01T15:54:21Z</time></trkpt><trkpt lat="45.61171621072314" lon="11.362538052718884"><ele>291.0</ele><time>2026-04-01T15:54:23Z</time></trkpt><trkpt lat="45.611661054686365" lon="11.362611319770679"><ele>291.0</ele><time>2026-04-01T15:54:24Z</time></trkpt><trkpt lat="45.61163783019152" lon="11.362789699750646"><ele>291.0</ele><time>2026-04-01T15:54:25Z</time></trkpt><trkpt lat="45.61157282700583" lon="11.362919033203847"><ele>291.0</ele><time>2026-04-01T15:54:26Z</time></trkpt><trkpt lat="45.611535169443506" lon="11.363051228940513"><ele>291.0</ele><time>2026-04-01T15:54:27Z</time></trkpt><trkpt lat="45.61151612391966" lon="11.363199944492646"><ele>291.0</ele><time>2026-04-01T15:54:28Z</time></trkpt><trkpt lat="45.61148422749017" lon="11.363368482352078"><ele>291.0</ele><time>2026-04-01T15:54:29Z</time></trkpt><trkpt lat="45.61146503556985" lon="11.363532289367733"><ele>291.6</ele><time>2026-04-01T15:54:30Z</time></trkpt><trkpt lat="45.61142803716188" lon="11.363676916937568"><ele>292.20000000000005</ele><time>2026-04-01T15:54:31Z</time></trkpt><trkpt lat="45.61141577647282" lon="11.363817021337436"><ele>292.79999999999995</ele><time>2026-04-01T15:54:32Z</time></trkpt><trkpt lat="45.61139332797338" lon="11.36393949918753"><ele>293.4</ele><time>2026-04-01T15:54:33Z</time></trkpt><trkpt lat="45.61136590519071" lon="11.364061112526372"><ele>294.0</ele><time>2026-04-01T15:54:34Z</time></trkpt><trkpt lat="45.61133597755594" lon="11.364201170189105"><ele>294.0</ele><time>2026-04-01T15:54:35Z</time></trkpt><trkpt lat="45.611304300860276" lon="11.364352028164815"><ele>294.0</ele><time>2026-04-01T15:54:36Z</time></trkpt><trkpt lat="45.61127554022094" lon="11.364535309938818"><ele>294.0</ele><time>2026-04-01T15:54:37Z</time></trkpt><trkpt lat="45.61127701998707" lon="11.364697381362625"><ele>294.0</ele><time>2026-04-01T15:54:38Z</time></trkpt><trkpt lat="45.61128641055332" lon="11.36484257931956"><ele>293.3333333333333</ele><time>2026-04-01T15:54:39Z</time></trkpt><trkpt lat="45.61128819691656" lon="11.364974697012984"><ele>292.6666666666667</ele><time>2026-04-01T15:54:40Z</time></trkpt><trkpt lat="45.61129472277068" lon="11.365107528570928"><ele>292.0</ele><time>2026-04-01T15:54:41Z</time></trkpt><trkpt lat="45.61130787039598" lon="11.36522973160058"><ele>291.33333333333337</ele><time>2026-04-01T15:54:42Z</time></trkpt><trkpt lat="45.61131559811832" lon="11.365333939861781"><ele>290.6666666666667</ele><time>2026-04-01T15:54:43Z</time></trkpt><trkpt lat="45.6113231918811" lon="11.365470646609687"><ele>290.0</ele><time>2026-04-01T15:54:44Z</time></trkpt><trkpt lat="45.6113357787781" lon="11.365604280701808"><ele>289.6</ele><time>2026-04-01T15:54:45Z</time></trkpt><trkpt lat="45.61129134427586" lon="11.365698004645648"><ele>289.2</ele><time>2026-04-01T15:54:46Z</time></trkpt><trkpt lat="45.61120580694336" lon="11.36574672218646"><ele>288.8</ele><time>2026-04-01T15:54:47Z</time></trkpt><trkpt lat="45.611142496625035" lon="11.365922297905387"><ele>288.4</ele><time>2026-04-01T15:54:49Z</time></trkpt><trkpt lat="45.611129964286164" lon="11.366044143696417"><ele>288.0</ele><time>2026-04-01T15:54:50Z</time></trkpt><trkpt lat="45.61118201132365" lon="11.366175198417052"><ele>288.0</ele><time>2026-04-01T15:54:51Z</time></trkpt><trkpt lat="45.61121111195899" lon="11.366316591153257"><ele>288.0</ele><time>2026-04-01T15:54:52Z</time></trkpt><trkpt lat="45.611240008034834" lon="11.36644290678171"><ele>288.0</ele><time>2026-04-01T15:54:53Z</time></trkpt><trkpt lat="45.61127900793118" lon="11.366563277510549"><ele>288.0</ele><time>2026-04-01T15:54:54Z</time></trkpt><trkpt lat="45.6113251201067" lon="11.366661772880938"><ele>288.0</ele><time>2026-04-01T15:54:55Z</time></trkpt><trkpt lat="45.61137257440067" lon="11.366764044288594"><ele>286.2</ele><time>2026-04-01T15:54:56Z</time></trkpt><trkpt lat="45.6114215523007" lon="11.366883104828336"><ele>284.4</ele><time>2026-04-01T15:54:57Z</time></trkpt><trkpt lat="45.61145699327307" lon="11.366977056175052"><ele>282.59999999999997</ele><time>2026-04-01T15:54:58Z</time></trkpt><trkpt lat="45.61148451978382" lon="11.36710029896473"><ele>280.8</ele><time>2026-04-01T15:55:00Z</time></trkpt><trkpt lat="45.611383467904936" lon="11.367129573894488"><ele>279.0</ele><time>2026-04-01T15:55:04Z</time></trkpt><trkpt lat="45.611289132493" lon="11.367164855923225"><ele>279.0</ele><time>2026-04-01T15:55:05Z</time></trkpt><trkpt lat="45.611190994637845" lon="11.367176327745566"><ele>279.0</ele><time>2026-04-01T15:55:06Z</time></trkpt><trkpt lat="45.61108245236469" lon="11.367227546637531"><ele>279.0</ele><time>2026-04-01T15:55:07Z</time></trkpt><trkpt lat="45.610969044484605" lon="11.367294601140156"><ele>279.0</ele><time>2026-04-01T15:55:08Z</time></trkpt><trkpt lat="45.61087018696041" lon="11.367365585704249"><ele>279.0</ele><time>2026-04-01T15:55:09Z</time></trkpt><trkpt lat="45.61079540422431" lon="11.367453991072708"><ele>279.0</ele><time>2026-04-01T15:55:10Z</time></trkpt><trkpt lat="45.610715972307766" lon="11.367526521367033"><ele>279.0</ele><time>2026-04-01T15:55:11Z</time></trkpt><trkpt lat="45.6106394463966" lon="11.367615653524865"><ele>279.0</ele><time>2026-04-01T15:55:12Z</time></trkpt><trkpt lat="45.61056258984816" lon="11.367684617490012"><ele>279.0</ele><time>2026-04-01T15:55:13Z</time></trkpt><trkpt lat="45.61049721593076" lon="11.3677313951447"><ele>279.0</ele><time>2026-04-01T15:55:14Z</time></trkpt><trkpt lat="45.61041917801903" lon="11.367778666442376"><ele>279.0</ele><time>2026-04-01T15:55:15Z</time></trkpt><trkpt lat="45.61031348433756" lon="11.367817388709765"><ele>279.0</ele><time>2026-04-01T15:55:16Z</time></trkpt><trkpt lat="45.61020584209986" lon="11.367842275622795"><ele>279.0</ele><time>2026-04-01T15:55:17Z</time></trkpt><trkpt lat="45.6100909933845" lon="11.367853340393475"><ele>279.0</ele><time>2026-04-01T15:55:18Z</time></trkpt><trkpt lat="45.60998903333536" lon="11.36783973476064"><ele>279.0</ele><time>2026-04-01T15:55:19Z</time></trkpt><trkpt lat="45.60990527390674" lon="11.367813231819389"><ele>279.0</ele><time>2026-04-01T15:55:20Z</time></trkpt><trkpt lat="45.609793095324626" lon="11.367787822837267"><ele>279.0</ele><time>2026-04-01T15:55:22Z</time></trkpt><trkpt lat="45.60971680187865" lon="11.367728469827611"><ele>279.0</ele><time>2026-04-01T15:55:24Z</time></trkpt><trkpt lat="45.60956692728541" lon="11.36785824687939"><ele>279.0</ele><time>2026-04-01T15:55:26Z</time></trkpt><trkpt lat="45.60948843600338" lon="11.367941732594165"><ele>279.0</ele><time>2026-04-01T15:55:27Z</time></trkpt><trkpt lat="45.60940423005941" lon="11.368028279024246"><ele>279.1666666666667</ele><time>2026-04-01T15:55:28Z</time></trkpt><trkpt lat="45.60933148311799" lon="11.368105049271003"><ele>279.3333333333333</ele><time>2026-04-01T15:55:29Z</time></trkpt><trkpt lat="45.609261308480974" lon="11.36818933660118"><ele>279.5</ele><time>2026-04-01T15:55:30Z</time></trkpt><trkpt lat="45.60921301771613" lon="11.368280816000267"><ele>279.66666666666663</ele><time>2026-04-01T15:55:31Z</time></trkpt><trkpt lat="45.60918417896156" lon="11.368375907087808"><ele>279.8333333333333</ele><time>2026-04-01T15:55:32Z</time></trkpt><trkpt lat="45.60918195621355" lon="11.368488282658344"><ele>280.0</ele><time>2026-04-01T15:55:33Z</time></trkpt><trkpt lat="45.60918218496112" lon="11.368609082418352"><ele>280.0</ele><time>2026-04-01T15:55:34Z</time></trkpt><trkpt lat="45.60921456611554" lon="11.368764252929427"><ele>280.0</ele><time>2026-04-01T15:55:35Z</time></trkpt><trkpt lat="45.60926259580682" lon="11.368902295227645"><ele>280.0</ele><time>2026-04-01T15:55:36Z</time></trkpt><trkpt lat="45.60929363488152" lon="11.369029433660241"><ele>280.0</ele><time>2026-04-01T15:55:37Z</time></trkpt><trkpt lat="45.60932269289434" lon="11.369149167386166"><ele>280.0</ele><time>2026-04-01T15:55:38Z</time></trkpt><trkpt lat="45.609350932233475" lon="11.369232788519332"><ele>281.66666666666663</ele><time>2026-04-01T15:55:39Z</time></trkpt><trkpt lat="45.60939734896999" lon="11.369414436613337"><ele>283.3333333333333</ele><time>2026-04-01T15:55:41Z</time></trkpt><trkpt lat="45.609412028500486" lon="11.369505428197051"><ele>285.0</ele><time>2026-04-01T15:55:42Z</time></trkpt><trkpt lat="45.6094279073834" lon="11.36961228483761"><ele>286.6666666666667</ele><time>2026-04-01T15:55:43Z</time></trkpt><trkpt lat="45.60944283047572" lon="11.369710375736478"><ele>288.33333333333337</ele><time>2026-04-01T15:55:44Z</time></trkpt><trkpt lat="45.60945719931235" lon="11.369801378170358"><ele>290.0</ele><time>2026-04-01T15:55:45Z</time></trkpt><trkpt lat="45.60948959026256" lon="11.369946380134662"><ele>288.33333333333337</ele><time>2026-04-01T15:55:47Z</time></trkpt><trkpt lat="45.60952398755038" lon="11.370028057899253"><ele>286.6666666666667</ele><time>2026-04-01T15:55:48Z</time></trkpt><trkpt lat="45.60960119805658" lon="11.370059263709694"><ele>285.0</ele><time>2026-04-01T15:55:49Z</time></trkpt><trkpt lat="45.60967343438642" lon="11.370136581695936"><ele>283.3333333333333</ele><time>2026-04-01T15:55:51Z</time></trkpt><trkpt lat="45.609700511951445" lon="11.370237586901041"><ele>281.66666666666663</ele><time>2026-04-01T15:55:53Z</time></trkpt><trkpt lat="45.60967885892535" lon="11.370408113797815"><ele>280.0</ele><time>2026-04-01T15:55:55Z</time></trkpt><trkpt lat="45.60966793579069" lon="11.370504183771704"><ele>279.6</ele><time>2026-04-01T15:55:56Z</time></trkpt><trkpt lat="45.60965734361471" lon="11.370677065493478"><ele>279.2</ele><time>2026-04-01T15:55:58Z</time></trkpt><trkpt lat="45.60960045092965" lon="11.370802231095002"><ele>278.8</ele><time>2026-04-01T15:56:00Z</time></trkpt><trkpt lat="45.60958971796052" lon="11.370920974271344"><ele>278.4</ele><time>2026-04-01T15:56:02Z</time></trkpt><trkpt lat="45.609566793075004" lon="11.371045904008508"><ele>278.0</ele><time>2026-04-01T15:56:04Z</time></trkpt><trkpt lat="45.60949006613299" lon="11.37113977714113"><ele>278.6666666666667</ele><time>2026-04-01T15:56:06Z</time></trkpt><trkpt lat="45.609414038153545" lon="11.371234450690395"><ele>279.33333333333337</ele><time>2026-04-01T15:56:08Z</time></trkpt><trkpt lat="45.60931509424353" lon="11.371324991950502"><ele>280.0</ele><time>2026-04-01T15:56:10Z</time></trkpt><trkpt lat="45.609247376732526" lon="11.371366953553352"><ele>280.6666666666667</ele><time>2026-04-01T15:56:11Z</time></trkpt><trkpt lat="45.60916903771457" lon="11.371415520472539"><ele>281.3333333333333</ele><time>2026-04-01T15:56:12Z</time></trkpt><trkpt lat="45.60910487893132" lon="11.371435103597598"><ele>282.0</ele><time>2026-04-01T15:56:13Z</time></trkpt><trkpt lat="45.60903445833285" lon="11.37144976964071"><ele>278.8</ele><time>2026-04-01T15:56:14Z</time></trkpt><trkpt lat="45.60897057201934" lon="11.371459300190242"><ele>275.6</ele><time>2026-04-01T15:56:15Z</time></trkpt><trkpt lat="45.60885964761808" lon="11.371490944141328"><ele>272.40000000000003</ele><time>2026-04-01T15:56:17Z</time></trkpt><trkpt lat="45.60878547579044" lon="11.371632969798531"><ele>269.2</ele><time>2026-04-01T15:56:19Z</time></trkpt><trkpt lat="45.60876450580153" lon="11.37172340746825"><ele>266.0</ele><time>2026-04-01T15:56:20Z</time></trkpt><trkpt lat="45.60874092027997" lon="11.371844260606183"><ele>266.0</ele><time>2026-04-01T15:56:22Z</time></trkpt><trkpt lat="45.60873030361891" lon="11.371943544494437"><ele>266.0</ele><time>2026-04-01T15:56:24Z</time></trkpt><trkpt lat="45.60860120421505" lon="11.371967874057013"><ele>266.0</ele><time>2026-04-01T15:56:26Z</time></trkpt><trkpt lat="45.60853353086433" lon="11.371960886086294"><ele>266.0</ele><time>2026-04-01T15:56:27Z</time></trkpt><trkpt lat="45.60846674038042" lon="11.37199197584594"><ele>266.0</ele><time>2026-04-01T15:56:28Z</time></trkpt><trkpt lat="45.60838930182594" lon="11.372009813381302"><ele>266.0</ele><time>2026-04-01T15:56:29Z</time></trkpt><trkpt lat="45.60826461282763" lon="11.372009431058112"><ele>265.8</ele><time>2026-04-01T15:56:31Z</time></trkpt><trkpt lat="45.60813257302303" lon="11.372012724477441"><ele>265.6</ele><time>2026-04-01T15:56:33Z</time></trkpt><trkpt lat="45.608054537410155" lon="11.371996566024526"><ele>265.4</ele><time>2026-04-01T15:56:34Z</time></trkpt><trkpt lat="45.60796576425464" lon="11.37195248688803"><ele>265.2</ele><time>2026-04-01T15:56:35Z</time></trkpt><trkpt lat="45.607889536426356" lon="11.371916261837772"><ele>265.0</ele><time>2026-04-01T15:56:36Z</time></trkpt><trkpt lat="45.607817292915506" lon="11.37186855023031"><ele>262.3333333333333</ele><time>2026-04-01T15:56:37Z</time></trkpt><trkpt lat="45.60774370077159" lon="11.371840212860244"><ele>259.66666666666663</ele><time>2026-04-01T15:56:38Z</time></trkpt><trkpt lat="45.60767254074715" lon="11.371834012490993"><ele>257.0</ele><time>2026-04-01T15:56:39Z</time></trkpt><trkpt lat="45.60761123939874" lon="11.37186836663809"><ele>254.33333333333331</ele><time>2026-04-01T15:56:40Z</time></trkpt><trkpt lat="45.60752419185319" lon="11.371939881668181"><ele>251.66666666666666</ele><time>2026-04-01T15:56:41Z</time></trkpt><trkpt lat="45.60743337044227" lon="11.371995533036241"><ele>249.0</ele><time>2026-04-01T15:56:42Z</time></trkpt><trkpt lat="45.60735984368011" lon="11.37202466130879"><ele>249.0</ele><time>2026-04-01T15:56:43Z</time></trkpt><trkpt lat="45.60728882958323" lon="11.372030526783078"><ele>249.0</ele><time>2026-04-01T15:56:44Z</time></trkpt><trkpt lat="45.607196981581176" lon="11.372025484975605"><ele>249.0</ele><time>2026-04-01T15:56:45Z</time></trkpt><trkpt lat="45.60709864668151" lon="11.372012595133244"><ele>249.0</ele><time>2026-04-01T15:56:46Z</time></trkpt><trkpt lat="45.607005677996" lon="11.37199785552686"><ele>249.0</ele><time>2026-04-01T15:56:47Z</time></trkpt><trkpt lat="45.60692989301312" lon="11.371985711827675"><ele>249.0</ele><time>2026-04-01T15:56:48Z</time></trkpt><trkpt lat="45.606849454565555" lon="11.371975639817283"><ele>247.83333333333334</ele><time>2026-04-01T15:56:49Z</time></trkpt><trkpt lat="45.606740678061136" lon="11.371961235583777"><ele>246.66666666666669</ele><time>2026-04-01T15:56:50Z</time></trkpt><trkpt lat="45.606668484414044" lon="11.371966046838029"><ele>245.5</ele><time>2026-04-01T15:56:51Z</time></trkpt><trkpt lat="45.6066056641242" lon="11.371974412417599"><ele>244.33333333333334</ele><time>2026-04-01T15:56:52Z</time></trkpt><trkpt lat="45.606542624585686" lon="11.371993789561635"><ele>243.16666666666669</ele><time>2026-04-01T15:56:53Z</time></trkpt><trkpt lat="45.606469845995846" lon="11.372033034155052"><ele>242.0</ele><time>2026-04-01T15:56:54Z</time></trkpt><trkpt lat="45.60638906762488" lon="11.372058412676822"><ele>242.00000000000003</ele><time>2026-04-01T15:56:55Z</time></trkpt><trkpt lat="45.60632419236134" lon="11.372079969571363"><ele>242.0</ele><time>2026-04-01T15:56:56Z</time></trkpt><trkpt lat="45.60626091142612" lon="11.372091524435941"><ele>242.0</ele><time>2026-04-01T15:56:57Z</time></trkpt><trkpt lat="45.60615324218581" lon="11.372111681404661"><ele>242.0</ele><time>2026-04-01T15:56:59Z</time></trkpt><trkpt lat="45.60608497666032" lon="11.372141502137866"><ele>242.00000000000003</ele><time>2026-04-01T15:57:03Z</time></trkpt><trkpt lat="45.60604576425869" lon="11.372226089214477"><ele>242.0</ele><time>2026-04-01T15:57:04Z</time></trkpt><trkpt lat="45.606033882603924" lon="11.37238047874156"><ele>240.2</ele><time>2026-04-01T15:57:05Z</time></trkpt><trkpt lat="45.60602142925065" lon="11.37251941586514"><ele>238.39999999999998</ele><time>2026-04-01T15:57:06Z</time></trkpt><trkpt lat="45.60602244180847" lon="11.372670871595195"><ele>236.60000000000002</ele><time>2026-04-01T15:57:07Z</time></trkpt><trkpt lat="45.606018230653866" lon="11.372808609225448"><ele>234.8</ele><time>2026-04-01T15:57:08Z</time></trkpt><trkpt lat="45.60600086421038" lon="11.372959016616212"><ele>233.0</ele><time>2026-04-01T15:57:09Z</time></trkpt><trkpt lat="45.605995441160694" lon="11.373091166757451"><ele>232.8</ele><time>2026-04-01T15:57:10Z</time></trkpt><trkpt lat="45.60599701955043" lon="11.373226904973247"><ele>232.60000000000002</ele><time>2026-04-01T15:57:11Z</time></trkpt><trkpt lat="45.606005902096186" lon="11.373359301753545"><ele>232.39999999999998</ele><time>2026-04-01T15:57:12Z</time></trkpt><trkpt lat="45.60602903131498" lon="11.373495721799122"><ele>232.2</ele><time>2026-04-01T15:57:13Z</time></trkpt><trkpt lat="45.60606963451818" lon="11.373655589407305"><ele>232.0</ele><time>2026-04-01T15:57:14Z</time></trkpt><trkpt lat="45.60609194968226" lon="11.373823335764516"><ele>230.99999999999997</ele><time>2026-04-01T15:57:15Z</time></trkpt><trkpt lat="45.60609672744354" lon="11.373960804290821"><ele>230.0</ele><time>2026-04-01T15:57:16Z</time></trkpt><trkpt lat="45.60610099016643" lon="11.374073173434956"><ele>229.0</ele><time>2026-04-01T15:57:17Z</time></trkpt><trkpt lat="45.60609641506329" lon="11.374164694873686"><ele>228.0</ele><time>2026-04-01T15:57:18Z</time></trkpt><trkpt lat="45.60607804590418" lon="11.374264833657186"><ele>226.99999999999997</ele><time>2026-04-01T15:57:19Z</time></trkpt><trkpt lat="45.606042359142165" lon="11.374358919557965"><ele>226.0</ele><time>2026-04-01T15:57:20Z</time></trkpt><trkpt lat="45.606017137589625" lon="11.374478054311373"><ele>225.99999999999997</ele><time>2026-04-01T15:57:21Z</time></trkpt><trkpt lat="45.60596838075651" lon="11.374604063747114"><ele>226.0</ele><time>2026-04-01T15:57:22Z</time></trkpt><trkpt lat="45.60591144975067" lon="11.374700037117314"><ele>226.0</ele><time>2026-04-01T15:57:23Z</time></trkpt><trkpt lat="45.60587603844541" lon="11.374784066416783"><ele>226.0</ele><time>2026-04-01T15:57:24Z</time></trkpt><trkpt lat="45.60583569595354" lon="11.374872463988998"><ele>225.99999999999997</ele><time>2026-04-01T15:57:25Z</time></trkpt><trkpt lat="45.60579512431638" lon="11.37494769187441"><ele>226.0</ele><time>2026-04-01T15:57:26Z</time></trkpt><trkpt lat="45.605748283288975" lon="11.375025593503853"><ele>225.83333333333331</ele><time>2026-04-01T15:57:27Z</time></trkpt><trkpt lat="45.60569725450353" lon="11.375123274691976"><ele>225.66666666666666</ele><time>2026-04-01T15:57:28Z</time></trkpt><trkpt lat="45.605672931510504" lon="11.375230729269642"><ele>225.5</ele><time>2026-04-01T15:57:29Z</time></trkpt><trkpt lat="45.60563925973885" lon="11.375331418225795"><ele>225.33333333333331</ele><time>2026-04-01T15:57:30Z</time></trkpt><trkpt lat="45.60559075972688" lon="11.375402681857945"><ele>225.16666666666666</ele><time>2026-04-01T15:57:31Z</time></trkpt><trkpt lat="45.60549887582088" lon="11.375498747437437"><ele>225.0</ele><time>2026-04-01T15:57:33Z</time></trkpt><trkpt lat="45.60540439002034" lon="11.375409177364205"><ele>225.0</ele><time>2026-04-01T15:57:35Z</time></trkpt><trkpt lat="45.605338777809585" lon="11.375360221119251"><ele>225.0</ele><time>2026-04-01T15:57:36Z</time></trkpt><trkpt lat="45.605201330074934" lon="11.375387963307372"><ele>225.0</ele><time>2026-04-01T15:57:38Z</time></trkpt><trkpt lat="45.60516749052153" lon="11.375530039234409"><ele>225.0</ele><time>2026-04-01T15:57:39Z</time></trkpt><trkpt lat="45.605098991289445" lon="11.375662114438784"><ele>225.0</ele><time>2026-04-01T15:57:41Z</time></trkpt><trkpt lat="45.60500137683134" lon="11.37556786573788"><ele>223.75</ele><time>2026-04-01T15:57:43Z</time></trkpt><trkpt lat="45.604904182272094" lon="11.375493189621706"><ele>222.5</ele><time>2026-04-01T15:57:45Z</time></trkpt><trkpt lat="45.604813013989634" lon="11.375437398543726"><ele>221.25</ele><time>2026-04-01T15:57:47Z</time></trkpt><trkpt lat="45.60470915055029" lon="11.375430565378183"><ele>220.0</ele><time>2026-04-01T15:57:49Z</time></trkpt><trkpt lat="45.60462233073713" lon="11.375655284202457"><ele>218.8</ele><time>2026-04-01T15:57:51Z</time></trkpt><trkpt lat="45.60457454155608" lon="11.375736887343837"><ele>217.6</ele><time>2026-04-01T15:57:52Z</time></trkpt><trkpt lat="45.604534120611746" lon="11.375805956022507"><ele>216.39999999999998</ele><time>2026-04-01T15:57:53Z</time></trkpt><trkpt lat="45.60444375608735" lon="11.375864754939915"><ele>215.2</ele><time>2026-04-01T15:57:55Z</time></trkpt><trkpt lat="45.60429693651598" lon="11.375867686914944"><ele>214.0</ele><time>2026-04-01T15:57:57Z</time></trkpt><trkpt lat="45.604194968082076" lon="11.375853851755583"><ele>211.16666666666666</ele><time>2026-04-01T15:57:58Z</time></trkpt><trkpt lat="45.604097901039694" lon="11.375829158673405"><ele>208.33333333333331</ele><time>2026-04-01T15:57:59Z</time></trkpt><trkpt lat="45.604022457832606" lon="11.375777814728243"><ele>205.5</ele><time>2026-04-01T15:58:00Z</time></trkpt><trkpt lat="45.60393581557471" lon="11.375722302713685"><ele>202.66666666666669</ele><time>2026-04-01T15:58:01Z</time></trkpt><trkpt lat="45.603858598002226" lon="11.375672995650005"><ele>199.83333333333334</ele><time>2026-04-01T15:58:02Z</time></trkpt><trkpt lat="45.603778799633275" lon="11.375627055064143"><ele>197.0</ele><time>2026-04-01T15:58:03Z</time></trkpt><trkpt lat="45.603688940210986" lon="11.37558761785115"><ele>197.16666666666669</ele><time>2026-04-01T15:58:04Z</time></trkpt><trkpt lat="45.60360169496551" lon="11.375561619858763"><ele>197.33333333333334</ele><time>2026-04-01T15:58:05Z</time></trkpt><trkpt lat="45.60352176929568" lon="11.375586635375901"><ele>197.5</ele><time>2026-04-01T15:58:06Z</time></trkpt><trkpt lat="45.603449595079454" lon="11.375569980717444"><ele>197.66666666666669</ele><time>2026-04-01T15:58:07Z</time></trkpt><trkpt lat="45.603355534263216" lon="11.375580112839332"><ele>197.83333333333334</ele><time>2026-04-01T15:58:09Z</time></trkpt><trkpt lat="45.60325504106063" lon="11.375570708641833"><ele>198.0</ele><time>2026-04-01T15:58:11Z</time></trkpt><trkpt lat="45.603190898822994" lon="11.375461325377046"><ele>198.0</ele><time>2026-04-01T15:58:12Z</time></trkpt><trkpt lat="45.60311045453448" lon="11.375367513849643"><ele>198.0</ele><time>2026-04-01T15:58:13Z</time></trkpt><trkpt lat="45.60300570051223" lon="11.375308770356883"><ele>198.0</ele><time>2026-04-01T15:58:14Z</time></trkpt><trkpt lat="45.60289802035854" lon="11.375232909800294"><ele>198.0</ele><time>2026-04-01T15:58:15Z</time></trkpt><trkpt lat="45.60279787148102" lon="11.375158139200487"><ele>198.0</ele><time>2026-04-01T15:58:16Z</time></trkpt><trkpt lat="45.60270927094895" lon="11.375113203320796"><ele>195.5</ele><time>2026-04-01T15:58:17Z</time></trkpt><trkpt lat="45.60263230582088" lon="11.37507226028574"><ele>193.0</ele><time>2026-04-01T15:58:18Z</time></trkpt><trkpt lat="45.60255212966123" lon="11.375030458150446"><ele>190.5</ele><time>2026-04-01T15:58:19Z</time></trkpt><trkpt lat="45.60248574627131" lon="11.374996017324198"><ele>188.0</ele><time>2026-04-01T15:58:20Z</time></trkpt><trkpt lat="45.60241647602549" lon="11.374927403320852"><ele>185.5</ele><time>2026-04-01T15:58:21Z</time></trkpt><trkpt lat="45.60235461426064" lon="11.374888444658026"><ele>183.0</ele><time>2026-04-01T15:58:22Z</time></trkpt><trkpt lat="45.60231118789853" lon="11.374788551620759"><ele>182.4</ele><time>2026-04-01T15:58:23Z</time></trkpt><trkpt lat="45.602293993047326" lon="11.374662040985598"><ele>181.8</ele><time>2026-04-01T15:58:24Z</time></trkpt><trkpt lat="45.60229393358712" lon="11.374529491034576"><ele>181.2</ele><time>2026-04-01T15:58:25Z</time></trkpt><trkpt lat="45.60230433501138" lon="11.374387836170838"><ele>180.6</ele><time>2026-04-01T15:58:26Z</time></trkpt><trkpt lat="45.60231154606831" lon="11.374261741984451"><ele>180.0</ele><time>2026-04-01T15:58:27Z</time></trkpt><trkpt lat="45.60231773552585" lon="11.374124472718037"><ele>180.0</ele><time>2026-04-01T15:58:28Z</time></trkpt><trkpt lat="45.602314256981145" lon="11.374001263743063"><ele>180.0</ele><time>2026-04-01T15:58:29Z</time></trkpt><trkpt lat="45.60229872334086" lon="11.373857368879568"><ele>180.0</ele><time>2026-04-01T15:58:30Z</time></trkpt><trkpt lat="45.602276548398166" lon="11.373688305537053"><ele>180.0</ele><time>2026-04-01T15:58:31Z</time></trkpt><trkpt lat="45.6022448050851" lon="11.373532137236142"><ele>180.0</ele><time>2026-04-01T15:58:32Z</time></trkpt><trkpt lat="45.602216379438495" lon="11.373387855492913"><ele>179.6</ele><time>2026-04-01T15:58:33Z</time></trkpt><trkpt lat="45.60219871245648" lon="11.37325398675324"><ele>179.2</ele><time>2026-04-01T15:58:34Z</time></trkpt><trkpt lat="45.602191823005256" lon="11.373121769347856"><ele>178.8</ele><time>2026-04-01T15:58:35Z</time></trkpt><trkpt lat="45.60219187594516" lon="11.37299215825091"><ele>178.4</ele><time>2026-04-01T15:58:36Z</time></trkpt><trkpt lat="45.602187502481165" lon="11.37286223207054"><ele>178.0</ele><time>2026-04-01T15:58:37Z</time></trkpt><trkpt lat="45.6022046245581" lon="11.37272394137291"><ele>177.4</ele><time>2026-04-01T15:58:38Z</time></trkpt><trkpt lat="45.6022365434405" lon="11.372635612553262"><ele>176.8</ele><time>2026-04-01T15:58:39Z</time></trkpt><trkpt lat="45.6022765474919" lon="11.372531271916364"><ele>176.2</ele><time>2026-04-01T15:58:40Z</time></trkpt><trkpt lat="45.602308922615805" lon="11.372429099849517"><ele>175.6</ele><time>2026-04-01T15:58:41Z</time></trkpt><trkpt lat="45.60234958251365" lon="11.372287126534799"><ele>175.0</ele><time>2026-04-01T15:58:42Z</time></trkpt><trkpt lat="45.60238317940277" lon="11.372127197489935"><ele>174.25</ele><time>2026-04-01T15:58:43Z</time></trkpt><trkpt lat="45.60240627194525" lon="11.371954533293414"><ele>173.5</ele><time>2026-04-01T15:58:44Z</time></trkpt><trkpt lat="45.60243070778074" lon="11.371779257158273"><ele>172.75</ele><time>2026-04-01T15:58:45Z</time></trkpt><trkpt lat="45.6024538035364" lon="11.371626498772356"><ele>172.0</ele><time>2026-04-01T15:58:46Z</time></trkpt><trkpt lat="45.60248478203834" lon="11.371463503626604"><ele>171.25</ele><time>2026-04-01T15:58:47Z</time></trkpt><trkpt lat="45.60252871300595" lon="11.371314951351058"><ele>170.5</ele><time>2026-04-01T15:58:48Z</time></trkpt><trkpt lat="45.60260156802865" lon="11.371188488491951"><ele>169.75</ele><time>2026-04-01T15:58:49Z</time></trkpt><trkpt lat="45.60268937837791" lon="11.371085615178378"><ele>169.0</ele><time>2026-04-01T15:58:50Z</time></trkpt><trkpt lat="45.60277945227438" lon="11.370979854080757"><ele>171.0</ele><time>2026-04-01T15:58:51Z</time></trkpt><trkpt lat="45.60287606858364" lon="11.370839272840152"><ele>173.0</ele><time>2026-04-01T15:58:52Z</time></trkpt><trkpt lat="45.602957216039776" lon="11.370702050729799"><ele>175.0</ele><time>2026-04-01T15:58:53Z</time></trkpt><trkpt lat="45.603019267368694" lon="11.370568700473685"><ele>177.0</ele><time>2026-04-01T15:58:54Z</time></trkpt><trkpt lat="45.60306454431601" lon="11.37043129503697"><ele>177.0</ele><time>2026-04-01T15:58:55Z</time></trkpt><trkpt lat="45.60309966274119" lon="11.37028105960506"><ele>177.0</ele><time>2026-04-01T15:58:56Z</time></trkpt><trkpt lat="45.60313263687324" lon="11.370131621475236"><ele>177.0</ele><time>2026-04-01T15:58:57Z</time></trkpt><trkpt lat="45.60317842165498" lon="11.369979548858135"><ele>177.0</ele><time>2026-04-01T15:58:58Z</time></trkpt><trkpt lat="45.603213718355235" lon="11.369861912392324"><ele>177.0</ele><time>2026-04-01T15:58:59Z</time></trkpt><trkpt lat="45.60324236535718" lon="11.369747134550327"><ele>176.6</ele><time>2026-04-01T15:59:00Z</time></trkpt><trkpt lat="45.603269477883195" lon="11.369648759842923"><ele>176.2</ele><time>2026-04-01T15:59:01Z</time></trkpt><trkpt lat="45.60331418593469" lon="11.369485977056577"><ele>175.8</ele><time>2026-04-01T15:59:03Z</time></trkpt><trkpt lat="45.60331905757742" lon="11.369381088948012"><ele>175.4</ele><time>2026-04-01T15:59:06Z</time></trkpt><trkpt lat="45.60317929825942" lon="11.36934009706491"><ele>175.0</ele><time>2026-04-01T15:59:08Z</time></trkpt><trkpt lat="45.60308426544824" lon="11.369357914829093"><ele>175.0</ele><time>2026-04-01T15:59:09Z</time></trkpt><trkpt lat="45.60298357320026" lon="11.369360609643573"><ele>175.0</ele><time>2026-04-01T15:59:10Z</time></trkpt><trkpt lat="45.60286878344545" lon="11.369349751728882"><ele>175.0</ele><time>2026-04-01T15:59:11Z</time></trkpt><trkpt lat="45.6027365848801" lon="11.3693350521983"><ele>175.0</ele><time>2026-04-01T15:59:12Z</time></trkpt><trkpt lat="45.60260528856561" lon="11.369308681162096"><ele>173.0</ele><time>2026-04-01T15:59:13Z</time></trkpt><trkpt lat="45.602474635256115" lon="11.369247352262656"><ele>171.0</ele><time>2026-04-01T15:59:14Z</time></trkpt><trkpt lat="45.60233322492392" lon="11.369198519425655"><ele>169.0</ele><time>2026-04-01T15:59:15Z</time></trkpt><trkpt lat="45.60219666043837" lon="11.369154345286825"><ele>167.0</ele><time>2026-04-01T15:59:16Z</time></trkpt><trkpt lat="45.60207687878827" lon="11.369113551473626"><ele>166.6</ele><time>2026-04-01T15:59:17Z</time></trkpt><trkpt lat="45.60197600247413" lon="11.36907043488059"><ele>166.2</ele><time>2026-04-01T15:59:18Z</time></trkpt><trkpt lat="45.60188649664369" lon="11.369018620837302"><ele>165.8</ele><time>2026-04-01T15:59:19Z</time></trkpt><trkpt lat="45.60181042380129" lon="11.368944220797793"><ele>165.4</ele><time>2026-04-01T15:59:20Z</time></trkpt><trkpt lat="45.601742700735976" lon="11.36885051235202"><ele>165.0</ele><time>2026-04-01T15:59:21Z</time></trkpt><trkpt lat="45.6016762346223" lon="11.36875984471508"><ele>165.0</ele><time>2026-04-01T15:59:22Z</time></trkpt><trkpt lat="45.60162160033322" lon="11.36863147742774"><ele>165.0</ele><time>2026-04-01T15:59:23Z</time></trkpt><trkpt lat="45.601560945012395" lon="11.368490632035444"><ele>165.0</ele><time>2026-04-01T15:59:24Z</time></trkpt><trkpt lat="45.601502559641304" lon="11.368353294166456"><ele>165.0</ele><time>2026-04-01T15:59:25Z</time></trkpt><trkpt lat="45.601433232519135" lon="11.368223927660448"><ele>165.0</ele><time>2026-04-01T15:59:26Z</time></trkpt><trkpt lat="45.60134236926137" lon="11.368106541549997"><ele>165.0</ele><time>2026-04-01T15:59:27Z</time></trkpt><trkpt lat="45.601249049051894" lon="11.368018219015388"><ele>165.0</ele><time>2026-04-01T15:59:28Z</time></trkpt><trkpt lat="45.601158497658716" lon="11.367949626884885"><ele>165.0</ele><time>2026-04-01T15:59:29Z</time></trkpt><trkpt lat="45.601060765129205" lon="11.36787360939387"><ele>165.0</ele><time>2026-04-01T15:59:30Z</time></trkpt><trkpt lat="45.60096734517149" lon="11.367799087866254"><ele>165.0</ele><time>2026-04-01T15:59:31Z</time></trkpt><trkpt lat="45.600865923820876" lon="11.367716515850741"><ele>165.0</ele><time>2026-04-01T15:59:32Z</time></trkpt><trkpt lat="45.600776630446404" lon="11.367645298703387"><ele>165.0</ele><time>2026-04-01T15:59:33Z</time></trkpt><trkpt lat="45.600688770198346" lon="11.367576871220695"><ele>165.0</ele><time>2026-04-01T15:59:34Z</time></trkpt><trkpt lat="45.600607030497336" lon="11.367511522669247"><ele>165.0</ele><time>2026-04-01T15:59:35Z</time></trkpt><trkpt lat="45.60052028724754" lon="11.367439097326972"><ele>165.0</ele><time>2026-04-01T15:59:36Z</time></trkpt><trkpt lat="45.60044650998649" lon="11.367380052291335"><ele>165.0</ele><time>2026-04-01T15:59:37Z</time></trkpt><trkpt lat="45.600375353177455" lon="11.367331336497807"><ele>165.0</ele><time>2026-04-01T15:59:38Z</time></trkpt><trkpt lat="45.6002774934448" lon="11.367237126710927"><ele>165.0</ele><time>2026-04-01T15:59:40Z</time></trkpt><trkpt lat="45.60023308669663" lon="11.367158542803978"><ele>165.0</ele><time>2026-04-01T15:59:41Z</time></trkpt><trkpt lat="45.60015956264516" lon="11.367054124828101"><ele>165.0</ele><time>2026-04-01T15:59:42Z</time></trkpt><trkpt lat="45.60007652308604" lon="11.366984219413595"><ele>165.0</ele><time>2026-04-01T15:59:43Z</time></trkpt><trkpt lat="45.59997302097161" lon="11.36688848845226"><ele>165.0</ele><time>2026-04-01T15:59:44Z</time></trkpt><trkpt lat="45.5998809724726" lon="11.36680201683539"><ele>165.0</ele><time>2026-04-01T15:59:45Z</time></trkpt><trkpt lat="45.59978414250717" lon="11.36670435688407"><ele>165.0</ele><time>2026-04-01T15:59:46Z</time></trkpt><trkpt lat="45.59969458870924" lon="11.36661679552695"><ele>165.0</ele><time>2026-04-01T15:59:47Z</time></trkpt><trkpt lat="45.599587974326916" lon="11.366510586431401"><ele>165.0</ele><time>2026-04-01T15:59:48Z</time></trkpt><trkpt lat="45.59948070871268" lon="11.366409502950521"><ele>165.0</ele><time>2026-04-01T15:59:49Z</time></trkpt><trkpt lat="45.599392845369245" lon="11.366318848139569"><ele>165.0</ele><time>2026-04-01T15:59:50Z</time></trkpt><trkpt lat="45.59930947903246" lon="11.366246821816476"><ele>165.16666666666666</ele><time>2026-04-01T15:59:51Z</time></trkpt><trkpt lat="45.599237118103304" lon="11.366177172364646"><ele>165.33333333333334</ele><time>2026-04-01T15:59:52Z</time></trkpt><trkpt lat="45.59916924975065" lon="11.366094210520053"><ele>165.5</ele><time>2026-04-01T15:59:53Z</time></trkpt><trkpt lat="45.59911433701362" lon="11.366014788266805"><ele>165.66666666666669</ele><time>2026-04-01T15:59:54Z</time></trkpt><trkpt lat="45.59906209328311" lon="11.36592678915771"><ele>165.83333333333334</ele><time>2026-04-01T15:59:55Z</time></trkpt><trkpt lat="45.59902139042488" lon="11.365831106335724"><ele>166.0</ele><time>2026-04-01T15:59:57Z</time></trkpt><trkpt lat="45.59898485693268" lon="11.365712680830466"><ele>166.0</ele><time>2026-04-01T16:00:02Z</time></trkpt><trkpt lat="45.5989820704385" lon="11.365619328583804"><ele>166.0</ele><time>2026-04-01T16:00:03Z</time></trkpt><trkpt lat="45.598958636467685" lon="11.365513892966353"><ele>166.0</ele><time>2026-04-01T16:00:04Z</time></trkpt><trkpt lat="45.598875626781634" lon="11.365404505657645"><ele>166.0</ele><time>2026-04-01T16:00:06Z</time></trkpt><trkpt lat="45.598794594775555" lon="11.365448937848367"><ele>166.0</ele><time>2026-04-01T16:00:07Z</time></trkpt><trkpt lat="45.59872388622901" lon="11.3654737546112"><ele>166.0</ele><time>2026-04-01T16:00:08Z</time></trkpt><trkpt lat="45.59859705332177" lon="11.365441288205977"><ele>165.85714285714286</ele><time>2026-04-01T16:00:10Z</time></trkpt><trkpt lat="45.5985434991669" lon="11.365372723483661"><ele>165.71428571428572</ele><time>2026-04-01T16:00:11Z</time></trkpt><trkpt lat="45.59848007167986" lon="11.365280927009845"><ele>165.57142857142858</ele><time>2026-04-01T16:00:12Z</time></trkpt><trkpt lat="45.59842373979796" lon="11.365201216705861"><ele>165.42857142857144</ele><time>2026-04-01T16:00:13Z</time></trkpt><trkpt lat="45.598375774844364" lon="11.365133586248511"><ele>165.28571428571428</ele><time>2026-04-01T16:00:14Z</time></trkpt><trkpt lat="45.598323086414936" lon="11.365066179659541"><ele>165.14285714285717</ele><time>2026-04-01T16:00:15Z</time></trkpt><trkpt lat="45.598274209896275" lon="11.36500524536426"><ele>165.0</ele><time>2026-04-01T16:00:16Z</time></trkpt><trkpt lat="45.598216646307336" lon="11.364917053669007"><ele>165.0</ele><time>2026-04-01T16:00:18Z</time></trkpt><trkpt lat="45.59817184053256" lon="11.364851545706907"><ele>165.0</ele><time>2026-04-01T16:00:21Z</time></trkpt><trkpt lat="45.59811975983511" lon="11.364784563000411"><ele>165.0</ele><time>2026-04-01T16:00:41Z</time></trkpt><trkpt lat="45.59806849275491" lon="11.36471276371572"><ele>165.0</ele><time>2026-04-01T16:00:42Z</time></trkpt><trkpt lat="45.59801671130234" lon="11.36462236386382"><ele>165.0</ele><time>2026-04-01T16:00:43Z</time></trkpt><trkpt lat="45.59794828410789" lon="11.364573728806752"><ele>165.0</ele><time>2026-04-01T16:00:44Z</time></trkpt><trkpt lat="45.59784493582449" lon="11.364564346590075"><ele>165.16666666666666</ele><time>2026-04-01T16:00:45Z</time></trkpt><trkpt lat="45.59773818091047" lon="11.364558940055796"><ele>165.33333333333334</ele><time>2026-04-01T16:00:46Z</time></trkpt><trkpt lat="45.59764533975211" lon="11.364558357583597"><ele>165.5</ele><time>2026-04-01T16:00:47Z</time></trkpt><trkpt lat="45.597559481681586" lon="11.364566399684541"><ele>165.66666666666669</ele><time>2026-04-01T16:00:48Z</time></trkpt><trkpt lat="45.59748273293009" lon="11.36457557863644"><ele>165.83333333333334</ele><time>2026-04-01T16:00:49Z</time></trkpt><trkpt lat="45.59739725366107" lon="11.364583687421288"><ele>166.0</ele><time>2026-04-01T16:00:50Z</time></trkpt><trkpt lat="45.59733359156201" lon="11.364584988074164"><ele>166.0</ele><time>2026-04-01T16:00:51Z</time></trkpt><trkpt lat="45.597273835277555" lon="11.364551921164448"><ele>166.0</ele><time>2026-04-01T16:00:52Z</time></trkpt><trkpt lat="45.597181345270485" lon="11.364540102039609"><ele>166.0</ele><time>2026-04-01T16:00:53Z</time></trkpt><trkpt lat="45.597072574837235" lon="11.36460701180018"><ele>166.0</ele><time>2026-04-01T16:00:54Z</time></trkpt><trkpt lat="45.597000970036135" lon="11.36462957521817"><ele>166.0</ele><time>2026-04-01T16:00:55Z</time></trkpt><trkpt lat="45.596925001181226" lon="11.364635847667532"><ele>166.0</ele><time>2026-04-01T16:00:57Z</time></trkpt><trkpt lat="45.59685297960075" lon="11.364565360807946"><ele>165.60000000000002</ele><time>2026-04-01T16:00:59Z</time></trkpt><trkpt lat="45.59677070590857" lon="11.364460293786689"><ele>165.2</ele><time>2026-04-01T16:01:01Z</time></trkpt><trkpt lat="45.596719755703575" lon="11.364310613105001"><ele>164.8</ele><time>2026-04-01T16:01:03Z</time></trkpt><trkpt lat="45.59667923408224" lon="11.364231078384533"><ele>164.39999999999998</ele><time>2026-04-01T16:01:04Z</time></trkpt><trkpt lat="45.59663514435153" lon="11.364094530449982"><ele>164.0</ele><time>2026-04-01T16:01:06Z</time></trkpt><trkpt lat="45.5965692128393" lon="11.36405169191266"><ele>164.0</ele><time>2026-04-01T16:01:08Z</time></trkpt><trkpt lat="45.59646610044856" lon="11.364178401228502"><ele>164.0</ele><time>2026-04-01T16:01:09Z</time></trkpt><trkpt lat="45.59642057513444" lon="11.364244679201818"><ele>164.0</ele><time>2026-04-01T16:01:10Z</time></trkpt><trkpt lat="45.59637649566387" lon="11.364314768252118"><ele>164.0</ele><time>2026-04-01T16:01:11Z</time></trkpt><trkpt lat="45.59632760472441" lon="11.364390733007268"><ele>164.0</ele><time>2026-04-01T16:01:12Z</time></trkpt><trkpt lat="45.59626368366395" lon="11.364490050374272"><ele>164.0</ele><time>2026-04-01T16:01:13Z</time></trkpt><trkpt lat="45.59619593284376" lon="11.364593404023191"><ele>163.2</ele><time>2026-04-01T16:01:14Z</time></trkpt><trkpt lat="45.59612906393776" lon="11.364692209681944"><ele>162.39999999999998</ele><time>2026-04-01T16:01:15Z</time></trkpt><trkpt lat="45.59606017776494" lon="11.364793996238994"><ele>161.6</ele><time>2026-04-01T16:01:16Z</time></trkpt><trkpt lat="45.59598386063112" lon="11.364908595020394"><ele>160.8</ele><time>2026-04-01T16:01:17Z</time></trkpt><trkpt lat="45.5959185324335" lon="11.365006784315597"><ele>160.0</ele><time>2026-04-01T16:01:18Z</time></trkpt><trkpt lat="45.59584783622464" lon="11.365112883109607"><ele>160.0</ele><time>2026-04-01T16:01:19Z</time></trkpt><trkpt lat="45.595769963523104" lon="11.365228573353631"><ele>160.0</ele><time>2026-04-01T16:01:20Z</time></trkpt><trkpt lat="45.59568932914015" lon="11.365348367014482"><ele>160.0</ele><time>2026-04-01T16:01:21Z</time></trkpt><trkpt lat="45.59562506236163" lon="11.365444992077862"><ele>160.0</ele><time>2026-04-01T16:01:22Z</time></trkpt><trkpt lat="45.59554664157159" lon="11.365567127943148"><ele>160.0</ele><time>2026-04-01T16:01:23Z</time></trkpt><trkpt lat="45.595469107377625" lon="11.36568788305828"><ele>160.6</ele><time>2026-04-01T16:01:24Z</time></trkpt><trkpt lat="45.595397717298944" lon="11.365799068917376"><ele>161.2</ele><time>2026-04-01T16:01:25Z</time></trkpt><trkpt lat="45.59532661961729" lon="11.365909799427328"><ele>161.8</ele><time>2026-04-01T16:01:26Z</time></trkpt><trkpt lat="45.59525139898609" lon="11.366024520491514"><ele>162.4</ele><time>2026-04-01T16:01:27Z</time></trkpt><trkpt lat="45.59517955339269" lon="11.366130005915666"><ele>163.0</ele><time>2026-04-01T16:01:28Z</time></trkpt><trkpt lat="45.595115080695315" lon="11.366224289065343"><ele>161.8</ele><time>2026-04-01T16:01:29Z</time></trkpt><trkpt lat="45.5950442988676" lon="11.36632869751137"><ele>160.60000000000002</ele><time>2026-04-01T16:01:30Z</time></trkpt><trkpt lat="45.594970048029076" lon="11.366438827430356"><ele>159.39999999999998</ele><time>2026-04-01T16:01:31Z</time></trkpt><trkpt lat="45.594900931103304" lon="11.36654134251814"><ele>158.2</ele><time>2026-04-01T16:01:32Z</time></trkpt><trkpt lat="45.59482903114124" lon="11.366647985517579"><ele>157.0</ele><time>2026-04-01T16:01:33Z</time></trkpt><trkpt lat="45.59475089595396" lon="11.366763876718906"><ele>157.2</ele><time>2026-04-01T16:01:34Z</time></trkpt><trkpt lat="45.594672113317934" lon="11.366880728187912"><ele>157.39999999999998</ele><time>2026-04-01T16:01:35Z</time></trkpt><trkpt lat="45.5946009391704" lon="11.366986294633834"><ele>157.60000000000002</ele><time>2026-04-01T16:01:36Z</time></trkpt><trkpt lat="45.59453474156169" lon="11.367084479829717"><ele>157.8</ele><time>2026-04-01T16:01:37Z</time></trkpt><trkpt lat="45.59447217244909" lon="11.367178505299025"><ele>158.0</ele><time>2026-04-01T16:01:38Z</time></trkpt><trkpt lat="45.59441503524249" lon="11.367267514508594"><ele>158.0</ele><time>2026-04-01T16:01:39Z</time></trkpt><trkpt lat="45.594362009671435" lon="11.36735011856681"><ele>158.0</ele><time>2026-04-01T16:01:40Z</time></trkpt><trkpt lat="45.59431407730373" lon="11.367458970602351"><ele>158.0</ele><time>2026-04-01T16:01:41Z</time></trkpt><trkpt lat="45.59423945980534" lon="11.3675393831604"><ele>158.0</ele><time>2026-04-01T16:01:42Z</time></trkpt><trkpt lat="45.5942007271559" lon="11.367617800385643"><ele>158.0</ele><time>2026-04-01T16:01:43Z</time></trkpt><trkpt lat="45.59413965994303" lon="11.367715105124864"><ele>158.0</ele><time>2026-04-01T16:01:44Z</time></trkpt><trkpt lat="45.594082377022275" lon="11.367813487991798"><ele>158.0</ele><time>2026-04-01T16:01:45Z</time></trkpt><trkpt lat="45.59401140010157" lon="11.36791880773573"><ele>158.0</ele><time>2026-04-01T16:01:46Z</time></trkpt><trkpt lat="45.59393961438356" lon="11.367996524436371"><ele>158.0</ele><time>2026-04-01T16:01:47Z</time></trkpt><trkpt lat="45.5938941324205" lon="11.368064655692612"><ele>158.0</ele><time>2026-04-01T16:01:48Z</time></trkpt><trkpt lat="45.593820001613736" lon="11.368175702663876"><ele>158.0</ele><time>2026-04-01T16:01:49Z</time></trkpt><trkpt lat="45.59376714243972" lon="11.368254884997093"><ele>158.0</ele><time>2026-04-01T16:01:50Z</time></trkpt><trkpt lat="45.593688688592934" lon="11.368373325843647"><ele>158.0</ele><time>2026-04-01T16:01:52Z</time></trkpt><trkpt lat="45.593636886275" lon="11.368452153843133"><ele>158.0</ele><time>2026-04-01T16:01:54Z</time></trkpt><trkpt lat="45.5935587418186" lon="11.368555025286607"><ele>158.0</ele><time>2026-04-01T16:01:56Z</time></trkpt><trkpt lat="45.593503209924485" lon="11.368655570052917"><ele>158.0</ele><time>2026-04-01T16:01:58Z</time></trkpt><trkpt lat="45.593428839397134" lon="11.368801681769716"><ele>158.0</ele><time>2026-04-01T16:02:00Z</time></trkpt><trkpt lat="45.593329576819855" lon="11.36893863394789"><ele>158.0</ele><time>2026-04-01T16:02:02Z</time></trkpt><trkpt lat="45.59324894033449" lon="11.369043091681922"><ele>158.0</ele><time>2026-04-01T16:02:04Z</time></trkpt><trkpt lat="45.59320649381326" lon="11.369109559722933"><ele>158.0</ele><time>2026-04-01T16:02:06Z</time></trkpt><trkpt lat="45.593148147047266" lon="11.369210619423459"><ele>158.0</ele><time>2026-04-01T16:02:08Z</time></trkpt><trkpt lat="45.59310942517961" lon="11.369300327331759"><ele>158.0</ele><time>2026-04-01T16:02:10Z</time></trkpt><trkpt lat="45.59305546714686" lon="11.369378808247316"><ele>158.0</ele><time>2026-04-01T16:02:13Z</time></trkpt></trkseg></trk></gpx>